<?xml version='1.0' encoding='UTF-8'?><gpx version="1.1" creator="JPX - https://github.com/jenetics/jpx" xmlns="http://www.topografix.com/GPX/1/1"><trk><trkseg><trkpt lat="44.2833125" lon="8.4318458"><ele>7.0</ele><time>2026-04-26T08:20:31.494Z</time></trkpt><trkpt lat="44.2834004" lon="8.4317687"><ele>7.0</ele><time>2026-04-26T08:20:32.494Z</time></trkpt><trkpt lat="44.2835139" lon="8.4316569"><ele>7.0</ele><time>2026-04-26T08:20:33.995Z</time></trkpt><trkpt lat="44.2836602" lon="8.4314616"><ele>7.0</ele><time>2026-04-26T08:20:35.994Z</time></trkpt><trkpt lat="44.2837443" lon="8.4313497"><ele>7.199999999999999</ele><time>2026-04-26T08:20:36.994Z</time></trkpt><trkpt lat="44.283825" lon="8.4312418"><ele>7.3999999999999995</ele><time>2026-04-26T08:20:37.994Z</time></trkpt><trkpt lat="44.2838914" lon="8.4311259"><ele>7.6000000000000005</ele><time>2026-04-26T08:20:38.994Z</time></trkpt><trkpt lat="44.2839524" lon="8.4310099"><ele>7.800000000000001</ele><time>2026-04-26T08:20:39.995Z</time></trkpt><trkpt lat="44.2840089" lon="8.430919"><ele>8.0</ele><time>2026-04-26T08:20:40.994Z</time></trkpt><trkpt lat="44.2840974" lon="8.4308134"><ele>8.4</ele><time>2026-04-26T08:20:41.995Z</time></trkpt><trkpt lat="44.2841568" lon="8.4307219"><ele>8.8</ele><time>2026-04-26T08:20:42.994Z</time></trkpt><trkpt lat="44.2842107" lon="8.4306441"><ele>9.2</ele><time>2026-04-26T08:20:43.995Z</time></trkpt><trkpt lat="44.2842919" lon="8.4305487"><ele>9.6</ele><time>2026-04-26T08:20:45.994Z</time></trkpt><trkpt lat="44.2843972" lon="8.4306134"><ele>10.0</ele><time>2026-04-26T08:20:47.994Z</time></trkpt><trkpt lat="44.2844657" lon="8.4307038"><ele>10.0</ele><time>2026-04-26T08:20:48.994Z</time></trkpt><trkpt lat="44.2845419" lon="8.4308079"><ele>10.0</ele><time>2026-04-26T08:20:49.994Z</time></trkpt><trkpt lat="44.2846194" lon="8.4309172"><ele>10.0</ele><time>2026-04-26T08:20:50.994Z</time></trkpt><trkpt lat="44.284694" lon="8.4310274"><ele>10.0</ele><time>2026-04-26T08:20:51.994Z</time></trkpt><trkpt lat="44.2847711" lon="8.4311394"><ele>10.0</ele><time>2026-04-26T08:20:52.994Z</time></trkpt><trkpt lat="44.2848422" lon="8.4312379"><ele>9.4</ele><time>2026-04-26T08:20:53.994Z</time></trkpt><trkpt lat="44.2849042" lon="8.4313372"><ele>8.8</ele><time>2026-04-26T08:20:54.995Z</time></trkpt><trkpt lat="44.2849622" lon="8.4314297"><ele>8.2</ele><time>2026-04-26T08:20:55.994Z</time></trkpt><trkpt lat="44.2850208" lon="8.4315253"><ele>7.6</ele><time>2026-04-26T08:20:56.994Z</time></trkpt><trkpt lat="44.2850866" lon="8.4316161"><ele>7.0</ele><time>2026-04-26T08:20:57.994Z</time></trkpt><trkpt lat="44.2851545" lon="8.4317217"><ele>7.0</ele><time>2026-04-26T08:20:58.995Z</time></trkpt><trkpt lat="44.2852249" lon="8.4318295"><ele>6.999999999999999</ele><time>2026-04-26T08:20:59.994Z</time></trkpt><trkpt lat="44.2852922" lon="8.4319368"><ele>6.999999999999999</ele><time>2026-04-26T08:21:00.994Z</time></trkpt><trkpt lat="44.2853589" lon="8.432046"><ele>7.0</ele><time>2026-04-26T08:21:01.994Z</time></trkpt><trkpt lat="44.2854236" lon="8.4321498"><ele>7.0</ele><time>2026-04-26T08:21:02.994Z</time></trkpt><trkpt lat="44.2854793" lon="8.4322449"><ele>7.166666666666667</ele><time>2026-04-26T08:21:03.994Z</time></trkpt><trkpt lat="44.2855354" lon="8.4323345"><ele>7.333333333333334</ele><time>2026-04-26T08:21:04.994Z</time></trkpt><trkpt lat="44.2855918" lon="8.4324233"><ele>7.5</ele><time>2026-04-26T08:21:05.994Z</time></trkpt><trkpt lat="44.2856452" lon="8.4325044"><ele>7.666666666666666</ele><time>2026-04-26T08:21:06.994Z</time></trkpt><trkpt lat="44.2856907" lon="8.4325754"><ele>7.833333333333333</ele><time>2026-04-26T08:21:07.994Z</time></trkpt><trkpt lat="44.2857397" lon="8.4326428"><ele>8.0</ele><time>2026-04-26T08:21:08.994Z</time></trkpt><trkpt lat="44.2857852" lon="8.4327076"><ele>7.999999999999999</ele><time>2026-04-26T08:21:09.994Z</time></trkpt><trkpt lat="44.2858314" lon="8.4327778"><ele>8.0</ele><time>2026-04-26T08:21:10.994Z</time></trkpt><trkpt lat="44.2858765" lon="8.4328494"><ele>8.0</ele><time>2026-04-26T08:21:11.994Z</time></trkpt><trkpt lat="44.2859506" lon="8.4329786"><ele>8.0</ele><time>2026-04-26T08:21:13.994Z</time></trkpt><trkpt lat="44.28599" lon="8.4331022"><ele>7.999999999999999</ele><time>2026-04-26T08:21:15.994Z</time></trkpt><trkpt lat="44.2859721" lon="8.4331889"><ele>8.0</ele><time>2026-04-26T08:21:16.994Z</time></trkpt><trkpt lat="44.2859326" lon="8.4332672"><ele>8.0</ele><time>2026-04-26T08:21:17.994Z</time></trkpt><trkpt lat="44.2858561" lon="8.4333479"><ele>8.0</ele><time>2026-04-26T08:21:18.994Z</time></trkpt><trkpt lat="44.2857547" lon="8.4334401"><ele>8.0</ele><time>2026-04-26T08:21:19.994Z</time></trkpt><trkpt lat="44.285641" lon="8.4335424"><ele>8.0</ele><time>2026-04-26T08:21:20.994Z</time></trkpt><trkpt lat="44.2855168" lon="8.4336561"><ele>8.0</ele><time>2026-04-26T08:21:21.994Z</time></trkpt><trkpt lat="44.2853973" lon="8.4337746"><ele>8.0</ele><time>2026-04-26T08:21:22.995Z</time></trkpt><trkpt lat="44.2852766" lon="8.4339059"><ele>8.0</ele><time>2026-04-26T08:21:23.994Z</time></trkpt><trkpt lat="44.2851586" lon="8.4340481"><ele>8.25</ele><time>2026-04-26T08:21:24.994Z</time></trkpt><trkpt lat="44.2850573" lon="8.4341881"><ele>8.5</ele><time>2026-04-26T08:21:25.994Z</time></trkpt><trkpt lat="44.2849727" lon="8.4343191"><ele>8.75</ele><time>2026-04-26T08:21:26.994Z</time></trkpt><trkpt lat="44.284898" lon="8.4344397"><ele>9.0</ele><time>2026-04-26T08:21:27.994Z</time></trkpt><trkpt lat="44.2848309" lon="8.4345597"><ele>8.6</ele><time>2026-04-26T08:21:28.994Z</time></trkpt><trkpt lat="44.2847687" lon="8.4346784"><ele>8.2</ele><time>2026-04-26T08:21:29.994Z</time></trkpt><trkpt lat="44.2847124" lon="8.4347952"><ele>7.799999999999999</ele><time>2026-04-26T08:21:30.994Z</time></trkpt><trkpt lat="44.2846685" lon="8.4349053"><ele>7.3999999999999995</ele><time>2026-04-26T08:21:31.994Z</time></trkpt><trkpt lat="44.2846296" lon="8.4350041"><ele>7.0</ele><time>2026-04-26T08:21:32.994Z</time></trkpt><trkpt lat="44.2845874" lon="8.4350924"><ele>7.0</ele><time>2026-04-26T08:21:33.994Z</time></trkpt><trkpt lat="44.2845558" lon="8.4351731"><ele>6.999999999999999</ele><time>2026-04-26T08:21:34.994Z</time></trkpt><trkpt lat="44.2845708" lon="8.4353246"><ele>6.999999999999999</ele><time>2026-04-26T08:21:36.994Z</time></trkpt><trkpt lat="44.2846832" lon="8.4354043"><ele>7.0</ele><time>2026-04-26T08:21:38.994Z</time></trkpt><trkpt lat="44.2847721" lon="8.4354411"><ele>7.0</ele><time>2026-04-26T08:21:39.994Z</time></trkpt><trkpt lat="44.2848764" lon="8.435501"><ele>7.5</ele><time>2026-04-26T08:21:40.994Z</time></trkpt><trkpt lat="44.2849918" lon="8.4355855"><ele>8.0</ele><time>2026-04-26T08:21:41.995Z</time></trkpt><trkpt lat="44.2851139" lon="8.4356818"><ele>8.5</ele><time>2026-04-26T08:21:42.994Z</time></trkpt><trkpt lat="44.2852355" lon="8.4357777"><ele>9.0</ele><time>2026-04-26T08:21:43.994Z</time></trkpt><trkpt lat="44.2853579" lon="8.4358904"><ele>9.0</ele><time>2026-04-26T08:21:44.994Z</time></trkpt><trkpt lat="44.285486" lon="8.4360083"><ele>9.0</ele><time>2026-04-26T08:21:45.994Z</time></trkpt><trkpt lat="44.2856149" lon="8.4361369"><ele>9.0</ele><time>2026-04-26T08:21:46.994Z</time></trkpt><trkpt lat="44.2857541" lon="8.4362796"><ele>9.666666666666666</ele><time>2026-04-26T08:21:47.994Z</time></trkpt><trkpt lat="44.2859046" lon="8.4364336"><ele>10.333333333333332</ele><time>2026-04-26T08:21:48.994Z</time></trkpt><trkpt lat="44.2860543" lon="8.4366096"><ele>11.0</ele><time>2026-04-26T08:21:49.994Z</time></trkpt><trkpt lat="44.2861958" lon="8.4367955"><ele>11.0</ele><time>2026-04-26T08:21:50.994Z</time></trkpt><trkpt lat="44.2863369" lon="8.4369969"><ele>11.0</ele><time>2026-04-26T08:21:51.994Z</time></trkpt><trkpt lat="44.2864709" lon="8.4372013"><ele>11.0</ele><time>2026-04-26T08:21:52.994Z</time></trkpt><trkpt lat="44.2866008" lon="8.4374156"><ele>12.333333333333332</ele><time>2026-04-26T08:21:53.994Z</time></trkpt><trkpt lat="44.2867246" lon="8.4376378"><ele>13.666666666666666</ele><time>2026-04-26T08:21:54.994Z</time></trkpt><trkpt lat="44.2868474" lon="8.4378636"><ele>15.0</ele><time>2026-04-26T08:21:55.994Z</time></trkpt><trkpt lat="44.2869576" lon="8.438095"><ele>15.0</ele><time>2026-04-26T08:21:56.994Z</time></trkpt><trkpt lat="44.2870479" lon="8.4383134"><ele>15.0</ele><time>2026-04-26T08:21:57.994Z</time></trkpt><trkpt lat="44.2871371" lon="8.4385268"><ele>15.0</ele><time>2026-04-26T08:21:58.994Z</time></trkpt><trkpt lat="44.2872251" lon="8.4387386"><ele>17.666666666666668</ele><time>2026-04-26T08:21:59.994Z</time></trkpt><trkpt lat="44.2873141" lon="8.43896"><ele>20.333333333333336</ele><time>2026-04-26T08:22:00.994Z</time></trkpt><trkpt lat="44.2873922" lon="8.4391774"><ele>23.0</ele><time>2026-04-26T08:22:01.994Z</time></trkpt><trkpt lat="44.2874715" lon="8.4393831"><ele>23.0</ele><time>2026-04-26T08:22:02.994Z</time></trkpt><trkpt lat="44.2875555" lon="8.4395978"><ele>23.0</ele><time>2026-04-26T08:22:03.994Z</time></trkpt><trkpt lat="44.2876358" lon="8.4398033"><ele>23.0</ele><time>2026-04-26T08:22:04.994Z</time></trkpt><trkpt lat="44.287721" lon="8.440002"><ele>23.0</ele><time>2026-04-26T08:22:05.994Z</time></trkpt><trkpt lat="44.2877946" lon="8.4402148"><ele>23.0</ele><time>2026-04-26T08:22:06.994Z</time></trkpt><trkpt lat="44.2878599" lon="8.4404323"><ele>23.0</ele><time>2026-04-26T08:22:07.994Z</time></trkpt><trkpt lat="44.2879204" lon="8.4406496"><ele>23.0</ele><time>2026-04-26T08:22:08.994Z</time></trkpt><trkpt lat="44.2879855" lon="8.4408645"><ele>23.0</ele><time>2026-04-26T08:22:09.994Z</time></trkpt><trkpt lat="44.2880374" lon="8.4410979"><ele>23.0</ele><time>2026-04-26T08:22:10.994Z</time></trkpt><trkpt lat="44.2881058" lon="8.4413081"><ele>23.333333333333336</ele><time>2026-04-26T08:22:11.994Z</time></trkpt><trkpt lat="44.2881671" lon="8.4415097"><ele>23.666666666666668</ele><time>2026-04-26T08:22:12.994Z</time></trkpt><trkpt lat="44.2882346" lon="8.4416936"><ele>24.0</ele><time>2026-04-26T08:22:13.994Z</time></trkpt><trkpt lat="44.2883041" lon="8.441881"><ele>24.0</ele><time>2026-04-26T08:22:14.994Z</time></trkpt><trkpt lat="44.2883709" lon="8.4420541"><ele>24.0</ele><time>2026-04-26T08:22:15.994Z</time></trkpt><trkpt lat="44.2884255" lon="8.4422181"><ele>24.0</ele><time>2026-04-26T08:22:16.994Z</time></trkpt><trkpt lat="44.2884706" lon="8.4423797"><ele>24.0</ele><time>2026-04-26T08:22:17.994Z</time></trkpt><trkpt lat="44.2884895" lon="8.4425392"><ele>24.0</ele><time>2026-04-26T08:22:18.994Z</time></trkpt><trkpt lat="44.2884834" lon="8.4427079"><ele>24.0</ele><time>2026-04-26T08:22:19.994Z</time></trkpt><trkpt lat="44.2884477" lon="8.4428979"><ele>24.0</ele><time>2026-04-26T08:22:20.994Z</time></trkpt><trkpt lat="44.2883926" lon="8.4431124"><ele>24.0</ele><time>2026-04-26T08:22:21.994Z</time></trkpt><trkpt lat="44.2883293" lon="8.4433418"><ele>25.333333333333336</ele><time>2026-04-26T08:22:22.995Z</time></trkpt><trkpt lat="44.2882644" lon="8.4435696"><ele>26.666666666666668</ele><time>2026-04-26T08:22:23.994Z</time></trkpt><trkpt lat="44.2881923" lon="8.4437837"><ele>28.0</ele><time>2026-04-26T08:22:24.994Z</time></trkpt><trkpt lat="44.288111" lon="8.4439887"><ele>27.5</ele><time>2026-04-26T08:22:25.994Z</time></trkpt><trkpt lat="44.2880245" lon="8.4441808"><ele>27.0</ele><time>2026-04-26T08:22:26.994Z</time></trkpt><trkpt lat="44.2879513" lon="8.4443494"><ele>26.5</ele><time>2026-04-26T08:22:27.994Z</time></trkpt><trkpt lat="44.287881" lon="8.4444986"><ele>26.0</ele><time>2026-04-26T08:22:28.994Z</time></trkpt><trkpt lat="44.287806" lon="8.4446262"><ele>25.6</ele><time>2026-04-26T08:22:29.994Z</time></trkpt><trkpt lat="44.2877393" lon="8.4447391"><ele>25.200000000000003</ele><time>2026-04-26T08:22:30.994Z</time></trkpt><trkpt lat="44.2876853" lon="8.444826"><ele>24.799999999999997</ele><time>2026-04-26T08:22:31.994Z</time></trkpt><trkpt lat="44.287648" lon="8.4448972"><ele>24.4</ele><time>2026-04-26T08:22:32.994Z</time></trkpt><trkpt lat="44.2876279" lon="8.4450247"><ele>24.0</ele><time>2026-04-26T08:22:34.994Z</time></trkpt><trkpt lat="44.2876466" lon="8.4451941"><ele>24.0</ele><time>2026-04-26T08:22:36.994Z</time></trkpt><trkpt lat="44.2876521" lon="8.4453172"><ele>24.0</ele><time>2026-04-26T08:22:37.994Z</time></trkpt><trkpt lat="44.2876698" lon="8.4454813"><ele>24.0</ele><time>2026-04-26T08:22:38.995Z</time></trkpt><trkpt lat="44.2876849" lon="8.4456441"><ele>24.0</ele><time>2026-04-26T08:22:39.994Z</time></trkpt><trkpt lat="44.2876822" lon="8.4457875"><ele>24.0</ele><time>2026-04-26T08:22:40.994Z</time></trkpt><trkpt lat="44.2876719" lon="8.4459135"><ele>23.6</ele><time>2026-04-26T08:22:41.994Z</time></trkpt><trkpt lat="44.2876804" lon="8.4460025"><ele>23.2</ele><time>2026-04-26T08:22:42.994Z</time></trkpt><trkpt lat="44.2877353" lon="8.4461282"><ele>22.8</ele><time>2026-04-26T08:22:44.994Z</time></trkpt><trkpt lat="44.287842" lon="8.4461219"><ele>22.400000000000002</ele><time>2026-04-26T08:22:46.994Z</time></trkpt><trkpt lat="44.2879241" lon="8.4460443"><ele>22.0</ele><time>2026-04-26T08:22:47.994Z</time></trkpt><trkpt lat="44.2880384" lon="8.4459353"><ele>24.200000000000003</ele><time>2026-04-26T08:22:48.994Z</time></trkpt><trkpt lat="44.2881431" lon="8.4458637"><ele>26.4</ele><time>2026-04-26T08:22:49.994Z</time></trkpt><trkpt lat="44.28824" lon="8.4458284"><ele>28.599999999999998</ele><time>2026-04-26T08:22:50.994Z</time></trkpt><trkpt lat="44.2883369" lon="8.4458196"><ele>30.799999999999997</ele><time>2026-04-26T08:22:51.994Z</time></trkpt><trkpt lat="44.2884437" lon="8.445811"><ele>33.0</ele><time>2026-04-26T08:22:52.994Z</time></trkpt><trkpt lat="44.2885539" lon="8.44577"><ele>33.0</ele><time>2026-04-26T08:22:53.994Z</time></trkpt><trkpt lat="44.2886634" lon="8.4456923"><ele>33.0</ele><time>2026-04-26T08:22:54.994Z</time></trkpt><trkpt lat="44.2887851" lon="8.44561"><ele>33.0</ele><time>2026-04-26T08:22:55.994Z</time></trkpt><trkpt lat="44.2889023" lon="8.4455048"><ele>33.0</ele><time>2026-04-26T08:22:56.994Z</time></trkpt><trkpt lat="44.2890144" lon="8.4453808"><ele>35.25</ele><time>2026-04-26T08:22:57.994Z</time></trkpt><trkpt lat="44.2891119" lon="8.445245"><ele>37.5</ele><time>2026-04-26T08:22:58.994Z</time></trkpt><trkpt lat="44.2891947" lon="8.4451204"><ele>39.75</ele><time>2026-04-26T08:22:59.994Z</time></trkpt><trkpt lat="44.2892667" lon="8.4450087"><ele>42.0</ele><time>2026-04-26T08:23:00.994Z</time></trkpt><trkpt lat="44.2893356" lon="8.4449072"><ele>42.0</ele><time>2026-04-26T08:23:01.994Z</time></trkpt><trkpt lat="44.2893942" lon="8.4448136"><ele>42.0</ele><time>2026-04-26T08:23:02.995Z</time></trkpt><trkpt lat="44.2894527" lon="8.44474"><ele>42.0</ele><time>2026-04-26T08:23:03.994Z</time></trkpt><trkpt lat="44.28952" lon="8.4447014"><ele>42.0</ele><time>2026-04-26T08:23:04.994Z</time></trkpt><trkpt lat="44.2895854" lon="8.4446974"><ele>42.0</ele><time>2026-04-26T08:23:05.995Z</time></trkpt><trkpt lat="44.2896507" lon="8.4447286"><ele>42.0</ele><time>2026-04-26T08:23:06.994Z</time></trkpt><trkpt lat="44.2897342" lon="8.4447925"><ele>42.0</ele><time>2026-04-26T08:23:07.994Z</time></trkpt><trkpt lat="44.2898399" lon="8.444907"><ele>42.0</ele><time>2026-04-26T08:23:08.994Z</time></trkpt><trkpt lat="44.289961" lon="8.4450451"><ele>42.0</ele><time>2026-04-26T08:23:09.994Z</time></trkpt><trkpt lat="44.2900776" lon="8.4451909"><ele>42.0</ele><time>2026-04-26T08:23:10.994Z</time></trkpt><trkpt lat="44.2902051" lon="8.4453259"><ele>42.0</ele><time>2026-04-26T08:23:11.994Z</time></trkpt><trkpt lat="44.2903304" lon="8.4454593"><ele>42.0</ele><time>2026-04-26T08:23:12.994Z</time></trkpt><trkpt lat="44.290449" lon="8.4455834"><ele>42.0</ele><time>2026-04-26T08:23:13.994Z</time></trkpt><trkpt lat="44.2905615" lon="8.4457094"><ele>41.25</ele><time>2026-04-26T08:23:14.994Z</time></trkpt><trkpt lat="44.2906725" lon="8.4458254"><ele>40.5</ele><time>2026-04-26T08:23:15.994Z</time></trkpt><trkpt lat="44.2907735" lon="8.4459342"><ele>39.75</ele><time>2026-04-26T08:23:16.994Z</time></trkpt><trkpt lat="44.2908754" lon="8.4460292"><ele>39.0</ele><time>2026-04-26T08:23:17.994Z</time></trkpt><trkpt lat="44.2909679" lon="8.4461108"><ele>39.0</ele><time>2026-04-26T08:23:18.994Z</time></trkpt><trkpt lat="44.2910553" lon="8.446172"><ele>39.0</ele><time>2026-04-26T08:23:19.994Z</time></trkpt><trkpt lat="44.2911276" lon="8.4462237"><ele>39.0</ele><time>2026-04-26T08:23:20.994Z</time></trkpt><trkpt lat="44.2911831" lon="8.4463509"><ele>39.0</ele><time>2026-04-26T08:23:22.994Z</time></trkpt><trkpt lat="44.2911672" lon="8.446438"><ele>39.0</ele><time>2026-04-26T08:23:23.994Z</time></trkpt><trkpt lat="44.2911252" lon="8.446546"><ele>39.0</ele><time>2026-04-26T08:23:24.994Z</time></trkpt><trkpt lat="44.2910765" lon="8.4466846"><ele>38.6</ele><time>2026-04-26T08:23:25.994Z</time></trkpt><trkpt lat="44.2910449" lon="8.4468194"><ele>38.2</ele><time>2026-04-26T08:23:26.994Z</time></trkpt><trkpt lat="44.291038" lon="8.4469557"><ele>37.800000000000004</ele><time>2026-04-26T08:23:27.994Z</time></trkpt><trkpt lat="44.2910461" lon="8.4470932"><ele>37.4</ele><time>2026-04-26T08:23:28.994Z</time></trkpt><trkpt lat="44.2910659" lon="8.4472288"><ele>37.0</ele><time>2026-04-26T08:23:29.994Z</time></trkpt><trkpt lat="44.2910917" lon="8.4473716"><ele>36.4</ele><time>2026-04-26T08:23:30.994Z</time></trkpt><trkpt lat="44.2911143" lon="8.4475138"><ele>35.800000000000004</ele><time>2026-04-26T08:23:31.995Z</time></trkpt><trkpt lat="44.2911372" lon="8.4476494"><ele>35.2</ele><time>2026-04-26T08:23:32.994Z</time></trkpt><trkpt lat="44.2911517" lon="8.447775"><ele>34.6</ele><time>2026-04-26T08:23:33.994Z</time></trkpt><trkpt lat="44.2911487" lon="8.4478905"><ele>34.0</ele><time>2026-04-26T08:23:34.994Z</time></trkpt><trkpt lat="44.2911393" lon="8.4479942"><ele>34.0</ele><time>2026-04-26T08:23:35.994Z</time></trkpt><trkpt lat="44.2911202" lon="8.4480949"><ele>34.0</ele><time>2026-04-26T08:23:36.994Z</time></trkpt><trkpt lat="44.2910908" lon="8.44819"><ele>34.0</ele><time>2026-04-26T08:23:37.994Z</time></trkpt><trkpt lat="44.2910641" lon="8.4482751"><ele>34.0</ele><time>2026-04-26T08:23:38.994Z</time></trkpt><trkpt lat="44.2910157" lon="8.4484356"><ele>34.0</ele><time>2026-04-26T08:23:40.994Z</time></trkpt><trkpt lat="44.2909643" lon="8.4485904"><ele>34.0</ele><time>2026-04-26T08:23:42.995Z</time></trkpt><trkpt lat="44.2909188" lon="8.4487346"><ele>34.0</ele><time>2026-04-26T08:23:44.994Z</time></trkpt><trkpt lat="44.2908726" lon="8.4488852"><ele>34.0</ele><time>2026-04-26T08:23:46.994Z</time></trkpt><trkpt lat="44.2908346" lon="8.4490426"><ele>34.0</ele><time>2026-04-26T08:23:48.994Z</time></trkpt><trkpt lat="44.2908016" lon="8.4492288"><ele>34.0</ele><time>2026-04-26T08:23:50.995Z</time></trkpt><trkpt lat="44.2907855" lon="8.4494058"><ele>34.0</ele><time>2026-04-26T08:23:52.995Z</time></trkpt><trkpt lat="44.2907971" lon="8.4494955"><ele>34.0</ele><time>2026-04-26T08:23:53.994Z</time></trkpt><trkpt lat="44.2908269" lon="8.4495984"><ele>34.0</ele><time>2026-04-26T08:23:54.994Z</time></trkpt><trkpt lat="44.2908849" lon="8.4497075"><ele>34.0</ele><time>2026-04-26T08:23:55.994Z</time></trkpt><trkpt lat="44.2909771" lon="8.4498007"><ele>31.799999999999997</ele><time>2026-04-26T08:23:56.994Z</time></trkpt><trkpt lat="44.2910849" lon="8.4498654"><ele>29.599999999999998</ele><time>2026-04-26T08:23:57.994Z</time></trkpt><trkpt lat="44.2911923" lon="8.4499143"><ele>27.4</ele><time>2026-04-26T08:23:58.994Z</time></trkpt><trkpt lat="44.2912822" lon="8.4499371"><ele>25.2</ele><time>2026-04-26T08:23:59.994Z</time></trkpt><trkpt lat="44.2913501" lon="8.4499525"><ele>23.0</ele><time>2026-04-26T08:24:00.994Z</time></trkpt><trkpt lat="44.2914124" lon="8.449976"><ele>23.0</ele><time>2026-04-26T08:24:01.995Z</time></trkpt><trkpt lat="44.2914858" lon="8.4500842"><ele>23.0</ele><time>2026-04-26T08:24:03.995Z</time></trkpt><trkpt lat="44.2915004" lon="8.4501724"><ele>23.0</ele><time>2026-04-26T08:24:04.994Z</time></trkpt><trkpt lat="44.2914955" lon="8.4502657"><ele>23.0</ele><time>2026-04-26T08:24:05.994Z</time></trkpt><trkpt lat="44.2914653" lon="8.4503604"><ele>23.0</ele><time>2026-04-26T08:24:06.994Z</time></trkpt><trkpt lat="44.2914181" lon="8.4504261"><ele>23.0</ele><time>2026-04-26T08:24:07.994Z</time></trkpt><trkpt lat="44.2913533" lon="8.4504507"><ele>23.0</ele><time>2026-04-26T08:24:08.994Z</time></trkpt><trkpt lat="44.2912639" lon="8.4504458"><ele>23.0</ele><time>2026-04-26T08:24:09.995Z</time></trkpt><trkpt lat="44.29114" lon="8.450405"><ele>23.0</ele><time>2026-04-26T08:24:10.994Z</time></trkpt><trkpt lat="44.2910068" lon="8.4503535"><ele>23.0</ele><time>2026-04-26T08:24:11.994Z</time></trkpt><trkpt lat="44.290876" lon="8.4502986"><ele>23.0</ele><time>2026-04-26T08:24:12.994Z</time></trkpt><trkpt lat="44.2907509" lon="8.4502412"><ele>23.0</ele><time>2026-04-26T08:24:13.994Z</time></trkpt><trkpt lat="44.2906362" lon="8.4501815"><ele>23.0</ele><time>2026-04-26T08:24:14.994Z</time></trkpt><trkpt lat="44.2905334" lon="8.4501208"><ele>23.0</ele><time>2026-04-26T08:24:15.994Z</time></trkpt><trkpt lat="44.2904416" lon="8.4500591"><ele>23.0</ele><time>2026-04-26T08:24:16.994Z</time></trkpt><trkpt lat="44.2903522" lon="8.4500017"><ele>23.0</ele><time>2026-04-26T08:24:17.994Z</time></trkpt><trkpt lat="44.2902662" lon="8.4499487"><ele>23.0</ele><time>2026-04-26T08:24:18.994Z</time></trkpt><trkpt lat="44.2901894" lon="8.4498911"><ele>23.0</ele><time>2026-04-26T08:24:19.994Z</time></trkpt><trkpt lat="44.290123" lon="8.44981"><ele>23.0</ele><time>2026-04-26T08:24:20.994Z</time></trkpt><trkpt lat="44.2900553" lon="8.4497323"><ele>23.0</ele><time>2026-04-26T08:24:21.994Z</time></trkpt><trkpt lat="44.2899835" lon="8.4496666"><ele>23.0</ele><time>2026-04-26T08:24:22.994Z</time></trkpt><trkpt lat="44.2899068" lon="8.449611"><ele>23.0</ele><time>2026-04-26T08:24:23.994Z</time></trkpt><trkpt lat="44.2898318" lon="8.4495556"><ele>23.0</ele><time>2026-04-26T08:24:24.994Z</time></trkpt><trkpt lat="44.2897748" lon="8.449502"><ele>23.0</ele><time>2026-04-26T08:24:25.994Z</time></trkpt><trkpt lat="44.2897243" lon="8.4493808"><ele>23.0</ele><time>2026-04-26T08:24:27.993Z</time></trkpt><trkpt lat="44.2896932" lon="8.44927"><ele>23.0</ele><time>2026-04-26T08:24:29.993Z</time></trkpt><trkpt lat="44.2896556" lon="8.4491941"><ele>23.0</ele><time>2026-04-26T08:24:32.994Z</time></trkpt><trkpt lat="44.2896" lon="8.4491417"><ele>23.0</ele><time>2026-04-26T08:29:52.993Z</time></trkpt><trkpt lat="44.28952" lon="8.4490683"><ele>23.166666666666668</ele><time>2026-04-26T08:29:54.993Z</time></trkpt><trkpt lat="44.2894517" lon="8.4489967"><ele>23.333333333333336</ele><time>2026-04-26T08:29:56.994Z</time></trkpt><trkpt lat="44.2894133" lon="8.448925"><ele>23.5</ele><time>2026-04-26T08:29:58.993Z</time></trkpt><trkpt lat="44.28936" lon="8.4488433"><ele>23.666666666666668</ele><time>2026-04-26T08:47:03.992Z</time></trkpt><trkpt lat="44.2893033" lon="8.4487817"><ele>23.833333333333332</ele><time>2026-04-26T08:47:05.992Z</time></trkpt><trkpt lat="44.2892267" lon="8.4487483"><ele>24.0</ele><time>2026-04-26T08:47:08.992Z</time></trkpt><trkpt lat="44.28915" lon="8.448725"><ele>24.0</ele><time>2026-04-26T08:47:40.992Z</time></trkpt><trkpt lat="44.289065" lon="8.44864"><ele>24.0</ele><time>2026-04-26T08:47:42.992Z</time></trkpt><trkpt lat="44.2889933" lon="8.4485533"><ele>24.0</ele><time>2026-04-26T08:47:43.992Z</time></trkpt><trkpt lat="44.288925" lon="8.4484617"><ele>24.0</ele><time>2026-04-26T08:47:44.992Z</time></trkpt><trkpt lat="44.2888517" lon="8.4483667"><ele>24.0</ele><time>2026-04-26T08:47:45.992Z</time></trkpt><trkpt lat="44.2887733" lon="8.44827"><ele>23.799999999999997</ele><time>2026-04-26T08:47:46.993Z</time></trkpt><trkpt lat="44.2886983" lon="8.4481683"><ele>23.599999999999998</ele><time>2026-04-26T08:47:47.992Z</time></trkpt><trkpt lat="44.2886233" lon="8.44806"><ele>23.4</ele><time>2026-04-26T08:47:48.992Z</time></trkpt><trkpt lat="44.2885583" lon="8.4479517"><ele>23.2</ele><time>2026-04-26T08:47:49.992Z</time></trkpt><trkpt lat="44.28849" lon="8.4478417"><ele>23.0</ele><time>2026-04-26T08:47:50.992Z</time></trkpt><trkpt lat="44.2884183" lon="8.4477317"><ele>23.0</ele><time>2026-04-26T08:47:51.992Z</time></trkpt><trkpt lat="44.288345" lon="8.4476233"><ele>23.0</ele><time>2026-04-26T08:47:52.992Z</time></trkpt><trkpt lat="44.28827" lon="8.4475017"><ele>23.0</ele><time>2026-04-26T08:47:53.992Z</time></trkpt><trkpt lat="44.288185" lon="8.4473817"><ele>23.0</ele><time>2026-04-26T08:47:54.992Z</time></trkpt><trkpt lat="44.28811" lon="8.4472583"><ele>22.0</ele><time>2026-04-26T08:47:55.992Z</time></trkpt><trkpt lat="44.2880367" lon="8.4471317"><ele>21.0</ele><time>2026-04-26T08:47:56.993Z</time></trkpt><trkpt lat="44.2879667" lon="8.44701"><ele>20.0</ele><time>2026-04-26T08:47:57.992Z</time></trkpt><trkpt lat="44.2878933" lon="8.4469"><ele>19.0</ele><time>2026-04-26T08:47:58.992Z</time></trkpt><trkpt lat="44.2878283" lon="8.4467967"><ele>18.0</ele><time>2026-04-26T08:47:59.992Z</time></trkpt><trkpt lat="44.28778" lon="8.4466867"><ele>18.0</ele><time>2026-04-26T08:48:00.992Z</time></trkpt><trkpt lat="44.2877383" lon="8.446565"><ele>18.0</ele><time>2026-04-26T08:48:01.992Z</time></trkpt><trkpt lat="44.2876967" lon="8.4464433"><ele>18.0</ele><time>2026-04-26T08:48:02.992Z</time></trkpt><trkpt lat="44.2876583" lon="8.4463367"><ele>18.0</ele><time>2026-04-26T08:48:03.992Z</time></trkpt><trkpt lat="44.28762" lon="8.44623"><ele>18.0</ele><time>2026-04-26T08:48:04.992Z</time></trkpt><trkpt lat="44.2875817" lon="8.4461317"><ele>18.0</ele><time>2026-04-26T08:48:05.992Z</time></trkpt><trkpt lat="44.2875517" lon="8.4460333"><ele>18.666666666666668</ele><time>2026-04-26T08:48:06.992Z</time></trkpt><trkpt lat="44.2875133" lon="8.4459317"><ele>19.333333333333332</ele><time>2026-04-26T08:48:07.992Z</time></trkpt><trkpt lat="44.2874783" lon="8.4458433"><ele>20.0</ele><time>2026-04-26T08:48:08.992Z</time></trkpt><trkpt lat="44.287445" lon="8.445755"><ele>20.666666666666664</ele><time>2026-04-26T08:48:09.992Z</time></trkpt><trkpt lat="44.287425" lon="8.445655"><ele>21.333333333333332</ele><time>2026-04-26T08:48:10.992Z</time></trkpt><trkpt lat="44.28742" lon="8.4455383"><ele>22.0</ele><time>2026-04-26T08:48:11.992Z</time></trkpt><trkpt lat="44.287435" lon="8.44542"><ele>22.5</ele><time>2026-04-26T08:48:12.992Z</time></trkpt><trkpt lat="44.28747" lon="8.4452883"><ele>23.0</ele><time>2026-04-26T08:48:13.993Z</time></trkpt><trkpt lat="44.287525" lon="8.4451617"><ele>23.5</ele><time>2026-04-26T08:48:14.993Z</time></trkpt><trkpt lat="44.28759" lon="8.445015"><ele>24.0</ele><time>2026-04-26T08:48:15.992Z</time></trkpt><trkpt lat="44.2876767" lon="8.4448467"><ele>24.0</ele><time>2026-04-26T08:48:16.992Z</time></trkpt><trkpt lat="44.28777" lon="8.4446783"><ele>24.0</ele><time>2026-04-26T08:48:17.992Z</time></trkpt><trkpt lat="44.2878617" lon="8.4444967"><ele>24.0</ele><time>2026-04-26T08:48:18.992Z</time></trkpt><trkpt lat="44.28796" lon="8.4443233"><ele>24.666666666666664</ele><time>2026-04-26T08:48:19.993Z</time></trkpt><trkpt lat="44.28805" lon="8.44415"><ele>25.333333333333332</ele><time>2026-04-26T08:48:20.992Z</time></trkpt><trkpt lat="44.28813" lon="8.4439517"><ele>26.0</ele><time>2026-04-26T08:48:21.993Z</time></trkpt><trkpt lat="44.28822" lon="8.4437633"><ele>26.666666666666664</ele><time>2026-04-26T08:48:22.992Z</time></trkpt><trkpt lat="44.288295" lon="8.4435633"><ele>27.333333333333336</ele><time>2026-04-26T08:48:23.992Z</time></trkpt><trkpt lat="44.2883567" lon="8.4433617"><ele>28.0</ele><time>2026-04-26T08:48:24.993Z</time></trkpt><trkpt lat="44.2884033" lon="8.4431583"><ele>28.0</ele><time>2026-04-26T08:48:25.992Z</time></trkpt><trkpt lat="44.2884467" lon="8.442975"><ele>28.0</ele><time>2026-04-26T08:48:26.993Z</time></trkpt><trkpt lat="44.2884817" lon="8.4428067"><ele>28.0</ele><time>2026-04-26T08:48:27.992Z</time></trkpt><trkpt lat="44.2885133" lon="8.44263"><ele>28.0</ele><time>2026-04-26T08:48:28.992Z</time></trkpt><trkpt lat="44.2885217" lon="8.4424733"><ele>27.0</ele><time>2026-04-26T08:48:29.992Z</time></trkpt><trkpt lat="44.2885083" lon="8.4423067"><ele>26.0</ele><time>2026-04-26T08:48:30.992Z</time></trkpt><trkpt lat="44.2884667" lon="8.4421233"><ele>25.0</ele><time>2026-04-26T08:48:31.992Z</time></trkpt><trkpt lat="44.2884" lon="8.4419317"><ele>24.0</ele><time>2026-04-26T08:48:32.992Z</time></trkpt><trkpt lat="44.2883267" lon="8.4417267"><ele>24.0</ele><time>2026-04-26T08:48:33.992Z</time></trkpt><trkpt lat="44.2882633" lon="8.441515"><ele>24.0</ele><time>2026-04-26T08:48:34.992Z</time></trkpt><trkpt lat="44.288205" lon="8.4413033"><ele>24.0</ele><time>2026-04-26T08:48:35.992Z</time></trkpt><trkpt lat="44.2881367" lon="8.44108"><ele>23.666666666666668</ele><time>2026-04-26T08:48:36.992Z</time></trkpt><trkpt lat="44.28807" lon="8.4408417"><ele>23.333333333333336</ele><time>2026-04-26T08:48:37.992Z</time></trkpt><trkpt lat="44.2879917" lon="8.4406233"><ele>23.0</ele><time>2026-04-26T08:48:38.992Z</time></trkpt><trkpt lat="44.2879117" lon="8.4404033"><ele>22.666666666666668</ele><time>2026-04-26T08:48:39.992Z</time></trkpt><trkpt lat="44.287835" lon="8.440185"><ele>22.333333333333332</ele><time>2026-04-26T08:48:40.992Z</time></trkpt><trkpt lat="44.2877683" lon="8.4399667"><ele>22.0</ele><time>2026-04-26T08:48:41.993Z</time></trkpt><trkpt lat="44.2876967" lon="8.4397467"><ele>22.333333333333332</ele><time>2026-04-26T08:48:42.992Z</time></trkpt><trkpt lat="44.2876067" lon="8.4395333"><ele>22.666666666666668</ele><time>2026-04-26T08:48:43.992Z</time></trkpt><trkpt lat="44.28752" lon="8.4393267"><ele>23.0</ele><time>2026-04-26T08:48:44.993Z</time></trkpt><trkpt lat="44.2874433" lon="8.4391367"><ele>23.0</ele><time>2026-04-26T08:48:45.992Z</time></trkpt><trkpt lat="44.2873467" lon="8.4389283"><ele>23.0</ele><time>2026-04-26T08:48:46.992Z</time></trkpt><trkpt lat="44.2872733" lon="8.4387317"><ele>23.0</ele><time>2026-04-26T08:48:47.992Z</time></trkpt><trkpt lat="44.28719" lon="8.4385367"><ele>20.666666666666668</ele><time>2026-04-26T08:48:48.992Z</time></trkpt><trkpt lat="44.2871017" lon="8.4383333"><ele>18.333333333333332</ele><time>2026-04-26T08:48:49.992Z</time></trkpt><trkpt lat="44.2869967" lon="8.4381817"><ele>16.0</ele><time>2026-04-26T08:48:50.992Z</time></trkpt><trkpt lat="44.2869117" lon="8.4379583"><ele>16.0</ele><time>2026-04-26T08:48:51.992Z</time></trkpt><trkpt lat="44.2868133" lon="8.437755"><ele>16.0</ele><time>2026-04-26T08:48:52.992Z</time></trkpt><trkpt lat="44.2867233" lon="8.4375817"><ele>16.0</ele><time>2026-04-26T08:48:53.992Z</time></trkpt><trkpt lat="44.28661" lon="8.4373767"><ele>16.0</ele><time>2026-04-26T08:48:54.992Z</time></trkpt><trkpt lat="44.2865" lon="8.4371767"><ele>16.0</ele><time>2026-04-26T08:48:55.992Z</time></trkpt><trkpt lat="44.286385" lon="8.4369883"><ele>16.0</ele><time>2026-04-26T08:48:56.992Z</time></trkpt><trkpt lat="44.2862667" lon="8.4368083"><ele>14.333333333333332</ele><time>2026-04-26T08:48:57.992Z</time></trkpt><trkpt lat="44.2861383" lon="8.4366517"><ele>12.666666666666666</ele><time>2026-04-26T08:48:58.992Z</time></trkpt><trkpt lat="44.2860117" lon="8.4365033"><ele>11.0</ele><time>2026-04-26T08:48:59.992Z</time></trkpt><trkpt lat="44.2858883" lon="8.4363817"><ele>11.25</ele><time>2026-04-26T08:49:00.993Z</time></trkpt><trkpt lat="44.2857717" lon="8.4362617"><ele>11.5</ele><time>2026-04-26T08:49:01.992Z</time></trkpt><trkpt lat="44.28566" lon="8.4361517"><ele>11.75</ele><time>2026-04-26T08:49:02.992Z</time></trkpt><trkpt lat="44.2855467" lon="8.4360467"><ele>12.0</ele><time>2026-04-26T08:49:03.992Z</time></trkpt><trkpt lat="44.285435" lon="8.43594"><ele>11.25</ele><time>2026-04-26T08:49:04.993Z</time></trkpt><trkpt lat="44.2853267" lon="8.435845"><ele>10.5</ele><time>2026-04-26T08:49:05.992Z</time></trkpt><trkpt lat="44.2852317" lon="8.435755"><ele>9.75</ele><time>2026-04-26T08:49:06.992Z</time></trkpt><trkpt lat="44.28514" lon="8.4356667"><ele>9.0</ele><time>2026-04-26T08:49:07.992Z</time></trkpt><trkpt lat="44.2850533" lon="8.4355917"><ele>9.0</ele><time>2026-04-26T08:49:08.992Z</time></trkpt><trkpt lat="44.2849767" lon="8.4355283"><ele>9.0</ele><time>2026-04-26T08:49:09.992Z</time></trkpt><trkpt lat="44.2849117" lon="8.4354817"><ele>9.0</ele><time>2026-04-26T08:49:10.992Z</time></trkpt><trkpt lat="44.2848317" lon="8.4354"><ele>9.0</ele><time>2026-04-26T08:49:12.992Z</time></trkpt><trkpt lat="44.2847833" lon="8.4353367"><ele>9.0</ele><time>2026-04-26T08:49:18.992Z</time></trkpt><trkpt lat="44.2847233" lon="8.4352483"><ele>9.0</ele><time>2026-04-26T08:49:22.992Z</time></trkpt><trkpt lat="44.2846983" lon="8.4351067"><ele>9.0</ele><time>2026-04-26T08:49:24.992Z</time></trkpt><trkpt lat="44.2847083" lon="8.4349367"><ele>9.0</ele><time>2026-04-26T08:49:26.992Z</time></trkpt><trkpt lat="44.284745" lon="8.43483"><ele>9.0</ele><time>2026-04-26T08:49:27.992Z</time></trkpt><trkpt lat="44.2847983" lon="8.4347083"><ele>9.0</ele><time>2026-04-26T08:49:28.992Z</time></trkpt><trkpt lat="44.28487" lon="8.43458"><ele>9.0</ele><time>2026-04-26T08:49:29.993Z</time></trkpt><trkpt lat="44.284955" lon="8.4344333"><ele>9.0</ele><time>2026-04-26T08:49:30.992Z</time></trkpt><trkpt lat="44.285045" lon="8.4342967"><ele>9.0</ele><time>2026-04-26T08:49:31.993Z</time></trkpt><trkpt lat="44.2851317" lon="8.434165"><ele>9.0</ele><time>2026-04-26T08:49:32.992Z</time></trkpt><trkpt lat="44.2852433" lon="8.4340467"><ele>9.0</ele><time>2026-04-26T08:49:33.992Z</time></trkpt><trkpt lat="44.2853383" lon="8.4339233"><ele>9.0</ele><time>2026-04-26T08:49:34.992Z</time></trkpt><trkpt lat="44.2854317" lon="8.4338133"><ele>9.0</ele><time>2026-04-26T08:49:35.992Z</time></trkpt><trkpt lat="44.28552" lon="8.4337233"><ele>9.0</ele><time>2026-04-26T08:49:36.992Z</time></trkpt><trkpt lat="44.2855967" lon="8.433645"><ele>9.0</ele><time>2026-04-26T08:49:37.992Z</time></trkpt><trkpt lat="44.28567" lon="8.4335817"><ele>9.0</ele><time>2026-04-26T08:49:38.992Z</time></trkpt><trkpt lat="44.28573" lon="8.4335233"><ele>8.8</ele><time>2026-04-26T08:49:39.992Z</time></trkpt><trkpt lat="44.2858283" lon="8.43343"><ele>8.600000000000001</ele><time>2026-04-26T08:49:41.992Z</time></trkpt><trkpt lat="44.2859067" lon="8.4333483"><ele>8.4</ele><time>2026-04-26T08:49:43.992Z</time></trkpt><trkpt lat="44.2859867" lon="8.4332717"><ele>8.200000000000001</ele><time>2026-04-26T08:49:45.992Z</time></trkpt><trkpt lat="44.2860767" lon="8.4331883"><ele>8.0</ele><time>2026-04-26T08:49:47.992Z</time></trkpt><trkpt lat="44.2861383" lon="8.4331233"><ele>8.0</ele><time>2026-04-26T08:49:48.992Z</time></trkpt><trkpt lat="44.2862117" lon="8.433035"><ele>8.0</ele><time>2026-04-26T08:49:49.992Z</time></trkpt><trkpt lat="44.28629" lon="8.4329183"><ele>8.0</ele><time>2026-04-26T08:49:50.992Z</time></trkpt><trkpt lat="44.2863733" lon="8.432785"><ele>8.0</ele><time>2026-04-26T08:49:51.992Z</time></trkpt><trkpt lat="44.286455" lon="8.4326383"><ele>8.0</ele><time>2026-04-26T08:49:52.992Z</time></trkpt><trkpt lat="44.28653" lon="8.4324883"><ele>8.0</ele><time>2026-04-26T08:49:53.992Z</time></trkpt><trkpt lat="44.2866117" lon="8.4323283"><ele>8.0</ele><time>2026-04-26T08:49:54.992Z</time></trkpt><trkpt lat="44.2866983" lon="8.4321533"><ele>8.0</ele><time>2026-04-26T08:49:55.993Z</time></trkpt><trkpt lat="44.286795" lon="8.4319817"><ele>8.0</ele><time>2026-04-26T08:49:56.992Z</time></trkpt><trkpt lat="44.286885" lon="8.431805"><ele>8.0</ele><time>2026-04-26T08:49:57.992Z</time></trkpt><trkpt lat="44.2869717" lon="8.43163"><ele>8.0</ele><time>2026-04-26T08:49:58.992Z</time></trkpt><trkpt lat="44.2870617" lon="8.4314583"><ele>8.333333333333332</ele><time>2026-04-26T08:49:59.992Z</time></trkpt><trkpt lat="44.2871433" lon="8.4312717"><ele>8.666666666666666</ele><time>2026-04-26T08:50:00.992Z</time></trkpt><trkpt lat="44.287215" lon="8.4310767"><ele>9.0</ele><time>2026-04-26T08:50:01.992Z</time></trkpt><trkpt lat="44.2872917" lon="8.4308667"><ele>9.333333333333334</ele><time>2026-04-26T08:50:02.992Z</time></trkpt><trkpt lat="44.287355" lon="8.4306467"><ele>9.666666666666668</ele><time>2026-04-26T08:50:03.992Z</time></trkpt><trkpt lat="44.2874133" lon="8.4304267"><ele>10.0</ele><time>2026-04-26T08:50:04.992Z</time></trkpt><trkpt lat="44.2874683" lon="8.4302217"><ele>10.0</ele><time>2026-04-26T08:50:05.992Z</time></trkpt><trkpt lat="44.2875183" lon="8.4300333"><ele>10.0</ele><time>2026-04-26T08:50:06.992Z</time></trkpt><trkpt lat="44.28757" lon="8.4298417"><ele>10.0</ele><time>2026-04-26T08:50:07.992Z</time></trkpt><trkpt lat="44.287615" lon="8.42965"><ele>10.0</ele><time>2026-04-26T08:50:08.992Z</time></trkpt><trkpt lat="44.2876567" lon="8.4294567"><ele>10.0</ele><time>2026-04-26T08:50:09.992Z</time></trkpt><trkpt lat="44.2876983" lon="8.4292717"><ele>10.0</ele><time>2026-04-26T08:50:10.993Z</time></trkpt><trkpt lat="44.2877383" lon="8.4290833"><ele>10.0</ele><time>2026-04-26T08:50:11.992Z</time></trkpt><trkpt lat="44.2877833" lon="8.4289033"><ele>10.0</ele><time>2026-04-26T08:50:12.992Z</time></trkpt><trkpt lat="44.28782" lon="8.4287383"><ele>9.75</ele><time>2026-04-26T08:50:13.992Z</time></trkpt><trkpt lat="44.28786" lon="8.4285767"><ele>9.5</ele><time>2026-04-26T08:50:14.992Z</time></trkpt><trkpt lat="44.2879017" lon="8.42842"><ele>9.25</ele><time>2026-04-26T08:50:15.992Z</time></trkpt><trkpt lat="44.2879383" lon="8.4282683"><ele>9.0</ele><time>2026-04-26T08:50:16.992Z</time></trkpt><trkpt lat="44.2879717" lon="8.4281317"><ele>9.0</ele><time>2026-04-26T08:50:17.992Z</time></trkpt><trkpt lat="44.2879983" lon="8.4280083"><ele>9.0</ele><time>2026-04-26T08:50:18.992Z</time></trkpt><trkpt lat="44.288025" lon="8.42789"><ele>9.0</ele><time>2026-04-26T08:50:19.992Z</time></trkpt><trkpt lat="44.288065" lon="8.4277817"><ele>9.0</ele><time>2026-04-26T08:50:20.992Z</time></trkpt><trkpt lat="44.2880933" lon="8.427675"><ele>9.0</ele><time>2026-04-26T08:50:21.991Z</time></trkpt><trkpt lat="44.2881217" lon="8.4275667"><ele>9.0</ele><time>2026-04-26T08:50:22.991Z</time></trkpt><trkpt lat="44.2881483" lon="8.4274567"><ele>9.166666666666666</ele><time>2026-04-26T08:50:23.992Z</time></trkpt><trkpt lat="44.2881783" lon="8.4273533"><ele>9.333333333333334</ele><time>2026-04-26T08:50:24.991Z</time></trkpt><trkpt lat="44.2882067" lon="8.4272517"><ele>9.5</ele><time>2026-04-26T08:50:25.991Z</time></trkpt><trkpt lat="44.2882333" lon="8.427135"><ele>9.666666666666668</ele><time>2026-04-26T08:50:26.992Z</time></trkpt><trkpt lat="44.288265" lon="8.427005"><ele>9.833333333333334</ele><time>2026-04-26T08:50:27.991Z</time></trkpt><trkpt lat="44.2883" lon="8.42687"><ele>10.0</ele><time>2026-04-26T08:50:28.992Z</time></trkpt><trkpt lat="44.2883417" lon="8.42673"><ele>10.5</ele><time>2026-04-26T08:50:29.991Z</time></trkpt><trkpt lat="44.28838" lon="8.42658"><ele>11.0</ele><time>2026-04-26T08:50:30.991Z</time></trkpt><trkpt lat="44.288415" lon="8.4264217"><ele>11.5</ele><time>2026-04-26T08:50:31.992Z</time></trkpt><trkpt lat="44.28845" lon="8.4262667"><ele>12.0</ele><time>2026-04-26T08:50:32.992Z</time></trkpt><trkpt lat="44.288485" lon="8.4260983"><ele>12.0</ele><time>2026-04-26T08:50:33.991Z</time></trkpt><trkpt lat="44.28854" lon="8.4259267"><ele>12.0</ele><time>2026-04-26T08:50:34.991Z</time></trkpt><trkpt lat="44.2885917" lon="8.4257533"><ele>12.0</ele><time>2026-04-26T08:50:35.991Z</time></trkpt><trkpt lat="44.2886317" lon="8.425585"><ele>12.0</ele><time>2026-04-26T08:50:36.991Z</time></trkpt><trkpt lat="44.2886767" lon="8.425425"><ele>11.75</ele><time>2026-04-26T08:50:37.991Z</time></trkpt><trkpt lat="44.2887233" lon="8.4252767"><ele>11.5</ele><time>2026-04-26T08:50:38.991Z</time></trkpt><trkpt lat="44.28877" lon="8.42512"><ele>11.25</ele><time>2026-04-26T08:50:39.991Z</time></trkpt><trkpt lat="44.2888183" lon="8.4249517"><ele>11.0</ele><time>2026-04-26T08:50:40.991Z</time></trkpt><trkpt lat="44.2888733" lon="8.42478"><ele>12.666666666666666</ele><time>2026-04-26T08:50:41.992Z</time></trkpt><trkpt lat="44.2889533" lon="8.4246083"><ele>14.333333333333332</ele><time>2026-04-26T08:50:42.992Z</time></trkpt><trkpt lat="44.289035" lon="8.4244183"><ele>16.0</ele><time>2026-04-26T08:50:43.991Z</time></trkpt><trkpt lat="44.28912" lon="8.4242183"><ele>16.0</ele><time>2026-04-26T08:50:44.991Z</time></trkpt><trkpt lat="44.2892083" lon="8.4240083"><ele>16.0</ele><time>2026-04-26T08:50:45.992Z</time></trkpt><trkpt lat="44.289295" lon="8.4237917"><ele>16.0</ele><time>2026-04-26T08:50:46.991Z</time></trkpt><trkpt lat="44.2893717" lon="8.4235533"><ele>16.0</ele><time>2026-04-26T08:50:47.992Z</time></trkpt><trkpt lat="44.2894467" lon="8.4233033"><ele>16.0</ele><time>2026-04-26T08:50:48.991Z</time></trkpt><trkpt lat="44.28952" lon="8.4230567"><ele>16.0</ele><time>2026-04-26T08:50:49.991Z</time></trkpt><trkpt lat="44.28959" lon="8.4228"><ele>15.333333333333332</ele><time>2026-04-26T08:50:50.991Z</time></trkpt><trkpt lat="44.2896833" lon="8.4225383"><ele>14.666666666666668</ele><time>2026-04-26T08:50:51.991Z</time></trkpt><trkpt lat="44.28976" lon="8.4222817"><ele>14.0</ele><time>2026-04-26T08:50:52.991Z</time></trkpt><trkpt lat="44.289845" lon="8.4220083"><ele>16.5</ele><time>2026-04-26T08:50:53.991Z</time></trkpt><trkpt lat="44.2899417" lon="8.42171"><ele>19.0</ele><time>2026-04-26T08:50:54.991Z</time></trkpt><trkpt lat="44.2900483" lon="8.421385"><ele>17.0</ele><time>2026-04-26T08:50:55.991Z</time></trkpt><trkpt lat="44.2901633" lon="8.4210267"><ele>15.0</ele><time>2026-04-26T08:50:56.991Z</time></trkpt><trkpt lat="44.29028" lon="8.4206567"><ele>14.5</ele><time>2026-04-26T08:50:57.991Z</time></trkpt><trkpt lat="44.2904367" lon="8.4202617"><ele>14.0</ele><time>2026-04-26T08:50:58.991Z</time></trkpt><trkpt lat="44.2906017" lon="8.41993"><ele>15.0</ele><time>2026-04-26T08:50:59.991Z</time></trkpt><trkpt lat="44.2907583" lon="8.4196367"><ele>16.0</ele><time>2026-04-26T08:51:00.99Z</time></trkpt><trkpt lat="44.2908883" lon="8.419385"><ele>16.0</ele><time>2026-04-26T08:51:01.992Z</time></trkpt><trkpt lat="44.2910017" lon="8.419155"><ele>16.0</ele><time>2026-04-26T08:51:02.991Z</time></trkpt><trkpt lat="44.2911233" lon="8.4189367"><ele>16.0</ele><time>2026-04-26T08:51:03.991Z</time></trkpt><trkpt lat="44.2912283" lon="8.4187267"><ele>16.0</ele><time>2026-04-26T08:51:04.991Z</time></trkpt><trkpt lat="44.29131" lon="8.4185333"><ele>16.0</ele><time>2026-04-26T08:51:05.991Z</time></trkpt><trkpt lat="44.2913667" lon="8.41835"><ele>16.0</ele><time>2026-04-26T08:51:06.991Z</time></trkpt><trkpt lat="44.29142" lon="8.41819"><ele>16.0</ele><time>2026-04-26T08:51:07.991Z</time></trkpt><trkpt lat="44.2914617" lon="8.4180433"><ele>16.6</ele><time>2026-04-26T08:51:08.991Z</time></trkpt><trkpt lat="44.29152" lon="8.4179083"><ele>17.200000000000003</ele><time>2026-04-26T08:51:09.991Z</time></trkpt><trkpt lat="44.2916017" lon="8.4178083"><ele>17.799999999999997</ele><time>2026-04-26T08:51:10.991Z</time></trkpt><trkpt lat="44.2916917" lon="8.4177117"><ele>18.4</ele><time>2026-04-26T08:51:11.991Z</time></trkpt><trkpt lat="44.2917867" lon="8.417645"><ele>19.0</ele><time>2026-04-26T08:51:12.991Z</time></trkpt><trkpt lat="44.291895" lon="8.4176067"><ele>19.0</ele><time>2026-04-26T08:51:13.991Z</time></trkpt><trkpt lat="44.29201" lon="8.417595"><ele>19.0</ele><time>2026-04-26T08:51:14.991Z</time></trkpt><trkpt lat="44.2921283" lon="8.41761"><ele>19.0</ele><time>2026-04-26T08:51:15.991Z</time></trkpt><trkpt lat="44.2922583" lon="8.4176233"><ele>19.0</ele><time>2026-04-26T08:51:16.991Z</time></trkpt><trkpt lat="44.2924033" lon="8.4176233"><ele>19.25</ele><time>2026-04-26T08:51:17.991Z</time></trkpt><trkpt lat="44.29255" lon="8.417605"><ele>19.5</ele><time>2026-04-26T08:51:18.991Z</time></trkpt><trkpt lat="44.292695" lon="8.4175667"><ele>19.75</ele><time>2026-04-26T08:51:19.991Z</time></trkpt><trkpt lat="44.2928317" lon="8.41751"><ele>20.0</ele><time>2026-04-26T08:51:20.991Z</time></trkpt><trkpt lat="44.2929683" lon="8.41746"><ele>20.25</ele><time>2026-04-26T08:51:21.991Z</time></trkpt><trkpt lat="44.2931067" lon="8.4173883"><ele>20.5</ele><time>2026-04-26T08:51:22.992Z</time></trkpt><trkpt lat="44.2932233" lon="8.4172767"><ele>20.75</ele><time>2026-04-26T08:51:23.991Z</time></trkpt><trkpt lat="44.29334" lon="8.4171383"><ele>21.0</ele><time>2026-04-26T08:51:24.991Z</time></trkpt><trkpt lat="44.2934483" lon="8.4169767"><ele>21.333333333333332</ele><time>2026-04-26T08:51:25.991Z</time></trkpt><trkpt lat="44.2935483" lon="8.4168033"><ele>21.666666666666664</ele><time>2026-04-26T08:51:26.991Z</time></trkpt><trkpt lat="44.2936517" lon="8.4166183"><ele>22.0</ele><time>2026-04-26T08:51:27.991Z</time></trkpt><trkpt lat="44.293745" lon="8.41644"><ele>22.0</ele><time>2026-04-26T08:51:28.991Z</time></trkpt><trkpt lat="44.2938383" lon="8.4162667"><ele>22.0</ele><time>2026-04-26T08:51:29.991Z</time></trkpt><trkpt lat="44.2939217" lon="8.4161033"><ele>22.0</ele><time>2026-04-26T08:51:30.991Z</time></trkpt><trkpt lat="44.29399" lon="8.415925"><ele>22.0</ele><time>2026-04-26T08:51:31.991Z</time></trkpt><trkpt lat="44.2940617" lon="8.41575"><ele>22.0</ele><time>2026-04-26T08:51:32.991Z</time></trkpt><trkpt lat="44.2941217" lon="8.415595"><ele>22.0</ele><time>2026-04-26T08:51:33.991Z</time></trkpt><trkpt lat="44.2941767" lon="8.4154533"><ele>22.0</ele><time>2026-04-26T08:51:34.991Z</time></trkpt><trkpt lat="44.2942417" lon="8.4153383"><ele>22.0</ele><time>2026-04-26T08:51:35.991Z</time></trkpt><trkpt lat="44.2943233" lon="8.4152517"><ele>22.0</ele><time>2026-04-26T08:51:36.991Z</time></trkpt><trkpt lat="44.294425" lon="8.4152"><ele>22.25</ele><time>2026-04-26T08:51:37.991Z</time></trkpt><trkpt lat="44.2945583" lon="8.4151767"><ele>22.5</ele><time>2026-04-26T08:51:38.992Z</time></trkpt><trkpt lat="44.294705" lon="8.4151767"><ele>22.75</ele><time>2026-04-26T08:51:39.991Z</time></trkpt><trkpt lat="44.2948617" lon="8.415175"><ele>23.0</ele><time>2026-04-26T08:51:40.991Z</time></trkpt><trkpt lat="44.295015" lon="8.4151867"><ele>23.0</ele><time>2026-04-26T08:51:41.991Z</time></trkpt><trkpt lat="44.2951617" lon="8.4152133"><ele>23.0</ele><time>2026-04-26T08:51:42.991Z</time></trkpt><trkpt lat="44.2953017" lon="8.4152517"><ele>23.0</ele><time>2026-04-26T08:51:43.991Z</time></trkpt><trkpt lat="44.2954383" lon="8.415295"><ele>23.0</ele><time>2026-04-26T08:51:44.992Z</time></trkpt><trkpt lat="44.2955617" lon="8.4153583"><ele>23.0</ele><time>2026-04-26T08:51:45.991Z</time></trkpt><trkpt lat="44.2956783" lon="8.41543"><ele>23.0</ele><time>2026-04-26T08:51:46.991Z</time></trkpt><trkpt lat="44.2957967" lon="8.4154883"><ele>23.0</ele><time>2026-04-26T08:51:47.992Z</time></trkpt><trkpt lat="44.2959217" lon="8.4155083"><ele>23.0</ele><time>2026-04-26T08:51:48.991Z</time></trkpt><trkpt lat="44.296035" lon="8.41547"><ele>23.0</ele><time>2026-04-26T08:51:49.991Z</time></trkpt><trkpt lat="44.2961533" lon="8.4153967"><ele>23.0</ele><time>2026-04-26T08:51:50.991Z</time></trkpt><trkpt lat="44.296285" lon="8.415305"><ele>23.0</ele><time>2026-04-26T08:51:51.991Z</time></trkpt><trkpt lat="44.2964183" lon="8.4152117"><ele>23.0</ele><time>2026-04-26T08:51:52.991Z</time></trkpt><trkpt lat="44.29656" lon="8.415125"><ele>23.666666666666668</ele><time>2026-04-26T08:51:53.991Z</time></trkpt><trkpt lat="44.2967083" lon="8.41504"><ele>24.333333333333336</ele><time>2026-04-26T08:51:54.991Z</time></trkpt><trkpt lat="44.2968667" lon="8.4149567"><ele>25.0</ele><time>2026-04-26T08:51:55.991Z</time></trkpt><trkpt lat="44.2970167" lon="8.41486"><ele>25.0</ele><time>2026-04-26T08:51:56.991Z</time></trkpt><trkpt lat="44.2971567" lon="8.414765"><ele>25.0</ele><time>2026-04-26T08:51:57.991Z</time></trkpt><trkpt lat="44.2972917" lon="8.4146533"><ele>25.0</ele><time>2026-04-26T08:51:58.991Z</time></trkpt><trkpt lat="44.29742" lon="8.4145083"><ele>26.666666666666668</ele><time>2026-04-26T08:51:59.992Z</time></trkpt><trkpt lat="44.2975367" lon="8.41434"><ele>28.333333333333336</ele><time>2026-04-26T08:52:00.991Z</time></trkpt><trkpt lat="44.2976383" lon="8.41413"><ele>30.0</ele><time>2026-04-26T08:52:01.991Z</time></trkpt><trkpt lat="44.297715" lon="8.4139167"><ele>29.666666666666664</ele><time>2026-04-26T08:52:02.991Z</time></trkpt><trkpt lat="44.2977817" lon="8.4136783"><ele>29.333333333333332</ele><time>2026-04-26T08:52:03.991Z</time></trkpt><trkpt lat="44.29784" lon="8.413435"><ele>29.0</ele><time>2026-04-26T08:52:04.991Z</time></trkpt><trkpt lat="44.2978783" lon="8.4131733"><ele>31.0</ele><time>2026-04-26T08:52:05.991Z</time></trkpt><trkpt lat="44.2979183" lon="8.4129133"><ele>33.0</ele><time>2026-04-26T08:52:06.991Z</time></trkpt><trkpt lat="44.2979633" lon="8.41266"><ele>35.0</ele><time>2026-04-26T08:52:07.991Z</time></trkpt><trkpt lat="44.2980033" lon="8.4124167"><ele>35.0</ele><time>2026-04-26T08:52:08.991Z</time></trkpt><trkpt lat="44.2980417" lon="8.4121917"><ele>35.0</ele><time>2026-04-26T08:52:09.991Z</time></trkpt><trkpt lat="44.29808" lon="8.4119967"><ele>35.0</ele><time>2026-04-26T08:52:10.991Z</time></trkpt><trkpt lat="44.2981317" lon="8.41183"><ele>35.0</ele><time>2026-04-26T08:52:11.991Z</time></trkpt><trkpt lat="44.298195" lon="8.4116967"><ele>34.0</ele><time>2026-04-26T08:52:12.991Z</time></trkpt><trkpt lat="44.2982683" lon="8.4115983"><ele>33.0</ele><time>2026-04-26T08:52:13.991Z</time></trkpt><trkpt lat="44.2983767" lon="8.411535"><ele>32.0</ele><time>2026-04-26T08:52:14.991Z</time></trkpt><trkpt lat="44.2985083" lon="8.4115117"><ele>31.0</ele><time>2026-04-26T08:52:15.991Z</time></trkpt><trkpt lat="44.298655" lon="8.411525"><ele>31.0</ele><time>2026-04-26T08:52:16.991Z</time></trkpt><trkpt lat="44.2987917" lon="8.411555"><ele>31.0</ele><time>2026-04-26T08:52:17.992Z</time></trkpt><trkpt lat="44.2989583" lon="8.4115667"><ele>31.0</ele><time>2026-04-26T08:52:18.991Z</time></trkpt><trkpt lat="44.299115" lon="8.4115883"><ele>32.4</ele><time>2026-04-26T08:52:19.991Z</time></trkpt><trkpt lat="44.2992417" lon="8.4115983"><ele>33.8</ele><time>2026-04-26T08:52:20.991Z</time></trkpt><trkpt lat="44.2993433" lon="8.41158"><ele>35.199999999999996</ele><time>2026-04-26T08:52:21.991Z</time></trkpt><trkpt lat="44.29944" lon="8.4115433"><ele>36.6</ele><time>2026-04-26T08:52:22.992Z</time></trkpt><trkpt lat="44.2995233" lon="8.411475"><ele>38.0</ele><time>2026-04-26T08:52:23.991Z</time></trkpt><trkpt lat="44.299585" lon="8.4113817"><ele>37.4</ele><time>2026-04-26T08:52:24.991Z</time></trkpt><trkpt lat="44.2996267" lon="8.411275"><ele>36.8</ele><time>2026-04-26T08:52:25.991Z</time></trkpt><trkpt lat="44.299665" lon="8.41115"><ele>36.2</ele><time>2026-04-26T08:52:26.991Z</time></trkpt><trkpt lat="44.2997083" lon="8.4110217"><ele>35.6</ele><time>2026-04-26T08:52:27.991Z</time></trkpt><trkpt lat="44.2997567" lon="8.4108917"><ele>35.0</ele><time>2026-04-26T08:52:28.991Z</time></trkpt><trkpt lat="44.2998033" lon="8.4107483"><ele>34.8</ele><time>2026-04-26T08:52:29.991Z</time></trkpt><trkpt lat="44.2998567" lon="8.4106133"><ele>34.6</ele><time>2026-04-26T08:52:30.991Z</time></trkpt><trkpt lat="44.2999067" lon="8.410485"><ele>34.4</ele><time>2026-04-26T08:52:31.991Z</time></trkpt><trkpt lat="44.2999533" lon="8.4103617"><ele>34.2</ele><time>2026-04-26T08:52:32.991Z</time></trkpt><trkpt lat="44.3000017" lon="8.410255"><ele>34.0</ele><time>2026-04-26T08:52:33.991Z</time></trkpt><trkpt lat="44.3000567" lon="8.4101683"><ele>34.0</ele><time>2026-04-26T08:52:34.991Z</time></trkpt><trkpt lat="44.3001117" lon="8.410095"><ele>34.0</ele><time>2026-04-26T08:52:35.991Z</time></trkpt><trkpt lat="44.3001833" lon="8.41005"><ele>34.0</ele><time>2026-04-26T08:52:36.991Z</time></trkpt><trkpt lat="44.30027" lon="8.4100283"><ele>34.0</ele><time>2026-04-26T08:52:37.991Z</time></trkpt><trkpt lat="44.300375" lon="8.4100233"><ele>34.0</ele><time>2026-04-26T08:52:38.991Z</time></trkpt><trkpt lat="44.300495" lon="8.4100167"><ele>35.25</ele><time>2026-04-26T08:52:39.991Z</time></trkpt><trkpt lat="44.3006267" lon="8.4100033"><ele>36.5</ele><time>2026-04-26T08:52:40.991Z</time></trkpt><trkpt lat="44.3007517" lon="8.409985"><ele>37.75</ele><time>2026-04-26T08:52:41.991Z</time></trkpt><trkpt lat="44.300875" lon="8.4099717"><ele>39.0</ele><time>2026-04-26T08:52:42.991Z</time></trkpt><trkpt lat="44.3009883" lon="8.409965"><ele>39.0</ele><time>2026-04-26T08:52:43.991Z</time></trkpt><trkpt lat="44.3011" lon="8.4099767"><ele>39.0</ele><time>2026-04-26T08:52:44.991Z</time></trkpt><trkpt lat="44.30121" lon="8.4099883"><ele>39.0</ele><time>2026-04-26T08:52:45.991Z</time></trkpt><trkpt lat="44.3013217" lon="8.4100133"><ele>39.0</ele><time>2026-04-26T08:52:46.991Z</time></trkpt><trkpt lat="44.30144" lon="8.4100483"><ele>40.0</ele><time>2026-04-26T08:52:47.991Z</time></trkpt><trkpt lat="44.3015583" lon="8.41008"><ele>41.0</ele><time>2026-04-26T08:52:48.991Z</time></trkpt><trkpt lat="44.3016683" lon="8.410115"><ele>42.0</ele><time>2026-04-26T08:52:49.991Z</time></trkpt><trkpt lat="44.3017667" lon="8.410145"><ele>43.0</ele><time>2026-04-26T08:52:50.991Z</time></trkpt><trkpt lat="44.3018533" lon="8.4101767"><ele>44.0</ele><time>2026-04-26T08:52:51.991Z</time></trkpt><trkpt lat="44.3019383" lon="8.4102183"><ele>44.0</ele><time>2026-04-26T08:52:52.991Z</time></trkpt><trkpt lat="44.302025" lon="8.41026"><ele>44.0</ele><time>2026-04-26T08:52:53.991Z</time></trkpt><trkpt lat="44.3020983" lon="8.4103333"><ele>44.0</ele><time>2026-04-26T08:52:54.991Z</time></trkpt><trkpt lat="44.30218" lon="8.4104267"><ele>44.0</ele><time>2026-04-26T08:52:55.991Z</time></trkpt><trkpt lat="44.302265" lon="8.4105183"><ele>44.0</ele><time>2026-04-26T08:52:56.992Z</time></trkpt><trkpt lat="44.3023467" lon="8.4106283"><ele>45.5</ele><time>2026-04-26T08:52:57.991Z</time></trkpt><trkpt lat="44.3024367" lon="8.4107767"><ele>47.0</ele><time>2026-04-26T08:52:58.991Z</time></trkpt><trkpt lat="44.3025183" lon="8.4109367"><ele>48.5</ele><time>2026-04-26T08:52:59.991Z</time></trkpt><trkpt lat="44.3026017" lon="8.4110867"><ele>50.0</ele><time>2026-04-26T08:53:00.991Z</time></trkpt><trkpt lat="44.3026733" lon="8.411225"><ele>55.8</ele><time>2026-04-26T08:53:01.991Z</time></trkpt><trkpt lat="44.3027367" lon="8.4113467"><ele>61.6</ele><time>2026-04-26T08:53:02.991Z</time></trkpt><trkpt lat="44.3028083" lon="8.4114517"><ele>67.4</ele><time>2026-04-26T08:53:03.991Z</time></trkpt><trkpt lat="44.3028867" lon="8.4115333"><ele>73.2</ele><time>2026-04-26T08:53:04.991Z</time></trkpt><trkpt lat="44.3029733" lon="8.4115933"><ele>79.0</ele><time>2026-04-26T08:53:05.991Z</time></trkpt><trkpt lat="44.303055" lon="8.411645"><ele>76.2</ele><time>2026-04-26T08:53:06.991Z</time></trkpt><trkpt lat="44.3031333" lon="8.411685"><ele>73.4</ele><time>2026-04-26T08:53:07.991Z</time></trkpt><trkpt lat="44.303215" lon="8.41169"><ele>70.6</ele><time>2026-04-26T08:53:08.992Z</time></trkpt><trkpt lat="44.3033017" lon="8.41168"><ele>67.8</ele><time>2026-04-26T08:53:09.991Z</time></trkpt><trkpt lat="44.303385" lon="8.4116383"><ele>65.0</ele><time>2026-04-26T08:53:10.991Z</time></trkpt><trkpt lat="44.3034967" lon="8.411555"><ele>65.0</ele><time>2026-04-26T08:53:11.991Z</time></trkpt><trkpt lat="44.3035933" lon="8.4114483"><ele>65.0</ele><time>2026-04-26T08:53:12.991Z</time></trkpt><trkpt lat="44.3036767" lon="8.4113467"><ele>65.0</ele><time>2026-04-26T08:53:13.991Z</time></trkpt><trkpt lat="44.3037517" lon="8.411265"><ele>65.0</ele><time>2026-04-26T08:53:14.991Z</time></trkpt><trkpt lat="44.3038133" lon="8.4112"><ele>65.0</ele><time>2026-04-26T08:53:15.991Z</time></trkpt><trkpt lat="44.3038883" lon="8.4111"><ele>62.6</ele><time>2026-04-26T08:53:17.991Z</time></trkpt><trkpt lat="44.3038633" lon="8.410995"><ele>60.2</ele><time>2026-04-26T08:53:19.991Z</time></trkpt><trkpt lat="44.3037683" lon="8.4109083"><ele>57.8</ele><time>2026-04-26T08:53:21.991Z</time></trkpt><trkpt lat="44.3037233" lon="8.41076"><ele>55.4</ele><time>2026-04-26T08:53:23.991Z</time></trkpt><trkpt lat="44.303765" lon="8.4106"><ele>53.0</ele><time>2026-04-26T08:53:25.991Z</time></trkpt><trkpt lat="44.303825" lon="8.4105133"><ele>55.2</ele><time>2026-04-26T08:53:26.991Z</time></trkpt><trkpt lat="44.3038983" lon="8.410415"><ele>57.4</ele><time>2026-04-26T08:53:27.991Z</time></trkpt><trkpt lat="44.3039738" lon="8.4103188"><ele>59.60000000000001</ele><time>2026-04-26T08:53:28.991Z</time></trkpt><trkpt lat="44.3040582" lon="8.4102246"><ele>61.800000000000004</ele><time>2026-04-26T08:53:29.991Z</time></trkpt><trkpt lat="44.304144" lon="8.4101275"><ele>64.0</ele><time>2026-04-26T08:53:30.991Z</time></trkpt><trkpt lat="44.3042224" lon="8.4100303"><ele>63.99999999999999</ele><time>2026-04-26T08:53:31.991Z</time></trkpt><trkpt lat="44.30429" lon="8.4099342"><ele>64.0</ele><time>2026-04-26T08:53:32.991Z</time></trkpt><trkpt lat="44.3043449" lon="8.4098432"><ele>64.0</ele><time>2026-04-26T08:53:33.991Z</time></trkpt><trkpt lat="44.3043912" lon="8.4097592"><ele>64.0</ele><time>2026-04-26T08:53:34.991Z</time></trkpt><trkpt lat="44.3044399" lon="8.4096732"><ele>63.99999999999999</ele><time>2026-04-26T08:53:35.991Z</time></trkpt><trkpt lat="44.3044818" lon="8.40958"><ele>64.0</ele><time>2026-04-26T08:53:36.992Z</time></trkpt><trkpt lat="44.3045145" lon="8.4094836"><ele>65.85714285714286</ele><time>2026-04-26T08:53:37.991Z</time></trkpt><trkpt lat="44.3045347" lon="8.4093879"><ele>67.71428571428571</ele><time>2026-04-26T08:53:38.991Z</time></trkpt><trkpt lat="44.3045512" lon="8.4092948"><ele>69.57142857142857</ele><time>2026-04-26T08:53:39.992Z</time></trkpt><trkpt lat="44.3045695" lon="8.4092014"><ele>71.42857142857143</ele><time>2026-04-26T08:53:40.991Z</time></trkpt><trkpt lat="44.3045897" lon="8.4091113"><ele>73.28571428571428</ele><time>2026-04-26T08:53:41.992Z</time></trkpt><trkpt lat="44.3046201" lon="8.409015"><ele>75.14285714285714</ele><time>2026-04-26T08:53:42.991Z</time></trkpt><trkpt lat="44.3046651" lon="8.4089158"><ele>77.0</ele><time>2026-04-26T08:53:43.991Z</time></trkpt><trkpt lat="44.3047151" lon="8.4088053"><ele>73.0</ele><time>2026-04-26T08:53:44.991Z</time></trkpt><trkpt lat="44.3047706" lon="8.4086985"><ele>69.0</ele><time>2026-04-26T08:53:45.991Z</time></trkpt><trkpt lat="44.3048369" lon="8.408605"><ele>65.0</ele><time>2026-04-26T08:53:46.991Z</time></trkpt><trkpt lat="44.3049127" lon="8.4085236"><ele>61.0</ele><time>2026-04-26T08:53:47.991Z</time></trkpt><trkpt lat="44.3049918" lon="8.4084553"><ele>57.0</ele><time>2026-04-26T08:53:48.991Z</time></trkpt><trkpt lat="44.3050643" lon="8.4083905"><ele>57.0</ele><time>2026-04-26T08:53:49.992Z</time></trkpt><trkpt lat="44.3051347" lon="8.408322"><ele>57.0</ele><time>2026-04-26T08:53:50.991Z</time></trkpt><trkpt lat="44.3051913" lon="8.4082316"><ele>57.0</ele><time>2026-04-26T08:53:51.992Z</time></trkpt><trkpt lat="44.3052452" lon="8.4081117"><ele>57.0</ele><time>2026-04-26T08:53:52.992Z</time></trkpt><trkpt lat="44.3053047" lon="8.407983"><ele>57.0</ele><time>2026-04-26T08:53:53.992Z</time></trkpt><trkpt lat="44.3053643" lon="8.4078616"><ele>57.8</ele><time>2026-04-26T08:53:54.991Z</time></trkpt><trkpt lat="44.3054252" lon="8.4077501"><ele>58.6</ele><time>2026-04-26T08:53:55.991Z</time></trkpt><trkpt lat="44.3054869" lon="8.4076415"><ele>59.39999999999999</ele><time>2026-04-26T08:53:56.991Z</time></trkpt><trkpt lat="44.3055474" lon="8.4075307"><ele>60.199999999999996</ele><time>2026-04-26T08:53:57.991Z</time></trkpt><trkpt lat="44.3056054" lon="8.4074122"><ele>61.0</ele><time>2026-04-26T08:53:58.991Z</time></trkpt><trkpt lat="44.3056556" lon="8.4072774"><ele>61.8</ele><time>2026-04-26T08:53:59.991Z</time></trkpt><trkpt lat="44.3057022" lon="8.407139"><ele>62.599999999999994</ele><time>2026-04-26T08:54:00.991Z</time></trkpt><trkpt lat="44.3057547" lon="8.4070061"><ele>63.4</ele><time>2026-04-26T08:54:01.991Z</time></trkpt><trkpt lat="44.3058129" lon="8.4068891"><ele>64.2</ele><time>2026-04-26T08:54:02.991Z</time></trkpt><trkpt lat="44.3058831" lon="8.4067854"><ele>65.0</ele><time>2026-04-26T08:54:03.992Z</time></trkpt><trkpt lat="44.305959" lon="8.4066775"><ele>65.0</ele><time>2026-04-26T08:54:04.991Z</time></trkpt><trkpt lat="44.3060224" lon="8.4065588"><ele>65.0</ele><time>2026-04-26T08:54:05.991Z</time></trkpt><trkpt lat="44.30608" lon="8.4064312"><ele>65.0</ele><time>2026-04-26T08:54:06.991Z</time></trkpt><trkpt lat="44.3061535" lon="8.4063057"><ele>65.0</ele><time>2026-04-26T08:54:07.991Z</time></trkpt><trkpt lat="44.3062309" lon="8.4061862"><ele>65.0</ele><time>2026-04-26T08:54:08.991Z</time></trkpt><trkpt lat="44.3063123" lon="8.4060652"><ele>64.25</ele><time>2026-04-26T08:54:09.992Z</time></trkpt><trkpt lat="44.3063897" lon="8.4059227"><ele>63.5</ele><time>2026-04-26T08:54:10.991Z</time></trkpt><trkpt lat="44.3064602" lon="8.4057628"><ele>62.75</ele><time>2026-04-26T08:54:11.991Z</time></trkpt><trkpt lat="44.3065318" lon="8.4055881"><ele>62.0</ele><time>2026-04-26T08:54:12.991Z</time></trkpt><trkpt lat="44.3066029" lon="8.4054097"><ele>62.0</ele><time>2026-04-26T08:54:13.991Z</time></trkpt><trkpt lat="44.3066852" lon="8.4052345"><ele>62.0</ele><time>2026-04-26T08:54:14.991Z</time></trkpt><trkpt lat="44.3067801" lon="8.4050508"><ele>62.0</ele><time>2026-04-26T08:54:15.991Z</time></trkpt><trkpt lat="44.3068684" lon="8.4048688"><ele>62.0</ele><time>2026-04-26T08:54:16.991Z</time></trkpt><trkpt lat="44.3069499" lon="8.4046902"><ele>62.0</ele><time>2026-04-26T08:54:17.991Z</time></trkpt><trkpt lat="44.3070342" lon="8.4045068"><ele>62.0</ele><time>2026-04-26T08:54:18.991Z</time></trkpt><trkpt lat="44.3071116" lon="8.4043299"><ele>63.0</ele><time>2026-04-26T08:54:19.992Z</time></trkpt><trkpt lat="44.3071865" lon="8.4041518"><ele>64.0</ele><time>2026-04-26T08:54:20.992Z</time></trkpt><trkpt lat="44.3072592" lon="8.4039858"><ele>65.0</ele><time>2026-04-26T08:54:21.991Z</time></trkpt><trkpt lat="44.307336" lon="8.4038284"><ele>66.0</ele><time>2026-04-26T08:54:22.991Z</time></trkpt><trkpt lat="44.307416" lon="8.4036816"><ele>67.6</ele><time>2026-04-26T08:54:23.991Z</time></trkpt><trkpt lat="44.3074928" lon="8.4035505"><ele>69.19999999999999</ele><time>2026-04-26T08:54:24.991Z</time></trkpt><trkpt lat="44.3075682" lon="8.4034322"><ele>70.80000000000001</ele><time>2026-04-26T08:54:25.991Z</time></trkpt><trkpt lat="44.3076279" lon="8.4033286"><ele>72.4</ele><time>2026-04-26T08:54:26.991Z</time></trkpt><trkpt lat="44.3076777" lon="8.4032312"><ele>74.0</ele><time>2026-04-26T08:54:27.991Z</time></trkpt><trkpt lat="44.3077227" lon="8.403124"><ele>74.0</ele><time>2026-04-26T08:54:28.992Z</time></trkpt><trkpt lat="44.3077695" lon="8.4030013"><ele>74.0</ele><time>2026-04-26T08:54:29.991Z</time></trkpt><trkpt lat="44.3078108" lon="8.4028573"><ele>74.0</ele><time>2026-04-26T08:54:30.991Z</time></trkpt><trkpt lat="44.3078502" lon="8.4026991"><ele>74.0</ele><time>2026-04-26T08:54:31.992Z</time></trkpt><trkpt lat="44.307895" lon="8.4025326"><ele>77.0</ele><time>2026-04-26T08:54:32.991Z</time></trkpt><trkpt lat="44.3079303" lon="8.4023708"><ele>80.0</ele><time>2026-04-26T08:54:33.991Z</time></trkpt><trkpt lat="44.307963" lon="8.4022089"><ele>83.0</ele><time>2026-04-26T08:54:34.992Z</time></trkpt><trkpt lat="44.3079841" lon="8.4020639"><ele>86.0</ele><time>2026-04-26T08:54:35.991Z</time></trkpt><trkpt lat="44.3080021" lon="8.4019403"><ele>89.0</ele><time>2026-04-26T08:54:36.991Z</time></trkpt><trkpt lat="44.3080259" lon="8.401819"><ele>91.80000000000001</ele><time>2026-04-26T08:54:37.991Z</time></trkpt><trkpt lat="44.3080499" lon="8.4016904"><ele>94.60000000000001</ele><time>2026-04-26T08:54:38.991Z</time></trkpt><trkpt lat="44.3080728" lon="8.4015543"><ele>97.4</ele><time>2026-04-26T08:54:39.991Z</time></trkpt><trkpt lat="44.3080959" lon="8.4014097"><ele>100.2</ele><time>2026-04-26T08:54:40.991Z</time></trkpt><trkpt lat="44.3081265" lon="8.4012566"><ele>103.0</ele><time>2026-04-26T08:54:41.991Z</time></trkpt><trkpt lat="44.3081636" lon="8.4011088"><ele>102.16666666666667</ele><time>2026-04-26T08:54:42.991Z</time></trkpt><trkpt lat="44.3082101" lon="8.4009778"><ele>101.33333333333334</ele><time>2026-04-26T08:54:43.991Z</time></trkpt><trkpt lat="44.3082499" lon="8.4008606"><ele>100.5</ele><time>2026-04-26T08:54:44.992Z</time></trkpt><trkpt lat="44.3082861" lon="8.4007543"><ele>99.66666666666666</ele><time>2026-04-26T08:54:45.991Z</time></trkpt><trkpt lat="44.3083229" lon="8.4006567"><ele>98.83333333333333</ele><time>2026-04-26T08:54:46.991Z</time></trkpt><trkpt lat="44.3083712" lon="8.4005622"><ele>98.0</ele><time>2026-04-26T08:54:47.991Z</time></trkpt><trkpt lat="44.3084278" lon="8.4004593"><ele>98.0</ele><time>2026-04-26T08:54:48.991Z</time></trkpt><trkpt lat="44.308504" lon="8.4003483"><ele>98.0</ele><time>2026-04-26T08:54:49.991Z</time></trkpt><trkpt lat="44.3085948" lon="8.4002333"><ele>98.0</ele><time>2026-04-26T08:54:50.991Z</time></trkpt><trkpt lat="44.3086814" lon="8.4001272"><ele>98.0</ele><time>2026-04-26T08:54:51.991Z</time></trkpt><trkpt lat="44.3087562" lon="8.4000122"><ele>98.0</ele><time>2026-04-26T08:54:52.992Z</time></trkpt><trkpt lat="44.3088234" lon="8.3998929"><ele>98.0</ele><time>2026-04-26T08:54:53.991Z</time></trkpt><trkpt lat="44.3088883" lon="8.3997773"><ele>98.0</ele><time>2026-04-26T08:54:54.991Z</time></trkpt><trkpt lat="44.3089526" lon="8.3996663"><ele>98.0</ele><time>2026-04-26T08:54:55.991Z</time></trkpt><trkpt lat="44.3090157" lon="8.399555"><ele>98.0</ele><time>2026-04-26T08:54:56.991Z</time></trkpt><trkpt lat="44.3090796" lon="8.3994426"><ele>95.99999999999999</ele><time>2026-04-26T08:54:57.991Z</time></trkpt><trkpt lat="44.309144" lon="8.3993422"><ele>94.0</ele><time>2026-04-26T08:54:58.991Z</time></trkpt><trkpt lat="44.3092063" lon="8.3992465"><ele>92.0</ele><time>2026-04-26T08:54:59.991Z</time></trkpt><trkpt lat="44.3092707" lon="8.3991573"><ele>90.0</ele><time>2026-04-26T08:55:00.991Z</time></trkpt><trkpt lat="44.3093382" lon="8.3990754"><ele>88.0</ele><time>2026-04-26T08:55:01.991Z</time></trkpt><trkpt lat="44.3093977" lon="8.3990019"><ele>86.0</ele><time>2026-04-26T08:55:02.991Z</time></trkpt><trkpt lat="44.3094529" lon="8.3989348"><ele>86.0</ele><time>2026-04-26T08:55:03.991Z</time></trkpt><trkpt lat="44.309497" lon="8.3988533"><ele>86.0</ele><time>2026-04-26T08:55:04.991Z</time></trkpt><trkpt lat="44.3095324" lon="8.3987538"><ele>86.0</ele><time>2026-04-26T08:55:05.991Z</time></trkpt><trkpt lat="44.3095551" lon="8.3986467"><ele>86.0</ele><time>2026-04-26T08:55:06.991Z</time></trkpt><trkpt lat="44.3095657" lon="8.3985402"><ele>86.0</ele><time>2026-04-26T08:55:07.991Z</time></trkpt><trkpt lat="44.3095674" lon="8.3984358"><ele>86.0</ele><time>2026-04-26T08:55:08.991Z</time></trkpt><trkpt lat="44.3095696" lon="8.3983414"><ele>87.0</ele><time>2026-04-26T08:55:09.991Z</time></trkpt><trkpt lat="44.3096046" lon="8.3982082"><ele>88.0</ele><time>2026-04-26T08:55:11.991Z</time></trkpt><trkpt lat="44.3096535" lon="8.3981525"><ele>89.0</ele><time>2026-04-26T08:55:12.991Z</time></trkpt><trkpt lat="44.3097187" lon="8.3980983"><ele>90.0</ele><time>2026-04-26T08:55:13.991Z</time></trkpt><trkpt lat="44.3097939" lon="8.3980319"><ele>91.0</ele><time>2026-04-26T08:55:14.991Z</time></trkpt><trkpt lat="44.3098694" lon="8.3979514"><ele>92.0</ele><time>2026-04-26T08:55:15.991Z</time></trkpt><trkpt lat="44.3099433" lon="8.3978613"><ele>92.0</ele><time>2026-04-26T08:55:16.991Z</time></trkpt><trkpt lat="44.3100183" lon="8.3977554"><ele>92.0</ele><time>2026-04-26T08:55:17.991Z</time></trkpt><trkpt lat="44.3101021" lon="8.3976331"><ele>92.0</ele><time>2026-04-26T08:55:18.991Z</time></trkpt><trkpt lat="44.3101816" lon="8.3974988"><ele>92.0</ele><time>2026-04-26T08:55:19.991Z</time></trkpt><trkpt lat="44.310257" lon="8.3973508"><ele>92.0</ele><time>2026-04-26T08:55:20.992Z</time></trkpt><trkpt lat="44.3103358" lon="8.3972015"><ele>92.0</ele><time>2026-04-26T08:55:21.991Z</time></trkpt><trkpt lat="44.310408" lon="8.3970458"><ele>92.0</ele><time>2026-04-26T08:55:22.991Z</time></trkpt><trkpt lat="44.3104841" lon="8.3968834"><ele>92.0</ele><time>2026-04-26T08:55:23.991Z</time></trkpt><trkpt lat="44.3105775" lon="8.3967146"><ele>93.0</ele><time>2026-04-26T08:55:24.991Z</time></trkpt><trkpt lat="44.310666" lon="8.396532"><ele>94.0</ele><time>2026-04-26T08:55:25.991Z</time></trkpt><trkpt lat="44.3107689" lon="8.3963272"><ele>95.0</ele><time>2026-04-26T08:55:26.991Z</time></trkpt><trkpt lat="44.3108717" lon="8.3961232"><ele>95.0</ele><time>2026-04-26T08:55:27.992Z</time></trkpt><trkpt lat="44.3109811" lon="8.3959202"><ele>95.0</ele><time>2026-04-26T08:55:28.992Z</time></trkpt><trkpt lat="44.3110783" lon="8.3957391"><ele>95.0</ele><time>2026-04-26T08:55:29.991Z</time></trkpt><trkpt lat="44.3111706" lon="8.3955567"><ele>92.25</ele><time>2026-04-26T08:55:30.991Z</time></trkpt><trkpt lat="44.3112606" lon="8.3953882"><ele>89.5</ele><time>2026-04-26T08:55:31.991Z</time></trkpt><trkpt lat="44.3113401" lon="8.3952335"><ele>86.75</ele><time>2026-04-26T08:55:32.991Z</time></trkpt><trkpt lat="44.3114211" lon="8.3950878"><ele>84.0</ele><time>2026-04-26T08:55:33.991Z</time></trkpt><trkpt lat="44.3114983" lon="8.3949369"><ele>84.0</ele><time>2026-04-26T08:55:34.991Z</time></trkpt><trkpt lat="44.3115699" lon="8.3947844"><ele>84.0</ele><time>2026-04-26T08:55:35.992Z</time></trkpt><trkpt lat="44.3116408" lon="8.3946433"><ele>84.0</ele><time>2026-04-26T08:55:36.991Z</time></trkpt><trkpt lat="44.3117091" lon="8.3945242"><ele>84.0</ele><time>2026-04-26T08:55:37.992Z</time></trkpt><trkpt lat="44.3117717" lon="8.3944283"><ele>86.66666666666667</ele><time>2026-04-26T08:55:38.991Z</time></trkpt><trkpt lat="44.3118179" lon="8.3943473"><ele>89.33333333333334</ele><time>2026-04-26T08:55:39.991Z</time></trkpt><trkpt lat="44.3118595" lon="8.3942686"><ele>92.0</ele><time>2026-04-26T08:55:40.992Z</time></trkpt><trkpt lat="44.3119029" lon="8.3941943"><ele>94.66666666666667</ele><time>2026-04-26T08:55:41.991Z</time></trkpt><trkpt lat="44.3119486" lon="8.3941117"><ele>97.33333333333334</ele><time>2026-04-26T08:55:42.991Z</time></trkpt><trkpt lat="44.3119974" lon="8.3940149"><ele>100.0</ele><time>2026-04-26T08:55:43.991Z</time></trkpt><trkpt lat="44.31205" lon="8.3939074"><ele>98.2</ele><time>2026-04-26T08:55:44.991Z</time></trkpt><trkpt lat="44.3121036" lon="8.3937904"><ele>96.4</ele><time>2026-04-26T08:55:45.992Z</time></trkpt><trkpt lat="44.3121611" lon="8.393669"><ele>94.6</ele><time>2026-04-26T08:55:46.991Z</time></trkpt><trkpt lat="44.312223" lon="8.3935502"><ele>92.8</ele><time>2026-04-26T08:55:47.991Z</time></trkpt><trkpt lat="44.312291" lon="8.3934249"><ele>91.0</ele><time>2026-04-26T08:55:48.991Z</time></trkpt><trkpt lat="44.3123702" lon="8.3933043"><ele>91.0</ele><time>2026-04-26T08:55:49.991Z</time></trkpt><trkpt lat="44.3124398" lon="8.393189"><ele>91.0</ele><time>2026-04-26T08:55:50.991Z</time></trkpt><trkpt lat="44.3125082" lon="8.3930834"><ele>91.0</ele><time>2026-04-26T08:55:51.991Z</time></trkpt><trkpt lat="44.3125712" lon="8.3929923"><ele>91.0</ele><time>2026-04-26T08:55:52.991Z</time></trkpt><trkpt lat="44.3126402" lon="8.3929039"><ele>91.0</ele><time>2026-04-26T08:55:53.991Z</time></trkpt><trkpt lat="44.3127174" lon="8.3928277"><ele>91.8</ele><time>2026-04-26T08:55:54.991Z</time></trkpt><trkpt lat="44.3128051" lon="8.3927624"><ele>92.6</ele><time>2026-04-26T08:55:55.991Z</time></trkpt><trkpt lat="44.3129024" lon="8.392712"><ele>93.4</ele><time>2026-04-26T08:55:56.991Z</time></trkpt><trkpt lat="44.3130019" lon="8.3926753"><ele>94.2</ele><time>2026-04-26T08:55:57.991Z</time></trkpt><trkpt lat="44.3130976" lon="8.3926445"><ele>95.0</ele><time>2026-04-26T08:55:58.991Z</time></trkpt><trkpt lat="44.3131889" lon="8.392604"><ele>95.0</ele><time>2026-04-26T08:55:59.991Z</time></trkpt><trkpt lat="44.3132702" lon="8.3925409"><ele>95.0</ele><time>2026-04-26T08:56:00.991Z</time></trkpt><trkpt lat="44.3133488" lon="8.3924861"><ele>95.0</ele><time>2026-04-26T08:56:01.991Z</time></trkpt><trkpt lat="44.3134274" lon="8.3924308"><ele>95.0</ele><time>2026-04-26T08:56:02.991Z</time></trkpt><trkpt lat="44.3134966" lon="8.3923643"><ele>95.0</ele><time>2026-04-26T08:56:03.991Z</time></trkpt><trkpt lat="44.3135604" lon="8.3922838"><ele>95.0</ele><time>2026-04-26T08:56:04.991Z</time></trkpt><trkpt lat="44.3136238" lon="8.3921836"><ele>98.8</ele><time>2026-04-26T08:56:05.991Z</time></trkpt><trkpt lat="44.3136744" lon="8.3920682"><ele>102.6</ele><time>2026-04-26T08:56:06.991Z</time></trkpt><trkpt lat="44.3137196" lon="8.3919457"><ele>106.4</ele><time>2026-04-26T08:56:07.991Z</time></trkpt><trkpt lat="44.3137652" lon="8.3918152"><ele>110.2</ele><time>2026-04-26T08:56:08.991Z</time></trkpt><trkpt lat="44.3138128" lon="8.3916779"><ele>114.0</ele><time>2026-04-26T08:56:09.991Z</time></trkpt><trkpt lat="44.313866" lon="8.3915356"><ele>111.4</ele><time>2026-04-26T08:56:10.991Z</time></trkpt><trkpt lat="44.3139219" lon="8.3913955"><ele>108.80000000000001</ele><time>2026-04-26T08:56:11.991Z</time></trkpt><trkpt lat="44.3139745" lon="8.3912626"><ele>106.19999999999999</ele><time>2026-04-26T08:56:12.991Z</time></trkpt><trkpt lat="44.3140209" lon="8.3911358"><ele>103.6</ele><time>2026-04-26T08:56:13.991Z</time></trkpt><trkpt lat="44.3140706" lon="8.3910151"><ele>101.0</ele><time>2026-04-26T08:56:14.991Z</time></trkpt><trkpt lat="44.3141204" lon="8.3909033"><ele>101.0</ele><time>2026-04-26T08:56:15.991Z</time></trkpt><trkpt lat="44.3141769" lon="8.3907943"><ele>101.0</ele><time>2026-04-26T08:56:16.991Z</time></trkpt><trkpt lat="44.3142397" lon="8.3906856"><ele>101.0</ele><time>2026-04-26T08:56:17.992Z</time></trkpt><trkpt lat="44.3143316" lon="8.3905775"><ele>101.0</ele><time>2026-04-26T08:56:18.991Z</time></trkpt><trkpt lat="44.3144208" lon="8.390492"><ele>101.0</ele><time>2026-04-26T08:56:19.991Z</time></trkpt><trkpt lat="44.3145047" lon="8.3904216"><ele>101.4</ele><time>2026-04-26T08:56:20.991Z</time></trkpt><trkpt lat="44.3145828" lon="8.3903558"><ele>101.8</ele><time>2026-04-26T08:56:21.991Z</time></trkpt><trkpt lat="44.3146551" lon="8.3902836"><ele>102.2</ele><time>2026-04-26T08:56:22.991Z</time></trkpt><trkpt lat="44.3147316" lon="8.3901982"><ele>102.60000000000001</ele><time>2026-04-26T08:56:23.991Z</time></trkpt><trkpt lat="44.3148031" lon="8.3901058"><ele>103.0</ele><time>2026-04-26T08:56:24.992Z</time></trkpt><trkpt lat="44.3148706" lon="8.3900137"><ele>103.00000000000001</ele><time>2026-04-26T08:56:25.991Z</time></trkpt><trkpt lat="44.3149409" lon="8.389926"><ele>103.0</ele><time>2026-04-26T08:56:26.991Z</time></trkpt><trkpt lat="44.3150031" lon="8.3898436"><ele>103.0</ele><time>2026-04-26T08:56:27.991Z</time></trkpt><trkpt lat="44.3150663" lon="8.3897626"><ele>103.0</ele><time>2026-04-26T08:56:28.991Z</time></trkpt><trkpt lat="44.3151207" lon="8.3896817"><ele>103.00000000000001</ele><time>2026-04-26T08:56:29.991Z</time></trkpt><trkpt lat="44.3151669" lon="8.3895986"><ele>103.0</ele><time>2026-04-26T08:56:30.991Z</time></trkpt><trkpt lat="44.3152074" lon="8.3894996"><ele>105.00000000000001</ele><time>2026-04-26T08:56:31.991Z</time></trkpt><trkpt lat="44.3152453" lon="8.3893933"><ele>107.0</ele><time>2026-04-26T08:56:32.991Z</time></trkpt><trkpt lat="44.3152788" lon="8.3892832"><ele>109.0</ele><time>2026-04-26T08:56:33.991Z</time></trkpt><trkpt lat="44.3153049" lon="8.3891801"><ele>111.0</ele><time>2026-04-26T08:56:34.991Z</time></trkpt><trkpt lat="44.3153213" lon="8.389085"><ele>113.00000000000001</ele><time>2026-04-26T08:56:35.991Z</time></trkpt><trkpt lat="44.3153541" lon="8.3889415"><ele>115.0</ele><time>2026-04-26T08:56:37.991Z</time></trkpt><trkpt lat="44.3154168" lon="8.3888329"><ele>115.6</ele><time>2026-04-26T08:56:39.992Z</time></trkpt><trkpt lat="44.3155152" lon="8.3887728"><ele>116.2</ele><time>2026-04-26T08:56:41.991Z</time></trkpt><trkpt lat="44.3155842" lon="8.3886875"><ele>116.80000000000001</ele><time>2026-04-26T08:56:43.992Z</time></trkpt><trkpt lat="44.3156157" lon="8.3885318"><ele>117.4</ele><time>2026-04-26T08:56:45.992Z</time></trkpt><trkpt lat="44.3156179" lon="8.3884222"><ele>118.0</ele><time>2026-04-26T08:56:46.992Z</time></trkpt><trkpt lat="44.3156143" lon="8.3882872"><ele>118.00000000000001</ele><time>2026-04-26T08:56:47.991Z</time></trkpt><trkpt lat="44.3156068" lon="8.3881514"><ele>118.0</ele><time>2026-04-26T08:56:48.991Z</time></trkpt><trkpt lat="44.3155948" lon="8.3880207"><ele>118.0</ele><time>2026-04-26T08:56:49.991Z</time></trkpt><trkpt lat="44.3155678" lon="8.3879065"><ele>118.0</ele><time>2026-04-26T08:56:50.991Z</time></trkpt><trkpt lat="44.3155391" lon="8.387799"><ele>118.00000000000001</ele><time>2026-04-26T08:56:51.991Z</time></trkpt><trkpt lat="44.3155183" lon="8.3876915"><ele>118.0</ele><time>2026-04-26T08:56:52.991Z</time></trkpt><trkpt lat="44.3155076" lon="8.3875737"><ele>118.4</ele><time>2026-04-26T08:56:53.991Z</time></trkpt><trkpt lat="44.3155077" lon="8.387452"><ele>118.80000000000001</ele><time>2026-04-26T08:56:54.992Z</time></trkpt><trkpt lat="44.3155196" lon="8.3873222"><ele>119.2</ele><time>2026-04-26T08:56:55.991Z</time></trkpt><trkpt lat="44.3155373" lon="8.3871779"><ele>119.6</ele><time>2026-04-26T08:56:56.991Z</time></trkpt><trkpt lat="44.3155552" lon="8.3870437"><ele>120.0</ele><time>2026-04-26T08:56:57.991Z</time></trkpt><trkpt lat="44.3155752" lon="8.3869117"><ele>120.83333333333333</ele><time>2026-04-26T08:56:58.991Z</time></trkpt><trkpt lat="44.3155927" lon="8.3867876"><ele>121.66666666666666</ele><time>2026-04-26T08:56:59.991Z</time></trkpt><trkpt lat="44.3156089" lon="8.3866788"><ele>122.5</ele><time>2026-04-26T08:57:00.991Z</time></trkpt><trkpt lat="44.3156349" lon="8.386581"><ele>123.33333333333333</ele><time>2026-04-26T08:57:01.991Z</time></trkpt><trkpt lat="44.3156663" lon="8.3864983"><ele>124.16666666666666</ele><time>2026-04-26T08:57:02.991Z</time></trkpt><trkpt lat="44.3157047" lon="8.3864281"><ele>125.0</ele><time>2026-04-26T08:57:03.991Z</time></trkpt><trkpt lat="44.3157783" lon="8.3863712"><ele>124.99999999999999</ele><time>2026-04-26T08:57:05.991Z</time></trkpt><trkpt lat="44.3158789" lon="8.386365"><ele>125.0</ele><time>2026-04-26T08:57:07.991Z</time></trkpt><trkpt lat="44.3159988" lon="8.3863486"><ele>125.0</ele><time>2026-04-26T08:57:09.99Z</time></trkpt><trkpt lat="44.3160618" lon="8.3863387"><ele>125.0</ele><time>2026-04-26T08:57:10.99Z</time></trkpt><trkpt lat="44.3161298" lon="8.3863241"><ele>124.99999999999999</ele><time>2026-04-26T08:57:11.99Z</time></trkpt><trkpt lat="44.3162011" lon="8.3863045"><ele>125.0</ele><time>2026-04-26T08:57:12.99Z</time></trkpt><trkpt lat="44.3162782" lon="8.3862729"><ele>123.16666666666666</ele><time>2026-04-26T08:57:13.99Z</time></trkpt><trkpt lat="44.3163524" lon="8.3862286"><ele>121.33333333333333</ele><time>2026-04-26T08:57:14.99Z</time></trkpt><trkpt lat="44.316424" lon="8.3861802"><ele>119.5</ele><time>2026-04-26T08:57:15.991Z</time></trkpt><trkpt lat="44.3165007" lon="8.3861452"><ele>117.66666666666666</ele><time>2026-04-26T08:57:16.991Z</time></trkpt><trkpt lat="44.3165706" lon="8.3861155"><ele>115.83333333333333</ele><time>2026-04-26T08:57:17.99Z</time></trkpt><trkpt lat="44.3166399" lon="8.3860828"><ele>114.0</ele><time>2026-04-26T08:57:18.99Z</time></trkpt><trkpt lat="44.3166977" lon="8.3860354"><ele>117.66666666666667</ele><time>2026-04-26T08:57:19.99Z</time></trkpt><trkpt lat="44.316753" lon="8.385982"><ele>121.33333333333334</ele><time>2026-04-26T08:57:20.99Z</time></trkpt><trkpt lat="44.3167948" lon="8.385911"><ele>125.0</ele><time>2026-04-26T08:57:21.99Z</time></trkpt><trkpt lat="44.3168247" lon="8.3858234"><ele>128.66666666666669</ele><time>2026-04-26T08:57:22.99Z</time></trkpt><trkpt lat="44.3168482" lon="8.3856505"><ele>132.33333333333334</ele><time>2026-04-26T08:57:24.991Z</time></trkpt><trkpt lat="44.316864" lon="8.3855151"><ele>136.0</ele><time>2026-04-26T08:57:26.99Z</time></trkpt><trkpt lat="44.3168363" lon="8.3853711"><ele>136.0</ele><time>2026-04-26T08:57:28.991Z</time></trkpt><trkpt lat="44.3168067" lon="8.3852922"><ele>136.0</ele><time>2026-04-26T08:57:29.99Z</time></trkpt><trkpt lat="44.3167497" lon="8.3851512"><ele>136.0</ele><time>2026-04-26T08:57:31.99Z</time></trkpt><trkpt lat="44.3167069" lon="8.3850134"><ele>136.0</ele><time>2026-04-26T08:57:33.99Z</time></trkpt><trkpt lat="44.3166931" lon="8.384923"><ele>136.0</ele><time>2026-04-26T08:57:34.99Z</time></trkpt><trkpt lat="44.3166748" lon="8.3848213"><ele>136.0</ele><time>2026-04-26T08:57:35.99Z</time></trkpt><trkpt lat="44.3166571" lon="8.3847263"><ele>135.0</ele><time>2026-04-26T08:57:36.99Z</time></trkpt><trkpt lat="44.3166467" lon="8.3846255"><ele>134.0</ele><time>2026-04-26T08:57:37.99Z</time></trkpt><trkpt lat="44.3166461" lon="8.384527"><ele>133.0</ele><time>2026-04-26T08:57:38.99Z</time></trkpt><trkpt lat="44.316657" lon="8.3844291"><ele>132.0</ele><time>2026-04-26T08:57:39.991Z</time></trkpt><trkpt lat="44.3166743" lon="8.3843357"><ele>131.0</ele><time>2026-04-26T08:57:40.99Z</time></trkpt><trkpt lat="44.3167042" lon="8.3842477"><ele>130.0</ele><time>2026-04-26T08:57:41.991Z</time></trkpt><trkpt lat="44.3167896" lon="8.3841124"><ele>130.0</ele><time>2026-04-26T08:57:43.99Z</time></trkpt><trkpt lat="44.3168537" lon="8.3840631"><ele>130.0</ele><time>2026-04-26T08:57:44.99Z</time></trkpt><trkpt lat="44.3169267" lon="8.3840251"><ele>130.0</ele><time>2026-04-26T08:57:45.99Z</time></trkpt><trkpt lat="44.3170199" lon="8.3839902"><ele>130.0</ele><time>2026-04-26T08:57:46.99Z</time></trkpt><trkpt lat="44.3171145" lon="8.3839434"><ele>130.0</ele><time>2026-04-26T08:57:47.99Z</time></trkpt><trkpt lat="44.3172033" lon="8.383885"><ele>130.0</ele><time>2026-04-26T08:57:48.99Z</time></trkpt><trkpt lat="44.3172882" lon="8.3838247"><ele>131.14285714285717</ele><time>2026-04-26T08:57:49.99Z</time></trkpt><trkpt lat="44.3173576" lon="8.383758"><ele>132.28571428571428</ele><time>2026-04-26T08:57:50.99Z</time></trkpt><trkpt lat="44.3174168" lon="8.3836912"><ele>133.42857142857144</ele><time>2026-04-26T08:57:51.99Z</time></trkpt><trkpt lat="44.3174699" lon="8.3836271"><ele>134.57142857142858</ele><time>2026-04-26T08:57:52.99Z</time></trkpt><trkpt lat="44.3175212" lon="8.3835665"><ele>135.71428571428572</ele><time>2026-04-26T08:57:53.99Z</time></trkpt><trkpt lat="44.3175787" lon="8.3835058"><ele>136.85714285714286</ele><time>2026-04-26T08:57:54.99Z</time></trkpt><trkpt lat="44.317645" lon="8.3834512"><ele>138.0</ele><time>2026-04-26T08:57:55.99Z</time></trkpt><trkpt lat="44.3177234" lon="8.3834019"><ele>138.0</ele><time>2026-04-26T08:57:56.99Z</time></trkpt><trkpt lat="44.3178149" lon="8.3833501"><ele>138.0</ele><time>2026-04-26T08:57:57.99Z</time></trkpt><trkpt lat="44.3179227" lon="8.3833027"><ele>138.0</ele><time>2026-04-26T08:57:58.99Z</time></trkpt><trkpt lat="44.3180343" lon="8.3832592"><ele>138.0</ele><time>2026-04-26T08:57:59.99Z</time></trkpt><trkpt lat="44.3181297" lon="8.3832191"><ele>138.0</ele><time>2026-04-26T08:58:00.99Z</time></trkpt><trkpt lat="44.318205" lon="8.3831924"><ele>138.6</ele><time>2026-04-26T08:58:01.99Z</time></trkpt><trkpt lat="44.3182698" lon="8.3831632"><ele>139.20000000000002</ele><time>2026-04-26T08:58:02.99Z</time></trkpt><trkpt lat="44.3183581" lon="8.3830737"><ele>139.8</ele><time>2026-04-26T08:58:04.99Z</time></trkpt><trkpt lat="44.318424" lon="8.3829399"><ele>140.4</ele><time>2026-04-26T08:58:06.99Z</time></trkpt><trkpt lat="44.3185169" lon="8.3828605"><ele>141.0</ele><time>2026-04-26T08:58:08.99Z</time></trkpt><trkpt lat="44.3185847" lon="8.3828503"><ele>143.5</ele><time>2026-04-26T08:58:09.99Z</time></trkpt><trkpt lat="44.3186631" lon="8.382851"><ele>146.0</ele><time>2026-04-26T08:58:10.99Z</time></trkpt><trkpt lat="44.3187501" lon="8.382857"><ele>148.5</ele><time>2026-04-26T08:58:11.99Z</time></trkpt><trkpt lat="44.3188343" lon="8.3828839"><ele>151.0</ele><time>2026-04-26T08:58:12.99Z</time></trkpt><trkpt lat="44.318924" lon="8.3829251"><ele>153.5</ele><time>2026-04-26T08:58:13.99Z</time></trkpt><trkpt lat="44.3190178" lon="8.3829409"><ele>156.0</ele><time>2026-04-26T08:58:14.99Z</time></trkpt><trkpt lat="44.3191097" lon="8.3829324"><ele>157.25</ele><time>2026-04-26T08:58:15.99Z</time></trkpt><trkpt lat="44.319229" lon="8.3829075"><ele>158.5</ele><time>2026-04-26T08:58:16.99Z</time></trkpt><trkpt lat="44.3193736" lon="8.382862"><ele>159.75</ele><time>2026-04-26T08:58:17.99Z</time></trkpt><trkpt lat="44.3195319" lon="8.3828248"><ele>161.0</ele><time>2026-04-26T08:58:18.99Z</time></trkpt><trkpt lat="44.3197006" lon="8.3827924"><ele>164.0</ele><time>2026-04-26T08:58:19.99Z</time></trkpt><trkpt lat="44.319868" lon="8.3827707"><ele>167.0</ele><time>2026-04-26T08:58:20.99Z</time></trkpt><trkpt lat="44.3200147" lon="8.3827731"><ele>170.0</ele><time>2026-04-26T08:58:21.99Z</time></trkpt><trkpt lat="44.3201517" lon="8.3827949"><ele>170.0</ele><time>2026-04-26T08:58:22.99Z</time></trkpt><trkpt lat="44.3202849" lon="8.3828274"><ele>170.0</ele><time>2026-04-26T08:58:23.99Z</time></trkpt><trkpt lat="44.3204217" lon="8.3828905"><ele>170.0</ele><time>2026-04-26T08:58:24.99Z</time></trkpt><trkpt lat="44.3205606" lon="8.3829624"><ele>170.0</ele><time>2026-04-26T08:58:25.99Z</time></trkpt><trkpt lat="44.3206942" lon="8.3830498"><ele>167.5</ele><time>2026-04-26T08:58:26.99Z</time></trkpt><trkpt lat="44.3208178" lon="8.3831452"><ele>165.0</ele><time>2026-04-26T08:58:27.99Z</time></trkpt><trkpt lat="44.3209243" lon="8.3832422"><ele>162.5</ele><time>2026-04-26T08:58:28.99Z</time></trkpt><trkpt lat="44.3210069" lon="8.3833241"><ele>160.0</ele><time>2026-04-26T08:58:29.99Z</time></trkpt><trkpt lat="44.3210866" lon="8.3833919"><ele>160.0</ele><time>2026-04-26T08:58:30.99Z</time></trkpt><trkpt lat="44.3211523" lon="8.3834282"><ele>160.0</ele><time>2026-04-26T08:58:31.99Z</time></trkpt><trkpt lat="44.3212162" lon="8.3834553"><ele>160.0</ele><time>2026-04-26T08:58:32.99Z</time></trkpt><trkpt lat="44.3212865" lon="8.3834708"><ele>160.0</ele><time>2026-04-26T08:58:33.99Z</time></trkpt><trkpt lat="44.3213666" lon="8.3834845"><ele>160.0</ele><time>2026-04-26T08:58:34.99Z</time></trkpt><trkpt lat="44.3214535" lon="8.3834708"><ele>160.0</ele><time>2026-04-26T08:58:35.99Z</time></trkpt><trkpt lat="44.3215433" lon="8.3834434"><ele>161.6</ele><time>2026-04-26T08:58:36.99Z</time></trkpt><trkpt lat="44.3216263" lon="8.383392"><ele>163.2</ele><time>2026-04-26T08:58:37.991Z</time></trkpt><trkpt lat="44.3217056" lon="8.3833182"><ele>164.8</ele><time>2026-04-26T08:58:38.991Z</time></trkpt><trkpt lat="44.3217814" lon="8.3832044"><ele>166.4</ele><time>2026-04-26T08:58:39.99Z</time></trkpt><trkpt lat="44.3218583" lon="8.3830814"><ele>168.0</ele><time>2026-04-26T08:58:40.99Z</time></trkpt><trkpt lat="44.3219162" lon="8.3829496"><ele>168.0</ele><time>2026-04-26T08:58:41.99Z</time></trkpt><trkpt lat="44.3219664" lon="8.3828397"><ele>168.0</ele><time>2026-04-26T08:58:42.99Z</time></trkpt><trkpt lat="44.3220039" lon="8.3827495"><ele>168.0</ele><time>2026-04-26T08:58:43.99Z</time></trkpt><trkpt lat="44.3220212" lon="8.3826492"><ele>168.0</ele><time>2026-04-26T08:58:44.99Z</time></trkpt><trkpt lat="44.3220308" lon="8.3825446"><ele>168.0</ele><time>2026-04-26T08:58:45.99Z</time></trkpt><trkpt lat="44.322045" lon="8.3824371"><ele>168.0</ele><time>2026-04-26T08:58:46.99Z</time></trkpt><trkpt lat="44.3220669" lon="8.38233"><ele>168.0</ele><time>2026-04-26T08:58:47.99Z</time></trkpt><trkpt lat="44.3220931" lon="8.3822362"><ele>168.0</ele><time>2026-04-26T08:58:48.991Z</time></trkpt><trkpt lat="44.3221256" lon="8.3821519"><ele>168.0</ele><time>2026-04-26T08:58:49.99Z</time></trkpt><trkpt lat="44.3221679" lon="8.3820791"><ele>168.0</ele><time>2026-04-26T08:58:50.991Z</time></trkpt><trkpt lat="44.3222267" lon="8.38202"><ele>168.0</ele><time>2026-04-26T08:58:51.99Z</time></trkpt><trkpt lat="44.3223036" lon="8.3819769"><ele>168.0</ele><time>2026-04-26T08:58:52.99Z</time></trkpt><trkpt lat="44.3223888" lon="8.3819531"><ele>166.20000000000002</ele><time>2026-04-26T08:58:53.99Z</time></trkpt><trkpt lat="44.3224756" lon="8.3819248"><ele>164.4</ele><time>2026-04-26T08:58:54.99Z</time></trkpt><trkpt lat="44.3225632" lon="8.381897"><ele>162.60000000000002</ele><time>2026-04-26T08:58:55.99Z</time></trkpt><trkpt lat="44.3226439" lon="8.3818532"><ele>160.8</ele><time>2026-04-26T08:58:56.99Z</time></trkpt><trkpt lat="44.3227278" lon="8.3817814"><ele>159.0</ele><time>2026-04-26T08:58:57.99Z</time></trkpt><trkpt lat="44.322804" lon="8.3816771"><ele>159.0</ele><time>2026-04-26T08:58:58.99Z</time></trkpt><trkpt lat="44.3228769" lon="8.3815536"><ele>159.0</ele><time>2026-04-26T08:58:59.99Z</time></trkpt><trkpt lat="44.3229485" lon="8.3814223"><ele>159.0</ele><time>2026-04-26T08:59:00.99Z</time></trkpt><trkpt lat="44.323018" lon="8.3812929"><ele>159.0</ele><time>2026-04-26T08:59:01.99Z</time></trkpt><trkpt lat="44.3230812" lon="8.381177"><ele>158.83333333333334</ele><time>2026-04-26T08:59:02.99Z</time></trkpt><trkpt lat="44.3231358" lon="8.3810725"><ele>158.66666666666666</ele><time>2026-04-26T08:59:03.99Z</time></trkpt><trkpt lat="44.3231815" lon="8.3809698"><ele>158.5</ele><time>2026-04-26T08:59:04.991Z</time></trkpt><trkpt lat="44.3232152" lon="8.3808696"><ele>158.33333333333331</ele><time>2026-04-26T08:59:05.99Z</time></trkpt><trkpt lat="44.3232357" lon="8.3807796"><ele>158.16666666666666</ele><time>2026-04-26T08:59:06.99Z</time></trkpt><trkpt lat="44.3232348" lon="8.3806128"><ele>158.0</ele><time>2026-04-26T08:59:08.99Z</time></trkpt><trkpt lat="44.3232102" lon="8.3805204"><ele>159.4</ele><time>2026-04-26T08:59:09.99Z</time></trkpt><trkpt lat="44.3231835" lon="8.3804128"><ele>160.8</ele><time>2026-04-26T08:59:10.99Z</time></trkpt><trkpt lat="44.3231475" lon="8.3802907"><ele>162.2</ele><time>2026-04-26T08:59:11.99Z</time></trkpt><trkpt lat="44.3231128" lon="8.3801597"><ele>163.6</ele><time>2026-04-26T08:59:12.99Z</time></trkpt><trkpt lat="44.3230543" lon="8.3800317"><ele>165.0</ele><time>2026-04-26T08:59:13.99Z</time></trkpt><trkpt lat="44.3230046" lon="8.3799068"><ele>165.66666666666666</ele><time>2026-04-26T08:59:14.99Z</time></trkpt><trkpt lat="44.3229666" lon="8.3797886"><ele>166.33333333333334</ele><time>2026-04-26T08:59:15.99Z</time></trkpt><trkpt lat="44.3229448" lon="8.3796798"><ele>167.0</ele><time>2026-04-26T08:59:16.99Z</time></trkpt><trkpt lat="44.3229479" lon="8.3795674"><ele>167.66666666666669</ele><time>2026-04-26T08:59:17.99Z</time></trkpt><trkpt lat="44.322981" lon="8.3794553"><ele>168.33333333333334</ele><time>2026-04-26T08:59:18.99Z</time></trkpt><trkpt lat="44.3230475" lon="8.3793542"><ele>169.0</ele><time>2026-04-26T08:59:19.99Z</time></trkpt><trkpt lat="44.3231165" lon="8.3792408"><ele>169.0</ele><time>2026-04-26T08:59:20.99Z</time></trkpt><trkpt lat="44.3231738" lon="8.3790956"><ele>169.0</ele><time>2026-04-26T08:59:21.99Z</time></trkpt><trkpt lat="44.3232043" lon="8.3789233"><ele>169.0</ele><time>2026-04-26T08:59:22.99Z</time></trkpt><trkpt lat="44.3232097" lon="8.3787324"><ele>169.0</ele><time>2026-04-26T08:59:23.99Z</time></trkpt><trkpt lat="44.3232061" lon="8.3785388"><ele>171.5</ele><time>2026-04-26T08:59:24.99Z</time></trkpt><trkpt lat="44.3232082" lon="8.3783556"><ele>174.0</ele><time>2026-04-26T08:59:25.99Z</time></trkpt><trkpt lat="44.3232141" lon="8.3781906"><ele>176.5</ele><time>2026-04-26T08:59:26.99Z</time></trkpt><trkpt lat="44.3232428" lon="8.3780245"><ele>179.0</ele><time>2026-04-26T08:59:27.99Z</time></trkpt><trkpt lat="44.3232924" lon="8.3778748"><ele>179.0</ele><time>2026-04-26T08:59:28.99Z</time></trkpt><trkpt lat="44.3233508" lon="8.3777256"><ele>179.0</ele><time>2026-04-26T08:59:29.99Z</time></trkpt><trkpt lat="44.3234244" lon="8.3775817"><ele>179.0</ele><time>2026-04-26T08:59:30.99Z</time></trkpt><trkpt lat="44.3235067" lon="8.3774448"><ele>179.0</ele><time>2026-04-26T08:59:31.99Z</time></trkpt><trkpt lat="44.3235914" lon="8.3773207"><ele>179.0</ele><time>2026-04-26T08:59:32.991Z</time></trkpt><trkpt lat="44.3236768" lon="8.3772191"><ele>179.0</ele><time>2026-04-26T08:59:33.99Z</time></trkpt><trkpt lat="44.3237675" lon="8.377121"><ele>179.0</ele><time>2026-04-26T08:59:34.99Z</time></trkpt><trkpt lat="44.3238649" lon="8.3770317"><ele>179.0</ele><time>2026-04-26T08:59:35.99Z</time></trkpt><trkpt lat="44.3239574" lon="8.3769643"><ele>179.0</ele><time>2026-04-26T08:59:36.99Z</time></trkpt><trkpt lat="44.3240486" lon="8.3769256"><ele>180.39999999999998</ele><time>2026-04-26T08:59:37.99Z</time></trkpt><trkpt lat="44.3241494" lon="8.3768928"><ele>181.8</ele><time>2026-04-26T08:59:38.99Z</time></trkpt><trkpt lat="44.3242614" lon="8.3768823"><ele>183.2</ele><time>2026-04-26T08:59:39.99Z</time></trkpt><trkpt lat="44.3243729" lon="8.3768664"><ele>184.60000000000002</ele><time>2026-04-26T08:59:40.991Z</time></trkpt><trkpt lat="44.3244748" lon="8.3768484"><ele>186.0</ele><time>2026-04-26T08:59:41.99Z</time></trkpt><trkpt lat="44.3245732" lon="8.376808"><ele>186.0</ele><time>2026-04-26T08:59:42.99Z</time></trkpt><trkpt lat="44.3246601" lon="8.3767423"><ele>186.0</ele><time>2026-04-26T08:59:43.99Z</time></trkpt><trkpt lat="44.3247257" lon="8.3766475"><ele>186.0</ele><time>2026-04-26T08:59:44.99Z</time></trkpt><trkpt lat="44.3247801" lon="8.3765432"><ele>186.0</ele><time>2026-04-26T08:59:45.99Z</time></trkpt><trkpt lat="44.3248239" lon="8.3764435"><ele>186.0</ele><time>2026-04-26T08:59:46.99Z</time></trkpt><trkpt lat="44.3248486" lon="8.3763438"><ele>186.0</ele><time>2026-04-26T08:59:47.99Z</time></trkpt><trkpt lat="44.3248573" lon="8.3762516"><ele>189.0</ele><time>2026-04-26T08:59:48.99Z</time></trkpt><trkpt lat="44.3248471" lon="8.3761427"><ele>192.0</ele><time>2026-04-26T08:59:49.991Z</time></trkpt><trkpt lat="44.3248139" lon="8.3760155"><ele>195.0</ele><time>2026-04-26T08:59:50.99Z</time></trkpt><trkpt lat="44.3247807" lon="8.3758813"><ele>198.0</ele><time>2026-04-26T08:59:51.99Z</time></trkpt><trkpt lat="44.3247584" lon="8.3757388"><ele>201.0</ele><time>2026-04-26T08:59:52.99Z</time></trkpt><trkpt lat="44.3247623" lon="8.3755872"><ele>199.20000000000002</ele><time>2026-04-26T08:59:53.99Z</time></trkpt><trkpt lat="44.3247755" lon="8.3754363"><ele>197.4</ele><time>2026-04-26T08:59:54.99Z</time></trkpt><trkpt lat="44.3247957" lon="8.3753067"><ele>195.6</ele><time>2026-04-26T08:59:55.99Z</time></trkpt><trkpt lat="44.3248286" lon="8.3751876"><ele>193.8</ele><time>2026-04-26T08:59:56.991Z</time></trkpt><trkpt lat="44.3248699" lon="8.3750981"><ele>192.0</ele><time>2026-04-26T08:59:57.99Z</time></trkpt><trkpt lat="44.3249375" lon="8.3750175"><ele>192.0</ele><time>2026-04-26T08:59:58.99Z</time></trkpt><trkpt lat="44.3250101" lon="8.3749524"><ele>192.0</ele><time>2026-04-26T08:59:59.99Z</time></trkpt><trkpt lat="44.3250715" lon="8.3748856"><ele>192.0</ele><time>2026-04-26T09:00:00.99Z</time></trkpt><trkpt lat="44.3251256" lon="8.3748156"><ele>192.0</ele><time>2026-04-26T09:00:01.99Z</time></trkpt><trkpt lat="44.3251844" lon="8.3747418"><ele>192.0</ele><time>2026-04-26T09:00:02.99Z</time></trkpt><trkpt lat="44.3252675" lon="8.374689"><ele>192.0</ele><time>2026-04-26T09:00:03.99Z</time></trkpt><trkpt lat="44.3253551" lon="8.3746439"><ele>192.0</ele><time>2026-04-26T09:00:04.99Z</time></trkpt><trkpt lat="44.3254326" lon="8.3745891"><ele>192.0</ele><time>2026-04-26T09:00:05.99Z</time></trkpt><trkpt lat="44.3255022" lon="8.3745268"><ele>192.0</ele><time>2026-04-26T09:00:06.99Z</time></trkpt><trkpt lat="44.3255626" lon="8.3744548"><ele>192.0</ele><time>2026-04-26T09:00:07.991Z</time></trkpt><trkpt lat="44.3256252" lon="8.3743574"><ele>192.0</ele><time>2026-04-26T09:00:08.99Z</time></trkpt><trkpt lat="44.3256849" lon="8.3742226"><ele>190.5</ele><time>2026-04-26T09:00:09.991Z</time></trkpt><trkpt lat="44.3257434" lon="8.3740672"><ele>189.0</ele><time>2026-04-26T09:00:10.99Z</time></trkpt><trkpt lat="44.3258093" lon="8.3739096"><ele>187.5</ele><time>2026-04-26T09:00:11.99Z</time></trkpt><trkpt lat="44.325878" lon="8.3737527"><ele>186.0</ele><time>2026-04-26T09:00:12.99Z</time></trkpt><trkpt lat="44.3259484" lon="8.3736009"><ele>186.0</ele><time>2026-04-26T09:00:13.99Z</time></trkpt><trkpt lat="44.3260236" lon="8.3734415"><ele>186.0</ele><time>2026-04-26T09:00:14.991Z</time></trkpt><trkpt lat="44.3260947" lon="8.3732842"><ele>186.0</ele><time>2026-04-26T09:00:15.99Z</time></trkpt><trkpt lat="44.326152" lon="8.3731362"><ele>186.0</ele><time>2026-04-26T09:00:16.99Z</time></trkpt><trkpt lat="44.3262054" lon="8.372996"><ele>187.33333333333334</ele><time>2026-04-26T09:00:17.99Z</time></trkpt><trkpt lat="44.3262561" lon="8.3728666"><ele>188.66666666666669</ele><time>2026-04-26T09:00:18.99Z</time></trkpt><trkpt lat="44.3263986" lon="8.3726429"><ele>190.0</ele><time>2026-04-26T09:00:20.99Z</time></trkpt><trkpt lat="44.3265061" lon="8.3725407"><ele>190.0</ele><time>2026-04-26T09:00:21.99Z</time></trkpt><trkpt lat="44.3266209" lon="8.3724363"><ele>190.0</ele><time>2026-04-26T09:00:22.99Z</time></trkpt><trkpt lat="44.3267415" lon="8.3723195"><ele>190.0</ele><time>2026-04-26T09:00:23.991Z</time></trkpt><trkpt lat="44.3268589" lon="8.3722108"><ele>190.0</ele><time>2026-04-26T09:00:24.99Z</time></trkpt><trkpt lat="44.3269586" lon="8.3720957"><ele>190.8</ele><time>2026-04-26T09:00:25.99Z</time></trkpt><trkpt lat="44.3270422" lon="8.3719846"><ele>191.6</ele><time>2026-04-26T09:00:26.991Z</time></trkpt><trkpt lat="44.3271063" lon="8.3718749"><ele>192.39999999999998</ele><time>2026-04-26T09:00:27.99Z</time></trkpt><trkpt lat="44.3271549" lon="8.3717595"><ele>193.2</ele><time>2026-04-26T09:00:28.99Z</time></trkpt><trkpt lat="44.3271875" lon="8.3716301"><ele>194.0</ele><time>2026-04-26T09:00:29.99Z</time></trkpt><trkpt lat="44.3272097" lon="8.3714797"><ele>195.0</ele><time>2026-04-26T09:00:30.99Z</time></trkpt><trkpt lat="44.327224" lon="8.3713072"><ele>196.0</ele><time>2026-04-26T09:00:31.99Z</time></trkpt><trkpt lat="44.3272327" lon="8.3711294"><ele>197.0</ele><time>2026-04-26T09:00:32.99Z</time></trkpt><trkpt lat="44.327249" lon="8.3709503"><ele>198.0</ele><time>2026-04-26T09:00:33.99Z</time></trkpt><trkpt lat="44.3272815" lon="8.3707757"><ele>198.5</ele><time>2026-04-26T09:00:34.99Z</time></trkpt><trkpt lat="44.3273222" lon="8.3705967"><ele>199.0</ele><time>2026-04-26T09:00:35.99Z</time></trkpt><trkpt lat="44.3273597" lon="8.3704129"><ele>199.5</ele><time>2026-04-26T09:00:36.99Z</time></trkpt><trkpt lat="44.3274017" lon="8.3702117"><ele>200.0</ele><time>2026-04-26T09:00:37.99Z</time></trkpt><trkpt lat="44.3274449" lon="8.3700069"><ele>200.5</ele><time>2026-04-26T09:00:38.99Z</time></trkpt><trkpt lat="44.3274834" lon="8.369815"><ele>201.0</ele><time>2026-04-26T09:00:39.99Z</time></trkpt><trkpt lat="44.3275159" lon="8.3696369"><ele>201.5</ele><time>2026-04-26T09:00:40.99Z</time></trkpt><trkpt lat="44.3275461" lon="8.3694825"><ele>202.0</ele><time>2026-04-26T09:00:41.99Z</time></trkpt><trkpt lat="44.3275711" lon="8.36937"><ele>202.83333333333331</ele><time>2026-04-26T09:00:42.99Z</time></trkpt><trkpt lat="44.3275996" lon="8.3692842"><ele>203.66666666666666</ele><time>2026-04-26T09:00:43.99Z</time></trkpt><trkpt lat="44.3276371" lon="8.3692037"><ele>204.5</ele><time>2026-04-26T09:00:44.99Z</time></trkpt><trkpt lat="44.3276866" lon="8.3691258"><ele>205.33333333333331</ele><time>2026-04-26T09:00:45.99Z</time></trkpt><trkpt lat="44.3277464" lon="8.36906"><ele>206.16666666666666</ele><time>2026-04-26T09:00:46.99Z</time></trkpt><trkpt lat="44.3278164" lon="8.36898"><ele>207.0</ele><time>2026-04-26T09:00:47.99Z</time></trkpt><trkpt lat="44.3278863" lon="8.3688969"><ele>209.83333333333334</ele><time>2026-04-26T09:00:48.99Z</time></trkpt><trkpt lat="44.3279467" lon="8.3688077"><ele>212.66666666666669</ele><time>2026-04-26T09:00:49.991Z</time></trkpt><trkpt lat="44.3280074" lon="8.3687268"><ele>215.5</ele><time>2026-04-26T09:00:50.99Z</time></trkpt><trkpt lat="44.328078" lon="8.3686492"><ele>218.33333333333334</ele><time>2026-04-26T09:00:51.99Z</time></trkpt><trkpt lat="44.3281563" lon="8.3685836"><ele>221.16666666666669</ele><time>2026-04-26T09:00:52.991Z</time></trkpt><trkpt lat="44.3282416" lon="8.368544"><ele>224.0</ele><time>2026-04-26T09:00:53.99Z</time></trkpt><trkpt lat="44.3283352" lon="8.3685274"><ele>224.0</ele><time>2026-04-26T09:00:54.99Z</time></trkpt><trkpt lat="44.3284452" lon="8.3685268"><ele>224.0</ele><time>2026-04-26T09:00:55.99Z</time></trkpt><trkpt lat="44.3285734" lon="8.3685333"><ele>224.0</ele><time>2026-04-26T09:00:56.99Z</time></trkpt><trkpt lat="44.3286903" lon="8.3685053"><ele>224.0</ele><time>2026-04-26T09:00:57.99Z</time></trkpt><trkpt lat="44.3288085" lon="8.3684569"><ele>222.6</ele><time>2026-04-26T09:00:58.99Z</time></trkpt><trkpt lat="44.3289167" lon="8.3684019"><ele>221.2</ele><time>2026-04-26T09:00:59.99Z</time></trkpt><trkpt lat="44.3290238" lon="8.3683352"><ele>219.79999999999998</ele><time>2026-04-26T09:01:00.99Z</time></trkpt><trkpt lat="44.3291238" lon="8.3682705"><ele>218.39999999999998</ele><time>2026-04-26T09:01:01.99Z</time></trkpt><trkpt lat="44.3292218" lon="8.3682122"><ele>217.0</ele><time>2026-04-26T09:01:02.99Z</time></trkpt><trkpt lat="44.3293206" lon="8.3681596"><ele>217.0</ele><time>2026-04-26T09:01:03.99Z</time></trkpt><trkpt lat="44.3294261" lon="8.3681104"><ele>217.0</ele><time>2026-04-26T09:01:04.99Z</time></trkpt><trkpt lat="44.3295317" lon="8.3680716"><ele>217.0</ele><time>2026-04-26T09:01:05.99Z</time></trkpt><trkpt lat="44.3296391" lon="8.3680405"><ele>217.0</ele><time>2026-04-26T09:01:06.99Z</time></trkpt><trkpt lat="44.3297432" lon="8.3680237"><ele>217.0</ele><time>2026-04-26T09:01:07.99Z</time></trkpt><trkpt lat="44.3298484" lon="8.3680173"><ele>221.25</ele><time>2026-04-26T09:01:08.99Z</time></trkpt><trkpt lat="44.3299598" lon="8.3680235"><ele>225.5</ele><time>2026-04-26T09:01:09.99Z</time></trkpt><trkpt lat="44.3300693" lon="8.3680025"><ele>229.75</ele><time>2026-04-26T09:01:10.99Z</time></trkpt><trkpt lat="44.3301878" lon="8.3679587"><ele>234.0</ele><time>2026-04-26T09:01:11.99Z</time></trkpt><trkpt lat="44.3303095" lon="8.3679178"><ele>234.0</ele><time>2026-04-26T09:01:12.99Z</time></trkpt><trkpt lat="44.3304389" lon="8.3678616"><ele>234.0</ele><time>2026-04-26T09:01:13.99Z</time></trkpt><trkpt lat="44.3305641" lon="8.3677942"><ele>234.0</ele><time>2026-04-26T09:01:14.99Z</time></trkpt><trkpt lat="44.330688" lon="8.367714"><ele>234.0</ele><time>2026-04-26T09:01:15.991Z</time></trkpt><trkpt lat="44.3307927" lon="8.3676256"><ele>232.75</ele><time>2026-04-26T09:01:16.99Z</time></trkpt><trkpt lat="44.3308975" lon="8.3675254"><ele>231.5</ele><time>2026-04-26T09:01:17.99Z</time></trkpt><trkpt lat="44.3309895" lon="8.3674166"><ele>230.25</ele><time>2026-04-26T09:01:18.99Z</time></trkpt><trkpt lat="44.3310701" lon="8.3672888"><ele>229.0</ele><time>2026-04-26T09:01:19.99Z</time></trkpt><trkpt lat="44.3311322" lon="8.3671396"><ele>236.5</ele><time>2026-04-26T09:01:20.99Z</time></trkpt><trkpt lat="44.3311872" lon="8.3669886"><ele>244.0</ele><time>2026-04-26T09:01:21.991Z</time></trkpt><trkpt lat="44.3312279" lon="8.3668241"><ele>251.5</ele><time>2026-04-26T09:01:22.99Z</time></trkpt><trkpt lat="44.3312652" lon="8.3666523"><ele>259.0</ele><time>2026-04-26T09:01:23.99Z</time></trkpt><trkpt lat="44.3312788" lon="8.3664793"><ele>258.0</ele><time>2026-04-26T09:01:24.99Z</time></trkpt><trkpt lat="44.3312924" lon="8.3663192"><ele>257.0</ele><time>2026-04-26T09:01:25.99Z</time></trkpt><trkpt lat="44.3313142" lon="8.3661899"><ele>256.0</ele><time>2026-04-26T09:01:26.99Z</time></trkpt><trkpt lat="44.3313477" lon="8.366091"><ele>255.0</ele><time>2026-04-26T09:01:27.99Z</time></trkpt><trkpt lat="44.3313835" lon="8.3660095"><ele>253.99999999999997</ele><time>2026-04-26T09:01:28.99Z</time></trkpt><trkpt lat="44.3314357" lon="8.3659348"><ele>253.0</ele><time>2026-04-26T09:01:29.99Z</time></trkpt><trkpt lat="44.3314969" lon="8.3658605"><ele>253.0</ele><time>2026-04-26T09:01:30.99Z</time></trkpt><trkpt lat="44.3315731" lon="8.3658058"><ele>253.0</ele><time>2026-04-26T09:01:31.99Z</time></trkpt><trkpt lat="44.3316415" lon="8.36573"><ele>253.0</ele><time>2026-04-26T09:01:32.991Z</time></trkpt><trkpt lat="44.331703" lon="8.3656336"><ele>253.0</ele><time>2026-04-26T09:01:33.99Z</time></trkpt><trkpt lat="44.3317833" lon="8.3655271"><ele>253.0</ele><time>2026-04-26T09:01:34.99Z</time></trkpt><trkpt lat="44.3318618" lon="8.3654125"><ele>257.4</ele><time>2026-04-26T09:01:35.99Z</time></trkpt><trkpt lat="44.3319291" lon="8.3653071"><ele>261.8</ele><time>2026-04-26T09:01:36.99Z</time></trkpt><trkpt lat="44.3319853" lon="8.3652151"><ele>266.2</ele><time>2026-04-26T09:01:37.99Z</time></trkpt><trkpt lat="44.3320412" lon="8.3651488"><ele>270.6</ele><time>2026-04-26T09:01:38.99Z</time></trkpt><trkpt lat="44.3321488" lon="8.3651247"><ele>275.0</ele><time>2026-04-26T09:01:40.991Z</time></trkpt><trkpt lat="44.332213" lon="8.36531"><ele>275.0</ele><time>2026-04-26T09:01:42.99Z</time></trkpt><trkpt lat="44.3322311" lon="8.3654807"><ele>275.0</ele><time>2026-04-26T09:01:43.99Z</time></trkpt><trkpt lat="44.3322393" lon="8.3657026"><ele>275.0</ele><time>2026-04-26T09:01:44.99Z</time></trkpt><trkpt lat="44.3322309" lon="8.3659121"><ele>275.0</ele><time>2026-04-26T09:01:45.99Z</time></trkpt><trkpt lat="44.332209" lon="8.3661095"><ele>270.6</ele><time>2026-04-26T09:01:46.99Z</time></trkpt><trkpt lat="44.3321845" lon="8.3662863"><ele>266.2</ele><time>2026-04-26T09:01:47.99Z</time></trkpt><trkpt lat="44.3321622" lon="8.3664441"><ele>261.8</ele><time>2026-04-26T09:01:48.99Z</time></trkpt><trkpt lat="44.3321379" lon="8.3665797"><ele>257.4</ele><time>2026-04-26T09:01:49.99Z</time></trkpt><trkpt lat="44.3321178" lon="8.3666996"><ele>253.0</ele><time>2026-04-26T09:01:50.99Z</time></trkpt><trkpt lat="44.3321013" lon="8.3668132"><ele>252.16666666666666</ele><time>2026-04-26T09:01:51.99Z</time></trkpt><trkpt lat="44.3321185" lon="8.3669037"><ele>251.33333333333331</ele><time>2026-04-26T09:01:52.99Z</time></trkpt><trkpt lat="44.3321565" lon="8.3669891"><ele>250.5</ele><time>2026-04-26T09:01:53.99Z</time></trkpt><trkpt lat="44.3322191" lon="8.3670694"><ele>249.66666666666669</ele><time>2026-04-26T09:01:54.99Z</time></trkpt><trkpt lat="44.3322984" lon="8.367147"><ele>248.83333333333334</ele><time>2026-04-26T09:01:55.99Z</time></trkpt><trkpt lat="44.3323932" lon="8.3672243"><ele>248.0</ele><time>2026-04-26T09:01:56.99Z</time></trkpt><trkpt lat="44.332511" lon="8.3673113"><ele>252.0</ele><time>2026-04-26T09:01:57.99Z</time></trkpt><trkpt lat="44.3326332" lon="8.3673925"><ele>256.0</ele><time>2026-04-26T09:01:58.99Z</time></trkpt><trkpt lat="44.332739" lon="8.3674887"><ele>260.0</ele><time>2026-04-26T09:01:59.991Z</time></trkpt><trkpt lat="44.3328308" lon="8.3675907"><ele>264.0</ele><time>2026-04-26T09:02:00.99Z</time></trkpt><trkpt lat="44.3329082" lon="8.3677019"><ele>264.0</ele><time>2026-04-26T09:02:01.991Z</time></trkpt><trkpt lat="44.3329542" lon="8.3678375"><ele>264.0</ele><time>2026-04-26T09:02:02.99Z</time></trkpt><trkpt lat="44.332994" lon="8.3679723"><ele>264.0</ele><time>2026-04-26T09:02:03.99Z</time></trkpt><trkpt lat="44.3330327" lon="8.3681221"><ele>264.0</ele><time>2026-04-26T09:02:04.99Z</time></trkpt><trkpt lat="44.3330657" lon="8.3682646"><ele>264.0</ele><time>2026-04-26T09:02:05.99Z</time></trkpt><trkpt lat="44.3331078" lon="8.368383"><ele>266.4</ele><time>2026-04-26T09:02:06.99Z</time></trkpt><trkpt lat="44.3331567" lon="8.3684764"><ele>268.79999999999995</ele><time>2026-04-26T09:02:07.99Z</time></trkpt><trkpt lat="44.3332177" lon="8.3685424"><ele>271.20000000000005</ele><time>2026-04-26T09:02:08.99Z</time></trkpt><trkpt lat="44.3333074" lon="8.3685853"><ele>273.6</ele><time>2026-04-26T09:02:09.99Z</time></trkpt><trkpt lat="44.333402" lon="8.3686259"><ele>276.0</ele><time>2026-04-26T09:02:10.99Z</time></trkpt><trkpt lat="44.3334946" lon="8.3686955"><ele>276.0</ele><time>2026-04-26T09:02:11.99Z</time></trkpt><trkpt lat="44.3335688" lon="8.3687992"><ele>276.0</ele><time>2026-04-26T09:02:12.99Z</time></trkpt><trkpt lat="44.333639" lon="8.3689273"><ele>276.0</ele><time>2026-04-26T09:02:13.99Z</time></trkpt><trkpt lat="44.3337162" lon="8.3690675"><ele>276.0</ele><time>2026-04-26T09:02:14.99Z</time></trkpt><trkpt lat="44.3338137" lon="8.369203"><ele>279.5</ele><time>2026-04-26T09:02:15.99Z</time></trkpt><trkpt lat="44.3339329" lon="8.3693234"><ele>283.0</ele><time>2026-04-26T09:02:16.99Z</time></trkpt><trkpt lat="44.3340606" lon="8.3694346"><ele>286.5</ele><time>2026-04-26T09:02:17.99Z</time></trkpt><trkpt lat="44.3341672" lon="8.3695341"><ele>290.0</ele><time>2026-04-26T09:02:18.99Z</time></trkpt><trkpt lat="44.3342557" lon="8.3696023"><ele>290.0</ele><time>2026-04-26T09:02:19.99Z</time></trkpt><trkpt lat="44.3343282" lon="8.3696714"><ele>290.0</ele><time>2026-04-26T09:02:20.99Z</time></trkpt><trkpt lat="44.3343966" lon="8.3697372"><ele>290.0</ele><time>2026-04-26T09:02:21.991Z</time></trkpt><trkpt lat="44.3344415" lon="8.3698074"><ele>290.0</ele><time>2026-04-26T09:02:22.99Z</time></trkpt><trkpt lat="44.3344413" lon="8.369922"><ele>290.0</ele><time>2026-04-26T09:02:24.99Z</time></trkpt><trkpt lat="44.334292" lon="8.3699747"><ele>290.6666666666667</ele><time>2026-04-26T09:02:26.99Z</time></trkpt><trkpt lat="44.3340901" lon="8.3698946"><ele>291.3333333333333</ele><time>2026-04-26T09:02:27.99Z</time></trkpt><trkpt lat="44.3339508" lon="8.3698228"><ele>292.0</ele><time>2026-04-26T09:02:28.99Z</time></trkpt><trkpt lat="44.3338283" lon="8.3697623"><ele>292.0</ele><time>2026-04-26T09:02:29.99Z</time></trkpt><trkpt lat="44.3337273" lon="8.3697154"><ele>292.0</ele><time>2026-04-26T09:02:30.99Z</time></trkpt><trkpt lat="44.3336396" lon="8.3696918"><ele>292.0</ele><time>2026-04-26T09:02:31.99Z</time></trkpt><trkpt lat="44.3335503" lon="8.3696922"><ele>292.0</ele><time>2026-04-26T09:02:32.99Z</time></trkpt><trkpt lat="44.3334709" lon="8.3697183"><ele>292.0</ele><time>2026-04-26T09:02:33.991Z</time></trkpt><trkpt lat="44.3333972" lon="8.3697481"><ele>292.0</ele><time>2026-04-26T09:02:34.99Z</time></trkpt><trkpt lat="44.333334" lon="8.369769"><ele>292.0</ele><time>2026-04-26T09:02:35.99Z</time></trkpt><trkpt lat="44.3332704" lon="8.3697764"><ele>292.0</ele><time>2026-04-26T09:02:36.99Z</time></trkpt><trkpt lat="44.3332115" lon="8.3698162"><ele>292.0</ele><time>2026-04-26T09:02:37.99Z</time></trkpt><trkpt lat="44.3331594" lon="8.3698792"><ele>292.0</ele><time>2026-04-26T09:02:38.99Z</time></trkpt><trkpt lat="44.3331116" lon="8.3699744"><ele>292.0</ele><time>2026-04-26T09:02:39.99Z</time></trkpt><trkpt lat="44.3330726" lon="8.3701036"><ele>292.0</ele><time>2026-04-26T09:02:40.99Z</time></trkpt><trkpt lat="44.3330466" lon="8.3702552"><ele>292.2</ele><time>2026-04-26T09:02:41.99Z</time></trkpt><trkpt lat="44.3330339" lon="8.3704098"><ele>292.4</ele><time>2026-04-26T09:02:42.99Z</time></trkpt><trkpt lat="44.3330145" lon="8.3705406"><ele>292.6</ele><time>2026-04-26T09:02:43.99Z</time></trkpt><trkpt lat="44.332977" lon="8.3706488"><ele>292.8</ele><time>2026-04-26T09:02:44.99Z</time></trkpt><trkpt lat="44.33293" lon="8.3707187"><ele>293.0</ele><time>2026-04-26T09:02:45.99Z</time></trkpt><trkpt lat="44.3328051" lon="8.3707639"><ele>293.0</ele><time>2026-04-26T09:02:47.99Z</time></trkpt><trkpt lat="44.3327255" lon="8.3707507"><ele>293.0</ele><time>2026-04-26T09:02:48.99Z</time></trkpt><trkpt lat="44.3326337" lon="8.3707093"><ele>293.0</ele><time>2026-04-26T09:02:49.99Z</time></trkpt><trkpt lat="44.3325451" lon="8.3706348"><ele>293.0</ele><time>2026-04-26T09:02:50.99Z</time></trkpt><trkpt lat="44.3324754" lon="8.3705408"><ele>293.0</ele><time>2026-04-26T09:02:51.99Z</time></trkpt><trkpt lat="44.3324238" lon="8.3704365"><ele>293.0</ele><time>2026-04-26T09:02:52.99Z</time></trkpt><trkpt lat="44.33238" lon="8.3703487"><ele>293.0</ele><time>2026-04-26T09:02:53.99Z</time></trkpt><trkpt lat="44.3322835" lon="8.3702616"><ele>293.0</ele><time>2026-04-26T09:02:55.991Z</time></trkpt><trkpt lat="44.3321891" lon="8.370303"><ele>293.0</ele><time>2026-04-26T09:02:57.99Z</time></trkpt><trkpt lat="44.3321738" lon="8.3704743"><ele>293.0</ele><time>2026-04-26T09:02:59.99Z</time></trkpt><trkpt lat="44.3322179" lon="8.3705989"><ele>297.0</ele><time>2026-04-26T09:03:00.99Z</time></trkpt><trkpt lat="44.3322837" lon="8.3707269"><ele>301.0</ele><time>2026-04-26T09:03:01.99Z</time></trkpt><trkpt lat="44.3323798" lon="8.3708605"><ele>305.0</ele><time>2026-04-26T09:03:02.99Z</time></trkpt><trkpt lat="44.3325354" lon="8.3710009"><ele>309.0</ele><time>2026-04-26T09:03:03.99Z</time></trkpt><trkpt lat="44.3326952" lon="8.3711302"><ele>309.0</ele><time>2026-04-26T09:03:04.99Z</time></trkpt><trkpt lat="44.3328405" lon="8.3712389"><ele>309.0</ele><time>2026-04-26T09:03:05.99Z</time></trkpt><trkpt lat="44.3329837" lon="8.3713219"><ele>309.0</ele><time>2026-04-26T09:03:06.99Z</time></trkpt><trkpt lat="44.3331302" lon="8.3713714"><ele>312.2</ele><time>2026-04-26T09:03:07.99Z</time></trkpt><trkpt lat="44.3332721" lon="8.3713818"><ele>315.4</ele><time>2026-04-26T09:03:08.99Z</time></trkpt><trkpt lat="44.333383" lon="8.3713755"><ele>318.6</ele><time>2026-04-26T09:03:09.991Z</time></trkpt><trkpt lat="44.3334619" lon="8.3713822"><ele>321.8</ele><time>2026-04-26T09:03:10.99Z</time></trkpt><trkpt lat="44.333527" lon="8.3714094"><ele>325.0</ele><time>2026-04-26T09:03:11.99Z</time></trkpt><trkpt lat="44.3335812" lon="8.3714608"><ele>325.0</ele><time>2026-04-26T09:03:12.991Z</time></trkpt><trkpt lat="44.3336317" lon="8.3715406"><ele>325.0</ele><time>2026-04-26T09:03:13.99Z</time></trkpt><trkpt lat="44.3336655" lon="8.3716588"><ele>325.0</ele><time>2026-04-26T09:03:14.99Z</time></trkpt><trkpt lat="44.3336833" lon="8.3718195"><ele>325.0</ele><time>2026-04-26T09:03:15.99Z</time></trkpt><trkpt lat="44.333696" lon="8.3720195"><ele>325.0</ele><time>2026-04-26T09:03:16.991Z</time></trkpt><trkpt lat="44.3337354" lon="8.3722044"><ele>323.5</ele><time>2026-04-26T09:03:17.99Z</time></trkpt><trkpt lat="44.3338067" lon="8.372356"><ele>322.0</ele><time>2026-04-26T09:03:18.99Z</time></trkpt><trkpt lat="44.3338887" lon="8.3725029"><ele>320.5</ele><time>2026-04-26T09:03:19.99Z</time></trkpt><trkpt lat="44.3339737" lon="8.3726542"><ele>319.0</ele><time>2026-04-26T09:03:20.99Z</time></trkpt><trkpt lat="44.3340541" lon="8.3728193"><ele>322.5</ele><time>2026-04-26T09:03:21.99Z</time></trkpt><trkpt lat="44.3341251" lon="8.3729764"><ele>326.0</ele><time>2026-04-26T09:03:22.99Z</time></trkpt><trkpt lat="44.3341827" lon="8.3731376"><ele>329.5</ele><time>2026-04-26T09:03:23.99Z</time></trkpt><trkpt lat="44.3342305" lon="8.3732974"><ele>333.0</ele><time>2026-04-26T09:03:24.99Z</time></trkpt><trkpt lat="44.334265" lon="8.3734624"><ele>333.0</ele><time>2026-04-26T09:03:25.99Z</time></trkpt><trkpt lat="44.3343325" lon="8.3735887"><ele>333.0</ele><time>2026-04-26T09:03:26.99Z</time></trkpt><trkpt lat="44.334427" lon="8.3736845"><ele>333.0</ele><time>2026-04-26T09:03:27.991Z</time></trkpt><trkpt lat="44.3345309" lon="8.3737506"><ele>333.0</ele><time>2026-04-26T09:03:28.99Z</time></trkpt><trkpt lat="44.3346327" lon="8.3737745"><ele>333.0</ele><time>2026-04-26T09:03:29.99Z</time></trkpt><trkpt lat="44.3347262" lon="8.3737929"><ele>333.0</ele><time>2026-04-26T09:03:30.99Z</time></trkpt><trkpt lat="44.3348138" lon="8.3738214"><ele>333.0</ele><time>2026-04-26T09:03:31.99Z</time></trkpt><trkpt lat="44.3348947" lon="8.3738591"><ele>333.0</ele><time>2026-04-26T09:03:32.991Z</time></trkpt><trkpt lat="44.3349661" lon="8.3739038"><ele>333.0</ele><time>2026-04-26T09:03:33.99Z</time></trkpt><trkpt lat="44.3350235" lon="8.3739427"><ele>333.0</ele><time>2026-04-26T09:03:34.99Z</time></trkpt><trkpt lat="44.3351087" lon="8.3740177"><ele>333.0</ele><time>2026-04-26T09:03:36.99Z</time></trkpt><trkpt lat="44.3352285" lon="8.3740933"><ele>336.59999999999997</ele><time>2026-04-26T09:03:38.99Z</time></trkpt><trkpt lat="44.3353062" lon="8.3741409"><ele>340.2</ele><time>2026-04-26T09:03:39.991Z</time></trkpt><trkpt lat="44.3353964" lon="8.3741783"><ele>343.8</ele><time>2026-04-26T09:03:40.99Z</time></trkpt><trkpt lat="44.3354922" lon="8.3741922"><ele>347.4</ele><time>2026-04-26T09:03:41.99Z</time></trkpt><trkpt lat="44.3356031" lon="8.3741644"><ele>351.0</ele><time>2026-04-26T09:03:42.99Z</time></trkpt><trkpt lat="44.3357244" lon="8.3741036"><ele>349.0</ele><time>2026-04-26T09:03:43.99Z</time></trkpt><trkpt lat="44.335831" lon="8.3739811"><ele>347.0</ele><time>2026-04-26T09:03:44.99Z</time></trkpt><trkpt lat="44.3358995" lon="8.3737794"><ele>345.0</ele><time>2026-04-26T09:03:45.99Z</time></trkpt><trkpt lat="44.3359256" lon="8.3735195"><ele>345.0</ele><time>2026-04-26T09:03:46.99Z</time></trkpt><trkpt lat="44.3359357" lon="8.3732174"><ele>345.0</ele><time>2026-04-26T09:03:47.99Z</time></trkpt><trkpt lat="44.335948" lon="8.3728745"><ele>342.5</ele><time>2026-04-26T09:03:48.99Z</time></trkpt><trkpt lat="44.3359719" lon="8.3724976"><ele>340.0</ele><time>2026-04-26T09:03:49.99Z</time></trkpt><trkpt lat="44.336021" lon="8.3720708"><ele>338.0</ele><time>2026-04-26T09:03:50.99Z</time></trkpt><trkpt lat="44.3360999" lon="8.3716821"><ele>336.0</ele><time>2026-04-26T09:03:51.99Z</time></trkpt><trkpt lat="44.3361892" lon="8.3713286"><ele>338.0</ele><time>2026-04-26T09:03:52.99Z</time></trkpt><trkpt lat="44.3362938" lon="8.3710173"><ele>340.0</ele><time>2026-04-26T09:03:53.991Z</time></trkpt><trkpt lat="44.3364203" lon="8.3707322"><ele>342.0</ele><time>2026-04-26T09:03:54.991Z</time></trkpt><trkpt lat="44.3365409" lon="8.3704904"><ele>344.0</ele><time>2026-04-26T09:03:55.99Z</time></trkpt><trkpt lat="44.3366584" lon="8.3702815"><ele>346.0</ele><time>2026-04-26T09:03:56.99Z</time></trkpt><trkpt lat="44.3367534" lon="8.3700948"><ele>346.0</ele><time>2026-04-26T09:03:57.99Z</time></trkpt><trkpt lat="44.3368137" lon="8.3698947"><ele>346.0</ele><time>2026-04-26T09:03:58.99Z</time></trkpt><trkpt lat="44.3368409" lon="8.36967"><ele>346.0</ele><time>2026-04-26T09:03:59.99Z</time></trkpt><trkpt lat="44.3368192" lon="8.369418"><ele>347.66666666666663</ele><time>2026-04-26T09:04:00.99Z</time></trkpt><trkpt lat="44.3367345" lon="8.3691863"><ele>349.3333333333333</ele><time>2026-04-26T09:04:01.99Z</time></trkpt><trkpt lat="44.3366167" lon="8.3689799"><ele>351.0</ele><time>2026-04-26T09:04:02.99Z</time></trkpt><trkpt lat="44.3364893" lon="8.3688186"><ele>353.6666666666667</ele><time>2026-04-26T09:04:03.99Z</time></trkpt><trkpt lat="44.336357" lon="8.3687065"><ele>356.33333333333337</ele><time>2026-04-26T09:04:04.99Z</time></trkpt><trkpt lat="44.3362219" lon="8.3686228"><ele>359.0</ele><time>2026-04-26T09:04:05.99Z</time></trkpt><trkpt lat="44.3360873" lon="8.3685351"><ele>359.0</ele><time>2026-04-26T09:04:06.99Z</time></trkpt><trkpt lat="44.3359546" lon="8.3684407"><ele>359.0</ele><time>2026-04-26T09:04:07.99Z</time></trkpt><trkpt lat="44.3358161" lon="8.3683438"><ele>359.0</ele><time>2026-04-26T09:04:08.99Z</time></trkpt><trkpt lat="44.3356932" lon="8.3682469"><ele>359.0</ele><time>2026-04-26T09:04:09.99Z</time></trkpt><trkpt lat="44.3355957" lon="8.3681368"><ele>355.75</ele><time>2026-04-26T09:04:10.991Z</time></trkpt><trkpt lat="44.3355167" lon="8.3679954"><ele>352.5</ele><time>2026-04-26T09:04:11.99Z</time></trkpt><trkpt lat="44.3354515" lon="8.3678344"><ele>349.25</ele><time>2026-04-26T09:04:12.99Z</time></trkpt><trkpt lat="44.3353984" lon="8.3676583"><ele>346.0</ele><time>2026-04-26T09:04:13.99Z</time></trkpt><trkpt lat="44.3353632" lon="8.3674821"><ele>346.0</ele><time>2026-04-26T09:04:14.99Z</time></trkpt><trkpt lat="44.3353493" lon="8.3673001"><ele>346.0</ele><time>2026-04-26T09:04:15.99Z</time></trkpt><trkpt lat="44.335342" lon="8.3671204"><ele>346.0</ele><time>2026-04-26T09:04:16.99Z</time></trkpt><trkpt lat="44.3353432" lon="8.3669445"><ele>346.0</ele><time>2026-04-26T09:04:17.99Z</time></trkpt><trkpt lat="44.335349" lon="8.3667738"><ele>347.25</ele><time>2026-04-26T09:04:18.99Z</time></trkpt><trkpt lat="44.3353526" lon="8.3666044"><ele>348.5</ele><time>2026-04-26T09:04:19.99Z</time></trkpt><trkpt lat="44.3353592" lon="8.3664346"><ele>349.75</ele><time>2026-04-26T09:04:20.99Z</time></trkpt><trkpt lat="44.3353559" lon="8.3662553"><ele>351.0</ele><time>2026-04-26T09:04:21.99Z</time></trkpt><trkpt lat="44.3353397" lon="8.3660882"><ele>355.25</ele><time>2026-04-26T09:04:22.99Z</time></trkpt><trkpt lat="44.3353047" lon="8.3659309"><ele>359.5</ele><time>2026-04-26T09:04:23.99Z</time></trkpt><trkpt lat="44.3352366" lon="8.3657864"><ele>363.75</ele><time>2026-04-26T09:04:24.99Z</time></trkpt><trkpt lat="44.3351514" lon="8.3656537"><ele>368.0</ele><time>2026-04-26T09:04:25.99Z</time></trkpt><trkpt lat="44.335086" lon="8.3655062"><ele>368.75</ele><time>2026-04-26T09:04:26.99Z</time></trkpt><trkpt lat="44.3350385" lon="8.3653562"><ele>369.5</ele><time>2026-04-26T09:04:27.99Z</time></trkpt><trkpt lat="44.335015" lon="8.3651917"><ele>370.25</ele><time>2026-04-26T09:04:28.991Z</time></trkpt><trkpt lat="44.3350149" lon="8.3650176"><ele>371.0</ele><time>2026-04-26T09:04:29.99Z</time></trkpt><trkpt lat="44.3350336" lon="8.3648451"><ele>369.75</ele><time>2026-04-26T09:04:30.99Z</time></trkpt><trkpt lat="44.3350698" lon="8.3646821"><ele>368.5</ele><time>2026-04-26T09:04:31.99Z</time></trkpt><trkpt lat="44.335113" lon="8.3645249"><ele>367.25</ele><time>2026-04-26T09:04:32.99Z</time></trkpt><trkpt lat="44.3351683" lon="8.3643628"><ele>366.0</ele><time>2026-04-26T09:04:33.99Z</time></trkpt><trkpt lat="44.3352362" lon="8.3641986"><ele>366.0</ele><time>2026-04-26T09:04:34.99Z</time></trkpt><trkpt lat="44.3352954" lon="8.3640213"><ele>366.0</ele><time>2026-04-26T09:04:35.99Z</time></trkpt><trkpt lat="44.3353388" lon="8.3638395"><ele>366.0</ele><time>2026-04-26T09:04:36.99Z</time></trkpt><trkpt lat="44.3353483" lon="8.3636508"><ele>366.0</ele><time>2026-04-26T09:04:37.99Z</time></trkpt><trkpt lat="44.3353268" lon="8.3634514"><ele>368.0</ele><time>2026-04-26T09:04:38.99Z</time></trkpt><trkpt lat="44.3352738" lon="8.3632484"><ele>370.0</ele><time>2026-04-26T09:04:39.99Z</time></trkpt><trkpt lat="44.3352093" lon="8.3630418"><ele>372.0</ele><time>2026-04-26T09:04:40.99Z</time></trkpt><trkpt lat="44.3351373" lon="8.36283"><ele>375.6666666666667</ele><time>2026-04-26T09:04:41.99Z</time></trkpt><trkpt lat="44.335065" lon="8.362603"><ele>379.33333333333337</ele><time>2026-04-26T09:04:42.99Z</time></trkpt><trkpt lat="44.3349948" lon="8.3623384"><ele>383.0</ele><time>2026-04-26T09:04:43.99Z</time></trkpt><trkpt lat="44.3349199" lon="8.3620439"><ele>389.0</ele><time>2026-04-26T09:04:44.99Z</time></trkpt><trkpt lat="44.3348525" lon="8.3617501"><ele>395.0</ele><time>2026-04-26T09:04:45.99Z</time></trkpt><trkpt lat="44.3347947" lon="8.3614816"><ele>401.0</ele><time>2026-04-26T09:04:46.99Z</time></trkpt><trkpt lat="44.3347474" lon="8.361255"><ele>395.3333333333333</ele><time>2026-04-26T09:04:47.99Z</time></trkpt><trkpt lat="44.334701" lon="8.3610394"><ele>389.66666666666663</ele><time>2026-04-26T09:04:48.99Z</time></trkpt><trkpt lat="44.3346653" lon="8.3608205"><ele>384.0</ele><time>2026-04-26T09:04:49.991Z</time></trkpt><trkpt lat="44.3346426" lon="8.3605981"><ele>379.6666666666667</ele><time>2026-04-26T09:04:50.99Z</time></trkpt><trkpt lat="44.3346428" lon="8.3603681"><ele>375.33333333333337</ele><time>2026-04-26T09:04:51.99Z</time></trkpt><trkpt lat="44.3346605" lon="8.3601404"><ele>371.0</ele><time>2026-04-26T09:04:52.99Z</time></trkpt><trkpt lat="44.3347078" lon="8.3599185"><ele>381.33333333333337</ele><time>2026-04-26T09:04:53.99Z</time></trkpt><trkpt lat="44.3347637" lon="8.3596982"><ele>391.6666666666667</ele><time>2026-04-26T09:04:54.989Z</time></trkpt><trkpt lat="44.3348157" lon="8.3594868"><ele>402.0</ele><time>2026-04-26T09:04:55.989Z</time></trkpt><trkpt lat="44.3348663" lon="8.3592839"><ele>402.0</ele><time>2026-04-26T09:04:56.989Z</time></trkpt><trkpt lat="44.3349155" lon="8.3590928"><ele>402.0</ele><time>2026-04-26T09:04:57.989Z</time></trkpt><trkpt lat="44.3349538" lon="8.3589192"><ele>402.0</ele><time>2026-04-26T09:04:58.989Z</time></trkpt><trkpt lat="44.3349862" lon="8.3587685"><ele>402.0</ele><time>2026-04-26T09:04:59.99Z</time></trkpt><trkpt lat="44.3350092" lon="8.3586406"><ele>402.1666666666667</ele><time>2026-04-26T09:05:00.989Z</time></trkpt><trkpt lat="44.3350279" lon="8.3585264"><ele>402.33333333333337</ele><time>2026-04-26T09:05:01.989Z</time></trkpt><trkpt lat="44.3350505" lon="8.3584105"><ele>402.5</ele><time>2026-04-26T09:05:02.989Z</time></trkpt><trkpt lat="44.3350839" lon="8.358294"><ele>402.6666666666667</ele><time>2026-04-26T09:05:03.989Z</time></trkpt><trkpt lat="44.3351217" lon="8.3581746"><ele>402.83333333333337</ele><time>2026-04-26T09:05:04.989Z</time></trkpt><trkpt lat="44.33515" lon="8.3580524"><ele>403.0</ele><time>2026-04-26T09:05:05.989Z</time></trkpt><trkpt lat="44.3351515" lon="8.3579281"><ele>403.0</ele><time>2026-04-26T09:05:06.989Z</time></trkpt><trkpt lat="44.3351274" lon="8.3578092"><ele>403.0</ele><time>2026-04-26T09:05:07.989Z</time></trkpt><trkpt lat="44.3350589" lon="8.3577004"><ele>403.0</ele><time>2026-04-26T09:05:08.989Z</time></trkpt><trkpt lat="44.3349795" lon="8.3575746"><ele>403.0</ele><time>2026-04-26T09:05:09.989Z</time></trkpt><trkpt lat="44.3349042" lon="8.3574241"><ele>403.0</ele><time>2026-04-26T09:05:10.99Z</time></trkpt><trkpt lat="44.3348441" lon="8.3572496"><ele>406.33333333333337</ele><time>2026-04-26T09:05:11.989Z</time></trkpt><trkpt lat="44.3347875" lon="8.3570477"><ele>409.66666666666663</ele><time>2026-04-26T09:05:12.989Z</time></trkpt><trkpt lat="44.3347345" lon="8.3568317"><ele>413.0</ele><time>2026-04-26T09:05:13.989Z</time></trkpt><trkpt lat="44.3346774" lon="8.3566068"><ele>408.66666666666663</ele><time>2026-04-26T09:05:14.99Z</time></trkpt><trkpt lat="44.3346162" lon="8.3563644"><ele>404.33333333333337</ele><time>2026-04-26T09:05:15.989Z</time></trkpt><trkpt lat="44.3345598" lon="8.356094"><ele>400.0</ele><time>2026-04-26T09:05:16.989Z</time></trkpt><trkpt lat="44.3345037" lon="8.3558181"><ele>400.0</ele><time>2026-04-26T09:05:17.989Z</time></trkpt><trkpt lat="44.3344506" lon="8.3555515"><ele>400.0</ele><time>2026-04-26T09:05:18.99Z</time></trkpt><trkpt lat="44.3343957" lon="8.3553066"><ele>400.0</ele><time>2026-04-26T09:05:19.989Z</time></trkpt><trkpt lat="44.3343426" lon="8.3550743"><ele>404.6666666666667</ele><time>2026-04-26T09:05:20.989Z</time></trkpt><trkpt lat="44.3342886" lon="8.354851"><ele>409.33333333333337</ele><time>2026-04-26T09:05:21.989Z</time></trkpt><trkpt lat="44.3342179" lon="8.3546493"><ele>414.0</ele><time>2026-04-26T09:05:22.989Z</time></trkpt><trkpt lat="44.3341106" lon="8.3544786"><ele>415.5</ele><time>2026-04-26T09:05:23.989Z</time></trkpt><trkpt lat="44.3339912" lon="8.3543356"><ele>417.0</ele><time>2026-04-26T09:05:24.989Z</time></trkpt><trkpt lat="44.3338694" lon="8.3542249"><ele>418.5</ele><time>2026-04-26T09:05:25.99Z</time></trkpt><trkpt lat="44.333741" lon="8.3541349"><ele>420.0</ele><time>2026-04-26T09:05:26.989Z</time></trkpt><trkpt lat="44.3336257" lon="8.3540544"><ele>420.0</ele><time>2026-04-26T09:05:27.989Z</time></trkpt><trkpt lat="44.333519" lon="8.3539711"><ele>420.0</ele><time>2026-04-26T09:05:28.989Z</time></trkpt><trkpt lat="44.3334293" lon="8.3538914"><ele>420.0</ele><time>2026-04-26T09:05:29.989Z</time></trkpt><trkpt lat="44.3333436" lon="8.3538429"><ele>420.0</ele><time>2026-04-26T09:05:30.989Z</time></trkpt><trkpt lat="44.3332653" lon="8.3537995"><ele>420.0</ele><time>2026-04-26T09:05:31.99Z</time></trkpt><trkpt lat="44.3332" lon="8.3537617"><ele>423.8</ele><time>2026-04-26T09:05:32.989Z</time></trkpt><trkpt lat="44.3331062" lon="8.3537127"><ele>427.6</ele><time>2026-04-26T09:05:34.989Z</time></trkpt><trkpt lat="44.3330035" lon="8.3536886"><ele>431.4</ele><time>2026-04-26T09:05:41.989Z</time></trkpt><trkpt lat="44.3328823" lon="8.3536052"><ele>435.2</ele><time>2026-04-26T09:05:43.989Z</time></trkpt><trkpt lat="44.3328134" lon="8.3535455"><ele>439.0</ele><time>2026-04-26T09:05:44.989Z</time></trkpt><trkpt lat="44.33275" lon="8.3534824"><ele>441.00000000000006</ele><time>2026-04-26T09:05:45.989Z</time></trkpt><trkpt lat="44.3327024" lon="8.3533967"><ele>443.0</ele><time>2026-04-26T09:05:46.989Z</time></trkpt><trkpt lat="44.3326586" lon="8.3533134"><ele>445.0</ele><time>2026-04-26T09:05:47.989Z</time></trkpt><trkpt lat="44.3326237" lon="8.3532229"><ele>447.0</ele><time>2026-04-26T09:05:48.989Z</time></trkpt><trkpt lat="44.3325908" lon="8.353143"><ele>449.00000000000006</ele><time>2026-04-26T09:05:49.989Z</time></trkpt><trkpt lat="44.3325284" lon="8.353007"><ele>451.0</ele><time>2026-04-26T09:05:51.989Z</time></trkpt><trkpt lat="44.332464" lon="8.35288"><ele>454.4</ele><time>2026-04-26T09:05:53.989Z</time></trkpt><trkpt lat="44.3323948" lon="8.3527522"><ele>457.8</ele><time>2026-04-26T09:05:55.989Z</time></trkpt><trkpt lat="44.3323229" lon="8.3526238"><ele>461.19999999999993</ele><time>2026-04-26T09:05:57.989Z</time></trkpt><trkpt lat="44.3322547" lon="8.3524954"><ele>464.59999999999997</ele><time>2026-04-26T09:05:59.989Z</time></trkpt><trkpt lat="44.3322248" lon="8.3523673"><ele>468.0</ele><time>2026-04-26T09:06:01.989Z</time></trkpt><trkpt lat="44.3322253" lon="8.3521616"><ele>467.4</ele><time>2026-04-26T09:06:03.989Z</time></trkpt><trkpt lat="44.3322065" lon="8.3520571"><ele>466.79999999999995</ele><time>2026-04-26T09:06:04.989Z</time></trkpt><trkpt lat="44.3321698" lon="8.3519663"><ele>466.2</ele><time>2026-04-26T09:06:05.989Z</time></trkpt><trkpt lat="44.3321173" lon="8.3518719"><ele>465.6</ele><time>2026-04-26T09:06:06.989Z</time></trkpt><trkpt lat="44.3320442" lon="8.3517009"><ele>465.0</ele><time>2026-04-26T09:06:07.989Z</time></trkpt><trkpt lat="44.3321276" lon="8.3510512"><ele>465.0</ele><time>2026-04-26T09:06:08.989Z</time></trkpt><trkpt lat="44.3321457" lon="8.3505547"><ele>465.0</ele><time>2026-04-26T09:06:09.989Z</time></trkpt><trkpt lat="44.3321176" lon="8.3502646"><ele>460.25</ele><time>2026-04-26T09:06:10.989Z</time></trkpt><trkpt lat="44.3320542" lon="8.3500734"><ele>455.5</ele><time>2026-04-26T09:06:11.989Z</time></trkpt><trkpt lat="44.3319983" lon="8.34992"><ele>450.75</ele><time>2026-04-26T09:06:12.989Z</time></trkpt><trkpt lat="44.3319389" lon="8.3497958"><ele>446.0</ele><time>2026-04-26T09:06:13.989Z</time></trkpt><trkpt lat="44.3318656" lon="8.3496222"><ele>443.5</ele><time>2026-04-26T09:06:14.989Z</time></trkpt><trkpt lat="44.3317893" lon="8.3494447"><ele>441.0</ele><time>2026-04-26T09:06:15.989Z</time></trkpt><trkpt lat="44.3317195" lon="8.3492944"><ele>438.5</ele><time>2026-04-26T09:06:16.989Z</time></trkpt><trkpt lat="44.3316641" lon="8.3491393"><ele>436.0</ele><time>2026-04-26T09:06:17.989Z</time></trkpt><trkpt lat="44.3316342" lon="8.3489596"><ele>435.75</ele><time>2026-04-26T09:06:18.989Z</time></trkpt><trkpt lat="44.3316382" lon="8.3487509"><ele>435.5</ele><time>2026-04-26T09:06:19.99Z</time></trkpt><trkpt lat="44.3316677" lon="8.348548"><ele>435.25</ele><time>2026-04-26T09:06:20.989Z</time></trkpt><trkpt lat="44.3317277" lon="8.3483529"><ele>435.0</ele><time>2026-04-26T09:06:21.989Z</time></trkpt><trkpt lat="44.3318194" lon="8.3481608"><ele>438.0</ele><time>2026-04-26T09:06:22.989Z</time></trkpt><trkpt lat="44.331927" lon="8.3479712"><ele>441.0</ele><time>2026-04-26T09:06:23.989Z</time></trkpt><trkpt lat="44.332046" lon="8.3477926"><ele>444.0</ele><time>2026-04-26T09:06:24.989Z</time></trkpt><trkpt lat="44.3321712" lon="8.3476163"><ele>438.33333333333337</ele><time>2026-04-26T09:06:25.989Z</time></trkpt><trkpt lat="44.3323017" lon="8.3474444"><ele>432.6666666666667</ele><time>2026-04-26T09:06:26.989Z</time></trkpt><trkpt lat="44.3324225" lon="8.3472837"><ele>427.0</ele><time>2026-04-26T09:06:27.99Z</time></trkpt><trkpt lat="44.332545" lon="8.3471076"><ele>427.0</ele><time>2026-04-26T09:06:28.989Z</time></trkpt><trkpt lat="44.3326553" lon="8.3469332"><ele>427.0</ele><time>2026-04-26T09:06:29.989Z</time></trkpt><trkpt lat="44.3327677" lon="8.3467421"><ele>427.0</ele><time>2026-04-26T09:06:30.989Z</time></trkpt><trkpt lat="44.33288" lon="8.346551"><ele>424.6666666666667</ele><time>2026-04-26T09:06:31.989Z</time></trkpt><trkpt lat="44.3330018" lon="8.3463606"><ele>422.33333333333337</ele><time>2026-04-26T09:06:32.989Z</time></trkpt><trkpt lat="44.3331356" lon="8.3461673"><ele>420.0</ele><time>2026-04-26T09:06:33.989Z</time></trkpt><trkpt lat="44.3332533" lon="8.3459917"><ele>420.0</ele><time>2026-04-26T09:06:34.989Z</time></trkpt><trkpt lat="44.333372" lon="8.3458225"><ele>420.0</ele><time>2026-04-26T09:06:35.989Z</time></trkpt><trkpt lat="44.3334873" lon="8.3456598"><ele>420.0</ele><time>2026-04-26T09:06:36.989Z</time></trkpt><trkpt lat="44.3335891" lon="8.3454891"><ele>420.33333333333337</ele><time>2026-04-26T09:06:37.99Z</time></trkpt><trkpt lat="44.3337017" lon="8.3453167"><ele>420.6666666666667</ele><time>2026-04-26T09:06:38.989Z</time></trkpt><trkpt lat="44.3338227" lon="8.3451411"><ele>421.0</ele><time>2026-04-26T09:06:39.989Z</time></trkpt><trkpt lat="44.3339335" lon="8.3449731"><ele>421.0</ele><time>2026-04-26T09:06:40.989Z</time></trkpt><trkpt lat="44.3340429" lon="8.3448153"><ele>421.0</ele><time>2026-04-26T09:06:41.989Z</time></trkpt><trkpt lat="44.334139" lon="8.3446665"><ele>421.0</ele><time>2026-04-26T09:06:42.989Z</time></trkpt><trkpt lat="44.3342362" lon="8.3445147"><ele>421.0</ele><time>2026-04-26T09:06:43.989Z</time></trkpt><trkpt lat="44.3343264" lon="8.3443561"><ele>420.5</ele><time>2026-04-26T09:06:44.989Z</time></trkpt><trkpt lat="44.3344209" lon="8.3441959"><ele>420.0</ele><time>2026-04-26T09:06:45.989Z</time></trkpt><trkpt lat="44.3345145" lon="8.3440412"><ele>419.5</ele><time>2026-04-26T09:06:46.99Z</time></trkpt><trkpt lat="44.334616" lon="8.3438973"><ele>419.0</ele><time>2026-04-26T09:06:47.989Z</time></trkpt><trkpt lat="44.3347084" lon="8.3437442"><ele>417.3333333333333</ele><time>2026-04-26T09:06:48.989Z</time></trkpt><trkpt lat="44.3348031" lon="8.3435867"><ele>415.66666666666663</ele><time>2026-04-26T09:06:49.989Z</time></trkpt><trkpt lat="44.3349051" lon="8.3434245"><ele>414.0</ele><time>2026-04-26T09:06:50.99Z</time></trkpt><trkpt lat="44.3350014" lon="8.3432607"><ele>414.0</ele><time>2026-04-26T09:06:51.989Z</time></trkpt><trkpt lat="44.3350817" lon="8.3430924"><ele>414.0</ele><time>2026-04-26T09:06:52.989Z</time></trkpt><trkpt lat="44.3351569" lon="8.3429161"><ele>414.0</ele><time>2026-04-26T09:06:53.99Z</time></trkpt><trkpt lat="44.3352241" lon="8.3427241"><ele>414.0</ele><time>2026-04-26T09:06:54.989Z</time></trkpt><trkpt lat="44.3352703" lon="8.3425119"><ele>414.5</ele><time>2026-04-26T09:06:55.989Z</time></trkpt><trkpt lat="44.3353186" lon="8.3423136"><ele>415.0</ele><time>2026-04-26T09:06:56.989Z</time></trkpt><trkpt lat="44.3353748" lon="8.342122"><ele>415.5</ele><time>2026-04-26T09:06:57.989Z</time></trkpt><trkpt lat="44.335419" lon="8.3419263"><ele>416.0</ele><time>2026-04-26T09:06:58.989Z</time></trkpt><trkpt lat="44.33547" lon="8.3417275"><ele>417.0</ele><time>2026-04-26T09:06:59.989Z</time></trkpt><trkpt lat="44.3355187" lon="8.3415244"><ele>418.0</ele><time>2026-04-26T09:07:00.989Z</time></trkpt><trkpt lat="44.3355676" lon="8.3413143"><ele>419.0</ele><time>2026-04-26T09:07:01.989Z</time></trkpt><trkpt lat="44.3356117" lon="8.3411271"><ele>416.75</ele><time>2026-04-26T09:07:02.989Z</time></trkpt><trkpt lat="44.3356715" lon="8.3409271"><ele>414.5</ele><time>2026-04-26T09:07:03.989Z</time></trkpt><trkpt lat="44.3357164" lon="8.3407374"><ele>412.25</ele><time>2026-04-26T09:07:04.989Z</time></trkpt><trkpt lat="44.3357535" lon="8.3405599"><ele>410.0</ele><time>2026-04-26T09:07:05.989Z</time></trkpt><trkpt lat="44.3357903" lon="8.3403777"><ele>410.0</ele><time>2026-04-26T09:07:06.989Z</time></trkpt><trkpt lat="44.3358193" lon="8.3401889"><ele>410.0</ele><time>2026-04-26T09:07:07.989Z</time></trkpt><trkpt lat="44.3358428" lon="8.3400085"><ele>410.0</ele><time>2026-04-26T09:07:08.989Z</time></trkpt><trkpt lat="44.3358337" lon="8.3398177"><ele>410.0</ele><time>2026-04-26T09:07:09.989Z</time></trkpt><trkpt lat="44.335821" lon="8.339634"><ele>409.25</ele><time>2026-04-26T09:07:10.989Z</time></trkpt><trkpt lat="44.3358183" lon="8.3394578"><ele>408.5</ele><time>2026-04-26T09:07:11.989Z</time></trkpt><trkpt lat="44.3358303" lon="8.3392938"><ele>407.75</ele><time>2026-04-26T09:07:12.989Z</time></trkpt><trkpt lat="44.3358364" lon="8.3391211"><ele>407.0</ele><time>2026-04-26T09:07:13.989Z</time></trkpt><trkpt lat="44.3358382" lon="8.3389459"><ele>406.6</ele><time>2026-04-26T09:07:14.989Z</time></trkpt><trkpt lat="44.335849" lon="8.338756"><ele>406.20000000000005</ele><time>2026-04-26T09:07:15.989Z</time></trkpt><trkpt lat="44.3358525" lon="8.3386021"><ele>405.8</ele><time>2026-04-26T09:07:16.989Z</time></trkpt><trkpt lat="44.3358605" lon="8.3384767"><ele>405.4</ele><time>2026-04-26T09:07:17.989Z</time></trkpt><trkpt lat="44.3358589" lon="8.3383465"><ele>405.0</ele><time>2026-04-26T09:07:18.989Z</time></trkpt><trkpt lat="44.3358473" lon="8.3382047"><ele>405.0</ele><time>2026-04-26T09:07:20.989Z</time></trkpt><trkpt lat="44.3357364" lon="8.3382141"><ele>405.0</ele><time>2026-04-26T09:07:22.989Z</time></trkpt><trkpt lat="44.3356368" lon="8.3382708"><ele>405.0</ele><time>2026-04-26T09:07:23.989Z</time></trkpt><trkpt lat="44.3355059" lon="8.3383321"><ele>405.0</ele><time>2026-04-26T09:07:24.989Z</time></trkpt><trkpt lat="44.3354079" lon="8.3383716"><ele>406.3333333333333</ele><time>2026-04-26T09:07:25.989Z</time></trkpt><trkpt lat="44.3353337" lon="8.3383738"><ele>407.66666666666663</ele><time>2026-04-26T09:07:26.989Z</time></trkpt><trkpt lat="44.3352583" lon="8.3383387"><ele>409.0</ele><time>2026-04-26T09:07:27.989Z</time></trkpt><trkpt lat="44.335189" lon="8.3382791"><ele>410.3333333333333</ele><time>2026-04-26T09:07:28.989Z</time></trkpt><trkpt lat="44.3351346" lon="8.3381933"><ele>411.66666666666663</ele><time>2026-04-26T09:07:29.989Z</time></trkpt><trkpt lat="44.335111" lon="8.3380899"><ele>413.0</ele><time>2026-04-26T09:07:30.989Z</time></trkpt><trkpt lat="44.3351101" lon="8.3379711"><ele>413.0</ele><time>2026-04-26T09:07:31.989Z</time></trkpt><trkpt lat="44.335126" lon="8.3378436"><ele>413.0</ele><time>2026-04-26T09:07:32.989Z</time></trkpt><trkpt lat="44.3351441" lon="8.3377136"><ele>413.0</ele><time>2026-04-26T09:07:33.99Z</time></trkpt><trkpt lat="44.335158" lon="8.337587"><ele>413.0</ele><time>2026-04-26T09:07:34.99Z</time></trkpt><trkpt lat="44.3351681" lon="8.3374503"><ele>413.0</ele><time>2026-04-26T09:07:35.989Z</time></trkpt><trkpt lat="44.3351759" lon="8.3373082"><ele>411.0</ele><time>2026-04-26T09:07:36.989Z</time></trkpt><trkpt lat="44.3351788" lon="8.3371693"><ele>409.0</ele><time>2026-04-26T09:07:37.989Z</time></trkpt><trkpt lat="44.335163" lon="8.3370344"><ele>407.0</ele><time>2026-04-26T09:07:38.989Z</time></trkpt><trkpt lat="44.3351306" lon="8.3368976"><ele>405.0</ele><time>2026-04-26T09:07:39.989Z</time></trkpt><trkpt lat="44.3350996" lon="8.3367612"><ele>403.0</ele><time>2026-04-26T09:07:40.99Z</time></trkpt><trkpt lat="44.3350643" lon="8.3366236"><ele>403.0</ele><time>2026-04-26T09:07:41.989Z</time></trkpt><trkpt lat="44.3350329" lon="8.3364867"><ele>403.0</ele><time>2026-04-26T09:07:42.989Z</time></trkpt><trkpt lat="44.3350141" lon="8.3363586"><ele>403.0</ele><time>2026-04-26T09:07:43.989Z</time></trkpt><trkpt lat="44.3350185" lon="8.3362296"><ele>403.0</ele><time>2026-04-26T09:07:44.989Z</time></trkpt><trkpt lat="44.3350365" lon="8.3361017"><ele>403.0</ele><time>2026-04-26T09:07:45.989Z</time></trkpt><trkpt lat="44.3350683" lon="8.3359767"><ele>403.1666666666667</ele><time>2026-04-26T09:07:46.989Z</time></trkpt><trkpt lat="44.3350941" lon="8.3358535"><ele>403.33333333333337</ele><time>2026-04-26T09:07:47.99Z</time></trkpt><trkpt lat="44.3351135" lon="8.3357336"><ele>403.5</ele><time>2026-04-26T09:07:48.989Z</time></trkpt><trkpt lat="44.3351322" lon="8.3356245"><ele>403.66666666666663</ele><time>2026-04-26T09:07:49.989Z</time></trkpt><trkpt lat="44.3351517" lon="8.3355219"><ele>403.8333333333333</ele><time>2026-04-26T09:07:50.989Z</time></trkpt><trkpt lat="44.3351626" lon="8.3354262"><ele>404.0</ele><time>2026-04-26T09:07:51.989Z</time></trkpt><trkpt lat="44.3351748" lon="8.3353315"><ele>404.79999999999995</ele><time>2026-04-26T09:07:52.989Z</time></trkpt><trkpt lat="44.335202" lon="8.3351685"><ele>405.59999999999997</ele><time>2026-04-26T09:07:54.989Z</time></trkpt><trkpt lat="44.3352319" lon="8.3349923"><ele>406.4</ele><time>2026-04-26T09:07:56.989Z</time></trkpt><trkpt lat="44.3352488" lon="8.3348783"><ele>407.2</ele><time>2026-04-26T09:07:57.989Z</time></trkpt><trkpt lat="44.3352722" lon="8.3347466"><ele>408.0</ele><time>2026-04-26T09:07:58.989Z</time></trkpt><trkpt lat="44.3353011" lon="8.3345937"><ele>408.5</ele><time>2026-04-26T09:07:59.989Z</time></trkpt><trkpt lat="44.3353287" lon="8.3344074"><ele>409.0</ele><time>2026-04-26T09:08:00.989Z</time></trkpt><trkpt lat="44.3353598" lon="8.3342102"><ele>409.5</ele><time>2026-04-26T09:08:01.989Z</time></trkpt><trkpt lat="44.3354037" lon="8.3339939"><ele>410.0</ele><time>2026-04-26T09:08:02.989Z</time></trkpt><trkpt lat="44.3354487" lon="8.3337713"><ele>410.66666666666663</ele><time>2026-04-26T09:08:03.99Z</time></trkpt><trkpt lat="44.3355021" lon="8.3335377"><ele>411.33333333333337</ele><time>2026-04-26T09:08:04.989Z</time></trkpt><trkpt lat="44.3355462" lon="8.3333049"><ele>412.0</ele><time>2026-04-26T09:08:05.99Z</time></trkpt><trkpt lat="44.3355895" lon="8.3330783"><ele>408.0</ele><time>2026-04-26T09:08:06.99Z</time></trkpt><trkpt lat="44.3356301" lon="8.3328617"><ele>404.0</ele><time>2026-04-26T09:08:07.989Z</time></trkpt><trkpt lat="44.3356636" lon="8.3326678"><ele>400.0</ele><time>2026-04-26T09:08:08.989Z</time></trkpt><trkpt lat="44.3356847" lon="8.3325051"><ele>396.0</ele><time>2026-04-26T09:08:09.989Z</time></trkpt><trkpt lat="44.3356839" lon="8.3323677"><ele>396.0</ele><time>2026-04-26T09:08:10.989Z</time></trkpt><trkpt lat="44.3356524" lon="8.3322574"><ele>396.0</ele><time>2026-04-26T09:08:11.989Z</time></trkpt><trkpt lat="44.3355853" lon="8.3321684"><ele>396.0</ele><time>2026-04-26T09:08:12.989Z</time></trkpt><trkpt lat="44.335493" lon="8.3321018"><ele>396.0</ele><time>2026-04-26T09:08:13.989Z</time></trkpt><trkpt lat="44.3353761" lon="8.3320598"><ele>396.0</ele><time>2026-04-26T09:08:14.989Z</time></trkpt><trkpt lat="44.3352518" lon="8.3320453"><ele>399.66666666666663</ele><time>2026-04-26T09:08:15.989Z</time></trkpt><trkpt lat="44.3351203" lon="8.3320507"><ele>403.3333333333333</ele><time>2026-04-26T09:08:16.989Z</time></trkpt><trkpt lat="44.3349603" lon="8.3320779"><ele>407.0</ele><time>2026-04-26T09:08:17.989Z</time></trkpt><trkpt lat="44.3347751" lon="8.3321425"><ele>411.0</ele><time>2026-04-26T09:08:18.989Z</time></trkpt><trkpt lat="44.3345676" lon="8.3322149"><ele>415.0</ele><time>2026-04-26T09:08:19.989Z</time></trkpt><trkpt lat="44.3343495" lon="8.3323058"><ele>419.0</ele><time>2026-04-26T09:08:20.989Z</time></trkpt><trkpt lat="44.3341525" lon="8.3323877"><ele>419.0</ele><time>2026-04-26T09:08:21.99Z</time></trkpt><trkpt lat="44.3339686" lon="8.3324642"><ele>419.0</ele><time>2026-04-26T09:08:22.989Z</time></trkpt><trkpt lat="44.3337966" lon="8.3325571"><ele>419.0</ele><time>2026-04-26T09:08:23.99Z</time></trkpt><trkpt lat="44.3336287" lon="8.3326527"><ele>424.66666666666663</ele><time>2026-04-26T09:08:24.989Z</time></trkpt><trkpt lat="44.3334736" lon="8.3327472"><ele>430.33333333333337</ele><time>2026-04-26T09:08:25.989Z</time></trkpt><trkpt lat="44.3333235" lon="8.3328367"><ele>436.0</ele><time>2026-04-26T09:08:26.989Z</time></trkpt><trkpt lat="44.3331884" lon="8.3329108"><ele>434.5</ele><time>2026-04-26T09:08:27.989Z</time></trkpt><trkpt lat="44.3330558" lon="8.3329608"><ele>433.0</ele><time>2026-04-26T09:08:28.989Z</time></trkpt><trkpt lat="44.3329235" lon="8.3329872"><ele>431.5</ele><time>2026-04-26T09:08:29.989Z</time></trkpt><trkpt lat="44.3327914" lon="8.3329846"><ele>430.0</ele><time>2026-04-26T09:08:30.989Z</time></trkpt><trkpt lat="44.3326716" lon="8.332963"><ele>430.0</ele><time>2026-04-26T09:08:31.99Z</time></trkpt><trkpt lat="44.3325626" lon="8.332927"><ele>430.0</ele><time>2026-04-26T09:08:32.989Z</time></trkpt><trkpt lat="44.332482" lon="8.3328429"><ele>430.0</ele><time>2026-04-26T09:08:33.99Z</time></trkpt><trkpt lat="44.3323944" lon="8.3327642"><ele>430.0</ele><time>2026-04-26T09:08:34.989Z</time></trkpt><trkpt lat="44.3323053" lon="8.332712"><ele>430.0</ele><time>2026-04-26T09:08:35.989Z</time></trkpt><trkpt lat="44.3322142" lon="8.3326999"><ele>427.6666666666667</ele><time>2026-04-26T09:08:36.989Z</time></trkpt><trkpt lat="44.3321287" lon="8.3327229"><ele>425.33333333333337</ele><time>2026-04-26T09:08:37.99Z</time></trkpt><trkpt lat="44.3320715" lon="8.3327946"><ele>423.0</ele><time>2026-04-26T09:08:38.989Z</time></trkpt><trkpt lat="44.3320232" lon="8.3328898"><ele>420.66666666666663</ele><time>2026-04-26T09:08:39.989Z</time></trkpt><trkpt lat="44.3319967" lon="8.3330133"><ele>418.3333333333333</ele><time>2026-04-26T09:08:40.989Z</time></trkpt><trkpt lat="44.3319596" lon="8.3331157"><ele>416.0</ele><time>2026-04-26T09:08:41.989Z</time></trkpt><trkpt lat="44.3319149" lon="8.3332063"><ele>416.0</ele><time>2026-04-26T09:08:42.989Z</time></trkpt><trkpt lat="44.3318552" lon="8.3333042"><ele>416.0</ele><time>2026-04-26T09:08:43.989Z</time></trkpt><trkpt lat="44.3317831" lon="8.3334032"><ele>416.0</ele><time>2026-04-26T09:08:44.989Z</time></trkpt><trkpt lat="44.3317009" lon="8.3335115"><ele>416.0</ele><time>2026-04-26T09:08:45.989Z</time></trkpt><trkpt lat="44.3316112" lon="8.3336405"><ele>416.0</ele><time>2026-04-26T09:08:46.989Z</time></trkpt><trkpt lat="44.3315044" lon="8.3337776"><ele>414.3333333333333</ele><time>2026-04-26T09:08:47.989Z</time></trkpt><trkpt lat="44.331387" lon="8.333925"><ele>412.66666666666663</ele><time>2026-04-26T09:08:48.989Z</time></trkpt><trkpt lat="44.3312635" lon="8.3340949"><ele>411.0</ele><time>2026-04-26T09:08:49.989Z</time></trkpt><trkpt lat="44.3311239" lon="8.334273"><ele>411.0</ele><time>2026-04-26T09:08:50.989Z</time></trkpt><trkpt lat="44.3309666" lon="8.3344529"><ele>411.0</ele><time>2026-04-26T09:08:51.989Z</time></trkpt><trkpt lat="44.3308023" lon="8.3346276"><ele>411.0</ele><time>2026-04-26T09:08:52.989Z</time></trkpt><trkpt lat="44.3306374" lon="8.3347796"><ele>412.33333333333337</ele><time>2026-04-26T09:08:53.989Z</time></trkpt><trkpt lat="44.3304711" lon="8.3349187"><ele>413.6666666666667</ele><time>2026-04-26T09:08:54.989Z</time></trkpt><trkpt lat="44.330298" lon="8.335049"><ele>415.0</ele><time>2026-04-26T09:08:55.989Z</time></trkpt><trkpt lat="44.3301139" lon="8.3351409"><ele>415.0</ele><time>2026-04-26T09:08:56.989Z</time></trkpt><trkpt lat="44.3299132" lon="8.3352166"><ele>415.0</ele><time>2026-04-26T09:08:57.989Z</time></trkpt><trkpt lat="44.3297267" lon="8.3352843"><ele>415.0</ele><time>2026-04-26T09:08:58.989Z</time></trkpt><trkpt lat="44.3295702" lon="8.3353472"><ele>412.75</ele><time>2026-04-26T09:08:59.989Z</time></trkpt><trkpt lat="44.329422" lon="8.3354024"><ele>410.5</ele><time>2026-04-26T09:09:00.989Z</time></trkpt><trkpt lat="44.3292818" lon="8.3354544"><ele>408.25</ele><time>2026-04-26T09:09:01.989Z</time></trkpt><trkpt lat="44.3291364" lon="8.3354809"><ele>406.0</ele><time>2026-04-26T09:09:02.989Z</time></trkpt><trkpt lat="44.3289794" lon="8.3354667"><ele>406.6666666666667</ele><time>2026-04-26T09:09:03.989Z</time></trkpt><trkpt lat="44.328822" lon="8.3354107"><ele>407.33333333333337</ele><time>2026-04-26T09:09:04.989Z</time></trkpt><trkpt lat="44.3286539" lon="8.3352622"><ele>408.0</ele><time>2026-04-26T09:09:05.989Z</time></trkpt><trkpt lat="44.328461" lon="8.3351082"><ele>408.0</ele><time>2026-04-26T09:09:06.989Z</time></trkpt><trkpt lat="44.3282583" lon="8.3349538"><ele>408.0</ele><time>2026-04-26T09:09:07.989Z</time></trkpt><trkpt lat="44.3280634" lon="8.334798"><ele>407.66666666666663</ele><time>2026-04-26T09:09:08.989Z</time></trkpt><trkpt lat="44.3278818" lon="8.3346727"><ele>407.3333333333333</ele><time>2026-04-26T09:09:09.989Z</time></trkpt><trkpt lat="44.3277184" lon="8.3345676"><ele>407.0</ele><time>2026-04-26T09:09:10.989Z</time></trkpt><trkpt lat="44.3275769" lon="8.3344725"><ele>407.0</ele><time>2026-04-26T09:09:11.989Z</time></trkpt><trkpt lat="44.3274612" lon="8.33436"><ele>407.0</ele><time>2026-04-26T09:09:12.989Z</time></trkpt><trkpt lat="44.3273889" lon="8.334192"><ele>407.0</ele><time>2026-04-26T09:09:13.989Z</time></trkpt><trkpt lat="44.3273609" lon="8.3339758"><ele>407.0</ele><time>2026-04-26T09:09:14.989Z</time></trkpt><trkpt lat="44.3273488" lon="8.3337392"><ele>404.3333333333333</ele><time>2026-04-26T09:09:15.989Z</time></trkpt><trkpt lat="44.327349" lon="8.3334841"><ele>401.66666666666663</ele><time>2026-04-26T09:09:16.989Z</time></trkpt><trkpt lat="44.3273528" lon="8.3332172"><ele>399.0</ele><time>2026-04-26T09:09:17.989Z</time></trkpt><trkpt lat="44.3273487" lon="8.3329466"><ele>398.33333333333337</ele><time>2026-04-26T09:09:18.989Z</time></trkpt><trkpt lat="44.3273206" lon="8.332667"><ele>397.6666666666667</ele><time>2026-04-26T09:09:19.989Z</time></trkpt><trkpt lat="44.327275" lon="8.3323839"><ele>397.0</ele><time>2026-04-26T09:09:20.989Z</time></trkpt><trkpt lat="44.3272196" lon="8.3320879"><ele>398.33333333333337</ele><time>2026-04-26T09:09:21.989Z</time></trkpt><trkpt lat="44.327144" lon="8.3317941"><ele>399.66666666666663</ele><time>2026-04-26T09:09:22.989Z</time></trkpt><trkpt lat="44.3270464" lon="8.3315162"><ele>401.0</ele><time>2026-04-26T09:09:23.989Z</time></trkpt><trkpt lat="44.3269366" lon="8.3312445"><ele>401.0</ele><time>2026-04-26T09:09:24.989Z</time></trkpt><trkpt lat="44.3268173" lon="8.3309681"><ele>401.0</ele><time>2026-04-26T09:09:25.989Z</time></trkpt><trkpt lat="44.3266999" lon="8.3306861"><ele>399.5</ele><time>2026-04-26T09:09:26.989Z</time></trkpt><trkpt lat="44.3265923" lon="8.3303972"><ele>398.0</ele><time>2026-04-26T09:09:27.989Z</time></trkpt><trkpt lat="44.3265001" lon="8.3301024"><ele>398.0</ele><time>2026-04-26T09:09:28.989Z</time></trkpt><trkpt lat="44.3264275" lon="8.3297956"><ele>398.0</ele><time>2026-04-26T09:09:29.99Z</time></trkpt><trkpt lat="44.3263686" lon="8.3294809"><ele>402.5</ele><time>2026-04-26T09:09:30.989Z</time></trkpt><trkpt lat="44.3263277" lon="8.329161"><ele>407.0</ele><time>2026-04-26T09:09:31.989Z</time></trkpt><trkpt lat="44.3263052" lon="8.3288474"><ele>408.66666666666663</ele><time>2026-04-26T09:09:32.99Z</time></trkpt><trkpt lat="44.3263046" lon="8.3285514"><ele>410.33333333333337</ele><time>2026-04-26T09:09:33.989Z</time></trkpt><trkpt lat="44.3263053" lon="8.3282982"><ele>412.0</ele><time>2026-04-26T09:09:34.989Z</time></trkpt><trkpt lat="44.3262978" lon="8.3280676"><ele>410.0</ele><time>2026-04-26T09:09:35.989Z</time></trkpt><trkpt lat="44.3262726" lon="8.3278611"><ele>408.0</ele><time>2026-04-26T09:09:36.989Z</time></trkpt><trkpt lat="44.3262216" lon="8.3276604"><ele>406.0</ele><time>2026-04-26T09:09:37.989Z</time></trkpt><trkpt lat="44.3261184" lon="8.3274929"><ele>406.0</ele><time>2026-04-26T09:09:38.989Z</time></trkpt><trkpt lat="44.3259837" lon="8.3273508"><ele>406.0</ele><time>2026-04-26T09:09:39.989Z</time></trkpt><trkpt lat="44.3258281" lon="8.3272309"><ele>406.0</ele><time>2026-04-26T09:09:40.99Z</time></trkpt><trkpt lat="44.3256352" lon="8.3271395"><ele>407.33333333333337</ele><time>2026-04-26T09:09:41.99Z</time></trkpt><trkpt lat="44.3254254" lon="8.3270804"><ele>408.66666666666663</ele><time>2026-04-26T09:09:42.989Z</time></trkpt><trkpt lat="44.3252031" lon="8.3270409"><ele>410.0</ele><time>2026-04-26T09:09:43.989Z</time></trkpt><trkpt lat="44.3249919" lon="8.3270141"><ele>410.0</ele><time>2026-04-26T09:09:44.989Z</time></trkpt><trkpt lat="44.3247792" lon="8.3269913"><ele>410.0</ele><time>2026-04-26T09:09:45.989Z</time></trkpt><trkpt lat="44.3245984" lon="8.3269619"><ele>410.0</ele><time>2026-04-26T09:09:46.989Z</time></trkpt><trkpt lat="44.3244439" lon="8.3269303"><ele>413.25</ele><time>2026-04-26T09:09:47.989Z</time></trkpt><trkpt lat="44.324303" lon="8.3268746"><ele>416.5</ele><time>2026-04-26T09:09:48.989Z</time></trkpt><trkpt lat="44.3241793" lon="8.3267808"><ele>419.75</ele><time>2026-04-26T09:09:49.989Z</time></trkpt><trkpt lat="44.3240778" lon="8.3266578"><ele>423.0</ele><time>2026-04-26T09:09:50.989Z</time></trkpt><trkpt lat="44.324004" lon="8.3264895"><ele>418.66666666666663</ele><time>2026-04-26T09:09:51.989Z</time></trkpt><trkpt lat="44.3239661" lon="8.3262591"><ele>414.3333333333333</ele><time>2026-04-26T09:09:52.989Z</time></trkpt><trkpt lat="44.3239837" lon="8.3259342"><ele>410.0</ele><time>2026-04-26T09:09:53.989Z</time></trkpt><trkpt lat="44.3239821" lon="8.3256051"><ele>409.0</ele><time>2026-04-26T09:09:54.989Z</time></trkpt><trkpt lat="44.3239347" lon="8.3252946"><ele>408.0</ele><time>2026-04-26T09:09:55.989Z</time></trkpt><trkpt lat="44.3239018" lon="8.32501"><ele>407.0</ele><time>2026-04-26T09:09:56.989Z</time></trkpt><trkpt lat="44.3238776" lon="8.324763"><ele>408.0</ele><time>2026-04-26T09:09:57.989Z</time></trkpt><trkpt lat="44.3238503" lon="8.324548"><ele>409.0</ele><time>2026-04-26T09:09:58.989Z</time></trkpt><trkpt lat="44.3238209" lon="8.3243438"><ele>410.0</ele><time>2026-04-26T09:09:59.989Z</time></trkpt><trkpt lat="44.323769" lon="8.3241656"><ele>411.0</ele><time>2026-04-26T09:10:00.989Z</time></trkpt><trkpt lat="44.3236609" lon="8.3240462"><ele>411.0</ele><time>2026-04-26T09:10:01.989Z</time></trkpt><trkpt lat="44.3235602" lon="8.3239491"><ele>411.0</ele><time>2026-04-26T09:10:02.989Z</time></trkpt><trkpt lat="44.3234571" lon="8.3238867"><ele>411.0</ele><time>2026-04-26T09:10:03.989Z</time></trkpt><trkpt lat="44.3233415" lon="8.3238688"><ele>411.0</ele><time>2026-04-26T09:10:04.989Z</time></trkpt><trkpt lat="44.3232088" lon="8.3239062"><ele>411.0</ele><time>2026-04-26T09:10:05.989Z</time></trkpt><trkpt lat="44.3230638" lon="8.3240088"><ele>411.0</ele><time>2026-04-26T09:10:06.989Z</time></trkpt><trkpt lat="44.3229326" lon="8.3241468"><ele>411.0</ele><time>2026-04-26T09:10:07.99Z</time></trkpt><trkpt lat="44.322821" lon="8.3242621"><ele>411.0</ele><time>2026-04-26T09:10:08.989Z</time></trkpt><trkpt lat="44.3227221" lon="8.3243714"><ele>411.0</ele><time>2026-04-26T09:10:09.989Z</time></trkpt><trkpt lat="44.3226269" lon="8.3244471"><ele>411.0</ele><time>2026-04-26T09:10:10.989Z</time></trkpt><trkpt lat="44.3225349" lon="8.3245069"><ele>411.0</ele><time>2026-04-26T09:10:11.989Z</time></trkpt><trkpt lat="44.3224375" lon="8.3245401"><ele>411.0</ele><time>2026-04-26T09:10:12.989Z</time></trkpt><trkpt lat="44.3223423" lon="8.3245447"><ele>411.0</ele><time>2026-04-26T09:10:13.989Z</time></trkpt><trkpt lat="44.3222517" lon="8.3245187"><ele>411.0</ele><time>2026-04-26T09:10:14.99Z</time></trkpt><trkpt lat="44.3221707" lon="8.324483"><ele>411.0</ele><time>2026-04-26T09:10:15.99Z</time></trkpt><trkpt lat="44.3220935" lon="8.3244369"><ele>411.0</ele><time>2026-04-26T09:10:16.989Z</time></trkpt><trkpt lat="44.3220157" lon="8.3243424"><ele>411.0</ele><time>2026-04-26T09:10:17.989Z</time></trkpt><trkpt lat="44.3219321" lon="8.3242049"><ele>410.33333333333337</ele><time>2026-04-26T09:10:18.989Z</time></trkpt><trkpt lat="44.3218354" lon="8.3240585"><ele>409.6666666666667</ele><time>2026-04-26T09:10:19.989Z</time></trkpt><trkpt lat="44.3217162" lon="8.3239196"><ele>409.0</ele><time>2026-04-26T09:10:20.989Z</time></trkpt><trkpt lat="44.3215655" lon="8.323813"><ele>409.0</ele><time>2026-04-26T09:10:21.989Z</time></trkpt><trkpt lat="44.3214002" lon="8.3237225"><ele>409.0</ele><time>2026-04-26T09:10:22.989Z</time></trkpt><trkpt lat="44.3212241" lon="8.3236346"><ele>409.0</ele><time>2026-04-26T09:10:23.989Z</time></trkpt><trkpt lat="44.3210363" lon="8.3235383"><ele>409.33333333333337</ele><time>2026-04-26T09:10:24.989Z</time></trkpt><trkpt lat="44.3208394" lon="8.3234464"><ele>409.66666666666663</ele><time>2026-04-26T09:10:25.989Z</time></trkpt><trkpt lat="44.3206267" lon="8.3233435"><ele>410.0</ele><time>2026-04-26T09:10:26.99Z</time></trkpt><trkpt lat="44.3204154" lon="8.323234"><ele>410.5</ele><time>2026-04-26T09:10:27.989Z</time></trkpt><trkpt lat="44.3202007" lon="8.323127"><ele>411.0</ele><time>2026-04-26T09:10:28.989Z</time></trkpt><trkpt lat="44.319994" lon="8.323013"><ele>411.0</ele><time>2026-04-26T09:10:29.989Z</time></trkpt><trkpt lat="44.3197993" lon="8.3229067"><ele>411.0</ele><time>2026-04-26T09:10:30.989Z</time></trkpt><trkpt lat="44.3196229" lon="8.3227809"><ele>411.0</ele><time>2026-04-26T09:10:31.989Z</time></trkpt><trkpt lat="44.3194491" lon="8.3225952"><ele>411.66666666666663</ele><time>2026-04-26T09:10:32.989Z</time></trkpt><trkpt lat="44.3192795" lon="8.3223799"><ele>412.3333333333333</ele><time>2026-04-26T09:10:33.989Z</time></trkpt><trkpt lat="44.3191242" lon="8.3221621"><ele>413.0</ele><time>2026-04-26T09:10:34.989Z</time></trkpt><trkpt lat="44.3189776" lon="8.3219563"><ele>414.66666666666663</ele><time>2026-04-26T09:10:35.989Z</time></trkpt><trkpt lat="44.3188491" lon="8.3217278"><ele>416.33333333333337</ele><time>2026-04-26T09:10:36.989Z</time></trkpt><trkpt lat="44.3187477" lon="8.3214996"><ele>418.0</ele><time>2026-04-26T09:10:37.989Z</time></trkpt><trkpt lat="44.3186593" lon="8.3212544"><ele>418.0</ele><time>2026-04-26T09:10:38.989Z</time></trkpt><trkpt lat="44.3185753" lon="8.3210121"><ele>418.0</ele><time>2026-04-26T09:10:39.989Z</time></trkpt><trkpt lat="44.3184929" lon="8.320784"><ele>418.0</ele><time>2026-04-26T09:10:40.989Z</time></trkpt><trkpt lat="44.3184195" lon="8.3205766"><ele>418.5</ele><time>2026-04-26T09:10:41.989Z</time></trkpt><trkpt lat="44.3183507" lon="8.3203978"><ele>419.0</ele><time>2026-04-26T09:10:42.989Z</time></trkpt><trkpt lat="44.3182791" lon="8.3202549"><ele>419.5</ele><time>2026-04-26T09:10:43.989Z</time></trkpt><trkpt lat="44.318185" lon="8.3201703"><ele>420.0</ele><time>2026-04-26T09:10:44.989Z</time></trkpt><trkpt lat="44.3180626" lon="8.3201289"><ele>420.0</ele><time>2026-04-26T09:10:45.989Z</time></trkpt><trkpt lat="44.3179187" lon="8.3201013"><ele>420.0</ele><time>2026-04-26T09:10:46.989Z</time></trkpt><trkpt lat="44.3177549" lon="8.3200883"><ele>420.0</ele><time>2026-04-26T09:10:47.989Z</time></trkpt><trkpt lat="44.3175915" lon="8.3200671"><ele>420.0</ele><time>2026-04-26T09:10:48.989Z</time></trkpt><trkpt lat="44.3174385" lon="8.320034"><ele>420.0</ele><time>2026-04-26T09:10:49.989Z</time></trkpt><trkpt lat="44.3173011" lon="8.3199596"><ele>420.0</ele><time>2026-04-26T09:10:50.989Z</time></trkpt><trkpt lat="44.3171734" lon="8.3198082"><ele>422.33333333333337</ele><time>2026-04-26T09:10:51.989Z</time></trkpt><trkpt lat="44.3170482" lon="8.3196175"><ele>424.6666666666667</ele><time>2026-04-26T09:10:52.989Z</time></trkpt><trkpt lat="44.3169276" lon="8.319391"><ele>427.0</ele><time>2026-04-26T09:10:53.989Z</time></trkpt><trkpt lat="44.3167964" lon="8.3191533"><ele>427.0</ele><time>2026-04-26T09:10:54.989Z</time></trkpt><trkpt lat="44.3166632" lon="8.3189287"><ele>427.0</ele><time>2026-04-26T09:10:55.989Z</time></trkpt><trkpt lat="44.3165413" lon="8.3187178"><ele>427.0</ele><time>2026-04-26T09:10:56.989Z</time></trkpt><trkpt lat="44.3164406" lon="8.3185452"><ele>431.25</ele><time>2026-04-26T09:10:57.989Z</time></trkpt><trkpt lat="44.3163589" lon="8.318371"><ele>435.5</ele><time>2026-04-26T09:10:58.989Z</time></trkpt><trkpt lat="44.3163039" lon="8.3181806"><ele>439.75</ele><time>2026-04-26T09:10:59.989Z</time></trkpt><trkpt lat="44.316272" lon="8.3179887"><ele>444.0</ele><time>2026-04-26T09:11:00.989Z</time></trkpt><trkpt lat="44.3163219" lon="8.3177873"><ele>446.66666666666663</ele><time>2026-04-26T09:11:01.989Z</time></trkpt><trkpt lat="44.3163703" lon="8.3175496"><ele>449.3333333333333</ele><time>2026-04-26T09:11:02.989Z</time></trkpt><trkpt lat="44.3164243" lon="8.3172762"><ele>452.0</ele><time>2026-04-26T09:11:03.989Z</time></trkpt><trkpt lat="44.3164837" lon="8.3169607"><ele>440.5</ele><time>2026-04-26T09:11:04.989Z</time></trkpt><trkpt lat="44.3165464" lon="8.316625"><ele>429.0</ele><time>2026-04-26T09:11:05.989Z</time></trkpt><trkpt lat="44.3165881" lon="8.316284"><ele>429.0</ele><time>2026-04-26T09:11:06.989Z</time></trkpt><trkpt lat="44.3166039" lon="8.3159359"><ele>429.0</ele><time>2026-04-26T09:11:07.989Z</time></trkpt><trkpt lat="44.3165999" lon="8.3155893"><ele>428.5</ele><time>2026-04-26T09:11:08.989Z</time></trkpt><trkpt lat="44.3165985" lon="8.3152494"><ele>428.0</ele><time>2026-04-26T09:11:09.989Z</time></trkpt><trkpt lat="44.3165994" lon="8.3149283"><ele>428.3333333333333</ele><time>2026-04-26T09:11:10.989Z</time></trkpt><trkpt lat="44.3165896" lon="8.3146527"><ele>428.66666666666663</ele><time>2026-04-26T09:11:11.989Z</time></trkpt><trkpt lat="44.3165627" lon="8.3144103"><ele>429.0</ele><time>2026-04-26T09:11:12.99Z</time></trkpt><trkpt lat="44.3165174" lon="8.3141976"><ele>429.0</ele><time>2026-04-26T09:11:13.989Z</time></trkpt><trkpt lat="44.3164683" lon="8.3140206"><ele>429.0</ele><time>2026-04-26T09:11:14.989Z</time></trkpt><trkpt lat="44.3164112" lon="8.3138787"><ele>429.0</ele><time>2026-04-26T09:11:15.99Z</time></trkpt><trkpt lat="44.3163517" lon="8.3137529"><ele>429.0</ele><time>2026-04-26T09:11:16.989Z</time></trkpt><trkpt lat="44.3162555" lon="8.3136646"><ele>428.75</ele><time>2026-04-26T09:11:17.989Z</time></trkpt><trkpt lat="44.3161465" lon="8.313601"><ele>428.5</ele><time>2026-04-26T09:11:18.989Z</time></trkpt><trkpt lat="44.3160068" lon="8.3135631"><ele>428.25</ele><time>2026-04-26T09:11:19.99Z</time></trkpt><trkpt lat="44.3158681" lon="8.3135614"><ele>428.0</ele><time>2026-04-26T09:11:20.989Z</time></trkpt><trkpt lat="44.3156592" lon="8.3135994"><ele>426.5</ele><time>2026-04-26T09:11:21.989Z</time></trkpt><trkpt lat="44.3154212" lon="8.3136694"><ele>425.0</ele><time>2026-04-26T09:11:22.989Z</time></trkpt><trkpt lat="44.3152005" lon="8.3137326"><ele>425.0</ele><time>2026-04-26T09:11:23.989Z</time></trkpt><trkpt lat="44.3149988" lon="8.3137964"><ele>425.0</ele><time>2026-04-26T09:11:24.989Z</time></trkpt><trkpt lat="44.3147885" lon="8.3138388"><ele>425.0</ele><time>2026-04-26T09:11:25.989Z</time></trkpt><trkpt lat="44.3145983" lon="8.313858"><ele>424.0</ele><time>2026-04-26T09:11:26.989Z</time></trkpt><trkpt lat="44.3144311" lon="8.3138393"><ele>423.0</ele><time>2026-04-26T09:11:27.989Z</time></trkpt><trkpt lat="44.314273" lon="8.3138148"><ele>422.0</ele><time>2026-04-26T09:11:28.989Z</time></trkpt><trkpt lat="44.3141075" lon="8.3138029"><ele>422.0</ele><time>2026-04-26T09:11:29.989Z</time></trkpt><trkpt lat="44.3139449" lon="8.3138226"><ele>422.0</ele><time>2026-04-26T09:11:30.989Z</time></trkpt><trkpt lat="44.3137881" lon="8.3138288"><ele>422.0</ele><time>2026-04-26T09:11:31.989Z</time></trkpt><trkpt lat="44.3136426" lon="8.3138021"><ele>427.0</ele><time>2026-04-26T09:11:32.989Z</time></trkpt><trkpt lat="44.3135085" lon="8.3137467"><ele>432.0</ele><time>2026-04-26T09:11:33.989Z</time></trkpt><trkpt lat="44.3133936" lon="8.3136083"><ele>437.0</ele><time>2026-04-26T09:11:34.989Z</time></trkpt><trkpt lat="44.3132985" lon="8.3134152"><ele>437.0</ele><time>2026-04-26T09:11:35.99Z</time></trkpt><trkpt lat="44.3131752" lon="8.3132059"><ele>437.0</ele><time>2026-04-26T09:11:36.989Z</time></trkpt><trkpt lat="44.3130706" lon="8.312969"><ele>437.0</ele><time>2026-04-26T09:11:37.989Z</time></trkpt><trkpt lat="44.3129713" lon="8.3127549"><ele>434.75</ele><time>2026-04-26T09:11:38.989Z</time></trkpt><trkpt lat="44.3128729" lon="8.3125917"><ele>432.5</ele><time>2026-04-26T09:11:39.989Z</time></trkpt><trkpt lat="44.3127774" lon="8.3124736"><ele>430.25</ele><time>2026-04-26T09:11:40.989Z</time></trkpt><trkpt lat="44.3126533" lon="8.3123926"><ele>428.0</ele><time>2026-04-26T09:11:41.989Z</time></trkpt><trkpt lat="44.31253" lon="8.3123486"><ele>428.0</ele><time>2026-04-26T09:11:42.99Z</time></trkpt><trkpt lat="44.3124327" lon="8.3123469"><ele>428.0</ele><time>2026-04-26T09:11:43.989Z</time></trkpt><trkpt lat="44.3123237" lon="8.3124116"><ele>428.0</ele><time>2026-04-26T09:11:44.989Z</time></trkpt><trkpt lat="44.3121717" lon="8.312574"><ele>428.0</ele><time>2026-04-26T09:11:45.989Z</time></trkpt><trkpt lat="44.31199" lon="8.3127951"><ele>426.3333333333333</ele><time>2026-04-26T09:11:46.989Z</time></trkpt><trkpt lat="44.3118227" lon="8.3129813"><ele>424.66666666666663</ele><time>2026-04-26T09:11:47.99Z</time></trkpt><trkpt lat="44.3116578" lon="8.3131411"><ele>423.0</ele><time>2026-04-26T09:11:48.989Z</time></trkpt><trkpt lat="44.3114938" lon="8.3132667"><ele>425.66666666666663</ele><time>2026-04-26T09:11:49.989Z</time></trkpt><trkpt lat="44.3113103" lon="8.3133432"><ele>428.3333333333333</ele><time>2026-04-26T09:11:50.989Z</time></trkpt><trkpt lat="44.3111151" lon="8.3133771"><ele>431.0</ele><time>2026-04-26T09:11:51.99Z</time></trkpt><trkpt lat="44.3108821" lon="8.3133619"><ele>431.0</ele><time>2026-04-26T09:11:52.989Z</time></trkpt><trkpt lat="44.3106542" lon="8.3133425"><ele>431.0</ele><time>2026-04-26T09:11:53.989Z</time></trkpt><trkpt lat="44.3104456" lon="8.3132991"><ele>431.0</ele><time>2026-04-26T09:11:54.989Z</time></trkpt><trkpt lat="44.3102909" lon="8.313309"><ele>431.0</ele><time>2026-04-26T09:11:55.989Z</time></trkpt><trkpt lat="44.310142" lon="8.3133043"><ele>431.0</ele><time>2026-04-26T09:11:56.989Z</time></trkpt><trkpt lat="44.3100101" lon="8.3132557"><ele>431.0</ele><time>2026-04-26T09:11:57.989Z</time></trkpt><trkpt lat="44.3098841" lon="8.313146"><ele>431.0</ele><time>2026-04-26T09:11:58.989Z</time></trkpt><trkpt lat="44.3097677" lon="8.3129731"><ele>441.0</ele><time>2026-04-26T09:11:59.989Z</time></trkpt><trkpt lat="44.3096837" lon="8.3127399"><ele>451.0</ele><time>2026-04-26T09:12:00.989Z</time></trkpt><trkpt lat="44.3096241" lon="8.3124954"><ele>461.0</ele><time>2026-04-26T09:12:01.989Z</time></trkpt><trkpt lat="44.3095876" lon="8.3122645"><ele>459.3333333333333</ele><time>2026-04-26T09:12:02.989Z</time></trkpt><trkpt lat="44.3095941" lon="8.3120355"><ele>457.66666666666663</ele><time>2026-04-26T09:12:03.989Z</time></trkpt><trkpt lat="44.3096546" lon="8.3118019"><ele>456.0</ele><time>2026-04-26T09:12:04.989Z</time></trkpt><trkpt lat="44.3097271" lon="8.3115762"><ele>451.0</ele><time>2026-04-26T09:12:05.989Z</time></trkpt><trkpt lat="44.3097848" lon="8.3113648"><ele>446.0</ele><time>2026-04-26T09:12:06.989Z</time></trkpt><trkpt lat="44.3098025" lon="8.3111656"><ele>441.0</ele><time>2026-04-26T09:12:07.989Z</time></trkpt><trkpt lat="44.3097634" lon="8.3109697"><ele>440.0</ele><time>2026-04-26T09:12:08.99Z</time></trkpt><trkpt lat="44.3096933" lon="8.310771"><ele>439.0</ele><time>2026-04-26T09:12:09.989Z</time></trkpt><trkpt lat="44.309568" lon="8.3105771"><ele>438.0</ele><time>2026-04-26T09:12:10.99Z</time></trkpt><trkpt lat="44.3094298" lon="8.3103752"><ele>438.0</ele><time>2026-04-26T09:12:11.989Z</time></trkpt><trkpt lat="44.3092751" lon="8.3101605"><ele>438.0</ele><time>2026-04-26T09:12:12.989Z</time></trkpt><trkpt lat="44.3091072" lon="8.3099497"><ele>438.0</ele><time>2026-04-26T09:12:13.99Z</time></trkpt><trkpt lat="44.3089267" lon="8.3097525"><ele>439.66666666666663</ele><time>2026-04-26T09:12:14.989Z</time></trkpt><trkpt lat="44.3087642" lon="8.3095732"><ele>441.3333333333333</ele><time>2026-04-26T09:12:15.989Z</time></trkpt><trkpt lat="44.3086075" lon="8.3093972"><ele>443.0</ele><time>2026-04-26T09:12:16.989Z</time></trkpt><trkpt lat="44.3084432" lon="8.3092455"><ele>443.0</ele><time>2026-04-26T09:12:17.989Z</time></trkpt><trkpt lat="44.3082569" lon="8.3091018"><ele>443.0</ele><time>2026-04-26T09:12:18.989Z</time></trkpt><trkpt lat="44.3080303" lon="8.3089892"><ele>440.0</ele><time>2026-04-26T09:12:19.989Z</time></trkpt><trkpt lat="44.3077978" lon="8.3088688"><ele>437.0</ele><time>2026-04-26T09:12:20.989Z</time></trkpt><trkpt lat="44.307579" lon="8.3087476"><ele>437.0</ele><time>2026-04-26T09:12:21.989Z</time></trkpt><trkpt lat="44.3073712" lon="8.3086253"><ele>437.0</ele><time>2026-04-26T09:12:22.989Z</time></trkpt><trkpt lat="44.3071716" lon="8.3085135"><ele>437.0</ele><time>2026-04-26T09:12:23.989Z</time></trkpt><trkpt lat="44.3069835" lon="8.3084184"><ele>444.0</ele><time>2026-04-26T09:12:24.99Z</time></trkpt><trkpt lat="44.3067929" lon="8.3083404"><ele>451.0</ele><time>2026-04-26T09:12:25.989Z</time></trkpt><trkpt lat="44.3066249" lon="8.3082724"><ele>458.0</ele><time>2026-04-26T09:12:26.989Z</time></trkpt><trkpt lat="44.3065007" lon="8.3082052"><ele>466.3333333333333</ele><time>2026-04-26T09:12:27.989Z</time></trkpt><trkpt lat="44.3063958" lon="8.3080818"><ele>474.66666666666663</ele><time>2026-04-26T09:12:28.989Z</time></trkpt><trkpt lat="44.306328" lon="8.3078961"><ele>483.0</ele><time>2026-04-26T09:12:29.989Z</time></trkpt><trkpt lat="44.306305" lon="8.3076571"><ele>483.0</ele><time>2026-04-26T09:12:30.989Z</time></trkpt><trkpt lat="44.306296" lon="8.3073806"><ele>483.0</ele><time>2026-04-26T09:12:31.989Z</time></trkpt><trkpt lat="44.3063108" lon="8.3070802"><ele>483.0</ele><time>2026-04-26T09:12:32.989Z</time></trkpt><trkpt lat="44.3063241" lon="8.3067526"><ele>483.5</ele><time>2026-04-26T09:12:33.99Z</time></trkpt><trkpt lat="44.3063382" lon="8.3064038"><ele>484.0</ele><time>2026-04-26T09:12:34.989Z</time></trkpt><trkpt lat="44.3063536" lon="8.3060482"><ele>484.0</ele><time>2026-04-26T09:12:35.989Z</time></trkpt><trkpt lat="44.30636" lon="8.3056993"><ele>484.0</ele><time>2026-04-26T09:12:36.989Z</time></trkpt><trkpt lat="44.3063567" lon="8.305375"><ele>483.6666666666667</ele><time>2026-04-26T09:12:37.989Z</time></trkpt><trkpt lat="44.3063488" lon="8.3050745"><ele>483.33333333333337</ele><time>2026-04-26T09:12:38.99Z</time></trkpt><trkpt lat="44.3063255" lon="8.3047905"><ele>483.0</ele><time>2026-04-26T09:12:39.989Z</time></trkpt><trkpt lat="44.3062876" lon="8.3045174"><ele>480.0</ele><time>2026-04-26T09:12:40.989Z</time></trkpt><trkpt lat="44.3062151" lon="8.3042633"><ele>477.0</ele><time>2026-04-26T09:12:41.989Z</time></trkpt><trkpt lat="44.3061166" lon="8.3040141"><ele>474.0</ele><time>2026-04-26T09:12:42.989Z</time></trkpt><trkpt lat="44.3059966" lon="8.3037768"><ele>472.66666666666663</ele><time>2026-04-26T09:12:43.989Z</time></trkpt><trkpt lat="44.3058544" lon="8.3035569"><ele>471.3333333333333</ele><time>2026-04-26T09:12:44.989Z</time></trkpt><trkpt lat="44.3056993" lon="8.3033291"><ele>470.0</ele><time>2026-04-26T09:12:45.989Z</time></trkpt><trkpt lat="44.3055243" lon="8.3031013"><ele>462.5</ele><time>2026-04-26T09:12:46.989Z</time></trkpt><trkpt lat="44.305345" lon="8.3028619"><ele>455.0</ele><time>2026-04-26T09:12:47.99Z</time></trkpt><trkpt lat="44.3051333" lon="8.3026511"><ele>455.0</ele><time>2026-04-26T09:12:48.989Z</time></trkpt><trkpt lat="44.3049517" lon="8.3024404"><ele>455.0</ele><time>2026-04-26T09:12:49.989Z</time></trkpt><trkpt lat="44.3048115" lon="8.3022361"><ele>455.0</ele><time>2026-04-26T09:12:50.989Z</time></trkpt><trkpt lat="44.3046991" lon="8.3020573"><ele>456.0</ele><time>2026-04-26T09:12:51.989Z</time></trkpt><trkpt lat="44.3046031" lon="8.3018945"><ele>457.0</ele><time>2026-04-26T09:12:52.989Z</time></trkpt><trkpt lat="44.3045267" lon="8.3017479"><ele>458.0</ele><time>2026-04-26T09:12:53.99Z</time></trkpt><trkpt lat="44.3044457" lon="8.3016299"><ele>459.0</ele><time>2026-04-26T09:12:54.989Z</time></trkpt><trkpt lat="44.3043407" lon="8.3015386"><ele>459.0</ele><time>2026-04-26T09:12:55.989Z</time></trkpt><trkpt lat="44.3042047" lon="8.3014682"><ele>459.0</ele><time>2026-04-26T09:12:56.989Z</time></trkpt><trkpt lat="44.3040337" lon="8.301426"><ele>459.0</ele><time>2026-04-26T09:12:57.99Z</time></trkpt><trkpt lat="44.3038615" lon="8.3013919"><ele>455.0</ele><time>2026-04-26T09:12:58.989Z</time></trkpt><trkpt lat="44.3037013" lon="8.3013606"><ele>451.0</ele><time>2026-04-26T09:12:59.989Z</time></trkpt><trkpt lat="44.3035542" lon="8.3013243"><ele>447.0</ele><time>2026-04-26T09:13:00.989Z</time></trkpt><trkpt lat="44.3034205" lon="8.3012827"><ele>443.0</ele><time>2026-04-26T09:13:01.989Z</time></trkpt><trkpt lat="44.3032955" lon="8.301268"><ele>443.0</ele><time>2026-04-26T09:13:02.99Z</time></trkpt><trkpt lat="44.3031932" lon="8.3012911"><ele>443.0</ele><time>2026-04-26T09:13:03.989Z</time></trkpt><trkpt lat="44.3031018" lon="8.3013721"><ele>443.0</ele><time>2026-04-26T09:13:04.989Z</time></trkpt><trkpt lat="44.3030344" lon="8.3015155"><ele>443.0</ele><time>2026-04-26T09:13:05.989Z</time></trkpt><trkpt lat="44.3029793" lon="8.301723"><ele>444.0</ele><time>2026-04-26T09:13:06.989Z</time></trkpt><trkpt lat="44.302916" lon="8.3019795"><ele>445.0</ele><time>2026-04-26T09:13:07.989Z</time></trkpt><trkpt lat="44.302843" lon="8.3022591"><ele>446.0</ele><time>2026-04-26T09:13:08.989Z</time></trkpt><trkpt lat="44.3027709" lon="8.3025306"><ele>446.0</ele><time>2026-04-26T09:13:09.989Z</time></trkpt><trkpt lat="44.3026895" lon="8.3027774"><ele>446.0</ele><time>2026-04-26T09:13:10.989Z</time></trkpt><trkpt lat="44.3025993" lon="8.303011"><ele>446.0</ele><time>2026-04-26T09:13:11.989Z</time></trkpt><trkpt lat="44.3024855" lon="8.3032145"><ele>447.0</ele><time>2026-04-26T09:13:12.989Z</time></trkpt><trkpt lat="44.3023586" lon="8.3033881"><ele>448.0</ele><time>2026-04-26T09:13:13.989Z</time></trkpt><trkpt lat="44.302231" lon="8.3035104"><ele>449.0</ele><time>2026-04-26T09:13:14.989Z</time></trkpt><trkpt lat="44.3020996" lon="8.3035945"><ele>449.0</ele><time>2026-04-26T09:13:15.989Z</time></trkpt><trkpt lat="44.3019552" lon="8.303616"><ele>449.0</ele><time>2026-04-26T09:13:16.989Z</time></trkpt><trkpt lat="44.3018053" lon="8.303605"><ele>449.0</ele><time>2026-04-26T09:13:17.989Z</time></trkpt><trkpt lat="44.3016543" lon="8.3035471"><ele>449.0</ele><time>2026-04-26T09:13:18.989Z</time></trkpt><trkpt lat="44.3015063" lon="8.3034837"><ele>449.0</ele><time>2026-04-26T09:13:19.989Z</time></trkpt><trkpt lat="44.3013534" lon="8.303454"><ele>449.0</ele><time>2026-04-26T09:13:20.989Z</time></trkpt><trkpt lat="44.3011963" lon="8.3034672"><ele>448.66666666666663</ele><time>2026-04-26T09:13:21.989Z</time></trkpt><trkpt lat="44.3010341" lon="8.3035364"><ele>448.33333333333337</ele><time>2026-04-26T09:13:22.99Z</time></trkpt><trkpt lat="44.3008709" lon="8.3036434"><ele>448.0</ele><time>2026-04-26T09:13:23.989Z</time></trkpt><trkpt lat="44.3006946" lon="8.3037447"><ele>447.0</ele><time>2026-04-26T09:13:24.989Z</time></trkpt><trkpt lat="44.3005116" lon="8.3038133"><ele>446.0</ele><time>2026-04-26T09:13:25.989Z</time></trkpt><trkpt lat="44.3003402" lon="8.3038567"><ele>445.0</ele><time>2026-04-26T09:13:26.989Z</time></trkpt><trkpt lat="44.3001597" lon="8.3038518"><ele>445.0</ele><time>2026-04-26T09:13:27.989Z</time></trkpt><trkpt lat="44.2999937" lon="8.3038184"><ele>445.0</ele><time>2026-04-26T09:13:28.989Z</time></trkpt><trkpt lat="44.299834" lon="8.3037604"><ele>445.0</ele><time>2026-04-26T09:13:29.989Z</time></trkpt><trkpt lat="44.2996976" lon="8.3037237"><ele>445.5</ele><time>2026-04-26T09:13:30.989Z</time></trkpt><trkpt lat="44.2995633" lon="8.3037208"><ele>446.0</ele><time>2026-04-26T09:13:31.989Z</time></trkpt><trkpt lat="44.2994251" lon="8.3037782"><ele>446.5</ele><time>2026-04-26T09:13:32.989Z</time></trkpt><trkpt lat="44.2992752" lon="8.3038693"><ele>447.0</ele><time>2026-04-26T09:13:33.989Z</time></trkpt><trkpt lat="44.2990994" lon="8.3039529"><ele>450.0</ele><time>2026-04-26T09:13:34.989Z</time></trkpt><trkpt lat="44.2989059" lon="8.3039928"><ele>453.0</ele><time>2026-04-26T09:13:35.99Z</time></trkpt><trkpt lat="44.2986981" lon="8.3040008"><ele>456.0</ele><time>2026-04-26T09:13:36.989Z</time></trkpt><trkpt lat="44.2984853" lon="8.3040079"><ele>456.0</ele><time>2026-04-26T09:13:37.989Z</time></trkpt><trkpt lat="44.2982963" lon="8.3040351"><ele>456.0</ele><time>2026-04-26T09:13:38.989Z</time></trkpt><trkpt lat="44.2981367" lon="8.3040741"><ele>456.0</ele><time>2026-04-26T09:13:39.989Z</time></trkpt><trkpt lat="44.2979982" lon="8.3041066"><ele>456.25</ele><time>2026-04-26T09:13:40.989Z</time></trkpt><trkpt lat="44.2978696" lon="8.3041166"><ele>456.5</ele><time>2026-04-26T09:13:41.989Z</time></trkpt><trkpt lat="44.2977482" lon="8.3040971"><ele>456.75</ele><time>2026-04-26T09:13:42.989Z</time></trkpt><trkpt lat="44.297636" lon="8.3040405"><ele>457.0</ele><time>2026-04-26T09:13:43.989Z</time></trkpt><trkpt lat="44.2975209" lon="8.3039616"><ele>457.0</ele><time>2026-04-26T09:13:44.99Z</time></trkpt><trkpt lat="44.2973956" lon="8.3038494"><ele>457.0</ele><time>2026-04-26T09:13:45.989Z</time></trkpt><trkpt lat="44.2972553" lon="8.3037128"><ele>457.0</ele><time>2026-04-26T09:13:46.989Z</time></trkpt><trkpt lat="44.2971009" lon="8.3035471"><ele>457.0</ele><time>2026-04-26T09:13:47.99Z</time></trkpt><trkpt lat="44.2969377" lon="8.3033831"><ele>457.0</ele><time>2026-04-26T09:13:48.989Z</time></trkpt><trkpt lat="44.2967612" lon="8.3032086"><ele>457.0</ele><time>2026-04-26T09:13:49.989Z</time></trkpt><trkpt lat="44.2965804" lon="8.3030204"><ele>457.0</ele><time>2026-04-26T09:13:50.99Z</time></trkpt><trkpt lat="44.2964045" lon="8.30284"><ele>457.0</ele><time>2026-04-26T09:13:51.989Z</time></trkpt><trkpt lat="44.2962404" lon="8.3026735"><ele>457.0</ele><time>2026-04-26T09:13:52.989Z</time></trkpt><trkpt lat="44.2960908" lon="8.3025308"><ele>457.0</ele><time>2026-04-26T09:13:53.989Z</time></trkpt><trkpt lat="44.2959531" lon="8.3024078"><ele>457.0</ele><time>2026-04-26T09:13:54.989Z</time></trkpt><trkpt lat="44.2958223" lon="8.3023036"><ele>457.0</ele><time>2026-04-26T09:13:55.989Z</time></trkpt><trkpt lat="44.2956826" lon="8.3022403"><ele>456.33333333333337</ele><time>2026-04-26T09:13:56.989Z</time></trkpt><trkpt lat="44.2955195" lon="8.3022078"><ele>455.66666666666663</ele><time>2026-04-26T09:13:57.99Z</time></trkpt><trkpt lat="44.2953459" lon="8.3021851"><ele>455.0</ele><time>2026-04-26T09:13:58.989Z</time></trkpt><trkpt lat="44.2951671" lon="8.3021422"><ele>455.0</ele><time>2026-04-26T09:13:59.989Z</time></trkpt><trkpt lat="44.2949901" lon="8.3020419"><ele>455.0</ele><time>2026-04-26T09:14:00.989Z</time></trkpt><trkpt lat="44.2948156" lon="8.3018997"><ele>455.0</ele><time>2026-04-26T09:14:01.989Z</time></trkpt><trkpt lat="44.2946334" lon="8.3017263"><ele>455.0</ele><time>2026-04-26T09:14:02.989Z</time></trkpt><trkpt lat="44.2944471" lon="8.3015611"><ele>455.0</ele><time>2026-04-26T09:14:03.989Z</time></trkpt><trkpt lat="44.2942694" lon="8.3014259"><ele>455.0</ele><time>2026-04-26T09:14:04.99Z</time></trkpt><trkpt lat="44.2941271" lon="8.3012743"><ele>455.0</ele><time>2026-04-26T09:14:05.989Z</time></trkpt><trkpt lat="44.2940051" lon="8.3011217"><ele>455.0</ele><time>2026-04-26T09:14:06.989Z</time></trkpt><trkpt lat="44.2939102" lon="8.3009599"><ele>455.0</ele><time>2026-04-26T09:14:07.989Z</time></trkpt><trkpt lat="44.2938358" lon="8.3007923"><ele>456.0</ele><time>2026-04-26T09:14:08.989Z</time></trkpt><trkpt lat="44.2937459" lon="8.3006351"><ele>457.0</ele><time>2026-04-26T09:14:09.989Z</time></trkpt><trkpt lat="44.2936681" lon="8.3004772"><ele>458.0</ele><time>2026-04-26T09:14:10.989Z</time></trkpt><trkpt lat="44.2935918" lon="8.3003266"><ele>459.0</ele><time>2026-04-26T09:14:11.989Z</time></trkpt><trkpt lat="44.2935152" lon="8.3001925"><ele>459.0</ele><time>2026-04-26T09:14:12.989Z</time></trkpt><trkpt lat="44.2934431" lon="8.3000438"><ele>459.0</ele><time>2026-04-26T09:14:13.989Z</time></trkpt><trkpt lat="44.2933668" lon="8.2998997"><ele>459.0</ele><time>2026-04-26T09:14:14.989Z</time></trkpt><trkpt lat="44.293277" lon="8.2997633"><ele>459.0</ele><time>2026-04-26T09:14:15.989Z</time></trkpt><trkpt lat="44.2931888" lon="8.2996198"><ele>459.0</ele><time>2026-04-26T09:14:16.989Z</time></trkpt><trkpt lat="44.2930906" lon="8.2994984"><ele>459.0</ele><time>2026-04-26T09:14:17.989Z</time></trkpt><trkpt lat="44.2929738" lon="8.2994084"><ele>459.0</ele><time>2026-04-26T09:14:18.989Z</time></trkpt><trkpt lat="44.2928479" lon="8.299344"><ele>459.0</ele><time>2026-04-26T09:14:19.989Z</time></trkpt><trkpt lat="44.2927088" lon="8.2993154"><ele>459.0</ele><time>2026-04-26T09:14:20.989Z</time></trkpt><trkpt lat="44.2925597" lon="8.2993105"><ele>459.0</ele><time>2026-04-26T09:14:21.989Z</time></trkpt><trkpt lat="44.2924147" lon="8.2993149"><ele>459.0</ele><time>2026-04-26T09:14:22.989Z</time></trkpt><trkpt lat="44.2922651" lon="8.2993259"><ele>459.0</ele><time>2026-04-26T09:14:23.989Z</time></trkpt><trkpt lat="44.2921274" lon="8.2993404"><ele>459.5</ele><time>2026-04-26T09:14:24.989Z</time></trkpt><trkpt lat="44.2919956" lon="8.299345"><ele>460.0</ele><time>2026-04-26T09:14:25.989Z</time></trkpt><trkpt lat="44.2918596" lon="8.29933"><ele>460.5</ele><time>2026-04-26T09:14:26.989Z</time></trkpt><trkpt lat="44.29173" lon="8.2993239"><ele>461.0</ele><time>2026-04-26T09:14:27.989Z</time></trkpt><trkpt lat="44.2916082" lon="8.2993098"><ele>461.0</ele><time>2026-04-26T09:14:28.989Z</time></trkpt><trkpt lat="44.291484" lon="8.2992814"><ele>461.0</ele><time>2026-04-26T09:14:29.989Z</time></trkpt><trkpt lat="44.2913686" lon="8.2992357"><ele>461.0</ele><time>2026-04-26T09:14:30.989Z</time></trkpt><trkpt lat="44.2912706" lon="8.299142"><ele>461.0</ele><time>2026-04-26T09:14:31.99Z</time></trkpt><trkpt lat="44.2911776" lon="8.2990415"><ele>461.0</ele><time>2026-04-26T09:14:32.989Z</time></trkpt><trkpt lat="44.2910895" lon="8.2989277"><ele>461.0</ele><time>2026-04-26T09:14:33.989Z</time></trkpt><trkpt lat="44.291009" lon="8.2987901"><ele>461.0</ele><time>2026-04-26T09:14:34.989Z</time></trkpt><trkpt lat="44.2909336" lon="8.2986489"><ele>461.0</ele><time>2026-04-26T09:14:35.989Z</time></trkpt><trkpt lat="44.2908725" lon="8.2985072"><ele>460.5</ele><time>2026-04-26T09:14:36.989Z</time></trkpt><trkpt lat="44.290821" lon="8.2983503"><ele>460.0</ele><time>2026-04-26T09:14:37.99Z</time></trkpt><trkpt lat="44.2907858" lon="8.2981906"><ele>459.5</ele><time>2026-04-26T09:14:38.989Z</time></trkpt><trkpt lat="44.2907449" lon="8.2980404"><ele>459.0</ele><time>2026-04-26T09:14:39.989Z</time></trkpt><trkpt lat="44.2907106" lon="8.2978964"><ele>459.0</ele><time>2026-04-26T09:14:40.989Z</time></trkpt><trkpt lat="44.290681" lon="8.2977498"><ele>459.0</ele><time>2026-04-26T09:14:41.989Z</time></trkpt><trkpt lat="44.290651" lon="8.2976092"><ele>459.0</ele><time>2026-04-26T09:14:42.989Z</time></trkpt><trkpt lat="44.2906293" lon="8.2974776"><ele>459.0</ele><time>2026-04-26T09:14:43.989Z</time></trkpt><trkpt lat="44.2906155" lon="8.2973517"><ele>459.0</ele><time>2026-04-26T09:14:44.989Z</time></trkpt><trkpt lat="44.2906009" lon="8.2972282"><ele>459.6666666666667</ele><time>2026-04-26T09:14:45.989Z</time></trkpt><trkpt lat="44.2905842" lon="8.2971094"><ele>460.33333333333337</ele><time>2026-04-26T09:14:46.989Z</time></trkpt><trkpt lat="44.2905602" lon="8.2969962"><ele>461.0</ele><time>2026-04-26T09:14:47.989Z</time></trkpt><trkpt lat="44.2905295" lon="8.2968958"><ele>461.6666666666667</ele><time>2026-04-26T09:14:48.989Z</time></trkpt><trkpt lat="44.2905014" lon="8.2967904"><ele>462.33333333333337</ele><time>2026-04-26T09:14:49.989Z</time></trkpt><trkpt lat="44.290472" lon="8.2966727"><ele>463.0</ele><time>2026-04-26T09:14:50.989Z</time></trkpt><trkpt lat="44.2904347" lon="8.2965431"><ele>463.79999999999995</ele><time>2026-04-26T09:14:51.989Z</time></trkpt><trkpt lat="44.2903953" lon="8.2964018"><ele>464.59999999999997</ele><time>2026-04-26T09:14:52.989Z</time></trkpt><trkpt lat="44.2903566" lon="8.296252"><ele>465.40000000000003</ele><time>2026-04-26T09:14:53.989Z</time></trkpt><trkpt lat="44.2903229" lon="8.2960997"><ele>466.20000000000005</ele><time>2026-04-26T09:14:54.989Z</time></trkpt><trkpt lat="44.2902928" lon="8.2959609"><ele>467.0</ele><time>2026-04-26T09:14:55.988Z</time></trkpt><trkpt lat="44.2902662" lon="8.2958401"><ele>466.99999999999994</ele><time>2026-04-26T09:14:56.988Z</time></trkpt><trkpt lat="44.2902463" lon="8.2957358"><ele>467.0</ele><time>2026-04-26T09:14:57.988Z</time></trkpt><trkpt lat="44.2902263" lon="8.2955805"><ele>467.0</ele><time>2026-04-26T09:14:59.988Z</time></trkpt><trkpt lat="44.290294" lon="8.2954957"><ele>467.0</ele><time>2026-04-26T09:15:02.988Z</time></trkpt><trkpt lat="44.2903587" lon="8.2954817"><ele>466.99999999999994</ele><time>2026-04-26T09:15:03.988Z</time></trkpt><trkpt lat="44.2904377" lon="8.2954703"><ele>467.0</ele><time>2026-04-26T09:15:04.988Z</time></trkpt><trkpt lat="44.2905305" lon="8.2954376"><ele>467.0</ele><time>2026-04-26T09:15:05.988Z</time></trkpt><trkpt lat="44.2906214" lon="8.2954046"><ele>467.00000000000006</ele><time>2026-04-26T09:15:06.988Z</time></trkpt><trkpt lat="44.2907019" lon="8.2953441"><ele>467.00000000000006</ele><time>2026-04-26T09:15:07.988Z</time></trkpt><trkpt lat="44.2907812" lon="8.2952642"><ele>467.0</ele><time>2026-04-26T09:15:08.988Z</time></trkpt><trkpt lat="44.2908726" lon="8.2951603"><ele>467.0</ele><time>2026-04-26T09:15:09.988Z</time></trkpt><trkpt lat="44.2909884" lon="8.2950257"><ele>467.0</ele><time>2026-04-26T09:15:10.988Z</time></trkpt><trkpt lat="44.2911088" lon="8.2948929"><ele>467.0</ele><time>2026-04-26T09:15:11.988Z</time></trkpt><trkpt lat="44.2912208" lon="8.2947727"><ele>467.0</ele><time>2026-04-26T09:15:12.988Z</time></trkpt><trkpt lat="44.2913388" lon="8.2946668"><ele>467.0</ele><time>2026-04-26T09:15:13.988Z</time></trkpt><trkpt lat="44.2914366" lon="8.294541"><ele>464.5</ele><time>2026-04-26T09:15:14.988Z</time></trkpt><trkpt lat="44.2915245" lon="8.2943913"><ele>462.0</ele><time>2026-04-26T09:15:15.988Z</time></trkpt><trkpt lat="44.2915958" lon="8.2942162"><ele>459.5</ele><time>2026-04-26T09:15:16.989Z</time></trkpt><trkpt lat="44.291639" lon="8.2940114"><ele>457.0</ele><time>2026-04-26T09:15:17.988Z</time></trkpt><trkpt lat="44.2916564" lon="8.293777"><ele>457.0</ele><time>2026-04-26T09:15:18.989Z</time></trkpt><trkpt lat="44.2916732" lon="8.2935333"><ele>457.0</ele><time>2026-04-26T09:15:19.988Z</time></trkpt><trkpt lat="44.2916941" lon="8.2932865"><ele>457.0</ele><time>2026-04-26T09:15:20.989Z</time></trkpt><trkpt lat="44.2917478" lon="8.2930499"><ele>457.33333333333337</ele><time>2026-04-26T09:15:21.988Z</time></trkpt><trkpt lat="44.2918204" lon="8.2928251"><ele>457.66666666666663</ele><time>2026-04-26T09:15:22.988Z</time></trkpt><trkpt lat="44.2918981" lon="8.2926206"><ele>458.0</ele><time>2026-04-26T09:15:23.988Z</time></trkpt><trkpt lat="44.291986" lon="8.2924238"><ele>458.66666666666663</ele><time>2026-04-26T09:15:24.988Z</time></trkpt><trkpt lat="44.2920713" lon="8.2922224"><ele>459.33333333333337</ele><time>2026-04-26T09:15:25.988Z</time></trkpt><trkpt lat="44.2921639" lon="8.2920179"><ele>460.0</ele><time>2026-04-26T09:15:26.988Z</time></trkpt><trkpt lat="44.2922493" lon="8.2918245"><ele>461.0</ele><time>2026-04-26T09:15:27.988Z</time></trkpt><trkpt lat="44.2923256" lon="8.2916471"><ele>462.0</ele><time>2026-04-26T09:15:28.988Z</time></trkpt><trkpt lat="44.2923919" lon="8.2914882"><ele>463.0</ele><time>2026-04-26T09:15:29.988Z</time></trkpt><trkpt lat="44.2924534" lon="8.291327"><ele>464.0</ele><time>2026-04-26T09:15:30.988Z</time></trkpt><trkpt lat="44.292505" lon="8.2911533"><ele>464.0</ele><time>2026-04-26T09:15:31.988Z</time></trkpt><trkpt lat="44.292543" lon="8.2909638"><ele>464.0</ele><time>2026-04-26T09:15:32.989Z</time></trkpt><trkpt lat="44.2925583" lon="8.290747"><ele>464.0</ele><time>2026-04-26T09:15:33.988Z</time></trkpt><trkpt lat="44.2925654" lon="8.2905254"><ele>464.3333333333333</ele><time>2026-04-26T09:15:34.988Z</time></trkpt><trkpt lat="44.2925636" lon="8.2902855"><ele>464.66666666666663</ele><time>2026-04-26T09:15:35.988Z</time></trkpt><trkpt lat="44.2925684" lon="8.2900462"><ele>465.0</ele><time>2026-04-26T09:15:36.988Z</time></trkpt><trkpt lat="44.2925774" lon="8.2898131"><ele>465.66666666666663</ele><time>2026-04-26T09:15:37.988Z</time></trkpt><trkpt lat="44.2925841" lon="8.2895819"><ele>466.3333333333333</ele><time>2026-04-26T09:15:38.988Z</time></trkpt><trkpt lat="44.2925954" lon="8.2893549"><ele>467.0</ele><time>2026-04-26T09:15:39.988Z</time></trkpt><trkpt lat="44.2926025" lon="8.2891328"><ele>466.3333333333333</ele><time>2026-04-26T09:15:40.988Z</time></trkpt><trkpt lat="44.2926158" lon="8.2889163"><ele>465.66666666666663</ele><time>2026-04-26T09:15:41.988Z</time></trkpt><trkpt lat="44.2926365" lon="8.2887059"><ele>465.0</ele><time>2026-04-26T09:15:42.988Z</time></trkpt><trkpt lat="44.2926747" lon="8.2885077"><ele>465.0</ele><time>2026-04-26T09:15:43.988Z</time></trkpt><trkpt lat="44.2927386" lon="8.288314"><ele>465.0</ele><time>2026-04-26T09:15:44.988Z</time></trkpt><trkpt lat="44.2928158" lon="8.2881241"><ele>465.0</ele><time>2026-04-26T09:15:45.989Z</time></trkpt><trkpt lat="44.2928979" lon="8.2879368"><ele>464.66666666666663</ele><time>2026-04-26T09:15:46.988Z</time></trkpt><trkpt lat="44.2929883" lon="8.2877476"><ele>464.3333333333333</ele><time>2026-04-26T09:15:47.988Z</time></trkpt><trkpt lat="44.2930735" lon="8.2875716"><ele>464.0</ele><time>2026-04-26T09:15:48.988Z</time></trkpt><trkpt lat="44.2931551" lon="8.2874052"><ele>467.25</ele><time>2026-04-26T09:15:49.988Z</time></trkpt><trkpt lat="44.293227" lon="8.2872481"><ele>470.5</ele><time>2026-04-26T09:15:50.988Z</time></trkpt><trkpt lat="44.2932847" lon="8.2870665"><ele>473.75</ele><time>2026-04-26T09:15:51.989Z</time></trkpt><trkpt lat="44.2933331" lon="8.2868687"><ele>477.0</ele><time>2026-04-26T09:15:52.988Z</time></trkpt><trkpt lat="44.2933633" lon="8.2866482"><ele>479.0</ele><time>2026-04-26T09:15:53.988Z</time></trkpt><trkpt lat="44.2933728" lon="8.286417"><ele>481.0</ele><time>2026-04-26T09:15:54.988Z</time></trkpt><trkpt lat="44.2933554" lon="8.2861851"><ele>483.0</ele><time>2026-04-26T09:15:55.988Z</time></trkpt><trkpt lat="44.2933224" lon="8.2859527"><ele>483.0</ele><time>2026-04-26T09:15:56.988Z</time></trkpt><trkpt lat="44.2932596" lon="8.2857278"><ele>483.0</ele><time>2026-04-26T09:15:57.988Z</time></trkpt><trkpt lat="44.293164" lon="8.2855169"><ele>483.0</ele><time>2026-04-26T09:15:58.988Z</time></trkpt><trkpt lat="44.2930411" lon="8.2853131"><ele>480.66666666666663</ele><time>2026-04-26T09:15:59.988Z</time></trkpt><trkpt lat="44.2929047" lon="8.2851074"><ele>478.3333333333333</ele><time>2026-04-26T09:16:00.988Z</time></trkpt><trkpt lat="44.2927625" lon="8.2848982"><ele>476.0</ele><time>2026-04-26T09:16:01.988Z</time></trkpt><trkpt lat="44.2926201" lon="8.2846829"><ele>476.0</ele><time>2026-04-26T09:16:02.988Z</time></trkpt><trkpt lat="44.2924735" lon="8.2844653"><ele>476.0</ele><time>2026-04-26T09:16:03.988Z</time></trkpt><trkpt lat="44.2923351" lon="8.2842436"><ele>476.0</ele><time>2026-04-26T09:16:04.988Z</time></trkpt><trkpt lat="44.2921988" lon="8.2840262"><ele>477.0</ele><time>2026-04-26T09:16:05.988Z</time></trkpt><trkpt lat="44.2920544" lon="8.2838212"><ele>478.0</ele><time>2026-04-26T09:16:06.988Z</time></trkpt><trkpt lat="44.2918934" lon="8.2836311"><ele>479.0</ele><time>2026-04-26T09:16:07.988Z</time></trkpt><trkpt lat="44.2917271" lon="8.2834569"><ele>479.0</ele><time>2026-04-26T09:16:08.988Z</time></trkpt><trkpt lat="44.2915551" lon="8.2832873"><ele>479.0</ele><time>2026-04-26T09:16:09.988Z</time></trkpt><trkpt lat="44.291376" lon="8.2831268"><ele>479.0</ele><time>2026-04-26T09:16:10.989Z</time></trkpt><trkpt lat="44.2911884" lon="8.2829708"><ele>480.3333333333333</ele><time>2026-04-26T09:16:11.988Z</time></trkpt><trkpt lat="44.2910031" lon="8.2828105"><ele>481.66666666666663</ele><time>2026-04-26T09:16:12.988Z</time></trkpt><trkpt lat="44.2908192" lon="8.2826336"><ele>483.0</ele><time>2026-04-26T09:16:13.988Z</time></trkpt><trkpt lat="44.290637" lon="8.2824586"><ele>483.0</ele><time>2026-04-26T09:16:14.988Z</time></trkpt><trkpt lat="44.2904598" lon="8.2822797"><ele>483.0</ele><time>2026-04-26T09:16:15.988Z</time></trkpt><trkpt lat="44.2903008" lon="8.2821126"><ele>483.0</ele><time>2026-04-26T09:16:16.988Z</time></trkpt><trkpt lat="44.2901482" lon="8.2819596"><ele>483.0</ele><time>2026-04-26T09:16:17.988Z</time></trkpt><trkpt lat="44.2900039" lon="8.2818301"><ele>483.0</ele><time>2026-04-26T09:16:18.988Z</time></trkpt><trkpt lat="44.2898591" lon="8.2816994"><ele>483.0</ele><time>2026-04-26T09:16:19.988Z</time></trkpt><trkpt lat="44.2897219" lon="8.2815502"><ele>485.0</ele><time>2026-04-26T09:16:20.988Z</time></trkpt><trkpt lat="44.2895881" lon="8.2813972"><ele>487.0</ele><time>2026-04-26T09:16:21.988Z</time></trkpt><trkpt lat="44.2894458" lon="8.2812433"><ele>489.0</ele><time>2026-04-26T09:16:22.988Z</time></trkpt><trkpt lat="44.2892874" lon="8.2811063"><ele>489.0</ele><time>2026-04-26T09:16:23.988Z</time></trkpt><trkpt lat="44.2891212" lon="8.2809869"><ele>489.0</ele><time>2026-04-26T09:16:24.988Z</time></trkpt><trkpt lat="44.288954" lon="8.2808894"><ele>489.0</ele><time>2026-04-26T09:16:25.988Z</time></trkpt><trkpt lat="44.2887872" lon="8.2808197"><ele>490.66666666666663</ele><time>2026-04-26T09:16:26.988Z</time></trkpt><trkpt lat="44.2886194" lon="8.2807547"><ele>492.3333333333333</ele><time>2026-04-26T09:16:27.988Z</time></trkpt><trkpt lat="44.2884529" lon="8.2806636"><ele>494.0</ele><time>2026-04-26T09:16:28.988Z</time></trkpt><trkpt lat="44.2882681" lon="8.2805509"><ele>490.3333333333333</ele><time>2026-04-26T09:16:29.988Z</time></trkpt><trkpt lat="44.2880834" lon="8.2804391"><ele>486.66666666666663</ele><time>2026-04-26T09:16:30.988Z</time></trkpt><trkpt lat="44.2878986" lon="8.2803239"><ele>483.0</ele><time>2026-04-26T09:16:31.988Z</time></trkpt><trkpt lat="44.2877197" lon="8.2802185"><ele>483.0</ele><time>2026-04-26T09:16:32.989Z</time></trkpt><trkpt lat="44.2875542" lon="8.2801319"><ele>483.0</ele><time>2026-04-26T09:16:33.988Z</time></trkpt><trkpt lat="44.2874043" lon="8.2800428"><ele>483.0</ele><time>2026-04-26T09:16:34.988Z</time></trkpt><trkpt lat="44.2872668" lon="8.2799498"><ele>483.0</ele><time>2026-04-26T09:16:35.988Z</time></trkpt><trkpt lat="44.2871424" lon="8.2798644"><ele>483.0</ele><time>2026-04-26T09:16:36.988Z</time></trkpt><trkpt lat="44.2870339" lon="8.2797564"><ele>483.0</ele><time>2026-04-26T09:16:37.988Z</time></trkpt><trkpt lat="44.2869596" lon="8.2796145"><ele>483.0</ele><time>2026-04-26T09:16:38.988Z</time></trkpt><trkpt lat="44.2869052" lon="8.2794447"><ele>483.0</ele><time>2026-04-26T09:16:39.988Z</time></trkpt><trkpt lat="44.2868545" lon="8.2792394"><ele>483.0</ele><time>2026-04-26T09:16:40.988Z</time></trkpt><trkpt lat="44.2867959" lon="8.2790064"><ele>483.0</ele><time>2026-04-26T09:16:41.988Z</time></trkpt><trkpt lat="44.2867324" lon="8.2787626"><ele>485.33333333333337</ele><time>2026-04-26T09:16:42.988Z</time></trkpt><trkpt lat="44.2866615" lon="8.2785128"><ele>487.6666666666667</ele><time>2026-04-26T09:16:43.988Z</time></trkpt><trkpt lat="44.2865857" lon="8.2782677"><ele>490.0</ele><time>2026-04-26T09:16:44.988Z</time></trkpt><trkpt lat="44.2865039" lon="8.2780293"><ele>488.6666666666667</ele><time>2026-04-26T09:16:45.988Z</time></trkpt><trkpt lat="44.2864122" lon="8.2778147"><ele>487.33333333333337</ele><time>2026-04-26T09:16:46.988Z</time></trkpt><trkpt lat="44.2863345" lon="8.2775735"><ele>486.0</ele><time>2026-04-26T09:16:47.988Z</time></trkpt><trkpt lat="44.2862818" lon="8.2773262"><ele>487.0</ele><time>2026-04-26T09:16:48.988Z</time></trkpt><trkpt lat="44.2862405" lon="8.2770689"><ele>488.0</ele><time>2026-04-26T09:16:49.988Z</time></trkpt><trkpt lat="44.2861924" lon="8.2768289"><ele>489.0</ele><time>2026-04-26T09:16:50.988Z</time></trkpt><trkpt lat="44.2861373" lon="8.2766189"><ele>490.0</ele><time>2026-04-26T09:16:51.988Z</time></trkpt><trkpt lat="44.2860876" lon="8.2764136"><ele>491.0</ele><time>2026-04-26T09:16:52.988Z</time></trkpt><trkpt lat="44.2860372" lon="8.2762085"><ele>492.0</ele><time>2026-04-26T09:16:53.988Z</time></trkpt><trkpt lat="44.2859903" lon="8.2760079"><ele>492.0</ele><time>2026-04-26T09:16:54.988Z</time></trkpt><trkpt lat="44.285953" lon="8.2758188"><ele>492.0</ele><time>2026-04-26T09:16:55.988Z</time></trkpt><trkpt lat="44.2859327" lon="8.2756298"><ele>492.0</ele><time>2026-04-26T09:16:56.988Z</time></trkpt><trkpt lat="44.2859281" lon="8.2754215"><ele>492.0</ele><time>2026-04-26T09:16:57.988Z</time></trkpt><trkpt lat="44.2859378" lon="8.2751932"><ele>493.33333333333337</ele><time>2026-04-26T09:16:58.988Z</time></trkpt><trkpt lat="44.2859508" lon="8.2749534"><ele>494.6666666666667</ele><time>2026-04-26T09:16:59.988Z</time></trkpt><trkpt lat="44.2859615" lon="8.2747037"><ele>496.0</ele><time>2026-04-26T09:17:00.988Z</time></trkpt><trkpt lat="44.2859596" lon="8.2744503"><ele>498.0</ele><time>2026-04-26T09:17:01.988Z</time></trkpt><trkpt lat="44.2859559" lon="8.274213"><ele>500.0</ele><time>2026-04-26T09:17:02.988Z</time></trkpt><trkpt lat="44.285941" lon="8.2740066"><ele>502.0</ele><time>2026-04-26T09:17:03.988Z</time></trkpt><trkpt lat="44.2859288" lon="8.2738156"><ele>503.0</ele><time>2026-04-26T09:17:04.988Z</time></trkpt><trkpt lat="44.2858897" lon="8.2736265"><ele>504.0</ele><time>2026-04-26T09:17:05.988Z</time></trkpt><trkpt lat="44.2858217" lon="8.2734554"><ele>505.0</ele><time>2026-04-26T09:17:06.988Z</time></trkpt><trkpt lat="44.2856953" lon="8.2733467"><ele>506.0</ele><time>2026-04-26T09:17:07.989Z</time></trkpt><trkpt lat="44.2855577" lon="8.2732639"><ele>506.0</ele><time>2026-04-26T09:17:08.989Z</time></trkpt><trkpt lat="44.2854019" lon="8.2731935"><ele>506.0</ele><time>2026-04-26T09:17:09.988Z</time></trkpt><trkpt lat="44.2852509" lon="8.2731157"><ele>506.0</ele><time>2026-04-26T09:17:10.988Z</time></trkpt><trkpt lat="44.28509" lon="8.2730297"><ele>508.3333333333333</ele><time>2026-04-26T09:17:11.988Z</time></trkpt><trkpt lat="44.2849235" lon="8.2729364"><ele>510.66666666666663</ele><time>2026-04-26T09:17:12.989Z</time></trkpt><trkpt lat="44.2847526" lon="8.2728412"><ele>513.0</ele><time>2026-04-26T09:17:13.988Z</time></trkpt><trkpt lat="44.2845785" lon="8.2727439"><ele>513.0</ele><time>2026-04-26T09:17:14.988Z</time></trkpt><trkpt lat="44.2844055" lon="8.2726889"><ele>513.0</ele><time>2026-04-26T09:17:15.988Z</time></trkpt><trkpt lat="44.2842489" lon="8.2726298"><ele>513.0</ele><time>2026-04-26T09:17:16.988Z</time></trkpt><trkpt lat="44.2841023" lon="8.2726265"><ele>513.0</ele><time>2026-04-26T09:17:17.988Z</time></trkpt><trkpt lat="44.2839985" lon="8.2725451"><ele>513.0</ele><time>2026-04-26T09:17:18.988Z</time></trkpt><trkpt lat="44.2839241" lon="8.2724005"><ele>513.0</ele><time>2026-04-26T09:17:19.989Z</time></trkpt><trkpt lat="44.2838791" lon="8.2722339"><ele>513.0</ele><time>2026-04-26T09:17:20.989Z</time></trkpt><trkpt lat="44.2838436" lon="8.2720355"><ele>513.75</ele><time>2026-04-26T09:17:21.988Z</time></trkpt><trkpt lat="44.2838" lon="8.2718306"><ele>514.5</ele><time>2026-04-26T09:17:22.988Z</time></trkpt><trkpt lat="44.2837421" lon="8.271639"><ele>515.25</ele><time>2026-04-26T09:17:23.988Z</time></trkpt><trkpt lat="44.2836637" lon="8.2714684"><ele>516.0</ele><time>2026-04-26T09:17:24.988Z</time></trkpt><trkpt lat="44.2835565" lon="8.271329"><ele>527.0</ele><time>2026-04-26T09:17:25.988Z</time></trkpt><trkpt lat="44.2834289" lon="8.2712127"><ele>538.0</ele><time>2026-04-26T09:17:26.988Z</time></trkpt><trkpt lat="44.2832901" lon="8.2710978"><ele>549.0</ele><time>2026-04-26T09:17:27.988Z</time></trkpt><trkpt lat="44.2831428" lon="8.2710248"><ele>542.75</ele><time>2026-04-26T09:17:28.988Z</time></trkpt><trkpt lat="44.283001" lon="8.270992"><ele>536.5</ele><time>2026-04-26T09:17:29.988Z</time></trkpt><trkpt lat="44.2828739" lon="8.2709631"><ele>530.25</ele><time>2026-04-26T09:17:30.989Z</time></trkpt><trkpt lat="44.2827741" lon="8.2709219"><ele>524.0</ele><time>2026-04-26T09:17:31.988Z</time></trkpt><trkpt lat="44.2827121" lon="8.2708546"><ele>524.0</ele><time>2026-04-26T09:17:32.988Z</time></trkpt><trkpt lat="44.2826873" lon="8.2707627"><ele>524.0</ele><time>2026-04-26T09:17:33.988Z</time></trkpt><trkpt lat="44.2827362" lon="8.2706072"><ele>524.0</ele><time>2026-04-26T09:17:34.988Z</time></trkpt><trkpt lat="44.2828011" lon="8.2704464"><ele>524.0</ele><time>2026-04-26T09:17:35.988Z</time></trkpt><trkpt lat="44.2828825" lon="8.2702671"><ele>523.0</ele><time>2026-04-26T09:17:36.988Z</time></trkpt><trkpt lat="44.2829707" lon="8.2700762"><ele>522.0</ele><time>2026-04-26T09:17:37.989Z</time></trkpt><trkpt lat="44.2830342" lon="8.2698733"><ele>521.0</ele><time>2026-04-26T09:17:38.989Z</time></trkpt><trkpt lat="44.2830943" lon="8.2696753"><ele>527.0</ele><time>2026-04-26T09:17:39.988Z</time></trkpt><trkpt lat="44.2831596" lon="8.2694825"><ele>533.0</ele><time>2026-04-26T09:17:40.988Z</time></trkpt><trkpt lat="44.2832441" lon="8.269326"><ele>539.0</ele><time>2026-04-26T09:17:41.988Z</time></trkpt><trkpt lat="44.2833535" lon="8.2691921"><ele>545.0</ele><time>2026-04-26T09:17:42.988Z</time></trkpt><trkpt lat="44.2834671" lon="8.269053"><ele>545.25</ele><time>2026-04-26T09:17:43.988Z</time></trkpt><trkpt lat="44.2835573" lon="8.2688997"><ele>545.5</ele><time>2026-04-26T09:17:44.988Z</time></trkpt><trkpt lat="44.2836042" lon="8.2687249"><ele>545.75</ele><time>2026-04-26T09:17:45.988Z</time></trkpt><trkpt lat="44.2836343" lon="8.2685219"><ele>546.0</ele><time>2026-04-26T09:17:46.989Z</time></trkpt><trkpt lat="44.2836427" lon="8.2682936"><ele>548.3333333333334</ele><time>2026-04-26T09:17:47.988Z</time></trkpt><trkpt lat="44.2836267" lon="8.2680339"><ele>550.6666666666667</ele><time>2026-04-26T09:17:48.988Z</time></trkpt><trkpt lat="44.2835889" lon="8.2677615"><ele>553.0</ele><time>2026-04-26T09:17:49.988Z</time></trkpt><trkpt lat="44.2835529" lon="8.2674713"><ele>555.3333333333334</ele><time>2026-04-26T09:17:50.988Z</time></trkpt><trkpt lat="44.2835123" lon="8.2671793"><ele>557.6666666666666</ele><time>2026-04-26T09:17:51.988Z</time></trkpt><trkpt lat="44.2834618" lon="8.2668897"><ele>560.0</ele><time>2026-04-26T09:17:52.988Z</time></trkpt><trkpt lat="44.2834336" lon="8.2666012"><ele>560.6666666666666</ele><time>2026-04-26T09:17:53.988Z</time></trkpt><trkpt lat="44.2834117" lon="8.2663336"><ele>561.3333333333334</ele><time>2026-04-26T09:17:54.988Z</time></trkpt><trkpt lat="44.2833835" lon="8.2660889"><ele>562.0</ele><time>2026-04-26T09:17:55.988Z</time></trkpt><trkpt lat="44.2833712" lon="8.2658456"><ele>562.0</ele><time>2026-04-26T09:17:56.988Z</time></trkpt><trkpt lat="44.2833709" lon="8.2656133"><ele>562.0</ele><time>2026-04-26T09:17:57.988Z</time></trkpt><trkpt lat="44.2833872" lon="8.265414"><ele>562.0</ele><time>2026-04-26T09:17:58.988Z</time></trkpt><trkpt lat="44.2834177" lon="8.2652449"><ele>562.0</ele><time>2026-04-26T09:17:59.989Z</time></trkpt><trkpt lat="44.2834608" lon="8.2650941"><ele>563.25</ele><time>2026-04-26T09:18:00.988Z</time></trkpt><trkpt lat="44.2834878" lon="8.2649459"><ele>564.5</ele><time>2026-04-26T09:18:01.988Z</time></trkpt><trkpt lat="44.2834986" lon="8.2647871"><ele>565.75</ele><time>2026-04-26T09:18:02.988Z</time></trkpt><trkpt lat="44.2834805" lon="8.2646062"><ele>567.0</ele><time>2026-04-26T09:18:03.989Z</time></trkpt><trkpt lat="44.2834507" lon="8.2643876"><ele>570.3333333333334</ele><time>2026-04-26T09:18:04.988Z</time></trkpt><trkpt lat="44.283429" lon="8.2641602"><ele>573.6666666666667</ele><time>2026-04-26T09:18:05.988Z</time></trkpt><trkpt lat="44.2834167" lon="8.2639318"><ele>577.0</ele><time>2026-04-26T09:18:06.988Z</time></trkpt><trkpt lat="44.2833961" lon="8.263718"><ele>580.5</ele><time>2026-04-26T09:18:07.988Z</time></trkpt><trkpt lat="44.2833598" lon="8.2635336"><ele>584.0</ele><time>2026-04-26T09:18:08.988Z</time></trkpt><trkpt lat="44.2833039" lon="8.263366"><ele>587.5</ele><time>2026-04-26T09:18:09.988Z</time></trkpt><trkpt lat="44.2832289" lon="8.2632005"><ele>591.0</ele><time>2026-04-26T09:18:10.988Z</time></trkpt><trkpt lat="44.2831429" lon="8.2630695"><ele>591.0</ele><time>2026-04-26T09:18:11.988Z</time></trkpt><trkpt lat="44.2830665" lon="8.2629764"><ele>591.0</ele><time>2026-04-26T09:18:12.988Z</time></trkpt><trkpt lat="44.2830442" lon="8.2628866"><ele>591.0</ele><time>2026-04-26T09:18:13.988Z</time></trkpt><trkpt lat="44.2830595" lon="8.2627921"><ele>591.0</ele><time>2026-04-26T09:18:14.988Z</time></trkpt><trkpt lat="44.2831102" lon="8.2626982"><ele>591.0</ele><time>2026-04-26T09:18:15.989Z</time></trkpt><trkpt lat="44.283187" lon="8.2626221"><ele>591.0</ele><time>2026-04-26T09:18:16.988Z</time></trkpt><trkpt lat="44.283308" lon="8.2625711"><ele>591.0</ele><time>2026-04-26T09:18:17.988Z</time></trkpt><trkpt lat="44.2834571" lon="8.2625434"><ele>591.0</ele><time>2026-04-26T09:18:18.988Z</time></trkpt><trkpt lat="44.283639" lon="8.2625553"><ele>591.0</ele><time>2026-04-26T09:18:19.988Z</time></trkpt><trkpt lat="44.2838082" lon="8.2625634"><ele>589.25</ele><time>2026-04-26T09:18:20.988Z</time></trkpt><trkpt lat="44.2839591" lon="8.2625508"><ele>587.5</ele><time>2026-04-26T09:18:21.988Z</time></trkpt><trkpt lat="44.284095" lon="8.2625085"><ele>585.75</ele><time>2026-04-26T09:18:22.988Z</time></trkpt><trkpt lat="44.2842217" lon="8.2624413"><ele>584.0</ele><time>2026-04-26T09:18:23.988Z</time></trkpt><trkpt lat="44.2843391" lon="8.2623585"><ele>579.25</ele><time>2026-04-26T09:18:24.988Z</time></trkpt><trkpt lat="44.2844612" lon="8.2622723"><ele>574.5</ele><time>2026-04-26T09:18:25.988Z</time></trkpt><trkpt lat="44.2845801" lon="8.2622057"><ele>569.75</ele><time>2026-04-26T09:18:26.988Z</time></trkpt><trkpt lat="44.2846926" lon="8.2621691"><ele>565.0</ele><time>2026-04-26T09:18:27.988Z</time></trkpt><trkpt lat="44.2847869" lon="8.2621584"><ele>565.0</ele><time>2026-04-26T09:18:28.988Z</time></trkpt><trkpt lat="44.2848649" lon="8.262156"><ele>565.0</ele><time>2026-04-26T09:18:29.988Z</time></trkpt><trkpt lat="44.2849716" lon="8.2621013"><ele>565.0</ele><time>2026-04-26T09:18:31.988Z</time></trkpt><trkpt lat="44.2850166" lon="8.2619757"><ele>565.0</ele><time>2026-04-26T09:18:33.989Z</time></trkpt><trkpt lat="44.2849337" lon="8.2618648"><ele>565.0</ele><time>2026-04-26T09:18:35.988Z</time></trkpt><trkpt lat="44.2848305" lon="8.2618555"><ele>564.25</ele><time>2026-04-26T09:18:36.989Z</time></trkpt><trkpt lat="44.284704" lon="8.2618846"><ele>563.5</ele><time>2026-04-26T09:18:37.988Z</time></trkpt><trkpt lat="44.2845771" lon="8.2619232"><ele>562.75</ele><time>2026-04-26T09:18:38.988Z</time></trkpt><trkpt lat="44.2844624" lon="8.2619485"><ele>562.0</ele><time>2026-04-26T09:18:39.988Z</time></trkpt><trkpt lat="44.2843638" lon="8.2619601"><ele>562.0</ele><time>2026-04-26T09:18:40.988Z</time></trkpt><trkpt lat="44.2842792" lon="8.2619275"><ele>562.0</ele><time>2026-04-26T09:18:41.988Z</time></trkpt><trkpt lat="44.2842225" lon="8.2618812"><ele>562.0</ele><time>2026-04-26T09:18:42.988Z</time></trkpt><trkpt lat="44.2842247" lon="8.2617773"><ele>562.0</ele><time>2026-04-26T09:18:44.988Z</time></trkpt><trkpt lat="44.2842906" lon="8.2617276"><ele>562.0</ele><time>2026-04-26T09:18:45.988Z</time></trkpt><trkpt lat="44.2843916" lon="8.2616728"><ele>562.0</ele><time>2026-04-26T09:18:46.988Z</time></trkpt><trkpt lat="44.2845383" lon="8.2615925"><ele>562.0</ele><time>2026-04-26T09:18:47.988Z</time></trkpt><trkpt lat="44.2847041" lon="8.2615089"><ele>562.0</ele><time>2026-04-26T09:18:48.989Z</time></trkpt><trkpt lat="44.2848812" lon="8.2614413"><ele>562.0</ele><time>2026-04-26T09:18:49.988Z</time></trkpt><trkpt lat="44.2850346" lon="8.2613934"><ele>556.0</ele><time>2026-04-26T09:18:50.988Z</time></trkpt><trkpt lat="44.28517" lon="8.2613565"><ele>550.0</ele><time>2026-04-26T09:18:51.988Z</time></trkpt><trkpt lat="44.2853101" lon="8.2613442"><ele>544.0</ele><time>2026-04-26T09:18:52.988Z</time></trkpt><trkpt lat="44.2854509" lon="8.2613366"><ele>538.0</ele><time>2026-04-26T09:18:53.988Z</time></trkpt><trkpt lat="44.2855964" lon="8.2613287"><ele>538.0</ele><time>2026-04-26T09:18:54.988Z</time></trkpt><trkpt lat="44.2857307" lon="8.2613199"><ele>538.0</ele><time>2026-04-26T09:18:55.988Z</time></trkpt><trkpt lat="44.2858378" lon="8.2613101"><ele>538.0</ele><time>2026-04-26T09:18:56.989Z</time></trkpt><trkpt lat="44.2859133" lon="8.2612972"><ele>538.0</ele><time>2026-04-26T09:18:57.988Z</time></trkpt><trkpt lat="44.2860046" lon="8.2612218"><ele>538.0</ele><time>2026-04-26T09:18:59.988Z</time></trkpt><trkpt lat="44.2860162" lon="8.2610945"><ele>538.0</ele><time>2026-04-26T09:19:01.989Z</time></trkpt><trkpt lat="44.2859665" lon="8.2610135"><ele>538.0</ele><time>2026-04-26T09:19:02.988Z</time></trkpt><trkpt lat="44.2858944" lon="8.2609214"><ele>538.0</ele><time>2026-04-26T09:19:03.988Z</time></trkpt><trkpt lat="44.2857918" lon="8.2608157"><ele>538.0</ele><time>2026-04-26T09:19:04.988Z</time></trkpt><trkpt lat="44.2856745" lon="8.2607196"><ele>538.0</ele><time>2026-04-26T09:19:05.988Z</time></trkpt><trkpt lat="44.28555" lon="8.2606587"><ele>538.0</ele><time>2026-04-26T09:19:06.988Z</time></trkpt><trkpt lat="44.2854202" lon="8.260641"><ele>538.0</ele><time>2026-04-26T09:19:07.988Z</time></trkpt><trkpt lat="44.2852899" lon="8.2606535"><ele>538.0</ele><time>2026-04-26T09:19:08.988Z</time></trkpt><trkpt lat="44.285153" lon="8.2606932"><ele>538.0</ele><time>2026-04-26T09:19:09.988Z</time></trkpt><trkpt lat="44.2850445" lon="8.2607308"><ele>538.0</ele><time>2026-04-26T09:19:10.988Z</time></trkpt><trkpt lat="44.2849402" lon="8.260749"><ele>538.0</ele><time>2026-04-26T09:19:11.988Z</time></trkpt><trkpt lat="44.2848505" lon="8.2607516"><ele>538.0</ele><time>2026-04-26T09:19:12.988Z</time></trkpt><trkpt lat="44.2847797" lon="8.260722"><ele>538.0</ele><time>2026-04-26T09:19:13.988Z</time></trkpt><trkpt lat="44.2847454" lon="8.2606362"><ele>538.0</ele><time>2026-04-26T09:19:15.988Z</time></trkpt><trkpt lat="44.2848644" lon="8.2605021"><ele>529.0</ele><time>2026-04-26T09:19:17.988Z</time></trkpt><trkpt lat="44.2849814" lon="8.2604279"><ele>520.0</ele><time>2026-04-26T09:19:18.988Z</time></trkpt><trkpt lat="44.2851172" lon="8.2603387"><ele>511.0</ele><time>2026-04-26T09:19:19.988Z</time></trkpt><trkpt lat="44.2852695" lon="8.2602261"><ele>511.0</ele><time>2026-04-26T09:19:20.989Z</time></trkpt><trkpt lat="44.2854448" lon="8.2601144"><ele>511.0</ele><time>2026-04-26T09:19:21.988Z</time></trkpt><trkpt lat="44.285593" lon="8.2600275"><ele>511.0</ele><time>2026-04-26T09:19:22.989Z</time></trkpt><trkpt lat="44.2857316" lon="8.2599776"><ele>512.5</ele><time>2026-04-26T09:19:23.988Z</time></trkpt><trkpt lat="44.285865" lon="8.2599668"><ele>514.0</ele><time>2026-04-26T09:19:24.989Z</time></trkpt><trkpt lat="44.285994" lon="8.2599991"><ele>515.5</ele><time>2026-04-26T09:19:25.988Z</time></trkpt><trkpt lat="44.2861014" lon="8.2600625"><ele>517.0</ele><time>2026-04-26T09:19:26.988Z</time></trkpt><trkpt lat="44.2861865" lon="8.2601407"><ele>517.0</ele><time>2026-04-26T09:19:27.988Z</time></trkpt><trkpt lat="44.286258" lon="8.2602089"><ele>517.0</ele><time>2026-04-26T09:19:28.988Z</time></trkpt><trkpt lat="44.2863212" lon="8.2602532"><ele>517.0</ele><time>2026-04-26T09:19:29.989Z</time></trkpt><trkpt lat="44.2864177" lon="8.2602176"><ele>517.0</ele><time>2026-04-26T09:19:31.988Z</time></trkpt><trkpt lat="44.2864011" lon="8.2600299"><ele>517.0</ele><time>2026-04-26T09:19:33.988Z</time></trkpt><trkpt lat="44.2863249" lon="8.259877"><ele>511.25</ele><time>2026-04-26T09:19:34.989Z</time></trkpt><trkpt lat="44.2862271" lon="8.2597156"><ele>505.5</ele><time>2026-04-26T09:19:35.988Z</time></trkpt><trkpt lat="44.2861401" lon="8.2595672"><ele>499.75</ele><time>2026-04-26T09:19:36.988Z</time></trkpt><trkpt lat="44.2860172" lon="8.259451"><ele>494.0</ele><time>2026-04-26T09:19:37.988Z</time></trkpt><trkpt lat="44.2858641" lon="8.2593749"><ele>494.0</ele><time>2026-04-26T09:19:38.988Z</time></trkpt><trkpt lat="44.2856692" lon="8.2593603"><ele>494.0</ele><time>2026-04-26T09:19:39.988Z</time></trkpt><trkpt lat="44.2854699" lon="8.2594046"><ele>494.0</ele><time>2026-04-26T09:19:40.988Z</time></trkpt><trkpt lat="44.2852981" lon="8.2594769"><ele>493.79999999999995</ele><time>2026-04-26T09:19:41.988Z</time></trkpt><trkpt lat="44.2851712" lon="8.2595519"><ele>493.59999999999997</ele><time>2026-04-26T09:19:42.988Z</time></trkpt><trkpt lat="44.2850767" lon="8.2595907"><ele>493.4</ele><time>2026-04-26T09:19:43.988Z</time></trkpt><trkpt lat="44.2849988" lon="8.2596015"><ele>493.2</ele><time>2026-04-26T09:19:44.988Z</time></trkpt><trkpt lat="44.2849373" lon="8.2595806"><ele>493.0</ele><time>2026-04-26T09:19:45.988Z</time></trkpt><trkpt lat="44.2849265" lon="8.2594703"><ele>493.0</ele><time>2026-04-26T09:19:47.988Z</time></trkpt><trkpt lat="44.2849922" lon="8.2593935"><ele>493.0</ele><time>2026-04-26T09:19:48.988Z</time></trkpt><trkpt lat="44.2850895" lon="8.2593058"><ele>493.0</ele><time>2026-04-26T09:19:49.988Z</time></trkpt><trkpt lat="44.2852051" lon="8.2592117"><ele>493.0</ele><time>2026-04-26T09:19:50.988Z</time></trkpt><trkpt lat="44.2853255" lon="8.259119"><ele>493.0</ele><time>2026-04-26T09:19:51.988Z</time></trkpt><trkpt lat="44.2854604" lon="8.2590254"><ele>493.0</ele><time>2026-04-26T09:19:52.988Z</time></trkpt><trkpt lat="44.2855916" lon="8.2589486"><ele>493.0</ele><time>2026-04-26T09:19:53.988Z</time></trkpt><trkpt lat="44.2857231" lon="8.2589104"><ele>493.0</ele><time>2026-04-26T09:19:54.989Z</time></trkpt><trkpt lat="44.2858713" lon="8.25891"><ele>493.33333333333337</ele><time>2026-04-26T09:19:55.988Z</time></trkpt><trkpt lat="44.2860249" lon="8.2589213"><ele>493.66666666666663</ele><time>2026-04-26T09:19:56.988Z</time></trkpt><trkpt lat="44.2861762" lon="8.2589405"><ele>494.0</ele><time>2026-04-26T09:19:57.988Z</time></trkpt><trkpt lat="44.2863266" lon="8.258974"><ele>488.66666666666663</ele><time>2026-04-26T09:19:58.988Z</time></trkpt><trkpt lat="44.2864778" lon="8.2590242"><ele>483.33333333333337</ele><time>2026-04-26T09:19:59.988Z</time></trkpt><trkpt lat="44.286623" lon="8.2590919"><ele>478.0</ele><time>2026-04-26T09:20:00.988Z</time></trkpt><trkpt lat="44.2867578" lon="8.2591763"><ele>478.0</ele><time>2026-04-26T09:20:01.988Z</time></trkpt><trkpt lat="44.2868674" lon="8.259293"><ele>478.0</ele><time>2026-04-26T09:20:02.988Z</time></trkpt><trkpt lat="44.2869652" lon="8.2594237"><ele>478.0</ele><time>2026-04-26T09:20:03.988Z</time></trkpt><trkpt lat="44.2870536" lon="8.2595664"><ele>478.0</ele><time>2026-04-26T09:20:04.988Z</time></trkpt><trkpt lat="44.2871412" lon="8.2596957"><ele>476.4</ele><time>2026-04-26T09:20:05.988Z</time></trkpt><trkpt lat="44.2872264" lon="8.2597843"><ele>474.79999999999995</ele><time>2026-04-26T09:20:06.988Z</time></trkpt><trkpt lat="44.2873062" lon="8.2598226"><ele>473.2</ele><time>2026-04-26T09:20:07.988Z</time></trkpt><trkpt lat="44.2873871" lon="8.2598138"><ele>471.6</ele><time>2026-04-26T09:20:08.988Z</time></trkpt><trkpt lat="44.2874683" lon="8.2597851"><ele>470.0</ele><time>2026-04-26T09:20:09.988Z</time></trkpt><trkpt lat="44.2875546" lon="8.2597103"><ele>469.25</ele><time>2026-04-26T09:20:10.988Z</time></trkpt><trkpt lat="44.2876369" lon="8.259589"><ele>468.5</ele><time>2026-04-26T09:20:11.988Z</time></trkpt><trkpt lat="44.2877175" lon="8.2594352"><ele>467.75</ele><time>2026-04-26T09:20:12.988Z</time></trkpt><trkpt lat="44.2877917" lon="8.2592966"><ele>467.0</ele><time>2026-04-26T09:20:13.988Z</time></trkpt><trkpt lat="44.287854" lon="8.2591804"><ele>467.0</ele><time>2026-04-26T09:20:14.988Z</time></trkpt><trkpt lat="44.2879052" lon="8.2590921"><ele>467.00000000000006</ele><time>2026-04-26T09:20:15.989Z</time></trkpt><trkpt lat="44.28795" lon="8.2589942"><ele>467.00000000000006</ele><time>2026-04-26T09:20:17.989Z</time></trkpt><trkpt lat="44.2879338" lon="8.2588873"><ele>467.0</ele><time>2026-04-26T09:20:20.988Z</time></trkpt><trkpt lat="44.287852" lon="8.2587584"><ele>467.0</ele><time>2026-04-26T09:20:22.988Z</time></trkpt><trkpt lat="44.2877732" lon="8.2586818"><ele>470.75</ele><time>2026-04-26T09:20:23.988Z</time></trkpt><trkpt lat="44.2876689" lon="8.2585935"><ele>474.5</ele><time>2026-04-26T09:20:24.988Z</time></trkpt><trkpt lat="44.287559" lon="8.2584854"><ele>478.25</ele><time>2026-04-26T09:20:25.988Z</time></trkpt><trkpt lat="44.2874374" lon="8.2583854"><ele>482.0</ele><time>2026-04-26T09:20:26.988Z</time></trkpt><trkpt lat="44.2873113" lon="8.2582848"><ele>483.0</ele><time>2026-04-26T09:20:27.988Z</time></trkpt><trkpt lat="44.2871836" lon="8.2581852"><ele>484.0</ele><time>2026-04-26T09:20:28.988Z</time></trkpt><trkpt lat="44.2870519" lon="8.258074"><ele>485.0</ele><time>2026-04-26T09:20:29.988Z</time></trkpt><trkpt lat="44.2869381" lon="8.2579388"><ele>485.0</ele><time>2026-04-26T09:20:30.988Z</time></trkpt><trkpt lat="44.2868248" lon="8.2578182"><ele>485.0</ele><time>2026-04-26T09:20:31.988Z</time></trkpt><trkpt lat="44.2867129" lon="8.2577117"><ele>485.0</ele><time>2026-04-26T09:20:32.988Z</time></trkpt><trkpt lat="44.2866028" lon="8.2576024"><ele>485.0</ele><time>2026-04-26T09:20:33.989Z</time></trkpt><trkpt lat="44.2864958" lon="8.2574797"><ele>483.0</ele><time>2026-04-26T09:20:34.988Z</time></trkpt><trkpt lat="44.2863908" lon="8.2573544"><ele>481.0</ele><time>2026-04-26T09:20:35.988Z</time></trkpt><trkpt lat="44.2862944" lon="8.2572192"><ele>479.0</ele><time>2026-04-26T09:20:36.988Z</time></trkpt><trkpt lat="44.2861972" lon="8.2570456"><ele>477.0</ele><time>2026-04-26T09:20:37.988Z</time></trkpt><trkpt lat="44.2861239" lon="8.2568458"><ele>477.0</ele><time>2026-04-26T09:20:38.988Z</time></trkpt><trkpt lat="44.2860676" lon="8.2566304"><ele>477.0</ele><time>2026-04-26T09:20:39.988Z</time></trkpt><trkpt lat="44.2860168" lon="8.2563995"><ele>477.0</ele><time>2026-04-26T09:20:40.988Z</time></trkpt><trkpt lat="44.2859671" lon="8.2561689"><ele>480.0</ele><time>2026-04-26T09:20:41.989Z</time></trkpt><trkpt lat="44.2859211" lon="8.2559348"><ele>483.0</ele><time>2026-04-26T09:20:42.988Z</time></trkpt><trkpt lat="44.2858808" lon="8.2557013"><ele>486.0</ele><time>2026-04-26T09:20:43.988Z</time></trkpt><trkpt lat="44.2858536" lon="8.255489"><ele>486.0</ele><time>2026-04-26T09:20:44.989Z</time></trkpt><trkpt lat="44.2858329" lon="8.2552829"><ele>486.0</ele><time>2026-04-26T09:20:45.988Z</time></trkpt><trkpt lat="44.28581" lon="8.2550759"><ele>486.0</ele><time>2026-04-26T09:20:46.988Z</time></trkpt><trkpt lat="44.2858023" lon="8.2548725"><ele>486.0</ele><time>2026-04-26T09:20:47.988Z</time></trkpt><trkpt lat="44.2858018" lon="8.2546754"><ele>485.5</ele><time>2026-04-26T09:20:48.988Z</time></trkpt><trkpt lat="44.2858107" lon="8.2544945"><ele>485.0</ele><time>2026-04-26T09:20:49.988Z</time></trkpt><trkpt lat="44.2858173" lon="8.2543292"><ele>484.5</ele><time>2026-04-26T09:20:50.988Z</time></trkpt><trkpt lat="44.2858322" lon="8.254157"><ele>484.0</ele><time>2026-04-26T09:20:51.988Z</time></trkpt><trkpt lat="44.28585" lon="8.253981"><ele>486.5</ele><time>2026-04-26T09:20:52.988Z</time></trkpt><trkpt lat="44.2858573" lon="8.2538048"><ele>489.0</ele><time>2026-04-26T09:20:53.988Z</time></trkpt><trkpt lat="44.2858658" lon="8.253617"><ele>491.5</ele><time>2026-04-26T09:20:54.989Z</time></trkpt><trkpt lat="44.2858715" lon="8.2534443"><ele>494.0</ele><time>2026-04-26T09:20:55.988Z</time></trkpt><trkpt lat="44.2858588" lon="8.2532803"><ele>495.75</ele><time>2026-04-26T09:20:56.988Z</time></trkpt><trkpt lat="44.2858384" lon="8.2531162"><ele>497.5</ele><time>2026-04-26T09:20:57.988Z</time></trkpt><trkpt lat="44.2857998" lon="8.2529518"><ele>499.25</ele><time>2026-04-26T09:20:58.988Z</time></trkpt><trkpt lat="44.2857493" lon="8.2527993"><ele>501.0</ele><time>2026-04-26T09:20:59.988Z</time></trkpt><trkpt lat="44.2856811" lon="8.2526435"><ele>501.0</ele><time>2026-04-26T09:21:00.988Z</time></trkpt><trkpt lat="44.2856211" lon="8.252486"><ele>501.0</ele><time>2026-04-26T09:21:01.988Z</time></trkpt><trkpt lat="44.2855711" lon="8.2523218"><ele>501.0</ele><time>2026-04-26T09:21:02.988Z</time></trkpt><trkpt lat="44.2855292" lon="8.2521548"><ele>501.0</ele><time>2026-04-26T09:21:03.989Z</time></trkpt><trkpt lat="44.2854951" lon="8.2519776"><ele>497.25</ele><time>2026-04-26T09:21:04.989Z</time></trkpt><trkpt lat="44.285465" lon="8.2517963"><ele>493.5</ele><time>2026-04-26T09:21:05.988Z</time></trkpt><trkpt lat="44.2854339" lon="8.2516214"><ele>489.75</ele><time>2026-04-26T09:21:06.988Z</time></trkpt><trkpt lat="44.2853864" lon="8.2514547"><ele>486.0</ele><time>2026-04-26T09:21:07.988Z</time></trkpt><trkpt lat="44.2853494" lon="8.2512706"><ele>486.0</ele><time>2026-04-26T09:21:08.988Z</time></trkpt><trkpt lat="44.2853111" lon="8.251076"><ele>486.0</ele><time>2026-04-26T09:21:09.988Z</time></trkpt><trkpt lat="44.2852637" lon="8.2508935"><ele>486.0</ele><time>2026-04-26T09:21:10.988Z</time></trkpt><trkpt lat="44.2852274" lon="8.2506939"><ele>486.0</ele><time>2026-04-26T09:21:11.988Z</time></trkpt><trkpt lat="44.2852087" lon="8.2505042"><ele>487.0</ele><time>2026-04-26T09:21:12.988Z</time></trkpt><trkpt lat="44.2851966" lon="8.250313"><ele>488.0</ele><time>2026-04-26T09:21:13.988Z</time></trkpt><trkpt lat="44.2851573" lon="8.2501377"><ele>489.0</ele><time>2026-04-26T09:21:14.988Z</time></trkpt><trkpt lat="44.2851235" lon="8.2499402"><ele>490.0</ele><time>2026-04-26T09:21:15.988Z</time></trkpt><trkpt lat="44.2850844" lon="8.2497612"><ele>490.75</ele><time>2026-04-26T09:21:16.988Z</time></trkpt><trkpt lat="44.2850685" lon="8.2495731"><ele>491.5</ele><time>2026-04-26T09:21:17.988Z</time></trkpt><trkpt lat="44.2850517" lon="8.2493935"><ele>492.25</ele><time>2026-04-26T09:21:18.988Z</time></trkpt><trkpt lat="44.2850354" lon="8.2492255"><ele>493.0</ele><time>2026-04-26T09:21:19.988Z</time></trkpt><trkpt lat="44.2850215" lon="8.2490569"><ele>493.25</ele><time>2026-04-26T09:21:20.988Z</time></trkpt><trkpt lat="44.2850176" lon="8.2488914"><ele>493.5</ele><time>2026-04-26T09:21:21.988Z</time></trkpt><trkpt lat="44.2850209" lon="8.2487298"><ele>493.75</ele><time>2026-04-26T09:21:22.988Z</time></trkpt><trkpt lat="44.2850136" lon="8.2485662"><ele>494.0</ele><time>2026-04-26T09:21:23.988Z</time></trkpt><trkpt lat="44.2849897" lon="8.248398"><ele>494.0</ele><time>2026-04-26T09:21:24.988Z</time></trkpt><trkpt lat="44.2849695" lon="8.2482386"><ele>494.0</ele><time>2026-04-26T09:21:25.988Z</time></trkpt><trkpt lat="44.2849591" lon="8.248082"><ele>494.0</ele><time>2026-04-26T09:21:26.988Z</time></trkpt><trkpt lat="44.2849419" lon="8.2479225"><ele>494.0</ele><time>2026-04-26T09:21:27.988Z</time></trkpt><trkpt lat="44.2849257" lon="8.2477721"><ele>494.75</ele><time>2026-04-26T09:21:28.988Z</time></trkpt><trkpt lat="44.2849101" lon="8.2476025"><ele>495.5</ele><time>2026-04-26T09:21:29.988Z</time></trkpt><trkpt lat="44.2848842" lon="8.2474395"><ele>496.25</ele><time>2026-04-26T09:21:30.988Z</time></trkpt><trkpt lat="44.2848553" lon="8.2472902"><ele>497.0</ele><time>2026-04-26T09:21:31.988Z</time></trkpt><trkpt lat="44.2848329" lon="8.2471366"><ele>496.75</ele><time>2026-04-26T09:21:32.988Z</time></trkpt><trkpt lat="44.2848128" lon="8.2469775"><ele>496.5</ele><time>2026-04-26T09:21:33.988Z</time></trkpt><trkpt lat="44.2847925" lon="8.2468227"><ele>496.25</ele><time>2026-04-26T09:21:34.988Z</time></trkpt><trkpt lat="44.2847745" lon="8.2466641"><ele>496.0</ele><time>2026-04-26T09:21:35.988Z</time></trkpt><trkpt lat="44.2847528" lon="8.2465066"><ele>495.20000000000005</ele><time>2026-04-26T09:21:36.988Z</time></trkpt><trkpt lat="44.2847349" lon="8.2463601"><ele>494.40000000000003</ele><time>2026-04-26T09:21:37.988Z</time></trkpt><trkpt lat="44.2847149" lon="8.2462139"><ele>493.6</ele><time>2026-04-26T09:21:38.988Z</time></trkpt><trkpt lat="44.2846984" lon="8.2460706"><ele>492.8</ele><time>2026-04-26T09:21:39.988Z</time></trkpt><trkpt lat="44.2846755" lon="8.245932"><ele>492.0</ele><time>2026-04-26T09:21:40.988Z</time></trkpt><trkpt lat="44.2846503" lon="8.2458066"><ele>492.0</ele><time>2026-04-26T09:21:41.988Z</time></trkpt><trkpt lat="44.2846246" lon="8.2456924"><ele>492.0</ele><time>2026-04-26T09:21:42.989Z</time></trkpt><trkpt lat="44.2845936" lon="8.2455858"><ele>492.0</ele><time>2026-04-26T09:21:43.988Z</time></trkpt><trkpt lat="44.2845577" lon="8.2454724"><ele>492.0</ele><time>2026-04-26T09:21:44.988Z</time></trkpt><trkpt lat="44.2845126" lon="8.2453581"><ele>492.0</ele><time>2026-04-26T09:21:45.988Z</time></trkpt><trkpt lat="44.2844572" lon="8.2452442"><ele>492.0</ele><time>2026-04-26T09:21:46.988Z</time></trkpt><trkpt lat="44.2843885" lon="8.2451389"><ele>492.40000000000003</ele><time>2026-04-26T09:21:47.988Z</time></trkpt><trkpt lat="44.2843129" lon="8.2450376"><ele>492.80000000000007</ele><time>2026-04-26T09:21:48.988Z</time></trkpt><trkpt lat="44.2842334" lon="8.2449322"><ele>493.2</ele><time>2026-04-26T09:21:49.988Z</time></trkpt><trkpt lat="44.2841608" lon="8.2448248"><ele>493.6</ele><time>2026-04-26T09:21:50.988Z</time></trkpt><trkpt lat="44.284098" lon="8.2447212"><ele>494.0</ele><time>2026-04-26T09:21:51.988Z</time></trkpt><trkpt lat="44.2840338" lon="8.2446207"><ele>494.6</ele><time>2026-04-26T09:21:52.988Z</time></trkpt><trkpt lat="44.2839675" lon="8.2445111"><ele>495.2</ele><time>2026-04-26T09:21:53.988Z</time></trkpt><trkpt lat="44.2838944" lon="8.2443955"><ele>495.80000000000007</ele><time>2026-04-26T09:21:54.988Z</time></trkpt><trkpt lat="44.2838245" lon="8.2442692"><ele>496.40000000000003</ele><time>2026-04-26T09:21:55.988Z</time></trkpt><trkpt lat="44.2837597" lon="8.2441381"><ele>497.0</ele><time>2026-04-26T09:21:56.988Z</time></trkpt><trkpt lat="44.2837008" lon="8.2440089"><ele>496.8</ele><time>2026-04-26T09:21:57.988Z</time></trkpt><trkpt lat="44.28365" lon="8.2438794"><ele>496.6</ele><time>2026-04-26T09:21:58.988Z</time></trkpt><trkpt lat="44.2836032" lon="8.2437531"><ele>496.40000000000003</ele><time>2026-04-26T09:21:59.988Z</time></trkpt><trkpt lat="44.2835517" lon="8.2436304"><ele>496.20000000000005</ele><time>2026-04-26T09:22:00.988Z</time></trkpt><trkpt lat="44.2834958" lon="8.2434935"><ele>496.0</ele><time>2026-04-26T09:22:01.988Z</time></trkpt><trkpt lat="44.2834296" lon="8.2433467"><ele>496.0</ele><time>2026-04-26T09:22:02.988Z</time></trkpt><trkpt lat="44.2833487" lon="8.2432068"><ele>496.0</ele><time>2026-04-26T09:22:03.988Z</time></trkpt><trkpt lat="44.2832635" lon="8.2430556"><ele>496.0</ele><time>2026-04-26T09:22:04.988Z</time></trkpt><trkpt lat="44.2831675" lon="8.242916"><ele>496.0</ele><time>2026-04-26T09:22:05.988Z</time></trkpt><trkpt lat="44.2830706" lon="8.2427801"><ele>496.25</ele><time>2026-04-26T09:22:06.988Z</time></trkpt><trkpt lat="44.2829595" lon="8.242646"><ele>496.5</ele><time>2026-04-26T09:22:07.988Z</time></trkpt><trkpt lat="44.2828304" lon="8.2425332"><ele>496.75</ele><time>2026-04-26T09:22:08.988Z</time></trkpt><trkpt lat="44.282721" lon="8.242406"><ele>497.0</ele><time>2026-04-26T09:22:09.988Z</time></trkpt><trkpt lat="44.2826205" lon="8.2422772"><ele>497.25</ele><time>2026-04-26T09:22:10.988Z</time></trkpt><trkpt lat="44.282521" lon="8.2421575"><ele>497.5</ele><time>2026-04-26T09:22:11.989Z</time></trkpt><trkpt lat="44.282422" lon="8.2420349"><ele>497.75</ele><time>2026-04-26T09:22:12.988Z</time></trkpt><trkpt lat="44.2823201" lon="8.2419067"><ele>498.0</ele><time>2026-04-26T09:22:13.988Z</time></trkpt><trkpt lat="44.2822169" lon="8.2417738"><ele>498.0</ele><time>2026-04-26T09:22:14.988Z</time></trkpt><trkpt lat="44.2821058" lon="8.2416568"><ele>498.0</ele><time>2026-04-26T09:22:15.988Z</time></trkpt><trkpt lat="44.2819918" lon="8.2415369"><ele>498.0</ele><time>2026-04-26T09:22:16.988Z</time></trkpt><trkpt lat="44.2818715" lon="8.241417"><ele>498.0</ele><time>2026-04-26T09:22:17.988Z</time></trkpt><trkpt lat="44.2817466" lon="8.2413088"><ele>499.0</ele><time>2026-04-26T09:22:18.989Z</time></trkpt><trkpt lat="44.2816266" lon="8.2412024"><ele>500.0</ele><time>2026-04-26T09:22:19.988Z</time></trkpt><trkpt lat="44.2815126" lon="8.2410992"><ele>501.0</ele><time>2026-04-26T09:22:20.989Z</time></trkpt><trkpt lat="44.2814046" lon="8.2410249"><ele>502.0</ele><time>2026-04-26T09:22:21.988Z</time></trkpt><trkpt lat="44.281308" lon="8.2409487"><ele>502.0</ele><time>2026-04-26T09:22:22.988Z</time></trkpt><trkpt lat="44.2812276" lon="8.2408458"><ele>502.0</ele><time>2026-04-26T09:22:23.988Z</time></trkpt><trkpt lat="44.2811585" lon="8.2407215"><ele>502.0</ele><time>2026-04-26T09:22:24.988Z</time></trkpt><trkpt lat="44.2811019" lon="8.2405756"><ele>502.0</ele><time>2026-04-26T09:22:25.988Z</time></trkpt><trkpt lat="44.2810451" lon="8.2404032"><ele>504.33333333333337</ele><time>2026-04-26T09:22:26.988Z</time></trkpt><trkpt lat="44.2809959" lon="8.2402033"><ele>506.66666666666663</ele><time>2026-04-26T09:22:27.989Z</time></trkpt><trkpt lat="44.2809428" lon="8.2399967"><ele>509.0</ele><time>2026-04-26T09:22:28.988Z</time></trkpt><trkpt lat="44.2808688" lon="8.2398044"><ele>508.5</ele><time>2026-04-26T09:22:29.988Z</time></trkpt><trkpt lat="44.2807865" lon="8.2396284"><ele>508.0</ele><time>2026-04-26T09:22:30.988Z</time></trkpt><trkpt lat="44.2807012" lon="8.2394671"><ele>507.5</ele><time>2026-04-26T09:22:31.988Z</time></trkpt><trkpt lat="44.2806252" lon="8.2393321"><ele>507.0</ele><time>2026-04-26T09:22:32.988Z</time></trkpt><trkpt lat="44.2805364" lon="8.2392195"><ele>507.0</ele><time>2026-04-26T09:22:33.988Z</time></trkpt><trkpt lat="44.2804527" lon="8.2391147"><ele>507.0</ele><time>2026-04-26T09:22:34.988Z</time></trkpt><trkpt lat="44.2803908" lon="8.2389976"><ele>507.0</ele><time>2026-04-26T09:22:35.988Z</time></trkpt><trkpt lat="44.2803454" lon="8.2388557"><ele>507.0</ele><time>2026-04-26T09:22:36.988Z</time></trkpt><trkpt lat="44.2803111" lon="8.2386836"><ele>508.5</ele><time>2026-04-26T09:22:37.988Z</time></trkpt><trkpt lat="44.2802737" lon="8.2384914"><ele>510.0</ele><time>2026-04-26T09:22:38.988Z</time></trkpt><trkpt lat="44.2802194" lon="8.238292"><ele>511.5</ele><time>2026-04-26T09:22:39.988Z</time></trkpt><trkpt lat="44.2801598" lon="8.238097"><ele>513.0</ele><time>2026-04-26T09:22:40.988Z</time></trkpt><trkpt lat="44.2800961" lon="8.2379054"><ele>515.5</ele><time>2026-04-26T09:22:41.988Z</time></trkpt><trkpt lat="44.2800438" lon="8.2377119"><ele>518.0</ele><time>2026-04-26T09:22:42.989Z</time></trkpt><trkpt lat="44.2799951" lon="8.2375448"><ele>520.5</ele><time>2026-04-26T09:22:43.988Z</time></trkpt><trkpt lat="44.2799469" lon="8.2373961"><ele>523.0</ele><time>2026-04-26T09:22:44.988Z</time></trkpt><trkpt lat="44.279907" lon="8.2372631"><ele>521.5</ele><time>2026-04-26T09:22:45.988Z</time></trkpt><trkpt lat="44.2798753" lon="8.2371351"><ele>520.0</ele><time>2026-04-26T09:22:46.988Z</time></trkpt><trkpt lat="44.2798434" lon="8.237021"><ele>518.5</ele><time>2026-04-26T09:22:47.988Z</time></trkpt><trkpt lat="44.2798141" lon="8.2369174"><ele>517.0</ele><time>2026-04-26T09:22:48.988Z</time></trkpt><trkpt lat="44.2797914" lon="8.2368311"><ele>515.5</ele><time>2026-04-26T09:22:49.988Z</time></trkpt><trkpt lat="44.279753" lon="8.236695"><ele>514.0</ele><time>2026-04-26T09:22:51.988Z</time></trkpt><trkpt lat="44.2796877" lon="8.2365233"><ele>514.75</ele><time>2026-04-26T09:22:53.988Z</time></trkpt><trkpt lat="44.2796447" lon="8.2364037"><ele>515.5</ele><time>2026-04-26T09:22:54.989Z</time></trkpt><trkpt lat="44.2795898" lon="8.2362622"><ele>516.25</ele><time>2026-04-26T09:22:55.988Z</time></trkpt><trkpt lat="44.279533" lon="8.2361102"><ele>517.0</ele><time>2026-04-26T09:22:56.988Z</time></trkpt><trkpt lat="44.2794767" lon="8.2359623"><ele>517.0</ele><time>2026-04-26T09:22:57.988Z</time></trkpt><trkpt lat="44.2794222" lon="8.2358278"><ele>517.0</ele><time>2026-04-26T09:22:58.988Z</time></trkpt><trkpt lat="44.2793508" lon="8.235724"><ele>517.0</ele><time>2026-04-26T09:22:59.988Z</time></trkpt><trkpt lat="44.2792657" lon="8.2356453"><ele>517.0</ele><time>2026-04-26T09:23:00.988Z</time></trkpt><trkpt lat="44.2791629" lon="8.235598"><ele>517.0</ele><time>2026-04-26T09:23:01.988Z</time></trkpt><trkpt lat="44.2790293" lon="8.2355864"><ele>525.3333333333334</ele><time>2026-04-26T09:23:02.988Z</time></trkpt><trkpt lat="44.2788691" lon="8.2355856"><ele>533.6666666666666</ele><time>2026-04-26T09:23:03.988Z</time></trkpt><trkpt lat="44.2787" lon="8.2355844"><ele>542.0</ele><time>2026-04-26T09:23:04.988Z</time></trkpt><trkpt lat="44.2785298" lon="8.2355809"><ele>542.0</ele><time>2026-04-26T09:23:05.989Z</time></trkpt><trkpt lat="44.2783655" lon="8.235575"><ele>542.0</ele><time>2026-04-26T09:23:06.988Z</time></trkpt><trkpt lat="44.2782179" lon="8.2355629"><ele>542.0</ele><time>2026-04-26T09:23:07.988Z</time></trkpt><trkpt lat="44.2780842" lon="8.2355582"><ele>542.0</ele><time>2026-04-26T09:23:08.988Z</time></trkpt><trkpt lat="44.2779667" lon="8.2355494"><ele>538.0</ele><time>2026-04-26T09:23:09.988Z</time></trkpt><trkpt lat="44.2778601" lon="8.2355306"><ele>534.0</ele><time>2026-04-26T09:23:10.988Z</time></trkpt><trkpt lat="44.2777849" lon="8.2355247"><ele>530.0</ele><time>2026-04-26T09:23:11.988Z</time></trkpt><trkpt lat="44.27771" lon="8.2354644"><ele>526.0</ele><time>2026-04-26T09:23:12.988Z</time></trkpt><trkpt lat="44.2776375" lon="8.2353456"><ele>522.0</ele><time>2026-04-26T09:23:13.988Z</time></trkpt><trkpt lat="44.2775731" lon="8.2351959"><ele>522.0</ele><time>2026-04-26T09:23:14.988Z</time></trkpt><trkpt lat="44.2775108" lon="8.2350204"><ele>522.0</ele><time>2026-04-26T09:23:15.988Z</time></trkpt><trkpt lat="44.2774495" lon="8.2348135"><ele>522.0</ele><time>2026-04-26T09:23:16.988Z</time></trkpt><trkpt lat="44.2773893" lon="8.2346034"><ele>521.3333333333334</ele><time>2026-04-26T09:23:17.988Z</time></trkpt><trkpt lat="44.277327" lon="8.2343895"><ele>520.6666666666667</ele><time>2026-04-26T09:23:18.988Z</time></trkpt><trkpt lat="44.2772592" lon="8.2341874"><ele>520.0</ele><time>2026-04-26T09:23:19.988Z</time></trkpt><trkpt lat="44.277186" lon="8.2339911"><ele>521.75</ele><time>2026-04-26T09:23:20.988Z</time></trkpt><trkpt lat="44.2771114" lon="8.2338064"><ele>523.5</ele><time>2026-04-26T09:23:21.989Z</time></trkpt><trkpt lat="44.2770391" lon="8.2336253"><ele>525.25</ele><time>2026-04-26T09:23:22.989Z</time></trkpt><trkpt lat="44.2769828" lon="8.2334339"><ele>527.0</ele><time>2026-04-26T09:23:23.988Z</time></trkpt><trkpt lat="44.2769261" lon="8.2332813"><ele>531.0</ele><time>2026-04-26T09:23:24.988Z</time></trkpt><trkpt lat="44.2768724" lon="8.2331389"><ele>535.0</ele><time>2026-04-26T09:23:25.989Z</time></trkpt><trkpt lat="44.2768142" lon="8.2330207"><ele>539.0</ele><time>2026-04-26T09:23:26.988Z</time></trkpt><trkpt lat="44.27672" lon="8.2329189"><ele>543.0</ele><time>2026-04-26T09:23:27.988Z</time></trkpt><trkpt lat="44.2765975" lon="8.2328468"><ele>543.0</ele><time>2026-04-26T09:23:28.988Z</time></trkpt><trkpt lat="44.2764753" lon="8.2327922"><ele>543.0</ele><time>2026-04-26T09:23:29.988Z</time></trkpt><trkpt lat="44.276366" lon="8.2327189"><ele>543.0</ele><time>2026-04-26T09:23:30.988Z</time></trkpt><trkpt lat="44.2762732" lon="8.2326261"><ele>543.0</ele><time>2026-04-26T09:23:31.988Z</time></trkpt><trkpt lat="44.2761881" lon="8.2325148"><ele>542.0</ele><time>2026-04-26T09:23:32.989Z</time></trkpt><trkpt lat="44.2761019" lon="8.2323851"><ele>541.0</ele><time>2026-04-26T09:23:33.989Z</time></trkpt><trkpt lat="44.2760236" lon="8.2322485"><ele>540.0</ele><time>2026-04-26T09:23:34.988Z</time></trkpt><trkpt lat="44.2759483" lon="8.2321129"><ele>539.0</ele><time>2026-04-26T09:23:35.988Z</time></trkpt><trkpt lat="44.275875" lon="8.23199"><ele>539.0</ele><time>2026-04-26T09:23:36.988Z</time></trkpt><trkpt lat="44.2757973" lon="8.2318834"><ele>539.0</ele><time>2026-04-26T09:23:37.989Z</time></trkpt><trkpt lat="44.2757105" lon="8.2318035"><ele>539.0</ele><time>2026-04-26T09:23:38.988Z</time></trkpt><trkpt lat="44.2756046" lon="8.2317569"><ele>539.0</ele><time>2026-04-26T09:23:39.988Z</time></trkpt><trkpt lat="44.275472" lon="8.2317299"><ele>536.75</ele><time>2026-04-26T09:23:40.988Z</time></trkpt><trkpt lat="44.2753279" lon="8.2317078"><ele>534.5</ele><time>2026-04-26T09:23:41.988Z</time></trkpt><trkpt lat="44.2751768" lon="8.2316812"><ele>532.25</ele><time>2026-04-26T09:23:42.988Z</time></trkpt><trkpt lat="44.2750371" lon="8.2316642"><ele>530.0</ele><time>2026-04-26T09:23:43.988Z</time></trkpt><trkpt lat="44.2749062" lon="8.2316593"><ele>530.0</ele><time>2026-04-26T09:23:44.988Z</time></trkpt><trkpt lat="44.2747811" lon="8.2316343"><ele>530.0</ele><time>2026-04-26T09:23:45.988Z</time></trkpt><trkpt lat="44.2746529" lon="8.231598"><ele>530.0</ele><time>2026-04-26T09:23:46.988Z</time></trkpt><trkpt lat="44.2745186" lon="8.2315402"><ele>530.0</ele><time>2026-04-26T09:23:47.988Z</time></trkpt><trkpt lat="44.2743762" lon="8.2314786"><ele>532.3333333333333</ele><time>2026-04-26T09:23:48.988Z</time></trkpt><trkpt lat="44.2742333" lon="8.2314045"><ele>534.6666666666666</ele><time>2026-04-26T09:23:49.988Z</time></trkpt><trkpt lat="44.2740864" lon="8.2313234"><ele>537.0</ele><time>2026-04-26T09:23:50.988Z</time></trkpt><trkpt lat="44.2739312" lon="8.2312476"><ele>537.0</ele><time>2026-04-26T09:23:51.988Z</time></trkpt><trkpt lat="44.2737729" lon="8.2311664"><ele>537.0</ele><time>2026-04-26T09:23:52.988Z</time></trkpt><trkpt lat="44.2736144" lon="8.2310807"><ele>537.0</ele><time>2026-04-26T09:23:53.988Z</time></trkpt><trkpt lat="44.2734728" lon="8.2309967"><ele>537.0</ele><time>2026-04-26T09:23:54.988Z</time></trkpt><trkpt lat="44.2733425" lon="8.2309302"><ele>537.0</ele><time>2026-04-26T09:23:55.988Z</time></trkpt><trkpt lat="44.2732241" lon="8.2308756"><ele>537.0</ele><time>2026-04-26T09:23:56.988Z</time></trkpt><trkpt lat="44.2731117" lon="8.2308183"><ele>537.0</ele><time>2026-04-26T09:23:57.988Z</time></trkpt><trkpt lat="44.2729957" lon="8.2307783"><ele>537.25</ele><time>2026-04-26T09:23:58.988Z</time></trkpt><trkpt lat="44.2728712" lon="8.2307519"><ele>537.5</ele><time>2026-04-26T09:23:59.988Z</time></trkpt><trkpt lat="44.272737" lon="8.2307423"><ele>537.75</ele><time>2026-04-26T09:24:00.988Z</time></trkpt><trkpt lat="44.2725918" lon="8.2307476"><ele>538.0</ele><time>2026-04-26T09:24:01.988Z</time></trkpt><trkpt lat="44.2724519" lon="8.2307565"><ele>538.0</ele><time>2026-04-26T09:24:02.988Z</time></trkpt><trkpt lat="44.2723134" lon="8.2307629"><ele>538.0</ele><time>2026-04-26T09:24:03.988Z</time></trkpt><trkpt lat="44.2721829" lon="8.2307689"><ele>538.0</ele><time>2026-04-26T09:24:04.988Z</time></trkpt><trkpt lat="44.2720582" lon="8.2307598"><ele>538.0</ele><time>2026-04-26T09:24:05.988Z</time></trkpt><trkpt lat="44.2719403" lon="8.2307324"><ele>536.8</ele><time>2026-04-26T09:24:06.988Z</time></trkpt><trkpt lat="44.2718311" lon="8.2306827"><ele>535.5999999999999</ele><time>2026-04-26T09:24:07.988Z</time></trkpt><trkpt lat="44.2717389" lon="8.2305996"><ele>534.4000000000001</ele><time>2026-04-26T09:24:08.988Z</time></trkpt><trkpt lat="44.2716724" lon="8.2304881"><ele>533.2</ele><time>2026-04-26T09:24:09.989Z</time></trkpt><trkpt lat="44.2716161" lon="8.2303645"><ele>532.0</ele><time>2026-04-26T09:24:10.988Z</time></trkpt><trkpt lat="44.2715575" lon="8.2302374"><ele>533.6</ele><time>2026-04-26T09:24:11.988Z</time></trkpt><trkpt lat="44.2714944" lon="8.2301112"><ele>535.2</ele><time>2026-04-26T09:24:12.988Z</time></trkpt><trkpt lat="44.2714325" lon="8.2299944"><ele>536.8</ele><time>2026-04-26T09:24:13.989Z</time></trkpt><trkpt lat="44.271359" lon="8.2299"><ele>538.4</ele><time>2026-04-26T09:24:14.988Z</time></trkpt><trkpt lat="44.2712676" lon="8.2298412"><ele>540.0</ele><time>2026-04-26T09:24:15.988Z</time></trkpt><trkpt lat="44.2711605" lon="8.2298059"><ele>548.5</ele><time>2026-04-26T09:24:16.988Z</time></trkpt><trkpt lat="44.2710466" lon="8.229784"><ele>557.0</ele><time>2026-04-26T09:24:17.988Z</time></trkpt><trkpt lat="44.2709262" lon="8.2297658"><ele>565.5</ele><time>2026-04-26T09:24:18.988Z</time></trkpt><trkpt lat="44.2708037" lon="8.2297538"><ele>574.0</ele><time>2026-04-26T09:24:19.988Z</time></trkpt><trkpt lat="44.2706792" lon="8.2297448"><ele>572.25</ele><time>2026-04-26T09:24:20.988Z</time></trkpt><trkpt lat="44.2705438" lon="8.2297368"><ele>570.5</ele><time>2026-04-26T09:24:21.988Z</time></trkpt><trkpt lat="44.2704102" lon="8.2297534"><ele>568.75</ele><time>2026-04-26T09:24:22.988Z</time></trkpt><trkpt lat="44.270282" lon="8.2297755"><ele>567.0</ele><time>2026-04-26T09:24:23.988Z</time></trkpt><trkpt lat="44.2701515" lon="8.2298063"><ele>561.5</ele><time>2026-04-26T09:24:24.988Z</time></trkpt><trkpt lat="44.2700108" lon="8.2298345"><ele>556.0</ele><time>2026-04-26T09:24:25.988Z</time></trkpt><trkpt lat="44.2698751" lon="8.2298489"><ele>550.5</ele><time>2026-04-26T09:24:26.988Z</time></trkpt><trkpt lat="44.2697527" lon="8.2298611"><ele>545.0</ele><time>2026-04-26T09:24:27.988Z</time></trkpt><trkpt lat="44.269633" lon="8.2298765"><ele>545.0</ele><time>2026-04-26T09:24:28.988Z</time></trkpt><trkpt lat="44.2695125" lon="8.2298905"><ele>545.0</ele><time>2026-04-26T09:24:29.988Z</time></trkpt><trkpt lat="44.2693903" lon="8.2298917"><ele>545.0</ele><time>2026-04-26T09:24:30.987Z</time></trkpt><trkpt lat="44.2692766" lon="8.2298899"><ele>545.0</ele><time>2026-04-26T09:24:31.987Z</time></trkpt><trkpt lat="44.2691823" lon="8.2298813"><ele>545.0</ele><time>2026-04-26T09:24:32.987Z</time></trkpt><trkpt lat="44.2690945" lon="8.2298689"><ele>545.0</ele><time>2026-04-26T09:24:33.987Z</time></trkpt><trkpt lat="44.2690025" lon="8.2298283"><ele>545.0</ele><time>2026-04-26T09:24:34.987Z</time></trkpt><trkpt lat="44.2689102" lon="8.2297682"><ele>545.0</ele><time>2026-04-26T09:24:35.987Z</time></trkpt><trkpt lat="44.2688242" lon="8.2296706"><ele>545.0</ele><time>2026-04-26T09:24:36.987Z</time></trkpt><trkpt lat="44.2687623" lon="8.2295514"><ele>548.25</ele><time>2026-04-26T09:24:37.987Z</time></trkpt><trkpt lat="44.2687185" lon="8.2294166"><ele>551.5</ele><time>2026-04-26T09:24:38.987Z</time></trkpt><trkpt lat="44.2686798" lon="8.2292597"><ele>554.75</ele><time>2026-04-26T09:24:39.987Z</time></trkpt><trkpt lat="44.2686402" lon="8.229095"><ele>558.0</ele><time>2026-04-26T09:24:40.987Z</time></trkpt><trkpt lat="44.2685987" lon="8.2289198"><ele>558.0</ele><time>2026-04-26T09:24:41.987Z</time></trkpt><trkpt lat="44.2685518" lon="8.2287354"><ele>558.0</ele><time>2026-04-26T09:24:42.987Z</time></trkpt><trkpt lat="44.2685043" lon="8.2285554"><ele>558.0</ele><time>2026-04-26T09:24:43.987Z</time></trkpt><trkpt lat="44.2684564" lon="8.228402"><ele>558.0</ele><time>2026-04-26T09:24:44.988Z</time></trkpt><trkpt lat="44.2684238" lon="8.2282486"><ele>559.6</ele><time>2026-04-26T09:24:45.987Z</time></trkpt><trkpt lat="44.2684064" lon="8.2281012"><ele>561.1999999999999</ele><time>2026-04-26T09:24:46.988Z</time></trkpt><trkpt lat="44.2683998" lon="8.2279653"><ele>562.8</ele><time>2026-04-26T09:24:47.987Z</time></trkpt><trkpt lat="44.2684028" lon="8.2278594"><ele>564.4</ele><time>2026-04-26T09:24:48.987Z</time></trkpt><trkpt lat="44.2683923" lon="8.2277703"><ele>566.0</ele><time>2026-04-26T09:24:49.987Z</time></trkpt><trkpt lat="44.2683386" lon="8.2276434"><ele>566.0</ele><time>2026-04-26T09:24:51.987Z</time></trkpt><trkpt lat="44.2682324" lon="8.2276706"><ele>566.0</ele><time>2026-04-26T09:24:53.987Z</time></trkpt><trkpt lat="44.2681816" lon="8.2277569"><ele>566.0</ele><time>2026-04-26T09:24:54.987Z</time></trkpt><trkpt lat="44.2681589" lon="8.227869"><ele>566.0</ele><time>2026-04-26T09:24:55.987Z</time></trkpt><trkpt lat="44.2681739" lon="8.2280103"><ele>566.0</ele><time>2026-04-26T09:24:56.987Z</time></trkpt><trkpt lat="44.2681875" lon="8.228169"><ele>564.0</ele><time>2026-04-26T09:24:57.987Z</time></trkpt><trkpt lat="44.2682079" lon="8.228349"><ele>562.0</ele><time>2026-04-26T09:24:58.987Z</time></trkpt><trkpt lat="44.2682148" lon="8.2285502"><ele>560.0</ele><time>2026-04-26T09:24:59.987Z</time></trkpt><trkpt lat="44.2682168" lon="8.2287529"><ele>558.0</ele><time>2026-04-26T09:25:00.987Z</time></trkpt><trkpt lat="44.268223" lon="8.2289298"><ele>558.0</ele><time>2026-04-26T09:25:01.987Z</time></trkpt><trkpt lat="44.268224" lon="8.2290981"><ele>558.0</ele><time>2026-04-26T09:25:02.988Z</time></trkpt><trkpt lat="44.2682047" lon="8.2292525"><ele>558.0</ele><time>2026-04-26T09:25:03.987Z</time></trkpt><trkpt lat="44.2681662" lon="8.2293972"><ele>558.0</ele><time>2026-04-26T09:25:04.987Z</time></trkpt><trkpt lat="44.2681119" lon="8.229514"><ele>558.0</ele><time>2026-04-26T09:25:05.987Z</time></trkpt><trkpt lat="44.2680495" lon="8.2296093"><ele>565.0</ele><time>2026-04-26T09:25:06.987Z</time></trkpt><trkpt lat="44.2679747" lon="8.2296866"><ele>572.0</ele><time>2026-04-26T09:25:07.987Z</time></trkpt><trkpt lat="44.2678792" lon="8.2297397"><ele>579.0</ele><time>2026-04-26T09:25:08.987Z</time></trkpt><trkpt lat="44.2677531" lon="8.2297741"><ele>586.0</ele><time>2026-04-26T09:25:09.987Z</time></trkpt><trkpt lat="44.2675972" lon="8.2297995"><ele>584.3333333333334</ele><time>2026-04-26T09:25:10.987Z</time></trkpt><trkpt lat="44.2674305" lon="8.2298437"><ele>582.6666666666666</ele><time>2026-04-26T09:25:11.987Z</time></trkpt><trkpt lat="44.2672435" lon="8.2299014"><ele>581.0</ele><time>2026-04-26T09:25:12.987Z</time></trkpt><trkpt lat="44.2670632" lon="8.2299584"><ele>581.0</ele><time>2026-04-26T09:25:13.987Z</time></trkpt><trkpt lat="44.2668876" lon="8.2300064"><ele>581.0</ele><time>2026-04-26T09:25:14.987Z</time></trkpt><trkpt lat="44.2667279" lon="8.230059"><ele>581.0</ele><time>2026-04-26T09:25:15.987Z</time></trkpt><trkpt lat="44.2665862" lon="8.2301068"><ele>581.0</ele><time>2026-04-26T09:25:16.987Z</time></trkpt><trkpt lat="44.2664544" lon="8.2301499"><ele>581.0</ele><time>2026-04-26T09:25:17.987Z</time></trkpt><trkpt lat="44.2663379" lon="8.2301835"><ele>581.0</ele><time>2026-04-26T09:25:18.987Z</time></trkpt><trkpt lat="44.2662302" lon="8.2302027"><ele>581.0</ele><time>2026-04-26T09:25:19.987Z</time></trkpt><trkpt lat="44.2661258" lon="8.2302011"><ele>580.75</ele><time>2026-04-26T09:25:20.987Z</time></trkpt><trkpt lat="44.2660143" lon="8.2301771"><ele>580.5</ele><time>2026-04-26T09:25:21.987Z</time></trkpt><trkpt lat="44.2659179" lon="8.2301263"><ele>580.25</ele><time>2026-04-26T09:25:22.987Z</time></trkpt><trkpt lat="44.2658182" lon="8.2300477"><ele>580.0</ele><time>2026-04-26T09:25:23.987Z</time></trkpt><trkpt lat="44.2657099" lon="8.2299631"><ele>579.6</ele><time>2026-04-26T09:25:24.987Z</time></trkpt><trkpt lat="44.2656033" lon="8.2298792"><ele>579.2</ele><time>2026-04-26T09:25:25.987Z</time></trkpt><trkpt lat="44.2655036" lon="8.2298099"><ele>578.8</ele><time>2026-04-26T09:25:26.987Z</time></trkpt><trkpt lat="44.2654171" lon="8.2297436"><ele>578.4</ele><time>2026-04-26T09:25:27.988Z</time></trkpt><trkpt lat="44.2653524" lon="8.2296467"><ele>578.0</ele><time>2026-04-26T09:25:28.988Z</time></trkpt><trkpt lat="44.2653216" lon="8.2295299"><ele>578.0</ele><time>2026-04-26T09:25:29.987Z</time></trkpt><trkpt lat="44.2652981" lon="8.2294076"><ele>578.0</ele><time>2026-04-26T09:25:30.987Z</time></trkpt><trkpt lat="44.2653013" lon="8.2292645"><ele>578.0</ele><time>2026-04-26T09:25:31.987Z</time></trkpt><trkpt lat="44.2653108" lon="8.2291024"><ele>578.0</ele><time>2026-04-26T09:25:32.987Z</time></trkpt><trkpt lat="44.2653035" lon="8.2289604"><ele>578.0</ele><time>2026-04-26T09:25:33.987Z</time></trkpt><trkpt lat="44.2652769" lon="8.2288353"><ele>583.6</ele><time>2026-04-26T09:25:34.988Z</time></trkpt><trkpt lat="44.2652241" lon="8.2287345"><ele>589.1999999999999</ele><time>2026-04-26T09:25:35.987Z</time></trkpt><trkpt lat="44.2651438" lon="8.2286478"><ele>594.8</ele><time>2026-04-26T09:25:36.987Z</time></trkpt><trkpt lat="44.2650379" lon="8.2285634"><ele>600.4</ele><time>2026-04-26T09:25:37.987Z</time></trkpt><trkpt lat="44.2649184" lon="8.2284764"><ele>606.0</ele><time>2026-04-26T09:25:38.987Z</time></trkpt><trkpt lat="44.2647939" lon="8.2283789"><ele>602.5</ele><time>2026-04-26T09:25:39.987Z</time></trkpt><trkpt lat="44.2646733" lon="8.2282803"><ele>599.0</ele><time>2026-04-26T09:25:40.987Z</time></trkpt><trkpt lat="44.2645656" lon="8.2281981"><ele>595.5</ele><time>2026-04-26T09:25:41.987Z</time></trkpt><trkpt lat="44.2644678" lon="8.2281245"><ele>592.0</ele><time>2026-04-26T09:25:42.987Z</time></trkpt><trkpt lat="44.2643881" lon="8.2280652"><ele>592.0</ele><time>2026-04-26T09:25:43.987Z</time></trkpt><trkpt lat="44.2643358" lon="8.2279894"><ele>592.0</ele><time>2026-04-26T09:25:44.988Z</time></trkpt><trkpt lat="44.2643063" lon="8.2278872"><ele>592.0</ele><time>2026-04-26T09:25:45.987Z</time></trkpt><trkpt lat="44.2642974" lon="8.2277748"><ele>592.0</ele><time>2026-04-26T09:25:46.987Z</time></trkpt><trkpt lat="44.2643041" lon="8.2276519"><ele>592.0</ele><time>2026-04-26T09:25:47.987Z</time></trkpt><trkpt lat="44.2643287" lon="8.227508"><ele>592.0</ele><time>2026-04-26T09:25:48.987Z</time></trkpt><trkpt lat="44.2643431" lon="8.2273405"><ele>596.5</ele><time>2026-04-26T09:25:49.987Z</time></trkpt><trkpt lat="44.2643312" lon="8.2271823"><ele>601.0</ele><time>2026-04-26T09:25:50.988Z</time></trkpt><trkpt lat="44.2642985" lon="8.2270304"><ele>605.5</ele><time>2026-04-26T09:25:51.987Z</time></trkpt><trkpt lat="44.2642415" lon="8.2268789"><ele>610.0</ele><time>2026-04-26T09:25:52.987Z</time></trkpt><trkpt lat="44.2641581" lon="8.2267336"><ele>610.0</ele><time>2026-04-26T09:25:53.987Z</time></trkpt><trkpt lat="44.264076" lon="8.2265819"><ele>610.0</ele><time>2026-04-26T09:25:54.988Z</time></trkpt><trkpt lat="44.2640112" lon="8.2264288"><ele>610.0</ele><time>2026-04-26T09:25:55.987Z</time></trkpt><trkpt lat="44.2639548" lon="8.2262856"><ele>610.0</ele><time>2026-04-26T09:25:56.987Z</time></trkpt><trkpt lat="44.2638825" lon="8.2261677"><ele>610.75</ele><time>2026-04-26T09:25:57.987Z</time></trkpt><trkpt lat="44.263788" lon="8.2260723"><ele>611.5</ele><time>2026-04-26T09:25:58.987Z</time></trkpt><trkpt lat="44.2636718" lon="8.2259875"><ele>612.25</ele><time>2026-04-26T09:25:59.987Z</time></trkpt><trkpt lat="44.2635483" lon="8.2259145"><ele>613.0</ele><time>2026-04-26T09:26:00.987Z</time></trkpt><trkpt lat="44.2634264" lon="8.2258456"><ele>613.0</ele><time>2026-04-26T09:26:01.987Z</time></trkpt><trkpt lat="44.2633081" lon="8.2258"><ele>613.0</ele><time>2026-04-26T09:26:02.987Z</time></trkpt><trkpt lat="44.2631968" lon="8.2257861"><ele>613.0</ele><time>2026-04-26T09:26:03.987Z</time></trkpt><trkpt lat="44.2630922" lon="8.2258037"><ele>613.0</ele><time>2026-04-26T09:26:04.987Z</time></trkpt><trkpt lat="44.2629979" lon="8.2258183"><ele>613.0</ele><time>2026-04-26T09:26:05.987Z</time></trkpt><trkpt lat="44.2629047" lon="8.2258034"><ele>610.0</ele><time>2026-04-26T09:26:06.987Z</time></trkpt><trkpt lat="44.2628114" lon="8.2257418"><ele>607.0</ele><time>2026-04-26T09:26:07.987Z</time></trkpt><trkpt lat="44.2627232" lon="8.2256392"><ele>604.0</ele><time>2026-04-26T09:26:08.987Z</time></trkpt><trkpt lat="44.2626311" lon="8.2255203"><ele>601.0</ele><time>2026-04-26T09:26:09.987Z</time></trkpt><trkpt lat="44.2625287" lon="8.2253914"><ele>605.0</ele><time>2026-04-26T09:26:10.988Z</time></trkpt><trkpt lat="44.2624279" lon="8.2253027"><ele>609.0</ele><time>2026-04-26T09:26:11.987Z</time></trkpt><trkpt lat="44.2623213" lon="8.2252476"><ele>613.0</ele><time>2026-04-26T09:26:12.987Z</time></trkpt><trkpt lat="44.2622176" lon="8.2251986"><ele>617.0</ele><time>2026-04-26T09:26:13.987Z</time></trkpt><trkpt lat="44.262123" lon="8.2251486"><ele>621.0</ele><time>2026-04-26T09:26:14.988Z</time></trkpt><trkpt lat="44.2620278" lon="8.2251031"><ele>621.0</ele><time>2026-04-26T09:26:15.987Z</time></trkpt><trkpt lat="44.2619276" lon="8.2250555"><ele>621.0</ele><time>2026-04-26T09:26:16.987Z</time></trkpt><trkpt lat="44.2618295" lon="8.22499"><ele>621.0</ele><time>2026-04-26T09:26:17.987Z</time></trkpt><trkpt lat="44.2617403" lon="8.224898"><ele>621.0</ele><time>2026-04-26T09:26:18.987Z</time></trkpt><trkpt lat="44.2616592" lon="8.2247918"><ele>621.0</ele><time>2026-04-26T09:26:19.988Z</time></trkpt><trkpt lat="44.2615688" lon="8.2246879"><ele>623.0</ele><time>2026-04-26T09:26:20.987Z</time></trkpt><trkpt lat="44.2614775" lon="8.2246228"><ele>625.0</ele><time>2026-04-26T09:26:21.987Z</time></trkpt><trkpt lat="44.261393" lon="8.2245762"><ele>627.0</ele><time>2026-04-26T09:26:22.988Z</time></trkpt><trkpt lat="44.261298" lon="8.2245704"><ele>629.0</ele><time>2026-04-26T09:26:23.987Z</time></trkpt><trkpt lat="44.2611918" lon="8.2245835"><ele>631.0</ele><time>2026-04-26T09:26:24.988Z</time></trkpt><trkpt lat="44.2610883" lon="8.2245842"><ele>631.0</ele><time>2026-04-26T09:26:25.987Z</time></trkpt><trkpt lat="44.2609973" lon="8.2245619"><ele>631.0</ele><time>2026-04-26T09:26:26.987Z</time></trkpt><trkpt lat="44.2609176" lon="8.224512"><ele>631.0</ele><time>2026-04-26T09:26:27.987Z</time></trkpt><trkpt lat="44.2608725" lon="8.2244374"><ele>631.0</ele><time>2026-04-26T09:26:28.987Z</time></trkpt><trkpt lat="44.2608548" lon="8.2243514"><ele>631.0</ele><time>2026-04-26T09:26:29.987Z</time></trkpt><trkpt lat="44.2608547" lon="8.2242505"><ele>631.0</ele><time>2026-04-26T09:26:30.987Z</time></trkpt><trkpt lat="44.2608558" lon="8.2241368"><ele>631.0</ele><time>2026-04-26T09:26:31.987Z</time></trkpt><trkpt lat="44.2608409" lon="8.2240322"><ele>631.0</ele><time>2026-04-26T09:26:32.987Z</time></trkpt><trkpt lat="44.2607908" lon="8.2239568"><ele>631.0</ele><time>2026-04-26T09:26:33.988Z</time></trkpt><trkpt lat="44.260723" lon="8.2239115"><ele>631.0</ele><time>2026-04-26T09:26:34.987Z</time></trkpt><trkpt lat="44.2606471" lon="8.2238797"><ele>631.0</ele><time>2026-04-26T09:26:35.988Z</time></trkpt><trkpt lat="44.2605642" lon="8.2238616"><ele>631.0</ele><time>2026-04-26T09:26:36.987Z</time></trkpt><trkpt lat="44.2604728" lon="8.2238363"><ele>634.5</ele><time>2026-04-26T09:26:37.987Z</time></trkpt><trkpt lat="44.2603717" lon="8.2237881"><ele>638.0</ele><time>2026-04-26T09:26:38.988Z</time></trkpt><trkpt lat="44.2602607" lon="8.2237133"><ele>641.5</ele><time>2026-04-26T09:26:39.987Z</time></trkpt><trkpt lat="44.2601378" lon="8.2236179"><ele>645.0</ele><time>2026-04-26T09:26:40.987Z</time></trkpt><trkpt lat="44.2600156" lon="8.2234917"><ele>645.0</ele><time>2026-04-26T09:26:41.987Z</time></trkpt><trkpt lat="44.2599119" lon="8.2233439"><ele>645.0</ele><time>2026-04-26T09:26:42.987Z</time></trkpt><trkpt lat="44.259822" lon="8.2232126"><ele>645.0</ele><time>2026-04-26T09:26:43.987Z</time></trkpt><trkpt lat="44.2597387" lon="8.2230795"><ele>645.0</ele><time>2026-04-26T09:26:44.988Z</time></trkpt><trkpt lat="44.2596712" lon="8.2229314"><ele>644.25</ele><time>2026-04-26T09:26:45.987Z</time></trkpt><trkpt lat="44.2596137" lon="8.2227706"><ele>643.5</ele><time>2026-04-26T09:26:46.987Z</time></trkpt><trkpt lat="44.2595614" lon="8.2226081"><ele>642.75</ele><time>2026-04-26T09:26:47.987Z</time></trkpt><trkpt lat="44.2595421" lon="8.222446"><ele>642.0</ele><time>2026-04-26T09:26:48.987Z</time></trkpt><trkpt lat="44.2595426" lon="8.2222918"><ele>646.0</ele><time>2026-04-26T09:26:49.987Z</time></trkpt><trkpt lat="44.2595427" lon="8.222148"><ele>650.0</ele><time>2026-04-26T09:26:50.988Z</time></trkpt><trkpt lat="44.2595287" lon="8.2220269"><ele>654.0</ele><time>2026-04-26T09:26:51.987Z</time></trkpt><trkpt lat="44.2595015" lon="8.2219156"><ele>658.0</ele><time>2026-04-26T09:26:52.987Z</time></trkpt><trkpt lat="44.2594517" lon="8.2218348"><ele>662.0</ele><time>2026-04-26T09:26:53.987Z</time></trkpt><trkpt lat="44.2593935" lon="8.2217748"><ele>666.0</ele><time>2026-04-26T09:26:54.987Z</time></trkpt><trkpt lat="44.2593169" lon="8.2217558"><ele>666.0</ele><time>2026-04-26T09:26:55.987Z</time></trkpt><trkpt lat="44.2592391" lon="8.2217305"><ele>666.0</ele><time>2026-04-26T09:26:56.987Z</time></trkpt><trkpt lat="44.2591537" lon="8.2216867"><ele>666.0</ele><time>2026-04-26T09:26:57.987Z</time></trkpt><trkpt lat="44.2590646" lon="8.2216206"><ele>666.0</ele><time>2026-04-26T09:26:58.987Z</time></trkpt><trkpt lat="44.2589855" lon="8.2215288"><ele>666.0</ele><time>2026-04-26T09:26:59.987Z</time></trkpt><trkpt lat="44.2589167" lon="8.2214357"><ele>671.5</ele><time>2026-04-26T09:27:00.987Z</time></trkpt><trkpt lat="44.2588469" lon="8.2213579"><ele>677.0</ele><time>2026-04-26T09:27:01.987Z</time></trkpt><trkpt lat="44.2587847" lon="8.2212967"><ele>682.5</ele><time>2026-04-26T09:27:02.987Z</time></trkpt><trkpt lat="44.2587211" lon="8.2212846"><ele>688.0</ele><time>2026-04-26T09:27:03.987Z</time></trkpt><trkpt lat="44.2586581" lon="8.2213021"><ele>693.5</ele><time>2026-04-26T09:27:04.987Z</time></trkpt><trkpt lat="44.2585925" lon="8.2213727"><ele>699.0</ele><time>2026-04-26T09:27:05.987Z</time></trkpt><trkpt lat="44.2585337" lon="8.2214666"><ele>694.4000000000001</ele><time>2026-04-26T09:27:06.987Z</time></trkpt><trkpt lat="44.258482" lon="8.2215706"><ele>689.8</ele><time>2026-04-26T09:27:07.987Z</time></trkpt><trkpt lat="44.258431" lon="8.2216864"><ele>685.2</ele><time>2026-04-26T09:27:08.987Z</time></trkpt><trkpt lat="44.2583764" lon="8.2217963"><ele>680.5999999999999</ele><time>2026-04-26T09:27:09.987Z</time></trkpt><trkpt lat="44.2583049" lon="8.2218925"><ele>676.0</ele><time>2026-04-26T09:27:10.987Z</time></trkpt><trkpt lat="44.2582317" lon="8.2219537"><ele>676.0</ele><time>2026-04-26T09:27:11.988Z</time></trkpt><trkpt lat="44.2581506" lon="8.2219894"><ele>676.0</ele><time>2026-04-26T09:27:12.987Z</time></trkpt><trkpt lat="44.2580599" lon="8.2220023"><ele>676.0</ele><time>2026-04-26T09:27:13.987Z</time></trkpt><trkpt lat="44.2579742" lon="8.2219907"><ele>676.0</ele><time>2026-04-26T09:27:14.988Z</time></trkpt><trkpt lat="44.257891" lon="8.2219552"><ele>676.0</ele><time>2026-04-26T09:27:15.987Z</time></trkpt><trkpt lat="44.2578237" lon="8.2219054"><ele>676.0</ele><time>2026-04-26T09:27:16.987Z</time></trkpt><trkpt lat="44.2577652" lon="8.2218324"><ele>675.4</ele><time>2026-04-26T09:27:17.987Z</time></trkpt><trkpt lat="44.2577176" lon="8.2217233"><ele>674.8</ele><time>2026-04-26T09:27:18.987Z</time></trkpt><trkpt lat="44.2576741" lon="8.2215895"><ele>674.1999999999999</ele><time>2026-04-26T09:27:19.987Z</time></trkpt><trkpt lat="44.2576114" lon="8.2214746"><ele>673.5999999999999</ele><time>2026-04-26T09:27:20.987Z</time></trkpt><trkpt lat="44.2575281" lon="8.2213768"><ele>673.0</ele><time>2026-04-26T09:27:21.987Z</time></trkpt><trkpt lat="44.2574285" lon="8.2212885"><ele>674.8</ele><time>2026-04-26T09:27:22.987Z</time></trkpt><trkpt lat="44.257317" lon="8.2212218"><ele>676.5999999999999</ele><time>2026-04-26T09:27:23.987Z</time></trkpt><trkpt lat="44.2572164" lon="8.2211683"><ele>678.4000000000001</ele><time>2026-04-26T09:27:24.988Z</time></trkpt><trkpt lat="44.2571309" lon="8.2211093"><ele>680.2</ele><time>2026-04-26T09:27:25.987Z</time></trkpt><trkpt lat="44.2570548" lon="8.2210493"><ele>682.0</ele><time>2026-04-26T09:27:26.987Z</time></trkpt><trkpt lat="44.2569987" lon="8.2209618"><ele>682.0</ele><time>2026-04-26T09:27:27.987Z</time></trkpt><trkpt lat="44.2569687" lon="8.2208576"><ele>682.0</ele><time>2026-04-26T09:27:28.987Z</time></trkpt><trkpt lat="44.256946" lon="8.2207472"><ele>682.0</ele><time>2026-04-26T09:27:29.987Z</time></trkpt><trkpt lat="44.2569133" lon="8.2206526"><ele>682.0</ele><time>2026-04-26T09:27:30.987Z</time></trkpt><trkpt lat="44.2568661" lon="8.2205755"><ele>682.0</ele><time>2026-04-26T09:27:31.987Z</time></trkpt><trkpt lat="44.2568051" lon="8.2205184"><ele>682.0</ele><time>2026-04-26T09:27:32.987Z</time></trkpt><trkpt lat="44.2567313" lon="8.2204778"><ele>686.0</ele><time>2026-04-26T09:27:33.987Z</time></trkpt><trkpt lat="44.2566372" lon="8.2204434"><ele>690.0</ele><time>2026-04-26T09:27:34.988Z</time></trkpt><trkpt lat="44.2565402" lon="8.2203972"><ele>694.0</ele><time>2026-04-26T09:27:35.988Z</time></trkpt><trkpt lat="44.2564479" lon="8.2203495"><ele>698.0</ele><time>2026-04-26T09:27:36.987Z</time></trkpt><trkpt lat="44.2563756" lon="8.2203123"><ele>702.0</ele><time>2026-04-26T09:27:37.987Z</time></trkpt><trkpt lat="44.2563138" lon="8.220263"><ele>706.0</ele><time>2026-04-26T09:27:38.987Z</time></trkpt><trkpt lat="44.2561907" lon="8.2202774"><ele>708.25</ele><time>2026-04-26T09:27:40.987Z</time></trkpt><trkpt lat="44.2561101" lon="8.2203447"><ele>710.5</ele><time>2026-04-26T09:27:41.987Z</time></trkpt><trkpt lat="44.2560215" lon="8.2204349"><ele>712.75</ele><time>2026-04-26T09:27:42.987Z</time></trkpt><trkpt lat="44.2559233" lon="8.2205546"><ele>715.0</ele><time>2026-04-26T09:27:43.987Z</time></trkpt><trkpt lat="44.2558297" lon="8.2206772"><ele>711.0</ele><time>2026-04-26T09:27:44.987Z</time></trkpt><trkpt lat="44.2557361" lon="8.2207903"><ele>707.0</ele><time>2026-04-26T09:27:45.987Z</time></trkpt><trkpt lat="44.2556427" lon="8.2208584"><ele>703.0</ele><time>2026-04-26T09:27:46.987Z</time></trkpt><trkpt lat="44.2555426" lon="8.2208931"><ele>699.0</ele><time>2026-04-26T09:27:47.987Z</time></trkpt><trkpt lat="44.2554324" lon="8.2209041"><ele>695.0</ele><time>2026-04-26T09:27:48.987Z</time></trkpt><trkpt lat="44.2553239" lon="8.2208879"><ele>695.0</ele><time>2026-04-26T09:27:49.987Z</time></trkpt><trkpt lat="44.2552172" lon="8.2208428"><ele>695.0</ele><time>2026-04-26T09:27:50.987Z</time></trkpt><trkpt lat="44.2551024" lon="8.2207775"><ele>695.0</ele><time>2026-04-26T09:27:51.987Z</time></trkpt><trkpt lat="44.2550043" lon="8.2207166"><ele>695.0</ele><time>2026-04-26T09:27:52.987Z</time></trkpt><trkpt lat="44.2549164" lon="8.220649"><ele>695.0</ele><time>2026-04-26T09:27:53.987Z</time></trkpt><trkpt lat="44.2548493" lon="8.2205659"><ele>696.8333333333333</ele><time>2026-04-26T09:27:54.987Z</time></trkpt><trkpt lat="44.2548045" lon="8.2204547"><ele>698.6666666666666</ele><time>2026-04-26T09:27:55.987Z</time></trkpt><trkpt lat="44.2547801" lon="8.2203294"><ele>700.5</ele><time>2026-04-26T09:27:56.987Z</time></trkpt><trkpt lat="44.2547738" lon="8.2202049"><ele>702.3333333333334</ele><time>2026-04-26T09:27:57.988Z</time></trkpt><trkpt lat="44.2547865" lon="8.2200957"><ele>704.1666666666667</ele><time>2026-04-26T09:27:58.987Z</time></trkpt><trkpt lat="44.2548139" lon="8.2200045"><ele>706.0</ele><time>2026-04-26T09:27:59.987Z</time></trkpt><trkpt lat="44.2548543" lon="8.2199331"><ele>707.8</ele><time>2026-04-26T09:28:00.987Z</time></trkpt><trkpt lat="44.2549447" lon="8.219887"><ele>709.5999999999999</ele><time>2026-04-26T09:28:02.987Z</time></trkpt><trkpt lat="44.2550116" lon="8.2199416"><ele>711.4</ele><time>2026-04-26T09:28:04.987Z</time></trkpt><trkpt lat="44.2550674" lon="8.2200858"><ele>713.2</ele><time>2026-04-26T09:28:06.988Z</time></trkpt><trkpt lat="44.2551481" lon="8.2201824"><ele>715.0</ele><time>2026-04-26T09:28:08.987Z</time></trkpt><trkpt lat="44.2552401" lon="8.2202303"><ele>715.0</ele><time>2026-04-26T09:28:09.987Z</time></trkpt><trkpt lat="44.2553391" lon="8.2202507"><ele>715.0</ele><time>2026-04-26T09:28:10.987Z</time></trkpt><trkpt lat="44.2554455" lon="8.220253"><ele>715.0</ele><time>2026-04-26T09:28:11.987Z</time></trkpt><trkpt lat="44.255558" lon="8.2202345"><ele>715.0</ele><time>2026-04-26T09:28:12.987Z</time></trkpt><trkpt lat="44.255655" lon="8.2202021"><ele>715.0</ele><time>2026-04-26T09:28:13.987Z</time></trkpt><trkpt lat="44.2557333" lon="8.220143"><ele>715.0</ele><time>2026-04-26T09:28:14.987Z</time></trkpt><trkpt lat="44.2557951" lon="8.2200733"><ele>715.0</ele><time>2026-04-26T09:28:15.987Z</time></trkpt><trkpt lat="44.2558426" lon="8.2199759"><ele>715.0</ele><time>2026-04-26T09:28:16.987Z</time></trkpt><trkpt lat="44.255875" lon="8.2198528"><ele>715.0</ele><time>2026-04-26T09:28:17.987Z</time></trkpt><trkpt lat="44.255912" lon="8.2197258"><ele>715.0</ele><time>2026-04-26T09:28:18.987Z</time></trkpt><trkpt lat="44.2559626" lon="8.2196097"><ele>717.8333333333334</ele><time>2026-04-26T09:28:19.987Z</time></trkpt><trkpt lat="44.2560256" lon="8.2195141"><ele>720.6666666666667</ele><time>2026-04-26T09:28:20.987Z</time></trkpt><trkpt lat="44.2560969" lon="8.2194479"><ele>723.5</ele><time>2026-04-26T09:28:21.988Z</time></trkpt><trkpt lat="44.2561704" lon="8.2193966"><ele>726.3333333333334</ele><time>2026-04-26T09:28:22.987Z</time></trkpt><trkpt lat="44.2562291" lon="8.2193543"><ele>729.1666666666666</ele><time>2026-04-26T09:28:23.987Z</time></trkpt><trkpt lat="44.2562872" lon="8.2192269"><ele>732.0</ele><time>2026-04-26T09:28:25.987Z</time></trkpt><trkpt lat="44.2562462" lon="8.2190985"><ele>732.0</ele><time>2026-04-26T09:28:27.987Z</time></trkpt><trkpt lat="44.2561396" lon="8.2190736"><ele>732.0</ele><time>2026-04-26T09:28:29.987Z</time></trkpt><trkpt lat="44.2560774" lon="8.2191146"><ele>732.0</ele><time>2026-04-26T09:28:30.987Z</time></trkpt><trkpt lat="44.2559972" lon="8.2191958"><ele>732.0</ele><time>2026-04-26T09:28:31.987Z</time></trkpt><trkpt lat="44.2559115" lon="8.2192954"><ele>732.0</ele><time>2026-04-26T09:28:32.987Z</time></trkpt><trkpt lat="44.2558327" lon="8.2194017"><ele>732.0</ele><time>2026-04-26T09:28:33.987Z</time></trkpt><trkpt lat="44.255761" lon="8.2194911"><ele>732.0</ele><time>2026-04-26T09:28:34.987Z</time></trkpt><trkpt lat="44.255695" lon="8.2195478"><ele>732.0</ele><time>2026-04-26T09:28:35.987Z</time></trkpt><trkpt lat="44.2556303" lon="8.21957"><ele>732.0</ele><time>2026-04-26T09:28:36.987Z</time></trkpt><trkpt lat="44.2555647" lon="8.2195645"><ele>732.0</ele><time>2026-04-26T09:28:37.987Z</time></trkpt><trkpt lat="44.2555022" lon="8.2195288"><ele>732.0</ele><time>2026-04-26T09:28:38.987Z</time></trkpt><trkpt lat="44.2554438" lon="8.2194516"><ele>731.1666666666666</ele><time>2026-04-26T09:28:39.987Z</time></trkpt><trkpt lat="44.2553793" lon="8.2193442"><ele>730.3333333333334</ele><time>2026-04-26T09:28:40.987Z</time></trkpt><trkpt lat="44.2553221" lon="8.2192398"><ele>729.5</ele><time>2026-04-26T09:28:41.987Z</time></trkpt><trkpt lat="44.2552673" lon="8.2191479"><ele>728.6666666666667</ele><time>2026-04-26T09:28:42.987Z</time></trkpt><trkpt lat="44.2552209" lon="8.219052"><ele>727.8333333333334</ele><time>2026-04-26T09:28:43.987Z</time></trkpt><trkpt lat="44.2551882" lon="8.2189589"><ele>727.0</ele><time>2026-04-26T09:28:44.987Z</time></trkpt><trkpt lat="44.2551741" lon="8.2188473"><ele>730.1666666666667</ele><time>2026-04-26T09:28:45.987Z</time></trkpt><trkpt lat="44.2551795" lon="8.2187262"><ele>733.3333333333334</ele><time>2026-04-26T09:28:46.987Z</time></trkpt><trkpt lat="44.255201" lon="8.2186079"><ele>736.5</ele><time>2026-04-26T09:28:47.987Z</time></trkpt><trkpt lat="44.2552236" lon="8.2184976"><ele>739.6666666666666</ele><time>2026-04-26T09:28:48.987Z</time></trkpt><trkpt lat="44.2552335" lon="8.2184043"><ele>742.8333333333333</ele><time>2026-04-26T09:28:49.987Z</time></trkpt><trkpt lat="44.2552109" lon="8.2182877"><ele>746.0</ele><time>2026-04-26T09:28:51.987Z</time></trkpt><trkpt lat="44.2550941" lon="8.2183256"><ele>746.0</ele><time>2026-04-26T09:28:53.987Z</time></trkpt><trkpt lat="44.2550196" lon="8.218353"><ele>746.0</ele><time>2026-04-26T09:28:54.987Z</time></trkpt><trkpt lat="44.2548851" lon="8.2183252"><ele>746.0</ele><time>2026-04-26T09:28:56.987Z</time></trkpt><trkpt lat="44.2548177" lon="8.2182814"><ele>746.0</ele><time>2026-04-26T09:28:57.987Z</time></trkpt><trkpt lat="44.254757" lon="8.2182441"><ele>746.0</ele><time>2026-04-26T09:28:58.987Z</time></trkpt><trkpt lat="44.2546568" lon="8.2182289"><ele>745.8333333333333</ele><time>2026-04-26T09:29:00.987Z</time></trkpt><trkpt lat="44.2545979" lon="8.2182626"><ele>745.6666666666666</ele><time>2026-04-26T09:29:01.987Z</time></trkpt><trkpt lat="44.2545204" lon="8.2183094"><ele>745.5</ele><time>2026-04-26T09:29:02.987Z</time></trkpt><trkpt lat="44.2544473" lon="8.2183389"><ele>745.3333333333334</ele><time>2026-04-26T09:29:03.987Z</time></trkpt><trkpt lat="44.2543668" lon="8.2183471"><ele>745.1666666666667</ele><time>2026-04-26T09:29:04.987Z</time></trkpt><trkpt lat="44.2542727" lon="8.2183253"><ele>745.0</ele><time>2026-04-26T09:29:05.987Z</time></trkpt><trkpt lat="44.2541747" lon="8.2182916"><ele>745.0</ele><time>2026-04-26T09:29:06.987Z</time></trkpt><trkpt lat="44.2540769" lon="8.2182699"><ele>745.0</ele><time>2026-04-26T09:29:07.988Z</time></trkpt><trkpt lat="44.2539748" lon="8.2182651"><ele>745.0</ele><time>2026-04-26T09:29:08.987Z</time></trkpt><trkpt lat="44.2538815" lon="8.2182653"><ele>745.0</ele><time>2026-04-26T09:29:09.987Z</time></trkpt><trkpt lat="44.2538042" lon="8.2182602"><ele>745.0</ele><time>2026-04-26T09:29:10.987Z</time></trkpt><trkpt lat="44.253743" lon="8.2182349"><ele>745.0</ele><time>2026-04-26T09:29:11.987Z</time></trkpt><trkpt lat="44.2536833" lon="8.2181899"><ele>742.4</ele><time>2026-04-26T09:29:12.987Z</time></trkpt><trkpt lat="44.2536451" lon="8.218117"><ele>739.8</ele><time>2026-04-26T09:29:13.987Z</time></trkpt><trkpt lat="44.2536241" lon="8.2180185"><ele>737.2</ele><time>2026-04-26T09:29:14.987Z</time></trkpt><trkpt lat="44.2536189" lon="8.2178946"><ele>734.6</ele><time>2026-04-26T09:29:15.987Z</time></trkpt><trkpt lat="44.2536293" lon="8.2177415"><ele>732.0</ele><time>2026-04-26T09:29:16.988Z</time></trkpt><trkpt lat="44.2536462" lon="8.2175664"><ele>732.0</ele><time>2026-04-26T09:29:17.987Z</time></trkpt><trkpt lat="44.2536835" lon="8.2173583"><ele>732.0</ele><time>2026-04-26T09:29:18.987Z</time></trkpt><trkpt lat="44.2537296" lon="8.2171424"><ele>732.0</ele><time>2026-04-26T09:29:19.987Z</time></trkpt><trkpt lat="44.2537625" lon="8.2169332"><ele>732.6666666666666</ele><time>2026-04-26T09:29:20.987Z</time></trkpt><trkpt lat="44.2537877" lon="8.2167213"><ele>733.3333333333333</ele><time>2026-04-26T09:29:21.987Z</time></trkpt><trkpt lat="44.253794" lon="8.2165254"><ele>734.0</ele><time>2026-04-26T09:29:22.987Z</time></trkpt><trkpt lat="44.2538136" lon="8.2163087"><ele>735.75</ele><time>2026-04-26T09:29:23.987Z</time></trkpt><trkpt lat="44.2538317" lon="8.2160966"><ele>737.5</ele><time>2026-04-26T09:29:24.987Z</time></trkpt><trkpt lat="44.2538418" lon="8.2159165"><ele>739.25</ele><time>2026-04-26T09:29:25.987Z</time></trkpt><trkpt lat="44.2538557" lon="8.2157541"><ele>741.0</ele><time>2026-04-26T09:29:26.988Z</time></trkpt><trkpt lat="44.2538805" lon="8.2155955"><ele>741.75</ele><time>2026-04-26T09:29:27.987Z</time></trkpt><trkpt lat="44.2539311" lon="8.2154407"><ele>742.5</ele><time>2026-04-26T09:29:28.987Z</time></trkpt><trkpt lat="44.253986" lon="8.2152993"><ele>743.25</ele><time>2026-04-26T09:29:29.988Z</time></trkpt><trkpt lat="44.2540475" lon="8.2151692"><ele>744.0</ele><time>2026-04-26T09:29:30.987Z</time></trkpt><trkpt lat="44.2540997" lon="8.2150478"><ele>750.6</ele><time>2026-04-26T09:29:31.987Z</time></trkpt><trkpt lat="44.2541298" lon="8.214925"><ele>757.2</ele><time>2026-04-26T09:29:32.987Z</time></trkpt><trkpt lat="44.2541402" lon="8.2147867"><ele>763.8000000000001</ele><time>2026-04-26T09:29:33.987Z</time></trkpt><trkpt lat="44.254129" lon="8.214637"><ele>770.4000000000001</ele><time>2026-04-26T09:29:34.987Z</time></trkpt><trkpt lat="44.2540944" lon="8.2144765"><ele>777.0</ele><time>2026-04-26T09:29:35.987Z</time></trkpt><trkpt lat="44.2540441" lon="8.2143101"><ele>777.5</ele><time>2026-04-26T09:29:36.987Z</time></trkpt><trkpt lat="44.2539902" lon="8.2141309"><ele>778.0</ele><time>2026-04-26T09:29:37.987Z</time></trkpt><trkpt lat="44.2539457" lon="8.2139416"><ele>778.5</ele><time>2026-04-26T09:29:38.987Z</time></trkpt><trkpt lat="44.2539092" lon="8.2137424"><ele>779.0</ele><time>2026-04-26T09:29:39.987Z</time></trkpt><trkpt lat="44.253886" lon="8.2135363"><ele>779.0</ele><time>2026-04-26T09:29:40.987Z</time></trkpt><trkpt lat="44.2538517" lon="8.2133467"><ele>779.0</ele><time>2026-04-26T09:29:41.987Z</time></trkpt><trkpt lat="44.2538239" lon="8.2131624"><ele>779.0</ele><time>2026-04-26T09:29:42.987Z</time></trkpt><trkpt lat="44.2537978" lon="8.2130125"><ele>779.0</ele><time>2026-04-26T09:29:43.987Z</time></trkpt><trkpt lat="44.2537998" lon="8.2128798"><ele>783.8333333333334</ele><time>2026-04-26T09:29:44.987Z</time></trkpt><trkpt lat="44.2538072" lon="8.212774"><ele>788.6666666666667</ele><time>2026-04-26T09:29:45.987Z</time></trkpt><trkpt lat="44.2538343" lon="8.2126732"><ele>793.5</ele><time>2026-04-26T09:29:46.987Z</time></trkpt><trkpt lat="44.2538698" lon="8.2125829"><ele>798.3333333333333</ele><time>2026-04-26T09:29:47.987Z</time></trkpt><trkpt lat="44.2538917" lon="8.2124983"><ele>803.1666666666666</ele><time>2026-04-26T09:29:48.988Z</time></trkpt><trkpt lat="44.2539037" lon="8.2123359"><ele>808.0</ele><time>2026-04-26T09:29:50.987Z</time></trkpt><trkpt lat="44.2538194" lon="8.2123346"><ele>808.0</ele><time>2026-04-26T09:29:54.988Z</time></trkpt><trkpt lat="44.2537594" lon="8.2124292"><ele>808.0</ele><time>2026-04-26T09:29:55.988Z</time></trkpt><trkpt lat="44.2536843" lon="8.2125654"><ele>808.0</ele><time>2026-04-26T09:29:56.987Z</time></trkpt><trkpt lat="44.2536068" lon="8.2127113"><ele>808.0</ele><time>2026-04-26T09:29:57.987Z</time></trkpt><trkpt lat="44.2535568" lon="8.2128732"><ele>808.0</ele><time>2026-04-26T09:29:58.987Z</time></trkpt><trkpt lat="44.2534906" lon="8.2130272"><ele>808.0</ele><time>2026-04-26T09:29:59.987Z</time></trkpt><trkpt lat="44.2534144" lon="8.2131557"><ele>808.0</ele><time>2026-04-26T09:30:00.987Z</time></trkpt><trkpt lat="44.2533174" lon="8.2132665"><ele>808.0</ele><time>2026-04-26T09:30:01.987Z</time></trkpt><trkpt lat="44.2532252" lon="8.2133649"><ele>802.8</ele><time>2026-04-26T09:30:02.987Z</time></trkpt><trkpt lat="44.2531374" lon="8.2134366"><ele>797.5999999999999</ele><time>2026-04-26T09:30:03.987Z</time></trkpt><trkpt lat="44.2530455" lon="8.213488"><ele>792.4000000000001</ele><time>2026-04-26T09:30:04.987Z</time></trkpt><trkpt lat="44.2529437" lon="8.2135142"><ele>787.2</ele><time>2026-04-26T09:30:05.987Z</time></trkpt><trkpt lat="44.252849" lon="8.2135103"><ele>782.0</ele><time>2026-04-26T09:30:06.987Z</time></trkpt><trkpt lat="44.2527469" lon="8.2134625"><ele>782.0</ele><time>2026-04-26T09:30:07.987Z</time></trkpt><trkpt lat="44.2526424" lon="8.2133959"><ele>782.0</ele><time>2026-04-26T09:30:08.987Z</time></trkpt><trkpt lat="44.2525456" lon="8.2133091"><ele>782.0</ele><time>2026-04-26T09:30:09.987Z</time></trkpt><trkpt lat="44.2524592" lon="8.2131874"><ele>782.0</ele><time>2026-04-26T09:30:10.987Z</time></trkpt><trkpt lat="44.2523716" lon="8.2130513"><ele>788.5</ele><time>2026-04-26T09:30:11.987Z</time></trkpt><trkpt lat="44.2522792" lon="8.2129099"><ele>795.0</ele><time>2026-04-26T09:30:12.988Z</time></trkpt><trkpt lat="44.2521865" lon="8.2127593"><ele>801.5</ele><time>2026-04-26T09:30:13.987Z</time></trkpt><trkpt lat="44.2521041" lon="8.212603"><ele>808.0</ele><time>2026-04-26T09:30:14.987Z</time></trkpt><trkpt lat="44.2520258" lon="8.2124528"><ele>808.0</ele><time>2026-04-26T09:30:15.987Z</time></trkpt><trkpt lat="44.2519565" lon="8.2123272"><ele>808.0</ele><time>2026-04-26T09:30:16.987Z</time></trkpt><trkpt lat="44.2518984" lon="8.2122245"><ele>808.0</ele><time>2026-04-26T09:30:17.987Z</time></trkpt><trkpt lat="44.2518462" lon="8.2121565"><ele>808.0</ele><time>2026-04-26T09:30:18.987Z</time></trkpt><trkpt lat="44.2517608" lon="8.2120631"><ele>808.0</ele><time>2026-04-26T09:30:20.987Z</time></trkpt><trkpt lat="44.251711" lon="8.2121185"><ele>808.0</ele><time>2026-04-26T09:30:22.987Z</time></trkpt><trkpt lat="44.2517094" lon="8.21222"><ele>808.0</ele><time>2026-04-26T09:30:23.987Z</time></trkpt><trkpt lat="44.2517091" lon="8.2123746"><ele>808.0</ele><time>2026-04-26T09:30:24.987Z</time></trkpt><trkpt lat="44.2517197" lon="8.212565"><ele>808.0</ele><time>2026-04-26T09:30:25.987Z</time></trkpt><trkpt lat="44.2517157" lon="8.2127704"><ele>808.0</ele><time>2026-04-26T09:30:26.988Z</time></trkpt><trkpt lat="44.2517197" lon="8.2129845"><ele>808.0</ele><time>2026-04-26T09:30:27.987Z</time></trkpt><trkpt lat="44.2517234" lon="8.2131864"><ele>808.0</ele><time>2026-04-26T09:30:28.988Z</time></trkpt><trkpt lat="44.2517188" lon="8.21337"><ele>808.0</ele><time>2026-04-26T09:30:29.988Z</time></trkpt><trkpt lat="44.2517" lon="8.2135346"><ele>808.0</ele><time>2026-04-26T09:30:30.987Z</time></trkpt><trkpt lat="44.2516786" lon="8.213697"><ele>808.0</ele><time>2026-04-26T09:30:31.987Z</time></trkpt><trkpt lat="44.251653" lon="8.2138487"><ele>808.0</ele><time>2026-04-26T09:30:32.987Z</time></trkpt><trkpt lat="44.2516276" lon="8.2139861"><ele>808.0</ele><time>2026-04-26T09:30:33.987Z</time></trkpt><trkpt lat="44.2515975" lon="8.2140949"><ele>808.0</ele><time>2026-04-26T09:30:34.988Z</time></trkpt><trkpt lat="44.2515553" lon="8.2141712"><ele>806.4</ele><time>2026-04-26T09:30:35.987Z</time></trkpt><trkpt lat="44.2514905" lon="8.2142263"><ele>804.8</ele><time>2026-04-26T09:30:36.987Z</time></trkpt><trkpt lat="44.2514235" lon="8.2142571"><ele>803.2</ele><time>2026-04-26T09:30:37.987Z</time></trkpt><trkpt lat="44.251338" lon="8.2142596"><ele>801.6</ele><time>2026-04-26T09:30:38.987Z</time></trkpt><trkpt lat="44.251227" lon="8.2142272"><ele>800.0</ele><time>2026-04-26T09:30:39.987Z</time></trkpt><trkpt lat="44.2511035" lon="8.2141648"><ele>800.0</ele><time>2026-04-26T09:30:40.987Z</time></trkpt><trkpt lat="44.2509576" lon="8.2140972"><ele>800.0</ele><time>2026-04-26T09:30:41.987Z</time></trkpt><trkpt lat="44.2508149" lon="8.2140213"><ele>800.0</ele><time>2026-04-26T09:30:42.987Z</time></trkpt><trkpt lat="44.2506617" lon="8.2139576"><ele>810.0</ele><time>2026-04-26T09:30:43.987Z</time></trkpt><trkpt lat="44.2505061" lon="8.2138908"><ele>820.0</ele><time>2026-04-26T09:30:44.987Z</time></trkpt><trkpt lat="44.2503514" lon="8.2138063"><ele>830.0</ele><time>2026-04-26T09:30:45.987Z</time></trkpt><trkpt lat="44.2502023" lon="8.2137328"><ele>830.0</ele><time>2026-04-26T09:30:46.987Z</time></trkpt><trkpt lat="44.2500686" lon="8.2136819"><ele>830.0</ele><time>2026-04-26T09:30:47.987Z</time></trkpt><trkpt lat="44.2499496" lon="8.2136554"><ele>830.0</ele><time>2026-04-26T09:30:48.987Z</time></trkpt><trkpt lat="44.2498556" lon="8.2136231"><ele>830.0</ele><time>2026-04-26T09:30:49.987Z</time></trkpt><trkpt lat="44.2497918" lon="8.213559"><ele>830.0</ele><time>2026-04-26T09:30:50.987Z</time></trkpt><trkpt lat="44.2497411" lon="8.2134778"><ele>832.4</ele><time>2026-04-26T09:30:51.987Z</time></trkpt><trkpt lat="44.2497171" lon="8.2133505"><ele>834.8</ele><time>2026-04-26T09:30:52.988Z</time></trkpt><trkpt lat="44.249695" lon="8.2132155"><ele>837.2</ele><time>2026-04-26T09:30:53.987Z</time></trkpt><trkpt lat="44.2496684" lon="8.2130705"><ele>839.6</ele><time>2026-04-26T09:30:54.987Z</time></trkpt><trkpt lat="44.2496355" lon="8.2129377"><ele>842.0</ele><time>2026-04-26T09:30:55.987Z</time></trkpt><trkpt lat="44.249567" lon="8.2128438"><ele>842.0</ele><time>2026-04-26T09:30:56.987Z</time></trkpt><trkpt lat="44.2494781" lon="8.2127544"><ele>842.0</ele><time>2026-04-26T09:30:57.987Z</time></trkpt><trkpt lat="44.2493851" lon="8.2126545"><ele>842.0</ele><time>2026-04-26T09:30:58.987Z</time></trkpt><trkpt lat="44.2492958" lon="8.2125693"><ele>842.0</ele><time>2026-04-26T09:30:59.987Z</time></trkpt><trkpt lat="44.2492081" lon="8.212503"><ele>842.0</ele><time>2026-04-26T09:31:00.987Z</time></trkpt><trkpt lat="44.2491323" lon="8.2124389"><ele>842.0</ele><time>2026-04-26T09:31:01.988Z</time></trkpt><trkpt lat="44.2490609" lon="8.2123694"><ele>842.0</ele><time>2026-04-26T09:31:02.987Z</time></trkpt><trkpt lat="44.2489886" lon="8.212271"><ele>842.0</ele><time>2026-04-26T09:31:03.988Z</time></trkpt><trkpt lat="44.2489201" lon="8.2121639"><ele>842.0</ele><time>2026-04-26T09:31:04.987Z</time></trkpt><trkpt lat="44.2488546" lon="8.2120649"><ele>842.0</ele><time>2026-04-26T09:31:05.987Z</time></trkpt><trkpt lat="44.2487794" lon="8.2119909"><ele>846.0</ele><time>2026-04-26T09:31:06.987Z</time></trkpt><trkpt lat="44.2487017" lon="8.2119344"><ele>850.0</ele><time>2026-04-26T09:31:07.987Z</time></trkpt><trkpt lat="44.2486296" lon="8.2118959"><ele>854.0</ele><time>2026-04-26T09:31:08.987Z</time></trkpt><trkpt lat="44.2485617" lon="8.2118885"><ele>858.0</ele><time>2026-04-26T09:31:09.987Z</time></trkpt><trkpt lat="44.2484598" lon="8.2119682"><ele>862.0</ele><time>2026-04-26T09:31:11.987Z</time></trkpt><trkpt lat="44.2484113" lon="8.2120978"><ele>862.0</ele><time>2026-04-26T09:31:12.987Z</time></trkpt><trkpt lat="44.2483728" lon="8.2122524"><ele>862.0</ele><time>2026-04-26T09:31:13.987Z</time></trkpt><trkpt lat="44.2483622" lon="8.2124148"><ele>862.0</ele><time>2026-04-26T09:31:14.987Z</time></trkpt><trkpt lat="44.2483877" lon="8.2125875"><ele>862.0</ele><time>2026-04-26T09:31:15.987Z</time></trkpt><trkpt lat="44.2484094" lon="8.2127711"><ele>859.25</ele><time>2026-04-26T09:31:16.987Z</time></trkpt><trkpt lat="44.2484283" lon="8.2129692"><ele>856.5</ele><time>2026-04-26T09:31:17.987Z</time></trkpt><trkpt lat="44.2484423" lon="8.21317"><ele>853.75</ele><time>2026-04-26T09:31:18.987Z</time></trkpt><trkpt lat="44.2484646" lon="8.2133841"><ele>851.0</ele><time>2026-04-26T09:31:19.987Z</time></trkpt><trkpt lat="44.2484877" lon="8.2136069"><ele>851.0</ele><time>2026-04-26T09:31:20.987Z</time></trkpt><trkpt lat="44.2485093" lon="8.2138269"><ele>851.0</ele><time>2026-04-26T09:31:21.987Z</time></trkpt><trkpt lat="44.2485315" lon="8.2140354"><ele>851.0</ele><time>2026-04-26T09:31:22.987Z</time></trkpt><trkpt lat="44.2485489" lon="8.2142354"><ele>852.25</ele><time>2026-04-26T09:31:23.987Z</time></trkpt><trkpt lat="44.2485588" lon="8.2144373"><ele>853.5</ele><time>2026-04-26T09:31:24.987Z</time></trkpt><trkpt lat="44.2485565" lon="8.2146367"><ele>854.75</ele><time>2026-04-26T09:31:25.987Z</time></trkpt><trkpt lat="44.24856" lon="8.2148326"><ele>856.0</ele><time>2026-04-26T09:31:26.987Z</time></trkpt><trkpt lat="44.2485749" lon="8.215021"><ele>856.0</ele><time>2026-04-26T09:31:27.987Z</time></trkpt><trkpt lat="44.2485913" lon="8.2151723"><ele>855.9999999999999</ele><time>2026-04-26T09:31:28.988Z</time></trkpt><trkpt lat="44.2485927" lon="8.2153002"><ele>855.9999999999999</ele><time>2026-04-26T09:31:29.987Z</time></trkpt><trkpt lat="44.2485734" lon="8.2154489"><ele>856.0</ele><time>2026-04-26T09:31:31.987Z</time></trkpt><trkpt lat="44.2484775" lon="8.2155415"><ele>856.0</ele><time>2026-04-26T09:31:33.987Z</time></trkpt><trkpt lat="44.2484039" lon="8.215571"><ele>856.0</ele><time>2026-04-26T09:31:34.987Z</time></trkpt><trkpt lat="44.2483012" lon="8.2156025"><ele>856.0</ele><time>2026-04-26T09:31:35.987Z</time></trkpt><trkpt lat="44.2481656" lon="8.2156446"><ele>856.0</ele><time>2026-04-26T09:31:36.987Z</time></trkpt><trkpt lat="44.2480369" lon="8.2157168"><ele>856.0</ele><time>2026-04-26T09:31:37.987Z</time></trkpt><trkpt lat="44.2479139" lon="8.215813"><ele>858.25</ele><time>2026-04-26T09:31:38.987Z</time></trkpt><trkpt lat="44.247818" lon="8.215932"><ele>860.5</ele><time>2026-04-26T09:31:39.987Z</time></trkpt><trkpt lat="44.2477382" lon="8.2160654"><ele>862.75</ele><time>2026-04-26T09:31:40.987Z</time></trkpt><trkpt lat="44.247667" lon="8.2161897"><ele>865.0</ele><time>2026-04-26T09:31:41.988Z</time></trkpt><trkpt lat="44.2475978" lon="8.2162838"><ele>865.0</ele><time>2026-04-26T09:31:42.987Z</time></trkpt><trkpt lat="44.2475166" lon="8.2163486"><ele>865.0</ele><time>2026-04-26T09:31:43.987Z</time></trkpt><trkpt lat="44.2474278" lon="8.2163849"><ele>865.0</ele><time>2026-04-26T09:31:44.987Z</time></trkpt><trkpt lat="44.2473273" lon="8.2164"><ele>865.0</ele><time>2026-04-26T09:31:45.987Z</time></trkpt><trkpt lat="44.2472303" lon="8.2163906"><ele>865.0</ele><time>2026-04-26T09:31:46.987Z</time></trkpt><trkpt lat="44.2471365" lon="8.2163661"><ele>863.75</ele><time>2026-04-26T09:31:47.987Z</time></trkpt><trkpt lat="44.2470431" lon="8.2163096"><ele>862.5</ele><time>2026-04-26T09:31:48.987Z</time></trkpt><trkpt lat="44.2469548" lon="8.2162114"><ele>861.25</ele><time>2026-04-26T09:31:49.987Z</time></trkpt><trkpt lat="44.246874" lon="8.2160806"><ele>860.0</ele><time>2026-04-26T09:31:50.987Z</time></trkpt><trkpt lat="44.2467978" lon="8.2159019"><ele>860.0</ele><time>2026-04-26T09:31:51.987Z</time></trkpt><trkpt lat="44.2467121" lon="8.2157579"><ele>860.0</ele><time>2026-04-26T09:31:52.987Z</time></trkpt><trkpt lat="44.2466141" lon="8.2156392"><ele>860.0</ele><time>2026-04-26T09:31:53.987Z</time></trkpt><trkpt lat="44.2465103" lon="8.2155443"><ele>860.0</ele><time>2026-04-26T09:31:54.987Z</time></trkpt><trkpt lat="44.2464036" lon="8.2154804"><ele>871.25</ele><time>2026-04-26T09:31:55.987Z</time></trkpt><trkpt lat="44.2463017" lon="8.2154384"><ele>882.5</ele><time>2026-04-26T09:31:56.987Z</time></trkpt><trkpt lat="44.2462001" lon="8.2154388"><ele>893.75</ele><time>2026-04-26T09:31:57.987Z</time></trkpt><trkpt lat="44.2460949" lon="8.2154925"><ele>905.0</ele><time>2026-04-26T09:31:58.987Z</time></trkpt><trkpt lat="44.2459702" lon="8.2156056"><ele>899.8</ele><time>2026-04-26T09:31:59.987Z</time></trkpt><trkpt lat="44.2458544" lon="8.2157131"><ele>894.6</ele><time>2026-04-26T09:32:00.987Z</time></trkpt><trkpt lat="44.2457525" lon="8.2157918"><ele>889.4000000000001</ele><time>2026-04-26T09:32:01.987Z</time></trkpt><trkpt lat="44.2456663" lon="8.2158268"><ele>884.2</ele><time>2026-04-26T09:32:02.987Z</time></trkpt><trkpt lat="44.2455771" lon="8.2158304"><ele>879.0</ele><time>2026-04-26T09:32:03.987Z</time></trkpt><trkpt lat="44.2454845" lon="8.2158081"><ele>879.0</ele><time>2026-04-26T09:32:04.987Z</time></trkpt><trkpt lat="44.2453835" lon="8.2157329"><ele>879.0000000000001</ele><time>2026-04-26T09:32:05.987Z</time></trkpt><trkpt lat="44.2452716" lon="8.2156648"><ele>879.0000000000001</ele><time>2026-04-26T09:32:06.988Z</time></trkpt><trkpt lat="44.2451627" lon="8.2156344"><ele>879.0</ele><time>2026-04-26T09:32:07.987Z</time></trkpt><trkpt lat="44.2450646" lon="8.2156388"><ele>879.0</ele><time>2026-04-26T09:32:08.987Z</time></trkpt><trkpt lat="44.2449694" lon="8.2156654"><ele>879.0</ele><time>2026-04-26T09:32:09.988Z</time></trkpt><trkpt lat="44.2448899" lon="8.2157519"><ele>879.0</ele><time>2026-04-26T09:32:10.987Z</time></trkpt><trkpt lat="44.2447918" lon="8.2158786"><ele>879.0</ele><time>2026-04-26T09:32:11.987Z</time></trkpt><trkpt lat="44.2446946" lon="8.2159972"><ele>879.0</ele><time>2026-04-26T09:32:12.987Z</time></trkpt><trkpt lat="44.2445858" lon="8.2160893"><ele>884.8000000000001</ele><time>2026-04-26T09:32:13.987Z</time></trkpt><trkpt lat="44.244471" lon="8.2161393"><ele>890.6000000000001</ele><time>2026-04-26T09:32:14.987Z</time></trkpt><trkpt lat="44.244363" lon="8.2161543"><ele>896.4</ele><time>2026-04-26T09:32:15.987Z</time></trkpt><trkpt lat="44.2442619" lon="8.2161718"><ele>902.2</ele><time>2026-04-26T09:32:16.987Z</time></trkpt><trkpt lat="44.2441665" lon="8.2162229"><ele>908.0</ele><time>2026-04-26T09:32:17.987Z</time></trkpt><trkpt lat="44.2440809" lon="8.2162996"><ele>908.0</ele><time>2026-04-26T09:32:18.987Z</time></trkpt><trkpt lat="44.2439904" lon="8.2163787"><ele>908.0</ele><time>2026-04-26T09:32:19.987Z</time></trkpt><trkpt lat="44.2438985" lon="8.2164319"><ele>908.0</ele><time>2026-04-26T09:32:20.987Z</time></trkpt><trkpt lat="44.2438127" lon="8.2164448"><ele>908.0</ele><time>2026-04-26T09:32:21.987Z</time></trkpt><trkpt lat="44.2437117" lon="8.2164316"><ele>908.0</ele><time>2026-04-26T09:32:22.987Z</time></trkpt><trkpt lat="44.2436012" lon="8.2164147"><ele>904.4</ele><time>2026-04-26T09:32:23.987Z</time></trkpt><trkpt lat="44.243496" lon="8.21645"><ele>900.8</ele><time>2026-04-26T09:32:24.988Z</time></trkpt><trkpt lat="44.2433986" lon="8.2165383"><ele>897.2</ele><time>2026-04-26T09:32:25.987Z</time></trkpt><trkpt lat="44.2433118" lon="8.2166375"><ele>893.6</ele><time>2026-04-26T09:32:26.987Z</time></trkpt><trkpt lat="44.2432288" lon="8.21671"><ele>890.0</ele><time>2026-04-26T09:32:27.987Z</time></trkpt><trkpt lat="44.2431517" lon="8.2167492"><ele>892.8333333333334</ele><time>2026-04-26T09:32:28.987Z</time></trkpt><trkpt lat="44.2430645" lon="8.2167487"><ele>895.6666666666667</ele><time>2026-04-26T09:32:29.987Z</time></trkpt><trkpt lat="44.2429801" lon="8.2167431"><ele>898.5</ele><time>2026-04-26T09:32:30.987Z</time></trkpt><trkpt lat="44.242891" lon="8.216766"><ele>901.3333333333333</ele><time>2026-04-26T09:32:31.988Z</time></trkpt><trkpt lat="44.2428091" lon="8.2167955"><ele>904.1666666666666</ele><time>2026-04-26T09:32:32.988Z</time></trkpt><trkpt lat="44.2427267" lon="8.2168489"><ele>907.0</ele><time>2026-04-26T09:32:33.987Z</time></trkpt><trkpt lat="44.2426578" lon="8.2169407"><ele>907.0</ele><time>2026-04-26T09:32:34.987Z</time></trkpt><trkpt lat="44.2425828" lon="8.2170434"><ele>907.0</ele><time>2026-04-26T09:32:35.987Z</time></trkpt><trkpt lat="44.2425101" lon="8.2171228"><ele>907.0</ele><time>2026-04-26T09:32:36.988Z</time></trkpt><trkpt lat="44.2424288" lon="8.2171718"><ele>907.0</ele><time>2026-04-26T09:32:37.987Z</time></trkpt><trkpt lat="44.2423447" lon="8.2171989"><ele>907.0</ele><time>2026-04-26T09:32:38.987Z</time></trkpt><trkpt lat="44.2422537" lon="8.217185"><ele>906.2</ele><time>2026-04-26T09:32:39.987Z</time></trkpt><trkpt lat="44.2421573" lon="8.2171364"><ele>905.4000000000001</ele><time>2026-04-26T09:32:40.987Z</time></trkpt><trkpt lat="44.2420641" lon="8.2170599"><ele>904.5999999999999</ele><time>2026-04-26T09:32:41.987Z</time></trkpt><trkpt lat="44.2419893" lon="8.2169439"><ele>903.8</ele><time>2026-04-26T09:32:42.987Z</time></trkpt><trkpt lat="44.2419365" lon="8.2167883"><ele>903.0</ele><time>2026-04-26T09:32:43.987Z</time></trkpt><trkpt lat="44.2418937" lon="8.2166011"><ele>909.6666666666667</ele><time>2026-04-26T09:32:44.987Z</time></trkpt><trkpt lat="44.241853" lon="8.2163651"><ele>916.3333333333334</ele><time>2026-04-26T09:32:45.987Z</time></trkpt><trkpt lat="44.2418205" lon="8.2161344"><ele>923.0</ele><time>2026-04-26T09:32:46.987Z</time></trkpt><trkpt lat="44.2418012" lon="8.2159242"><ele>923.0</ele><time>2026-04-26T09:32:47.987Z</time></trkpt><trkpt lat="44.2417903" lon="8.2157487"><ele>923.0</ele><time>2026-04-26T09:32:48.987Z</time></trkpt><trkpt lat="44.2417735" lon="8.2155989"><ele>923.0</ele><time>2026-04-26T09:32:49.987Z</time></trkpt><trkpt lat="44.2417551" lon="8.2154752"><ele>923.0</ele><time>2026-04-26T09:32:50.987Z</time></trkpt><trkpt lat="44.2417326" lon="8.2153725"><ele>923.0</ele><time>2026-04-26T09:32:51.988Z</time></trkpt><trkpt lat="44.2416725" lon="8.2152415"><ele>927.75</ele><time>2026-04-26T09:32:53.987Z</time></trkpt><trkpt lat="44.2416341" lon="8.2151619"><ele>932.5</ele><time>2026-04-26T09:32:55.987Z</time></trkpt><trkpt lat="44.2414955" lon="8.2152647"><ele>937.25</ele><time>2026-04-26T09:32:57.987Z</time></trkpt><trkpt lat="44.2413957" lon="8.2154316"><ele>942.0</ele><time>2026-04-26T09:32:58.988Z</time></trkpt><trkpt lat="44.2412991" lon="8.2155793"><ele>942.0</ele><time>2026-04-26T09:32:59.987Z</time></trkpt><trkpt lat="44.2411815" lon="8.2157288"><ele>942.0</ele><time>2026-04-26T09:33:00.987Z</time></trkpt><trkpt lat="44.2410564" lon="8.2158727"><ele>942.0</ele><time>2026-04-26T09:33:01.986Z</time></trkpt><trkpt lat="44.2409272" lon="8.2160568"><ele>942.0</ele><time>2026-04-26T09:33:02.986Z</time></trkpt><trkpt lat="44.2408077" lon="8.2162496"><ele>942.0</ele><time>2026-04-26T09:33:03.987Z</time></trkpt><trkpt lat="44.2406953" lon="8.2164325"><ele>942.0</ele><time>2026-04-26T09:33:04.986Z</time></trkpt><trkpt lat="44.2406156" lon="8.2166189"><ele>943.5</ele><time>2026-04-26T09:33:05.986Z</time></trkpt><trkpt lat="44.2405303" lon="8.216776"><ele>945.0</ele><time>2026-04-26T09:33:06.986Z</time></trkpt><trkpt lat="44.240435" lon="8.2168938"><ele>946.5</ele><time>2026-04-26T09:33:07.986Z</time></trkpt><trkpt lat="44.2403464" lon="8.2169723"><ele>948.0</ele><time>2026-04-26T09:33:08.986Z</time></trkpt><trkpt lat="44.2402616" lon="8.2170173"><ele>948.0</ele><time>2026-04-26T09:33:09.986Z</time></trkpt><trkpt lat="44.2401611" lon="8.2170376"><ele>948.0</ele><time>2026-04-26T09:33:10.987Z</time></trkpt><trkpt lat="44.2400352" lon="8.2170437"><ele>948.0</ele><time>2026-04-26T09:33:11.986Z</time></trkpt><trkpt lat="44.2399075" lon="8.2170555"><ele>948.0</ele><time>2026-04-26T09:33:12.987Z</time></trkpt><trkpt lat="44.2397831" lon="8.2170837"><ele>949.2</ele><time>2026-04-26T09:33:13.986Z</time></trkpt><trkpt lat="44.2396791" lon="8.2171212"><ele>950.4</ele><time>2026-04-26T09:33:14.986Z</time></trkpt><trkpt lat="44.2395894" lon="8.2171797"><ele>951.6000000000001</ele><time>2026-04-26T09:33:15.987Z</time></trkpt><trkpt lat="44.239519" lon="8.2172466"><ele>952.8000000000001</ele><time>2026-04-26T09:33:16.987Z</time></trkpt><trkpt lat="44.2394592" lon="8.2173455"><ele>954.0</ele><time>2026-04-26T09:33:17.986Z</time></trkpt><trkpt lat="44.2394212" lon="8.2174698"><ele>954.0</ele><time>2026-04-26T09:33:18.987Z</time></trkpt><trkpt lat="44.2393975" lon="8.2176078"><ele>954.0000000000001</ele><time>2026-04-26T09:33:19.986Z</time></trkpt><trkpt lat="44.2393924" lon="8.2177565"><ele>954.0000000000001</ele><time>2026-04-26T09:33:20.986Z</time></trkpt><trkpt lat="44.2393795" lon="8.2178927"><ele>954.0</ele><time>2026-04-26T09:33:21.987Z</time></trkpt><trkpt lat="44.2393515" lon="8.2180156"><ele>954.0</ele><time>2026-04-26T09:33:22.986Z</time></trkpt><trkpt lat="44.2392954" lon="8.2181246"><ele>951.75</ele><time>2026-04-26T09:33:23.986Z</time></trkpt><trkpt lat="44.2392212" lon="8.2182256"><ele>949.5</ele><time>2026-04-26T09:33:24.986Z</time></trkpt><trkpt lat="44.2391276" lon="8.2183224"><ele>947.25</ele><time>2026-04-26T09:33:25.986Z</time></trkpt><trkpt lat="44.2390211" lon="8.2184074"><ele>945.0</ele><time>2026-04-26T09:33:26.986Z</time></trkpt><trkpt lat="44.2389149" lon="8.2184772"><ele>949.0</ele><time>2026-04-26T09:33:27.986Z</time></trkpt><trkpt lat="44.2388179" lon="8.2185454"><ele>953.0</ele><time>2026-04-26T09:33:28.986Z</time></trkpt><trkpt lat="44.2387383" lon="8.218625"><ele>957.0</ele><time>2026-04-26T09:33:29.986Z</time></trkpt><trkpt lat="44.2386827" lon="8.2187185"><ele>961.0</ele><time>2026-04-26T09:33:30.986Z</time></trkpt><trkpt lat="44.2386636" lon="8.2188285"><ele>965.0</ele><time>2026-04-26T09:33:31.986Z</time></trkpt><trkpt lat="44.2386636" lon="8.2189556"><ele>965.0</ele><time>2026-04-26T09:33:32.986Z</time></trkpt><trkpt lat="44.2386794" lon="8.2191077"><ele>965.0</ele><time>2026-04-26T09:33:33.986Z</time></trkpt><trkpt lat="44.2387076" lon="8.2192725"><ele>965.0</ele><time>2026-04-26T09:33:34.987Z</time></trkpt><trkpt lat="44.2387552" lon="8.219436"><ele>965.0</ele><time>2026-04-26T09:33:35.986Z</time></trkpt><trkpt lat="44.2388157" lon="8.2195798"><ele>965.0</ele><time>2026-04-26T09:33:36.986Z</time></trkpt><trkpt lat="44.2388877" lon="8.2197066"><ele>965.0</ele><time>2026-04-26T09:33:37.986Z</time></trkpt><trkpt lat="44.2389737" lon="8.2198066"><ele>965.0</ele><time>2026-04-26T09:33:38.986Z</time></trkpt><trkpt lat="44.2390675" lon="8.2198938"><ele>965.0</ele><time>2026-04-26T09:33:39.986Z</time></trkpt><trkpt lat="44.2391729" lon="8.219955"><ele>964.25</ele><time>2026-04-26T09:33:40.986Z</time></trkpt><trkpt lat="44.2392875" lon="8.2200042"><ele>963.5</ele><time>2026-04-26T09:33:41.987Z</time></trkpt><trkpt lat="44.2394249" lon="8.2200146"><ele>962.75</ele><time>2026-04-26T09:33:42.986Z</time></trkpt><trkpt lat="44.2395614" lon="8.220008"><ele>962.0</ele><time>2026-04-26T09:33:43.986Z</time></trkpt><trkpt lat="44.2396867" lon="8.220002"><ele>961.8</ele><time>2026-04-26T09:33:44.986Z</time></trkpt><trkpt lat="44.2398063" lon="8.2199809"><ele>961.6</ele><time>2026-04-26T09:33:45.986Z</time></trkpt><trkpt lat="44.2399065" lon="8.2199393"><ele>961.3999999999999</ele><time>2026-04-26T09:33:46.986Z</time></trkpt><trkpt lat="44.2400037" lon="8.2199118"><ele>961.1999999999999</ele><time>2026-04-26T09:33:47.986Z</time></trkpt><trkpt lat="44.2400782" lon="8.219907"><ele>961.0</ele><time>2026-04-26T09:33:48.987Z</time></trkpt><trkpt lat="44.2401612" lon="8.2199759"><ele>960.9999999999999</ele><time>2026-04-26T09:33:50.987Z</time></trkpt><trkpt lat="44.2401403" lon="8.2200691"><ele>961.0</ele><time>2026-04-26T09:33:52.986Z</time></trkpt><trkpt lat="44.2400422" lon="8.2200869"><ele>961.0</ele><time>2026-04-26T09:33:54.986Z</time></trkpt><trkpt lat="44.2399769" lon="8.2200881"><ele>961.0</ele><time>2026-04-26T09:33:55.986Z</time></trkpt><trkpt lat="44.2399045" lon="8.2201048"><ele>960.9999999999999</ele><time>2026-04-26T09:33:56.986Z</time></trkpt><trkpt lat="44.2398211" lon="8.2201339"><ele>961.0</ele><time>2026-04-26T09:33:57.987Z</time></trkpt><trkpt lat="44.2397127" lon="8.2201805"><ele>961.25</ele><time>2026-04-26T09:33:58.986Z</time></trkpt><trkpt lat="44.2395933" lon="8.2202391"><ele>961.5</ele><time>2026-04-26T09:33:59.986Z</time></trkpt><trkpt lat="44.2394782" lon="8.2202872"><ele>961.75</ele><time>2026-04-26T09:34:00.986Z</time></trkpt><trkpt lat="44.2393169" lon="8.2203299"><ele>962.0</ele><time>2026-04-26T09:34:01.986Z</time></trkpt><trkpt lat="44.2391274" lon="8.2203695"><ele>962.0</ele><time>2026-04-26T09:34:02.986Z</time></trkpt><trkpt lat="44.2389681" lon="8.2203797"><ele>962.0</ele><time>2026-04-26T09:34:03.986Z</time></trkpt><trkpt lat="44.238824" lon="8.220379"><ele>962.0</ele><time>2026-04-26T09:34:04.987Z</time></trkpt><trkpt lat="44.2386574" lon="8.2203885"><ele>963.8</ele><time>2026-04-26T09:34:05.986Z</time></trkpt><trkpt lat="44.2385367" lon="8.2203904"><ele>965.6</ele><time>2026-04-26T09:34:06.986Z</time></trkpt><trkpt lat="44.2384258" lon="8.2203947"><ele>967.3999999999999</ele><time>2026-04-26T09:34:07.987Z</time></trkpt><trkpt lat="44.2383233" lon="8.2203918"><ele>969.1999999999999</ele><time>2026-04-26T09:34:08.986Z</time></trkpt><trkpt lat="44.2382457" lon="8.2203791"><ele>971.0</ele><time>2026-04-26T09:34:09.986Z</time></trkpt><trkpt lat="44.2381809" lon="8.2203517"><ele>972.0000000000001</ele><time>2026-04-26T09:34:11.986Z</time></trkpt><trkpt lat="44.2381176" lon="8.2202748"><ele>973.0</ele><time>2026-04-26T09:43:08.985Z</time></trkpt><trkpt lat="44.2380419" lon="8.2202694"><ele>974.0</ele><time>2026-04-26T09:43:10.986Z</time></trkpt><trkpt lat="44.2379533" lon="8.2203317"><ele>975.0</ele><time>2026-04-26T09:43:36.985Z</time></trkpt><trkpt lat="44.23785" lon="8.22033"><ele>976.0000000000001</ele><time>2026-04-26T09:43:38.985Z</time></trkpt><trkpt lat="44.2377817" lon="8.2203"><ele>977.0</ele><time>2026-04-26T09:43:39.985Z</time></trkpt><trkpt lat="44.2377117" lon="8.2202517"><ele>977.0000000000001</ele><time>2026-04-26T09:43:40.985Z</time></trkpt><trkpt lat="44.2376467" lon="8.220195"><ele>977.0</ele><time>2026-04-26T09:43:41.986Z</time></trkpt><trkpt lat="44.2375783" lon="8.2201433"><ele>977.0</ele><time>2026-04-26T09:43:42.985Z</time></trkpt><trkpt lat="44.2375017" lon="8.2200867"><ele>977.0</ele><time>2026-04-26T09:43:43.985Z</time></trkpt><trkpt lat="44.23741" lon="8.220025"><ele>977.0000000000001</ele><time>2026-04-26T09:43:44.985Z</time></trkpt><trkpt lat="44.2373217" lon="8.2199583"><ele>977.0</ele><time>2026-04-26T09:43:45.985Z</time></trkpt><trkpt lat="44.2372133" lon="8.2198867"><ele>977.5</ele><time>2026-04-26T09:43:46.985Z</time></trkpt><trkpt lat="44.2371117" lon="8.219815"><ele>978.0</ele><time>2026-04-26T09:43:47.985Z</time></trkpt><trkpt lat="44.2370017" lon="8.2197433"><ele>978.5</ele><time>2026-04-26T09:43:48.985Z</time></trkpt><trkpt lat="44.236895" lon="8.2196767"><ele>979.0</ele><time>2026-04-26T09:43:49.985Z</time></trkpt><trkpt lat="44.2367867" lon="8.2196133"><ele>979.0</ele><time>2026-04-26T09:43:50.985Z</time></trkpt><trkpt lat="44.2366767" lon="8.21955"><ele>979.0</ele><time>2026-04-26T09:43:51.985Z</time></trkpt><trkpt lat="44.2365667" lon="8.219475"><ele>979.0</ele><time>2026-04-26T09:43:52.985Z</time></trkpt><trkpt lat="44.2364533" lon="8.21939"><ele>979.0</ele><time>2026-04-26T09:43:53.985Z</time></trkpt><trkpt lat="44.2363467" lon="8.2193217"><ele>978.0</ele><time>2026-04-26T09:43:54.985Z</time></trkpt><trkpt lat="44.2362383" lon="8.219245"><ele>977.0</ele><time>2026-04-26T09:43:55.985Z</time></trkpt><trkpt lat="44.2361333" lon="8.2191667"><ele>976.0</ele><time>2026-04-26T09:43:56.985Z</time></trkpt><trkpt lat="44.23603" lon="8.2190767"><ele>975.0</ele><time>2026-04-26T09:43:57.985Z</time></trkpt><trkpt lat="44.2359217" lon="8.2189733"><ele>975.0</ele><time>2026-04-26T09:43:58.985Z</time></trkpt><trkpt lat="44.2358167" lon="8.2188683"><ele>975.0</ele><time>2026-04-26T09:43:59.985Z</time></trkpt><trkpt lat="44.23572" lon="8.2187517"><ele>975.0</ele><time>2026-04-26T09:44:00.985Z</time></trkpt><trkpt lat="44.23563" lon="8.2186317"><ele>975.0</ele><time>2026-04-26T09:44:01.985Z</time></trkpt><trkpt lat="44.2355383" lon="8.2185167"><ele>976.0</ele><time>2026-04-26T09:44:02.985Z</time></trkpt><trkpt lat="44.2354417" lon="8.2184117"><ele>977.0</ele><time>2026-04-26T09:44:03.985Z</time></trkpt><trkpt lat="44.2353383" lon="8.218305"><ele>978.0</ele><time>2026-04-26T09:44:04.985Z</time></trkpt><trkpt lat="44.2352417" lon="8.2182033"><ele>979.0</ele><time>2026-04-26T09:44:05.985Z</time></trkpt><trkpt lat="44.2351383" lon="8.2181117"><ele>979.0</ele><time>2026-04-26T09:44:06.985Z</time></trkpt><trkpt lat="44.235025" lon="8.2180217"><ele>979.0</ele><time>2026-04-26T09:44:07.985Z</time></trkpt><trkpt lat="44.2349017" lon="8.217945"><ele>979.0</ele><time>2026-04-26T09:44:08.985Z</time></trkpt><trkpt lat="44.2347817" lon="8.2178633"><ele>979.0</ele><time>2026-04-26T09:44:09.985Z</time></trkpt><trkpt lat="44.2346567" lon="8.2177633"><ele>975.0</ele><time>2026-04-26T09:44:10.985Z</time></trkpt><trkpt lat="44.2345383" lon="8.2176667"><ele>971.0</ele><time>2026-04-26T09:44:11.985Z</time></trkpt><trkpt lat="44.2344233" lon="8.2175867"><ele>967.0</ele><time>2026-04-26T09:44:12.985Z</time></trkpt><trkpt lat="44.2343067" lon="8.217515"><ele>963.0</ele><time>2026-04-26T09:44:13.985Z</time></trkpt><trkpt lat="44.234185" lon="8.2174667"><ele>963.0</ele><time>2026-04-26T09:44:14.985Z</time></trkpt><trkpt lat="44.2340583" lon="8.2174"><ele>963.0</ele><time>2026-04-26T09:44:15.985Z</time></trkpt><trkpt lat="44.2339333" lon="8.21733"><ele>963.0</ele><time>2026-04-26T09:44:16.985Z</time></trkpt><trkpt lat="44.2337983" lon="8.21729"><ele>963.0</ele><time>2026-04-26T09:44:17.985Z</time></trkpt><trkpt lat="44.2336833" lon="8.217225"><ele>961.25</ele><time>2026-04-26T09:44:18.985Z</time></trkpt><trkpt lat="44.2335833" lon="8.2171433"><ele>959.5</ele><time>2026-04-26T09:44:19.985Z</time></trkpt><trkpt lat="44.2334717" lon="8.2170717"><ele>957.75</ele><time>2026-04-26T09:44:20.985Z</time></trkpt><trkpt lat="44.2333767" lon="8.2169533"><ele>956.0</ele><time>2026-04-26T09:44:21.985Z</time></trkpt><trkpt lat="44.2332983" lon="8.2168183"><ele>956.0</ele><time>2026-04-26T09:44:22.985Z</time></trkpt><trkpt lat="44.2332133" lon="8.216685"><ele>956.0</ele><time>2026-04-26T09:44:23.985Z</time></trkpt><trkpt lat="44.2331183" lon="8.21655"><ele>956.0</ele><time>2026-04-26T09:44:24.985Z</time></trkpt><trkpt lat="44.233025" lon="8.21642"><ele>956.0</ele><time>2026-04-26T09:44:25.985Z</time></trkpt><trkpt lat="44.23294" lon="8.216295"><ele>954.25</ele><time>2026-04-26T09:44:26.985Z</time></trkpt><trkpt lat="44.232855" lon="8.21618"><ele>952.5</ele><time>2026-04-26T09:44:27.985Z</time></trkpt><trkpt lat="44.232765" lon="8.2160583"><ele>950.75</ele><time>2026-04-26T09:44:28.985Z</time></trkpt><trkpt lat="44.232681" lon="8.2159349"><ele>949.0</ele><time>2026-04-26T09:44:29.985Z</time></trkpt><trkpt lat="44.2325997" lon="8.2158083"><ele>949.0</ele><time>2026-04-26T09:44:30.986Z</time></trkpt><trkpt lat="44.2325214" lon="8.2156859"><ele>949.0</ele><time>2026-04-26T09:44:31.985Z</time></trkpt><trkpt lat="44.2324389" lon="8.2155646"><ele>949.0</ele><time>2026-04-26T09:44:32.985Z</time></trkpt><trkpt lat="44.2323599" lon="8.2154628"><ele>949.0</ele><time>2026-04-26T09:44:33.985Z</time></trkpt><trkpt lat="44.2322718" lon="8.2153512"><ele>947.4000000000001</ele><time>2026-04-26T09:44:34.986Z</time></trkpt><trkpt lat="44.2321802" lon="8.2152492"><ele>945.8000000000001</ele><time>2026-04-26T09:44:35.986Z</time></trkpt><trkpt lat="44.2320932" lon="8.2151335"><ele>944.1999999999999</ele><time>2026-04-26T09:44:36.985Z</time></trkpt><trkpt lat="44.2320158" lon="8.2150317"><ele>942.5999999999999</ele><time>2026-04-26T09:44:37.985Z</time></trkpt><trkpt lat="44.2319451" lon="8.2149281"><ele>941.0</ele><time>2026-04-26T09:44:38.985Z</time></trkpt><trkpt lat="44.2318753" lon="8.2148349"><ele>942.3333333333334</ele><time>2026-04-26T09:44:39.985Z</time></trkpt><trkpt lat="44.23181" lon="8.2147394"><ele>943.6666666666667</ele><time>2026-04-26T09:44:40.985Z</time></trkpt><trkpt lat="44.2317485" lon="8.2146542"><ele>945.0</ele><time>2026-04-26T09:44:41.985Z</time></trkpt><trkpt lat="44.2316911" lon="8.2145768"><ele>946.3333333333333</ele><time>2026-04-26T09:44:42.985Z</time></trkpt><trkpt lat="44.2316337" lon="8.2145012"><ele>947.6666666666666</ele><time>2026-04-26T09:44:43.985Z</time></trkpt><trkpt lat="44.2315755" lon="8.214426"><ele>949.0</ele><time>2026-04-26T09:44:44.986Z</time></trkpt><trkpt lat="44.2315229" lon="8.2143536"><ele>949.0</ele><time>2026-04-26T09:44:45.985Z</time></trkpt><trkpt lat="44.231474" lon="8.214282"><ele>949.0000000000001</ele><time>2026-04-26T09:44:46.986Z</time></trkpt><trkpt lat="44.2314074" lon="8.214151"><ele>949.0000000000001</ele><time>2026-04-26T09:44:48.985Z</time></trkpt><trkpt lat="44.2313864" lon="8.2140052"><ele>949.0</ele><time>2026-04-26T09:44:50.985Z</time></trkpt><trkpt lat="44.2314383" lon="8.2138661"><ele>949.0</ele><time>2026-04-26T09:44:52.985Z</time></trkpt><trkpt lat="44.2314804" lon="8.2137813"><ele>949.4000000000001</ele><time>2026-04-26T09:44:53.985Z</time></trkpt><trkpt lat="44.2315274" lon="8.2136834"><ele>949.8000000000001</ele><time>2026-04-26T09:44:54.985Z</time></trkpt><trkpt lat="44.2315773" lon="8.2135619"><ele>950.1999999999999</ele><time>2026-04-26T09:44:55.985Z</time></trkpt><trkpt lat="44.2316134" lon="8.2134173"><ele>950.5999999999999</ele><time>2026-04-26T09:44:56.985Z</time></trkpt><trkpt lat="44.2316465" lon="8.2132567"><ele>951.0</ele><time>2026-04-26T09:44:57.985Z</time></trkpt><trkpt lat="44.2316773" lon="8.2130879"><ele>950.0</ele><time>2026-04-26T09:44:58.985Z</time></trkpt><trkpt lat="44.2317097" lon="8.212908"><ele>949.0</ele><time>2026-04-26T09:44:59.985Z</time></trkpt><trkpt lat="44.2317177" lon="8.2127235"><ele>948.0</ele><time>2026-04-26T09:45:00.985Z</time></trkpt><trkpt lat="44.2317317" lon="8.2125345"><ele>947.0</ele><time>2026-04-26T09:45:01.985Z</time></trkpt><trkpt lat="44.2317415" lon="8.2123446"><ele>946.5</ele><time>2026-04-26T09:45:02.985Z</time></trkpt><trkpt lat="44.2317549" lon="8.212154"><ele>946.0</ele><time>2026-04-26T09:45:03.985Z</time></trkpt><trkpt lat="44.2317702" lon="8.211971"><ele>945.5</ele><time>2026-04-26T09:45:04.985Z</time></trkpt><trkpt lat="44.2317959" lon="8.2117975"><ele>945.0</ele><time>2026-04-26T09:45:05.985Z</time></trkpt><trkpt lat="44.2318336" lon="8.21163"><ele>942.0</ele><time>2026-04-26T09:45:06.985Z</time></trkpt><trkpt lat="44.2318913" lon="8.2114645"><ele>939.0</ele><time>2026-04-26T09:45:07.985Z</time></trkpt><trkpt lat="44.231953" lon="8.2113041"><ele>936.0</ele><time>2026-04-26T09:45:08.985Z</time></trkpt><trkpt lat="44.2320255" lon="8.2111525"><ele>933.0</ele><time>2026-04-26T09:45:09.985Z</time></trkpt><trkpt lat="44.2320993" lon="8.2109996"><ele>933.0</ele><time>2026-04-26T09:45:10.985Z</time></trkpt><trkpt lat="44.2321725" lon="8.2108483"><ele>933.0</ele><time>2026-04-26T09:45:11.985Z</time></trkpt><trkpt lat="44.2322388" lon="8.2106839"><ele>933.0</ele><time>2026-04-26T09:45:12.985Z</time></trkpt><trkpt lat="44.2322867" lon="8.2105032"><ele>933.0</ele><time>2026-04-26T09:45:13.985Z</time></trkpt><trkpt lat="44.2323194" lon="8.2103167"><ele>942.75</ele><time>2026-04-26T09:45:14.985Z</time></trkpt><trkpt lat="44.2323469" lon="8.210129"><ele>952.5</ele><time>2026-04-26T09:45:15.985Z</time></trkpt><trkpt lat="44.2323751" lon="8.2099536"><ele>962.25</ele><time>2026-04-26T09:45:16.986Z</time></trkpt><trkpt lat="44.2324097" lon="8.2097794"><ele>972.0</ele><time>2026-04-26T09:45:17.985Z</time></trkpt><trkpt lat="44.2324445" lon="8.2096102"><ele>972.0</ele><time>2026-04-26T09:45:18.985Z</time></trkpt><trkpt lat="44.2324823" lon="8.2094443"><ele>972.0</ele><time>2026-04-26T09:45:19.985Z</time></trkpt><trkpt lat="44.2325233" lon="8.2092708"><ele>972.0</ele><time>2026-04-26T09:45:20.986Z</time></trkpt><trkpt lat="44.2325715" lon="8.2090898"><ele>972.0</ele><time>2026-04-26T09:45:21.985Z</time></trkpt><trkpt lat="44.2326239" lon="8.2089119"><ele>972.8</ele><time>2026-04-26T09:45:22.985Z</time></trkpt><trkpt lat="44.2326631" lon="8.208758"><ele>973.6</ele><time>2026-04-26T09:45:23.986Z</time></trkpt><trkpt lat="44.232687" lon="8.2086223"><ele>974.3999999999999</ele><time>2026-04-26T09:45:24.985Z</time></trkpt><trkpt lat="44.2326894" lon="8.2084781"><ele>975.1999999999999</ele><time>2026-04-26T09:45:25.985Z</time></trkpt><trkpt lat="44.2326687" lon="8.2083267"><ele>976.0</ele><time>2026-04-26T09:45:26.986Z</time></trkpt><trkpt lat="44.2326476" lon="8.2081788"><ele>978.4999999999999</ele><time>2026-04-26T09:45:27.985Z</time></trkpt><trkpt lat="44.2326242" lon="8.2080521"><ele>981.0</ele><time>2026-04-26T09:45:28.986Z</time></trkpt><trkpt lat="44.232611" lon="8.2079277"><ele>983.5</ele><time>2026-04-26T09:45:29.986Z</time></trkpt><trkpt lat="44.2325921" lon="8.2078129"><ele>986.0</ele><time>2026-04-26T09:45:30.986Z</time></trkpt><trkpt lat="44.2325666" lon="8.2077125"><ele>988.4999999999999</ele><time>2026-04-26T09:45:31.985Z</time></trkpt><trkpt lat="44.2325326" lon="8.2076236"><ele>991.0</ele><time>2026-04-26T09:45:32.985Z</time></trkpt><trkpt lat="44.2324765" lon="8.2075466"><ele>991.0</ele><time>2026-04-26T09:45:33.985Z</time></trkpt><trkpt lat="44.2324024" lon="8.2074682"><ele>990.9999999999999</ele><time>2026-04-26T09:45:34.985Z</time></trkpt><trkpt lat="44.2323364" lon="8.2073756"><ele>990.9999999999999</ele><time>2026-04-26T09:45:35.985Z</time></trkpt><trkpt lat="44.2322965" lon="8.2072711"><ele>991.0</ele><time>2026-04-26T09:45:36.985Z</time></trkpt><trkpt lat="44.2322745" lon="8.207139"><ele>991.0</ele><time>2026-04-26T09:45:37.985Z</time></trkpt><trkpt lat="44.2322548" lon="8.2069873"><ele>983.5</ele><time>2026-04-26T09:45:38.985Z</time></trkpt><trkpt lat="44.2322284" lon="8.2068235"><ele>976.0</ele><time>2026-04-26T09:45:39.985Z</time></trkpt><trkpt lat="44.2321963" lon="8.2066608"><ele>968.5</ele><time>2026-04-26T09:45:40.985Z</time></trkpt><trkpt lat="44.2321652" lon="8.206511"><ele>961.0</ele><time>2026-04-26T09:45:41.985Z</time></trkpt><trkpt lat="44.2321473" lon="8.2063703"><ele>959.75</ele><time>2026-04-26T09:45:42.985Z</time></trkpt><trkpt lat="44.2321583" lon="8.2062249"><ele>958.5</ele><time>2026-04-26T09:45:43.985Z</time></trkpt><trkpt lat="44.2321839" lon="8.2060733"><ele>957.25</ele><time>2026-04-26T09:45:44.985Z</time></trkpt><trkpt lat="44.2322191" lon="8.2059184"><ele>956.0</ele><time>2026-04-26T09:45:45.985Z</time></trkpt><trkpt lat="44.2322599" lon="8.2057554"><ele>954.75</ele><time>2026-04-26T09:45:46.985Z</time></trkpt><trkpt lat="44.2323054" lon="8.2055816"><ele>953.5</ele><time>2026-04-26T09:45:47.985Z</time></trkpt><trkpt lat="44.2323471" lon="8.2053967"><ele>952.25</ele><time>2026-04-26T09:45:48.985Z</time></trkpt><trkpt lat="44.2323903" lon="8.2052076"><ele>951.0</ele><time>2026-04-26T09:45:49.985Z</time></trkpt><trkpt lat="44.232425" lon="8.2050217"><ele>964.0</ele><time>2026-04-26T09:45:50.985Z</time></trkpt><trkpt lat="44.2324633" lon="8.2048358"><ele>977.0</ele><time>2026-04-26T09:45:51.985Z</time></trkpt><trkpt lat="44.2324907" lon="8.2046493"><ele>990.0</ele><time>2026-04-26T09:45:52.985Z</time></trkpt><trkpt lat="44.2325135" lon="8.2044671"><ele>1003.0</ele><time>2026-04-26T09:45:53.985Z</time></trkpt><trkpt lat="44.2325361" lon="8.2042872"><ele>1003.0</ele><time>2026-04-26T09:45:54.985Z</time></trkpt><trkpt lat="44.2325465" lon="8.2041034"><ele>1003.0</ele><time>2026-04-26T09:45:55.986Z</time></trkpt><trkpt lat="44.2325558" lon="8.2039139"><ele>1003.0</ele><time>2026-04-26T09:45:56.985Z</time></trkpt><trkpt lat="44.2325657" lon="8.2037251"><ele>1003.0</ele><time>2026-04-26T09:45:57.985Z</time></trkpt><trkpt lat="44.2325811" lon="8.2035408"><ele>1002.75</ele><time>2026-04-26T09:45:58.985Z</time></trkpt><trkpt lat="44.2326176" lon="8.2033614"><ele>1002.5</ele><time>2026-04-26T09:45:59.986Z</time></trkpt><trkpt lat="44.2326667" lon="8.2031928"><ele>1002.25</ele><time>2026-04-26T09:46:00.985Z</time></trkpt><trkpt lat="44.2326825" lon="8.203035"><ele>1002.0</ele><time>2026-04-26T09:46:01.985Z</time></trkpt><trkpt lat="44.2326964" lon="8.2028943"><ele>1003.6</ele><time>2026-04-26T09:46:02.985Z</time></trkpt><trkpt lat="44.2326973" lon="8.2027698"><ele>1005.2</ele><time>2026-04-26T09:46:03.985Z</time></trkpt><trkpt lat="44.2326859" lon="8.2026479"><ele>1006.8</ele><time>2026-04-26T09:46:04.985Z</time></trkpt><trkpt lat="44.2326595" lon="8.2025107"><ele>1008.4</ele><time>2026-04-26T09:46:05.985Z</time></trkpt><trkpt lat="44.2326184" lon="8.2023703"><ele>1010.0</ele><time>2026-04-26T09:46:06.986Z</time></trkpt><trkpt lat="44.2325729" lon="8.20223"><ele>1012.75</ele><time>2026-04-26T09:46:07.985Z</time></trkpt><trkpt lat="44.2325232" lon="8.2020738"><ele>1015.5</ele><time>2026-04-26T09:46:08.985Z</time></trkpt><trkpt lat="44.2324589" lon="8.2019327"><ele>1018.25</ele><time>2026-04-26T09:46:09.985Z</time></trkpt><trkpt lat="44.23239" lon="8.2017915"><ele>1021.0</ele><time>2026-04-26T09:46:10.985Z</time></trkpt><trkpt lat="44.2323188" lon="8.2016686"><ele>1017.8</ele><time>2026-04-26T09:46:11.985Z</time></trkpt><trkpt lat="44.2322675" lon="8.2015415"><ele>1014.5999999999999</ele><time>2026-04-26T09:46:12.986Z</time></trkpt><trkpt lat="44.2322411" lon="8.2014151"><ele>1011.4</ele><time>2026-04-26T09:46:13.985Z</time></trkpt><trkpt lat="44.2322295" lon="8.2012872"><ele>1008.2</ele><time>2026-04-26T09:46:14.985Z</time></trkpt><trkpt lat="44.2322407" lon="8.2011553"><ele>1005.0</ele><time>2026-04-26T09:46:15.985Z</time></trkpt><trkpt lat="44.2322651" lon="8.2009987"><ele>1005.0</ele><time>2026-04-26T09:46:16.985Z</time></trkpt><trkpt lat="44.2322886" lon="8.2008464"><ele>1005.0</ele><time>2026-04-26T09:46:17.985Z</time></trkpt><trkpt lat="44.2322977" lon="8.2006921"><ele>1005.0</ele><time>2026-04-26T09:46:18.985Z</time></trkpt><trkpt lat="44.2322858" lon="8.2005382"><ele>1005.0</ele><time>2026-04-26T09:46:19.986Z</time></trkpt><trkpt lat="44.2322426" lon="8.2003832"><ele>1008.0</ele><time>2026-04-26T09:46:20.985Z</time></trkpt><trkpt lat="44.23218" lon="8.2002305"><ele>1011.0</ele><time>2026-04-26T09:46:21.985Z</time></trkpt><trkpt lat="44.2321156" lon="8.2000791"><ele>1014.0</ele><time>2026-04-26T09:46:22.985Z</time></trkpt><trkpt lat="44.2320386" lon="8.1999241"><ele>1017.0</ele><time>2026-04-26T09:46:23.986Z</time></trkpt><trkpt lat="44.2319633" lon="8.199784"><ele>1022.0</ele><time>2026-04-26T09:46:24.985Z</time></trkpt><trkpt lat="44.231863" lon="8.1996542"><ele>1027.0</ele><time>2026-04-26T09:46:25.985Z</time></trkpt><trkpt lat="44.2317579" lon="8.199519"><ele>1032.0</ele><time>2026-04-26T09:46:26.985Z</time></trkpt><trkpt lat="44.2316547" lon="8.1993874"><ele>1037.0</ele><time>2026-04-26T09:46:27.985Z</time></trkpt><trkpt lat="44.2315492" lon="8.1992658"><ele>1037.25</ele><time>2026-04-26T09:46:28.985Z</time></trkpt><trkpt lat="44.2314444" lon="8.1991467"><ele>1037.5</ele><time>2026-04-26T09:46:29.985Z</time></trkpt><trkpt lat="44.2313511" lon="8.199018"><ele>1037.75</ele><time>2026-04-26T09:46:30.985Z</time></trkpt><trkpt lat="44.2312639" lon="8.1988963"><ele>1038.0</ele><time>2026-04-26T09:46:31.985Z</time></trkpt><trkpt lat="44.2311768" lon="8.1987791"><ele>1038.0</ele><time>2026-04-26T09:46:32.985Z</time></trkpt><trkpt lat="44.2310909" lon="8.1986624"><ele>1038.0</ele><time>2026-04-26T09:46:33.985Z</time></trkpt><trkpt lat="44.2310203" lon="8.1985431"><ele>1038.0</ele><time>2026-04-26T09:46:34.985Z</time></trkpt><trkpt lat="44.23095" lon="8.1984447"><ele>1038.0</ele><time>2026-04-26T09:46:35.985Z</time></trkpt><trkpt lat="44.2308797" lon="8.1983462"><ele>1038.0</ele><time>2026-04-26T09:46:36.985Z</time></trkpt><trkpt lat="44.2308124" lon="8.1982509"><ele>1037.6666666666667</ele><time>2026-04-26T09:46:37.985Z</time></trkpt><trkpt lat="44.2307482" lon="8.1981577"><ele>1037.3333333333333</ele><time>2026-04-26T09:46:38.985Z</time></trkpt><trkpt lat="44.2306877" lon="8.1980689"><ele>1037.0</ele><time>2026-04-26T09:46:39.985Z</time></trkpt><trkpt lat="44.2306276" lon="8.1979849"><ele>1036.6666666666665</ele><time>2026-04-26T09:46:40.985Z</time></trkpt><trkpt lat="44.230549" lon="8.1979063"><ele>1036.3333333333333</ele><time>2026-04-26T09:46:41.985Z</time></trkpt><trkpt lat="44.2304833" lon="8.1978304"><ele>1036.0</ele><time>2026-04-26T09:46:42.985Z</time></trkpt><trkpt lat="44.2304306" lon="8.1977569"><ele>1036.0</ele><time>2026-04-26T09:46:43.985Z</time></trkpt><trkpt lat="44.2303828" lon="8.197646"><ele>1036.0</ele><time>2026-04-26T09:46:44.985Z</time></trkpt><trkpt lat="44.2303324" lon="8.1975517"><ele>1036.0</ele><time>2026-04-26T09:46:45.985Z</time></trkpt><trkpt lat="44.2302859" lon="8.1974487"><ele>1036.0</ele><time>2026-04-26T09:46:46.985Z</time></trkpt><trkpt lat="44.2302518" lon="8.1973431"><ele>1036.0</ele><time>2026-04-26T09:46:47.985Z</time></trkpt><trkpt lat="44.2302344" lon="8.197227"><ele>1036.0</ele><time>2026-04-26T09:46:48.985Z</time></trkpt><trkpt lat="44.2302315" lon="8.197113"><ele>1036.8333333333333</ele><time>2026-04-26T09:46:49.985Z</time></trkpt><trkpt lat="44.2302515" lon="8.1969992"><ele>1037.6666666666665</ele><time>2026-04-26T09:46:50.985Z</time></trkpt><trkpt lat="44.2302903" lon="8.196896"><ele>1038.5</ele><time>2026-04-26T09:46:51.985Z</time></trkpt><trkpt lat="44.2303466" lon="8.1968149"><ele>1039.3333333333333</ele><time>2026-04-26T09:46:52.985Z</time></trkpt><trkpt lat="44.2304222" lon="8.1967463"><ele>1040.1666666666667</ele><time>2026-04-26T09:46:53.986Z</time></trkpt><trkpt lat="44.2304849" lon="8.1967014"><ele>1041.0</ele><time>2026-04-26T09:46:54.985Z</time></trkpt><trkpt lat="44.2305908" lon="8.1966779"><ele>1038.0</ele><time>2026-04-26T09:46:55.985Z</time></trkpt><trkpt lat="44.2307294" lon="8.1966764"><ele>1035.0</ele><time>2026-04-26T09:46:56.985Z</time></trkpt><trkpt lat="44.2308873" lon="8.1966842"><ele>1032.0</ele><time>2026-04-26T09:46:57.985Z</time></trkpt><trkpt lat="44.2310476" lon="8.1966984"><ele>1032.0</ele><time>2026-04-26T09:46:58.985Z</time></trkpt><trkpt lat="44.2311979" lon="8.1967152"><ele>1032.0</ele><time>2026-04-26T09:46:59.985Z</time></trkpt><trkpt lat="44.2313331" lon="8.1967328"><ele>1032.0</ele><time>2026-04-26T09:47:00.985Z</time></trkpt><trkpt lat="44.2314565" lon="8.196743"><ele>1032.0</ele><time>2026-04-26T09:47:01.985Z</time></trkpt><trkpt lat="44.231566" lon="8.1967522"><ele>1032.2</ele><time>2026-04-26T09:47:02.985Z</time></trkpt><trkpt lat="44.2316606" lon="8.1967464"><ele>1032.4</ele><time>2026-04-26T09:47:03.985Z</time></trkpt><trkpt lat="44.2317477" lon="8.1967267"><ele>1032.6</ele><time>2026-04-26T09:47:04.985Z</time></trkpt><trkpt lat="44.2318333" lon="8.1967007"><ele>1032.8</ele><time>2026-04-26T09:47:05.985Z</time></trkpt><trkpt lat="44.2319114" lon="8.1966439"><ele>1033.0</ele><time>2026-04-26T09:47:06.986Z</time></trkpt><trkpt lat="44.2319809" lon="8.196558"><ele>1032.8</ele><time>2026-04-26T09:47:07.986Z</time></trkpt><trkpt lat="44.232045" lon="8.1964573"><ele>1032.6</ele><time>2026-04-26T09:47:08.985Z</time></trkpt><trkpt lat="44.232109" lon="8.196356"><ele>1032.4</ele><time>2026-04-26T09:47:09.986Z</time></trkpt><trkpt lat="44.2321828" lon="8.1962531"><ele>1032.2</ele><time>2026-04-26T09:47:10.985Z</time></trkpt><trkpt lat="44.2322638" lon="8.1961427"><ele>1032.0</ele><time>2026-04-26T09:47:11.985Z</time></trkpt><trkpt lat="44.2323428" lon="8.1960267"><ele>1032.0</ele><time>2026-04-26T09:47:12.985Z</time></trkpt><trkpt lat="44.2324185" lon="8.1959085"><ele>1032.0</ele><time>2026-04-26T09:47:13.985Z</time></trkpt><trkpt lat="44.2324874" lon="8.1957893"><ele>1032.0</ele><time>2026-04-26T09:47:14.986Z</time></trkpt><trkpt lat="44.2325631" lon="8.1956812"><ele>1032.0</ele><time>2026-04-26T09:47:15.986Z</time></trkpt><trkpt lat="44.2326433" lon="8.1955468"><ele>1028.0</ele><time>2026-04-26T09:47:16.985Z</time></trkpt><trkpt lat="44.2327084" lon="8.1954312"><ele>1024.0</ele><time>2026-04-26T09:47:17.985Z</time></trkpt><trkpt lat="44.2327782" lon="8.1953337"><ele>1020.0</ele><time>2026-04-26T09:47:18.985Z</time></trkpt><trkpt lat="44.2328407" lon="8.195258"><ele>1016.0</ele><time>2026-04-26T09:47:19.985Z</time></trkpt><trkpt lat="44.2329024" lon="8.1952008"><ele>1012.0</ele><time>2026-04-26T09:47:20.985Z</time></trkpt><trkpt lat="44.2329623" lon="8.195155"><ele>1008.0</ele><time>2026-04-26T09:47:21.985Z</time></trkpt><trkpt lat="44.2330305" lon="8.195125"><ele>1008.0</ele><time>2026-04-26T09:47:22.985Z</time></trkpt><trkpt lat="44.2331085" lon="8.1951079"><ele>1008.0</ele><time>2026-04-26T09:47:23.985Z</time></trkpt><trkpt lat="44.2331947" lon="8.1951183"><ele>1008.0</ele><time>2026-04-26T09:47:24.985Z</time></trkpt><trkpt lat="44.2332998" lon="8.1951443"><ele>1008.0</ele><time>2026-04-26T09:47:25.985Z</time></trkpt><trkpt lat="44.2334179" lon="8.1951806"><ele>1008.0</ele><time>2026-04-26T09:47:26.985Z</time></trkpt><trkpt lat="44.2335424" lon="8.1952081"><ele>1008.25</ele><time>2026-04-26T09:47:27.985Z</time></trkpt><trkpt lat="44.2336683" lon="8.1952452"><ele>1008.5</ele><time>2026-04-26T09:47:28.985Z</time></trkpt><trkpt lat="44.2337863" lon="8.1952683"><ele>1008.75</ele><time>2026-04-26T09:47:29.985Z</time></trkpt><trkpt lat="44.2339013" lon="8.1952874"><ele>1009.0</ele><time>2026-04-26T09:47:30.985Z</time></trkpt><trkpt lat="44.23401" lon="8.1953221"><ele>1009.0</ele><time>2026-04-26T09:47:31.985Z</time></trkpt><trkpt lat="44.2341104" lon="8.1953738"><ele>1009.0000000000001</ele><time>2026-04-26T09:47:32.985Z</time></trkpt><trkpt lat="44.2342085" lon="8.1954381"><ele>1009.0000000000001</ele><time>2026-04-26T09:47:33.985Z</time></trkpt><trkpt lat="44.2342999" lon="8.1955139"><ele>1009.0</ele><time>2026-04-26T09:47:34.985Z</time></trkpt><trkpt lat="44.2343858" lon="8.1955774"><ele>1009.0</ele><time>2026-04-26T09:47:35.986Z</time></trkpt><trkpt lat="44.2344752" lon="8.1956281"><ele>1012.4000000000001</ele><time>2026-04-26T09:47:36.985Z</time></trkpt><trkpt lat="44.2345633" lon="8.195674"><ele>1015.8000000000001</ele><time>2026-04-26T09:47:37.985Z</time></trkpt><trkpt lat="44.2346614" lon="8.1957143"><ele>1019.1999999999999</ele><time>2026-04-26T09:47:38.985Z</time></trkpt><trkpt lat="44.2347562" lon="8.1957404"><ele>1022.5999999999999</ele><time>2026-04-26T09:47:39.985Z</time></trkpt><trkpt lat="44.2348463" lon="8.1957605"><ele>1026.0</ele><time>2026-04-26T09:47:40.985Z</time></trkpt><trkpt lat="44.2349347" lon="8.1957782"><ele>1026.0</ele><time>2026-04-26T09:47:41.985Z</time></trkpt><trkpt lat="44.2350176" lon="8.1957959"><ele>1026.0</ele><time>2026-04-26T09:47:42.985Z</time></trkpt><trkpt lat="44.2350876" lon="8.1958037"><ele>1026.0</ele><time>2026-04-26T09:47:43.985Z</time></trkpt><trkpt lat="44.2351899" lon="8.1957773"><ele>1026.0</ele><time>2026-04-26T09:47:45.985Z</time></trkpt><trkpt lat="44.2352691" lon="8.1957331"><ele>1026.0</ele><time>2026-04-26T09:47:47.986Z</time></trkpt><trkpt lat="44.2352357" lon="8.1955976"><ele>1026.0</ele><time>2026-04-26T09:47:49.985Z</time></trkpt><trkpt lat="44.2351993" lon="8.1955228"><ele>1025.3999999999999</ele><time>2026-04-26T09:47:50.985Z</time></trkpt><trkpt lat="44.2351498" lon="8.1954595"><ele>1024.8</ele><time>2026-04-26T09:47:51.985Z</time></trkpt><trkpt lat="44.2350307" lon="8.1953551"><ele>1024.1999999999998</ele><time>2026-04-26T09:47:52.986Z</time></trkpt><trkpt lat="44.2349297" lon="8.1952764"><ele>1023.5999999999999</ele><time>2026-04-26T09:47:53.985Z</time></trkpt><trkpt lat="44.2348344" lon="8.1951984"><ele>1023.0</ele><time>2026-04-26T09:47:54.985Z</time></trkpt><trkpt lat="44.2347617" lon="8.1951159"><ele>1020.2</ele><time>2026-04-26T09:47:55.985Z</time></trkpt><trkpt lat="44.2347087" lon="8.1950256"><ele>1017.4</ele><time>2026-04-26T09:47:56.985Z</time></trkpt><trkpt lat="44.2346642" lon="8.1949306"><ele>1014.6000000000001</ele><time>2026-04-26T09:47:57.985Z</time></trkpt><trkpt lat="44.2346271" lon="8.1948232"><ele>1011.8000000000001</ele><time>2026-04-26T09:47:58.985Z</time></trkpt><trkpt lat="44.2346033" lon="8.1946939"><ele>1009.0</ele><time>2026-04-26T09:47:59.985Z</time></trkpt><trkpt lat="44.234587" lon="8.1945373"><ele>1005.0</ele><time>2026-04-26T09:48:00.985Z</time></trkpt><trkpt lat="44.2345779" lon="8.1943548"><ele>1001.0</ele><time>2026-04-26T09:48:01.985Z</time></trkpt><trkpt lat="44.2345582" lon="8.1941634"><ele>997.0</ele><time>2026-04-26T09:48:02.985Z</time></trkpt><trkpt lat="44.234536" lon="8.1939521"><ele>993.0</ele><time>2026-04-26T09:48:03.985Z</time></trkpt><trkpt lat="44.2345086" lon="8.1937519"><ele>993.0</ele><time>2026-04-26T09:48:04.985Z</time></trkpt><trkpt lat="44.2344589" lon="8.1935649"><ele>993.0</ele><time>2026-04-26T09:48:05.985Z</time></trkpt><trkpt lat="44.2344013" lon="8.193367"><ele>993.0</ele><time>2026-04-26T09:48:06.985Z</time></trkpt><trkpt lat="44.2343367" lon="8.1931789"><ele>993.0</ele><time>2026-04-26T09:48:07.985Z</time></trkpt><trkpt lat="44.2342677" lon="8.1930032"><ele>995.25</ele><time>2026-04-26T09:48:08.985Z</time></trkpt><trkpt lat="44.2342057" lon="8.1928331"><ele>997.5</ele><time>2026-04-26T09:48:09.985Z</time></trkpt><trkpt lat="44.2341502" lon="8.1926556"><ele>999.75</ele><time>2026-04-26T09:48:10.985Z</time></trkpt><trkpt lat="44.2340977" lon="8.1924838"><ele>1002.0</ele><time>2026-04-26T09:48:11.985Z</time></trkpt><trkpt lat="44.2340469" lon="8.1923214"><ele>1003.5</ele><time>2026-04-26T09:48:12.985Z</time></trkpt><trkpt lat="44.2339837" lon="8.1921918"><ele>1005.0</ele><time>2026-04-26T09:48:13.985Z</time></trkpt><trkpt lat="44.233908" lon="8.1920692"><ele>1006.5</ele><time>2026-04-26T09:48:14.985Z</time></trkpt><trkpt lat="44.2338306" lon="8.19195"><ele>1008.0</ele><time>2026-04-26T09:48:15.985Z</time></trkpt><trkpt lat="44.2337611" lon="8.1918314"><ele>1002.0</ele><time>2026-04-26T09:48:16.985Z</time></trkpt><trkpt lat="44.2337071" lon="8.1917029"><ele>996.0</ele><time>2026-04-26T09:48:17.985Z</time></trkpt><trkpt lat="44.2336611" lon="8.1915704"><ele>990.0</ele><time>2026-04-26T09:48:18.985Z</time></trkpt><trkpt lat="44.2336295" lon="8.1914466"><ele>984.0</ele><time>2026-04-26T09:48:19.985Z</time></trkpt><trkpt lat="44.2336147" lon="8.1913261"><ele>978.0</ele><time>2026-04-26T09:48:20.986Z</time></trkpt><trkpt lat="44.2336239" lon="8.1912038"><ele>976.5</ele><time>2026-04-26T09:48:21.985Z</time></trkpt><trkpt lat="44.2336503" lon="8.1910709"><ele>975.0</ele><time>2026-04-26T09:48:22.985Z</time></trkpt><trkpt lat="44.2336948" lon="8.1909263"><ele>973.5</ele><time>2026-04-26T09:48:23.986Z</time></trkpt><trkpt lat="44.2337534" lon="8.1907742"><ele>972.0</ele><time>2026-04-26T09:48:24.985Z</time></trkpt><trkpt lat="44.2338361" lon="8.1906282"><ele>973.5</ele><time>2026-04-26T09:48:25.985Z</time></trkpt><trkpt lat="44.2339315" lon="8.1905053"><ele>975.0</ele><time>2026-04-26T09:48:26.985Z</time></trkpt><trkpt lat="44.2340303" lon="8.190401"><ele>976.5</ele><time>2026-04-26T09:48:27.985Z</time></trkpt><trkpt lat="44.234126" lon="8.1902999"><ele>978.0</ele><time>2026-04-26T09:48:28.985Z</time></trkpt><trkpt lat="44.2342216" lon="8.1901888"><ele>978.0</ele><time>2026-04-26T09:48:29.985Z</time></trkpt><trkpt lat="44.2343136" lon="8.1900733"><ele>978.0</ele><time>2026-04-26T09:48:30.985Z</time></trkpt><trkpt lat="44.2343943" lon="8.1899463"><ele>978.0</ele><time>2026-04-26T09:48:31.985Z</time></trkpt><trkpt lat="44.234468" lon="8.1898275"><ele>978.0</ele><time>2026-04-26T09:48:32.985Z</time></trkpt><trkpt lat="44.2345339" lon="8.1897294"><ele>979.3333333333334</ele><time>2026-04-26T09:48:33.985Z</time></trkpt><trkpt lat="44.2345758" lon="8.1896432"><ele>980.6666666666667</ele><time>2026-04-26T09:48:34.985Z</time></trkpt><trkpt lat="44.2346024" lon="8.1895577"><ele>982.0</ele><time>2026-04-26T09:48:35.985Z</time></trkpt><trkpt lat="44.234606" lon="8.1894682"><ele>983.3333333333334</ele><time>2026-04-26T09:48:36.985Z</time></trkpt><trkpt lat="44.234576" lon="8.1893223"><ele>984.6666666666667</ele><time>2026-04-26T09:48:38.985Z</time></trkpt><trkpt lat="44.234455" lon="8.1892455"><ele>986.0</ele><time>2026-04-26T09:48:40.985Z</time></trkpt><trkpt lat="44.2343695" lon="8.1892284"><ele>986.0000000000001</ele><time>2026-04-26T09:48:41.985Z</time></trkpt><trkpt lat="44.2342918" lon="8.1892016"><ele>986.0</ele><time>2026-04-26T09:48:42.985Z</time></trkpt><trkpt lat="44.234206" lon="8.1891622"><ele>986.0</ele><time>2026-04-26T09:48:43.985Z</time></trkpt><trkpt lat="44.2341166" lon="8.1891148"><ele>986.0</ele><time>2026-04-26T09:48:44.985Z</time></trkpt><trkpt lat="44.2340464" lon="8.1890366"><ele>986.0000000000001</ele><time>2026-04-26T09:48:45.985Z</time></trkpt><trkpt lat="44.2339916" lon="8.1889372"><ele>986.0</ele><time>2026-04-26T09:48:46.985Z</time></trkpt><trkpt lat="44.2339353" lon="8.1888243"><ele>981.1999999999999</ele><time>2026-04-26T09:48:47.985Z</time></trkpt><trkpt lat="44.2338772" lon="8.1887149"><ele>976.3999999999999</ele><time>2026-04-26T09:48:48.985Z</time></trkpt><trkpt lat="44.2338187" lon="8.1886141"><ele>971.6</ele><time>2026-04-26T09:48:49.986Z</time></trkpt><trkpt lat="44.2337732" lon="8.1885022"><ele>966.8</ele><time>2026-04-26T09:48:50.985Z</time></trkpt><trkpt lat="44.2337291" lon="8.1883971"><ele>962.0</ele><time>2026-04-26T09:48:51.985Z</time></trkpt><trkpt lat="44.2337011" lon="8.1882879"><ele>960.4000000000001</ele><time>2026-04-26T09:48:52.985Z</time></trkpt><trkpt lat="44.2336875" lon="8.1881661"><ele>958.8000000000001</ele><time>2026-04-26T09:48:53.985Z</time></trkpt><trkpt lat="44.2336851" lon="8.1880433"><ele>957.2</ele><time>2026-04-26T09:48:54.985Z</time></trkpt><trkpt lat="44.233697" lon="8.1879079"><ele>955.6</ele><time>2026-04-26T09:48:55.985Z</time></trkpt><trkpt lat="44.2337347" lon="8.1877554"><ele>954.0</ele><time>2026-04-26T09:48:56.985Z</time></trkpt><trkpt lat="44.2337698" lon="8.1876043"><ele>954.0</ele><time>2026-04-26T09:48:57.985Z</time></trkpt><trkpt lat="44.2338134" lon="8.1874628"><ele>954.0</ele><time>2026-04-26T09:48:58.985Z</time></trkpt><trkpt lat="44.2338687" lon="8.1873161"><ele>954.0</ele><time>2026-04-26T09:48:59.985Z</time></trkpt><trkpt lat="44.2339409" lon="8.1871768"><ele>954.0</ele><time>2026-04-26T09:49:00.985Z</time></trkpt><trkpt lat="44.2340315" lon="8.1870499"><ele>956.75</ele><time>2026-04-26T09:49:01.986Z</time></trkpt><trkpt lat="44.2341246" lon="8.1869404"><ele>959.5</ele><time>2026-04-26T09:49:02.985Z</time></trkpt><trkpt lat="44.2342111" lon="8.1868312"><ele>962.25</ele><time>2026-04-26T09:49:03.985Z</time></trkpt><trkpt lat="44.2342977" lon="8.1867206"><ele>965.0</ele><time>2026-04-26T09:49:04.985Z</time></trkpt><trkpt lat="44.2343785" lon="8.1866038"><ele>959.75</ele><time>2026-04-26T09:49:05.985Z</time></trkpt><trkpt lat="44.2344511" lon="8.1864568"><ele>954.5</ele><time>2026-04-26T09:49:06.986Z</time></trkpt><trkpt lat="44.2345233" lon="8.1862924"><ele>949.25</ele><time>2026-04-26T09:49:07.985Z</time></trkpt><trkpt lat="44.2345791" lon="8.1861335"><ele>944.0</ele><time>2026-04-26T09:49:08.985Z</time></trkpt><trkpt lat="44.2346337" lon="8.1859782"><ele>944.0</ele><time>2026-04-26T09:49:09.985Z</time></trkpt><trkpt lat="44.2346687" lon="8.1858046"><ele>944.0</ele><time>2026-04-26T09:49:10.985Z</time></trkpt><trkpt lat="44.2346925" lon="8.185629"><ele>944.0</ele><time>2026-04-26T09:49:11.985Z</time></trkpt><trkpt lat="44.2347192" lon="8.1854675"><ele>944.0</ele><time>2026-04-26T09:49:12.985Z</time></trkpt><trkpt lat="44.2347625" lon="8.1853202"><ele>945.6</ele><time>2026-04-26T09:49:13.985Z</time></trkpt><trkpt lat="44.2348106" lon="8.185177"><ele>947.2</ele><time>2026-04-26T09:49:14.985Z</time></trkpt><trkpt lat="44.2348689" lon="8.185041"><ele>948.8000000000001</ele><time>2026-04-26T09:49:15.985Z</time></trkpt><trkpt lat="44.234931" lon="8.184918"><ele>950.4000000000001</ele><time>2026-04-26T09:49:16.985Z</time></trkpt><trkpt lat="44.2349992" lon="8.1848"><ele>952.0</ele><time>2026-04-26T09:49:17.985Z</time></trkpt><trkpt lat="44.2350877" lon="8.1846945"><ele>944.25</ele><time>2026-04-26T09:49:18.985Z</time></trkpt><trkpt lat="44.2351816" lon="8.1846048"><ele>936.5</ele><time>2026-04-26T09:49:19.986Z</time></trkpt><trkpt lat="44.2352785" lon="8.1845304"><ele>928.75</ele><time>2026-04-26T09:49:20.985Z</time></trkpt><trkpt lat="44.2353932" lon="8.1844722"><ele>921.0</ele><time>2026-04-26T09:49:21.985Z</time></trkpt><trkpt lat="44.2355095" lon="8.1844318"><ele>921.0</ele><time>2026-04-26T09:49:22.985Z</time></trkpt><trkpt lat="44.2356303" lon="8.1844113"><ele>921.0</ele><time>2026-04-26T09:49:23.985Z</time></trkpt><trkpt lat="44.2357519" lon="8.1844134"><ele>921.0</ele><time>2026-04-26T09:49:24.985Z</time></trkpt><trkpt lat="44.2358724" lon="8.1844408"><ele>921.0</ele><time>2026-04-26T09:49:25.985Z</time></trkpt><trkpt lat="44.2359887" lon="8.1844915"><ele>923.5</ele><time>2026-04-26T09:49:26.985Z</time></trkpt><trkpt lat="44.2361044" lon="8.1845599"><ele>926.0</ele><time>2026-04-26T09:49:27.986Z</time></trkpt><trkpt lat="44.2361964" lon="8.1846319"><ele>928.5</ele><time>2026-04-26T09:49:28.985Z</time></trkpt><trkpt lat="44.2362941" lon="8.1847221"><ele>931.0</ele><time>2026-04-26T09:49:29.986Z</time></trkpt><trkpt lat="44.2363943" lon="8.1848136"><ele>935.1999999999999</ele><time>2026-04-26T09:49:30.985Z</time></trkpt><trkpt lat="44.2364822" lon="8.184912"><ele>939.3999999999999</ele><time>2026-04-26T09:49:31.985Z</time></trkpt><trkpt lat="44.2365608" lon="8.1850131"><ele>943.6</ele><time>2026-04-26T09:49:32.985Z</time></trkpt><trkpt lat="44.2366345" lon="8.1851116"><ele>947.8</ele><time>2026-04-26T09:49:33.985Z</time></trkpt><trkpt lat="44.2366993" lon="8.1851992"><ele>952.0</ele><time>2026-04-26T09:49:34.985Z</time></trkpt><trkpt lat="44.2367572" lon="8.1852686"><ele>951.9999999999999</ele><time>2026-04-26T09:49:35.985Z</time></trkpt><trkpt lat="44.2368098" lon="8.1853259"><ele>952.0</ele><time>2026-04-26T09:49:36.985Z</time></trkpt><trkpt lat="44.2369007" lon="8.1854115"><ele>952.0</ele><time>2026-04-26T09:49:38.985Z</time></trkpt><trkpt lat="44.2369131" lon="8.1853222"><ele>952.0</ele><time>2026-04-26T09:49:40.985Z</time></trkpt><trkpt lat="44.2369048" lon="8.1851645"><ele>951.9999999999999</ele><time>2026-04-26T09:49:42.985Z</time></trkpt><trkpt lat="44.2368884" lon="8.1850509"><ele>952.0</ele><time>2026-04-26T09:49:43.985Z</time></trkpt><trkpt lat="44.2368637" lon="8.1849232"><ele>949.5</ele><time>2026-04-26T09:49:44.985Z</time></trkpt><trkpt lat="44.2368271" lon="8.1847794"><ele>947.0</ele><time>2026-04-26T09:49:45.985Z</time></trkpt><trkpt lat="44.2367771" lon="8.1846315"><ele>944.5</ele><time>2026-04-26T09:49:46.985Z</time></trkpt><trkpt lat="44.236726" lon="8.1844663"><ele>942.0</ele><time>2026-04-26T09:49:47.985Z</time></trkpt><trkpt lat="44.2366994" lon="8.184262"><ele>942.0</ele><time>2026-04-26T09:49:48.985Z</time></trkpt><trkpt lat="44.2366848" lon="8.1840263"><ele>942.0</ele><time>2026-04-26T09:49:49.985Z</time></trkpt><trkpt lat="44.2366694" lon="8.1838073"><ele>942.0</ele><time>2026-04-26T09:49:50.985Z</time></trkpt><trkpt lat="44.2366626" lon="8.1835949"><ele>940.5</ele><time>2026-04-26T09:49:51.985Z</time></trkpt><trkpt lat="44.2366479" lon="8.1834103"><ele>939.0</ele><time>2026-04-26T09:49:52.985Z</time></trkpt><trkpt lat="44.236644" lon="8.1832385"><ele>937.5</ele><time>2026-04-26T09:49:53.986Z</time></trkpt><trkpt lat="44.2366481" lon="8.1830749"><ele>936.0</ele><time>2026-04-26T09:49:54.985Z</time></trkpt><trkpt lat="44.2366632" lon="8.1829161"><ele>932.5</ele><time>2026-04-26T09:49:55.985Z</time></trkpt><trkpt lat="44.2366888" lon="8.1827518"><ele>929.0</ele><time>2026-04-26T09:49:56.985Z</time></trkpt><trkpt lat="44.2367302" lon="8.1825952"><ele>925.5</ele><time>2026-04-26T09:49:57.986Z</time></trkpt><trkpt lat="44.2367915" lon="8.182426"><ele>922.0</ele><time>2026-04-26T09:49:58.985Z</time></trkpt><trkpt lat="44.236857" lon="8.1822792"><ele>917.4000000000001</ele><time>2026-04-26T09:49:59.985Z</time></trkpt><trkpt lat="44.2369194" lon="8.1821363"><ele>912.8000000000001</ele><time>2026-04-26T09:50:00.985Z</time></trkpt><trkpt lat="44.2369886" lon="8.1819975"><ele>908.2</ele><time>2026-04-26T09:50:01.985Z</time></trkpt><trkpt lat="44.2370531" lon="8.1818752"><ele>903.6</ele><time>2026-04-26T09:50:02.986Z</time></trkpt><trkpt lat="44.237111" lon="8.1817764"><ele>899.0</ele><time>2026-04-26T09:50:03.986Z</time></trkpt><trkpt lat="44.2371709" lon="8.1816945"><ele>899.0000000000001</ele><time>2026-04-26T09:50:04.985Z</time></trkpt><trkpt lat="44.2372417" lon="8.1816331"><ele>899.0</ele><time>2026-04-26T09:50:05.985Z</time></trkpt><trkpt lat="44.2373079" lon="8.1815988"><ele>899.0</ele><time>2026-04-26T09:50:06.985Z</time></trkpt><trkpt lat="44.2373711" lon="8.1816016"><ele>899.0</ele><time>2026-04-26T09:50:07.985Z</time></trkpt><trkpt lat="44.2374425" lon="8.1816521"><ele>899.0000000000001</ele><time>2026-04-26T09:50:08.985Z</time></trkpt><trkpt lat="44.2375287" lon="8.1817452"><ele>899.0</ele><time>2026-04-26T09:50:09.985Z</time></trkpt><trkpt lat="44.237628" lon="8.1818479"><ele>903.25</ele><time>2026-04-26T09:50:10.985Z</time></trkpt><trkpt lat="44.2377414" lon="8.1819501"><ele>907.5</ele><time>2026-04-26T09:50:11.985Z</time></trkpt><trkpt lat="44.2378616" lon="8.1820365"><ele>911.75</ele><time>2026-04-26T09:50:12.985Z</time></trkpt><trkpt lat="44.2379792" lon="8.1821353"><ele>916.0</ele><time>2026-04-26T09:50:13.985Z</time></trkpt><trkpt lat="44.2380871" lon="8.18222"><ele>917.0</ele><time>2026-04-26T09:50:14.985Z</time></trkpt><trkpt lat="44.2381826" lon="8.1822956"><ele>917.9999999999999</ele><time>2026-04-26T09:50:15.985Z</time></trkpt><trkpt lat="44.238267" lon="8.182364"><ele>918.9999999999999</ele><time>2026-04-26T09:50:16.985Z</time></trkpt><trkpt lat="44.2383409" lon="8.18242"><ele>920.0</ele><time>2026-04-26T09:50:17.985Z</time></trkpt><trkpt lat="44.2384144" lon="8.1824575"><ele>921.0</ele><time>2026-04-26T09:50:18.985Z</time></trkpt><trkpt lat="44.2384944" lon="8.1824789"><ele>921.0000000000001</ele><time>2026-04-26T09:50:19.985Z</time></trkpt><trkpt lat="44.238559" lon="8.1824535"><ele>921.0</ele><time>2026-04-26T09:50:20.985Z</time></trkpt><trkpt lat="44.2386233" lon="8.1824068"><ele>921.0000000000001</ele><time>2026-04-26T09:50:21.985Z</time></trkpt><trkpt lat="44.2386816" lon="8.1823548"><ele>921.0000000000001</ele><time>2026-04-26T09:50:22.985Z</time></trkpt><trkpt lat="44.2387344" lon="8.1822868"><ele>921.0</ele><time>2026-04-26T09:50:23.985Z</time></trkpt><trkpt lat="44.2387782" lon="8.1822025"><ele>921.0000000000001</ele><time>2026-04-26T09:50:24.985Z</time></trkpt><trkpt lat="44.2388082" lon="8.1820914"><ele>921.0000000000001</ele><time>2026-04-26T09:50:25.985Z</time></trkpt><trkpt lat="44.2388041" lon="8.1819616"><ele>921.0</ele><time>2026-04-26T09:50:26.985Z</time></trkpt><trkpt lat="44.2387797" lon="8.1818122"><ele>921.0</ele><time>2026-04-26T09:50:27.985Z</time></trkpt><trkpt lat="44.2387311" lon="8.1816406"><ele>921.0</ele><time>2026-04-26T09:50:28.986Z</time></trkpt><trkpt lat="44.2386284" lon="8.1814702"><ele>921.0</ele><time>2026-04-26T09:50:29.986Z</time></trkpt><trkpt lat="44.2385356" lon="8.1812843"><ele>921.6666666666667</ele><time>2026-04-26T09:50:30.985Z</time></trkpt><trkpt lat="44.2384424" lon="8.1811134"><ele>922.3333333333334</ele><time>2026-04-26T09:50:31.985Z</time></trkpt><trkpt lat="44.2383321" lon="8.180937"><ele>923.0</ele><time>2026-04-26T09:50:32.985Z</time></trkpt><trkpt lat="44.2382054" lon="8.180776"><ele>913.0</ele><time>2026-04-26T09:50:33.986Z</time></trkpt><trkpt lat="44.2381019" lon="8.1806413"><ele>903.0</ele><time>2026-04-26T09:50:34.985Z</time></trkpt><trkpt lat="44.2380243" lon="8.1805076"><ele>893.0</ele><time>2026-04-26T09:50:35.986Z</time></trkpt><trkpt lat="44.2379739" lon="8.1803615"><ele>883.0</ele><time>2026-04-26T09:50:36.985Z</time></trkpt><trkpt lat="44.2379564" lon="8.1801985"><ele>882.9999999999999</ele><time>2026-04-26T09:50:37.985Z</time></trkpt><trkpt lat="44.2379252" lon="8.1800604"><ele>883.0</ele><time>2026-04-26T09:50:38.986Z</time></trkpt><trkpt lat="44.2378945" lon="8.1799463"><ele>883.0</ele><time>2026-04-26T09:50:39.985Z</time></trkpt><trkpt lat="44.2378747" lon="8.1798314"><ele>883.0</ele><time>2026-04-26T09:50:40.985Z</time></trkpt><trkpt lat="44.2378558" lon="8.1797305"><ele>882.9999999999999</ele><time>2026-04-26T09:50:41.985Z</time></trkpt><trkpt lat="44.2378221" lon="8.179641"><ele>883.0</ele><time>2026-04-26T09:50:42.985Z</time></trkpt><trkpt lat="44.2377899" lon="8.1795442"><ele>883.4</ele><time>2026-04-26T09:50:43.985Z</time></trkpt><trkpt lat="44.2377646" lon="8.1794242"><ele>883.8</ele><time>2026-04-26T09:50:44.985Z</time></trkpt><trkpt lat="44.2377448" lon="8.1792837"><ele>884.2</ele><time>2026-04-26T09:50:45.985Z</time></trkpt><trkpt lat="44.2377392" lon="8.1791183"><ele>884.6</ele><time>2026-04-26T09:50:46.985Z</time></trkpt><trkpt lat="44.2377274" lon="8.1789454"><ele>885.0</ele><time>2026-04-26T09:50:47.985Z</time></trkpt><trkpt lat="44.2377048" lon="8.1787604"><ele>886.25</ele><time>2026-04-26T09:50:48.985Z</time></trkpt><trkpt lat="44.2376688" lon="8.1785681"><ele>887.5</ele><time>2026-04-26T09:50:49.986Z</time></trkpt><trkpt lat="44.2376392" lon="8.1783637"><ele>888.75</ele><time>2026-04-26T09:50:50.985Z</time></trkpt><trkpt lat="44.2376022" lon="8.1781572"><ele>890.0</ele><time>2026-04-26T09:50:51.985Z</time></trkpt><trkpt lat="44.2375647" lon="8.1779597"><ele>891.0</ele><time>2026-04-26T09:50:52.985Z</time></trkpt><trkpt lat="44.2375313" lon="8.177774"><ele>892.0</ele><time>2026-04-26T09:50:53.985Z</time></trkpt><trkpt lat="44.2374978" lon="8.1776067"><ele>893.0</ele><time>2026-04-26T09:50:54.985Z</time></trkpt><trkpt lat="44.2374733" lon="8.1774621"><ele>894.0</ele><time>2026-04-26T09:50:55.986Z</time></trkpt><trkpt lat="44.237444" lon="8.1773319"><ele>894.0</ele><time>2026-04-26T09:50:56.985Z</time></trkpt><trkpt lat="44.2374225" lon="8.1772236"><ele>894.0</ele><time>2026-04-26T09:50:57.985Z</time></trkpt><trkpt lat="44.2374092" lon="8.177129"><ele>894.0</ele><time>2026-04-26T09:50:58.985Z</time></trkpt><trkpt lat="44.2374096" lon="8.1770233"><ele>894.0</ele><time>2026-04-26T09:50:59.985Z</time></trkpt><trkpt lat="44.2374278" lon="8.176904"><ele>894.0</ele><time>2026-04-26T09:51:00.985Z</time></trkpt><trkpt lat="44.2374521" lon="8.1767638"><ele>894.0</ele><time>2026-04-26T09:51:01.985Z</time></trkpt><trkpt lat="44.2374642" lon="8.1765974"><ele>895.5</ele><time>2026-04-26T09:51:02.985Z</time></trkpt><trkpt lat="44.2374635" lon="8.176416"><ele>897.0</ele><time>2026-04-26T09:51:03.986Z</time></trkpt><trkpt lat="44.2374579" lon="8.1762324"><ele>898.5</ele><time>2026-04-26T09:51:04.985Z</time></trkpt><trkpt lat="44.237428" lon="8.1760417"><ele>900.0</ele><time>2026-04-26T09:51:05.985Z</time></trkpt><trkpt lat="44.2373784" lon="8.1758598"><ele>900.0</ele><time>2026-04-26T09:51:06.985Z</time></trkpt><trkpt lat="44.2373297" lon="8.1756874"><ele>900.0</ele><time>2026-04-26T09:51:07.986Z</time></trkpt><trkpt lat="44.2372769" lon="8.1755384"><ele>900.0</ele><time>2026-04-26T09:51:08.985Z</time></trkpt><trkpt lat="44.2372203" lon="8.175407"><ele>900.0</ele><time>2026-04-26T09:51:09.985Z</time></trkpt><trkpt lat="44.2371409" lon="8.1752802"><ele>891.25</ele><time>2026-04-26T09:51:10.986Z</time></trkpt><trkpt lat="44.2370484" lon="8.175164"><ele>882.5</ele><time>2026-04-26T09:51:11.985Z</time></trkpt><trkpt lat="44.2369516" lon="8.1750578"><ele>873.75</ele><time>2026-04-26T09:51:12.985Z</time></trkpt><trkpt lat="44.2368675" lon="8.1749527"><ele>865.0</ele><time>2026-04-26T09:51:13.985Z</time></trkpt><trkpt lat="44.2368002" lon="8.1748589"><ele>863.8333333333333</ele><time>2026-04-26T09:51:14.985Z</time></trkpt><trkpt lat="44.2367457" lon="8.1747689"><ele>862.6666666666666</ele><time>2026-04-26T09:51:15.985Z</time></trkpt><trkpt lat="44.236702" lon="8.1746692"><ele>861.5</ele><time>2026-04-26T09:51:16.985Z</time></trkpt><trkpt lat="44.2366734" lon="8.174566"><ele>860.3333333333333</ele><time>2026-04-26T09:51:17.985Z</time></trkpt><trkpt lat="44.2366664" lon="8.1744579"><ele>859.1666666666666</ele><time>2026-04-26T09:51:18.986Z</time></trkpt><trkpt lat="44.2366841" lon="8.174332"><ele>858.0</ele><time>2026-04-26T09:51:19.985Z</time></trkpt><trkpt lat="44.2367437" lon="8.1741832"><ele>849.3333333333333</ele><time>2026-04-26T09:51:20.985Z</time></trkpt><trkpt lat="44.2368263" lon="8.1740155"><ele>840.6666666666666</ele><time>2026-04-26T09:51:21.985Z</time></trkpt><trkpt lat="44.2369217" lon="8.1738268"><ele>832.0</ele><time>2026-04-26T09:51:22.985Z</time></trkpt><trkpt lat="44.2369983" lon="8.1736536"><ele>832.0</ele><time>2026-04-26T09:51:23.985Z</time></trkpt><trkpt lat="44.2370833" lon="8.1734855"><ele>832.0</ele><time>2026-04-26T09:51:24.985Z</time></trkpt><trkpt lat="44.2371871" lon="8.1733251"><ele>832.0</ele><time>2026-04-26T09:51:25.985Z</time></trkpt><trkpt lat="44.2372714" lon="8.1732185"><ele>832.0</ele><time>2026-04-26T09:51:26.986Z</time></trkpt><trkpt lat="44.2373636" lon="8.1731438"><ele>831.5</ele><time>2026-04-26T09:51:27.985Z</time></trkpt><trkpt lat="44.2374722" lon="8.1731027"><ele>831.0</ele><time>2026-04-26T09:51:28.985Z</time></trkpt><trkpt lat="44.2375867" lon="8.1730906"><ele>830.5</ele><time>2026-04-26T09:51:29.985Z</time></trkpt><trkpt lat="44.2377091" lon="8.1731043"><ele>830.0</ele><time>2026-04-26T09:51:30.985Z</time></trkpt><trkpt lat="44.2378411" lon="8.1731313"><ele>830.0</ele><time>2026-04-26T09:51:31.985Z</time></trkpt><trkpt lat="44.2379675" lon="8.1731702"><ele>830.0</ele><time>2026-04-26T09:51:32.985Z</time></trkpt><trkpt lat="44.2380826" lon="8.173204"><ele>830.0</ele><time>2026-04-26T09:51:33.985Z</time></trkpt><trkpt lat="44.2381928" lon="8.1732399"><ele>830.0</ele><time>2026-04-26T09:51:34.985Z</time></trkpt><trkpt lat="44.2382875" lon="8.1732804"><ele>833.8</ele><time>2026-04-26T09:51:35.985Z</time></trkpt><trkpt lat="44.238371" lon="8.1733082"><ele>837.6</ele><time>2026-04-26T09:51:36.985Z</time></trkpt><trkpt lat="44.238447" lon="8.1733217"><ele>841.4000000000001</ele><time>2026-04-26T09:51:37.985Z</time></trkpt><trkpt lat="44.2385636" lon="8.1732774"><ele>845.2</ele><time>2026-04-26T09:51:39.985Z</time></trkpt><trkpt lat="44.2385959" lon="8.1731008"><ele>849.0</ele><time>2026-04-26T09:51:41.985Z</time></trkpt><trkpt lat="44.238579" lon="8.1729726"><ele>849.0</ele><time>2026-04-26T09:51:42.986Z</time></trkpt><trkpt lat="44.238596" lon="8.1728352"><ele>849.0</ele><time>2026-04-26T09:51:43.985Z</time></trkpt><trkpt lat="44.2386169" lon="8.1727158"><ele>849.0</ele><time>2026-04-26T09:51:44.985Z</time></trkpt><trkpt lat="44.2386564" lon="8.1725935"><ele>849.0</ele><time>2026-04-26T09:51:45.985Z</time></trkpt><trkpt lat="44.2387138" lon="8.1724556"><ele>849.0</ele><time>2026-04-26T09:51:46.985Z</time></trkpt><trkpt lat="44.2387698" lon="8.1722845"><ele>848.3333333333333</ele><time>2026-04-26T09:51:47.985Z</time></trkpt><trkpt lat="44.2388328" lon="8.1720797"><ele>847.6666666666666</ele><time>2026-04-26T09:51:48.985Z</time></trkpt><trkpt lat="44.2388928" lon="8.1718959"><ele>847.0</ele><time>2026-04-26T09:51:49.985Z</time></trkpt><trkpt lat="44.2389739" lon="8.1717271"><ele>847.0</ele><time>2026-04-26T09:51:50.985Z</time></trkpt><trkpt lat="44.2390354" lon="8.1715997"><ele>847.0</ele><time>2026-04-26T09:51:51.985Z</time></trkpt><trkpt lat="44.239111" lon="8.1714884"><ele>847.0</ele><time>2026-04-26T09:51:52.985Z</time></trkpt><trkpt lat="44.239187" lon="8.1714008"><ele>847.0</ele><time>2026-04-26T09:51:53.986Z</time></trkpt><trkpt lat="44.2392619" lon="8.1713537"><ele>847.0</ele><time>2026-04-26T09:51:54.985Z</time></trkpt><trkpt lat="44.2393424" lon="8.171334"><ele>847.0</ele><time>2026-04-26T09:51:55.986Z</time></trkpt><trkpt lat="44.2394219" lon="8.171345"><ele>847.0</ele><time>2026-04-26T09:51:56.985Z</time></trkpt><trkpt lat="44.2395124" lon="8.1713865"><ele>847.0</ele><time>2026-04-26T09:51:57.985Z</time></trkpt><trkpt lat="44.2396134" lon="8.1714551"><ele>847.0</ele><time>2026-04-26T09:51:58.985Z</time></trkpt><trkpt lat="44.2397288" lon="8.1715863"><ele>847.0</ele><time>2026-04-26T09:51:59.985Z</time></trkpt><trkpt lat="44.2398422" lon="8.1717371"><ele>845.75</ele><time>2026-04-26T09:52:00.985Z</time></trkpt><trkpt lat="44.2399431" lon="8.1718558"><ele>844.5</ele><time>2026-04-26T09:52:01.985Z</time></trkpt><trkpt lat="44.2400604" lon="8.1719545"><ele>843.25</ele><time>2026-04-26T09:52:02.985Z</time></trkpt><trkpt lat="44.2401812" lon="8.1720105"><ele>842.0</ele><time>2026-04-26T09:52:03.985Z</time></trkpt><trkpt lat="44.2403017" lon="8.1720587"><ele>842.0</ele><time>2026-04-26T09:52:04.985Z</time></trkpt><trkpt lat="44.240415" lon="8.1720978"><ele>842.0</ele><time>2026-04-26T09:52:05.985Z</time></trkpt><trkpt lat="44.2405084" lon="8.1721306"><ele>842.0</ele><time>2026-04-26T09:52:06.985Z</time></trkpt><trkpt lat="44.2405901" lon="8.1721687"><ele>842.0</ele><time>2026-04-26T09:52:07.985Z</time></trkpt><trkpt lat="44.2406574" lon="8.172185"><ele>842.0</ele><time>2026-04-26T09:52:08.986Z</time></trkpt><trkpt lat="44.2407423" lon="8.1721535"><ele>842.0</ele><time>2026-04-26T09:52:10.986Z</time></trkpt><trkpt lat="44.2407481" lon="8.1720564"><ele>842.0</ele><time>2026-04-26T09:52:12.986Z</time></trkpt><trkpt lat="44.2407" lon="8.1719939"><ele>842.0</ele><time>2026-04-26T09:52:13.986Z</time></trkpt><trkpt lat="44.2406312" lon="8.1719376"><ele>842.0</ele><time>2026-04-26T09:52:14.985Z</time></trkpt><trkpt lat="44.2405273" lon="8.1718553"><ele>842.0</ele><time>2026-04-26T09:52:15.985Z</time></trkpt><trkpt lat="44.2403991" lon="8.1717408"><ele>842.0</ele><time>2026-04-26T09:52:16.985Z</time></trkpt><trkpt lat="44.2402605" lon="8.1715856"><ele>842.0</ele><time>2026-04-26T09:52:17.985Z</time></trkpt><trkpt lat="44.2401368" lon="8.1714143"><ele>842.0</ele><time>2026-04-26T09:52:18.985Z</time></trkpt><trkpt lat="44.2400385" lon="8.1712408"><ele>841.6666666666667</ele><time>2026-04-26T09:52:19.985Z</time></trkpt><trkpt lat="44.2399173" lon="8.1710475"><ele>841.3333333333333</ele><time>2026-04-26T09:52:20.985Z</time></trkpt><trkpt lat="44.2398398" lon="8.1708387"><ele>841.0</ele><time>2026-04-26T09:52:21.985Z</time></trkpt><trkpt lat="44.2397684" lon="8.1706444"><ele>832.3333333333333</ele><time>2026-04-26T09:52:22.985Z</time></trkpt><trkpt lat="44.239696" lon="8.1704588"><ele>823.6666666666667</ele><time>2026-04-26T09:52:23.985Z</time></trkpt><trkpt lat="44.2396043" lon="8.1702676"><ele>815.0</ele><time>2026-04-26T09:52:24.985Z</time></trkpt><trkpt lat="44.2395183" lon="8.1700561"><ele>817.6666666666667</ele><time>2026-04-26T09:52:25.986Z</time></trkpt><trkpt lat="44.2394156" lon="8.1698435"><ele>820.3333333333333</ele><time>2026-04-26T09:52:26.985Z</time></trkpt><trkpt lat="44.2392998" lon="8.1696523"><ele>823.0</ele><time>2026-04-26T09:52:27.985Z</time></trkpt><trkpt lat="44.2391713" lon="8.1694841"><ele>823.0</ele><time>2026-04-26T09:52:28.984Z</time></trkpt><trkpt lat="44.2390609" lon="8.1693276"><ele>823.0</ele><time>2026-04-26T09:52:29.984Z</time></trkpt><trkpt lat="44.2389558" lon="8.1691957"><ele>823.0</ele><time>2026-04-26T09:52:30.984Z</time></trkpt><trkpt lat="44.2388608" lon="8.1690875"><ele>823.0</ele><time>2026-04-26T09:52:31.984Z</time></trkpt><trkpt lat="44.2387692" lon="8.1689915"><ele>819.1666666666666</ele><time>2026-04-26T09:52:32.984Z</time></trkpt><trkpt lat="44.2386987" lon="8.1689037"><ele>815.3333333333333</ele><time>2026-04-26T09:52:33.984Z</time></trkpt><trkpt lat="44.2386572" lon="8.1688264"><ele>811.5</ele><time>2026-04-26T09:52:34.984Z</time></trkpt><trkpt lat="44.2386246" lon="8.1686732"><ele>807.6666666666667</ele><time>2026-04-26T09:52:36.984Z</time></trkpt><trkpt lat="44.2386489" lon="8.1685821"><ele>803.8333333333334</ele><time>2026-04-26T09:52:37.984Z</time></trkpt><trkpt lat="44.2386946" lon="8.1685058"><ele>800.0</ele><time>2026-04-26T09:52:38.985Z</time></trkpt><trkpt lat="44.2387461" lon="8.168436"><ele>800.0</ele><time>2026-04-26T09:52:39.984Z</time></trkpt><trkpt lat="44.2388339" lon="8.1683553"><ele>800.0</ele><time>2026-04-26T09:52:40.984Z</time></trkpt><trkpt lat="44.2389306" lon="8.1682766"><ele>800.0</ele><time>2026-04-26T09:52:41.985Z</time></trkpt><trkpt lat="44.2390335" lon="8.1681863"><ele>800.0</ele><time>2026-04-26T09:52:42.985Z</time></trkpt><trkpt lat="44.2391268" lon="8.168083"><ele>803.8333333333334</ele><time>2026-04-26T09:52:43.984Z</time></trkpt><trkpt lat="44.2392076" lon="8.1679961"><ele>807.6666666666667</ele><time>2026-04-26T09:52:44.985Z</time></trkpt><trkpt lat="44.2392579" lon="8.167919"><ele>811.5</ele><time>2026-04-26T09:52:45.984Z</time></trkpt><trkpt lat="44.2392957" lon="8.1678459"><ele>815.3333333333333</ele><time>2026-04-26T09:52:46.984Z</time></trkpt><trkpt lat="44.2393382" lon="8.1677102"><ele>819.1666666666666</ele><time>2026-04-26T09:52:48.984Z</time></trkpt><trkpt lat="44.2393104" lon="8.1676219"><ele>823.0</ele><time>2026-04-26T09:52:50.985Z</time></trkpt><trkpt lat="44.2391824" lon="8.1676441"><ele>823.0</ele><time>2026-04-26T09:52:52.984Z</time></trkpt><trkpt lat="44.2390927" lon="8.1676912"><ele>823.0</ele><time>2026-04-26T09:52:53.984Z</time></trkpt><trkpt lat="44.2389746" lon="8.1677734"><ele>823.0</ele><time>2026-04-26T09:52:54.985Z</time></trkpt><trkpt lat="44.2388497" lon="8.1678317"><ele>823.0</ele><time>2026-04-26T09:52:55.984Z</time></trkpt><trkpt lat="44.2387084" lon="8.167872"><ele>817.0</ele><time>2026-04-26T09:52:56.984Z</time></trkpt><trkpt lat="44.2385541" lon="8.1679024"><ele>811.0</ele><time>2026-04-26T09:52:57.984Z</time></trkpt><trkpt lat="44.2384032" lon="8.1679259"><ele>805.0</ele><time>2026-04-26T09:52:58.985Z</time></trkpt><trkpt lat="44.2382606" lon="8.1679135"><ele>799.5</ele><time>2026-04-26T09:52:59.984Z</time></trkpt><trkpt lat="44.2381282" lon="8.1678701"><ele>794.0</ele><time>2026-04-26T09:53:00.984Z</time></trkpt><trkpt lat="44.2380036" lon="8.1677901"><ele>788.5</ele><time>2026-04-26T09:53:01.984Z</time></trkpt><trkpt lat="44.2379071" lon="8.1676516"><ele>783.0</ele><time>2026-04-26T09:53:02.984Z</time></trkpt><trkpt lat="44.237818" lon="8.1675082"><ele>783.0</ele><time>2026-04-26T09:53:03.984Z</time></trkpt><trkpt lat="44.2377355" lon="8.1673653"><ele>783.0</ele><time>2026-04-26T09:53:04.984Z</time></trkpt><trkpt lat="44.2376585" lon="8.1672175"><ele>783.0</ele><time>2026-04-26T09:53:05.984Z</time></trkpt><trkpt lat="44.2375869" lon="8.167061"><ele>783.0</ele><time>2026-04-26T09:53:06.984Z</time></trkpt><trkpt lat="44.2375284" lon="8.1668892"><ele>784.5</ele><time>2026-04-26T09:53:07.984Z</time></trkpt><trkpt lat="44.2374739" lon="8.1667301"><ele>786.0</ele><time>2026-04-26T09:53:08.984Z</time></trkpt><trkpt lat="44.2374188" lon="8.1665694"><ele>787.5</ele><time>2026-04-26T09:53:09.984Z</time></trkpt><trkpt lat="44.2373499" lon="8.1664162"><ele>789.0</ele><time>2026-04-26T09:53:10.984Z</time></trkpt><trkpt lat="44.2372717" lon="8.1662652"><ele>789.25</ele><time>2026-04-26T09:53:11.984Z</time></trkpt><trkpt lat="44.2371704" lon="8.1661319"><ele>789.5</ele><time>2026-04-26T09:53:12.984Z</time></trkpt><trkpt lat="44.2370465" lon="8.1660225"><ele>789.75</ele><time>2026-04-26T09:53:13.984Z</time></trkpt><trkpt lat="44.2369119" lon="8.1659426"><ele>790.0</ele><time>2026-04-26T09:53:14.984Z</time></trkpt><trkpt lat="44.2367808" lon="8.1658751"><ele>790.0</ele><time>2026-04-26T09:53:15.984Z</time></trkpt><trkpt lat="44.236656" lon="8.1658256"><ele>790.0</ele><time>2026-04-26T09:53:16.984Z</time></trkpt><trkpt lat="44.2365318" lon="8.165805"><ele>790.0</ele><time>2026-04-26T09:53:17.984Z</time></trkpt><trkpt lat="44.2364106" lon="8.1658025"><ele>790.0</ele><time>2026-04-26T09:53:18.984Z</time></trkpt><trkpt lat="44.2362941" lon="8.1657924"><ele>789.5</ele><time>2026-04-26T09:53:19.984Z</time></trkpt><trkpt lat="44.2361787" lon="8.1657683"><ele>789.0</ele><time>2026-04-26T09:53:20.984Z</time></trkpt><trkpt lat="44.2360711" lon="8.16572"><ele>788.5</ele><time>2026-04-26T09:53:21.984Z</time></trkpt><trkpt lat="44.235951" lon="8.1656708"><ele>788.0</ele><time>2026-04-26T09:53:22.985Z</time></trkpt><trkpt lat="44.2358323" lon="8.1656147"><ele>788.0</ele><time>2026-04-26T09:53:23.984Z</time></trkpt><trkpt lat="44.2357189" lon="8.1655135"><ele>788.0</ele><time>2026-04-26T09:53:24.984Z</time></trkpt><trkpt lat="44.235626" lon="8.1653765"><ele>788.0</ele><time>2026-04-26T09:53:25.984Z</time></trkpt><trkpt lat="44.235544" lon="8.1652274"><ele>788.0</ele><time>2026-04-26T09:53:26.984Z</time></trkpt><trkpt lat="44.2354472" lon="8.1650835"><ele>783.25</ele><time>2026-04-26T09:53:27.984Z</time></trkpt><trkpt lat="44.235357" lon="8.1649483"><ele>778.5</ele><time>2026-04-26T09:53:28.984Z</time></trkpt><trkpt lat="44.2352523" lon="8.164844"><ele>773.75</ele><time>2026-04-26T09:53:29.984Z</time></trkpt><trkpt lat="44.2351493" lon="8.1647548"><ele>769.0</ele><time>2026-04-26T09:53:30.984Z</time></trkpt><trkpt lat="44.2350525" lon="8.1646661"><ele>768.4000000000001</ele><time>2026-04-26T09:53:31.984Z</time></trkpt><trkpt lat="44.2349769" lon="8.164568"><ele>767.8</ele><time>2026-04-26T09:53:32.984Z</time></trkpt><trkpt lat="44.2349297" lon="8.1644494"><ele>767.2</ele><time>2026-04-26T09:53:33.984Z</time></trkpt><trkpt lat="44.2349101" lon="8.1643014"><ele>766.5999999999999</ele><time>2026-04-26T09:53:34.984Z</time></trkpt><trkpt lat="44.2348995" lon="8.1641497"><ele>766.0</ele><time>2026-04-26T09:53:35.984Z</time></trkpt><trkpt lat="44.2349103" lon="8.1639968"><ele>764.5</ele><time>2026-04-26T09:53:36.984Z</time></trkpt><trkpt lat="44.2349473" lon="8.1638354"><ele>763.0</ele><time>2026-04-26T09:53:37.984Z</time></trkpt><trkpt lat="44.2350044" lon="8.1636743"><ele>761.5</ele><time>2026-04-26T09:53:38.984Z</time></trkpt><trkpt lat="44.2350871" lon="8.1635164"><ele>760.0</ele><time>2026-04-26T09:53:39.984Z</time></trkpt><trkpt lat="44.2351535" lon="8.1633604"><ele>760.0</ele><time>2026-04-26T09:53:40.984Z</time></trkpt><trkpt lat="44.2351908" lon="8.163209"><ele>760.0</ele><time>2026-04-26T09:53:41.984Z</time></trkpt><trkpt lat="44.2351994" lon="8.1630588"><ele>760.0</ele><time>2026-04-26T09:53:42.984Z</time></trkpt><trkpt lat="44.235197" lon="8.1629119"><ele>760.0</ele><time>2026-04-26T09:53:43.984Z</time></trkpt><trkpt lat="44.2351725" lon="8.1627735"><ele>760.0</ele><time>2026-04-26T09:53:44.985Z</time></trkpt><trkpt lat="44.2351118" lon="8.1626377"><ele>762.0</ele><time>2026-04-26T09:53:45.984Z</time></trkpt><trkpt lat="44.2350224" lon="8.1625238"><ele>764.0</ele><time>2026-04-26T09:53:46.984Z</time></trkpt><trkpt lat="44.2348985" lon="8.1624619"><ele>766.0</ele><time>2026-04-26T09:53:47.984Z</time></trkpt><trkpt lat="44.2347857" lon="8.1623852"><ele>768.0</ele><time>2026-04-26T09:53:48.984Z</time></trkpt><trkpt lat="44.2346908" lon="8.1622728"><ele>768.75</ele><time>2026-04-26T09:53:49.984Z</time></trkpt><trkpt lat="44.2346159" lon="8.1621453"><ele>769.5</ele><time>2026-04-26T09:53:50.984Z</time></trkpt><trkpt lat="44.2345811" lon="8.1619926"><ele>770.25</ele><time>2026-04-26T09:53:51.984Z</time></trkpt><trkpt lat="44.2345694" lon="8.161821"><ele>771.0</ele><time>2026-04-26T09:53:52.984Z</time></trkpt><trkpt lat="44.2345795" lon="8.1616246"><ele>765.0</ele><time>2026-04-26T09:53:53.984Z</time></trkpt><trkpt lat="44.2345921" lon="8.1614061"><ele>759.0</ele><time>2026-04-26T09:53:54.984Z</time></trkpt><trkpt lat="44.2345948" lon="8.1611704"><ele>753.0</ele><time>2026-04-26T09:53:55.984Z</time></trkpt><trkpt lat="44.2345876" lon="8.1609319"><ele>753.0</ele><time>2026-04-26T09:53:56.984Z</time></trkpt><trkpt lat="44.2345754" lon="8.1606999"><ele>753.0</ele><time>2026-04-26T09:53:57.984Z</time></trkpt><trkpt lat="44.2345539" lon="8.160477"><ele>753.0</ele><time>2026-04-26T09:53:58.984Z</time></trkpt><trkpt lat="44.2345265" lon="8.1602627"><ele>752.25</ele><time>2026-04-26T09:53:59.984Z</time></trkpt><trkpt lat="44.23449" lon="8.1600634"><ele>751.5</ele><time>2026-04-26T09:54:00.984Z</time></trkpt><trkpt lat="44.2344367" lon="8.1598769"><ele>750.75</ele><time>2026-04-26T09:54:01.984Z</time></trkpt><trkpt lat="44.2343721" lon="8.1597121"><ele>750.0</ele><time>2026-04-26T09:54:02.984Z</time></trkpt><trkpt lat="44.2343136" lon="8.1595325"><ele>750.0</ele><time>2026-04-26T09:54:03.984Z</time></trkpt><trkpt lat="44.2342475" lon="8.1593749"><ele>750.0</ele><time>2026-04-26T09:54:04.985Z</time></trkpt><trkpt lat="44.2341835" lon="8.1592098"><ele>750.0</ele><time>2026-04-26T09:54:05.984Z</time></trkpt><trkpt lat="44.2341305" lon="8.1590401"><ele>750.0</ele><time>2026-04-26T09:54:06.984Z</time></trkpt><trkpt lat="44.2340958" lon="8.158874"><ele>749.5</ele><time>2026-04-26T09:54:07.984Z</time></trkpt><trkpt lat="44.234078" lon="8.1587112"><ele>749.0</ele><time>2026-04-26T09:54:08.984Z</time></trkpt><trkpt lat="44.2340721" lon="8.1585454"><ele>748.5</ele><time>2026-04-26T09:54:09.984Z</time></trkpt><trkpt lat="44.2340804" lon="8.158361"><ele>748.0</ele><time>2026-04-26T09:54:10.984Z</time></trkpt><trkpt lat="44.2341022" lon="8.1581582"><ele>745.6666666666667</ele><time>2026-04-26T09:54:11.984Z</time></trkpt><trkpt lat="44.2341157" lon="8.1579517"><ele>743.3333333333334</ele><time>2026-04-26T09:54:12.984Z</time></trkpt><trkpt lat="44.2340588" lon="8.1577631"><ele>741.0</ele><time>2026-04-26T09:54:13.984Z</time></trkpt><trkpt lat="44.2340535" lon="8.1575458"><ele>736.6666666666666</ele><time>2026-04-26T09:54:14.984Z</time></trkpt><trkpt lat="44.2340769" lon="8.1573384"><ele>732.3333333333333</ele><time>2026-04-26T09:54:15.984Z</time></trkpt><trkpt lat="44.2341124" lon="8.1571271"><ele>728.0</ele><time>2026-04-26T09:54:16.984Z</time></trkpt><trkpt lat="44.2341536" lon="8.1569102"><ele>728.0</ele><time>2026-04-26T09:54:17.984Z</time></trkpt><trkpt lat="44.2342007" lon="8.156679"><ele>728.0</ele><time>2026-04-26T09:54:18.984Z</time></trkpt><trkpt lat="44.2342514" lon="8.1564587"><ele>728.0</ele><time>2026-04-26T09:54:19.985Z</time></trkpt><trkpt lat="44.2343067" lon="8.1562319"><ele>726.3333333333333</ele><time>2026-04-26T09:54:20.984Z</time></trkpt><trkpt lat="44.2343504" lon="8.1560062"><ele>724.6666666666666</ele><time>2026-04-26T09:54:21.984Z</time></trkpt><trkpt lat="44.2343862" lon="8.1557873"><ele>723.0</ele><time>2026-04-26T09:54:22.984Z</time></trkpt><trkpt lat="44.2344194" lon="8.1555754"><ele>721.6666666666666</ele><time>2026-04-26T09:54:23.984Z</time></trkpt><trkpt lat="44.2344438" lon="8.1553576"><ele>720.3333333333333</ele><time>2026-04-26T09:54:24.985Z</time></trkpt><trkpt lat="44.2344529" lon="8.1551342"><ele>719.0</ele><time>2026-04-26T09:54:25.984Z</time></trkpt><trkpt lat="44.2344402" lon="8.1549023"><ele>718.3333333333333</ele><time>2026-04-26T09:54:26.984Z</time></trkpt><trkpt lat="44.23441" lon="8.1546661"><ele>717.6666666666666</ele><time>2026-04-26T09:54:27.984Z</time></trkpt><trkpt lat="44.2343641" lon="8.1544386"><ele>717.0</ele><time>2026-04-26T09:54:28.984Z</time></trkpt><trkpt lat="44.2343006" lon="8.154233"><ele>717.0</ele><time>2026-04-26T09:54:29.984Z</time></trkpt><trkpt lat="44.2342393" lon="8.1540398"><ele>717.0</ele><time>2026-04-26T09:54:30.984Z</time></trkpt><trkpt lat="44.2341801" lon="8.1538464"><ele>717.0</ele><time>2026-04-26T09:54:31.985Z</time></trkpt><trkpt lat="44.2341238" lon="8.153667"><ele>717.0</ele><time>2026-04-26T09:54:32.984Z</time></trkpt><trkpt lat="44.2340691" lon="8.1534834"><ele>716.5</ele><time>2026-04-26T09:54:33.984Z</time></trkpt><trkpt lat="44.2340429" lon="8.1532882"><ele>716.0</ele><time>2026-04-26T09:54:34.984Z</time></trkpt><trkpt lat="44.2340313" lon="8.1530822"><ele>715.5</ele><time>2026-04-26T09:54:35.984Z</time></trkpt><trkpt lat="44.2340325" lon="8.1528825"><ele>715.0</ele><time>2026-04-26T09:54:36.984Z</time></trkpt><trkpt lat="44.2340275" lon="8.1526786"><ele>714.6666666666667</ele><time>2026-04-26T09:54:37.984Z</time></trkpt><trkpt lat="44.2340012" lon="8.1524726"><ele>714.3333333333334</ele><time>2026-04-26T09:54:38.985Z</time></trkpt><trkpt lat="44.2339549" lon="8.1522589"><ele>714.0</ele><time>2026-04-26T09:54:39.984Z</time></trkpt><trkpt lat="44.2338898" lon="8.152041"><ele>714.0</ele><time>2026-04-26T09:54:40.984Z</time></trkpt><trkpt lat="44.2338231" lon="8.1518234"><ele>714.0</ele><time>2026-04-26T09:54:41.984Z</time></trkpt><trkpt lat="44.233756" lon="8.1516035"><ele>714.0</ele><time>2026-04-26T09:54:42.984Z</time></trkpt><trkpt lat="44.2336899" lon="8.1513755"><ele>714.0</ele><time>2026-04-26T09:54:43.984Z</time></trkpt><trkpt lat="44.2336309" lon="8.1511538"><ele>714.0</ele><time>2026-04-26T09:54:44.984Z</time></trkpt><trkpt lat="44.2335779" lon="8.1509399"><ele>714.0</ele><time>2026-04-26T09:54:45.984Z</time></trkpt><trkpt lat="44.2335211" lon="8.1507233"><ele>718.0</ele><time>2026-04-26T09:54:46.984Z</time></trkpt><trkpt lat="44.2334511" lon="8.1505095"><ele>722.0</ele><time>2026-04-26T09:54:47.984Z</time></trkpt><trkpt lat="44.2333557" lon="8.1503351"><ele>726.0</ele><time>2026-04-26T09:54:48.984Z</time></trkpt><trkpt lat="44.2332507" lon="8.1501723"><ele>726.0</ele><time>2026-04-26T09:54:49.984Z</time></trkpt><trkpt lat="44.233146" lon="8.1499987"><ele>726.0</ele><time>2026-04-26T09:54:50.984Z</time></trkpt><trkpt lat="44.2330464" lon="8.1498424"><ele>726.0</ele><time>2026-04-26T09:54:51.984Z</time></trkpt><trkpt lat="44.2329517" lon="8.1496864"><ele>721.25</ele><time>2026-04-26T09:54:52.984Z</time></trkpt><trkpt lat="44.2328779" lon="8.1495339"><ele>716.5</ele><time>2026-04-26T09:54:53.984Z</time></trkpt><trkpt lat="44.2328173" lon="8.1493743"><ele>711.75</ele><time>2026-04-26T09:54:54.984Z</time></trkpt><trkpt lat="44.2327758" lon="8.1492005"><ele>707.0</ele><time>2026-04-26T09:54:55.984Z</time></trkpt><trkpt lat="44.2327545" lon="8.1490123"><ele>706.0</ele><time>2026-04-26T09:54:56.984Z</time></trkpt><trkpt lat="44.232758" lon="8.148808"><ele>705.0</ele><time>2026-04-26T09:54:57.984Z</time></trkpt><trkpt lat="44.2327865" lon="8.148584"><ele>704.0</ele><time>2026-04-26T09:54:58.984Z</time></trkpt><trkpt lat="44.2328163" lon="8.1483515"><ele>703.3333333333333</ele><time>2026-04-26T09:54:59.984Z</time></trkpt><trkpt lat="44.2328444" lon="8.1481158"><ele>702.6666666666666</ele><time>2026-04-26T09:55:00.984Z</time></trkpt><trkpt lat="44.2328909" lon="8.1478921"><ele>702.0</ele><time>2026-04-26T09:55:01.984Z</time></trkpt><trkpt lat="44.232923" lon="8.1476837"><ele>702.0</ele><time>2026-04-26T09:55:02.984Z</time></trkpt><trkpt lat="44.2329534" lon="8.147486"><ele>702.0</ele><time>2026-04-26T09:55:03.984Z</time></trkpt><trkpt lat="44.232989" lon="8.1472977"><ele>702.0</ele><time>2026-04-26T09:55:04.984Z</time></trkpt><trkpt lat="44.2330384" lon="8.1471117"><ele>702.0</ele><time>2026-04-26T09:55:05.984Z</time></trkpt><trkpt lat="44.2330998" lon="8.1469192"><ele>703.3333333333334</ele><time>2026-04-26T09:55:06.984Z</time></trkpt><trkpt lat="44.2331695" lon="8.1467209"><ele>704.6666666666667</ele><time>2026-04-26T09:55:07.984Z</time></trkpt><trkpt lat="44.2332445" lon="8.146511"><ele>706.0</ele><time>2026-04-26T09:55:08.984Z</time></trkpt><trkpt lat="44.2333096" lon="8.146317"><ele>706.0</ele><time>2026-04-26T09:55:09.984Z</time></trkpt><trkpt lat="44.2333801" lon="8.1461366"><ele>706.0</ele><time>2026-04-26T09:55:10.984Z</time></trkpt><trkpt lat="44.2334597" lon="8.1459673"><ele>706.0</ele><time>2026-04-26T09:55:11.984Z</time></trkpt><trkpt lat="44.2335234" lon="8.1457877"><ele>706.0</ele><time>2026-04-26T09:55:12.984Z</time></trkpt><trkpt lat="44.2335739" lon="8.1456005"><ele>705.0</ele><time>2026-04-26T09:55:13.984Z</time></trkpt><trkpt lat="44.2335956" lon="8.1453986"><ele>704.0</ele><time>2026-04-26T09:55:14.984Z</time></trkpt><trkpt lat="44.2336051" lon="8.1451763"><ele>703.0</ele><time>2026-04-26T09:55:15.984Z</time></trkpt><trkpt lat="44.2335879" lon="8.1449541"><ele>701.6666666666667</ele><time>2026-04-26T09:55:16.984Z</time></trkpt><trkpt lat="44.2335761" lon="8.1447072"><ele>700.3333333333334</ele><time>2026-04-26T09:55:17.984Z</time></trkpt><trkpt lat="44.2335594" lon="8.1444535"><ele>699.0</ele><time>2026-04-26T09:55:18.984Z</time></trkpt><trkpt lat="44.2335503" lon="8.1441904"><ele>698.3333333333334</ele><time>2026-04-26T09:55:19.984Z</time></trkpt><trkpt lat="44.2335486" lon="8.1439237"><ele>697.6666666666667</ele><time>2026-04-26T09:55:20.984Z</time></trkpt><trkpt lat="44.2335612" lon="8.1436554"><ele>697.0</ele><time>2026-04-26T09:55:21.984Z</time></trkpt><trkpt lat="44.2335568" lon="8.143411"><ele>696.0</ele><time>2026-04-26T09:55:22.984Z</time></trkpt><trkpt lat="44.2335406" lon="8.1431829"><ele>695.0</ele><time>2026-04-26T09:55:23.984Z</time></trkpt><trkpt lat="44.2335349" lon="8.1429508"><ele>694.0</ele><time>2026-04-26T09:55:24.984Z</time></trkpt><trkpt lat="44.2335297" lon="8.1427297"><ele>694.0</ele><time>2026-04-26T09:55:25.984Z</time></trkpt><trkpt lat="44.2335062" lon="8.1425278"><ele>694.0</ele><time>2026-04-26T09:55:26.984Z</time></trkpt><trkpt lat="44.2335079" lon="8.1423355"><ele>694.0</ele><time>2026-04-26T09:55:27.984Z</time></trkpt><trkpt lat="44.2335309" lon="8.1421353"><ele>694.0</ele><time>2026-04-26T09:55:28.984Z</time></trkpt><trkpt lat="44.2335616" lon="8.14194"><ele>693.0</ele><time>2026-04-26T09:55:29.984Z</time></trkpt><trkpt lat="44.2336098" lon="8.141738"><ele>692.0</ele><time>2026-04-26T09:55:30.984Z</time></trkpt><trkpt lat="44.2336564" lon="8.1415233"><ele>691.0</ele><time>2026-04-26T09:55:31.984Z</time></trkpt><trkpt lat="44.2336923" lon="8.1412804"><ele>689.6666666666667</ele><time>2026-04-26T09:55:32.985Z</time></trkpt><trkpt lat="44.2337352" lon="8.1410228"><ele>688.3333333333334</ele><time>2026-04-26T09:55:33.985Z</time></trkpt><trkpt lat="44.2337537" lon="8.1407561"><ele>687.0</ele><time>2026-04-26T09:55:34.985Z</time></trkpt><trkpt lat="44.2337711" lon="8.1404967"><ele>686.6666666666666</ele><time>2026-04-26T09:55:35.985Z</time></trkpt><trkpt lat="44.2337921" lon="8.1402389"><ele>686.3333333333333</ele><time>2026-04-26T09:55:36.984Z</time></trkpt><trkpt lat="44.233809" lon="8.1399706"><ele>686.0</ele><time>2026-04-26T09:55:37.984Z</time></trkpt><trkpt lat="44.2338265" lon="8.1397034"><ele>686.0</ele><time>2026-04-26T09:55:38.984Z</time></trkpt><trkpt lat="44.233839" lon="8.1394348"><ele>686.0</ele><time>2026-04-26T09:55:39.984Z</time></trkpt><trkpt lat="44.2338599" lon="8.1391612"><ele>686.0</ele><time>2026-04-26T09:55:40.984Z</time></trkpt><trkpt lat="44.2338733" lon="8.1388921"><ele>685.6666666666666</ele><time>2026-04-26T09:55:41.984Z</time></trkpt><trkpt lat="44.2338804" lon="8.1386182"><ele>685.3333333333334</ele><time>2026-04-26T09:55:42.984Z</time></trkpt><trkpt lat="44.2338982" lon="8.1383453"><ele>685.0</ele><time>2026-04-26T09:55:43.984Z</time></trkpt><trkpt lat="44.2339123" lon="8.1380678"><ele>684.3333333333334</ele><time>2026-04-26T09:55:44.984Z</time></trkpt><trkpt lat="44.2339288" lon="8.1377905"><ele>683.6666666666666</ele><time>2026-04-26T09:55:45.984Z</time></trkpt><trkpt lat="44.2339403" lon="8.1375136"><ele>683.0</ele><time>2026-04-26T09:55:46.984Z</time></trkpt><trkpt lat="44.2339523" lon="8.1372438"><ele>683.0</ele><time>2026-04-26T09:55:47.985Z</time></trkpt><trkpt lat="44.2339619" lon="8.1369771"><ele>683.0</ele><time>2026-04-26T09:55:48.984Z</time></trkpt><trkpt lat="44.2339787" lon="8.136716"><ele>683.0</ele><time>2026-04-26T09:55:49.984Z</time></trkpt><trkpt lat="44.2339966" lon="8.1364551"><ele>681.6666666666666</ele><time>2026-04-26T09:55:50.984Z</time></trkpt><trkpt lat="44.2340134" lon="8.1361967"><ele>680.3333333333334</ele><time>2026-04-26T09:55:51.984Z</time></trkpt><trkpt lat="44.234032" lon="8.1359356"><ele>679.0</ele><time>2026-04-26T09:55:52.985Z</time></trkpt><trkpt lat="44.2340475" lon="8.1356813"><ele>679.0</ele><time>2026-04-26T09:55:53.984Z</time></trkpt><trkpt lat="44.2340726" lon="8.1354351"><ele>679.0</ele><time>2026-04-26T09:55:54.985Z</time></trkpt><trkpt lat="44.2341011" lon="8.1351925"><ele>679.0</ele><time>2026-04-26T09:55:55.984Z</time></trkpt><trkpt lat="44.2341251" lon="8.1349506"><ele>678.0</ele><time>2026-04-26T09:55:56.984Z</time></trkpt><trkpt lat="44.2341387" lon="8.1347214"><ele>677.0</ele><time>2026-04-26T09:55:57.984Z</time></trkpt><trkpt lat="44.2341475" lon="8.1344969"><ele>676.0</ele><time>2026-04-26T09:55:58.984Z</time></trkpt><trkpt lat="44.2341652" lon="8.1342905"><ele>676.0</ele><time>2026-04-26T09:55:59.984Z</time></trkpt><trkpt lat="44.2341939" lon="8.1340906"><ele>676.0</ele><time>2026-04-26T09:56:00.984Z</time></trkpt><trkpt lat="44.2342368" lon="8.1339106"><ele>676.0</ele><time>2026-04-26T09:56:01.984Z</time></trkpt><trkpt lat="44.2342816" lon="8.1337351"><ele>676.0</ele><time>2026-04-26T09:56:02.984Z</time></trkpt><trkpt lat="44.2343251" lon="8.1335534"><ele>676.0</ele><time>2026-04-26T09:56:03.984Z</time></trkpt><trkpt lat="44.2343632" lon="8.1333671"><ele>676.0</ele><time>2026-04-26T09:56:04.984Z</time></trkpt><trkpt lat="44.2343895" lon="8.1331702"><ele>676.0</ele><time>2026-04-26T09:56:05.984Z</time></trkpt><trkpt lat="44.2344051" lon="8.132975"><ele>676.0</ele><time>2026-04-26T09:56:06.984Z</time></trkpt><trkpt lat="44.234426" lon="8.1327759"><ele>676.0</ele><time>2026-04-26T09:56:07.984Z</time></trkpt><trkpt lat="44.2344498" lon="8.1325804"><ele>676.0</ele><time>2026-04-26T09:56:08.984Z</time></trkpt><trkpt lat="44.2344811" lon="8.1323868"><ele>676.0</ele><time>2026-04-26T09:56:09.984Z</time></trkpt><trkpt lat="44.2345218" lon="8.1321943"><ele>676.0</ele><time>2026-04-26T09:56:10.984Z</time></trkpt><trkpt lat="44.2345625" lon="8.1319978"><ele>676.0</ele><time>2026-04-26T09:56:11.985Z</time></trkpt><trkpt lat="44.2346036" lon="8.1318047"><ele>676.0</ele><time>2026-04-26T09:56:12.984Z</time></trkpt><trkpt lat="44.234651" lon="8.1316228"><ele>676.0</ele><time>2026-04-26T09:56:13.985Z</time></trkpt><trkpt lat="44.2346972" lon="8.131446"><ele>676.0</ele><time>2026-04-26T09:56:14.984Z</time></trkpt><trkpt lat="44.2347389" lon="8.1312703"><ele>675.25</ele><time>2026-04-26T09:56:15.984Z</time></trkpt><trkpt lat="44.2347742" lon="8.1311107"><ele>674.5</ele><time>2026-04-26T09:56:16.984Z</time></trkpt><trkpt lat="44.2348198" lon="8.1309488"><ele>673.75</ele><time>2026-04-26T09:56:17.984Z</time></trkpt><trkpt lat="44.2348712" lon="8.1307812"><ele>673.0</ele><time>2026-04-26T09:56:18.984Z</time></trkpt><trkpt lat="44.2349282" lon="8.1306114"><ele>672.5</ele><time>2026-04-26T09:56:19.984Z</time></trkpt><trkpt lat="44.2349811" lon="8.1304505"><ele>672.0</ele><time>2026-04-26T09:56:20.984Z</time></trkpt><trkpt lat="44.2350189" lon="8.1303037"><ele>671.5</ele><time>2026-04-26T09:56:21.984Z</time></trkpt><trkpt lat="44.2350513" lon="8.1301564"><ele>671.0</ele><time>2026-04-26T09:56:22.984Z</time></trkpt><trkpt lat="44.2350675" lon="8.1299909"><ele>670.75</ele><time>2026-04-26T09:56:23.984Z</time></trkpt><trkpt lat="44.2350599" lon="8.1298135"><ele>670.5</ele><time>2026-04-26T09:56:24.984Z</time></trkpt><trkpt lat="44.2350366" lon="8.1296227"><ele>670.25</ele><time>2026-04-26T09:56:25.985Z</time></trkpt><trkpt lat="44.2350028" lon="8.1294184"><ele>670.0</ele><time>2026-04-26T09:56:26.984Z</time></trkpt><trkpt lat="44.2349622" lon="8.129209"><ele>670.0</ele><time>2026-04-26T09:56:27.984Z</time></trkpt><trkpt lat="44.2349236" lon="8.1289944"><ele>670.0</ele><time>2026-04-26T09:56:28.985Z</time></trkpt><trkpt lat="44.2348879" lon="8.1287745"><ele>670.0</ele><time>2026-04-26T09:56:29.984Z</time></trkpt><trkpt lat="44.234854" lon="8.1285482"><ele>670.0</ele><time>2026-04-26T09:56:30.984Z</time></trkpt><trkpt lat="44.2348153" lon="8.1283216"><ele>670.0</ele><time>2026-04-26T09:56:31.984Z</time></trkpt><trkpt lat="44.234779" lon="8.1280967"><ele>670.0</ele><time>2026-04-26T09:56:32.984Z</time></trkpt><trkpt lat="44.2347493" lon="8.1278678"><ele>670.3333333333334</ele><time>2026-04-26T09:56:33.984Z</time></trkpt><trkpt lat="44.2347244" lon="8.1276436"><ele>670.6666666666666</ele><time>2026-04-26T09:56:34.984Z</time></trkpt><trkpt lat="44.2346944" lon="8.1274312"><ele>671.0</ele><time>2026-04-26T09:56:35.984Z</time></trkpt><trkpt lat="44.2346531" lon="8.1272146"><ele>671.3333333333333</ele><time>2026-04-26T09:56:36.985Z</time></trkpt><trkpt lat="44.234623" lon="8.1270026"><ele>671.6666666666666</ele><time>2026-04-26T09:56:37.985Z</time></trkpt><trkpt lat="44.2345939" lon="8.1267987"><ele>672.0</ele><time>2026-04-26T09:56:38.984Z</time></trkpt><trkpt lat="44.2345629" lon="8.1265961"><ele>673.0</ele><time>2026-04-26T09:56:39.984Z</time></trkpt><trkpt lat="44.2345331" lon="8.1264054"><ele>674.0</ele><time>2026-04-26T09:56:40.984Z</time></trkpt><trkpt lat="44.2345041" lon="8.1262249"><ele>675.0</ele><time>2026-04-26T09:56:41.984Z</time></trkpt><trkpt lat="44.2344806" lon="8.1260435"><ele>676.0</ele><time>2026-04-26T09:56:42.984Z</time></trkpt><trkpt lat="44.2344656" lon="8.1258774"><ele>676.5</ele><time>2026-04-26T09:56:43.984Z</time></trkpt><trkpt lat="44.234473" lon="8.1257086"><ele>677.0</ele><time>2026-04-26T09:56:44.984Z</time></trkpt><trkpt lat="44.2345127" lon="8.1255416"><ele>677.5</ele><time>2026-04-26T09:56:45.984Z</time></trkpt><trkpt lat="44.2345867" lon="8.1253824"><ele>678.0</ele><time>2026-04-26T09:56:46.984Z</time></trkpt><trkpt lat="44.2346869" lon="8.1252439"><ele>678.0</ele><time>2026-04-26T09:56:47.984Z</time></trkpt><trkpt lat="44.234802" lon="8.125121"><ele>678.0</ele><time>2026-04-26T09:56:48.984Z</time></trkpt><trkpt lat="44.2349153" lon="8.1249998"><ele>678.0</ele><time>2026-04-26T09:56:49.984Z</time></trkpt><trkpt lat="44.2350207" lon="8.1248673"><ele>678.0</ele><time>2026-04-26T09:56:50.984Z</time></trkpt><trkpt lat="44.2351251" lon="8.1247353"><ele>676.75</ele><time>2026-04-26T09:56:51.984Z</time></trkpt><trkpt lat="44.2352191" lon="8.124606"><ele>675.5</ele><time>2026-04-26T09:56:52.984Z</time></trkpt><trkpt lat="44.2353091" lon="8.1244694"><ele>674.25</ele><time>2026-04-26T09:56:53.984Z</time></trkpt><trkpt lat="44.2353837" lon="8.1243124"><ele>673.0</ele><time>2026-04-26T09:56:54.984Z</time></trkpt><trkpt lat="44.2354661" lon="8.1241347"><ele>674.3333333333334</ele><time>2026-04-26T09:56:55.984Z</time></trkpt><trkpt lat="44.2355375" lon="8.1239325"><ele>675.6666666666666</ele><time>2026-04-26T09:56:56.984Z</time></trkpt><trkpt lat="44.2355842" lon="8.1237228"><ele>677.0</ele><time>2026-04-26T09:56:57.984Z</time></trkpt><trkpt lat="44.2356184" lon="8.1235125"><ele>672.3333333333333</ele><time>2026-04-26T09:56:58.984Z</time></trkpt><trkpt lat="44.2356485" lon="8.1232932"><ele>667.6666666666666</ele><time>2026-04-26T09:56:59.984Z</time></trkpt><trkpt lat="44.2356849" lon="8.1230624"><ele>663.0</ele><time>2026-04-26T09:57:00.984Z</time></trkpt><trkpt lat="44.2357259" lon="8.1228249"><ele>662.6666666666666</ele><time>2026-04-26T09:57:01.984Z</time></trkpt><trkpt lat="44.2357934" lon="8.1226042"><ele>662.3333333333333</ele><time>2026-04-26T09:57:02.984Z</time></trkpt><trkpt lat="44.2358425" lon="8.1223777"><ele>662.0</ele><time>2026-04-26T09:57:03.984Z</time></trkpt><trkpt lat="44.2358837" lon="8.1221488"><ele>662.0</ele><time>2026-04-26T09:57:04.984Z</time></trkpt><trkpt lat="44.2359203" lon="8.1219207"><ele>662.0</ele><time>2026-04-26T09:57:05.984Z</time></trkpt><trkpt lat="44.2359679" lon="8.1217099"><ele>662.0</ele><time>2026-04-26T09:57:06.984Z</time></trkpt><trkpt lat="44.2360149" lon="8.1215062"><ele>661.6666666666666</ele><time>2026-04-26T09:57:07.984Z</time></trkpt><trkpt lat="44.2360504" lon="8.1213003"><ele>661.3333333333334</ele><time>2026-04-26T09:57:08.984Z</time></trkpt><trkpt lat="44.2360765" lon="8.1210927"><ele>661.0</ele><time>2026-04-26T09:57:09.984Z</time></trkpt><trkpt lat="44.2360902" lon="8.1208811"><ele>658.6666666666667</ele><time>2026-04-26T09:57:10.985Z</time></trkpt><trkpt lat="44.2360866" lon="8.1206697"><ele>656.3333333333334</ele><time>2026-04-26T09:57:11.984Z</time></trkpt><trkpt lat="44.2360828" lon="8.1204377"><ele>654.0</ele><time>2026-04-26T09:57:12.984Z</time></trkpt><trkpt lat="44.2360861" lon="8.1202098"><ele>654.0</ele><time>2026-04-26T09:57:13.984Z</time></trkpt><trkpt lat="44.2361" lon="8.1199855"><ele>654.0</ele><time>2026-04-26T09:57:14.984Z</time></trkpt><trkpt lat="44.2361014" lon="8.1197514"><ele>654.0</ele><time>2026-04-26T09:57:15.984Z</time></trkpt><trkpt lat="44.2361031" lon="8.1195269"><ele>653.25</ele><time>2026-04-26T09:57:16.984Z</time></trkpt><trkpt lat="44.2361111" lon="8.119304"><ele>652.5</ele><time>2026-04-26T09:57:17.984Z</time></trkpt><trkpt lat="44.2361217" lon="8.1191005"><ele>651.75</ele><time>2026-04-26T09:57:18.984Z</time></trkpt><trkpt lat="44.2361343" lon="8.1189032"><ele>651.0</ele><time>2026-04-26T09:57:19.984Z</time></trkpt><trkpt lat="44.2361417" lon="8.1187098"><ele>651.0</ele><time>2026-04-26T09:57:20.984Z</time></trkpt><trkpt lat="44.2361515" lon="8.1185286"><ele>651.0</ele><time>2026-04-26T09:57:21.984Z</time></trkpt><trkpt lat="44.2361707" lon="8.1183598"><ele>651.0</ele><time>2026-04-26T09:57:22.984Z</time></trkpt><trkpt lat="44.2361941" lon="8.1182065"><ele>651.0</ele><time>2026-04-26T09:57:23.984Z</time></trkpt><trkpt lat="44.2362292" lon="8.1180688"><ele>650.4</ele><time>2026-04-26T09:57:24.984Z</time></trkpt><trkpt lat="44.2362741" lon="8.117937"><ele>649.8</ele><time>2026-04-26T09:57:25.984Z</time></trkpt><trkpt lat="44.2363298" lon="8.1178055"><ele>649.1999999999999</ele><time>2026-04-26T09:57:26.985Z</time></trkpt><trkpt lat="44.2363876" lon="8.1176716"><ele>648.5999999999999</ele><time>2026-04-26T09:57:27.984Z</time></trkpt><trkpt lat="44.2364401" lon="8.1175299"><ele>648.0</ele><time>2026-04-26T09:57:28.984Z</time></trkpt><trkpt lat="44.2364959" lon="8.1173954"><ele>647.6666666666666</ele><time>2026-04-26T09:57:29.984Z</time></trkpt><trkpt lat="44.2365554" lon="8.1172701"><ele>647.3333333333334</ele><time>2026-04-26T09:57:30.984Z</time></trkpt><trkpt lat="44.2366069" lon="8.1171582"><ele>647.0</ele><time>2026-04-26T09:57:31.984Z</time></trkpt><trkpt lat="44.2366532" lon="8.1170558"><ele>646.6666666666667</ele><time>2026-04-26T09:57:32.984Z</time></trkpt><trkpt lat="44.2366943" lon="8.116964"><ele>646.3333333333334</ele><time>2026-04-26T09:57:33.984Z</time></trkpt><trkpt lat="44.2367351" lon="8.1168802"><ele>646.0</ele><time>2026-04-26T09:57:34.984Z</time></trkpt><trkpt lat="44.2367864" lon="8.1167562"><ele>646.0</ele><time>2026-04-26T09:57:36.984Z</time></trkpt><trkpt lat="44.236861" lon="8.1166927"><ele>646.0</ele><time>2026-04-26T09:57:39.984Z</time></trkpt><trkpt lat="44.2369423" lon="8.1166403"><ele>646.0</ele><time>2026-04-26T09:57:41.984Z</time></trkpt><trkpt lat="44.2369786" lon="8.1165544"><ele>646.0</ele><time>2026-04-26T09:57:43.984Z</time></trkpt><trkpt lat="44.2369849" lon="8.1164415"><ele>646.0</ele><time>2026-04-26T10:11:22.981Z</time></trkpt><trkpt lat="44.236995" lon="8.1163376"><ele>646.0</ele><time>2026-04-26T10:11:29.981Z</time></trkpt><trkpt lat="44.2369964" lon="8.1162451"><ele>645.8</ele><time>2026-04-26T10:11:31.981Z</time></trkpt><trkpt lat="44.2370148" lon="8.1161304"><ele>645.5999999999999</ele><time>2026-04-26T10:11:53.981Z</time></trkpt><trkpt lat="44.2370505" lon="8.1160408"><ele>645.4</ele><time>2026-04-26T10:11:54.981Z</time></trkpt><trkpt lat="44.2371039" lon="8.1159452"><ele>645.2</ele><time>2026-04-26T10:11:55.981Z</time></trkpt><trkpt lat="44.2371754" lon="8.1158401"><ele>645.0</ele><time>2026-04-26T10:11:56.981Z</time></trkpt><trkpt lat="44.2372534" lon="8.1157326"><ele>644.25</ele><time>2026-04-26T10:11:57.981Z</time></trkpt><trkpt lat="44.2373437" lon="8.1156147"><ele>643.5</ele><time>2026-04-26T10:11:58.981Z</time></trkpt><trkpt lat="44.2374461" lon="8.1154861"><ele>642.75</ele><time>2026-04-26T10:11:59.981Z</time></trkpt><trkpt lat="44.2375526" lon="8.1153649"><ele>642.0</ele><time>2026-04-26T10:12:00.981Z</time></trkpt><trkpt lat="44.237657" lon="8.1152356"><ele>642.0</ele><time>2026-04-26T10:12:01.982Z</time></trkpt><trkpt lat="44.2377683" lon="8.1150963"><ele>642.0</ele><time>2026-04-26T10:12:02.981Z</time></trkpt><trkpt lat="44.2378791" lon="8.1149576"><ele>642.0</ele><time>2026-04-26T10:12:03.981Z</time></trkpt><trkpt lat="44.2379956" lon="8.114822"><ele>642.0</ele><time>2026-04-26T10:12:04.981Z</time></trkpt><trkpt lat="44.2381135" lon="8.114691"><ele>642.0</ele><time>2026-04-26T10:12:05.981Z</time></trkpt><trkpt lat="44.2382434" lon="8.114552"><ele>642.0</ele><time>2026-04-26T10:12:06.981Z</time></trkpt><trkpt lat="44.2383789" lon="8.1144102"><ele>641.6666666666666</ele><time>2026-04-26T10:12:07.981Z</time></trkpt><trkpt lat="44.2385101" lon="8.114283"><ele>641.3333333333333</ele><time>2026-04-26T10:12:08.981Z</time></trkpt><trkpt lat="44.2386542" lon="8.1141629"><ele>641.0</ele><time>2026-04-26T10:12:09.981Z</time></trkpt><trkpt lat="44.2388058" lon="8.1140414"><ele>641.6666666666666</ele><time>2026-04-26T10:12:10.982Z</time></trkpt><trkpt lat="44.2389719" lon="8.1139293"><ele>642.3333333333334</ele><time>2026-04-26T10:12:11.981Z</time></trkpt><trkpt lat="44.2391317" lon="8.113821"><ele>643.0</ele><time>2026-04-26T10:12:12.982Z</time></trkpt><trkpt lat="44.2392912" lon="8.1137219"><ele>643.0</ele><time>2026-04-26T10:12:13.981Z</time></trkpt><trkpt lat="44.2394571" lon="8.1136303"><ele>643.0</ele><time>2026-04-26T10:12:14.981Z</time></trkpt><trkpt lat="44.2396213" lon="8.1135455"><ele>643.0</ele><time>2026-04-26T10:12:15.981Z</time></trkpt><trkpt lat="44.2397941" lon="8.1134558"><ele>642.6666666666667</ele><time>2026-04-26T10:12:16.981Z</time></trkpt><trkpt lat="44.2399717" lon="8.1133841"><ele>642.3333333333334</ele><time>2026-04-26T10:12:17.981Z</time></trkpt><trkpt lat="44.240156" lon="8.1133242"><ele>642.0</ele><time>2026-04-26T10:12:18.982Z</time></trkpt><trkpt lat="44.2403456" lon="8.1132598"><ele>643.0</ele><time>2026-04-26T10:12:19.981Z</time></trkpt><trkpt lat="44.2405371" lon="8.1132018"><ele>644.0</ele><time>2026-04-26T10:12:20.981Z</time></trkpt><trkpt lat="44.2407136" lon="8.1131316"><ele>645.0</ele><time>2026-04-26T10:12:21.981Z</time></trkpt><trkpt lat="44.2408953" lon="8.1130753"><ele>645.0</ele><time>2026-04-26T10:12:22.981Z</time></trkpt><trkpt lat="44.2410726" lon="8.1130237"><ele>645.0</ele><time>2026-04-26T10:12:23.981Z</time></trkpt><trkpt lat="44.2412557" lon="8.1129704"><ele>645.0</ele><time>2026-04-26T10:12:24.981Z</time></trkpt><trkpt lat="44.2414388" lon="8.1129213"><ele>644.3333333333334</ele><time>2026-04-26T10:12:25.981Z</time></trkpt><trkpt lat="44.2416208" lon="8.112863"><ele>643.6666666666667</ele><time>2026-04-26T10:12:26.982Z</time></trkpt><trkpt lat="44.2418014" lon="8.1128135"><ele>643.0</ele><time>2026-04-26T10:12:27.982Z</time></trkpt><trkpt lat="44.2419796" lon="8.1127665"><ele>643.0</ele><time>2026-04-26T10:12:28.981Z</time></trkpt><trkpt lat="44.2421438" lon="8.112714"><ele>643.0</ele><time>2026-04-26T10:12:29.981Z</time></trkpt><trkpt lat="44.2423091" lon="8.1126704"><ele>643.0</ele><time>2026-04-26T10:12:30.981Z</time></trkpt><trkpt lat="44.2424703" lon="8.1126162"><ele>642.3333333333334</ele><time>2026-04-26T10:12:31.981Z</time></trkpt><trkpt lat="44.2426234" lon="8.1125676"><ele>641.6666666666666</ele><time>2026-04-26T10:12:32.981Z</time></trkpt><trkpt lat="44.2427737" lon="8.1125242"><ele>641.0</ele><time>2026-04-26T10:12:33.981Z</time></trkpt><trkpt lat="44.2429238" lon="8.1124965"><ele>641.0</ele><time>2026-04-26T10:12:34.981Z</time></trkpt><trkpt lat="44.2430815" lon="8.1124806"><ele>641.0</ele><time>2026-04-26T10:12:35.982Z</time></trkpt><trkpt lat="44.2432385" lon="8.1124831"><ele>641.0</ele><time>2026-04-26T10:12:36.981Z</time></trkpt><trkpt lat="44.243402" lon="8.1125061"><ele>641.0</ele><time>2026-04-26T10:12:37.981Z</time></trkpt><trkpt lat="44.2435615" lon="8.112551"><ele>641.0</ele><time>2026-04-26T10:12:38.981Z</time></trkpt><trkpt lat="44.2437304" lon="8.1126118"><ele>641.0</ele><time>2026-04-26T10:12:39.981Z</time></trkpt><trkpt lat="44.2439026" lon="8.1126731"><ele>640.3333333333333</ele><time>2026-04-26T10:12:40.981Z</time></trkpt><trkpt lat="44.2440764" lon="8.1127389"><ele>639.6666666666666</ele><time>2026-04-26T10:12:41.98Z</time></trkpt><trkpt lat="44.2442486" lon="8.1127978"><ele>639.0</ele><time>2026-04-26T10:12:42.98Z</time></trkpt><trkpt lat="44.2444264" lon="8.1128683"><ele>639.0</ele><time>2026-04-26T10:12:43.98Z</time></trkpt><trkpt lat="44.2446021" lon="8.1129315"><ele>639.0</ele><time>2026-04-26T10:12:44.98Z</time></trkpt><trkpt lat="44.2447833" lon="8.1129872"><ele>639.0</ele><time>2026-04-26T10:12:45.98Z</time></trkpt><trkpt lat="44.2449575" lon="8.1130415"><ele>638.6666666666666</ele><time>2026-04-26T10:12:46.98Z</time></trkpt><trkpt lat="44.2451265" lon="8.1130956"><ele>638.3333333333333</ele><time>2026-04-26T10:12:47.98Z</time></trkpt><trkpt lat="44.2452908" lon="8.113168"><ele>638.0</ele><time>2026-04-26T10:12:48.98Z</time></trkpt><trkpt lat="44.24545" lon="8.1132456"><ele>637.3333333333333</ele><time>2026-04-26T10:12:49.98Z</time></trkpt><trkpt lat="44.2456121" lon="8.1133418"><ele>636.6666666666666</ele><time>2026-04-26T10:12:50.98Z</time></trkpt><trkpt lat="44.2457693" lon="8.1134601"><ele>636.0</ele><time>2026-04-26T10:12:51.98Z</time></trkpt><trkpt lat="44.2459354" lon="8.1135938"><ele>636.0</ele><time>2026-04-26T10:12:52.98Z</time></trkpt><trkpt lat="44.2460857" lon="8.1137395"><ele>636.0</ele><time>2026-04-26T10:12:53.98Z</time></trkpt><trkpt lat="44.2462395" lon="8.1138893"><ele>636.0</ele><time>2026-04-26T10:12:54.98Z</time></trkpt><trkpt lat="44.2463872" lon="8.1140377"><ele>637.0</ele><time>2026-04-26T10:12:55.98Z</time></trkpt><trkpt lat="44.2465289" lon="8.114179"><ele>638.0</ele><time>2026-04-26T10:12:56.98Z</time></trkpt><trkpt lat="44.2466661" lon="8.1143154"><ele>639.0</ele><time>2026-04-26T10:12:57.98Z</time></trkpt><trkpt lat="44.246814" lon="8.1144245"><ele>639.0</ele><time>2026-04-26T10:12:58.98Z</time></trkpt><trkpt lat="44.2469522" lon="8.1145391"><ele>639.0</ele><time>2026-04-26T10:12:59.981Z</time></trkpt><trkpt lat="44.2470975" lon="8.1146596"><ele>639.0</ele><time>2026-04-26T10:13:00.98Z</time></trkpt><trkpt lat="44.2472466" lon="8.114786"><ele>642.6666666666666</ele><time>2026-04-26T10:13:01.98Z</time></trkpt><trkpt lat="44.2473851" lon="8.1149223"><ele>646.3333333333333</ele><time>2026-04-26T10:13:02.98Z</time></trkpt><trkpt lat="44.2475251" lon="8.1150599"><ele>650.0</ele><time>2026-04-26T10:13:03.98Z</time></trkpt><trkpt lat="44.2476741" lon="8.1151951"><ele>650.0</ele><time>2026-04-26T10:13:04.98Z</time></trkpt><trkpt lat="44.24782" lon="8.1153134"><ele>650.0</ele><time>2026-04-26T10:13:05.98Z</time></trkpt><trkpt lat="44.2479653" lon="8.1154232"><ele>650.0</ele><time>2026-04-26T10:13:06.98Z</time></trkpt><trkpt lat="44.2481148" lon="8.1155116"><ele>658.0</ele><time>2026-04-26T10:13:07.98Z</time></trkpt><trkpt lat="44.2482649" lon="8.1155888"><ele>666.0</ele><time>2026-04-26T10:13:08.98Z</time></trkpt><trkpt lat="44.2484242" lon="8.1156506"><ele>674.0</ele><time>2026-04-26T10:13:09.98Z</time></trkpt><trkpt lat="44.2486008" lon="8.1156978"><ele>674.0</ele><time>2026-04-26T10:13:10.98Z</time></trkpt><trkpt lat="44.2487875" lon="8.1157055"><ele>674.0</ele><time>2026-04-26T10:13:11.98Z</time></trkpt><trkpt lat="44.2489751" lon="8.1156869"><ele>674.0</ele><time>2026-04-26T10:13:12.98Z</time></trkpt><trkpt lat="44.2491612" lon="8.1156607"><ele>675.0</ele><time>2026-04-26T10:13:13.98Z</time></trkpt><trkpt lat="44.2493452" lon="8.1156256"><ele>676.0</ele><time>2026-04-26T10:13:14.98Z</time></trkpt><trkpt lat="44.2495232" lon="8.1156089"><ele>677.0</ele><time>2026-04-26T10:13:15.98Z</time></trkpt><trkpt lat="44.2497003" lon="8.1156077"><ele>676.3333333333333</ele><time>2026-04-26T10:13:16.98Z</time></trkpt><trkpt lat="44.2498694" lon="8.115609"><ele>675.6666666666666</ele><time>2026-04-26T10:13:17.98Z</time></trkpt><trkpt lat="44.2500379" lon="8.1156408"><ele>675.0</ele><time>2026-04-26T10:13:18.98Z</time></trkpt><trkpt lat="44.2502148" lon="8.1156808"><ele>667.3333333333334</ele><time>2026-04-26T10:13:19.98Z</time></trkpt><trkpt lat="44.2503933" lon="8.1157398"><ele>659.6666666666667</ele><time>2026-04-26T10:13:20.98Z</time></trkpt><trkpt lat="44.2505719" lon="8.115835"><ele>652.0</ele><time>2026-04-26T10:13:21.98Z</time></trkpt><trkpt lat="44.2507471" lon="8.1159589"><ele>652.0</ele><time>2026-04-26T10:13:22.98Z</time></trkpt><trkpt lat="44.2509109" lon="8.1161122"><ele>652.0</ele><time>2026-04-26T10:13:23.98Z</time></trkpt><trkpt lat="44.2510706" lon="8.1162745"><ele>652.0</ele><time>2026-04-26T10:13:24.98Z</time></trkpt><trkpt lat="44.2512304" lon="8.1164314"><ele>650.3333333333334</ele><time>2026-04-26T10:13:25.98Z</time></trkpt><trkpt lat="44.2513801" lon="8.1165817"><ele>648.6666666666666</ele><time>2026-04-26T10:13:26.98Z</time></trkpt><trkpt lat="44.2515298" lon="8.1167253"><ele>647.0</ele><time>2026-04-26T10:13:27.98Z</time></trkpt><trkpt lat="44.2516713" lon="8.1168503"><ele>647.0</ele><time>2026-04-26T10:13:28.98Z</time></trkpt><trkpt lat="44.2518186" lon="8.1169603"><ele>647.0</ele><time>2026-04-26T10:13:29.98Z</time></trkpt><trkpt lat="44.2519819" lon="8.117061"><ele>647.0</ele><time>2026-04-26T10:13:30.98Z</time></trkpt><trkpt lat="44.2521491" lon="8.1171596"><ele>653.0</ele><time>2026-04-26T10:13:31.98Z</time></trkpt><trkpt lat="44.252314" lon="8.1172668"><ele>659.0</ele><time>2026-04-26T10:13:32.981Z</time></trkpt><trkpt lat="44.2524694" lon="8.1173471"><ele>665.0</ele><time>2026-04-26T10:13:33.98Z</time></trkpt><trkpt lat="44.2526269" lon="8.1173764"><ele>665.0</ele><time>2026-04-26T10:13:34.98Z</time></trkpt><trkpt lat="44.2527727" lon="8.1173707"><ele>665.0</ele><time>2026-04-26T10:13:35.98Z</time></trkpt><trkpt lat="44.2529252" lon="8.1173515"><ele>665.0</ele><time>2026-04-26T10:13:36.98Z</time></trkpt><trkpt lat="44.2530786" lon="8.1173592"><ele>664.6666666666666</ele><time>2026-04-26T10:13:37.98Z</time></trkpt><trkpt lat="44.2532158" lon="8.1173639"><ele>664.3333333333334</ele><time>2026-04-26T10:13:38.98Z</time></trkpt><trkpt lat="44.2533778" lon="8.1174222"><ele>664.0</ele><time>2026-04-26T10:13:39.98Z</time></trkpt><trkpt lat="44.2535277" lon="8.1175401"><ele>656.6666666666667</ele><time>2026-04-26T10:13:40.98Z</time></trkpt><trkpt lat="44.253681" lon="8.1176795"><ele>649.3333333333334</ele><time>2026-04-26T10:13:41.98Z</time></trkpt><trkpt lat="44.2538234" lon="8.1177872"><ele>642.0</ele><time>2026-04-26T10:13:42.981Z</time></trkpt><trkpt lat="44.2539461" lon="8.117864"><ele>641.4</ele><time>2026-04-26T10:13:43.98Z</time></trkpt><trkpt lat="44.2540672" lon="8.117939"><ele>640.8000000000001</ele><time>2026-04-26T10:13:44.98Z</time></trkpt><trkpt lat="44.2541725" lon="8.1179916"><ele>640.2</ele><time>2026-04-26T10:13:45.98Z</time></trkpt><trkpt lat="44.2542637" lon="8.1180104"><ele>639.6</ele><time>2026-04-26T10:13:46.981Z</time></trkpt><trkpt lat="44.2543557" lon="8.117967"><ele>639.0</ele><time>2026-04-26T10:13:47.98Z</time></trkpt><trkpt lat="44.2544292" lon="8.117861"><ele>639.0</ele><time>2026-04-26T10:13:48.98Z</time></trkpt><trkpt lat="44.2544797" lon="8.1177221"><ele>639.0</ele><time>2026-04-26T10:13:49.98Z</time></trkpt><trkpt lat="44.2544995" lon="8.117569"><ele>639.0</ele><time>2026-04-26T10:13:50.98Z</time></trkpt><trkpt lat="44.2544862" lon="8.1174051"><ele>639.0</ele><time>2026-04-26T10:13:51.98Z</time></trkpt><trkpt lat="44.254436" lon="8.1172145"><ele>639.6666666666666</ele><time>2026-04-26T10:13:52.981Z</time></trkpt><trkpt lat="44.2543751" lon="8.1170035"><ele>640.3333333333333</ele><time>2026-04-26T10:13:53.98Z</time></trkpt><trkpt lat="44.2543099" lon="8.1167909"><ele>641.0</ele><time>2026-04-26T10:13:54.98Z</time></trkpt><trkpt lat="44.2542599" lon="8.1165812"><ele>643.0</ele><time>2026-04-26T10:13:55.98Z</time></trkpt><trkpt lat="44.2542343" lon="8.1163584"><ele>645.0</ele><time>2026-04-26T10:13:56.98Z</time></trkpt><trkpt lat="44.254246" lon="8.1161411"><ele>647.0</ele><time>2026-04-26T10:13:57.981Z</time></trkpt><trkpt lat="44.2542814" lon="8.1159468"><ele>647.0</ele><time>2026-04-26T10:13:58.98Z</time></trkpt><trkpt lat="44.2543506" lon="8.1157859"><ele>647.0</ele><time>2026-04-26T10:13:59.98Z</time></trkpt><trkpt lat="44.2544542" lon="8.1156524"><ele>647.0</ele><time>2026-04-26T10:14:00.98Z</time></trkpt><trkpt lat="44.2545954" lon="8.1155348"><ele>647.0</ele><time>2026-04-26T10:14:01.981Z</time></trkpt><trkpt lat="44.2547532" lon="8.1154259"><ele>640.6666666666666</ele><time>2026-04-26T10:14:02.98Z</time></trkpt><trkpt lat="44.2549022" lon="8.1153247"><ele>634.3333333333334</ele><time>2026-04-26T10:14:03.98Z</time></trkpt><trkpt lat="44.2550363" lon="8.1152331"><ele>628.0</ele><time>2026-04-26T10:14:04.98Z</time></trkpt><trkpt lat="44.2551646" lon="8.1151664"><ele>628.0</ele><time>2026-04-26T10:14:05.98Z</time></trkpt><trkpt lat="44.2552896" lon="8.1151392"><ele>628.0</ele><time>2026-04-26T10:14:06.98Z</time></trkpt><trkpt lat="44.2554105" lon="8.1151465"><ele>628.0</ele><time>2026-04-26T10:14:07.98Z</time></trkpt><trkpt lat="44.255532" lon="8.1151857"><ele>628.0</ele><time>2026-04-26T10:14:08.98Z</time></trkpt><trkpt lat="44.2556658" lon="8.1152378"><ele>627.75</ele><time>2026-04-26T10:14:09.98Z</time></trkpt><trkpt lat="44.2558072" lon="8.1153004"><ele>627.5</ele><time>2026-04-26T10:14:10.98Z</time></trkpt><trkpt lat="44.2559453" lon="8.1153589"><ele>627.25</ele><time>2026-04-26T10:14:11.98Z</time></trkpt><trkpt lat="44.2560776" lon="8.1154363"><ele>627.0</ele><time>2026-04-26T10:14:12.98Z</time></trkpt><trkpt lat="44.2562073" lon="8.1155434"><ele>627.0</ele><time>2026-04-26T10:14:13.98Z</time></trkpt><trkpt lat="44.2563369" lon="8.115714"><ele>627.0</ele><time>2026-04-26T10:14:14.98Z</time></trkpt><trkpt lat="44.2564467" lon="8.115878"><ele>627.0</ele><time>2026-04-26T10:14:15.981Z</time></trkpt><trkpt lat="44.2565539" lon="8.1160636"><ele>627.3333333333334</ele><time>2026-04-26T10:14:16.98Z</time></trkpt><trkpt lat="44.2566591" lon="8.1162951"><ele>627.6666666666667</ele><time>2026-04-26T10:14:17.98Z</time></trkpt><trkpt lat="44.2567572" lon="8.1165161"><ele>628.0</ele><time>2026-04-26T10:14:18.98Z</time></trkpt><trkpt lat="44.2568608" lon="8.1167505"><ele>632.3333333333334</ele><time>2026-04-26T10:14:19.98Z</time></trkpt><trkpt lat="44.2569672" lon="8.1169755"><ele>636.6666666666666</ele><time>2026-04-26T10:14:20.98Z</time></trkpt><trkpt lat="44.2570639" lon="8.1171948"><ele>641.0</ele><time>2026-04-26T10:14:21.98Z</time></trkpt><trkpt lat="44.2571619" lon="8.1173951"><ele>645.3333333333333</ele><time>2026-04-26T10:14:22.98Z</time></trkpt><trkpt lat="44.257251" lon="8.117589"><ele>649.6666666666666</ele><time>2026-04-26T10:14:23.98Z</time></trkpt><trkpt lat="44.257324" lon="8.1177748"><ele>654.0</ele><time>2026-04-26T10:14:24.98Z</time></trkpt><trkpt lat="44.2573768" lon="8.1179749"><ele>646.3333333333334</ele><time>2026-04-26T10:14:25.98Z</time></trkpt><trkpt lat="44.2574153" lon="8.1181895"><ele>638.6666666666667</ele><time>2026-04-26T10:14:26.98Z</time></trkpt><trkpt lat="44.2574367" lon="8.1184241"><ele>631.0</ele><time>2026-04-26T10:14:27.98Z</time></trkpt><trkpt lat="44.2574666" lon="8.1186615"><ele>631.0</ele><time>2026-04-26T10:14:28.98Z</time></trkpt><trkpt lat="44.2575194" lon="8.1188961"><ele>631.0</ele><time>2026-04-26T10:14:29.98Z</time></trkpt><trkpt lat="44.2575963" lon="8.1191277"><ele>631.0</ele><time>2026-04-26T10:14:30.98Z</time></trkpt><trkpt lat="44.2576791" lon="8.1193418"><ele>630.75</ele><time>2026-04-26T10:14:31.98Z</time></trkpt><trkpt lat="44.2577515" lon="8.1195437"><ele>630.5</ele><time>2026-04-26T10:14:32.981Z</time></trkpt><trkpt lat="44.2578167" lon="8.1197256"><ele>630.25</ele><time>2026-04-26T10:14:33.98Z</time></trkpt><trkpt lat="44.2578791" lon="8.1198901"><ele>630.0</ele><time>2026-04-26T10:14:34.98Z</time></trkpt><trkpt lat="44.2579432" lon="8.1200287"><ele>629.75</ele><time>2026-04-26T10:14:35.98Z</time></trkpt><trkpt lat="44.2580186" lon="8.1201371"><ele>629.5</ele><time>2026-04-26T10:14:36.98Z</time></trkpt><trkpt lat="44.258116" lon="8.1202022"><ele>629.25</ele><time>2026-04-26T10:14:37.98Z</time></trkpt><trkpt lat="44.2582284" lon="8.1202249"><ele>629.0</ele><time>2026-04-26T10:14:38.98Z</time></trkpt><trkpt lat="44.2583502" lon="8.1202169"><ele>627.0</ele><time>2026-04-26T10:14:39.98Z</time></trkpt><trkpt lat="44.2584869" lon="8.1201758"><ele>625.0</ele><time>2026-04-26T10:14:40.98Z</time></trkpt><trkpt lat="44.2586279" lon="8.1201318"><ele>623.0</ele><time>2026-04-26T10:14:41.98Z</time></trkpt><trkpt lat="44.2587531" lon="8.1200984"><ele>621.0</ele><time>2026-04-26T10:14:42.98Z</time></trkpt><trkpt lat="44.2588647" lon="8.1200767"><ele>623.0</ele><time>2026-04-26T10:14:43.98Z</time></trkpt><trkpt lat="44.2589649" lon="8.1200766"><ele>625.0</ele><time>2026-04-26T10:14:44.98Z</time></trkpt><trkpt lat="44.2590463" lon="8.1201125"><ele>627.0</ele><time>2026-04-26T10:14:45.981Z</time></trkpt><trkpt lat="44.2591203" lon="8.1201831"><ele>629.0</ele><time>2026-04-26T10:14:46.98Z</time></trkpt><trkpt lat="44.2592055" lon="8.1202772"><ele>631.0</ele><time>2026-04-26T10:14:47.98Z</time></trkpt><trkpt lat="44.2592949" lon="8.1203435"><ele>631.0</ele><time>2026-04-26T10:14:48.98Z</time></trkpt><trkpt lat="44.2593914" lon="8.1203956"><ele>631.0</ele><time>2026-04-26T10:14:49.98Z</time></trkpt><trkpt lat="44.2594939" lon="8.1204288"><ele>631.0</ele><time>2026-04-26T10:14:50.98Z</time></trkpt><trkpt lat="44.2596023" lon="8.1204233"><ele>631.0</ele><time>2026-04-26T10:14:51.98Z</time></trkpt><trkpt lat="44.2597223" lon="8.1203831"><ele>631.0</ele><time>2026-04-26T10:14:52.98Z</time></trkpt><trkpt lat="44.2598444" lon="8.1203018"><ele>631.0</ele><time>2026-04-26T10:14:53.98Z</time></trkpt><trkpt lat="44.2599872" lon="8.1201761"><ele>631.0</ele><time>2026-04-26T10:14:54.981Z</time></trkpt><trkpt lat="44.2601125" lon="8.1200707"><ele>631.0</ele><time>2026-04-26T10:14:55.98Z</time></trkpt><trkpt lat="44.2602517" lon="8.1199721"><ele>632.6666666666667</ele><time>2026-04-26T10:14:56.98Z</time></trkpt><trkpt lat="44.2603883" lon="8.1198604"><ele>634.3333333333334</ele><time>2026-04-26T10:14:57.98Z</time></trkpt><trkpt lat="44.2605349" lon="8.1197426"><ele>636.0</ele><time>2026-04-26T10:14:58.98Z</time></trkpt><trkpt lat="44.2606812" lon="8.1196363"><ele>636.0</ele><time>2026-04-26T10:14:59.98Z</time></trkpt><trkpt lat="44.2608367" lon="8.1195392"><ele>636.0</ele><time>2026-04-26T10:15:00.98Z</time></trkpt><trkpt lat="44.2610028" lon="8.1194475"><ele>636.0</ele><time>2026-04-26T10:15:01.98Z</time></trkpt><trkpt lat="44.2611845" lon="8.1194045"><ele>636.0</ele><time>2026-04-26T10:15:02.98Z</time></trkpt><trkpt lat="44.26136" lon="8.1193757"><ele>636.0</ele><time>2026-04-26T10:15:03.98Z</time></trkpt><trkpt lat="44.2615338" lon="8.1193654"><ele>636.0</ele><time>2026-04-26T10:15:04.98Z</time></trkpt><trkpt lat="44.2617021" lon="8.119372"><ele>636.25</ele><time>2026-04-26T10:15:05.98Z</time></trkpt><trkpt lat="44.2618513" lon="8.1193871"><ele>636.5</ele><time>2026-04-26T10:15:06.98Z</time></trkpt><trkpt lat="44.2619921" lon="8.1193447"><ele>636.75</ele><time>2026-04-26T10:15:07.98Z</time></trkpt><trkpt lat="44.2621276" lon="8.1192641"><ele>637.0</ele><time>2026-04-26T10:15:08.98Z</time></trkpt><trkpt lat="44.2622542" lon="8.1191714"><ele>638.0</ele><time>2026-04-26T10:15:09.98Z</time></trkpt><trkpt lat="44.2623738" lon="8.1190844"><ele>639.0</ele><time>2026-04-26T10:15:10.98Z</time></trkpt><trkpt lat="44.2624902" lon="8.119015"><ele>640.0</ele><time>2026-04-26T10:15:11.98Z</time></trkpt><trkpt lat="44.2626033" lon="8.1189671"><ele>641.0</ele><time>2026-04-26T10:15:12.98Z</time></trkpt><trkpt lat="44.2627193" lon="8.1189354"><ele>641.0</ele><time>2026-04-26T10:15:13.98Z</time></trkpt><trkpt lat="44.262848" lon="8.1189211"><ele>641.0</ele><time>2026-04-26T10:15:14.981Z</time></trkpt><trkpt lat="44.2629718" lon="8.1188915"><ele>641.0</ele><time>2026-04-26T10:15:15.98Z</time></trkpt><trkpt lat="44.2630903" lon="8.118856"><ele>641.0</ele><time>2026-04-26T10:15:16.98Z</time></trkpt><trkpt lat="44.2632112" lon="8.1188169"><ele>638.75</ele><time>2026-04-26T10:15:17.98Z</time></trkpt><trkpt lat="44.2633356" lon="8.1187858"><ele>636.5</ele><time>2026-04-26T10:15:18.98Z</time></trkpt><trkpt lat="44.263469" lon="8.1187252"><ele>634.25</ele><time>2026-04-26T10:15:19.98Z</time></trkpt><trkpt lat="44.2636023" lon="8.1186585"><ele>632.0</ele><time>2026-04-26T10:15:20.98Z</time></trkpt><trkpt lat="44.263737" lon="8.1186017"><ele>632.0</ele><time>2026-04-26T10:15:21.981Z</time></trkpt><trkpt lat="44.2638699" lon="8.1185236"><ele>632.0</ele><time>2026-04-26T10:15:22.98Z</time></trkpt><trkpt lat="44.264003" lon="8.1184472"><ele>632.0</ele><time>2026-04-26T10:15:23.98Z</time></trkpt><trkpt lat="44.2641385" lon="8.118367"><ele>632.0</ele><time>2026-04-26T10:15:24.98Z</time></trkpt><trkpt lat="44.2642805" lon="8.1182997"><ele>636.0</ele><time>2026-04-26T10:15:25.981Z</time></trkpt><trkpt lat="44.2644266" lon="8.1182244"><ele>640.0</ele><time>2026-04-26T10:15:26.98Z</time></trkpt><trkpt lat="44.2645664" lon="8.118116"><ele>644.0</ele><time>2026-04-26T10:15:27.981Z</time></trkpt><trkpt lat="44.264705" lon="8.1180344"><ele>641.0</ele><time>2026-04-26T10:15:28.98Z</time></trkpt><trkpt lat="44.2648522" lon="8.1179737"><ele>638.0</ele><time>2026-04-26T10:15:29.98Z</time></trkpt><trkpt lat="44.265009" lon="8.1179232"><ele>635.0</ele><time>2026-04-26T10:15:30.981Z</time></trkpt><trkpt lat="44.2651621" lon="8.1178872"><ele>635.0</ele><time>2026-04-26T10:15:31.98Z</time></trkpt><trkpt lat="44.2653157" lon="8.1178623"><ele>635.0</ele><time>2026-04-26T10:15:32.98Z</time></trkpt><trkpt lat="44.2654693" lon="8.1178592"><ele>635.0</ele><time>2026-04-26T10:15:33.98Z</time></trkpt><trkpt lat="44.2656239" lon="8.1178675"><ele>634.0</ele><time>2026-04-26T10:15:34.98Z</time></trkpt><trkpt lat="44.2657648" lon="8.1178742"><ele>633.0</ele><time>2026-04-26T10:15:35.98Z</time></trkpt><trkpt lat="44.2658793" lon="8.1178522"><ele>632.0</ele><time>2026-04-26T10:15:36.98Z</time></trkpt><trkpt lat="44.2659928" lon="8.1178329"><ele>631.0</ele><time>2026-04-26T10:15:37.98Z</time></trkpt><trkpt lat="44.2661095" lon="8.117799"><ele>631.0</ele><time>2026-04-26T10:15:38.98Z</time></trkpt><trkpt lat="44.2662264" lon="8.117733"><ele>631.0</ele><time>2026-04-26T10:15:39.98Z</time></trkpt><trkpt lat="44.2663405" lon="8.1176499"><ele>631.0</ele><time>2026-04-26T10:15:40.98Z</time></trkpt><trkpt lat="44.2664302" lon="8.117526"><ele>631.0</ele><time>2026-04-26T10:15:41.981Z</time></trkpt><trkpt lat="44.2664921" lon="8.1173552"><ele>628.5</ele><time>2026-04-26T10:15:42.98Z</time></trkpt><trkpt lat="44.2665444" lon="8.1171627"><ele>626.0</ele><time>2026-04-26T10:15:43.98Z</time></trkpt><trkpt lat="44.2666072" lon="8.1169749"><ele>623.5</ele><time>2026-04-26T10:15:44.98Z</time></trkpt><trkpt lat="44.2666715" lon="8.1167847"><ele>621.0</ele><time>2026-04-26T10:15:45.98Z</time></trkpt><trkpt lat="44.266741" lon="8.1165966"><ele>622.0</ele><time>2026-04-26T10:15:46.98Z</time></trkpt><trkpt lat="44.2668095" lon="8.11639"><ele>623.0</ele><time>2026-04-26T10:15:47.98Z</time></trkpt><trkpt lat="44.2668844" lon="8.1161739"><ele>624.0</ele><time>2026-04-26T10:15:48.98Z</time></trkpt><trkpt lat="44.2669625" lon="8.1159546"><ele>624.0</ele><time>2026-04-26T10:15:49.98Z</time></trkpt><trkpt lat="44.2670327" lon="8.1157384"><ele>624.0</ele><time>2026-04-26T10:15:50.98Z</time></trkpt><trkpt lat="44.2671055" lon="8.1155246"><ele>624.0</ele><time>2026-04-26T10:15:51.98Z</time></trkpt><trkpt lat="44.2671744" lon="8.1153084"><ele>623.3333333333334</ele><time>2026-04-26T10:15:52.98Z</time></trkpt><trkpt lat="44.2672489" lon="8.1150822"><ele>622.6666666666667</ele><time>2026-04-26T10:15:53.98Z</time></trkpt><trkpt lat="44.2673265" lon="8.1148554"><ele>622.0</ele><time>2026-04-26T10:15:54.98Z</time></trkpt><trkpt lat="44.2674004" lon="8.1146236"><ele>623.6666666666667</ele><time>2026-04-26T10:15:55.98Z</time></trkpt><trkpt lat="44.2674709" lon="8.1143789"><ele>625.3333333333334</ele><time>2026-04-26T10:15:56.979Z</time></trkpt><trkpt lat="44.2675313" lon="8.1141432"><ele>627.0</ele><time>2026-04-26T10:15:57.979Z</time></trkpt><trkpt lat="44.2675997" lon="8.1139057"><ele>627.3333333333334</ele><time>2026-04-26T10:15:58.979Z</time></trkpt><trkpt lat="44.2676587" lon="8.1136688"><ele>627.6666666666667</ele><time>2026-04-26T10:15:59.979Z</time></trkpt><trkpt lat="44.2677227" lon="8.1134407"><ele>628.0</ele><time>2026-04-26T10:16:00.979Z</time></trkpt><trkpt lat="44.267771" lon="8.1132327"><ele>629.0</ele><time>2026-04-26T10:16:01.979Z</time></trkpt><trkpt lat="44.2678031" lon="8.1130303"><ele>630.0</ele><time>2026-04-26T10:16:02.979Z</time></trkpt><trkpt lat="44.2678266" lon="8.1128357"><ele>631.0</ele><time>2026-04-26T10:16:03.979Z</time></trkpt><trkpt lat="44.267848" lon="8.1126429"><ele>632.0</ele><time>2026-04-26T10:16:04.979Z</time></trkpt><trkpt lat="44.2678682" lon="8.1124719"><ele>633.5</ele><time>2026-04-26T10:16:05.979Z</time></trkpt><trkpt lat="44.2678938" lon="8.112311"><ele>635.0</ele><time>2026-04-26T10:16:06.979Z</time></trkpt><trkpt lat="44.2678936" lon="8.1121428"><ele>636.5</ele><time>2026-04-26T10:16:07.979Z</time></trkpt><trkpt lat="44.2678677" lon="8.1119786"><ele>638.0</ele><time>2026-04-26T10:16:08.98Z</time></trkpt><trkpt lat="44.2678193" lon="8.111805"><ele>638.0</ele><time>2026-04-26T10:16:09.979Z</time></trkpt><trkpt lat="44.2677684" lon="8.111603"><ele>638.0</ele><time>2026-04-26T10:16:10.979Z</time></trkpt><trkpt lat="44.2677041" lon="8.1114176"><ele>638.0</ele><time>2026-04-26T10:16:11.98Z</time></trkpt><trkpt lat="44.2676361" lon="8.1112262"><ele>639.0</ele><time>2026-04-26T10:16:12.979Z</time></trkpt><trkpt lat="44.267571" lon="8.1110444"><ele>640.0</ele><time>2026-04-26T10:16:13.979Z</time></trkpt><trkpt lat="44.2675129" lon="8.1108813"><ele>641.0</ele><time>2026-04-26T10:16:14.979Z</time></trkpt><trkpt lat="44.2674704" lon="8.1107254"><ele>642.0</ele><time>2026-04-26T10:16:15.979Z</time></trkpt><trkpt lat="44.267437" lon="8.1105865"><ele>643.0</ele><time>2026-04-26T10:16:16.979Z</time></trkpt><trkpt lat="44.2674184" lon="8.1104757"><ele>644.0</ele><time>2026-04-26T10:16:17.98Z</time></trkpt><trkpt lat="44.2674388" lon="8.1103419"><ele>645.0</ele><time>2026-04-26T10:16:19.979Z</time></trkpt><trkpt lat="44.2675027" lon="8.1103403"><ele>646.0</ele><time>2026-04-26T10:16:21.979Z</time></trkpt><trkpt lat="44.2675573" lon="8.1104208"><ele>647.0</ele><time>2026-04-26T10:16:22.98Z</time></trkpt><trkpt lat="44.2676224" lon="8.1105417"><ele>648.0</ele><time>2026-04-26T10:16:23.979Z</time></trkpt><trkpt lat="44.2677072" lon="8.1106988"><ele>646.0</ele><time>2026-04-26T10:16:24.979Z</time></trkpt><trkpt lat="44.2677906" lon="8.1108686"><ele>644.0</ele><time>2026-04-26T10:16:25.979Z</time></trkpt><trkpt lat="44.2678835" lon="8.1110423"><ele>642.0</ele><time>2026-04-26T10:16:26.979Z</time></trkpt><trkpt lat="44.2679802" lon="8.1112236"><ele>642.0</ele><time>2026-04-26T10:16:27.98Z</time></trkpt><trkpt lat="44.2680582" lon="8.1114087"><ele>642.0</ele><time>2026-04-26T10:16:28.98Z</time></trkpt><trkpt lat="44.2681326" lon="8.1115587"><ele>642.0</ele><time>2026-04-26T10:16:29.98Z</time></trkpt><trkpt lat="44.2682091" lon="8.1116714"><ele>642.0</ele><time>2026-04-26T10:16:30.979Z</time></trkpt><trkpt lat="44.2682801" lon="8.1117767"><ele>645.8</ele><time>2026-04-26T10:16:31.979Z</time></trkpt><trkpt lat="44.2683213" lon="8.1118881"><ele>649.6</ele><time>2026-04-26T10:16:32.979Z</time></trkpt><trkpt lat="44.2683465" lon="8.1120213"><ele>653.4</ele><time>2026-04-26T10:16:33.979Z</time></trkpt><trkpt lat="44.2683475" lon="8.1121569"><ele>657.1999999999999</ele><time>2026-04-26T10:16:34.979Z</time></trkpt><trkpt lat="44.2683438" lon="8.1122958"><ele>661.0</ele><time>2026-04-26T10:16:35.979Z</time></trkpt><trkpt lat="44.2683645" lon="8.1124476"><ele>661.0</ele><time>2026-04-26T10:16:36.979Z</time></trkpt><trkpt lat="44.2684039" lon="8.1126222"><ele>661.0</ele><time>2026-04-26T10:16:37.979Z</time></trkpt><trkpt lat="44.2684587" lon="8.1128049"><ele>661.0</ele><time>2026-04-26T10:16:38.979Z</time></trkpt><trkpt lat="44.2685372" lon="8.1129789"><ele>661.0</ele><time>2026-04-26T10:16:39.979Z</time></trkpt><trkpt lat="44.2686236" lon="8.1131539"><ele>658.6666666666667</ele><time>2026-04-26T10:16:40.979Z</time></trkpt><trkpt lat="44.2687173" lon="8.1133369"><ele>656.3333333333334</ele><time>2026-04-26T10:16:41.979Z</time></trkpt><trkpt lat="44.2688175" lon="8.1135194"><ele>654.0</ele><time>2026-04-26T10:16:42.979Z</time></trkpt><trkpt lat="44.2689187" lon="8.1137165"><ele>659.3333333333334</ele><time>2026-04-26T10:16:43.979Z</time></trkpt><trkpt lat="44.269017" lon="8.1139098"><ele>664.6666666666667</ele><time>2026-04-26T10:16:44.979Z</time></trkpt><trkpt lat="44.2691117" lon="8.1140888"><ele>670.0</ele><time>2026-04-26T10:16:45.979Z</time></trkpt><trkpt lat="44.2692045" lon="8.1142885"><ele>670.0</ele><time>2026-04-26T10:16:46.979Z</time></trkpt><trkpt lat="44.2692875" lon="8.1144637"><ele>670.0</ele><time>2026-04-26T10:16:47.979Z</time></trkpt><trkpt lat="44.2693763" lon="8.11462"><ele>670.0</ele><time>2026-04-26T10:16:48.979Z</time></trkpt><trkpt lat="44.2694724" lon="8.1147568"><ele>670.0</ele><time>2026-04-26T10:16:49.979Z</time></trkpt><trkpt lat="44.2695809" lon="8.1148812"><ele>668.4</ele><time>2026-04-26T10:16:50.979Z</time></trkpt><trkpt lat="44.2696914" lon="8.1149846"><ele>666.8</ele><time>2026-04-26T10:16:51.979Z</time></trkpt><trkpt lat="44.2697835" lon="8.1150784"><ele>665.2</ele><time>2026-04-26T10:16:52.98Z</time></trkpt><trkpt lat="44.2698557" lon="8.1151572"><ele>663.6</ele><time>2026-04-26T10:16:53.979Z</time></trkpt><trkpt lat="44.2699196" lon="8.1152099"><ele>662.0</ele><time>2026-04-26T10:16:54.979Z</time></trkpt><trkpt lat="44.2700294" lon="8.1152158"><ele>665.6</ele><time>2026-04-26T10:16:56.979Z</time></trkpt><trkpt lat="44.2700729" lon="8.1150942"><ele>669.2</ele><time>2026-04-26T10:16:58.979Z</time></trkpt><trkpt lat="44.270045" lon="8.1149752"><ele>672.8</ele><time>2026-04-26T10:16:59.979Z</time></trkpt><trkpt lat="44.2699839" lon="8.1148319"><ele>676.4</ele><time>2026-04-26T10:17:00.979Z</time></trkpt><trkpt lat="44.2698947" lon="8.1146834"><ele>680.0</ele><time>2026-04-26T10:17:01.979Z</time></trkpt><trkpt lat="44.2698018" lon="8.1145307"><ele>680.0</ele><time>2026-04-26T10:17:02.979Z</time></trkpt><trkpt lat="44.2697564" lon="8.1143773"><ele>680.0</ele><time>2026-04-26T10:17:03.979Z</time></trkpt><trkpt lat="44.269743" lon="8.1142116"><ele>680.0</ele><time>2026-04-26T10:17:04.98Z</time></trkpt><trkpt lat="44.2697575" lon="8.114031"><ele>680.0</ele><time>2026-04-26T10:17:05.979Z</time></trkpt><trkpt lat="44.2697789" lon="8.113841"><ele>685.5</ele><time>2026-04-26T10:17:06.979Z</time></trkpt><trkpt lat="44.2698101" lon="8.1136561"><ele>691.0</ele><time>2026-04-26T10:17:07.979Z</time></trkpt><trkpt lat="44.2698206" lon="8.1134765"><ele>696.5</ele><time>2026-04-26T10:17:08.979Z</time></trkpt><trkpt lat="44.2698202" lon="8.1133188"><ele>702.0</ele><time>2026-04-26T10:17:09.979Z</time></trkpt><trkpt lat="44.2697957" lon="8.1131908"><ele>700.5</ele><time>2026-04-26T10:17:10.979Z</time></trkpt><trkpt lat="44.269729" lon="8.1130809"><ele>699.0</ele><time>2026-04-26T10:17:11.98Z</time></trkpt><trkpt lat="44.2696401" lon="8.1129781"><ele>697.5</ele><time>2026-04-26T10:17:12.98Z</time></trkpt><trkpt lat="44.2695454" lon="8.1128697"><ele>696.0</ele><time>2026-04-26T10:17:13.979Z</time></trkpt><trkpt lat="44.2694396" lon="8.112772"><ele>696.0</ele><time>2026-04-26T10:17:14.979Z</time></trkpt><trkpt lat="44.2693212" lon="8.1126697"><ele>696.0</ele><time>2026-04-26T10:17:15.979Z</time></trkpt><trkpt lat="44.2692044" lon="8.1125716"><ele>696.0</ele><time>2026-04-26T10:17:16.979Z</time></trkpt><trkpt lat="44.2690976" lon="8.1124923"><ele>696.0</ele><time>2026-04-26T10:17:17.979Z</time></trkpt><trkpt lat="44.2690115" lon="8.1124166"><ele>698.8</ele><time>2026-04-26T10:17:18.979Z</time></trkpt><trkpt lat="44.268954" lon="8.1123289"><ele>701.5999999999999</ele><time>2026-04-26T10:17:19.979Z</time></trkpt><trkpt lat="44.2689195" lon="8.1122243"><ele>704.4</ele><time>2026-04-26T10:17:20.979Z</time></trkpt><trkpt lat="44.2689063" lon="8.112105"><ele>707.2</ele><time>2026-04-26T10:17:21.979Z</time></trkpt><trkpt lat="44.2689076" lon="8.1119756"><ele>710.0</ele><time>2026-04-26T10:17:22.979Z</time></trkpt><trkpt lat="44.2689297" lon="8.1118068"><ele>710.0</ele><time>2026-04-26T10:17:23.979Z</time></trkpt><trkpt lat="44.2689468" lon="8.1116256"><ele>710.0</ele><time>2026-04-26T10:17:24.979Z</time></trkpt><trkpt lat="44.2689321" lon="8.1114635"><ele>710.0</ele><time>2026-04-26T10:17:25.979Z</time></trkpt><trkpt lat="44.268893" lon="8.1113229"><ele>710.0</ele><time>2026-04-26T10:17:26.98Z</time></trkpt><trkpt lat="44.2688538" lon="8.111179"><ele>713.4</ele><time>2026-04-26T10:17:27.979Z</time></trkpt><trkpt lat="44.2688446" lon="8.1110062"><ele>716.8</ele><time>2026-04-26T10:17:28.979Z</time></trkpt><trkpt lat="44.2688549" lon="8.110833"><ele>720.2</ele><time>2026-04-26T10:17:29.979Z</time></trkpt><trkpt lat="44.2688671" lon="8.1106862"><ele>723.6</ele><time>2026-04-26T10:17:30.98Z</time></trkpt><trkpt lat="44.2688943" lon="8.1105892"><ele>727.0</ele><time>2026-04-26T10:17:31.979Z</time></trkpt><trkpt lat="44.2689609" lon="8.1104963"><ele>727.0</ele><time>2026-04-26T10:17:33.979Z</time></trkpt><trkpt lat="44.2689861" lon="8.1106275"><ele>727.0</ele><time>2026-04-26T10:17:36.979Z</time></trkpt><trkpt lat="44.2689701" lon="8.1107577"><ele>727.0</ele><time>2026-04-26T10:17:37.979Z</time></trkpt><trkpt lat="44.2689669" lon="8.1109213"><ele>727.0</ele><time>2026-04-26T10:17:38.979Z</time></trkpt><trkpt lat="44.2689849" lon="8.1111026"><ele>727.0</ele><time>2026-04-26T10:17:39.979Z</time></trkpt><trkpt lat="44.2690324" lon="8.1112601"><ele>724.5</ele><time>2026-04-26T10:17:40.979Z</time></trkpt><trkpt lat="44.2691047" lon="8.111415"><ele>722.0</ele><time>2026-04-26T10:17:41.979Z</time></trkpt><trkpt lat="44.2691632" lon="8.1115695"><ele>719.5</ele><time>2026-04-26T10:17:42.98Z</time></trkpt><trkpt lat="44.2691947" lon="8.1117433"><ele>717.0</ele><time>2026-04-26T10:17:43.979Z</time></trkpt><trkpt lat="44.2692111" lon="8.111898"><ele>715.8333333333334</ele><time>2026-04-26T10:17:44.979Z</time></trkpt><trkpt lat="44.2692189" lon="8.1120312"><ele>714.6666666666666</ele><time>2026-04-26T10:17:45.979Z</time></trkpt><trkpt lat="44.2692432" lon="8.1121505"><ele>713.5</ele><time>2026-04-26T10:17:46.979Z</time></trkpt><trkpt lat="44.269273" lon="8.1122533"><ele>712.3333333333333</ele><time>2026-04-26T10:17:47.979Z</time></trkpt><trkpt lat="44.2693184" lon="8.1123399"><ele>711.1666666666666</ele><time>2026-04-26T10:17:48.98Z</time></trkpt><trkpt lat="44.2693853" lon="8.1124104"><ele>710.0</ele><time>2026-04-26T10:17:49.979Z</time></trkpt><trkpt lat="44.2694735" lon="8.1124685"><ele>712.2</ele><time>2026-04-26T10:17:50.979Z</time></trkpt><trkpt lat="44.2695784" lon="8.112514"><ele>714.4</ele><time>2026-04-26T10:17:51.979Z</time></trkpt><trkpt lat="44.2696843" lon="8.1125543"><ele>716.5999999999999</ele><time>2026-04-26T10:17:52.979Z</time></trkpt><trkpt lat="44.2697785" lon="8.11257"><ele>718.8</ele><time>2026-04-26T10:17:53.979Z</time></trkpt><trkpt lat="44.2698846" lon="8.1126117"><ele>721.0</ele><time>2026-04-26T10:17:54.979Z</time></trkpt><trkpt lat="44.2699847" lon="8.1125961"><ele>721.0</ele><time>2026-04-26T10:17:55.979Z</time></trkpt><trkpt lat="44.2700897" lon="8.1125347"><ele>721.0</ele><time>2026-04-26T10:17:56.979Z</time></trkpt><trkpt lat="44.2701741" lon="8.1124533"><ele>721.0</ele><time>2026-04-26T10:17:57.979Z</time></trkpt><trkpt lat="44.270256" lon="8.1124071"><ele>721.0</ele><time>2026-04-26T10:17:58.979Z</time></trkpt><trkpt lat="44.2703316" lon="8.1123985"><ele>721.0</ele><time>2026-04-26T10:17:59.979Z</time></trkpt><trkpt lat="44.2703974" lon="8.1124137"><ele>721.0</ele><time>2026-04-26T10:18:00.979Z</time></trkpt><trkpt lat="44.2704786" lon="8.1125359"><ele>721.0</ele><time>2026-04-26T10:18:02.979Z</time></trkpt><trkpt lat="44.2704929" lon="8.1126524"><ele>721.0</ele><time>2026-04-26T10:18:03.979Z</time></trkpt><trkpt lat="44.2705078" lon="8.1128022"><ele>721.0</ele><time>2026-04-26T10:18:04.979Z</time></trkpt><trkpt lat="44.2705222" lon="8.1129966"><ele>721.0</ele><time>2026-04-26T10:18:05.979Z</time></trkpt><trkpt lat="44.2705509" lon="8.113197"><ele>721.0</ele><time>2026-04-26T10:18:06.979Z</time></trkpt><trkpt lat="44.2705738" lon="8.1133728"><ele>721.0</ele><time>2026-04-26T10:18:07.979Z</time></trkpt><trkpt lat="44.2705951" lon="8.1135125"><ele>721.0</ele><time>2026-04-26T10:18:08.979Z</time></trkpt><trkpt lat="44.2706117" lon="8.1136103"><ele>721.0</ele><time>2026-04-26T10:18:09.979Z</time></trkpt><trkpt lat="44.2706565" lon="8.1137326"><ele>721.0</ele><time>2026-04-26T10:18:11.979Z</time></trkpt><trkpt lat="44.2707165" lon="8.113694"><ele>721.0</ele><time>2026-04-26T10:18:14.979Z</time></trkpt><trkpt lat="44.2706781" lon="8.1135002"><ele>721.0</ele><time>2026-04-26T10:18:16.979Z</time></trkpt><trkpt lat="44.2706419" lon="8.1133137"><ele>721.0</ele><time>2026-04-26T10:18:17.979Z</time></trkpt><trkpt lat="44.270614" lon="8.1131015"><ele>721.0</ele><time>2026-04-26T10:18:18.98Z</time></trkpt><trkpt lat="44.2706126" lon="8.1128625"><ele>729.0</ele><time>2026-04-26T10:18:19.979Z</time></trkpt><trkpt lat="44.2706234" lon="8.1126297"><ele>737.0</ele><time>2026-04-26T10:18:20.979Z</time></trkpt><trkpt lat="44.2706335" lon="8.1124127"><ele>745.0</ele><time>2026-04-26T10:18:21.979Z</time></trkpt><trkpt lat="44.2706316" lon="8.1122172"><ele>745.6666666666667</ele><time>2026-04-26T10:18:22.979Z</time></trkpt><trkpt lat="44.2706095" lon="8.1120479"><ele>746.3333333333334</ele><time>2026-04-26T10:18:23.979Z</time></trkpt><trkpt lat="44.2705671" lon="8.111928"><ele>747.0</ele><time>2026-04-26T10:18:24.979Z</time></trkpt><trkpt lat="44.2705196" lon="8.1118348"><ele>747.6666666666666</ele><time>2026-04-26T10:18:25.979Z</time></trkpt><trkpt lat="44.2704569" lon="8.1117829"><ele>748.3333333333333</ele><time>2026-04-26T10:18:26.979Z</time></trkpt><trkpt lat="44.2703867" lon="8.1117552"><ele>749.0</ele><time>2026-04-26T10:18:27.979Z</time></trkpt><trkpt lat="44.2702985" lon="8.1117542"><ele>749.0</ele><time>2026-04-26T10:18:28.98Z</time></trkpt><trkpt lat="44.2701959" lon="8.1118267"><ele>749.0</ele><time>2026-04-26T10:18:29.979Z</time></trkpt><trkpt lat="44.2700958" lon="8.1118925"><ele>749.0</ele><time>2026-04-26T10:18:30.979Z</time></trkpt><trkpt lat="44.2699969" lon="8.1119352"><ele>749.0</ele><time>2026-04-26T10:18:31.979Z</time></trkpt><trkpt lat="44.2699014" lon="8.1119248"><ele>749.0</ele><time>2026-04-26T10:18:32.979Z</time></trkpt><trkpt lat="44.2698174" lon="8.1118711"><ele>741.0</ele><time>2026-04-26T10:18:33.979Z</time></trkpt><trkpt lat="44.2697442" lon="8.1117683"><ele>733.0</ele><time>2026-04-26T10:18:34.979Z</time></trkpt><trkpt lat="44.2696803" lon="8.1116287"><ele>725.0</ele><time>2026-04-26T10:18:35.979Z</time></trkpt><trkpt lat="44.2696271" lon="8.1114746"><ele>717.0</ele><time>2026-04-26T10:18:36.979Z</time></trkpt><trkpt lat="44.2695891" lon="8.1113149"><ele>717.0</ele><time>2026-04-26T10:18:37.979Z</time></trkpt><trkpt lat="44.2695797" lon="8.1111152"><ele>717.0</ele><time>2026-04-26T10:18:38.979Z</time></trkpt><trkpt lat="44.2695863" lon="8.1109032"><ele>717.0</ele><time>2026-04-26T10:18:39.979Z</time></trkpt><trkpt lat="44.2695983" lon="8.1107149"><ele>717.0</ele><time>2026-04-26T10:18:40.979Z</time></trkpt><trkpt lat="44.269629" lon="8.1105315"><ele>717.4000000000001</ele><time>2026-04-26T10:18:41.979Z</time></trkpt><trkpt lat="44.2696672" lon="8.1103737"><ele>717.8000000000001</ele><time>2026-04-26T10:18:42.979Z</time></trkpt><trkpt lat="44.2696984" lon="8.1102275"><ele>718.2</ele><time>2026-04-26T10:18:43.979Z</time></trkpt><trkpt lat="44.2696997" lon="8.1100917"><ele>718.6</ele><time>2026-04-26T10:18:44.979Z</time></trkpt><trkpt lat="44.2696668" lon="8.1099607"><ele>719.0</ele><time>2026-04-26T10:18:45.979Z</time></trkpt><trkpt lat="44.2696115" lon="8.1098479"><ele>719.0</ele><time>2026-04-26T10:18:46.979Z</time></trkpt><trkpt lat="44.2695499" lon="8.1097405"><ele>719.0</ele><time>2026-04-26T10:18:47.979Z</time></trkpt><trkpt lat="44.2695123" lon="8.1096398"><ele>719.0</ele><time>2026-04-26T10:18:48.979Z</time></trkpt><trkpt lat="44.2695063" lon="8.1095414"><ele>719.0</ele><time>2026-04-26T10:18:49.979Z</time></trkpt><trkpt lat="44.2695306" lon="8.1094406"><ele>719.0</ele><time>2026-04-26T10:18:50.979Z</time></trkpt><trkpt lat="44.2695831" lon="8.1093594"><ele>719.0</ele><time>2026-04-26T10:18:51.979Z</time></trkpt><trkpt lat="44.2696676" lon="8.1092875"><ele>721.75</ele><time>2026-04-26T10:18:52.979Z</time></trkpt><trkpt lat="44.2697814" lon="8.1092135"><ele>724.5</ele><time>2026-04-26T10:18:53.98Z</time></trkpt><trkpt lat="44.2699242" lon="8.109135"><ele>727.25</ele><time>2026-04-26T10:18:54.979Z</time></trkpt><trkpt lat="44.2700725" lon="8.1090521"><ele>730.0</ele><time>2026-04-26T10:18:55.979Z</time></trkpt><trkpt lat="44.2702331" lon="8.1089719"><ele>730.0</ele><time>2026-04-26T10:18:56.979Z</time></trkpt><trkpt lat="44.2703795" lon="8.1088794"><ele>730.0</ele><time>2026-04-26T10:18:57.979Z</time></trkpt><trkpt lat="44.2705194" lon="8.1087931"><ele>730.0</ele><time>2026-04-26T10:18:58.979Z</time></trkpt><trkpt lat="44.2706428" lon="8.1087154"><ele>730.0</ele><time>2026-04-26T10:18:59.979Z</time></trkpt><trkpt lat="44.2707642" lon="8.1086459"><ele>739.0</ele><time>2026-04-26T10:19:00.979Z</time></trkpt><trkpt lat="44.270872" lon="8.1085669"><ele>748.0</ele><time>2026-04-26T10:19:01.979Z</time></trkpt><trkpt lat="44.2709566" lon="8.1084436"><ele>757.0</ele><time>2026-04-26T10:19:02.979Z</time></trkpt><trkpt lat="44.2710173" lon="8.1083024"><ele>766.0</ele><time>2026-04-26T10:19:03.979Z</time></trkpt><trkpt lat="44.2710119" lon="8.1081074"><ele>768.0</ele><time>2026-04-26T10:19:04.979Z</time></trkpt><trkpt lat="44.2709865" lon="8.1079137"><ele>770.0</ele><time>2026-04-26T10:19:05.98Z</time></trkpt><trkpt lat="44.2708979" lon="8.1077305"><ele>772.0</ele><time>2026-04-26T10:19:06.979Z</time></trkpt><trkpt lat="44.2707919" lon="8.107592"><ele>774.0</ele><time>2026-04-26T10:19:07.979Z</time></trkpt><trkpt lat="44.2706706" lon="8.1074961"><ele>768.2</ele><time>2026-04-26T10:19:08.979Z</time></trkpt><trkpt lat="44.2705629" lon="8.1074198"><ele>762.4000000000001</ele><time>2026-04-26T10:19:09.979Z</time></trkpt><trkpt lat="44.2704801" lon="8.1073496"><ele>756.6</ele><time>2026-04-26T10:19:10.979Z</time></trkpt><trkpt lat="44.2704315" lon="8.1072813"><ele>750.8</ele><time>2026-04-26T10:19:11.979Z</time></trkpt><trkpt lat="44.2704265" lon="8.1071559"><ele>745.0</ele><time>2026-04-26T10:19:13.979Z</time></trkpt><trkpt lat="44.2705217" lon="8.1071376"><ele>751.5</ele><time>2026-04-26T10:19:15.979Z</time></trkpt><trkpt lat="44.27061" lon="8.1071787"><ele>758.0</ele><time>2026-04-26T10:19:16.979Z</time></trkpt><trkpt lat="44.2707131" lon="8.1072631"><ele>764.5</ele><time>2026-04-26T10:19:17.979Z</time></trkpt><trkpt lat="44.2708198" lon="8.1073754"><ele>771.0</ele><time>2026-04-26T10:19:18.979Z</time></trkpt><trkpt lat="44.2709102" lon="8.107483"><ele>771.75</ele><time>2026-04-26T10:19:19.979Z</time></trkpt><trkpt lat="44.2709912" lon="8.1076288"><ele>772.5</ele><time>2026-04-26T10:19:20.979Z</time></trkpt><trkpt lat="44.2710547" lon="8.1077864"><ele>773.25</ele><time>2026-04-26T10:19:21.979Z</time></trkpt><trkpt lat="44.2710958" lon="8.1079562"><ele>774.0</ele><time>2026-04-26T10:19:22.98Z</time></trkpt><trkpt lat="44.271119" lon="8.1081426"><ele>772.0</ele><time>2026-04-26T10:19:23.979Z</time></trkpt><trkpt lat="44.2711311" lon="8.1083398"><ele>770.0</ele><time>2026-04-26T10:19:24.979Z</time></trkpt><trkpt lat="44.2711417" lon="8.1085223"><ele>768.0</ele><time>2026-04-26T10:19:25.98Z</time></trkpt><trkpt lat="44.2711441" lon="8.1086916"><ele>766.0</ele><time>2026-04-26T10:19:26.979Z</time></trkpt><trkpt lat="44.271139" lon="8.1088337"><ele>766.0</ele><time>2026-04-26T10:19:27.98Z</time></trkpt><trkpt lat="44.2711188" lon="8.1089555"><ele>766.0</ele><time>2026-04-26T10:19:28.979Z</time></trkpt><trkpt lat="44.2710898" lon="8.1090536"><ele>766.0</ele><time>2026-04-26T10:19:29.979Z</time></trkpt><trkpt lat="44.2710586" lon="8.1091538"><ele>766.0</ele><time>2026-04-26T10:19:30.979Z</time></trkpt><trkpt lat="44.2710141" lon="8.1092243"><ele>766.0</ele><time>2026-04-26T10:19:31.979Z</time></trkpt><trkpt lat="44.270948" lon="8.1092715"><ele>766.0</ele><time>2026-04-26T10:19:32.978Z</time></trkpt><trkpt lat="44.2708639" lon="8.1093195"><ele>767.8333333333334</ele><time>2026-04-26T10:19:33.978Z</time></trkpt><trkpt lat="44.2707876" lon="8.1093879"><ele>769.6666666666667</ele><time>2026-04-26T10:19:34.978Z</time></trkpt><trkpt lat="44.2707149" lon="8.1094489"><ele>771.5</ele><time>2026-04-26T10:19:35.978Z</time></trkpt><trkpt lat="44.270649" lon="8.109513"><ele>773.3333333333334</ele><time>2026-04-26T10:19:36.978Z</time></trkpt><trkpt lat="44.2705895" lon="8.109585"><ele>775.1666666666666</ele><time>2026-04-26T10:19:37.979Z</time></trkpt><trkpt lat="44.2705425" lon="8.1096661"><ele>777.0</ele><time>2026-04-26T10:19:38.978Z</time></trkpt><trkpt lat="44.2705026" lon="8.1097628"><ele>774.2</ele><time>2026-04-26T10:19:39.978Z</time></trkpt><trkpt lat="44.2704795" lon="8.1098684"><ele>771.4000000000001</ele><time>2026-04-26T10:19:40.978Z</time></trkpt><trkpt lat="44.2704845" lon="8.1100057"><ele>768.5999999999999</ele><time>2026-04-26T10:19:41.978Z</time></trkpt><trkpt lat="44.2704856" lon="8.1101325"><ele>765.8</ele><time>2026-04-26T10:19:42.978Z</time></trkpt><trkpt lat="44.2704863" lon="8.1102697"><ele>763.0</ele><time>2026-04-26T10:19:43.978Z</time></trkpt><trkpt lat="44.2704862" lon="8.1103959"><ele>763.0</ele><time>2026-04-26T10:19:44.979Z</time></trkpt><trkpt lat="44.2704866" lon="8.1105037"><ele>763.0</ele><time>2026-04-26T10:19:45.978Z</time></trkpt><trkpt lat="44.2704923" lon="8.1105941"><ele>763.0</ele><time>2026-04-26T10:19:46.978Z</time></trkpt><trkpt lat="44.2705269" lon="8.1107066"><ele>763.0</ele><time>2026-04-26T10:19:48.978Z</time></trkpt><trkpt lat="44.2705873" lon="8.1107491"><ele>763.0</ele><time>2026-04-26T10:19:50.978Z</time></trkpt><trkpt lat="44.2706546" lon="8.1106879"><ele>763.0</ele><time>2026-04-26T10:19:52.979Z</time></trkpt><trkpt lat="44.2706951" lon="8.1105256"><ele>765.8</ele><time>2026-04-26T10:19:54.979Z</time></trkpt><trkpt lat="44.2707124" lon="8.1103957"><ele>768.5999999999999</ele><time>2026-04-26T10:19:55.978Z</time></trkpt><trkpt lat="44.2707362" lon="8.1102568"><ele>771.4000000000001</ele><time>2026-04-26T10:19:56.978Z</time></trkpt><trkpt lat="44.2707643" lon="8.1100898"><ele>774.2</ele><time>2026-04-26T10:19:57.979Z</time></trkpt><trkpt lat="44.2708077" lon="8.1099345"><ele>777.0</ele><time>2026-04-26T10:19:58.979Z</time></trkpt><trkpt lat="44.2708686" lon="8.1097921"><ele>777.0</ele><time>2026-04-26T10:19:59.978Z</time></trkpt><trkpt lat="44.2709489" lon="8.1096707"><ele>777.0</ele><time>2026-04-26T10:20:00.979Z</time></trkpt><trkpt lat="44.2710347" lon="8.1095766"><ele>777.0</ele><time>2026-04-26T10:20:01.978Z</time></trkpt><trkpt lat="44.2711202" lon="8.109513"><ele>777.0</ele><time>2026-04-26T10:20:02.978Z</time></trkpt><trkpt lat="44.2712053" lon="8.1094641"><ele>777.0</ele><time>2026-04-26T10:20:03.978Z</time></trkpt><trkpt lat="44.2712838" lon="8.1094142"><ele>777.0</ele><time>2026-04-26T10:20:04.978Z</time></trkpt><trkpt lat="44.2713614" lon="8.1093692"><ele>777.0</ele><time>2026-04-26T10:20:05.978Z</time></trkpt><trkpt lat="44.2714334" lon="8.1093295"><ele>777.0</ele><time>2026-04-26T10:20:06.979Z</time></trkpt><trkpt lat="44.2714944" lon="8.109264"><ele>777.0</ele><time>2026-04-26T10:20:07.978Z</time></trkpt><trkpt lat="44.2715461" lon="8.1091938"><ele>777.0</ele><time>2026-04-26T10:20:08.978Z</time></trkpt><trkpt lat="44.2715809" lon="8.109112"><ele>777.0</ele><time>2026-04-26T10:20:09.978Z</time></trkpt><trkpt lat="44.2716014" lon="8.1090021"><ele>782.4000000000001</ele><time>2026-04-26T10:20:10.978Z</time></trkpt><trkpt lat="44.2716112" lon="8.1088901"><ele>787.8000000000001</ele><time>2026-04-26T10:20:11.978Z</time></trkpt><trkpt lat="44.2716187" lon="8.10877"><ele>793.2</ele><time>2026-04-26T10:20:12.978Z</time></trkpt><trkpt lat="44.2716488" lon="8.1086566"><ele>798.6</ele><time>2026-04-26T10:20:13.978Z</time></trkpt><trkpt lat="44.2716926" lon="8.1085359"><ele>804.0</ele><time>2026-04-26T10:20:14.979Z</time></trkpt><trkpt lat="44.2717552" lon="8.1084131"><ele>804.0</ele><time>2026-04-26T10:20:15.978Z</time></trkpt><trkpt lat="44.2718253" lon="8.1083012"><ele>804.0</ele><time>2026-04-26T10:20:16.978Z</time></trkpt><trkpt lat="44.2718871" lon="8.1081872"><ele>804.0</ele><time>2026-04-26T10:20:17.978Z</time></trkpt><trkpt lat="44.2719461" lon="8.1080736"><ele>804.0</ele><time>2026-04-26T10:20:18.978Z</time></trkpt><trkpt lat="44.2720072" lon="8.1079587"><ele>804.0</ele><time>2026-04-26T10:20:19.978Z</time></trkpt><trkpt lat="44.2720804" lon="8.1078603"><ele>803.6</ele><time>2026-04-26T10:20:20.978Z</time></trkpt><trkpt lat="44.2721334" lon="8.1077471"><ele>803.2</ele><time>2026-04-26T10:20:21.978Z</time></trkpt><trkpt lat="44.2721595" lon="8.1076209"><ele>802.8000000000001</ele><time>2026-04-26T10:20:22.978Z</time></trkpt><trkpt lat="44.2721749" lon="8.1074883"><ele>802.4000000000001</ele><time>2026-04-26T10:20:23.978Z</time></trkpt><trkpt lat="44.2721898" lon="8.1073493"><ele>802.0</ele><time>2026-04-26T10:20:24.978Z</time></trkpt><trkpt lat="44.2722115" lon="8.1072051"><ele>800.75</ele><time>2026-04-26T10:20:25.978Z</time></trkpt><trkpt lat="44.2722444" lon="8.1070628"><ele>799.5</ele><time>2026-04-26T10:20:26.978Z</time></trkpt><trkpt lat="44.2722906" lon="8.1069115"><ele>798.25</ele><time>2026-04-26T10:20:27.978Z</time></trkpt><trkpt lat="44.2723261" lon="8.1067428"><ele>797.0</ele><time>2026-04-26T10:20:28.979Z</time></trkpt><trkpt lat="44.2723443" lon="8.1065538"><ele>807.3333333333334</ele><time>2026-04-26T10:20:29.978Z</time></trkpt><trkpt lat="44.2723469" lon="8.1063398"><ele>817.6666666666667</ele><time>2026-04-26T10:20:30.978Z</time></trkpt><trkpt lat="44.2723329" lon="8.1060892"><ele>828.0</ele><time>2026-04-26T10:20:31.978Z</time></trkpt><trkpt lat="44.2723259" lon="8.1058344"><ele>830.25</ele><time>2026-04-26T10:20:32.978Z</time></trkpt><trkpt lat="44.2723187" lon="8.1056012"><ele>832.5</ele><time>2026-04-26T10:20:33.978Z</time></trkpt><trkpt lat="44.2723043" lon="8.1054006"><ele>834.75</ele><time>2026-04-26T10:20:34.979Z</time></trkpt><trkpt lat="44.2722911" lon="8.1052218"><ele>837.0</ele><time>2026-04-26T10:20:35.979Z</time></trkpt><trkpt lat="44.2722756" lon="8.105057"><ele>834.5</ele><time>2026-04-26T10:20:36.978Z</time></trkpt><trkpt lat="44.272259" lon="8.1048998"><ele>832.0</ele><time>2026-04-26T10:20:37.979Z</time></trkpt><trkpt lat="44.2722333" lon="8.1047494"><ele>829.5</ele><time>2026-04-26T10:20:38.978Z</time></trkpt><trkpt lat="44.2721948" lon="8.1045989"><ele>827.0</ele><time>2026-04-26T10:20:39.979Z</time></trkpt><trkpt lat="44.2721348" lon="8.1044525"><ele>827.0</ele><time>2026-04-26T10:20:40.978Z</time></trkpt><trkpt lat="44.2720488" lon="8.1042934"><ele>827.0</ele><time>2026-04-26T10:20:41.979Z</time></trkpt><trkpt lat="44.2719427" lon="8.1041121"><ele>827.0</ele><time>2026-04-26T10:20:42.978Z</time></trkpt><trkpt lat="44.2718343" lon="8.1039325"><ele>828.5</ele><time>2026-04-26T10:20:43.978Z</time></trkpt><trkpt lat="44.2717317" lon="8.1037637"><ele>830.0</ele><time>2026-04-26T10:20:44.978Z</time></trkpt><trkpt lat="44.2716316" lon="8.1036208"><ele>831.5</ele><time>2026-04-26T10:20:45.978Z</time></trkpt><trkpt lat="44.2715455" lon="8.1034978"><ele>833.0</ele><time>2026-04-26T10:20:46.978Z</time></trkpt><trkpt lat="44.2714675" lon="8.1034024"><ele>829.75</ele><time>2026-04-26T10:20:47.978Z</time></trkpt><trkpt lat="44.2714234" lon="8.1033049"><ele>826.5</ele><time>2026-04-26T10:20:48.978Z</time></trkpt><trkpt lat="44.2714223" lon="8.1031443"><ele>823.25</ele><time>2026-04-26T10:20:50.978Z</time></trkpt><trkpt lat="44.2715209" lon="8.1030533"><ele>820.0</ele><time>2026-04-26T10:20:52.978Z</time></trkpt><trkpt lat="44.2716451" lon="8.1031623"><ele>824.3333333333333</ele><time>2026-04-26T10:20:54.978Z</time></trkpt><trkpt lat="44.2717155" lon="8.1032959"><ele>828.6666666666667</ele><time>2026-04-26T10:20:55.978Z</time></trkpt><trkpt lat="44.2717924" lon="8.1034813"><ele>833.0</ele><time>2026-04-26T10:20:56.978Z</time></trkpt><trkpt lat="44.2719003" lon="8.1036913"><ele>833.0</ele><time>2026-04-26T10:20:57.978Z</time></trkpt><trkpt lat="44.2720648" lon="8.1039416"><ele>833.0</ele><time>2026-04-26T10:20:58.978Z</time></trkpt><trkpt lat="44.272246" lon="8.1041732"><ele>837.0</ele><time>2026-04-26T10:20:59.978Z</time></trkpt><trkpt lat="44.2724101" lon="8.1043669"><ele>841.0</ele><time>2026-04-26T10:21:00.978Z</time></trkpt><trkpt lat="44.272539" lon="8.1045434"><ele>845.0</ele><time>2026-04-26T10:21:01.978Z</time></trkpt><trkpt lat="44.272633" lon="8.1047288"><ele>843.0</ele><time>2026-04-26T10:21:02.978Z</time></trkpt><trkpt lat="44.2727002" lon="8.104921"><ele>841.0</ele><time>2026-04-26T10:21:03.978Z</time></trkpt><trkpt lat="44.2727549" lon="8.1051267"><ele>839.0</ele><time>2026-04-26T10:21:04.978Z</time></trkpt><trkpt lat="44.272801" lon="8.1053076"><ele>837.0</ele><time>2026-04-26T10:21:05.978Z</time></trkpt><trkpt lat="44.2728407" lon="8.1054478"><ele>837.0</ele><time>2026-04-26T10:21:06.978Z</time></trkpt><trkpt lat="44.2728771" lon="8.1055487"><ele>837.0</ele><time>2026-04-26T10:21:07.978Z</time></trkpt><trkpt lat="44.2729257" lon="8.1056139"><ele>837.0</ele><time>2026-04-26T10:21:08.978Z</time></trkpt><trkpt lat="44.2729908" lon="8.1056444"><ele>837.0</ele><time>2026-04-26T10:21:10.978Z</time></trkpt><trkpt lat="44.2729956" lon="8.1055221"><ele>837.0</ele><time>2026-04-26T10:21:12.978Z</time></trkpt><trkpt lat="44.272964" lon="8.1053554"><ele>837.0</ele><time>2026-04-26T10:21:13.978Z</time></trkpt><trkpt lat="44.2729363" lon="8.105147"><ele>839.6666666666667</ele><time>2026-04-26T10:21:14.978Z</time></trkpt><trkpt lat="44.2728981" lon="8.1048645"><ele>842.3333333333334</ele><time>2026-04-26T10:21:15.978Z</time></trkpt><trkpt lat="44.2728599" lon="8.1045634"><ele>845.0</ele><time>2026-04-26T10:21:16.978Z</time></trkpt><trkpt lat="44.2728131" lon="8.1043003"><ele>847.6666666666667</ele><time>2026-04-26T10:21:17.978Z</time></trkpt><trkpt lat="44.2727494" lon="8.1040733"><ele>850.3333333333333</ele><time>2026-04-26T10:21:18.978Z</time></trkpt><trkpt lat="44.2726538" lon="8.1038629"><ele>853.0</ele><time>2026-04-26T10:21:19.978Z</time></trkpt><trkpt lat="44.2725497" lon="8.1036944"><ele>853.0</ele><time>2026-04-26T10:21:20.978Z</time></trkpt><trkpt lat="44.2724684" lon="8.1035425"><ele>853.0</ele><time>2026-04-26T10:21:21.978Z</time></trkpt><trkpt lat="44.2724077" lon="8.1034128"><ele>853.0</ele><time>2026-04-26T10:21:22.978Z</time></trkpt><trkpt lat="44.2723724" lon="8.1032784"><ele>853.0</ele><time>2026-04-26T10:21:23.978Z</time></trkpt><trkpt lat="44.272378" lon="8.1031368"><ele>852.25</ele><time>2026-04-26T10:21:24.978Z</time></trkpt><trkpt lat="44.2724081" lon="8.1029839"><ele>851.5</ele><time>2026-04-26T10:21:25.978Z</time></trkpt><trkpt lat="44.2724738" lon="8.1028248"><ele>850.75</ele><time>2026-04-26T10:21:26.978Z</time></trkpt><trkpt lat="44.272558" lon="8.1026426"><ele>850.0</ele><time>2026-04-26T10:21:27.978Z</time></trkpt><trkpt lat="44.2726529" lon="8.1024684"><ele>846.75</ele><time>2026-04-26T10:21:28.978Z</time></trkpt><trkpt lat="44.2727455" lon="8.1023138"><ele>843.5</ele><time>2026-04-26T10:21:29.978Z</time></trkpt><trkpt lat="44.2728406" lon="8.1021942"><ele>840.25</ele><time>2026-04-26T10:21:30.979Z</time></trkpt><trkpt lat="44.2729394" lon="8.1021044"><ele>837.0</ele><time>2026-04-26T10:21:31.978Z</time></trkpt><trkpt lat="44.2730249" lon="8.1020513"><ele>837.0</ele><time>2026-04-26T10:21:32.978Z</time></trkpt><trkpt lat="44.2730827" lon="8.1019601"><ele>837.0</ele><time>2026-04-26T10:21:33.978Z</time></trkpt><trkpt lat="44.2731462" lon="8.1018585"><ele>837.0</ele><time>2026-04-26T10:21:34.978Z</time></trkpt><trkpt lat="44.2732024" lon="8.1017043"><ele>837.0</ele><time>2026-04-26T10:21:35.978Z</time></trkpt><trkpt lat="44.2732721" lon="8.1015035"><ele>846.3333333333333</ele><time>2026-04-26T10:21:36.978Z</time></trkpt><trkpt lat="44.2733544" lon="8.101278"><ele>855.6666666666666</ele><time>2026-04-26T10:21:37.978Z</time></trkpt><trkpt lat="44.2734288" lon="8.1010308"><ele>865.0</ele><time>2026-04-26T10:21:38.978Z</time></trkpt><trkpt lat="44.2734795" lon="8.1008058"><ele>862.25</ele><time>2026-04-26T10:21:39.979Z</time></trkpt><trkpt lat="44.2735194" lon="8.1005932"><ele>859.5</ele><time>2026-04-26T10:21:40.978Z</time></trkpt><trkpt lat="44.2735569" lon="8.100399"><ele>856.75</ele><time>2026-04-26T10:21:41.978Z</time></trkpt><trkpt lat="44.2735921" lon="8.1002323"><ele>854.0</ele><time>2026-04-26T10:21:42.978Z</time></trkpt><trkpt lat="44.2736463" lon="8.10009"><ele>854.0</ele><time>2026-04-26T10:21:43.979Z</time></trkpt><trkpt lat="44.2737336" lon="8.0999583"><ele>854.0</ele><time>2026-04-26T10:21:44.978Z</time></trkpt><trkpt lat="44.2738298" lon="8.0998184"><ele>854.0</ele><time>2026-04-26T10:21:45.978Z</time></trkpt><trkpt lat="44.2739437" lon="8.0996755"><ele>854.0</ele><time>2026-04-26T10:21:46.978Z</time></trkpt><trkpt lat="44.2740619" lon="8.0995286"><ele>857.75</ele><time>2026-04-26T10:21:47.979Z</time></trkpt><trkpt lat="44.2741735" lon="8.0993877"><ele>861.5</ele><time>2026-04-26T10:21:48.979Z</time></trkpt><trkpt lat="44.2742775" lon="8.0992694"><ele>865.25</ele><time>2026-04-26T10:21:49.979Z</time></trkpt><trkpt lat="44.2743886" lon="8.0991863"><ele>869.0</ele><time>2026-04-26T10:21:50.978Z</time></trkpt><trkpt lat="44.2745426" lon="8.0991576"><ele>869.0</ele><time>2026-04-26T10:21:51.978Z</time></trkpt><trkpt lat="44.2747017" lon="8.099117"><ele>869.0</ele><time>2026-04-26T10:21:52.978Z</time></trkpt><trkpt lat="44.2748782" lon="8.0990692"><ele>869.0</ele><time>2026-04-26T10:21:53.979Z</time></trkpt><trkpt lat="44.2750565" lon="8.0989997"><ele>871.3333333333334</ele><time>2026-04-26T10:21:54.978Z</time></trkpt><trkpt lat="44.2752434" lon="8.0989206"><ele>873.6666666666667</ele><time>2026-04-26T10:21:55.979Z</time></trkpt><trkpt lat="44.2754439" lon="8.0988549"><ele>876.0</ele><time>2026-04-26T10:21:56.978Z</time></trkpt><trkpt lat="44.275644" lon="8.0987857"><ele>876.0</ele><time>2026-04-26T10:21:57.978Z</time></trkpt><trkpt lat="44.2758448" lon="8.0987355"><ele>876.0</ele><time>2026-04-26T10:21:58.978Z</time></trkpt><trkpt lat="44.2760301" lon="8.0986872"><ele>876.0</ele><time>2026-04-26T10:21:59.978Z</time></trkpt><trkpt lat="44.2761877" lon="8.0986554"><ele>876.0</ele><time>2026-04-26T10:22:00.979Z</time></trkpt><trkpt lat="44.2763193" lon="8.0986407"><ele>876.0</ele><time>2026-04-26T10:22:01.978Z</time></trkpt><trkpt lat="44.2764292" lon="8.0986272"><ele>876.0</ele><time>2026-04-26T10:22:02.979Z</time></trkpt><trkpt lat="44.2765368" lon="8.0986126"><ele>876.0</ele><time>2026-04-26T10:22:03.978Z</time></trkpt><trkpt lat="44.276641" lon="8.0985716"><ele>874.0</ele><time>2026-04-26T10:22:04.978Z</time></trkpt><trkpt lat="44.2767409" lon="8.0984898"><ele>872.0</ele><time>2026-04-26T10:22:05.979Z</time></trkpt><trkpt lat="44.276851" lon="8.0983958"><ele>870.0</ele><time>2026-04-26T10:22:06.978Z</time></trkpt><trkpt lat="44.2769657" lon="8.0983081"><ele>868.0</ele><time>2026-04-26T10:22:07.978Z</time></trkpt><trkpt lat="44.2770903" lon="8.0982502"><ele>868.0</ele><time>2026-04-26T10:22:08.978Z</time></trkpt><trkpt lat="44.277206" lon="8.0982219"><ele>868.0</ele><time>2026-04-26T10:22:09.978Z</time></trkpt><trkpt lat="44.2773115" lon="8.0982122"><ele>868.0</ele><time>2026-04-26T10:22:10.978Z</time></trkpt><trkpt lat="44.2773914" lon="8.0981885"><ele>868.0</ele><time>2026-04-26T10:22:11.978Z</time></trkpt><trkpt lat="44.2774617" lon="8.0981366"><ele>868.0</ele><time>2026-04-26T10:22:12.978Z</time></trkpt><trkpt lat="44.2775239" lon="8.0980701"><ele>875.0</ele><time>2026-04-26T10:22:13.978Z</time></trkpt><trkpt lat="44.2775765" lon="8.0979753"><ele>882.0</ele><time>2026-04-26T10:22:14.978Z</time></trkpt><trkpt lat="44.2776421" lon="8.0978964"><ele>889.0</ele><time>2026-04-26T10:22:15.978Z</time></trkpt><trkpt lat="44.2777099" lon="8.0978088"><ele>896.0</ele><time>2026-04-26T10:22:16.978Z</time></trkpt><trkpt lat="44.277793" lon="8.0977125"><ele>903.0</ele><time>2026-04-26T10:22:17.978Z</time></trkpt><trkpt lat="44.2779079" lon="8.097633"><ele>903.0</ele><time>2026-04-26T10:22:18.978Z</time></trkpt><trkpt lat="44.2780403" lon="8.0975078"><ele>903.0</ele><time>2026-04-26T10:22:19.978Z</time></trkpt><trkpt lat="44.2781939" lon="8.0974055"><ele>903.0</ele><time>2026-04-26T10:22:20.978Z</time></trkpt><trkpt lat="44.2783322" lon="8.0973012"><ele>903.3333333333333</ele><time>2026-04-26T10:22:21.978Z</time></trkpt><trkpt lat="44.2785002" lon="8.0972328"><ele>903.6666666666666</ele><time>2026-04-26T10:22:22.979Z</time></trkpt><trkpt lat="44.2786668" lon="8.0971318"><ele>904.0</ele><time>2026-04-26T10:22:23.978Z</time></trkpt><trkpt lat="44.2788108" lon="8.0969938"><ele>910.0</ele><time>2026-04-26T10:22:24.978Z</time></trkpt><trkpt lat="44.2789457" lon="8.096834"><ele>916.0</ele><time>2026-04-26T10:22:25.978Z</time></trkpt><trkpt lat="44.2790537" lon="8.096687"><ele>922.0</ele><time>2026-04-26T10:22:26.978Z</time></trkpt><trkpt lat="44.2791596" lon="8.0965406"><ele>922.0</ele><time>2026-04-26T10:22:27.979Z</time></trkpt><trkpt lat="44.2792849" lon="8.0964125"><ele>922.0</ele><time>2026-04-26T10:22:28.978Z</time></trkpt><trkpt lat="44.279423" lon="8.096317"><ele>922.0</ele><time>2026-04-26T10:22:29.978Z</time></trkpt><trkpt lat="44.2795834" lon="8.0962333"><ele>922.0</ele><time>2026-04-26T10:22:30.978Z</time></trkpt><trkpt lat="44.2797551" lon="8.096138"><ele>922.0</ele><time>2026-04-26T10:22:31.978Z</time></trkpt><trkpt lat="44.2799349" lon="8.0960283"><ele>922.0</ele><time>2026-04-26T10:22:32.978Z</time></trkpt><trkpt lat="44.280107" lon="8.0959316"><ele>925.0</ele><time>2026-04-26T10:22:33.978Z</time></trkpt><trkpt lat="44.2802647" lon="8.095846"><ele>928.0</ele><time>2026-04-26T10:22:34.978Z</time></trkpt><trkpt lat="44.2804161" lon="8.09577"><ele>931.0</ele><time>2026-04-26T10:22:35.978Z</time></trkpt><trkpt lat="44.2805791" lon="8.0957183"><ele>939.3333333333333</ele><time>2026-04-26T10:22:36.978Z</time></trkpt><trkpt lat="44.2807515" lon="8.095683"><ele>947.6666666666667</ele><time>2026-04-26T10:22:37.978Z</time></trkpt><trkpt lat="44.2809312" lon="8.0956395"><ele>956.0</ele><time>2026-04-26T10:22:38.978Z</time></trkpt><trkpt lat="44.2811353" lon="8.0956099"><ele>956.0</ele><time>2026-04-26T10:22:39.978Z</time></trkpt><trkpt lat="44.281371" lon="8.0956156"><ele>956.0</ele><time>2026-04-26T10:22:40.978Z</time></trkpt><trkpt lat="44.2815872" lon="8.0956178"><ele>954.3333333333334</ele><time>2026-04-26T10:22:41.978Z</time></trkpt><trkpt lat="44.2817856" lon="8.0956088"><ele>952.6666666666667</ele><time>2026-04-26T10:22:42.979Z</time></trkpt><trkpt lat="44.2819626" lon="8.0955907"><ele>951.0</ele><time>2026-04-26T10:22:43.978Z</time></trkpt><trkpt lat="44.2821343" lon="8.0955837"><ele>949.3333333333333</ele><time>2026-04-26T10:22:44.978Z</time></trkpt><trkpt lat="44.2822913" lon="8.0955689"><ele>947.6666666666666</ele><time>2026-04-26T10:22:45.978Z</time></trkpt><trkpt lat="44.2824492" lon="8.095597"><ele>946.0</ele><time>2026-04-26T10:22:46.978Z</time></trkpt><trkpt lat="44.2825925" lon="8.095617"><ele>946.0</ele><time>2026-04-26T10:22:47.978Z</time></trkpt><trkpt lat="44.282744" lon="8.0956533"><ele>946.0</ele><time>2026-04-26T10:22:48.978Z</time></trkpt><trkpt lat="44.2828975" lon="8.0957057"><ele>946.0</ele><time>2026-04-26T10:22:49.978Z</time></trkpt><trkpt lat="44.2830651" lon="8.0957612"><ele>935.0</ele><time>2026-04-26T10:22:50.978Z</time></trkpt><trkpt lat="44.2832514" lon="8.0958307"><ele>924.0</ele><time>2026-04-26T10:22:51.978Z</time></trkpt><trkpt lat="44.2834363" lon="8.0958846"><ele>913.0</ele><time>2026-04-26T10:22:52.978Z</time></trkpt><trkpt lat="44.2836281" lon="8.0959376"><ele>913.0</ele><time>2026-04-26T10:22:53.978Z</time></trkpt><trkpt lat="44.2838248" lon="8.095977"><ele>913.0</ele><time>2026-04-26T10:22:54.978Z</time></trkpt><trkpt lat="44.284012" lon="8.0959993"><ele>913.0</ele><time>2026-04-26T10:22:55.978Z</time></trkpt><trkpt lat="44.2842076" lon="8.0960204"><ele>913.0</ele><time>2026-04-26T10:22:56.979Z</time></trkpt><trkpt lat="44.2844045" lon="8.0960138"><ele>913.0</ele><time>2026-04-26T10:22:57.978Z</time></trkpt><trkpt lat="44.28461" lon="8.0959993"><ele>913.0</ele><time>2026-04-26T10:22:58.978Z</time></trkpt><trkpt lat="44.2848151" lon="8.0959821"><ele>913.0</ele><time>2026-04-26T10:22:59.978Z</time></trkpt><trkpt lat="44.2850169" lon="8.0959541"><ele>913.0</ele><time>2026-04-26T10:23:00.978Z</time></trkpt><trkpt lat="44.2852174" lon="8.0959336"><ele>913.0</ele><time>2026-04-26T10:23:01.979Z</time></trkpt><trkpt lat="44.2854165" lon="8.0959276"><ele>909.6666666666666</ele><time>2026-04-26T10:23:02.978Z</time></trkpt><trkpt lat="44.2856124" lon="8.0959317"><ele>906.3333333333333</ele><time>2026-04-26T10:23:03.978Z</time></trkpt><trkpt lat="44.2857985" lon="8.0959521"><ele>903.0</ele><time>2026-04-26T10:23:04.978Z</time></trkpt><trkpt lat="44.2859793" lon="8.095968"><ele>903.0</ele><time>2026-04-26T10:23:05.978Z</time></trkpt><trkpt lat="44.2861632" lon="8.0959872"><ele>903.0</ele><time>2026-04-26T10:23:06.978Z</time></trkpt><trkpt lat="44.2863255" lon="8.0960085"><ele>903.0</ele><time>2026-04-26T10:23:07.978Z</time></trkpt><trkpt lat="44.2864757" lon="8.0960201"><ele>898.75</ele><time>2026-04-26T10:23:08.978Z</time></trkpt><trkpt lat="44.2866046" lon="8.0960481"><ele>894.5</ele><time>2026-04-26T10:23:09.979Z</time></trkpt><trkpt lat="44.2867225" lon="8.096097"><ele>890.25</ele><time>2026-04-26T10:23:10.978Z</time></trkpt><trkpt lat="44.2868308" lon="8.0961753"><ele>886.0</ele><time>2026-04-26T10:23:11.978Z</time></trkpt><trkpt lat="44.2869394" lon="8.0962764"><ele>886.0</ele><time>2026-04-26T10:23:12.978Z</time></trkpt><trkpt lat="44.2870592" lon="8.0963801"><ele>886.0</ele><time>2026-04-26T10:23:13.978Z</time></trkpt><trkpt lat="44.2871872" lon="8.0964643"><ele>886.0</ele><time>2026-04-26T10:23:14.978Z</time></trkpt><trkpt lat="44.2873162" lon="8.0965077"><ele>886.0</ele><time>2026-04-26T10:23:15.978Z</time></trkpt><trkpt lat="44.2874569" lon="8.0965433"><ele>885.5</ele><time>2026-04-26T10:23:16.978Z</time></trkpt><trkpt lat="44.287601" lon="8.0965887"><ele>885.0</ele><time>2026-04-26T10:23:17.978Z</time></trkpt><trkpt lat="44.2877393" lon="8.0966064"><ele>884.5</ele><time>2026-04-26T10:23:18.979Z</time></trkpt><trkpt lat="44.2878682" lon="8.0966259"><ele>884.0</ele><time>2026-04-26T10:23:19.978Z</time></trkpt><trkpt lat="44.2879915" lon="8.0966472"><ele>882.25</ele><time>2026-04-26T10:23:20.978Z</time></trkpt><trkpt lat="44.2881141" lon="8.0966569"><ele>880.5</ele><time>2026-04-26T10:23:21.978Z</time></trkpt><trkpt lat="44.2882583" lon="8.096626"><ele>878.75</ele><time>2026-04-26T10:23:22.978Z</time></trkpt><trkpt lat="44.2884116" lon="8.0965417"><ele>877.0</ele><time>2026-04-26T10:23:23.979Z</time></trkpt><trkpt lat="44.2885739" lon="8.096451"><ele>870.3333333333333</ele><time>2026-04-26T10:23:24.977Z</time></trkpt><trkpt lat="44.2887342" lon="8.0963681"><ele>863.6666666666667</ele><time>2026-04-26T10:23:25.977Z</time></trkpt><trkpt lat="44.2888853" lon="8.0963019"><ele>857.0</ele><time>2026-04-26T10:23:26.977Z</time></trkpt><trkpt lat="44.2890174" lon="8.0962337"><ele>857.0</ele><time>2026-04-26T10:23:27.978Z</time></trkpt><trkpt lat="44.2891301" lon="8.0961848"><ele>857.0</ele><time>2026-04-26T10:23:28.977Z</time></trkpt><trkpt lat="44.2892361" lon="8.0961606"><ele>857.0</ele><time>2026-04-26T10:23:29.977Z</time></trkpt><trkpt lat="44.2893492" lon="8.0962078"><ele>857.0</ele><time>2026-04-26T10:23:30.977Z</time></trkpt><trkpt lat="44.289451" lon="8.0962649"><ele>857.0</ele><time>2026-04-26T10:23:31.977Z</time></trkpt><trkpt lat="44.289546" lon="8.0963481"><ele>857.0</ele><time>2026-04-26T10:23:32.977Z</time></trkpt><trkpt lat="44.2896407" lon="8.0964861"><ele>857.0</ele><time>2026-04-26T10:23:33.977Z</time></trkpt><trkpt lat="44.2897318" lon="8.0966567"><ele>857.0</ele><time>2026-04-26T10:23:34.977Z</time></trkpt><trkpt lat="44.2898389" lon="8.0968156"><ele>858.6666666666667</ele><time>2026-04-26T10:23:35.977Z</time></trkpt><trkpt lat="44.2899766" lon="8.0969478"><ele>860.3333333333333</ele><time>2026-04-26T10:23:36.977Z</time></trkpt><trkpt lat="44.2901233" lon="8.0970472"><ele>862.0</ele><time>2026-04-26T10:23:37.977Z</time></trkpt><trkpt lat="44.2902779" lon="8.0970969"><ele>862.0</ele><time>2026-04-26T10:23:38.977Z</time></trkpt><trkpt lat="44.2904409" lon="8.0970999"><ele>862.0</ele><time>2026-04-26T10:23:39.977Z</time></trkpt><trkpt lat="44.2906274" lon="8.0970528"><ele>862.0</ele><time>2026-04-26T10:23:40.977Z</time></trkpt><trkpt lat="44.2908418" lon="8.0969816"><ele>857.0</ele><time>2026-04-26T10:23:41.977Z</time></trkpt><trkpt lat="44.2910693" lon="8.0968944"><ele>852.0</ele><time>2026-04-26T10:23:42.977Z</time></trkpt><trkpt lat="44.291298" lon="8.096815"><ele>852.3333333333333</ele><time>2026-04-26T10:23:43.977Z</time></trkpt><trkpt lat="44.2915071" lon="8.0967371"><ele>852.6666666666666</ele><time>2026-04-26T10:23:44.977Z</time></trkpt><trkpt lat="44.2917037" lon="8.0966673"><ele>853.0</ele><time>2026-04-26T10:23:45.977Z</time></trkpt><trkpt lat="44.2918764" lon="8.0965879"><ele>847.3333333333333</ele><time>2026-04-26T10:23:46.977Z</time></trkpt><trkpt lat="44.2920132" lon="8.0964944"><ele>841.6666666666667</ele><time>2026-04-26T10:23:47.977Z</time></trkpt><trkpt lat="44.2921625" lon="8.096444"><ele>836.0</ele><time>2026-04-26T10:23:48.978Z</time></trkpt><trkpt lat="44.2923234" lon="8.0964358"><ele>836.0</ele><time>2026-04-26T10:23:49.977Z</time></trkpt><trkpt lat="44.2924946" lon="8.0964406"><ele>836.0</ele><time>2026-04-26T10:23:50.977Z</time></trkpt><trkpt lat="44.2926737" lon="8.0964724"><ele>836.0</ele><time>2026-04-26T10:23:51.977Z</time></trkpt><trkpt lat="44.292854" lon="8.0964417"><ele>836.0</ele><time>2026-04-26T10:23:52.977Z</time></trkpt><trkpt lat="44.2930295" lon="8.0963825"><ele>836.0</ele><time>2026-04-26T10:23:53.977Z</time></trkpt><trkpt lat="44.2932087" lon="8.0963416"><ele>836.0</ele><time>2026-04-26T10:23:54.977Z</time></trkpt><trkpt lat="44.2933822" lon="8.0963362"><ele>834.0</ele><time>2026-04-26T10:23:55.978Z</time></trkpt><trkpt lat="44.293543" lon="8.0963699"><ele>832.0</ele><time>2026-04-26T10:23:56.977Z</time></trkpt><trkpt lat="44.2937019" lon="8.0964408"><ele>830.0</ele><time>2026-04-26T10:23:57.977Z</time></trkpt><trkpt lat="44.2938822" lon="8.0965268"><ele>833.6666666666667</ele><time>2026-04-26T10:23:58.978Z</time></trkpt><trkpt lat="44.2940735" lon="8.0965943"><ele>837.3333333333333</ele><time>2026-04-26T10:23:59.977Z</time></trkpt><trkpt lat="44.2942404" lon="8.0966053"><ele>841.0</ele><time>2026-04-26T10:24:00.978Z</time></trkpt><trkpt lat="44.2943897" lon="8.0966025"><ele>841.0</ele><time>2026-04-26T10:24:01.977Z</time></trkpt><trkpt lat="44.2945344" lon="8.0966238"><ele>841.0</ele><time>2026-04-26T10:24:02.977Z</time></trkpt><trkpt lat="44.2946715" lon="8.0966773"><ele>841.0</ele><time>2026-04-26T10:24:03.977Z</time></trkpt><trkpt lat="44.2948067" lon="8.0966811"><ele>841.0</ele><time>2026-04-26T10:24:04.977Z</time></trkpt><trkpt lat="44.2949391" lon="8.0966518"><ele>834.75</ele><time>2026-04-26T10:24:05.977Z</time></trkpt><trkpt lat="44.2950593" lon="8.0965694"><ele>828.5</ele><time>2026-04-26T10:24:06.977Z</time></trkpt><trkpt lat="44.2951884" lon="8.0964945"><ele>822.25</ele><time>2026-04-26T10:24:07.977Z</time></trkpt><trkpt lat="44.2953173" lon="8.0964762"><ele>816.0</ele><time>2026-04-26T10:24:08.977Z</time></trkpt><trkpt lat="44.2954243" lon="8.0964875"><ele>816.0</ele><time>2026-04-26T10:24:09.977Z</time></trkpt><trkpt lat="44.2955236" lon="8.0964956"><ele>816.0</ele><time>2026-04-26T10:24:10.977Z</time></trkpt><trkpt lat="44.2956223" lon="8.0964582"><ele>816.0</ele><time>2026-04-26T10:24:11.977Z</time></trkpt><trkpt lat="44.2957244" lon="8.0963638"><ele>816.0</ele><time>2026-04-26T10:24:12.977Z</time></trkpt><trkpt lat="44.2958207" lon="8.0962196"><ele>815.0</ele><time>2026-04-26T10:24:13.977Z</time></trkpt><trkpt lat="44.2959313" lon="8.0960171"><ele>814.0</ele><time>2026-04-26T10:24:14.978Z</time></trkpt><trkpt lat="44.2960601" lon="8.0958108"><ele>813.0</ele><time>2026-04-26T10:24:15.978Z</time></trkpt><trkpt lat="44.2961999" lon="8.0956298"><ele>813.0</ele><time>2026-04-26T10:24:16.977Z</time></trkpt><trkpt lat="44.2963368" lon="8.0954615"><ele>813.0</ele><time>2026-04-26T10:24:17.977Z</time></trkpt><trkpt lat="44.2964691" lon="8.0953137"><ele>813.0</ele><time>2026-04-26T10:24:18.977Z</time></trkpt><trkpt lat="44.2965859" lon="8.0951863"><ele>813.0</ele><time>2026-04-26T10:24:19.977Z</time></trkpt><trkpt lat="44.2966928" lon="8.0950577"><ele>813.0</ele><time>2026-04-26T10:24:20.977Z</time></trkpt><trkpt lat="44.2967732" lon="8.0948909"><ele>813.0</ele><time>2026-04-26T10:24:21.977Z</time></trkpt><trkpt lat="44.2968336" lon="8.0946652"><ele>807.0</ele><time>2026-04-26T10:24:22.977Z</time></trkpt><trkpt lat="44.2968787" lon="8.0944277"><ele>801.0</ele><time>2026-04-26T10:24:23.977Z</time></trkpt><trkpt lat="44.2969259" lon="8.0942264"><ele>795.0</ele><time>2026-04-26T10:24:24.977Z</time></trkpt><trkpt lat="44.2969779" lon="8.0940577"><ele>792.0</ele><time>2026-04-26T10:24:25.978Z</time></trkpt><trkpt lat="44.2970648" lon="8.0939156"><ele>789.0</ele><time>2026-04-26T10:24:26.977Z</time></trkpt><trkpt lat="44.2971644" lon="8.0938091"><ele>786.0</ele><time>2026-04-26T10:24:27.977Z</time></trkpt><trkpt lat="44.2972766" lon="8.0937496"><ele>783.0</ele><time>2026-04-26T10:24:28.977Z</time></trkpt><trkpt lat="44.2973655" lon="8.0937097"><ele>783.0</ele><time>2026-04-26T10:24:29.977Z</time></trkpt><trkpt lat="44.297441" lon="8.0936791"><ele>783.0</ele><time>2026-04-26T10:24:30.977Z</time></trkpt><trkpt lat="44.2974836" lon="8.0935758"><ele>783.0</ele><time>2026-04-26T10:24:32.977Z</time></trkpt><trkpt lat="44.2974126" lon="8.093556"><ele>783.0</ele><time>2026-04-26T10:24:34.977Z</time></trkpt><trkpt lat="44.2973263" lon="8.0935957"><ele>783.0</ele><time>2026-04-26T10:24:35.978Z</time></trkpt><trkpt lat="44.2972156" lon="8.0936829"><ele>781.0</ele><time>2026-04-26T10:24:36.977Z</time></trkpt><trkpt lat="44.2970738" lon="8.093816"><ele>779.0</ele><time>2026-04-26T10:24:37.977Z</time></trkpt><trkpt lat="44.2969174" lon="8.0940057"><ele>777.0</ele><time>2026-04-26T10:24:38.977Z</time></trkpt><trkpt lat="44.2967787" lon="8.0942432"><ele>783.0</ele><time>2026-04-26T10:24:39.977Z</time></trkpt><trkpt lat="44.2966575" lon="8.0944584"><ele>789.0</ele><time>2026-04-26T10:24:40.977Z</time></trkpt><trkpt lat="44.296545" lon="8.0946191"><ele>795.0</ele><time>2026-04-26T10:24:41.978Z</time></trkpt><trkpt lat="44.2964365" lon="8.0947515"><ele>793.75</ele><time>2026-04-26T10:24:42.978Z</time></trkpt><trkpt lat="44.2963289" lon="8.0948421"><ele>792.5</ele><time>2026-04-26T10:24:43.977Z</time></trkpt><trkpt lat="44.2962157" lon="8.0948982"><ele>791.25</ele><time>2026-04-26T10:24:44.977Z</time></trkpt><trkpt lat="44.2961059" lon="8.0949669"><ele>790.0</ele><time>2026-04-26T10:24:45.977Z</time></trkpt><trkpt lat="44.2959933" lon="8.0950777"><ele>790.0</ele><time>2026-04-26T10:24:46.977Z</time></trkpt><trkpt lat="44.2958934" lon="8.0952114"><ele>790.0</ele><time>2026-04-26T10:24:47.977Z</time></trkpt><trkpt lat="44.2958065" lon="8.0953271"><ele>790.0</ele><time>2026-04-26T10:24:48.977Z</time></trkpt><trkpt lat="44.2957263" lon="8.0954202"><ele>790.0</ele><time>2026-04-26T10:24:49.977Z</time></trkpt><trkpt lat="44.2956418" lon="8.0954846"><ele>789.6</ele><time>2026-04-26T10:24:50.977Z</time></trkpt><trkpt lat="44.2955562" lon="8.0955233"><ele>789.2</ele><time>2026-04-26T10:24:51.977Z</time></trkpt><trkpt lat="44.2954635" lon="8.0955246"><ele>788.8</ele><time>2026-04-26T10:24:52.977Z</time></trkpt><trkpt lat="44.2953729" lon="8.0954784"><ele>788.4</ele><time>2026-04-26T10:24:53.977Z</time></trkpt><trkpt lat="44.2952693" lon="8.0954139"><ele>788.0</ele><time>2026-04-26T10:24:54.977Z</time></trkpt><trkpt lat="44.2951307" lon="8.0953149"><ele>788.0</ele><time>2026-04-26T10:24:55.977Z</time></trkpt><trkpt lat="44.2949573" lon="8.0951824"><ele>788.0</ele><time>2026-04-26T10:24:56.977Z</time></trkpt><trkpt lat="44.2947818" lon="8.0950599"><ele>788.0</ele><time>2026-04-26T10:24:57.977Z</time></trkpt><trkpt lat="44.2945996" lon="8.0949546"><ele>784.0</ele><time>2026-04-26T10:24:58.977Z</time></trkpt><trkpt lat="44.2944428" lon="8.0948494"><ele>780.0</ele><time>2026-04-26T10:24:59.977Z</time></trkpt><trkpt lat="44.2943025" lon="8.0947612"><ele>776.0</ele><time>2026-04-26T10:25:00.977Z</time></trkpt><trkpt lat="44.2941876" lon="8.0946899"><ele>776.0</ele><time>2026-04-26T10:25:01.977Z</time></trkpt><trkpt lat="44.2940916" lon="8.0946334"><ele>776.0</ele><time>2026-04-26T10:25:02.977Z</time></trkpt><trkpt lat="44.2940177" lon="8.0945786"><ele>776.0</ele><time>2026-04-26T10:25:03.977Z</time></trkpt><trkpt lat="44.293928" lon="8.094498"><ele>776.0</ele><time>2026-04-26T10:25:05.977Z</time></trkpt><trkpt lat="44.2939476" lon="8.0944098"><ele>776.0</ele><time>2026-04-26T10:25:07.977Z</time></trkpt><trkpt lat="44.2940907" lon="8.094416"><ele>776.0</ele><time>2026-04-26T10:25:09.978Z</time></trkpt><trkpt lat="44.2942383" lon="8.0944496"><ele>776.0</ele><time>2026-04-26T10:25:10.977Z</time></trkpt><trkpt lat="44.2944292" lon="8.0945106"><ele>776.0</ele><time>2026-04-26T10:25:11.977Z</time></trkpt><trkpt lat="44.2946148" lon="8.0945724"><ele>771.0</ele><time>2026-04-26T10:25:12.977Z</time></trkpt><trkpt lat="44.2947751" lon="8.094584"><ele>766.0</ele><time>2026-04-26T10:25:13.977Z</time></trkpt><trkpt lat="44.2949329" lon="8.0945707"><ele>761.0</ele><time>2026-04-26T10:25:14.977Z</time></trkpt><trkpt lat="44.2950775" lon="8.0945263"><ele>761.0</ele><time>2026-04-26T10:25:15.978Z</time></trkpt><trkpt lat="44.2952016" lon="8.0944827"><ele>761.0</ele><time>2026-04-26T10:25:16.977Z</time></trkpt><trkpt lat="44.2953144" lon="8.0944755"><ele>761.0</ele><time>2026-04-26T10:25:17.977Z</time></trkpt><trkpt lat="44.2954007" lon="8.0945031"><ele>761.0</ele><time>2026-04-26T10:25:18.977Z</time></trkpt><trkpt lat="44.2954677" lon="8.0945639"><ele>761.0</ele><time>2026-04-26T10:25:19.977Z</time></trkpt><trkpt lat="44.2955322" lon="8.0946253"><ele>762.4</ele><time>2026-04-26T10:25:20.977Z</time></trkpt><trkpt lat="44.2956034" lon="8.0946442"><ele>763.8</ele><time>2026-04-26T10:25:21.977Z</time></trkpt><trkpt lat="44.2956764" lon="8.0946282"><ele>765.1999999999999</ele><time>2026-04-26T10:25:22.978Z</time></trkpt><trkpt lat="44.2957441" lon="8.0945529"><ele>766.5999999999999</ele><time>2026-04-26T10:25:23.978Z</time></trkpt><trkpt lat="44.2958035" lon="8.0944129"><ele>768.0</ele><time>2026-04-26T10:25:24.977Z</time></trkpt><trkpt lat="44.2958717" lon="8.0942252"><ele>761.3333333333334</ele><time>2026-04-26T10:25:25.977Z</time></trkpt><trkpt lat="44.2959663" lon="8.093998"><ele>754.6666666666667</ele><time>2026-04-26T10:25:26.977Z</time></trkpt><trkpt lat="44.2960889" lon="8.0937647"><ele>748.0</ele><time>2026-04-26T10:25:27.978Z</time></trkpt><trkpt lat="44.2961971" lon="8.0935521"><ele>748.0</ele><time>2026-04-26T10:25:28.977Z</time></trkpt><trkpt lat="44.2962659" lon="8.0933564"><ele>748.0</ele><time>2026-04-26T10:25:29.977Z</time></trkpt><trkpt lat="44.2963098" lon="8.093157"><ele>748.0</ele><time>2026-04-26T10:25:30.977Z</time></trkpt><trkpt lat="44.2963214" lon="8.0929426"><ele>744.25</ele><time>2026-04-26T10:25:31.977Z</time></trkpt><trkpt lat="44.2963196" lon="8.0927368"><ele>740.5</ele><time>2026-04-26T10:25:32.977Z</time></trkpt><trkpt lat="44.2963102" lon="8.0925355"><ele>736.75</ele><time>2026-04-26T10:25:33.977Z</time></trkpt><trkpt lat="44.2963252" lon="8.092354"><ele>733.0</ele><time>2026-04-26T10:25:34.977Z</time></trkpt><trkpt lat="44.2963746" lon="8.0921766"><ele>734.0</ele><time>2026-04-26T10:25:35.977Z</time></trkpt><trkpt lat="44.2964331" lon="8.0920113"><ele>735.0</ele><time>2026-04-26T10:25:36.977Z</time></trkpt><trkpt lat="44.2965101" lon="8.0919032"><ele>736.0</ele><time>2026-04-26T10:25:37.978Z</time></trkpt><trkpt lat="44.2965824" lon="8.0918515"><ele>737.0</ele><time>2026-04-26T10:25:38.977Z</time></trkpt><trkpt lat="44.2966572" lon="8.0918273"><ele>738.0</ele><time>2026-04-26T10:25:39.977Z</time></trkpt><trkpt lat="44.2967327" lon="8.0918377"><ele>738.0</ele><time>2026-04-26T10:25:40.977Z</time></trkpt><trkpt lat="44.2968124" lon="8.0918965"><ele>738.0</ele><time>2026-04-26T10:25:41.977Z</time></trkpt><trkpt lat="44.2969145" lon="8.0919991"><ele>738.0</ele><time>2026-04-26T10:25:42.977Z</time></trkpt><trkpt lat="44.2970639" lon="8.0921638"><ele>738.0</ele><time>2026-04-26T10:25:43.977Z</time></trkpt><trkpt lat="44.2972286" lon="8.0922565"><ele>740.0</ele><time>2026-04-26T10:25:44.977Z</time></trkpt><trkpt lat="44.2973806" lon="8.0923048"><ele>742.0</ele><time>2026-04-26T10:25:45.977Z</time></trkpt><trkpt lat="44.2975207" lon="8.0923624"><ele>744.0</ele><time>2026-04-26T10:25:46.977Z</time></trkpt><trkpt lat="44.297642" lon="8.0924455"><ele>746.0</ele><time>2026-04-26T10:25:47.977Z</time></trkpt><trkpt lat="44.2977646" lon="8.0925458"><ele>746.0</ele><time>2026-04-26T10:25:48.977Z</time></trkpt><trkpt lat="44.2978878" lon="8.0926541"><ele>746.0</ele><time>2026-04-26T10:25:49.977Z</time></trkpt><trkpt lat="44.2980035" lon="8.0927632"><ele>746.0</ele><time>2026-04-26T10:25:50.977Z</time></trkpt><trkpt lat="44.2981007" lon="8.0928776"><ele>746.0</ele><time>2026-04-26T10:25:51.977Z</time></trkpt><trkpt lat="44.2981778" lon="8.0930144"><ele>746.5</ele><time>2026-04-26T10:25:52.977Z</time></trkpt><trkpt lat="44.2982515" lon="8.0931488"><ele>747.0</ele><time>2026-04-26T10:25:53.977Z</time></trkpt><trkpt lat="44.2983273" lon="8.0932779"><ele>747.5</ele><time>2026-04-26T10:25:54.978Z</time></trkpt><trkpt lat="44.2984101" lon="8.0933872"><ele>748.0</ele><time>2026-04-26T10:25:55.977Z</time></trkpt><trkpt lat="44.2984948" lon="8.0934745"><ele>748.0</ele><time>2026-04-26T10:25:56.977Z</time></trkpt><trkpt lat="44.2985788" lon="8.0935388"><ele>748.0</ele><time>2026-04-26T10:25:57.977Z</time></trkpt><trkpt lat="44.2986632" lon="8.0935753"><ele>748.0</ele><time>2026-04-26T10:25:58.977Z</time></trkpt><trkpt lat="44.2987455" lon="8.0935561"><ele>748.0</ele><time>2026-04-26T10:25:59.978Z</time></trkpt><trkpt lat="44.2988201" lon="8.0935007"><ele>748.0</ele><time>2026-04-26T10:26:00.977Z</time></trkpt><trkpt lat="44.2988832" lon="8.0934067"><ele>748.0</ele><time>2026-04-26T10:26:01.977Z</time></trkpt><trkpt lat="44.2989254" lon="8.0932376"><ele>748.0</ele><time>2026-04-26T10:26:02.977Z</time></trkpt><trkpt lat="44.2989456" lon="8.0930024"><ele>748.0</ele><time>2026-04-26T10:26:03.977Z</time></trkpt><trkpt lat="44.2989585" lon="8.0927158"><ele>748.0</ele><time>2026-04-26T10:26:04.977Z</time></trkpt><trkpt lat="44.298952" lon="8.0924019"><ele>746.6666666666667</ele><time>2026-04-26T10:26:05.977Z</time></trkpt><trkpt lat="44.298949" lon="8.0921168"><ele>745.3333333333334</ele><time>2026-04-26T10:26:06.978Z</time></trkpt><trkpt lat="44.2989332" lon="8.0918576"><ele>744.0</ele><time>2026-04-26T10:26:07.977Z</time></trkpt><trkpt lat="44.2989057" lon="8.0916235"><ele>731.0</ele><time>2026-04-26T10:26:08.978Z</time></trkpt><trkpt lat="44.2988758" lon="8.0914176"><ele>718.0</ele><time>2026-04-26T10:26:09.977Z</time></trkpt><trkpt lat="44.2988393" lon="8.0912428"><ele>705.0</ele><time>2026-04-26T10:26:10.977Z</time></trkpt><trkpt lat="44.2988162" lon="8.0910883"><ele>692.0</ele><time>2026-04-26T10:26:11.977Z</time></trkpt><trkpt lat="44.2988262" lon="8.0909444"><ele>692.0</ele><time>2026-04-26T10:26:12.978Z</time></trkpt><trkpt lat="44.2988677" lon="8.0908088"><ele>692.0</ele><time>2026-04-26T10:26:13.977Z</time></trkpt><trkpt lat="44.2989211" lon="8.0906936"><ele>692.0</ele><time>2026-04-26T10:26:14.978Z</time></trkpt><trkpt lat="44.2989491" lon="8.0905901"><ele>692.0</ele><time>2026-04-26T10:26:15.977Z</time></trkpt><trkpt lat="44.2989443" lon="8.0904796"><ele>692.0</ele><time>2026-04-26T10:26:16.977Z</time></trkpt><trkpt lat="44.2989059" lon="8.0903596"><ele>692.0</ele><time>2026-04-26T10:26:17.977Z</time></trkpt><trkpt lat="44.2988283" lon="8.0902322"><ele>692.0</ele><time>2026-04-26T10:26:18.977Z</time></trkpt><trkpt lat="44.2987483" lon="8.0900782"><ele>692.0</ele><time>2026-04-26T10:26:19.977Z</time></trkpt><trkpt lat="44.298692" lon="8.0899123"><ele>692.0</ele><time>2026-04-26T10:26:20.977Z</time></trkpt><trkpt lat="44.2986737" lon="8.0897414"><ele>695.25</ele><time>2026-04-26T10:26:21.978Z</time></trkpt><trkpt lat="44.2986529" lon="8.0895793"><ele>698.5</ele><time>2026-04-26T10:26:22.977Z</time></trkpt><trkpt lat="44.2985969" lon="8.0894195"><ele>701.75</ele><time>2026-04-26T10:26:23.977Z</time></trkpt><trkpt lat="44.2985205" lon="8.0892294"><ele>705.0</ele><time>2026-04-26T10:26:24.977Z</time></trkpt><trkpt lat="44.2984353" lon="8.0890152"><ele>707.3333333333334</ele><time>2026-04-26T10:26:25.977Z</time></trkpt><trkpt lat="44.2983552" lon="8.0888014"><ele>709.6666666666667</ele><time>2026-04-26T10:26:26.977Z</time></trkpt><trkpt lat="44.2982769" lon="8.0886068"><ele>712.0</ele><time>2026-04-26T10:26:27.978Z</time></trkpt><trkpt lat="44.2982" lon="8.0884508"><ele>712.0</ele><time>2026-04-26T10:26:28.977Z</time></trkpt><trkpt lat="44.2981348" lon="8.0883125"><ele>712.0</ele><time>2026-04-26T10:26:29.977Z</time></trkpt><trkpt lat="44.298099" lon="8.0881893"><ele>712.0</ele><time>2026-04-26T10:26:30.977Z</time></trkpt><trkpt lat="44.298103" lon="8.0880153"><ele>712.0</ele><time>2026-04-26T10:26:31.977Z</time></trkpt><trkpt lat="44.2981444" lon="8.0878194"><ele>709.5</ele><time>2026-04-26T10:26:32.977Z</time></trkpt><trkpt lat="44.2982016" lon="8.0876431"><ele>707.0</ele><time>2026-04-26T10:26:33.977Z</time></trkpt><trkpt lat="44.2982817" lon="8.0875012"><ele>704.5</ele><time>2026-04-26T10:26:34.978Z</time></trkpt><trkpt lat="44.2983998" lon="8.0873927"><ele>702.0</ele><time>2026-04-26T10:26:35.977Z</time></trkpt><trkpt lat="44.2985342" lon="8.0873206"><ele>697.5</ele><time>2026-04-26T10:26:36.977Z</time></trkpt><trkpt lat="44.2986649" lon="8.0872674"><ele>693.0</ele><time>2026-04-26T10:26:37.977Z</time></trkpt><trkpt lat="44.298775" lon="8.087194"><ele>688.5</ele><time>2026-04-26T10:26:38.978Z</time></trkpt><trkpt lat="44.2988594" lon="8.0870987"><ele>684.0</ele><time>2026-04-26T10:26:39.977Z</time></trkpt><trkpt lat="44.2989171" lon="8.0869718"><ele>684.0</ele><time>2026-04-26T10:26:40.977Z</time></trkpt><trkpt lat="44.2989266" lon="8.0868121"><ele>684.0</ele><time>2026-04-26T10:26:41.978Z</time></trkpt><trkpt lat="44.2989067" lon="8.0866524"><ele>684.0</ele><time>2026-04-26T10:26:42.978Z</time></trkpt><trkpt lat="44.2989037" lon="8.0865092"><ele>684.0</ele><time>2026-04-26T10:26:43.978Z</time></trkpt><trkpt lat="44.2989288" lon="8.0863902"><ele>684.0</ele><time>2026-04-26T10:26:44.977Z</time></trkpt><trkpt lat="44.2989731" lon="8.0862914"><ele>680.75</ele><time>2026-04-26T10:26:45.977Z</time></trkpt><trkpt lat="44.2990477" lon="8.0862129"><ele>677.5</ele><time>2026-04-26T10:26:46.977Z</time></trkpt><trkpt lat="44.2991534" lon="8.0861726"><ele>674.25</ele><time>2026-04-26T10:26:47.977Z</time></trkpt><trkpt lat="44.2992915" lon="8.0861786"><ele>671.0</ele><time>2026-04-26T10:26:48.977Z</time></trkpt><trkpt lat="44.2994472" lon="8.0862404"><ele>671.0</ele><time>2026-04-26T10:26:49.977Z</time></trkpt><trkpt lat="44.2996545" lon="8.0863656"><ele>671.0</ele><time>2026-04-26T10:26:50.978Z</time></trkpt><trkpt lat="44.2998757" lon="8.0865382"><ele>678.0</ele><time>2026-04-26T10:26:51.977Z</time></trkpt><trkpt lat="44.300067" lon="8.0866654"><ele>685.0</ele><time>2026-04-26T10:26:52.977Z</time></trkpt><trkpt lat="44.3002282" lon="8.0868003"><ele>692.0</ele><time>2026-04-26T10:26:53.977Z</time></trkpt><trkpt lat="44.3003514" lon="8.0869118"><ele>692.0</ele><time>2026-04-26T10:26:54.977Z</time></trkpt><trkpt lat="44.3004532" lon="8.087"><ele>692.0</ele><time>2026-04-26T10:26:55.977Z</time></trkpt><trkpt lat="44.3005311" lon="8.0870854"><ele>692.0</ele><time>2026-04-26T10:26:56.977Z</time></trkpt><trkpt lat="44.3005939" lon="8.0871288"><ele>692.0</ele><time>2026-04-26T10:26:57.977Z</time></trkpt><trkpt lat="44.3006958" lon="8.0871094"><ele>692.0</ele><time>2026-04-26T10:26:59.977Z</time></trkpt><trkpt lat="44.3006933" lon="8.0869888"><ele>692.0</ele><time>2026-04-26T10:27:01.977Z</time></trkpt><trkpt lat="44.3006571" lon="8.086915"><ele>692.0</ele><time>2026-04-26T10:27:02.977Z</time></trkpt><trkpt lat="44.3005966" lon="8.086847"><ele>692.0</ele><time>2026-04-26T10:27:03.977Z</time></trkpt><trkpt lat="44.3004934" lon="8.0867765"><ele>692.0</ele><time>2026-04-26T10:27:04.977Z</time></trkpt><trkpt lat="44.3003633" lon="8.0866998"><ele>692.0</ele><time>2026-04-26T10:27:05.977Z</time></trkpt><trkpt lat="44.3002096" lon="8.0866049"><ele>686.5</ele><time>2026-04-26T10:27:06.977Z</time></trkpt><trkpt lat="44.3000581" lon="8.0864866"><ele>681.0</ele><time>2026-04-26T10:27:07.977Z</time></trkpt><trkpt lat="44.2999464" lon="8.0863542"><ele>675.5</ele><time>2026-04-26T10:27:08.977Z</time></trkpt><trkpt lat="44.2998738" lon="8.086211"><ele>670.0</ele><time>2026-04-26T10:27:09.978Z</time></trkpt><trkpt lat="44.299813" lon="8.0860961"><ele>670.25</ele><time>2026-04-26T10:27:10.977Z</time></trkpt><trkpt lat="44.2997473" lon="8.085998"><ele>670.5</ele><time>2026-04-26T10:27:11.977Z</time></trkpt><trkpt lat="44.2996583" lon="8.0859218"><ele>670.75</ele><time>2026-04-26T10:27:12.977Z</time></trkpt><trkpt lat="44.2995306" lon="8.0858749"><ele>671.0</ele><time>2026-04-26T10:27:13.977Z</time></trkpt><trkpt lat="44.2993761" lon="8.0858345"><ele>671.0</ele><time>2026-04-26T10:27:14.977Z</time></trkpt><trkpt lat="44.2991806" lon="8.0858037"><ele>671.0</ele><time>2026-04-26T10:27:15.977Z</time></trkpt><trkpt lat="44.2989926" lon="8.0857795"><ele>671.0</ele><time>2026-04-26T10:27:16.977Z</time></trkpt><trkpt lat="44.2988228" lon="8.0857628"><ele>661.0</ele><time>2026-04-26T10:27:17.977Z</time></trkpt><trkpt lat="44.2986711" lon="8.0857541"><ele>651.0</ele><time>2026-04-26T10:27:18.977Z</time></trkpt><trkpt lat="44.2985383" lon="8.0857319"><ele>641.0</ele><time>2026-04-26T10:27:19.977Z</time></trkpt><trkpt lat="44.2984112" lon="8.0857044"><ele>631.0</ele><time>2026-04-26T10:27:20.977Z</time></trkpt><trkpt lat="44.2982897" lon="8.0857105"><ele>631.0</ele><time>2026-04-26T10:27:21.977Z</time></trkpt><trkpt lat="44.2981858" lon="8.0857625"><ele>631.0</ele><time>2026-04-26T10:27:22.977Z</time></trkpt><trkpt lat="44.2981089" lon="8.0858195"><ele>631.0</ele><time>2026-04-26T10:27:23.977Z</time></trkpt><trkpt lat="44.2980507" lon="8.0858578"><ele>631.0</ele><time>2026-04-26T10:27:24.977Z</time></trkpt><trkpt lat="44.2979772" lon="8.0858448"><ele>631.0</ele><time>2026-04-26T10:27:26.977Z</time></trkpt><trkpt lat="44.2980167" lon="8.0857378"><ele>631.0</ele><time>2026-04-26T10:27:28.977Z</time></trkpt><trkpt lat="44.2980925" lon="8.0856634"><ele>631.0</ele><time>2026-04-26T10:27:29.977Z</time></trkpt><trkpt lat="44.2982207" lon="8.0856035"><ele>631.0</ele><time>2026-04-26T10:27:30.978Z</time></trkpt><trkpt lat="44.2983828" lon="8.0855506"><ele>631.0</ele><time>2026-04-26T10:27:31.977Z</time></trkpt><trkpt lat="44.2985736" lon="8.0855034"><ele>631.0</ele><time>2026-04-26T10:27:32.978Z</time></trkpt><trkpt lat="44.2987785" lon="8.0854587"><ele>631.0</ele><time>2026-04-26T10:27:33.977Z</time></trkpt><trkpt lat="44.2989684" lon="8.0854317"><ele>631.0</ele><time>2026-04-26T10:27:34.977Z</time></trkpt><trkpt lat="44.2991483" lon="8.0854323"><ele>632.5</ele><time>2026-04-26T10:27:35.977Z</time></trkpt><trkpt lat="44.2992972" lon="8.0854404"><ele>634.0</ele><time>2026-04-26T10:27:36.977Z</time></trkpt><trkpt lat="44.2994267" lon="8.085457"><ele>635.5</ele><time>2026-04-26T10:27:37.977Z</time></trkpt><trkpt lat="44.2995376" lon="8.0854561"><ele>637.0</ele><time>2026-04-26T10:27:38.977Z</time></trkpt><trkpt lat="44.2996579" lon="8.0854304"><ele>638.75</ele><time>2026-04-26T10:27:39.977Z</time></trkpt><trkpt lat="44.299786" lon="8.0853546"><ele>640.5</ele><time>2026-04-26T10:27:40.977Z</time></trkpt><trkpt lat="44.299913" lon="8.0852408"><ele>642.25</ele><time>2026-04-26T10:27:41.977Z</time></trkpt><trkpt lat="44.3000509" lon="8.0851551"><ele>644.0</ele><time>2026-04-26T10:27:42.977Z</time></trkpt><trkpt lat="44.3001583" lon="8.0850994"><ele>644.0</ele><time>2026-04-26T10:27:43.977Z</time></trkpt><trkpt lat="44.300263" lon="8.0850393"><ele>644.0</ele><time>2026-04-26T10:27:44.977Z</time></trkpt><trkpt lat="44.3003582" lon="8.0849876"><ele>644.0</ele><time>2026-04-26T10:27:45.976Z</time></trkpt><trkpt lat="44.3004477" lon="8.0849039"><ele>644.0</ele><time>2026-04-26T10:27:46.976Z</time></trkpt><trkpt lat="44.300513" lon="8.0847911"><ele>644.0</ele><time>2026-04-26T10:27:47.976Z</time></trkpt><trkpt lat="44.300548" lon="8.084655"><ele>640.5</ele><time>2026-04-26T10:27:48.977Z</time></trkpt><trkpt lat="44.3005535" lon="8.0844913"><ele>637.0</ele><time>2026-04-26T10:27:49.976Z</time></trkpt><trkpt lat="44.3005258" lon="8.0843123"><ele>633.5</ele><time>2026-04-26T10:27:50.976Z</time></trkpt><trkpt lat="44.3004776" lon="8.0841345"><ele>630.0</ele><time>2026-04-26T10:27:51.976Z</time></trkpt><trkpt lat="44.3004388" lon="8.0839626"><ele>629.75</ele><time>2026-04-26T10:27:52.976Z</time></trkpt><trkpt lat="44.30041" lon="8.0837682"><ele>629.5</ele><time>2026-04-26T10:27:53.976Z</time></trkpt><trkpt lat="44.3004066" lon="8.0835635"><ele>629.25</ele><time>2026-04-26T10:27:54.976Z</time></trkpt><trkpt lat="44.3004054" lon="8.0833532"><ele>629.0</ele><time>2026-04-26T10:27:55.976Z</time></trkpt><trkpt lat="44.3003866" lon="8.0831589"><ele>629.0</ele><time>2026-04-26T10:27:56.976Z</time></trkpt><trkpt lat="44.3003337" lon="8.0829642"><ele>629.0</ele><time>2026-04-26T10:27:57.976Z</time></trkpt><trkpt lat="44.3002725" lon="8.0827855"><ele>629.0</ele><time>2026-04-26T10:27:58.976Z</time></trkpt><trkpt lat="44.3002325" lon="8.0826207"><ele>629.0</ele><time>2026-04-26T10:27:59.976Z</time></trkpt><trkpt lat="44.3002011" lon="8.0824852"><ele>626.5</ele><time>2026-04-26T10:28:00.976Z</time></trkpt><trkpt lat="44.3001799" lon="8.0823474"><ele>624.0</ele><time>2026-04-26T10:28:01.976Z</time></trkpt><trkpt lat="44.3001803" lon="8.0821967"><ele>621.5</ele><time>2026-04-26T10:28:02.976Z</time></trkpt><trkpt lat="44.3002065" lon="8.0820393"><ele>619.0</ele><time>2026-04-26T10:28:03.976Z</time></trkpt><trkpt lat="44.3002696" lon="8.0818641"><ele>619.0</ele><time>2026-04-26T10:28:04.976Z</time></trkpt><trkpt lat="44.3003592" lon="8.0816934"><ele>619.0</ele><time>2026-04-26T10:28:05.976Z</time></trkpt><trkpt lat="44.300442" lon="8.0815407"><ele>619.0</ele><time>2026-04-26T10:28:06.976Z</time></trkpt><trkpt lat="44.3005233" lon="8.0814014"><ele>619.0</ele><time>2026-04-26T10:28:07.976Z</time></trkpt><trkpt lat="44.3006064" lon="8.0812874"><ele>622.0</ele><time>2026-04-26T10:28:08.976Z</time></trkpt><trkpt lat="44.3006819" lon="8.0812039"><ele>625.0</ele><time>2026-04-26T10:28:09.977Z</time></trkpt><trkpt lat="44.3007777" lon="8.0811445"><ele>628.0</ele><time>2026-04-26T10:28:10.976Z</time></trkpt><trkpt lat="44.3008651" lon="8.0811055"><ele>631.0</ele><time>2026-04-26T10:28:11.976Z</time></trkpt><trkpt lat="44.3009363" lon="8.0810697"><ele>634.0</ele><time>2026-04-26T10:28:12.976Z</time></trkpt><trkpt lat="44.3010021" lon="8.0810565"><ele>637.0</ele><time>2026-04-26T10:28:13.976Z</time></trkpt><trkpt lat="44.3010872" lon="8.0809844"><ele>637.0</ele><time>2026-04-26T10:28:15.976Z</time></trkpt><trkpt lat="44.3009781" lon="8.0809282"><ele>637.0</ele><time>2026-04-26T10:28:18.976Z</time></trkpt><trkpt lat="44.3008741" lon="8.0808979"><ele>637.0</ele><time>2026-04-26T10:28:19.976Z</time></trkpt><trkpt lat="44.3007209" lon="8.0808476"><ele>637.0</ele><time>2026-04-26T10:28:20.976Z</time></trkpt><trkpt lat="44.3005167" lon="8.0807685"><ele>631.6666666666667</ele><time>2026-04-26T10:28:21.976Z</time></trkpt><trkpt lat="44.3003447" lon="8.0806689"><ele>626.3333333333334</ele><time>2026-04-26T10:28:22.976Z</time></trkpt><trkpt lat="44.3001817" lon="8.0805538"><ele>621.0</ele><time>2026-04-26T10:28:23.976Z</time></trkpt><trkpt lat="44.3000584" lon="8.0803977"><ele>621.0</ele><time>2026-04-26T10:28:24.976Z</time></trkpt><trkpt lat="44.2999482" lon="8.080219"><ele>621.0</ele><time>2026-04-26T10:28:25.976Z</time></trkpt><trkpt lat="44.2998418" lon="8.080041"><ele>621.0</ele><time>2026-04-26T10:28:26.976Z</time></trkpt><trkpt lat="44.2997545" lon="8.0798523"><ele>614.6</ele><time>2026-04-26T10:28:27.976Z</time></trkpt><trkpt lat="44.299694" lon="8.079716"><ele>608.2</ele><time>2026-04-26T10:28:28.976Z</time></trkpt><trkpt lat="44.2996582" lon="8.0795939"><ele>601.8</ele><time>2026-04-26T10:28:29.976Z</time></trkpt><trkpt lat="44.2996552" lon="8.0794612"><ele>595.4</ele><time>2026-04-26T10:28:30.976Z</time></trkpt><trkpt lat="44.2996777" lon="8.0793305"><ele>589.0</ele><time>2026-04-26T10:28:31.976Z</time></trkpt><trkpt lat="44.2997494" lon="8.0791864"><ele>592.25</ele><time>2026-04-26T10:28:32.976Z</time></trkpt><trkpt lat="44.2998581" lon="8.0790358"><ele>595.5</ele><time>2026-04-26T10:28:33.976Z</time></trkpt><trkpt lat="44.2999507" lon="8.078872"><ele>598.75</ele><time>2026-04-26T10:28:34.976Z</time></trkpt><trkpt lat="44.3000182" lon="8.0787096"><ele>602.0</ele><time>2026-04-26T10:28:35.976Z</time></trkpt><trkpt lat="44.3000804" lon="8.0785559"><ele>602.0</ele><time>2026-04-26T10:28:36.976Z</time></trkpt><trkpt lat="44.3001621" lon="8.0784066"><ele>602.0</ele><time>2026-04-26T10:28:37.976Z</time></trkpt><trkpt lat="44.3002678" lon="8.0782784"><ele>602.0</ele><time>2026-04-26T10:28:38.976Z</time></trkpt><trkpt lat="44.3003637" lon="8.0781646"><ele>602.0</ele><time>2026-04-26T10:28:39.976Z</time></trkpt><trkpt lat="44.3004439" lon="8.0780745"><ele>603.3333333333333</ele><time>2026-04-26T10:28:40.976Z</time></trkpt><trkpt lat="44.3005028" lon="8.0779959"><ele>604.6666666666666</ele><time>2026-04-26T10:28:41.976Z</time></trkpt><trkpt lat="44.30054" lon="8.0779064"><ele>606.0</ele><time>2026-04-26T10:28:42.976Z</time></trkpt><trkpt lat="44.3005588" lon="8.0778164"><ele>607.3333333333334</ele><time>2026-04-26T10:28:43.977Z</time></trkpt><trkpt lat="44.3005375" lon="8.0777288"><ele>608.6666666666667</ele><time>2026-04-26T10:28:44.977Z</time></trkpt><trkpt lat="44.3004875" lon="8.0776518"><ele>610.0</ele><time>2026-04-26T10:28:45.976Z</time></trkpt><trkpt lat="44.3003956" lon="8.0775696"><ele>610.0</ele><time>2026-04-26T10:28:46.976Z</time></trkpt><trkpt lat="44.300244" lon="8.0774994"><ele>610.0</ele><time>2026-04-26T10:28:47.976Z</time></trkpt><trkpt lat="44.3000575" lon="8.0774369"><ele>610.0</ele><time>2026-04-26T10:28:48.976Z</time></trkpt><trkpt lat="44.2998818" lon="8.0774203"><ele>606.3333333333334</ele><time>2026-04-26T10:28:49.976Z</time></trkpt><trkpt lat="44.2996661" lon="8.0774485"><ele>602.6666666666666</ele><time>2026-04-26T10:28:50.977Z</time></trkpt><trkpt lat="44.2994787" lon="8.0774529"><ele>599.0</ele><time>2026-04-26T10:28:51.976Z</time></trkpt><trkpt lat="44.2993221" lon="8.0774028"><ele>599.0</ele><time>2026-04-26T10:28:52.976Z</time></trkpt><trkpt lat="44.2991896" lon="8.0772788"><ele>599.0</ele><time>2026-04-26T10:28:53.976Z</time></trkpt><trkpt lat="44.2990648" lon="8.0771143"><ele>599.0</ele><time>2026-04-26T10:28:54.976Z</time></trkpt><trkpt lat="44.2989575" lon="8.076928"><ele>590.75</ele><time>2026-04-26T10:28:55.976Z</time></trkpt><trkpt lat="44.298866" lon="8.0767439"><ele>582.5</ele><time>2026-04-26T10:28:56.977Z</time></trkpt><trkpt lat="44.2987941" lon="8.0765657"><ele>574.25</ele><time>2026-04-26T10:28:57.976Z</time></trkpt><trkpt lat="44.2987396" lon="8.0763964"><ele>566.0</ele><time>2026-04-26T10:28:58.976Z</time></trkpt><trkpt lat="44.2987017" lon="8.0762445"><ele>565.0</ele><time>2026-04-26T10:28:59.976Z</time></trkpt><trkpt lat="44.2987073" lon="8.0760926"><ele>564.0</ele><time>2026-04-26T10:29:00.976Z</time></trkpt><trkpt lat="44.2987432" lon="8.075926"><ele>563.0</ele><time>2026-04-26T10:29:01.976Z</time></trkpt><trkpt lat="44.2988104" lon="8.0757368"><ele>562.0</ele><time>2026-04-26T10:29:02.976Z</time></trkpt><trkpt lat="44.298899" lon="8.0755389"><ele>565.0</ele><time>2026-04-26T10:29:03.976Z</time></trkpt><trkpt lat="44.2989852" lon="8.075357"><ele>568.0</ele><time>2026-04-26T10:29:04.976Z</time></trkpt><trkpt lat="44.2990944" lon="8.0752062"><ele>571.0</ele><time>2026-04-26T10:29:05.977Z</time></trkpt><trkpt lat="44.2992124" lon="8.0750713"><ele>571.0</ele><time>2026-04-26T10:29:06.976Z</time></trkpt><trkpt lat="44.2993379" lon="8.0749566"><ele>571.0</ele><time>2026-04-26T10:29:07.976Z</time></trkpt><trkpt lat="44.2994619" lon="8.0748928"><ele>571.0</ele><time>2026-04-26T10:29:08.976Z</time></trkpt><trkpt lat="44.2995784" lon="8.0748656"><ele>571.0</ele><time>2026-04-26T10:29:09.976Z</time></trkpt><trkpt lat="44.2996721" lon="8.0748258"><ele>573.0</ele><time>2026-04-26T10:29:10.976Z</time></trkpt><trkpt lat="44.2997536" lon="8.0747581"><ele>575.0</ele><time>2026-04-26T10:29:11.976Z</time></trkpt><trkpt lat="44.2997986" lon="8.0746347"><ele>577.0</ele><time>2026-04-26T10:29:12.977Z</time></trkpt><trkpt lat="44.299828" lon="8.0744725"><ele>579.0</ele><time>2026-04-26T10:29:13.976Z</time></trkpt><trkpt lat="44.2998627" lon="8.0742964"><ele>581.0</ele><time>2026-04-26T10:29:14.976Z</time></trkpt><trkpt lat="44.2999182" lon="8.0741371"><ele>578.75</ele><time>2026-04-26T10:29:15.976Z</time></trkpt><trkpt lat="44.299946" lon="8.073977"><ele>576.5</ele><time>2026-04-26T10:29:16.976Z</time></trkpt><trkpt lat="44.2999327" lon="8.0738023"><ele>574.25</ele><time>2026-04-26T10:29:17.976Z</time></trkpt><trkpt lat="44.2998969" lon="8.0736561"><ele>572.0</ele><time>2026-04-26T10:29:18.976Z</time></trkpt><trkpt lat="44.2998784" lon="8.0735067"><ele>572.0</ele><time>2026-04-26T10:29:19.976Z</time></trkpt><trkpt lat="44.2998888" lon="8.0733465"><ele>572.0</ele><time>2026-04-26T10:29:20.976Z</time></trkpt><trkpt lat="44.2999268" lon="8.073184"><ele>572.0</ele><time>2026-04-26T10:29:21.976Z</time></trkpt><trkpt lat="44.299952" lon="8.0729893"><ele>572.0</ele><time>2026-04-26T10:29:22.976Z</time></trkpt><trkpt lat="44.2999636" lon="8.0727732"><ele>570.0</ele><time>2026-04-26T10:29:23.976Z</time></trkpt><trkpt lat="44.299984" lon="8.0725739"><ele>568.0</ele><time>2026-04-26T10:29:24.976Z</time></trkpt><trkpt lat="44.3000153" lon="8.0724073"><ele>566.0</ele><time>2026-04-26T10:29:25.976Z</time></trkpt><trkpt lat="44.3000571" lon="8.0722674"><ele>564.0</ele><time>2026-04-26T10:29:26.976Z</time></trkpt><trkpt lat="44.3000864" lon="8.0721473"><ele>561.4</ele><time>2026-04-26T10:29:27.976Z</time></trkpt><trkpt lat="44.3001061" lon="8.0720385"><ele>558.8</ele><time>2026-04-26T10:29:28.976Z</time></trkpt><trkpt lat="44.300076" lon="8.0719153"><ele>556.2</ele><time>2026-04-26T10:29:30.976Z</time></trkpt><trkpt lat="44.2999809" lon="8.0719715"><ele>553.6</ele><time>2026-04-26T10:29:32.976Z</time></trkpt><trkpt lat="44.299906" lon="8.072113"><ele>551.0</ele><time>2026-04-26T10:29:33.976Z</time></trkpt><trkpt lat="44.2998155" lon="8.0723391"><ele>546.0</ele><time>2026-04-26T10:29:34.976Z</time></trkpt><trkpt lat="44.2997165" lon="8.0726506"><ele>541.0</ele><time>2026-04-26T10:29:35.976Z</time></trkpt><trkpt lat="44.2996302" lon="8.0729293"><ele>541.0</ele><time>2026-04-26T10:29:36.977Z</time></trkpt><trkpt lat="44.2995438" lon="8.0731534"><ele>541.0</ele><time>2026-04-26T10:29:37.976Z</time></trkpt><trkpt lat="44.2994779" lon="8.0733588"><ele>541.0</ele><time>2026-04-26T10:29:38.976Z</time></trkpt><trkpt lat="44.2994367" lon="8.0735804"><ele>542.3333333333334</ele><time>2026-04-26T10:29:39.976Z</time></trkpt><trkpt lat="44.2994065" lon="8.0737953"><ele>543.6666666666666</ele><time>2026-04-26T10:29:40.976Z</time></trkpt><trkpt lat="44.2993568" lon="8.0739956"><ele>545.0</ele><time>2026-04-26T10:29:41.976Z</time></trkpt><trkpt lat="44.2992826" lon="8.0741733"><ele>545.25</ele><time>2026-04-26T10:29:42.976Z</time></trkpt><trkpt lat="44.2991736" lon="8.0743229"><ele>545.5</ele><time>2026-04-26T10:29:43.976Z</time></trkpt><trkpt lat="44.2990665" lon="8.0744404"><ele>545.75</ele><time>2026-04-26T10:29:44.976Z</time></trkpt><trkpt lat="44.298969" lon="8.0745321"><ele>546.0</ele><time>2026-04-26T10:29:45.976Z</time></trkpt><trkpt lat="44.2988839" lon="8.0745943"><ele>546.0</ele><time>2026-04-26T10:29:46.976Z</time></trkpt><trkpt lat="44.2988181" lon="8.074615"><ele>546.0</ele><time>2026-04-26T10:29:47.976Z</time></trkpt><trkpt lat="44.2987192" lon="8.074554"><ele>546.0</ele><time>2026-04-26T10:29:49.976Z</time></trkpt><trkpt lat="44.2987652" lon="8.0743788"><ele>546.0</ele><time>2026-04-26T10:29:51.976Z</time></trkpt><trkpt lat="44.2988426" lon="8.0742243"><ele>546.0</ele><time>2026-04-26T10:29:52.976Z</time></trkpt><trkpt lat="44.2989453" lon="8.0740198"><ele>545.6666666666666</ele><time>2026-04-26T10:29:53.976Z</time></trkpt><trkpt lat="44.2990278" lon="8.0737679"><ele>545.3333333333333</ele><time>2026-04-26T10:29:54.977Z</time></trkpt><trkpt lat="44.299068" lon="8.0735129"><ele>545.0</ele><time>2026-04-26T10:29:55.976Z</time></trkpt><trkpt lat="44.2991071" lon="8.0732604"><ele>544.0</ele><time>2026-04-26T10:29:56.976Z</time></trkpt><trkpt lat="44.299118" lon="8.073046"><ele>543.0</ele><time>2026-04-26T10:29:57.976Z</time></trkpt><trkpt lat="44.2991253" lon="8.0728694"><ele>542.0</ele><time>2026-04-26T10:29:58.976Z</time></trkpt><trkpt lat="44.299123" lon="8.0726908"><ele>541.0</ele><time>2026-04-26T10:29:59.976Z</time></trkpt><trkpt lat="44.2991198" lon="8.072507"><ele>539.5</ele><time>2026-04-26T10:30:00.977Z</time></trkpt><trkpt lat="44.2991178" lon="8.0723223"><ele>538.0</ele><time>2026-04-26T10:30:01.976Z</time></trkpt><trkpt lat="44.2991108" lon="8.0721261"><ele>536.5</ele><time>2026-04-26T10:30:02.976Z</time></trkpt><trkpt lat="44.299108" lon="8.0719275"><ele>535.0</ele><time>2026-04-26T10:30:03.977Z</time></trkpt><trkpt lat="44.2991026" lon="8.071727"><ele>534.5</ele><time>2026-04-26T10:30:04.977Z</time></trkpt><trkpt lat="44.2990923" lon="8.071534"><ele>534.0</ele><time>2026-04-26T10:30:05.976Z</time></trkpt><trkpt lat="44.2990779" lon="8.0713503"><ele>533.5</ele><time>2026-04-26T10:30:06.976Z</time></trkpt><trkpt lat="44.299045" lon="8.0711837"><ele>533.0</ele><time>2026-04-26T10:30:07.976Z</time></trkpt><trkpt lat="44.2990268" lon="8.0710175"><ele>533.0</ele><time>2026-04-26T10:30:08.976Z</time></trkpt><trkpt lat="44.2990173" lon="8.0708463"><ele>533.0</ele><time>2026-04-26T10:30:09.976Z</time></trkpt><trkpt lat="44.2990253" lon="8.0706708"><ele>533.0</ele><time>2026-04-26T10:30:10.976Z</time></trkpt><trkpt lat="44.2990355" lon="8.0704845"><ele>533.0</ele><time>2026-04-26T10:30:11.976Z</time></trkpt><trkpt lat="44.2990358" lon="8.0703021"><ele>532.75</ele><time>2026-04-26T10:30:12.976Z</time></trkpt><trkpt lat="44.2990313" lon="8.0701268"><ele>532.5</ele><time>2026-04-26T10:30:13.976Z</time></trkpt><trkpt lat="44.2990148" lon="8.0699603"><ele>532.25</ele><time>2026-04-26T10:30:14.976Z</time></trkpt><trkpt lat="44.2990054" lon="8.0697848"><ele>532.0</ele><time>2026-04-26T10:30:15.977Z</time></trkpt><trkpt lat="44.298995" lon="8.0696042"><ele>530.75</ele><time>2026-04-26T10:30:16.976Z</time></trkpt><trkpt lat="44.2989929" lon="8.069416"><ele>529.5</ele><time>2026-04-26T10:30:17.976Z</time></trkpt><trkpt lat="44.2990159" lon="8.0692249"><ele>528.25</ele><time>2026-04-26T10:30:18.976Z</time></trkpt><trkpt lat="44.2990731" lon="8.0690316"><ele>527.0</ele><time>2026-04-26T10:30:19.976Z</time></trkpt><trkpt lat="44.2991294" lon="8.0688367"><ele>526.0</ele><time>2026-04-26T10:30:20.977Z</time></trkpt><trkpt lat="44.2992015" lon="8.0686468"><ele>525.0</ele><time>2026-04-26T10:30:21.976Z</time></trkpt><trkpt lat="44.2992989" lon="8.0684464"><ele>524.0</ele><time>2026-04-26T10:30:22.976Z</time></trkpt><trkpt lat="44.2993764" lon="8.0682495"><ele>523.3333333333333</ele><time>2026-04-26T10:30:23.976Z</time></trkpt><trkpt lat="44.2994592" lon="8.0680249"><ele>522.6666666666666</ele><time>2026-04-26T10:30:24.976Z</time></trkpt><trkpt lat="44.2995415" lon="8.067799"><ele>522.0</ele><time>2026-04-26T10:30:25.976Z</time></trkpt><trkpt lat="44.2996278" lon="8.0675715"><ele>522.3333333333334</ele><time>2026-04-26T10:30:26.977Z</time></trkpt><trkpt lat="44.2997159" lon="8.067343"><ele>522.6666666666667</ele><time>2026-04-26T10:30:27.977Z</time></trkpt><trkpt lat="44.2998043" lon="8.0671075"><ele>523.0</ele><time>2026-04-26T10:30:28.976Z</time></trkpt><trkpt lat="44.2998963" lon="8.0668744"><ele>524.0</ele><time>2026-04-26T10:30:29.976Z</time></trkpt><trkpt lat="44.2999927" lon="8.0666442"><ele>525.0</ele><time>2026-04-26T10:30:30.976Z</time></trkpt><trkpt lat="44.3000952" lon="8.0664108"><ele>526.0</ele><time>2026-04-26T10:30:31.976Z</time></trkpt><trkpt lat="44.3001857" lon="8.0661831"><ele>524.0</ele><time>2026-04-26T10:30:32.976Z</time></trkpt><trkpt lat="44.3002731" lon="8.0659496"><ele>522.0</ele><time>2026-04-26T10:30:33.976Z</time></trkpt><trkpt lat="44.3003628" lon="8.0657158"><ele>520.0</ele><time>2026-04-26T10:30:34.977Z</time></trkpt><trkpt lat="44.3004458" lon="8.0654753"><ele>519.3333333333334</ele><time>2026-04-26T10:30:35.976Z</time></trkpt><trkpt lat="44.300523" lon="8.0652362"><ele>518.6666666666666</ele><time>2026-04-26T10:30:36.976Z</time></trkpt><trkpt lat="44.300603" lon="8.0650143"><ele>518.0</ele><time>2026-04-26T10:30:37.976Z</time></trkpt><trkpt lat="44.3006863" lon="8.0647958"><ele>518.0</ele><time>2026-04-26T10:30:38.976Z</time></trkpt><trkpt lat="44.3007769" lon="8.0645711"><ele>518.0</ele><time>2026-04-26T10:30:39.976Z</time></trkpt><trkpt lat="44.3008559" lon="8.0643284"><ele>518.0</ele><time>2026-04-26T10:30:40.977Z</time></trkpt><trkpt lat="44.3009315" lon="8.0640748"><ele>516.0</ele><time>2026-04-26T10:30:41.976Z</time></trkpt><trkpt lat="44.3009878" lon="8.0638366"><ele>514.0</ele><time>2026-04-26T10:30:42.977Z</time></trkpt><trkpt lat="44.301057" lon="8.0635873"><ele>512.0</ele><time>2026-04-26T10:30:43.976Z</time></trkpt><trkpt lat="44.3011278" lon="8.0633413"><ele>511.0</ele><time>2026-04-26T10:30:44.976Z</time></trkpt><trkpt lat="44.3011964" lon="8.0631227"><ele>510.0</ele><time>2026-04-26T10:30:45.976Z</time></trkpt><trkpt lat="44.3012679" lon="8.0628948"><ele>509.0</ele><time>2026-04-26T10:30:46.976Z</time></trkpt><trkpt lat="44.3013471" lon="8.0626751"><ele>509.66666666666663</ele><time>2026-04-26T10:30:47.976Z</time></trkpt><trkpt lat="44.3014387" lon="8.0624544"><ele>510.33333333333337</ele><time>2026-04-26T10:30:48.977Z</time></trkpt><trkpt lat="44.3015369" lon="8.0622306"><ele>511.0</ele><time>2026-04-26T10:30:49.976Z</time></trkpt><trkpt lat="44.3016458" lon="8.0620028"><ele>511.0</ele><time>2026-04-26T10:30:50.976Z</time></trkpt><trkpt lat="44.3017545" lon="8.0617678"><ele>511.0</ele><time>2026-04-26T10:30:51.976Z</time></trkpt><trkpt lat="44.3018612" lon="8.0615252"><ele>511.0</ele><time>2026-04-26T10:30:52.976Z</time></trkpt><trkpt lat="44.3019681" lon="8.061276"><ele>509.33333333333337</ele><time>2026-04-26T10:30:53.976Z</time></trkpt><trkpt lat="44.3020814" lon="8.0610404"><ele>507.66666666666663</ele><time>2026-04-26T10:30:54.976Z</time></trkpt><trkpt lat="44.3022112" lon="8.060805"><ele>506.0</ele><time>2026-04-26T10:30:55.976Z</time></trkpt><trkpt lat="44.3023269" lon="8.0605719"><ele>506.0</ele><time>2026-04-26T10:30:56.976Z</time></trkpt><trkpt lat="44.302444" lon="8.0603289"><ele>506.0</ele><time>2026-04-26T10:30:57.976Z</time></trkpt><trkpt lat="44.302558" lon="8.0600812"><ele>506.0</ele><time>2026-04-26T10:30:58.976Z</time></trkpt><trkpt lat="44.3026691" lon="8.0598416"><ele>504.0</ele><time>2026-04-26T10:30:59.976Z</time></trkpt><trkpt lat="44.302783" lon="8.059603"><ele>502.0</ele><time>2026-04-26T10:31:00.976Z</time></trkpt><trkpt lat="44.3029002" lon="8.0593634"><ele>500.0</ele><time>2026-04-26T10:31:01.976Z</time></trkpt><trkpt lat="44.30302" lon="8.0591218"><ele>499.3333333333333</ele><time>2026-04-26T10:31:02.976Z</time></trkpt><trkpt lat="44.3031421" lon="8.0588871"><ele>498.66666666666663</ele><time>2026-04-26T10:31:03.976Z</time></trkpt><trkpt lat="44.3032763" lon="8.0586633"><ele>498.0</ele><time>2026-04-26T10:31:04.976Z</time></trkpt><trkpt lat="44.3034297" lon="8.0584528"><ele>497.66666666666663</ele><time>2026-04-26T10:31:05.976Z</time></trkpt><trkpt lat="44.3035963" lon="8.0582592"><ele>497.3333333333333</ele><time>2026-04-26T10:31:06.976Z</time></trkpt><trkpt lat="44.303766" lon="8.0580502"><ele>497.0</ele><time>2026-04-26T10:31:07.976Z</time></trkpt><trkpt lat="44.3039239" lon="8.0578351"><ele>497.0</ele><time>2026-04-26T10:31:08.976Z</time></trkpt><trkpt lat="44.3040826" lon="8.0576209"><ele>497.0</ele><time>2026-04-26T10:31:09.976Z</time></trkpt><trkpt lat="44.3042452" lon="8.0574045"><ele>497.0</ele><time>2026-04-26T10:31:10.976Z</time></trkpt><trkpt lat="44.3044072" lon="8.0571817"><ele>493.66666666666663</ele><time>2026-04-26T10:31:11.976Z</time></trkpt><trkpt lat="44.3045631" lon="8.056962"><ele>490.33333333333337</ele><time>2026-04-26T10:31:12.976Z</time></trkpt><trkpt lat="44.3047148" lon="8.0567497"><ele>487.0</ele><time>2026-04-26T10:31:13.976Z</time></trkpt><trkpt lat="44.3048504" lon="8.0565499"><ele>487.0</ele><time>2026-04-26T10:31:14.976Z</time></trkpt><trkpt lat="44.304972" lon="8.0563655"><ele>487.0</ele><time>2026-04-26T10:31:15.976Z</time></trkpt><trkpt lat="44.3051026" lon="8.0562059"><ele>487.0</ele><time>2026-04-26T10:31:16.976Z</time></trkpt><trkpt lat="44.3052593" lon="8.0560757"><ele>487.0</ele><time>2026-04-26T10:31:17.976Z</time></trkpt><trkpt lat="44.3054361" lon="8.0559656"><ele>487.0</ele><time>2026-04-26T10:31:18.976Z</time></trkpt><trkpt lat="44.3056143" lon="8.0558575"><ele>487.0</ele><time>2026-04-26T10:31:19.977Z</time></trkpt><trkpt lat="44.3058123" lon="8.0557533"><ele>484.33333333333337</ele><time>2026-04-26T10:31:20.976Z</time></trkpt><trkpt lat="44.3060071" lon="8.0556508"><ele>481.66666666666663</ele><time>2026-04-26T10:31:21.976Z</time></trkpt><trkpt lat="44.3061987" lon="8.0555473"><ele>479.0</ele><time>2026-04-26T10:31:22.976Z</time></trkpt><trkpt lat="44.3063781" lon="8.0554438"><ele>480.0</ele><time>2026-04-26T10:31:23.976Z</time></trkpt><trkpt lat="44.3065448" lon="8.0553419"><ele>481.0</ele><time>2026-04-26T10:31:24.977Z</time></trkpt><trkpt lat="44.3067085" lon="8.0552464"><ele>482.0</ele><time>2026-04-26T10:31:25.977Z</time></trkpt><trkpt lat="44.306872" lon="8.0551615"><ele>482.0</ele><time>2026-04-26T10:31:26.976Z</time></trkpt><trkpt lat="44.3070242" lon="8.0550837"><ele>482.0</ele><time>2026-04-26T10:31:27.976Z</time></trkpt><trkpt lat="44.3071612" lon="8.0550224"><ele>482.0</ele><time>2026-04-26T10:31:28.976Z</time></trkpt><trkpt lat="44.3072749" lon="8.0549576"><ele>482.0</ele><time>2026-04-26T10:31:29.976Z</time></trkpt><trkpt lat="44.3073697" lon="8.05489"><ele>480.8</ele><time>2026-04-26T10:31:30.976Z</time></trkpt><trkpt lat="44.3074455" lon="8.0547974"><ele>479.6</ele><time>2026-04-26T10:31:31.976Z</time></trkpt><trkpt lat="44.3074905" lon="8.0546885"><ele>478.40000000000003</ele><time>2026-04-26T10:31:32.976Z</time></trkpt><trkpt lat="44.3075082" lon="8.0545609"><ele>477.20000000000005</ele><time>2026-04-26T10:31:33.976Z</time></trkpt><trkpt lat="44.3075137" lon="8.0544124"><ele>476.0</ele><time>2026-04-26T10:31:34.976Z</time></trkpt><trkpt lat="44.3075112" lon="8.054225"><ele>475.66666666666663</ele><time>2026-04-26T10:31:35.977Z</time></trkpt><trkpt lat="44.3075024" lon="8.0539996"><ele>475.33333333333337</ele><time>2026-04-26T10:31:36.976Z</time></trkpt><trkpt lat="44.3074949" lon="8.0537662"><ele>475.0</ele><time>2026-04-26T10:31:37.976Z</time></trkpt><trkpt lat="44.3074919" lon="8.0535396"><ele>475.0</ele><time>2026-04-26T10:31:38.976Z</time></trkpt><trkpt lat="44.3074887" lon="8.053323"><ele>475.0</ele><time>2026-04-26T10:31:39.976Z</time></trkpt><trkpt lat="44.3074846" lon="8.0531043"><ele>475.0</ele><time>2026-04-26T10:31:40.976Z</time></trkpt><trkpt lat="44.3074761" lon="8.0528881"><ele>475.75</ele><time>2026-04-26T10:31:41.976Z</time></trkpt><trkpt lat="44.3074679" lon="8.0526724"><ele>476.5</ele><time>2026-04-26T10:31:42.976Z</time></trkpt><trkpt lat="44.3074567" lon="8.0524697"><ele>477.25</ele><time>2026-04-26T10:31:43.976Z</time></trkpt><trkpt lat="44.3074263" lon="8.052277"><ele>478.0</ele><time>2026-04-26T10:31:44.976Z</time></trkpt><trkpt lat="44.3073685" lon="8.0520953"><ele>478.0</ele><time>2026-04-26T10:31:45.976Z</time></trkpt><trkpt lat="44.3072816" lon="8.0519313"><ele>478.0</ele><time>2026-04-26T10:31:46.976Z</time></trkpt><trkpt lat="44.3071749" lon="8.0517857"><ele>478.0</ele><time>2026-04-26T10:31:47.976Z</time></trkpt><trkpt lat="44.3070727" lon="8.0516374"><ele>478.0</ele><time>2026-04-26T10:31:48.977Z</time></trkpt><trkpt lat="44.3069925" lon="8.0514651"><ele>478.25</ele><time>2026-04-26T10:31:49.976Z</time></trkpt><trkpt lat="44.3069537" lon="8.0512641"><ele>478.5</ele><time>2026-04-26T10:31:50.976Z</time></trkpt><trkpt lat="44.3069486" lon="8.051055"><ele>478.75</ele><time>2026-04-26T10:31:51.976Z</time></trkpt><trkpt lat="44.3069685" lon="8.0508478"><ele>479.0</ele><time>2026-04-26T10:31:52.976Z</time></trkpt><trkpt lat="44.3069967" lon="8.0506398"><ele>479.3333333333333</ele><time>2026-04-26T10:31:53.977Z</time></trkpt><trkpt lat="44.307022" lon="8.0504315"><ele>479.66666666666663</ele><time>2026-04-26T10:31:54.976Z</time></trkpt><trkpt lat="44.3070419" lon="8.0502173"><ele>480.0</ele><time>2026-04-26T10:31:55.976Z</time></trkpt><trkpt lat="44.3070657" lon="8.0500138"><ele>480.25</ele><time>2026-04-26T10:31:56.976Z</time></trkpt><trkpt lat="44.3070901" lon="8.0498037"><ele>480.5</ele><time>2026-04-26T10:31:57.976Z</time></trkpt><trkpt lat="44.307106" lon="8.0496032"><ele>480.75</ele><time>2026-04-26T10:31:58.976Z</time></trkpt><trkpt lat="44.3071268" lon="8.0493926"><ele>481.0</ele><time>2026-04-26T10:31:59.976Z</time></trkpt><trkpt lat="44.3071402" lon="8.0491904"><ele>481.5</ele><time>2026-04-26T10:32:00.976Z</time></trkpt><trkpt lat="44.3071576" lon="8.049004"><ele>482.0</ele><time>2026-04-26T10:32:01.976Z</time></trkpt><trkpt lat="44.3071716" lon="8.0488339"><ele>482.5</ele><time>2026-04-26T10:32:02.976Z</time></trkpt><trkpt lat="44.3071783" lon="8.0486705"><ele>483.0</ele><time>2026-04-26T10:32:03.976Z</time></trkpt><trkpt lat="44.3071814" lon="8.0485034"><ele>483.0</ele><time>2026-04-26T10:32:04.976Z</time></trkpt><trkpt lat="44.3071843" lon="8.0483312"><ele>483.0</ele><time>2026-04-26T10:32:05.976Z</time></trkpt><trkpt lat="44.3071992" lon="8.0481564"><ele>483.0</ele><time>2026-04-26T10:32:06.976Z</time></trkpt><trkpt lat="44.3072135" lon="8.047985"><ele>483.0</ele><time>2026-04-26T10:32:07.976Z</time></trkpt><trkpt lat="44.3072186" lon="8.0478133"><ele>483.0</ele><time>2026-04-26T10:32:08.976Z</time></trkpt><trkpt lat="44.3072259" lon="8.047638"><ele>483.0</ele><time>2026-04-26T10:32:09.976Z</time></trkpt><trkpt lat="44.3072305" lon="8.0474658"><ele>483.0</ele><time>2026-04-26T10:32:10.976Z</time></trkpt><trkpt lat="44.3072271" lon="8.0473097"><ele>483.0</ele><time>2026-04-26T10:32:11.976Z</time></trkpt><trkpt lat="44.3072224" lon="8.0471707"><ele>483.5</ele><time>2026-04-26T10:32:12.976Z</time></trkpt><trkpt lat="44.3072147" lon="8.0470534"><ele>484.0</ele><time>2026-04-26T10:32:13.976Z</time></trkpt><trkpt lat="44.3072185" lon="8.0469391"><ele>484.5</ele><time>2026-04-26T10:32:14.976Z</time></trkpt><trkpt lat="44.307224" lon="8.0468359"><ele>485.0</ele><time>2026-04-26T10:32:15.976Z</time></trkpt><trkpt lat="44.307231" lon="8.0467388"><ele>485.5</ele><time>2026-04-26T10:32:16.976Z</time></trkpt><trkpt lat="44.3072401" lon="8.0466478"><ele>486.0</ele><time>2026-04-26T10:32:17.976Z</time></trkpt><trkpt lat="44.3072488" lon="8.046507"><ele>486.20000000000005</ele><time>2026-04-26T10:32:19.976Z</time></trkpt><trkpt lat="44.307235" lon="8.0464033"><ele>486.40000000000003</ele><time>2026-04-26T10:33:23.975Z</time></trkpt><trkpt lat="44.3072883" lon="8.0462933"><ele>486.6</ele><time>2026-04-26T10:33:26.975Z</time></trkpt><trkpt lat="44.3073917" lon="8.0462367"><ele>486.8</ele><time>2026-04-26T10:33:28.975Z</time></trkpt><trkpt lat="44.3074783" lon="8.0462167"><ele>487.0</ele><time>2026-04-26T10:33:29.975Z</time></trkpt><trkpt lat="44.307575" lon="8.046275"><ele>487.5</ele><time>2026-04-26T10:33:30.975Z</time></trkpt><trkpt lat="44.307685" lon="8.0463317"><ele>488.0</ele><time>2026-04-26T10:33:31.975Z</time></trkpt><trkpt lat="44.30782" lon="8.0463967"><ele>488.5</ele><time>2026-04-26T10:33:32.975Z</time></trkpt><trkpt lat="44.3079783" lon="8.0464817"><ele>489.0</ele><time>2026-04-26T10:33:33.975Z</time></trkpt><trkpt lat="44.3081517" lon="8.04658"><ele>487.66666666666663</ele><time>2026-04-26T10:33:34.975Z</time></trkpt><trkpt lat="44.3083233" lon="8.046675"><ele>486.3333333333333</ele><time>2026-04-26T10:33:35.975Z</time></trkpt><trkpt lat="44.308495" lon="8.0467533"><ele>485.0</ele><time>2026-04-26T10:33:36.976Z</time></trkpt><trkpt lat="44.3086633" lon="8.046825"><ele>485.0</ele><time>2026-04-26T10:33:37.975Z</time></trkpt><trkpt lat="44.30883" lon="8.0468983"><ele>485.0</ele><time>2026-04-26T10:33:38.975Z</time></trkpt><trkpt lat="44.3090033" lon="8.0469883"><ele>485.0</ele><time>2026-04-26T10:33:39.975Z</time></trkpt><trkpt lat="44.3091783" lon="8.0470617"><ele>484.66666666666663</ele><time>2026-04-26T10:33:40.975Z</time></trkpt><trkpt lat="44.3093517" lon="8.0471367"><ele>484.33333333333337</ele><time>2026-04-26T10:33:41.975Z</time></trkpt><trkpt lat="44.3095233" lon="8.047195"><ele>484.0</ele><time>2026-04-26T10:33:42.975Z</time></trkpt><trkpt lat="44.30969" lon="8.04725"><ele>485.0</ele><time>2026-04-26T10:33:43.975Z</time></trkpt><trkpt lat="44.30985" lon="8.0473117"><ele>486.0</ele><time>2026-04-26T10:33:44.975Z</time></trkpt><trkpt lat="44.3100083" lon="8.0473883"><ele>487.0</ele><time>2026-04-26T10:33:45.976Z</time></trkpt><trkpt lat="44.31018" lon="8.0474617"><ele>485.6666666666667</ele><time>2026-04-26T10:33:46.975Z</time></trkpt><trkpt lat="44.3103467" lon="8.04752"><ele>484.33333333333337</ele><time>2026-04-26T10:33:47.975Z</time></trkpt><trkpt lat="44.310515" lon="8.0475717"><ele>483.0</ele><time>2026-04-26T10:33:48.975Z</time></trkpt><trkpt lat="44.3106833" lon="8.0476333"><ele>483.0</ele><time>2026-04-26T10:33:49.975Z</time></trkpt><trkpt lat="44.3108417" lon="8.0476917"><ele>483.0</ele><time>2026-04-26T10:33:50.975Z</time></trkpt><trkpt lat="44.3109967" lon="8.0477517"><ele>483.0</ele><time>2026-04-26T10:33:51.975Z</time></trkpt><trkpt lat="44.3111533" lon="8.0478167"><ele>483.0</ele><time>2026-04-26T10:33:52.975Z</time></trkpt><trkpt lat="44.31131" lon="8.0478717"><ele>483.0</ele><time>2026-04-26T10:33:53.975Z</time></trkpt><trkpt lat="44.3114583" lon="8.0479317"><ele>483.0</ele><time>2026-04-26T10:33:54.975Z</time></trkpt><trkpt lat="44.3116017" lon="8.0479783"><ele>482.66666666666663</ele><time>2026-04-26T10:33:55.975Z</time></trkpt><trkpt lat="44.31175" lon="8.0480267"><ele>482.3333333333333</ele><time>2026-04-26T10:33:56.975Z</time></trkpt><trkpt lat="44.3119017" lon="8.0480883"><ele>482.0</ele><time>2026-04-26T10:33:57.975Z</time></trkpt><trkpt lat="44.3120517" lon="8.0481433"><ele>482.0</ele><time>2026-04-26T10:33:58.975Z</time></trkpt><trkpt lat="44.312195" lon="8.0482117"><ele>482.0</ele><time>2026-04-26T10:33:59.975Z</time></trkpt><trkpt lat="44.3123417" lon="8.0482633"><ele>482.0</ele><time>2026-04-26T10:34:00.975Z</time></trkpt><trkpt lat="44.31249" lon="8.04832"><ele>481.25</ele><time>2026-04-26T10:34:01.975Z</time></trkpt><trkpt lat="44.3126417" lon="8.048375"><ele>480.5</ele><time>2026-04-26T10:34:02.975Z</time></trkpt><trkpt lat="44.312785" lon="8.0484317"><ele>479.75</ele><time>2026-04-26T10:34:03.976Z</time></trkpt><trkpt lat="44.3129117" lon="8.04848"><ele>479.0</ele><time>2026-04-26T10:34:04.975Z</time></trkpt><trkpt lat="44.313045" lon="8.0485267"><ele>478.66666666666663</ele><time>2026-04-26T10:34:05.975Z</time></trkpt><trkpt lat="44.3132" lon="8.0485683"><ele>478.33333333333337</ele><time>2026-04-26T10:34:06.975Z</time></trkpt><trkpt lat="44.3133817" lon="8.0486167"><ele>478.0</ele><time>2026-04-26T10:34:07.975Z</time></trkpt><trkpt lat="44.313565" lon="8.0486867"><ele>478.0</ele><time>2026-04-26T10:34:08.975Z</time></trkpt><trkpt lat="44.3137717" lon="8.0487767"><ele>478.0</ele><time>2026-04-26T10:34:09.975Z</time></trkpt><trkpt lat="44.314005" lon="8.0488733"><ele>477.5</ele><time>2026-04-26T10:34:10.975Z</time></trkpt><trkpt lat="44.3142733" lon="8.0489667"><ele>477.0</ele><time>2026-04-26T10:34:11.975Z</time></trkpt><trkpt lat="44.3145733" lon="8.0490783"><ele>478.0</ele><time>2026-04-26T10:34:12.975Z</time></trkpt><trkpt lat="44.3148958" lon="8.0491936"><ele>479.0</ele><time>2026-04-26T10:34:13.975Z</time></trkpt><trkpt lat="44.3152352" lon="8.0493182"><ele>479.0</ele><time>2026-04-26T10:34:14.975Z</time></trkpt><trkpt lat="44.3155561" lon="8.049434"><ele>479.0</ele><time>2026-04-26T10:34:15.975Z</time></trkpt><trkpt lat="44.3158308" lon="8.0495329"><ele>480.5</ele><time>2026-04-26T10:34:16.975Z</time></trkpt><trkpt lat="44.3160776" lon="8.0496273"><ele>482.0</ele><time>2026-04-26T10:34:17.975Z</time></trkpt><trkpt lat="44.3163056" lon="8.0497141"><ele>481.66666666666663</ele><time>2026-04-26T10:34:18.975Z</time></trkpt><trkpt lat="44.316513" lon="8.0497921"><ele>481.33333333333337</ele><time>2026-04-26T10:34:19.975Z</time></trkpt><trkpt lat="44.3167078" lon="8.0498658"><ele>481.0</ele><time>2026-04-26T10:34:20.976Z</time></trkpt><trkpt lat="44.3168979" lon="8.0499369"><ele>480.33333333333337</ele><time>2026-04-26T10:34:21.975Z</time></trkpt><trkpt lat="44.3170895" lon="8.0500085"><ele>479.66666666666663</ele><time>2026-04-26T10:34:22.975Z</time></trkpt><trkpt lat="44.3172748" lon="8.0500752"><ele>479.0</ele><time>2026-04-26T10:34:23.975Z</time></trkpt><trkpt lat="44.3174618" lon="8.0501486"><ele>478.66666666666663</ele><time>2026-04-26T10:34:24.975Z</time></trkpt><trkpt lat="44.3176535" lon="8.0502257"><ele>478.33333333333337</ele><time>2026-04-26T10:34:25.975Z</time></trkpt><trkpt lat="44.3178456" lon="8.050311"><ele>478.0</ele><time>2026-04-26T10:34:26.975Z</time></trkpt><trkpt lat="44.3180387" lon="8.0504015"><ele>478.33333333333337</ele><time>2026-04-26T10:34:27.975Z</time></trkpt><trkpt lat="44.3182452" lon="8.0504788"><ele>478.66666666666663</ele><time>2026-04-26T10:34:28.975Z</time></trkpt><trkpt lat="44.3184543" lon="8.0505484"><ele>479.0</ele><time>2026-04-26T10:34:29.975Z</time></trkpt><trkpt lat="44.3186588" lon="8.0506137"><ele>479.0</ele><time>2026-04-26T10:34:30.975Z</time></trkpt><trkpt lat="44.3188641" lon="8.0506727"><ele>479.0</ele><time>2026-04-26T10:34:31.975Z</time></trkpt><trkpt lat="44.3190711" lon="8.0507312"><ele>479.0</ele><time>2026-04-26T10:34:32.975Z</time></trkpt><trkpt lat="44.3192885" lon="8.0507812"><ele>477.66666666666663</ele><time>2026-04-26T10:34:33.975Z</time></trkpt><trkpt lat="44.319499" lon="8.0508308"><ele>476.33333333333337</ele><time>2026-04-26T10:34:34.975Z</time></trkpt><trkpt lat="44.3197117" lon="8.0508746"><ele>475.0</ele><time>2026-04-26T10:34:35.975Z</time></trkpt><trkpt lat="44.3199252" lon="8.0509195"><ele>474.33333333333337</ele><time>2026-04-26T10:34:36.976Z</time></trkpt><trkpt lat="44.3201339" lon="8.0509743"><ele>473.66666666666663</ele><time>2026-04-26T10:34:37.976Z</time></trkpt><trkpt lat="44.3203408" lon="8.0510307"><ele>473.0</ele><time>2026-04-26T10:34:38.975Z</time></trkpt><trkpt lat="44.3205506" lon="8.0510823"><ele>472.3333333333333</ele><time>2026-04-26T10:34:39.975Z</time></trkpt><trkpt lat="44.3207602" lon="8.0511342"><ele>471.66666666666663</ele><time>2026-04-26T10:34:40.976Z</time></trkpt><trkpt lat="44.3209686" lon="8.0511831"><ele>471.0</ele><time>2026-04-26T10:34:41.975Z</time></trkpt><trkpt lat="44.321166" lon="8.0512304"><ele>471.0</ele><time>2026-04-26T10:34:42.976Z</time></trkpt><trkpt lat="44.321365" lon="8.0512785"><ele>471.0</ele><time>2026-04-26T10:34:43.976Z</time></trkpt><trkpt lat="44.3215646" lon="8.0513275"><ele>471.0</ele><time>2026-04-26T10:34:44.975Z</time></trkpt><trkpt lat="44.3217644" lon="8.0513731"><ele>471.66666666666663</ele><time>2026-04-26T10:34:45.975Z</time></trkpt><trkpt lat="44.3219653" lon="8.0514152"><ele>472.3333333333333</ele><time>2026-04-26T10:34:46.975Z</time></trkpt><trkpt lat="44.3221641" lon="8.0514612"><ele>473.0</ele><time>2026-04-26T10:34:47.975Z</time></trkpt><trkpt lat="44.3223671" lon="8.0515043"><ele>473.3333333333333</ele><time>2026-04-26T10:34:48.976Z</time></trkpt><trkpt lat="44.322574" lon="8.0515565"><ele>473.66666666666663</ele><time>2026-04-26T10:34:49.975Z</time></trkpt><trkpt lat="44.3227723" lon="8.0516049"><ele>474.0</ele><time>2026-04-26T10:34:50.975Z</time></trkpt><trkpt lat="44.3229717" lon="8.0516505"><ele>472.33333333333337</ele><time>2026-04-26T10:34:51.975Z</time></trkpt><trkpt lat="44.3231689" lon="8.0516946"><ele>470.6666666666667</ele><time>2026-04-26T10:34:52.975Z</time></trkpt><trkpt lat="44.3233682" lon="8.0517434"><ele>469.0</ele><time>2026-04-26T10:34:53.975Z</time></trkpt><trkpt lat="44.3235862" lon="8.0517749"><ele>469.0</ele><time>2026-04-26T10:34:54.975Z</time></trkpt><trkpt lat="44.3237879" lon="8.0518198"><ele>469.0</ele><time>2026-04-26T10:34:55.976Z</time></trkpt><trkpt lat="44.3239885" lon="8.0518672"><ele>469.0</ele><time>2026-04-26T10:34:56.975Z</time></trkpt><trkpt lat="44.3241873" lon="8.0519136"><ele>468.6666666666667</ele><time>2026-04-26T10:34:57.975Z</time></trkpt><trkpt lat="44.3243857" lon="8.0519611"><ele>468.33333333333337</ele><time>2026-04-26T10:34:58.976Z</time></trkpt><trkpt lat="44.3245829" lon="8.0520121"><ele>468.0</ele><time>2026-04-26T10:34:59.975Z</time></trkpt><trkpt lat="44.3247832" lon="8.0520625"><ele>467.33333333333337</ele><time>2026-04-26T10:35:00.975Z</time></trkpt><trkpt lat="44.3249785" lon="8.0521127"><ele>466.6666666666667</ele><time>2026-04-26T10:35:01.975Z</time></trkpt><trkpt lat="44.3251722" lon="8.0521604"><ele>466.0</ele><time>2026-04-26T10:35:02.975Z</time></trkpt><trkpt lat="44.3253643" lon="8.0521997"><ele>466.0</ele><time>2026-04-26T10:35:03.975Z</time></trkpt><trkpt lat="44.3255608" lon="8.0522403"><ele>466.0</ele><time>2026-04-26T10:35:04.975Z</time></trkpt><trkpt lat="44.3257586" lon="8.0522858"><ele>466.0</ele><time>2026-04-26T10:35:05.975Z</time></trkpt><trkpt lat="44.3259555" lon="8.0523347"><ele>465.33333333333337</ele><time>2026-04-26T10:35:06.975Z</time></trkpt><trkpt lat="44.3261523" lon="8.0523844"><ele>464.66666666666663</ele><time>2026-04-26T10:35:07.975Z</time></trkpt><trkpt lat="44.3263541" lon="8.0524284"><ele>464.0</ele><time>2026-04-26T10:35:08.975Z</time></trkpt><trkpt lat="44.3265546" lon="8.0524707"><ele>464.0</ele><time>2026-04-26T10:35:09.975Z</time></trkpt><trkpt lat="44.3267521" lon="8.0525137"><ele>464.0</ele><time>2026-04-26T10:35:10.975Z</time></trkpt><trkpt lat="44.3269526" lon="8.052563"><ele>464.0</ele><time>2026-04-26T10:35:11.975Z</time></trkpt><trkpt lat="44.3271482" lon="8.0526092"><ele>464.3333333333333</ele><time>2026-04-26T10:35:12.975Z</time></trkpt><trkpt lat="44.3273496" lon="8.0526494"><ele>464.66666666666663</ele><time>2026-04-26T10:35:13.975Z</time></trkpt><trkpt lat="44.3275491" lon="8.052695"><ele>465.0</ele><time>2026-04-26T10:35:14.975Z</time></trkpt><trkpt lat="44.327748" lon="8.0527387"><ele>465.0</ele><time>2026-04-26T10:35:15.975Z</time></trkpt><trkpt lat="44.3279489" lon="8.0527872"><ele>465.0</ele><time>2026-04-26T10:35:16.975Z</time></trkpt><trkpt lat="44.3281455" lon="8.0528351"><ele>465.0</ele><time>2026-04-26T10:35:17.975Z</time></trkpt><trkpt lat="44.3283447" lon="8.0528775"><ele>465.0</ele><time>2026-04-26T10:35:18.975Z</time></trkpt><trkpt lat="44.3285504" lon="8.0529219"><ele>465.0</ele><time>2026-04-26T10:35:19.975Z</time></trkpt><trkpt lat="44.3287542" lon="8.052969"><ele>465.0</ele><time>2026-04-26T10:35:20.975Z</time></trkpt><trkpt lat="44.32896" lon="8.0530194"><ele>465.0</ele><time>2026-04-26T10:35:21.975Z</time></trkpt><trkpt lat="44.3291653" lon="8.0530681"><ele>465.0</ele><time>2026-04-26T10:35:22.975Z</time></trkpt><trkpt lat="44.3293679" lon="8.0531061"><ele>465.0</ele><time>2026-04-26T10:35:23.975Z</time></trkpt><trkpt lat="44.3295734" lon="8.0531489"><ele>464.66666666666663</ele><time>2026-04-26T10:35:24.975Z</time></trkpt><trkpt lat="44.3297737" lon="8.053186"><ele>464.3333333333333</ele><time>2026-04-26T10:35:25.975Z</time></trkpt><trkpt lat="44.3299725" lon="8.0532287"><ele>464.0</ele><time>2026-04-26T10:35:26.975Z</time></trkpt><trkpt lat="44.3301746" lon="8.0532767"><ele>463.3333333333333</ele><time>2026-04-26T10:35:27.975Z</time></trkpt><trkpt lat="44.3303763" lon="8.0533213"><ele>462.66666666666663</ele><time>2026-04-26T10:35:28.975Z</time></trkpt><trkpt lat="44.330573" lon="8.0533678"><ele>462.0</ele><time>2026-04-26T10:35:29.975Z</time></trkpt><trkpt lat="44.3307669" lon="8.053409"><ele>462.0</ele><time>2026-04-26T10:35:30.975Z</time></trkpt><trkpt lat="44.3309562" lon="8.053448"><ele>462.0</ele><time>2026-04-26T10:35:31.975Z</time></trkpt><trkpt lat="44.3311468" lon="8.0534908"><ele>462.0</ele><time>2026-04-26T10:35:32.975Z</time></trkpt><trkpt lat="44.3313441" lon="8.0535429"><ele>462.33333333333337</ele><time>2026-04-26T10:35:33.975Z</time></trkpt><trkpt lat="44.3315422" lon="8.0535937"><ele>462.6666666666667</ele><time>2026-04-26T10:35:34.975Z</time></trkpt><trkpt lat="44.3317441" lon="8.053634"><ele>463.0</ele><time>2026-04-26T10:35:35.975Z</time></trkpt><trkpt lat="44.331941" lon="8.0536794"><ele>463.0</ele><time>2026-04-26T10:35:36.975Z</time></trkpt><trkpt lat="44.332134" lon="8.0537146"><ele>463.0</ele><time>2026-04-26T10:35:37.975Z</time></trkpt><trkpt lat="44.3323248" lon="8.0537559"><ele>463.0</ele><time>2026-04-26T10:35:38.975Z</time></trkpt><trkpt lat="44.3325184" lon="8.0538009"><ele>464.6666666666667</ele><time>2026-04-26T10:35:39.975Z</time></trkpt><trkpt lat="44.3327176" lon="8.0538537"><ele>466.33333333333337</ele><time>2026-04-26T10:35:40.975Z</time></trkpt><trkpt lat="44.3329137" lon="8.0538928"><ele>468.0</ele><time>2026-04-26T10:35:41.975Z</time></trkpt><trkpt lat="44.3331087" lon="8.0539353"><ele>471.0</ele><time>2026-04-26T10:35:42.975Z</time></trkpt><trkpt lat="44.3333011" lon="8.0539769"><ele>474.0</ele><time>2026-04-26T10:35:43.975Z</time></trkpt><trkpt lat="44.3334975" lon="8.0540223"><ele>477.0</ele><time>2026-04-26T10:35:44.975Z</time></trkpt><trkpt lat="44.333683" lon="8.0540713"><ele>473.33333333333337</ele><time>2026-04-26T10:35:45.976Z</time></trkpt><trkpt lat="44.3338661" lon="8.0541377"><ele>469.6666666666667</ele><time>2026-04-26T10:35:46.976Z</time></trkpt><trkpt lat="44.3340373" lon="8.054233"><ele>466.0</ele><time>2026-04-26T10:35:47.975Z</time></trkpt><trkpt lat="44.3342089" lon="8.0543412"><ele>466.0</ele><time>2026-04-26T10:35:48.975Z</time></trkpt><trkpt lat="44.3343732" lon="8.0544682"><ele>466.0</ele><time>2026-04-26T10:35:49.975Z</time></trkpt><trkpt lat="44.3345307" lon="8.0546064"><ele>466.0</ele><time>2026-04-26T10:35:50.975Z</time></trkpt><trkpt lat="44.33469" lon="8.0547544"><ele>465.33333333333337</ele><time>2026-04-26T10:35:51.975Z</time></trkpt><trkpt lat="44.3348444" lon="8.054907"><ele>464.66666666666663</ele><time>2026-04-26T10:35:52.976Z</time></trkpt><trkpt lat="44.3350026" lon="8.0550487"><ele>464.0</ele><time>2026-04-26T10:35:53.975Z</time></trkpt><trkpt lat="44.3351574" lon="8.055194"><ele>464.0</ele><time>2026-04-26T10:35:54.975Z</time></trkpt><trkpt lat="44.3353124" lon="8.0553261"><ele>464.0</ele><time>2026-04-26T10:35:55.975Z</time></trkpt><trkpt lat="44.3354614" lon="8.0554792"><ele>464.0</ele><time>2026-04-26T10:35:56.975Z</time></trkpt><trkpt lat="44.3356142" lon="8.0556339"><ele>464.0</ele><time>2026-04-26T10:35:57.975Z</time></trkpt><trkpt lat="44.3357594" lon="8.0557818"><ele>464.0</ele><time>2026-04-26T10:35:58.975Z</time></trkpt><trkpt lat="44.3359074" lon="8.055922"><ele>464.0</ele><time>2026-04-26T10:35:59.975Z</time></trkpt><trkpt lat="44.3360458" lon="8.0560602"><ele>464.0</ele><time>2026-04-26T10:36:00.975Z</time></trkpt><trkpt lat="44.3361834" lon="8.0561943"><ele>464.0</ele><time>2026-04-26T10:36:01.975Z</time></trkpt><trkpt lat="44.3363221" lon="8.0563264"><ele>464.0</ele><time>2026-04-26T10:36:02.975Z</time></trkpt><trkpt lat="44.3364495" lon="8.0564437"><ele>464.0</ele><time>2026-04-26T10:36:03.975Z</time></trkpt><trkpt lat="44.336575" lon="8.0565582"><ele>464.0</ele><time>2026-04-26T10:36:04.975Z</time></trkpt><trkpt lat="44.3366985" lon="8.0566749"><ele>464.0</ele><time>2026-04-26T10:36:05.975Z</time></trkpt><trkpt lat="44.3368278" lon="8.0567872"><ele>463.66666666666663</ele><time>2026-04-26T10:36:06.975Z</time></trkpt><trkpt lat="44.3369565" lon="8.0569046"><ele>463.33333333333337</ele><time>2026-04-26T10:36:07.975Z</time></trkpt><trkpt lat="44.3370957" lon="8.0570358"><ele>463.0</ele><time>2026-04-26T10:36:08.975Z</time></trkpt><trkpt lat="44.3372344" lon="8.0571614"><ele>462.5</ele><time>2026-04-26T10:36:09.975Z</time></trkpt><trkpt lat="44.3373651" lon="8.0572802"><ele>462.0</ele><time>2026-04-26T10:36:10.975Z</time></trkpt><trkpt lat="44.3374889" lon="8.0573944"><ele>461.5</ele><time>2026-04-26T10:36:11.975Z</time></trkpt><trkpt lat="44.3376092" lon="8.0575037"><ele>461.0</ele><time>2026-04-26T10:36:12.975Z</time></trkpt><trkpt lat="44.3377263" lon="8.0576112"><ele>461.0</ele><time>2026-04-26T10:36:13.975Z</time></trkpt><trkpt lat="44.3378374" lon="8.05772"><ele>461.0</ele><time>2026-04-26T10:36:14.975Z</time></trkpt><trkpt lat="44.3379478" lon="8.0578264"><ele>461.0</ele><time>2026-04-26T10:36:15.975Z</time></trkpt><trkpt lat="44.3380576" lon="8.0579305"><ele>461.0</ele><time>2026-04-26T10:36:16.975Z</time></trkpt><trkpt lat="44.3381683" lon="8.0580304"><ele>461.0</ele><time>2026-04-26T10:36:17.975Z</time></trkpt><trkpt lat="44.3382758" lon="8.0581409"><ele>461.0</ele><time>2026-04-26T10:36:18.975Z</time></trkpt><trkpt lat="44.3383824" lon="8.0582423"><ele>461.0</ele><time>2026-04-26T10:36:19.975Z</time></trkpt><trkpt lat="44.3384855" lon="8.0583445"><ele>461.0</ele><time>2026-04-26T10:36:20.975Z</time></trkpt><trkpt lat="44.338591" lon="8.0584414"><ele>461.75</ele><time>2026-04-26T10:36:21.975Z</time></trkpt><trkpt lat="44.3386964" lon="8.0585345"><ele>462.5</ele><time>2026-04-26T10:36:22.975Z</time></trkpt><trkpt lat="44.3388059" lon="8.0586307"><ele>463.25</ele><time>2026-04-26T10:36:23.975Z</time></trkpt><trkpt lat="44.338916" lon="8.0587254"><ele>464.0</ele><time>2026-04-26T10:36:24.975Z</time></trkpt><trkpt lat="44.3390187" lon="8.0588218"><ele>464.0</ele><time>2026-04-26T10:36:25.975Z</time></trkpt><trkpt lat="44.3391228" lon="8.0589171"><ele>464.0</ele><time>2026-04-26T10:36:26.975Z</time></trkpt><trkpt lat="44.3392265" lon="8.0590103"><ele>464.0</ele><time>2026-04-26T10:36:27.975Z</time></trkpt><trkpt lat="44.3393358" lon="8.059103"><ele>464.0</ele><time>2026-04-26T10:36:28.975Z</time></trkpt><trkpt lat="44.3394385" lon="8.0591905"><ele>465.0</ele><time>2026-04-26T10:36:29.974Z</time></trkpt><trkpt lat="44.3395442" lon="8.0592702"><ele>466.0</ele><time>2026-04-26T10:36:30.974Z</time></trkpt><trkpt lat="44.3396521" lon="8.0593517"><ele>467.0</ele><time>2026-04-26T10:36:31.974Z</time></trkpt><trkpt lat="44.3397625" lon="8.059443"><ele>468.0</ele><time>2026-04-26T10:36:32.974Z</time></trkpt><trkpt lat="44.3398691" lon="8.0595292"><ele>468.0</ele><time>2026-04-26T10:36:33.975Z</time></trkpt><trkpt lat="44.3399772" lon="8.0596117"><ele>468.0</ele><time>2026-04-26T10:36:34.974Z</time></trkpt><trkpt lat="44.3400867" lon="8.0596903"><ele>468.0</ele><time>2026-04-26T10:36:35.974Z</time></trkpt><trkpt lat="44.3401966" lon="8.0597657"><ele>468.0</ele><time>2026-04-26T10:36:36.975Z</time></trkpt><trkpt lat="44.3403016" lon="8.0598241"><ele>468.0</ele><time>2026-04-26T10:36:37.975Z</time></trkpt><trkpt lat="44.3404002" lon="8.0598938"><ele>468.0</ele><time>2026-04-26T10:36:38.974Z</time></trkpt><trkpt lat="44.3405069" lon="8.0599647"><ele>468.0</ele><time>2026-04-26T10:36:39.974Z</time></trkpt><trkpt lat="44.3406172" lon="8.06003"><ele>468.0</ele><time>2026-04-26T10:36:40.974Z</time></trkpt><trkpt lat="44.3407247" lon="8.0600943"><ele>468.0</ele><time>2026-04-26T10:36:41.974Z</time></trkpt><trkpt lat="44.3408337" lon="8.0601605"><ele>468.0</ele><time>2026-04-26T10:36:42.975Z</time></trkpt><trkpt lat="44.3409459" lon="8.0602328"><ele>468.0</ele><time>2026-04-26T10:36:43.974Z</time></trkpt><trkpt lat="44.3410555" lon="8.0602972"><ele>468.0</ele><time>2026-04-26T10:36:44.975Z</time></trkpt><trkpt lat="44.341164" lon="8.0603665"><ele>468.0</ele><time>2026-04-26T10:36:45.974Z</time></trkpt><trkpt lat="44.3412675" lon="8.0604438"><ele>468.0</ele><time>2026-04-26T10:36:46.974Z</time></trkpt><trkpt lat="44.3413685" lon="8.0605319"><ele>468.0</ele><time>2026-04-26T10:36:47.975Z</time></trkpt><trkpt lat="44.3414652" lon="8.0606194"><ele>468.0</ele><time>2026-04-26T10:36:48.974Z</time></trkpt><trkpt lat="44.3415741" lon="8.0607051"><ele>466.5</ele><time>2026-04-26T10:36:49.974Z</time></trkpt><trkpt lat="44.3416818" lon="8.0607793"><ele>465.0</ele><time>2026-04-26T10:36:50.974Z</time></trkpt><trkpt lat="44.3417966" lon="8.0608484"><ele>463.5</ele><time>2026-04-26T10:36:51.974Z</time></trkpt><trkpt lat="44.3419035" lon="8.0609291"><ele>462.0</ele><time>2026-04-26T10:36:52.974Z</time></trkpt><trkpt lat="44.3420175" lon="8.0610065"><ele>462.0</ele><time>2026-04-26T10:36:53.974Z</time></trkpt><trkpt lat="44.3421371" lon="8.0610806"><ele>462.0</ele><time>2026-04-26T10:36:54.974Z</time></trkpt><trkpt lat="44.3422534" lon="8.0611674"><ele>462.0</ele><time>2026-04-26T10:36:55.974Z</time></trkpt><trkpt lat="44.3423676" lon="8.0612692"><ele>462.0</ele><time>2026-04-26T10:36:56.974Z</time></trkpt><trkpt lat="44.3424895" lon="8.0613648"><ele>460.33333333333337</ele><time>2026-04-26T10:36:57.974Z</time></trkpt><trkpt lat="44.3426152" lon="8.0614774"><ele>458.6666666666667</ele><time>2026-04-26T10:36:58.974Z</time></trkpt><trkpt lat="44.3427417" lon="8.0615958"><ele>457.0</ele><time>2026-04-26T10:36:59.974Z</time></trkpt><trkpt lat="44.3428806" lon="8.0617196"><ele>457.0</ele><time>2026-04-26T10:37:00.974Z</time></trkpt><trkpt lat="44.3430165" lon="8.0618458"><ele>457.0</ele><time>2026-04-26T10:37:01.974Z</time></trkpt><trkpt lat="44.3431532" lon="8.0619788"><ele>457.0</ele><time>2026-04-26T10:37:02.974Z</time></trkpt><trkpt lat="44.3432899" lon="8.0621077"><ele>459.6666666666667</ele><time>2026-04-26T10:37:03.974Z</time></trkpt><trkpt lat="44.3434254" lon="8.0622149"><ele>462.33333333333337</ele><time>2026-04-26T10:37:04.974Z</time></trkpt><trkpt lat="44.3435681" lon="8.0622979"><ele>465.0</ele><time>2026-04-26T10:37:05.974Z</time></trkpt><trkpt lat="44.3437169" lon="8.0623397"><ele>465.0</ele><time>2026-04-26T10:37:06.974Z</time></trkpt><trkpt lat="44.3438684" lon="8.0623358"><ele>465.0</ele><time>2026-04-26T10:37:07.974Z</time></trkpt><trkpt lat="44.3440163" lon="8.0622914"><ele>465.0</ele><time>2026-04-26T10:37:08.974Z</time></trkpt><trkpt lat="44.3441495" lon="8.0621902"><ele>463.0</ele><time>2026-04-26T10:37:09.974Z</time></trkpt><trkpt lat="44.3442659" lon="8.0620373"><ele>461.0</ele><time>2026-04-26T10:37:10.974Z</time></trkpt><trkpt lat="44.3443634" lon="8.061845"><ele>459.0</ele><time>2026-04-26T10:37:11.974Z</time></trkpt><trkpt lat="44.3444518" lon="8.0616371"><ele>460.33333333333337</ele><time>2026-04-26T10:37:12.974Z</time></trkpt><trkpt lat="44.3445453" lon="8.0614169"><ele>461.6666666666667</ele><time>2026-04-26T10:37:13.974Z</time></trkpt><trkpt lat="44.3446361" lon="8.061202"><ele>463.0</ele><time>2026-04-26T10:37:14.974Z</time></trkpt><trkpt lat="44.3447301" lon="8.0609888"><ele>459.33333333333337</ele><time>2026-04-26T10:37:15.974Z</time></trkpt><trkpt lat="44.3448273" lon="8.0607759"><ele>455.66666666666663</ele><time>2026-04-26T10:37:16.974Z</time></trkpt><trkpt lat="44.3449278" lon="8.0605588"><ele>452.0</ele><time>2026-04-26T10:37:17.974Z</time></trkpt><trkpt lat="44.3450171" lon="8.060351"><ele>452.0</ele><time>2026-04-26T10:37:18.974Z</time></trkpt><trkpt lat="44.3451136" lon="8.0601566"><ele>452.0</ele><time>2026-04-26T10:37:19.974Z</time></trkpt><trkpt lat="44.3452311" lon="8.0599957"><ele>452.0</ele><time>2026-04-26T10:37:20.974Z</time></trkpt><trkpt lat="44.3453713" lon="8.0598621"><ele>451.66666666666663</ele><time>2026-04-26T10:37:21.974Z</time></trkpt><trkpt lat="44.3455428" lon="8.0597775"><ele>451.33333333333337</ele><time>2026-04-26T10:37:22.974Z</time></trkpt><trkpt lat="44.3457309" lon="8.0597151"><ele>451.0</ele><time>2026-04-26T10:37:23.974Z</time></trkpt><trkpt lat="44.3459252" lon="8.0596416"><ele>449.6666666666667</ele><time>2026-04-26T10:37:24.974Z</time></trkpt><trkpt lat="44.3461156" lon="8.0595511"><ele>448.33333333333337</ele><time>2026-04-26T10:37:25.974Z</time></trkpt><trkpt lat="44.3462986" lon="8.0594287"><ele>447.0</ele><time>2026-04-26T10:37:26.975Z</time></trkpt><trkpt lat="44.3464727" lon="8.0592804"><ele>448.66666666666663</ele><time>2026-04-26T10:37:27.974Z</time></trkpt><trkpt lat="44.3466395" lon="8.0591076"><ele>450.3333333333333</ele><time>2026-04-26T10:37:28.974Z</time></trkpt><trkpt lat="44.346807" lon="8.058931"><ele>452.0</ele><time>2026-04-26T10:37:29.974Z</time></trkpt><trkpt lat="44.3469723" lon="8.0587536"><ele>452.0</ele><time>2026-04-26T10:37:30.974Z</time></trkpt><trkpt lat="44.3471363" lon="8.0585785"><ele>452.0</ele><time>2026-04-26T10:37:31.974Z</time></trkpt><trkpt lat="44.3473088" lon="8.0584088"><ele>452.0</ele><time>2026-04-26T10:37:32.974Z</time></trkpt><trkpt lat="44.3474799" lon="8.0582439"><ele>451.66666666666663</ele><time>2026-04-26T10:37:33.974Z</time></trkpt><trkpt lat="44.3476405" lon="8.0580751"><ele>451.33333333333337</ele><time>2026-04-26T10:37:34.974Z</time></trkpt><trkpt lat="44.3477958" lon="8.0579066"><ele>451.0</ele><time>2026-04-26T10:37:35.974Z</time></trkpt><trkpt lat="44.3479515" lon="8.0577557"><ele>451.6666666666667</ele><time>2026-04-26T10:37:36.974Z</time></trkpt><trkpt lat="44.3480941" lon="8.0576155"><ele>452.33333333333337</ele><time>2026-04-26T10:37:37.974Z</time></trkpt><trkpt lat="44.3482279" lon="8.0574723"><ele>453.0</ele><time>2026-04-26T10:37:38.974Z</time></trkpt><trkpt lat="44.3483435" lon="8.0573076"><ele>453.0</ele><time>2026-04-26T10:37:39.974Z</time></trkpt><trkpt lat="44.348439" lon="8.0571222"><ele>453.0</ele><time>2026-04-26T10:37:40.975Z</time></trkpt><trkpt lat="44.3485286" lon="8.0569287"><ele>453.0</ele><time>2026-04-26T10:37:41.974Z</time></trkpt><trkpt lat="44.3486278" lon="8.0567477"><ele>452.66666666666663</ele><time>2026-04-26T10:37:42.974Z</time></trkpt><trkpt lat="44.3487399" lon="8.0565982"><ele>452.3333333333333</ele><time>2026-04-26T10:37:43.974Z</time></trkpt><trkpt lat="44.3488729" lon="8.0564835"><ele>452.0</ele><time>2026-04-26T10:37:44.974Z</time></trkpt><trkpt lat="44.349026" lon="8.0564161"><ele>452.0</ele><time>2026-04-26T10:37:45.974Z</time></trkpt><trkpt lat="44.3491965" lon="8.0563901"><ele>452.0</ele><time>2026-04-26T10:37:46.974Z</time></trkpt><trkpt lat="44.3493743" lon="8.056396"><ele>452.0</ele><time>2026-04-26T10:37:47.975Z</time></trkpt><trkpt lat="44.3495552" lon="8.0564119"><ele>453.0</ele><time>2026-04-26T10:37:48.974Z</time></trkpt><trkpt lat="44.3497471" lon="8.0564178"><ele>454.0</ele><time>2026-04-26T10:37:49.974Z</time></trkpt><trkpt lat="44.3499489" lon="8.0564022"><ele>455.0</ele><time>2026-04-26T10:37:50.975Z</time></trkpt><trkpt lat="44.3501661" lon="8.0563623"><ele>455.0</ele><time>2026-04-26T10:37:51.974Z</time></trkpt><trkpt lat="44.3503877" lon="8.0563096"><ele>455.0</ele><time>2026-04-26T10:37:52.975Z</time></trkpt><trkpt lat="44.3506157" lon="8.0562469"><ele>455.0</ele><time>2026-04-26T10:37:53.974Z</time></trkpt><trkpt lat="44.3508424" lon="8.056183"><ele>455.0</ele><time>2026-04-26T10:37:54.974Z</time></trkpt><trkpt lat="44.3510676" lon="8.0561294"><ele>455.0</ele><time>2026-04-26T10:37:55.974Z</time></trkpt><trkpt lat="44.3512947" lon="8.0560782"><ele>455.0</ele><time>2026-04-26T10:37:56.974Z</time></trkpt><trkpt lat="44.3515207" lon="8.0560302"><ele>457.3333333333333</ele><time>2026-04-26T10:37:57.974Z</time></trkpt><trkpt lat="44.3517438" lon="8.0559831"><ele>459.66666666666663</ele><time>2026-04-26T10:37:58.974Z</time></trkpt><trkpt lat="44.3519545" lon="8.0559355"><ele>462.0</ele><time>2026-04-26T10:37:59.974Z</time></trkpt><trkpt lat="44.352164" lon="8.0558897"><ele>464.0</ele><time>2026-04-26T10:38:00.974Z</time></trkpt><trkpt lat="44.3523755" lon="8.0558417"><ele>466.0</ele><time>2026-04-26T10:38:01.974Z</time></trkpt><trkpt lat="44.3525919" lon="8.0558056"><ele>468.0</ele><time>2026-04-26T10:38:02.974Z</time></trkpt><trkpt lat="44.3528157" lon="8.0557632"><ele>466.33333333333337</ele><time>2026-04-26T10:38:03.974Z</time></trkpt><trkpt lat="44.353019" lon="8.0557017"><ele>464.6666666666667</ele><time>2026-04-26T10:38:04.974Z</time></trkpt><trkpt lat="44.3532238" lon="8.0556609"><ele>463.0</ele><time>2026-04-26T10:38:05.974Z</time></trkpt><trkpt lat="44.3534208" lon="8.0556263"><ele>463.0</ele><time>2026-04-26T10:38:06.974Z</time></trkpt><trkpt lat="44.3536104" lon="8.0555921"><ele>463.0</ele><time>2026-04-26T10:38:07.974Z</time></trkpt><trkpt lat="44.353775" lon="8.0555176"><ele>463.0</ele><time>2026-04-26T10:38:08.974Z</time></trkpt><trkpt lat="44.3539056" lon="8.0553514"><ele>460.0</ele><time>2026-04-26T10:38:09.974Z</time></trkpt><trkpt lat="44.3540032" lon="8.055159"><ele>457.0</ele><time>2026-04-26T10:38:10.974Z</time></trkpt><trkpt lat="44.3540867" lon="8.0549699"><ele>454.0</ele><time>2026-04-26T10:38:11.974Z</time></trkpt><trkpt lat="44.3541832" lon="8.054791"><ele>454.0</ele><time>2026-04-26T10:38:12.974Z</time></trkpt><trkpt lat="44.354321" lon="8.0546651"><ele>454.0</ele><time>2026-04-26T10:38:13.974Z</time></trkpt><trkpt lat="44.3544879" lon="8.0545666"><ele>454.0</ele><time>2026-04-26T10:38:14.974Z</time></trkpt><trkpt lat="44.3546666" lon="8.0544806"><ele>458.6666666666667</ele><time>2026-04-26T10:38:15.974Z</time></trkpt><trkpt lat="44.3548569" lon="8.0543995"><ele>463.33333333333337</ele><time>2026-04-26T10:38:16.974Z</time></trkpt><trkpt lat="44.3550491" lon="8.0543099"><ele>468.0</ele><time>2026-04-26T10:38:17.974Z</time></trkpt><trkpt lat="44.355246" lon="8.054211"><ele>461.66666666666663</ele><time>2026-04-26T10:38:18.974Z</time></trkpt><trkpt lat="44.355442" lon="8.054085"><ele>455.3333333333333</ele><time>2026-04-26T10:38:19.974Z</time></trkpt><trkpt lat="44.3556333" lon="8.0539509"><ele>449.0</ele><time>2026-04-26T10:38:20.974Z</time></trkpt><trkpt lat="44.3558049" lon="8.0538202"><ele>449.0</ele><time>2026-04-26T10:38:21.974Z</time></trkpt><trkpt lat="44.3559784" lon="8.0536997"><ele>449.0</ele><time>2026-04-26T10:38:22.974Z</time></trkpt><trkpt lat="44.3561392" lon="8.0535909"><ele>449.0</ele><time>2026-04-26T10:38:23.975Z</time></trkpt><trkpt lat="44.3562838" lon="8.0534681"><ele>449.66666666666663</ele><time>2026-04-26T10:38:24.974Z</time></trkpt><trkpt lat="44.3564104" lon="8.0533234"><ele>450.33333333333337</ele><time>2026-04-26T10:38:25.974Z</time></trkpt><trkpt lat="44.3565218" lon="8.0531671"><ele>451.0</ele><time>2026-04-26T10:38:26.974Z</time></trkpt><trkpt lat="44.35663" lon="8.0530279"><ele>451.0</ele><time>2026-04-26T10:38:27.974Z</time></trkpt><trkpt lat="44.356759" lon="8.0529162"><ele>451.0</ele><time>2026-04-26T10:38:28.974Z</time></trkpt><trkpt lat="44.3569156" lon="8.0528345"><ele>451.0</ele><time>2026-04-26T10:38:29.975Z</time></trkpt><trkpt lat="44.3570799" lon="8.0527984"><ele>451.33333333333337</ele><time>2026-04-26T10:38:30.974Z</time></trkpt><trkpt lat="44.357242" lon="8.0528004"><ele>451.66666666666663</ele><time>2026-04-26T10:38:31.974Z</time></trkpt><trkpt lat="44.3573971" lon="8.0528499"><ele>452.0</ele><time>2026-04-26T10:38:32.974Z</time></trkpt><trkpt lat="44.3575524" lon="8.0529677"><ele>452.0</ele><time>2026-04-26T10:38:33.974Z</time></trkpt><trkpt lat="44.3577091" lon="8.0531542"><ele>452.0</ele><time>2026-04-26T10:38:34.974Z</time></trkpt><trkpt lat="44.3578763" lon="8.0533913"><ele>452.0</ele><time>2026-04-26T10:38:35.974Z</time></trkpt><trkpt lat="44.3580472" lon="8.0536526"><ele>451.5</ele><time>2026-04-26T10:38:36.974Z</time></trkpt><trkpt lat="44.3582148" lon="8.0538971"><ele>451.0</ele><time>2026-04-26T10:38:37.974Z</time></trkpt><trkpt lat="44.3583837" lon="8.0541316"><ele>453.5</ele><time>2026-04-26T10:38:38.974Z</time></trkpt><trkpt lat="44.35856" lon="8.0543409"><ele>456.0</ele><time>2026-04-26T10:38:39.975Z</time></trkpt><trkpt lat="44.3587383" lon="8.0545418"><ele>455.33333333333337</ele><time>2026-04-26T10:38:40.975Z</time></trkpt><trkpt lat="44.3589086" lon="8.0547295"><ele>454.6666666666667</ele><time>2026-04-26T10:38:41.974Z</time></trkpt><trkpt lat="44.3590817" lon="8.0549161"><ele>454.0</ele><time>2026-04-26T10:38:42.974Z</time></trkpt><trkpt lat="44.3592545" lon="8.0551079"><ele>454.0</ele><time>2026-04-26T10:38:43.974Z</time></trkpt><trkpt lat="44.3594372" lon="8.0552916"><ele>454.0</ele><time>2026-04-26T10:38:44.974Z</time></trkpt><trkpt lat="44.359622" lon="8.0554681"><ele>454.0</ele><time>2026-04-26T10:38:45.974Z</time></trkpt><trkpt lat="44.3598129" lon="8.0556366"><ele>456.5</ele><time>2026-04-26T10:38:46.974Z</time></trkpt><trkpt lat="44.3600122" lon="8.0557926"><ele>459.0</ele><time>2026-04-26T10:38:47.974Z</time></trkpt><trkpt lat="44.3602127" lon="8.0559514"><ele>459.0</ele><time>2026-04-26T10:38:48.974Z</time></trkpt><trkpt lat="44.3604134" lon="8.056115"><ele>459.0</ele><time>2026-04-26T10:38:49.974Z</time></trkpt><trkpt lat="44.3606165" lon="8.0562752"><ele>447.5</ele><time>2026-04-26T10:38:50.974Z</time></trkpt><trkpt lat="44.3608176" lon="8.0564415"><ele>436.0</ele><time>2026-04-26T10:38:51.974Z</time></trkpt><trkpt lat="44.361018" lon="8.0566027"><ele>438.5</ele><time>2026-04-26T10:38:52.974Z</time></trkpt><trkpt lat="44.3612182" lon="8.0567646"><ele>441.0</ele><time>2026-04-26T10:38:53.975Z</time></trkpt><trkpt lat="44.3614183" lon="8.0569349"><ele>441.0</ele><time>2026-04-26T10:38:54.974Z</time></trkpt><trkpt lat="44.3616208" lon="8.0571007"><ele>441.0</ele><time>2026-04-26T10:38:55.974Z</time></trkpt><trkpt lat="44.3618189" lon="8.0572703"><ele>441.0</ele><time>2026-04-26T10:38:56.974Z</time></trkpt><trkpt lat="44.3620113" lon="8.0574339"><ele>441.0</ele><time>2026-04-26T10:38:57.974Z</time></trkpt><trkpt lat="44.3621945" lon="8.0575924"><ele>441.0</ele><time>2026-04-26T10:38:58.974Z</time></trkpt><trkpt lat="44.3623691" lon="8.0577535"><ele>441.0</ele><time>2026-04-26T10:38:59.974Z</time></trkpt><trkpt lat="44.3625369" lon="8.0579047"><ele>441.0</ele><time>2026-04-26T10:39:00.974Z</time></trkpt><trkpt lat="44.3627041" lon="8.058046"><ele>441.0</ele><time>2026-04-26T10:39:01.974Z</time></trkpt><trkpt lat="44.3628682" lon="8.058177"><ele>436.66666666666663</ele><time>2026-04-26T10:39:02.974Z</time></trkpt><trkpt lat="44.3630348" lon="8.058283"><ele>432.3333333333333</ele><time>2026-04-26T10:39:03.974Z</time></trkpt><trkpt lat="44.3632027" lon="8.0583725"><ele>428.0</ele><time>2026-04-26T10:39:04.974Z</time></trkpt><trkpt lat="44.3633671" lon="8.0584549"><ele>436.66666666666663</ele><time>2026-04-26T10:39:05.974Z</time></trkpt><trkpt lat="44.3635454" lon="8.0584819"><ele>445.33333333333337</ele><time>2026-04-26T10:39:06.974Z</time></trkpt><trkpt lat="44.3637129" lon="8.0585754"><ele>454.0</ele><time>2026-04-26T10:39:07.974Z</time></trkpt><trkpt lat="44.3638784" lon="8.0586706"><ele>457.6666666666667</ele><time>2026-04-26T10:39:08.975Z</time></trkpt><trkpt lat="44.3640459" lon="8.0587498"><ele>461.33333333333337</ele><time>2026-04-26T10:39:09.974Z</time></trkpt><trkpt lat="44.3643126" lon="8.0586805"><ele>465.0</ele><time>2026-04-26T10:39:10.974Z</time></trkpt><trkpt lat="44.3646201" lon="8.0585788"><ele>455.5</ele><time>2026-04-26T10:39:11.974Z</time></trkpt><trkpt lat="44.3648533" lon="8.058391"><ele>446.0</ele><time>2026-04-26T10:39:12.974Z</time></trkpt><trkpt lat="44.3650518" lon="8.0581684"><ele>446.0</ele><time>2026-04-26T10:39:13.974Z</time></trkpt><trkpt lat="44.3652379" lon="8.0579385"><ele>446.0</ele><time>2026-04-26T10:39:14.974Z</time></trkpt><trkpt lat="44.3653965" lon="8.0576916"><ele>437.0</ele><time>2026-04-26T10:39:15.974Z</time></trkpt><trkpt lat="44.3655198" lon="8.0574345"><ele>428.0</ele><time>2026-04-26T10:39:16.974Z</time></trkpt><trkpt lat="44.365603" lon="8.0571351"><ele>436.0</ele><time>2026-04-26T10:39:17.974Z</time></trkpt><trkpt lat="44.3656665" lon="8.056812"><ele>444.0</ele><time>2026-04-26T10:39:18.974Z</time></trkpt><trkpt lat="44.3657278" lon="8.0564716"><ele>444.0</ele><time>2026-04-26T10:39:19.974Z</time></trkpt><trkpt lat="44.3657764" lon="8.0561013"><ele>444.0</ele><time>2026-04-26T10:39:20.974Z</time></trkpt><trkpt lat="44.3658548" lon="8.0557592"><ele>438.0</ele><time>2026-04-26T10:39:21.975Z</time></trkpt><trkpt lat="44.3659534" lon="8.0554335"><ele>432.0</ele><time>2026-04-26T10:39:22.974Z</time></trkpt><trkpt lat="44.3660586" lon="8.0551018"><ele>429.5</ele><time>2026-04-26T10:39:23.975Z</time></trkpt><trkpt lat="44.3661564" lon="8.0547601"><ele>427.0</ele><time>2026-04-26T10:39:24.974Z</time></trkpt><trkpt lat="44.3662525" lon="8.0544237"><ele>422.5</ele><time>2026-04-26T10:39:25.974Z</time></trkpt><trkpt lat="44.3663354" lon="8.0540902"><ele>418.0</ele><time>2026-04-26T10:39:26.974Z</time></trkpt><trkpt lat="44.3664071" lon="8.0537483"><ele>434.0</ele><time>2026-04-26T10:39:27.975Z</time></trkpt><trkpt lat="44.3664744" lon="8.0533996"><ele>450.0</ele><time>2026-04-26T10:39:28.974Z</time></trkpt><trkpt lat="44.3665319" lon="8.0530454"><ele>450.0</ele><time>2026-04-26T10:39:29.974Z</time></trkpt><trkpt lat="44.3665801" lon="8.0526896"><ele>450.0</ele><time>2026-04-26T10:39:30.975Z</time></trkpt><trkpt lat="44.3666195" lon="8.052349"><ele>446.5</ele><time>2026-04-26T10:39:31.974Z</time></trkpt><trkpt lat="44.3666597" lon="8.0520223"><ele>443.0</ele><time>2026-04-26T10:39:32.974Z</time></trkpt><trkpt lat="44.3666873" lon="8.0516968"><ele>442.5</ele><time>2026-04-26T10:39:33.974Z</time></trkpt><trkpt lat="44.3667028" lon="8.051369"><ele>442.0</ele><time>2026-04-26T10:39:34.974Z</time></trkpt><trkpt lat="44.3667016" lon="8.0510266"><ele>445.0</ele><time>2026-04-26T10:39:35.974Z</time></trkpt><trkpt lat="44.366676" lon="8.0506809"><ele>448.0</ele><time>2026-04-26T10:39:36.974Z</time></trkpt><trkpt lat="44.3666478" lon="8.050333"><ele>448.0</ele><time>2026-04-26T10:39:37.974Z</time></trkpt><trkpt lat="44.3666265" lon="8.0499977"><ele>448.0</ele><time>2026-04-26T10:39:38.974Z</time></trkpt><trkpt lat="44.3666041" lon="8.0496642"><ele>448.5</ele><time>2026-04-26T10:39:39.974Z</time></trkpt><trkpt lat="44.3665838" lon="8.0493297"><ele>449.0</ele><time>2026-04-26T10:39:40.974Z</time></trkpt><trkpt lat="44.3665735" lon="8.0489913"><ele>448.0</ele><time>2026-04-26T10:39:41.974Z</time></trkpt><trkpt lat="44.3665839" lon="8.0486482"><ele>447.0</ele><time>2026-04-26T10:39:42.974Z</time></trkpt><trkpt lat="44.3666164" lon="8.0483089"><ele>444.5</ele><time>2026-04-26T10:39:43.974Z</time></trkpt><trkpt lat="44.3666636" lon="8.0479738"><ele>442.0</ele><time>2026-04-26T10:39:44.974Z</time></trkpt><trkpt lat="44.3666979" lon="8.0476354"><ele>441.5</ele><time>2026-04-26T10:39:45.974Z</time></trkpt><trkpt lat="44.366716" lon="8.0472841"><ele>441.0</ele><time>2026-04-26T10:39:46.974Z</time></trkpt><trkpt lat="44.3667161" lon="8.0469393"><ele>437.5</ele><time>2026-04-26T10:39:47.974Z</time></trkpt><trkpt lat="44.3667069" lon="8.0466106"><ele>434.0</ele><time>2026-04-26T10:39:48.974Z</time></trkpt><trkpt lat="44.3667006" lon="8.0463062"><ele>434.0</ele><time>2026-04-26T10:39:49.974Z</time></trkpt><trkpt lat="44.3666929" lon="8.0460224"><ele>434.0</ele><time>2026-04-26T10:39:50.974Z</time></trkpt><trkpt lat="44.3666733" lon="8.0457379"><ele>434.0</ele><time>2026-04-26T10:39:51.974Z</time></trkpt><trkpt lat="44.3666361" lon="8.0454676"><ele>434.66666666666663</ele><time>2026-04-26T10:39:52.974Z</time></trkpt><trkpt lat="44.3665884" lon="8.0452264"><ele>435.33333333333337</ele><time>2026-04-26T10:39:53.974Z</time></trkpt><trkpt lat="44.3665406" lon="8.044996"><ele>436.0</ele><time>2026-04-26T10:39:54.974Z</time></trkpt><trkpt lat="44.3665219" lon="8.0447735"><ele>433.33333333333337</ele><time>2026-04-26T10:39:55.974Z</time></trkpt><trkpt lat="44.3665252" lon="8.0445616"><ele>430.66666666666663</ele><time>2026-04-26T10:39:56.974Z</time></trkpt><trkpt lat="44.3665637" lon="8.0443321"><ele>428.0</ele><time>2026-04-26T10:39:57.974Z</time></trkpt><trkpt lat="44.3666415" lon="8.0441111"><ele>422.0</ele><time>2026-04-26T10:39:58.974Z</time></trkpt><trkpt lat="44.3667564" lon="8.0439039"><ele>416.0</ele><time>2026-04-26T10:39:59.974Z</time></trkpt><trkpt lat="44.3669056" lon="8.0437364"><ele>410.0</ele><time>2026-04-26T10:40:00.974Z</time></trkpt><trkpt lat="44.367094" lon="8.0436157"><ele>417.66666666666663</ele><time>2026-04-26T10:40:01.974Z</time></trkpt><trkpt lat="44.3672963" lon="8.0435344"><ele>425.33333333333337</ele><time>2026-04-26T10:40:02.974Z</time></trkpt><trkpt lat="44.3675109" lon="8.0434601"><ele>433.0</ele><time>2026-04-26T10:40:03.975Z</time></trkpt><trkpt lat="44.3677242" lon="8.0433575"><ele>432.5</ele><time>2026-04-26T10:40:04.974Z</time></trkpt><trkpt lat="44.3679325" lon="8.0432074"><ele>432.0</ele><time>2026-04-26T10:40:05.974Z</time></trkpt><trkpt lat="44.3681372" lon="8.0430307"><ele>432.0</ele><time>2026-04-26T10:40:06.974Z</time></trkpt><trkpt lat="44.3683405" lon="8.0428393"><ele>432.0</ele><time>2026-04-26T10:40:07.974Z</time></trkpt><trkpt lat="44.3685235" lon="8.0426112"><ele>419.0</ele><time>2026-04-26T10:40:08.974Z</time></trkpt><trkpt lat="44.3686805" lon="8.0423689"><ele>406.0</ele><time>2026-04-26T10:40:09.974Z</time></trkpt><trkpt lat="44.3688252" lon="8.0421319"><ele>410.6666666666667</ele><time>2026-04-26T10:40:10.974Z</time></trkpt><trkpt lat="44.3689649" lon="8.0418989"><ele>415.33333333333337</ele><time>2026-04-26T10:40:11.974Z</time></trkpt><trkpt lat="44.3691016" lon="8.0416672"><ele>420.0</ele><time>2026-04-26T10:40:12.975Z</time></trkpt><trkpt lat="44.3692386" lon="8.041429"><ele>420.0</ele><time>2026-04-26T10:40:13.974Z</time></trkpt><trkpt lat="44.369345" lon="8.0411958"><ele>420.0</ele><time>2026-04-26T10:40:14.974Z</time></trkpt><trkpt lat="44.3694554" lon="8.0409706"><ele>420.0</ele><time>2026-04-26T10:40:15.974Z</time></trkpt><trkpt lat="44.3695785" lon="8.0407637"><ele>425.66666666666663</ele><time>2026-04-26T10:40:16.974Z</time></trkpt><trkpt lat="44.3697062" lon="8.0405748"><ele>431.3333333333333</ele><time>2026-04-26T10:40:17.975Z</time></trkpt><trkpt lat="44.3698302" lon="8.0403998"><ele>437.0</ele><time>2026-04-26T10:40:18.974Z</time></trkpt><trkpt lat="44.3699594" lon="8.0402303"><ele>437.0</ele><time>2026-04-26T10:40:19.974Z</time></trkpt><trkpt lat="44.3700913" lon="8.0400819"><ele>437.0</ele><time>2026-04-26T10:40:20.974Z</time></trkpt><trkpt lat="44.3702092" lon="8.0399333"><ele>437.0</ele><time>2026-04-26T10:40:21.974Z</time></trkpt><trkpt lat="44.370319" lon="8.0398013"><ele>436.40000000000003</ele><time>2026-04-26T10:40:22.973Z</time></trkpt><trkpt lat="44.3704137" lon="8.039697"><ele>435.80000000000007</ele><time>2026-04-26T10:40:23.974Z</time></trkpt><trkpt lat="44.3705019" lon="8.0396235"><ele>435.2</ele><time>2026-04-26T10:40:24.973Z</time></trkpt><trkpt lat="44.3705976" lon="8.0395674"><ele>434.6</ele><time>2026-04-26T10:40:25.973Z</time></trkpt><trkpt lat="44.3706989" lon="8.0395321"><ele>434.0</ele><time>2026-04-26T10:40:26.973Z</time></trkpt><trkpt lat="44.3707883" lon="8.0395181"><ele>433.99999999999994</ele><time>2026-04-26T10:40:27.973Z</time></trkpt><trkpt lat="44.3708703" lon="8.0395162"><ele>434.0</ele><time>2026-04-26T10:40:28.973Z</time></trkpt><trkpt lat="44.3709354" lon="8.0395276"><ele>434.0</ele><time>2026-04-26T10:40:29.973Z</time></trkpt><trkpt lat="44.3710199" lon="8.0395549"><ele>434.0</ele><time>2026-04-26T10:40:31.973Z</time></trkpt><trkpt lat="44.3711083" lon="8.0395664"><ele>433.99999999999994</ele><time>2026-04-26T10:40:42.973Z</time></trkpt><trkpt lat="44.371177" lon="8.0395752"><ele>434.0</ele><time>2026-04-26T10:40:43.973Z</time></trkpt><trkpt lat="44.3712654" lon="8.0395817"><ele>434.25</ele><time>2026-04-26T10:40:44.973Z</time></trkpt><trkpt lat="44.3713674" lon="8.0395966"><ele>434.5</ele><time>2026-04-26T10:40:45.973Z</time></trkpt><trkpt lat="44.3714862" lon="8.0396327"><ele>434.75</ele><time>2026-04-26T10:40:46.973Z</time></trkpt><trkpt lat="44.3716135" lon="8.0396735"><ele>435.0</ele><time>2026-04-26T10:40:47.973Z</time></trkpt><trkpt lat="44.3717521" lon="8.0397154"><ele>435.0</ele><time>2026-04-26T10:40:48.973Z</time></trkpt><trkpt lat="44.3718942" lon="8.0397454"><ele>435.0</ele><time>2026-04-26T10:40:49.973Z</time></trkpt><trkpt lat="44.372038" lon="8.0397853"><ele>435.0</ele><time>2026-04-26T10:40:50.973Z</time></trkpt><trkpt lat="44.3721858" lon="8.0398284"><ele>435.0</ele><time>2026-04-26T10:40:51.974Z</time></trkpt><trkpt lat="44.3723406" lon="8.0398785"><ele>434.33333333333337</ele><time>2026-04-26T10:40:52.973Z</time></trkpt><trkpt lat="44.372499" lon="8.0399266"><ele>433.6666666666667</ele><time>2026-04-26T10:40:53.973Z</time></trkpt><trkpt lat="44.3726606" lon="8.0399736"><ele>433.0</ele><time>2026-04-26T10:40:54.973Z</time></trkpt><trkpt lat="44.372824" lon="8.0400128"><ele>434.0</ele><time>2026-04-26T10:40:55.973Z</time></trkpt><trkpt lat="44.3729829" lon="8.0400499"><ele>435.0</ele><time>2026-04-26T10:40:56.973Z</time></trkpt><trkpt lat="44.3731442" lon="8.0400944"><ele>436.0</ele><time>2026-04-26T10:40:57.973Z</time></trkpt><trkpt lat="44.3733072" lon="8.0401406"><ele>436.0</ele><time>2026-04-26T10:40:58.974Z</time></trkpt><trkpt lat="44.3734708" lon="8.0401873"><ele>436.0</ele><time>2026-04-26T10:40:59.973Z</time></trkpt><trkpt lat="44.3736292" lon="8.0402268"><ele>436.0</ele><time>2026-04-26T10:41:00.973Z</time></trkpt><trkpt lat="44.3737851" lon="8.0402654"><ele>435.6666666666667</ele><time>2026-04-26T10:41:01.973Z</time></trkpt><trkpt lat="44.3739454" lon="8.0403147"><ele>435.33333333333337</ele><time>2026-04-26T10:41:02.973Z</time></trkpt><trkpt lat="44.374104" lon="8.0403575"><ele>435.0</ele><time>2026-04-26T10:41:03.973Z</time></trkpt><trkpt lat="44.3742626" lon="8.040401"><ele>435.0</ele><time>2026-04-26T10:41:04.973Z</time></trkpt><trkpt lat="44.3744207" lon="8.0404456"><ele>435.0</ele><time>2026-04-26T10:41:05.973Z</time></trkpt><trkpt lat="44.3745734" lon="8.0404907"><ele>435.0</ele><time>2026-04-26T10:41:06.973Z</time></trkpt><trkpt lat="44.3747329" lon="8.0405347"><ele>435.33333333333337</ele><time>2026-04-26T10:41:07.973Z</time></trkpt><trkpt lat="44.3748916" lon="8.0405746"><ele>435.6666666666667</ele><time>2026-04-26T10:41:08.973Z</time></trkpt><trkpt lat="44.3750528" lon="8.0406144"><ele>436.0</ele><time>2026-04-26T10:41:09.973Z</time></trkpt><trkpt lat="44.3752186" lon="8.0406539"><ele>436.0</ele><time>2026-04-26T10:41:10.974Z</time></trkpt><trkpt lat="44.3753799" lon="8.0406971"><ele>436.0</ele><time>2026-04-26T10:41:11.973Z</time></trkpt><trkpt lat="44.3755335" lon="8.0407377"><ele>436.0</ele><time>2026-04-26T10:41:12.973Z</time></trkpt><trkpt lat="44.3756865" lon="8.0407805"><ele>437.33333333333337</ele><time>2026-04-26T10:41:13.973Z</time></trkpt><trkpt lat="44.3758408" lon="8.040829"><ele>438.66666666666663</ele><time>2026-04-26T10:41:14.974Z</time></trkpt><trkpt lat="44.3759943" lon="8.0408788"><ele>440.0</ele><time>2026-04-26T10:41:15.973Z</time></trkpt><trkpt lat="44.3761488" lon="8.0409311"><ele>440.0</ele><time>2026-04-26T10:41:16.973Z</time></trkpt><trkpt lat="44.3763036" lon="8.0409694"><ele>440.0</ele><time>2026-04-26T10:41:17.973Z</time></trkpt><trkpt lat="44.3764567" lon="8.0410094"><ele>440.0</ele><time>2026-04-26T10:41:18.973Z</time></trkpt><trkpt lat="44.3766033" lon="8.0410524"><ele>439.75</ele><time>2026-04-26T10:41:19.973Z</time></trkpt><trkpt lat="44.3767401" lon="8.0410933"><ele>439.5</ele><time>2026-04-26T10:41:20.973Z</time></trkpt><trkpt lat="44.3768668" lon="8.041135"><ele>439.25</ele><time>2026-04-26T10:41:21.973Z</time></trkpt><trkpt lat="44.3769778" lon="8.0411687"><ele>439.0</ele><time>2026-04-26T10:41:22.973Z</time></trkpt><trkpt lat="44.3770738" lon="8.0411925"><ele>439.00000000000006</ele><time>2026-04-26T10:41:23.973Z</time></trkpt><trkpt lat="44.3771537" lon="8.0412142"><ele>439.0</ele><time>2026-04-26T10:41:24.973Z</time></trkpt><trkpt lat="44.3772256" lon="8.0412468"><ele>439.0</ele><time>2026-04-26T10:41:25.974Z</time></trkpt><trkpt lat="44.3772861" lon="8.0413009"><ele>439.0</ele><time>2026-04-26T10:41:26.973Z</time></trkpt><trkpt lat="44.3773347" lon="8.0413769"><ele>439.00000000000006</ele><time>2026-04-26T10:41:27.973Z</time></trkpt><trkpt lat="44.377367" lon="8.0414833"><ele>439.0</ele><time>2026-04-26T10:41:28.973Z</time></trkpt><trkpt lat="44.3773725" lon="8.0416124"><ele>439.0</ele><time>2026-04-26T10:41:29.974Z</time></trkpt><trkpt lat="44.3773553" lon="8.0417655"><ele>439.0</ele><time>2026-04-26T10:41:30.973Z</time></trkpt><trkpt lat="44.3773105" lon="8.0419399"><ele>439.0</ele><time>2026-04-26T10:41:31.973Z</time></trkpt><trkpt lat="44.3772438" lon="8.042143"><ele>439.0</ele><time>2026-04-26T10:41:32.973Z</time></trkpt><trkpt lat="44.3771623" lon="8.0423645"><ele>439.6666666666667</ele><time>2026-04-26T10:41:33.973Z</time></trkpt><trkpt lat="44.377091" lon="8.0425867"><ele>440.33333333333337</ele><time>2026-04-26T10:41:34.973Z</time></trkpt><trkpt lat="44.3770113" lon="8.0428363"><ele>441.0</ele><time>2026-04-26T10:41:35.973Z</time></trkpt><trkpt lat="44.3769349" lon="8.0430862"><ele>441.0</ele><time>2026-04-26T10:41:36.973Z</time></trkpt><trkpt lat="44.376861" lon="8.0433447"><ele>441.0</ele><time>2026-04-26T10:41:37.973Z</time></trkpt><trkpt lat="44.3767853" lon="8.043603"><ele>441.0</ele><time>2026-04-26T10:41:38.973Z</time></trkpt><trkpt lat="44.3767108" lon="8.0438656"><ele>441.0</ele><time>2026-04-26T10:41:39.973Z</time></trkpt><trkpt lat="44.3766296" lon="8.0441377"><ele>441.0</ele><time>2026-04-26T10:41:40.973Z</time></trkpt><trkpt lat="44.3765513" lon="8.0444304"><ele>441.0</ele><time>2026-04-26T10:41:41.973Z</time></trkpt><trkpt lat="44.3764692" lon="8.0447287"><ele>440.66666666666663</ele><time>2026-04-26T10:41:42.973Z</time></trkpt><trkpt lat="44.3763917" lon="8.0450167"><ele>440.3333333333333</ele><time>2026-04-26T10:41:43.973Z</time></trkpt><trkpt lat="44.3763097" lon="8.0453011"><ele>440.0</ele><time>2026-04-26T10:41:44.973Z</time></trkpt><trkpt lat="44.3762191" lon="8.0455968"><ele>440.5</ele><time>2026-04-26T10:41:45.973Z</time></trkpt><trkpt lat="44.3761259" lon="8.0458974"><ele>441.0</ele><time>2026-04-26T10:41:46.973Z</time></trkpt><trkpt lat="44.3760399" lon="8.0461966"><ele>441.0</ele><time>2026-04-26T10:41:47.973Z</time></trkpt><trkpt lat="44.3759571" lon="8.0464963"><ele>441.0</ele><time>2026-04-26T10:41:48.973Z</time></trkpt><trkpt lat="44.3758692" lon="8.0468023"><ele>440.0</ele><time>2026-04-26T10:41:49.973Z</time></trkpt><trkpt lat="44.3757854" lon="8.0471047"><ele>439.0</ele><time>2026-04-26T10:41:50.973Z</time></trkpt><trkpt lat="44.3756959" lon="8.0474033"><ele>437.5</ele><time>2026-04-26T10:41:51.973Z</time></trkpt><trkpt lat="44.3756101" lon="8.0477064"><ele>436.0</ele><time>2026-04-26T10:41:52.973Z</time></trkpt><trkpt lat="44.3755283" lon="8.0480035"><ele>438.0</ele><time>2026-04-26T10:41:53.973Z</time></trkpt><trkpt lat="44.3754385" lon="8.0482967"><ele>440.0</ele><time>2026-04-26T10:41:54.973Z</time></trkpt><trkpt lat="44.3753465" lon="8.04859"><ele>440.0</ele><time>2026-04-26T10:41:55.973Z</time></trkpt><trkpt lat="44.3752621" lon="8.0488701"><ele>440.0</ele><time>2026-04-26T10:41:56.973Z</time></trkpt><trkpt lat="44.3751831" lon="8.0491401"><ele>440.0</ele><time>2026-04-26T10:41:57.973Z</time></trkpt><trkpt lat="44.3751068" lon="8.0494146"><ele>439.66666666666663</ele><time>2026-04-26T10:41:58.973Z</time></trkpt><trkpt lat="44.3750438" lon="8.0497096"><ele>439.33333333333337</ele><time>2026-04-26T10:41:59.974Z</time></trkpt><trkpt lat="44.3749918" lon="8.0500148"><ele>439.0</ele><time>2026-04-26T10:42:00.973Z</time></trkpt><trkpt lat="44.3749765" lon="8.0503116"><ele>438.6666666666667</ele><time>2026-04-26T10:42:01.973Z</time></trkpt><trkpt lat="44.3749875" lon="8.0506097"><ele>438.33333333333337</ele><time>2026-04-26T10:42:02.973Z</time></trkpt><trkpt lat="44.3750074" lon="8.0509118"><ele>438.0</ele><time>2026-04-26T10:42:03.973Z</time></trkpt><trkpt lat="44.3750218" lon="8.051222"><ele>437.66666666666663</ele><time>2026-04-26T10:42:04.973Z</time></trkpt><trkpt lat="44.3750298" lon="8.0515298"><ele>437.3333333333333</ele><time>2026-04-26T10:42:05.974Z</time></trkpt><trkpt lat="44.3750301" lon="8.0518417"><ele>437.0</ele><time>2026-04-26T10:42:06.973Z</time></trkpt><trkpt lat="44.3750324" lon="8.052158"><ele>437.5</ele><time>2026-04-26T10:42:07.973Z</time></trkpt><trkpt lat="44.3750366" lon="8.052473"><ele>438.0</ele><time>2026-04-26T10:42:08.974Z</time></trkpt><trkpt lat="44.3750463" lon="8.0527878"><ele>438.0</ele><time>2026-04-26T10:42:09.973Z</time></trkpt><trkpt lat="44.3750498" lon="8.0531016"><ele>438.0</ele><time>2026-04-26T10:42:10.973Z</time></trkpt><trkpt lat="44.375052" lon="8.0534238"><ele>437.5</ele><time>2026-04-26T10:42:11.973Z</time></trkpt><trkpt lat="44.3750459" lon="8.053742"><ele>437.0</ele><time>2026-04-26T10:42:12.973Z</time></trkpt><trkpt lat="44.3750455" lon="8.0540555"><ele>436.3333333333333</ele><time>2026-04-26T10:42:13.973Z</time></trkpt><trkpt lat="44.3750541" lon="8.0543678"><ele>435.66666666666663</ele><time>2026-04-26T10:42:14.973Z</time></trkpt><trkpt lat="44.3750622" lon="8.0546822"><ele>435.0</ele><time>2026-04-26T10:42:15.974Z</time></trkpt><trkpt lat="44.3750699" lon="8.0549942"><ele>434.66666666666663</ele><time>2026-04-26T10:42:16.973Z</time></trkpt><trkpt lat="44.3750707" lon="8.0553007"><ele>434.3333333333333</ele><time>2026-04-26T10:42:17.973Z</time></trkpt><trkpt lat="44.3750727" lon="8.0556109"><ele>434.0</ele><time>2026-04-26T10:42:18.973Z</time></trkpt><trkpt lat="44.3750755" lon="8.0559167"><ele>435.0</ele><time>2026-04-26T10:42:19.973Z</time></trkpt><trkpt lat="44.3750751" lon="8.0562192"><ele>436.0</ele><time>2026-04-26T10:42:20.973Z</time></trkpt><trkpt lat="44.3750818" lon="8.0565168"><ele>437.0</ele><time>2026-04-26T10:42:21.973Z</time></trkpt><trkpt lat="44.3750848" lon="8.0568171"><ele>437.3333333333333</ele><time>2026-04-26T10:42:22.973Z</time></trkpt><trkpt lat="44.3750898" lon="8.0571179"><ele>437.66666666666663</ele><time>2026-04-26T10:42:23.973Z</time></trkpt><trkpt lat="44.3750925" lon="8.0574179"><ele>438.0</ele><time>2026-04-26T10:42:24.973Z</time></trkpt><trkpt lat="44.3750974" lon="8.0577192"><ele>438.33333333333337</ele><time>2026-04-26T10:42:25.973Z</time></trkpt><trkpt lat="44.3751025" lon="8.0580185"><ele>438.6666666666667</ele><time>2026-04-26T10:42:26.974Z</time></trkpt><trkpt lat="44.3751076" lon="8.0583158"><ele>439.0</ele><time>2026-04-26T10:42:27.973Z</time></trkpt><trkpt lat="44.3751124" lon="8.0586088"><ele>439.0</ele><time>2026-04-26T10:42:28.973Z</time></trkpt><trkpt lat="44.3751131" lon="8.0589006"><ele>439.0</ele><time>2026-04-26T10:42:29.973Z</time></trkpt><trkpt lat="44.3751179" lon="8.0591944"><ele>439.0</ele><time>2026-04-26T10:42:30.973Z</time></trkpt><trkpt lat="44.3751192" lon="8.0594884"><ele>439.33333333333337</ele><time>2026-04-26T10:42:31.973Z</time></trkpt><trkpt lat="44.3751233" lon="8.0597781"><ele>439.66666666666663</ele><time>2026-04-26T10:42:32.973Z</time></trkpt><trkpt lat="44.3751262" lon="8.0600704"><ele>440.0</ele><time>2026-04-26T10:42:33.973Z</time></trkpt><trkpt lat="44.3751289" lon="8.0603648"><ele>440.0</ele><time>2026-04-26T10:42:34.973Z</time></trkpt><trkpt lat="44.375132" lon="8.0606596"><ele>440.0</ele><time>2026-04-26T10:42:35.974Z</time></trkpt><trkpt lat="44.3751316" lon="8.0609471"><ele>440.0</ele><time>2026-04-26T10:42:36.973Z</time></trkpt><trkpt lat="44.3751351" lon="8.0612312"><ele>439.66666666666663</ele><time>2026-04-26T10:42:37.974Z</time></trkpt><trkpt lat="44.375137" lon="8.0615088"><ele>439.33333333333337</ele><time>2026-04-26T10:42:38.973Z</time></trkpt><trkpt lat="44.3751395" lon="8.0617878"><ele>439.0</ele><time>2026-04-26T10:42:39.974Z</time></trkpt><trkpt lat="44.3751451" lon="8.0620584"><ele>438.6666666666667</ele><time>2026-04-26T10:42:40.973Z</time></trkpt><trkpt lat="44.3751497" lon="8.0623224"><ele>438.33333333333337</ele><time>2026-04-26T10:42:41.973Z</time></trkpt><trkpt lat="44.3751541" lon="8.0625813"><ele>438.0</ele><time>2026-04-26T10:42:42.973Z</time></trkpt><trkpt lat="44.3751675" lon="8.0628377"><ele>435.66666666666663</ele><time>2026-04-26T10:42:43.973Z</time></trkpt><trkpt lat="44.3751876" lon="8.0631002"><ele>433.3333333333333</ele><time>2026-04-26T10:42:44.974Z</time></trkpt><trkpt lat="44.3752163" lon="8.0633649"><ele>431.0</ele><time>2026-04-26T10:42:45.973Z</time></trkpt><trkpt lat="44.3752464" lon="8.0636312"><ele>430.0</ele><time>2026-04-26T10:42:46.973Z</time></trkpt><trkpt lat="44.3752799" lon="8.0638938"><ele>429.0</ele><time>2026-04-26T10:42:47.973Z</time></trkpt><trkpt lat="44.3753174" lon="8.0641542"><ele>428.0</ele><time>2026-04-26T10:42:48.973Z</time></trkpt><trkpt lat="44.3753504" lon="8.0644125"><ele>431.66666666666663</ele><time>2026-04-26T10:42:49.973Z</time></trkpt><trkpt lat="44.3753838" lon="8.0646605"><ele>435.33333333333337</ele><time>2026-04-26T10:42:50.973Z</time></trkpt><trkpt lat="44.375417" lon="8.0648975"><ele>439.0</ele><time>2026-04-26T10:42:51.973Z</time></trkpt><trkpt lat="44.3754515" lon="8.0651285"><ele>442.6666666666667</ele><time>2026-04-26T10:42:52.973Z</time></trkpt><trkpt lat="44.3754826" lon="8.0653565"><ele>446.33333333333337</ele><time>2026-04-26T10:42:53.973Z</time></trkpt><trkpt lat="44.3755126" lon="8.0655828"><ele>450.0</ele><time>2026-04-26T10:42:54.973Z</time></trkpt><trkpt lat="44.3755362" lon="8.065796"><ele>453.0</ele><time>2026-04-26T10:42:55.973Z</time></trkpt><trkpt lat="44.3755615" lon="8.0660142"><ele>456.0</ele><time>2026-04-26T10:42:56.973Z</time></trkpt><trkpt lat="44.3755821" lon="8.0662194"><ele>459.0</ele><time>2026-04-26T10:42:57.973Z</time></trkpt><trkpt lat="44.375599" lon="8.0664121"><ele>462.0</ele><time>2026-04-26T10:42:58.973Z</time></trkpt><trkpt lat="44.3756215" lon="8.0665862"><ele>462.0</ele><time>2026-04-26T10:42:59.973Z</time></trkpt><trkpt lat="44.3756438" lon="8.0667463"><ele>462.0</ele><time>2026-04-26T10:43:00.973Z</time></trkpt><trkpt lat="44.3756724" lon="8.066898"><ele>462.0</ele><time>2026-04-26T10:43:01.973Z</time></trkpt><trkpt lat="44.3756979" lon="8.0670559"><ele>462.0</ele><time>2026-04-26T10:43:02.973Z</time></trkpt><trkpt lat="44.3757195" lon="8.0672287"><ele>462.0</ele><time>2026-04-26T10:43:03.973Z</time></trkpt><trkpt lat="44.3757331" lon="8.0674214"><ele>462.0</ele><time>2026-04-26T10:43:04.973Z</time></trkpt><trkpt lat="44.3757293" lon="8.0676366"><ele>462.0</ele><time>2026-04-26T10:43:05.973Z</time></trkpt><trkpt lat="44.3757129" lon="8.0678604"><ele>460.33333333333337</ele><time>2026-04-26T10:43:06.973Z</time></trkpt><trkpt lat="44.3756925" lon="8.0680827"><ele>458.6666666666667</ele><time>2026-04-26T10:43:07.973Z</time></trkpt><trkpt lat="44.3756721" lon="8.0683079"><ele>457.0</ele><time>2026-04-26T10:43:08.974Z</time></trkpt><trkpt lat="44.3756425" lon="8.0685401"><ele>455.33333333333337</ele><time>2026-04-26T10:43:09.973Z</time></trkpt><trkpt lat="44.3755964" lon="8.0687778"><ele>453.66666666666663</ele><time>2026-04-26T10:43:10.973Z</time></trkpt><trkpt lat="44.3755367" lon="8.0690131"><ele>452.0</ele><time>2026-04-26T10:43:11.973Z</time></trkpt><trkpt lat="44.3754692" lon="8.0692397"><ele>451.3333333333333</ele><time>2026-04-26T10:43:12.973Z</time></trkpt><trkpt lat="44.3753813" lon="8.0694636"><ele>450.66666666666663</ele><time>2026-04-26T10:43:13.973Z</time></trkpt><trkpt lat="44.3752683" lon="8.0696737"><ele>450.0</ele><time>2026-04-26T10:43:14.974Z</time></trkpt><trkpt lat="44.3751346" lon="8.0698651"><ele>450.33333333333337</ele><time>2026-04-26T10:43:15.973Z</time></trkpt><trkpt lat="44.3749872" lon="8.07004"><ele>450.6666666666667</ele><time>2026-04-26T10:43:16.973Z</time></trkpt><trkpt lat="44.3748359" lon="8.0702109"><ele>451.0</ele><time>2026-04-26T10:43:17.973Z</time></trkpt><trkpt lat="44.3746788" lon="8.0703809"><ele>450.33333333333337</ele><time>2026-04-26T10:43:18.973Z</time></trkpt><trkpt lat="44.3745256" lon="8.0705578"><ele>449.66666666666663</ele><time>2026-04-26T10:43:19.974Z</time></trkpt><trkpt lat="44.3743773" lon="8.0707353"><ele>449.0</ele><time>2026-04-26T10:43:20.973Z</time></trkpt><trkpt lat="44.3742223" lon="8.0709094"><ele>448.66666666666663</ele><time>2026-04-26T10:43:21.973Z</time></trkpt><trkpt lat="44.3740645" lon="8.0710799"><ele>448.33333333333337</ele><time>2026-04-26T10:43:22.973Z</time></trkpt><trkpt lat="44.3739073" lon="8.0712401"><ele>448.0</ele><time>2026-04-26T10:43:23.973Z</time></trkpt><trkpt lat="44.373748" lon="8.0714127"><ele>447.6666666666667</ele><time>2026-04-26T10:43:24.973Z</time></trkpt><trkpt lat="44.3735845" lon="8.0715951"><ele>447.33333333333337</ele><time>2026-04-26T10:43:25.973Z</time></trkpt><trkpt lat="44.373427" lon="8.0717732"><ele>447.0</ele><time>2026-04-26T10:43:26.973Z</time></trkpt><trkpt lat="44.3732628" lon="8.0719632"><ele>447.66666666666663</ele><time>2026-04-26T10:43:27.973Z</time></trkpt><trkpt lat="44.3731135" lon="8.0721619"><ele>448.3333333333333</ele><time>2026-04-26T10:43:28.973Z</time></trkpt><trkpt lat="44.3729823" lon="8.0723681"><ele>449.0</ele><time>2026-04-26T10:43:29.973Z</time></trkpt><trkpt lat="44.3728737" lon="8.0725957"><ele>450.0</ele><time>2026-04-26T10:43:30.973Z</time></trkpt><trkpt lat="44.3727887" lon="8.0728495"><ele>451.0</ele><time>2026-04-26T10:43:31.973Z</time></trkpt><trkpt lat="44.3727243" lon="8.0731272"><ele>452.0</ele><time>2026-04-26T10:43:32.973Z</time></trkpt><trkpt lat="44.3727039" lon="8.0734163"><ele>453.0</ele><time>2026-04-26T10:43:33.973Z</time></trkpt><trkpt lat="44.3727128" lon="8.0736987"><ele>454.0</ele><time>2026-04-26T10:43:34.973Z</time></trkpt><trkpt lat="44.3727448" lon="8.0739742"><ele>455.0</ele><time>2026-04-26T10:43:35.974Z</time></trkpt><trkpt lat="44.3728129" lon="8.074247"><ele>455.0</ele><time>2026-04-26T10:43:36.973Z</time></trkpt><trkpt lat="44.3729091" lon="8.0745155"><ele>455.0</ele><time>2026-04-26T10:43:37.973Z</time></trkpt><trkpt lat="44.3730124" lon="8.0747808"><ele>455.0</ele><time>2026-04-26T10:43:38.973Z</time></trkpt><trkpt lat="44.3731152" lon="8.0750482"><ele>456.3333333333333</ele><time>2026-04-26T10:43:39.973Z</time></trkpt><trkpt lat="44.373214" lon="8.075313"><ele>457.66666666666663</ele><time>2026-04-26T10:43:40.973Z</time></trkpt><trkpt lat="44.3733085" lon="8.075582"><ele>459.0</ele><time>2026-04-26T10:43:41.973Z</time></trkpt><trkpt lat="44.3734046" lon="8.0758508"><ele>459.0</ele><time>2026-04-26T10:43:42.973Z</time></trkpt><trkpt lat="44.3735" lon="8.0761328"><ele>459.0</ele><time>2026-04-26T10:43:43.973Z</time></trkpt><trkpt lat="44.3735867" lon="8.0764148"><ele>459.0</ele><time>2026-04-26T10:43:44.973Z</time></trkpt><trkpt lat="44.3736735" lon="8.0766951"><ele>459.33333333333337</ele><time>2026-04-26T10:43:45.973Z</time></trkpt><trkpt lat="44.3737613" lon="8.0769595"><ele>459.6666666666667</ele><time>2026-04-26T10:43:46.973Z</time></trkpt><trkpt lat="44.3738482" lon="8.0772119"><ele>460.0</ele><time>2026-04-26T10:43:47.973Z</time></trkpt><trkpt lat="44.3739262" lon="8.0774571"><ele>461.6666666666667</ele><time>2026-04-26T10:43:48.973Z</time></trkpt><trkpt lat="44.3739696" lon="8.0777147"><ele>463.33333333333337</ele><time>2026-04-26T10:43:49.974Z</time></trkpt><trkpt lat="44.3739776" lon="8.0779872"><ele>465.0</ele><time>2026-04-26T10:43:50.973Z</time></trkpt><trkpt lat="44.3739736" lon="8.0782691"><ele>465.33333333333337</ele><time>2026-04-26T10:43:51.973Z</time></trkpt><trkpt lat="44.37397" lon="8.0785553"><ele>465.6666666666667</ele><time>2026-04-26T10:43:52.973Z</time></trkpt><trkpt lat="44.3739638" lon="8.0788495"><ele>466.0</ele><time>2026-04-26T10:43:53.973Z</time></trkpt><trkpt lat="44.3739587" lon="8.0791397"><ele>466.33333333333337</ele><time>2026-04-26T10:43:54.973Z</time></trkpt><trkpt lat="44.3739676" lon="8.0794274"><ele>466.66666666666663</ele><time>2026-04-26T10:43:55.973Z</time></trkpt><trkpt lat="44.3739874" lon="8.0797119"><ele>467.0</ele><time>2026-04-26T10:43:56.973Z</time></trkpt><trkpt lat="44.3740299" lon="8.0799961"><ele>467.0</ele><time>2026-04-26T10:43:57.973Z</time></trkpt><trkpt lat="44.3740988" lon="8.0802709"><ele>467.0</ele><time>2026-04-26T10:43:58.973Z</time></trkpt><trkpt lat="44.3741874" lon="8.0805374"><ele>467.0</ele><time>2026-04-26T10:43:59.973Z</time></trkpt><trkpt lat="44.3742802" lon="8.0808117"><ele>467.0</ele><time>2026-04-26T10:44:00.973Z</time></trkpt><trkpt lat="44.3743737" lon="8.0810866"><ele>467.0</ele><time>2026-04-26T10:44:01.973Z</time></trkpt><trkpt lat="44.3744622" lon="8.0813643"><ele>467.0</ele><time>2026-04-26T10:44:02.973Z</time></trkpt><trkpt lat="44.3745476" lon="8.0816356"><ele>466.3333333333333</ele><time>2026-04-26T10:44:03.973Z</time></trkpt><trkpt lat="44.374621" lon="8.0818983"><ele>465.66666666666663</ele><time>2026-04-26T10:44:04.973Z</time></trkpt><trkpt lat="44.3746962" lon="8.0821588"><ele>465.0</ele><time>2026-04-26T10:44:05.973Z</time></trkpt><trkpt lat="44.37477" lon="8.0824227"><ele>466.33333333333337</ele><time>2026-04-26T10:44:06.973Z</time></trkpt><trkpt lat="44.3748454" lon="8.0826799"><ele>467.6666666666667</ele><time>2026-04-26T10:44:07.973Z</time></trkpt><trkpt lat="44.3749224" lon="8.0829361"><ele>469.0</ele><time>2026-04-26T10:44:08.973Z</time></trkpt><trkpt lat="44.3750026" lon="8.0831983"><ele>469.0</ele><time>2026-04-26T10:44:09.973Z</time></trkpt><trkpt lat="44.3750839" lon="8.083461"><ele>469.0</ele><time>2026-04-26T10:44:10.973Z</time></trkpt><trkpt lat="44.3751623" lon="8.0837232"><ele>469.0</ele><time>2026-04-26T10:44:11.973Z</time></trkpt><trkpt lat="44.375238" lon="8.0839813"><ele>469.33333333333337</ele><time>2026-04-26T10:44:12.973Z</time></trkpt><trkpt lat="44.375307" lon="8.0842306"><ele>469.66666666666663</ele><time>2026-04-26T10:44:13.974Z</time></trkpt><trkpt lat="44.3753853" lon="8.0844642"><ele>470.0</ele><time>2026-04-26T10:44:14.973Z</time></trkpt><trkpt lat="44.375457" lon="8.0846941"><ele>470.0</ele><time>2026-04-26T10:44:15.973Z</time></trkpt><trkpt lat="44.3755215" lon="8.0849214"><ele>470.0</ele><time>2026-04-26T10:44:16.972Z</time></trkpt><trkpt lat="44.3755821" lon="8.0851445"><ele>470.0</ele><time>2026-04-26T10:44:17.972Z</time></trkpt><trkpt lat="44.3756329" lon="8.0853532"><ele>470.0</ele><time>2026-04-26T10:44:18.973Z</time></trkpt><trkpt lat="44.3756767" lon="8.0855551"><ele>470.0</ele><time>2026-04-26T10:44:19.972Z</time></trkpt><trkpt lat="44.3756985" lon="8.0857438"><ele>470.0</ele><time>2026-04-26T10:44:20.972Z</time></trkpt><trkpt lat="44.3757031" lon="8.0859171"><ele>470.0</ele><time>2026-04-26T10:44:21.972Z</time></trkpt><trkpt lat="44.3756887" lon="8.0860785"><ele>469.5</ele><time>2026-04-26T10:44:22.972Z</time></trkpt><trkpt lat="44.3756605" lon="8.0862419"><ele>469.0</ele><time>2026-04-26T10:44:23.972Z</time></trkpt><trkpt lat="44.3756313" lon="8.0864086"><ele>468.5</ele><time>2026-04-26T10:44:24.972Z</time></trkpt><trkpt lat="44.3756228" lon="8.0865787"><ele>468.0</ele><time>2026-04-26T10:44:25.972Z</time></trkpt><trkpt lat="44.3756324" lon="8.0867602"><ele>468.0</ele><time>2026-04-26T10:44:26.972Z</time></trkpt><trkpt lat="44.3756365" lon="8.0869461"><ele>468.0</ele><time>2026-04-26T10:44:27.973Z</time></trkpt><trkpt lat="44.3756283" lon="8.0871384"><ele>468.0</ele><time>2026-04-26T10:44:28.972Z</time></trkpt><trkpt lat="44.3756024" lon="8.0873409"><ele>468.0</ele><time>2026-04-26T10:44:29.973Z</time></trkpt><trkpt lat="44.3755667" lon="8.0875618"><ele>468.0</ele><time>2026-04-26T10:44:30.972Z</time></trkpt><trkpt lat="44.3755226" lon="8.0877951"><ele>468.0</ele><time>2026-04-26T10:44:31.972Z</time></trkpt><trkpt lat="44.3754657" lon="8.0880402"><ele>468.0</ele><time>2026-04-26T10:44:32.972Z</time></trkpt><trkpt lat="44.3753991" lon="8.0882922"><ele>467.66666666666663</ele><time>2026-04-26T10:44:33.972Z</time></trkpt><trkpt lat="44.3753312" lon="8.0885443"><ele>467.3333333333333</ele><time>2026-04-26T10:44:34.972Z</time></trkpt><trkpt lat="44.3752638" lon="8.0888107"><ele>467.0</ele><time>2026-04-26T10:44:35.972Z</time></trkpt><trkpt lat="44.3752049" lon="8.0890843"><ele>468.3333333333333</ele><time>2026-04-26T10:44:36.972Z</time></trkpt><trkpt lat="44.375149" lon="8.0893594"><ele>469.66666666666663</ele><time>2026-04-26T10:44:37.972Z</time></trkpt><trkpt lat="44.3750935" lon="8.0896371"><ele>471.0</ele><time>2026-04-26T10:44:38.972Z</time></trkpt><trkpt lat="44.3750368" lon="8.0899198"><ele>471.0</ele><time>2026-04-26T10:44:39.972Z</time></trkpt><trkpt lat="44.374975" lon="8.0901989"><ele>471.0</ele><time>2026-04-26T10:44:40.972Z</time></trkpt><trkpt lat="44.3749135" lon="8.0904758"><ele>471.0</ele><time>2026-04-26T10:44:41.972Z</time></trkpt><trkpt lat="44.3748581" lon="8.0907641"><ele>471.0</ele><time>2026-04-26T10:44:42.972Z</time></trkpt><trkpt lat="44.3748002" lon="8.0910572"><ele>471.0</ele><time>2026-04-26T10:44:43.972Z</time></trkpt><trkpt lat="44.3747416" lon="8.091362"><ele>471.0</ele><time>2026-04-26T10:44:44.972Z</time></trkpt><trkpt lat="44.3746745" lon="8.0916765"><ele>477.0</ele><time>2026-04-26T10:44:45.972Z</time></trkpt><trkpt lat="44.3746025" lon="8.0919856"><ele>483.0</ele><time>2026-04-26T10:44:46.972Z</time></trkpt><trkpt lat="44.374539" lon="8.0922856"><ele>483.5</ele><time>2026-04-26T10:44:47.973Z</time></trkpt><trkpt lat="44.374478" lon="8.0925871"><ele>484.0</ele><time>2026-04-26T10:44:48.972Z</time></trkpt><trkpt lat="44.3744116" lon="8.0928899"><ele>484.0</ele><time>2026-04-26T10:44:49.973Z</time></trkpt><trkpt lat="44.3743418" lon="8.0931942"><ele>484.0</ele><time>2026-04-26T10:44:50.973Z</time></trkpt><trkpt lat="44.3742807" lon="8.0934924"><ele>483.33333333333337</ele><time>2026-04-26T10:44:51.972Z</time></trkpt><trkpt lat="44.3742142" lon="8.093786"><ele>482.66666666666663</ele><time>2026-04-26T10:44:52.972Z</time></trkpt><trkpt lat="44.3741515" lon="8.0940761"><ele>482.0</ele><time>2026-04-26T10:44:53.972Z</time></trkpt><trkpt lat="44.3740973" lon="8.0943598"><ele>481.66666666666663</ele><time>2026-04-26T10:44:54.972Z</time></trkpt><trkpt lat="44.374044" lon="8.0946363"><ele>481.33333333333337</ele><time>2026-04-26T10:44:55.972Z</time></trkpt><trkpt lat="44.3739914" lon="8.0949002"><ele>481.0</ele><time>2026-04-26T10:44:56.973Z</time></trkpt><trkpt lat="44.3739404" lon="8.0951609"><ele>480.6666666666667</ele><time>2026-04-26T10:44:57.972Z</time></trkpt><trkpt lat="44.3738936" lon="8.0954164"><ele>480.33333333333337</ele><time>2026-04-26T10:44:58.972Z</time></trkpt><trkpt lat="44.3738577" lon="8.0956636"><ele>480.0</ele><time>2026-04-26T10:44:59.972Z</time></trkpt><trkpt lat="44.3738428" lon="8.0958975"><ele>479.0</ele><time>2026-04-26T10:45:00.972Z</time></trkpt><trkpt lat="44.3738469" lon="8.0961154"><ele>478.0</ele><time>2026-04-26T10:45:01.972Z</time></trkpt><trkpt lat="44.3738634" lon="8.0963211"><ele>477.0</ele><time>2026-04-26T10:45:02.972Z</time></trkpt><trkpt lat="44.3738825" lon="8.0965113"><ele>476.0</ele><time>2026-04-26T10:45:03.972Z</time></trkpt><trkpt lat="44.3739018" lon="8.0966807"><ele>475.75</ele><time>2026-04-26T10:45:04.972Z</time></trkpt><trkpt lat="44.3739341" lon="8.0968213"><ele>475.5</ele><time>2026-04-26T10:45:05.972Z</time></trkpt><trkpt lat="44.3739945" lon="8.0969497"><ele>475.25</ele><time>2026-04-26T10:45:06.973Z</time></trkpt><trkpt lat="44.3740723" lon="8.0970811"><ele>475.0</ele><time>2026-04-26T10:45:07.972Z</time></trkpt><trkpt lat="44.3741672" lon="8.0972316"><ele>475.0</ele><time>2026-04-26T10:45:08.972Z</time></trkpt><trkpt lat="44.3742778" lon="8.0973938"><ele>475.0</ele><time>2026-04-26T10:45:09.972Z</time></trkpt><trkpt lat="44.3744107" lon="8.09755"><ele>475.0</ele><time>2026-04-26T10:45:10.972Z</time></trkpt><trkpt lat="44.374569" lon="8.0976838"><ele>476.0</ele><time>2026-04-26T10:45:11.972Z</time></trkpt><trkpt lat="44.3747436" lon="8.0978217"><ele>477.0</ele><time>2026-04-26T10:45:12.972Z</time></trkpt><trkpt lat="44.3749199" lon="8.0979511"><ele>478.0</ele><time>2026-04-26T10:45:13.972Z</time></trkpt><trkpt lat="44.3751037" lon="8.0980847"><ele>478.0</ele><time>2026-04-26T10:45:14.972Z</time></trkpt><trkpt lat="44.3752941" lon="8.0982191"><ele>478.0</ele><time>2026-04-26T10:45:15.972Z</time></trkpt><trkpt lat="44.375498" lon="8.0983645"><ele>478.0</ele><time>2026-04-26T10:45:16.972Z</time></trkpt><trkpt lat="44.3756956" lon="8.0985116"><ele>478.33333333333337</ele><time>2026-04-26T10:45:17.973Z</time></trkpt><trkpt lat="44.3758946" lon="8.0986649"><ele>478.66666666666663</ele><time>2026-04-26T10:45:18.973Z</time></trkpt><trkpt lat="44.3760886" lon="8.0988064"><ele>479.0</ele><time>2026-04-26T10:45:19.972Z</time></trkpt><trkpt lat="44.3762764" lon="8.0989567"><ele>482.66666666666663</ele><time>2026-04-26T10:45:20.972Z</time></trkpt><trkpt lat="44.3764683" lon="8.0991156"><ele>486.33333333333337</ele><time>2026-04-26T10:45:21.972Z</time></trkpt><trkpt lat="44.3766512" lon="8.0992654"><ele>490.0</ele><time>2026-04-26T10:45:22.972Z</time></trkpt><trkpt lat="44.3768361" lon="8.0994186"><ele>490.0</ele><time>2026-04-26T10:45:23.972Z</time></trkpt><trkpt lat="44.3770215" lon="8.0995699"><ele>490.0</ele><time>2026-04-26T10:45:24.972Z</time></trkpt><trkpt lat="44.3772037" lon="8.0997282"><ele>490.0</ele><time>2026-04-26T10:45:25.972Z</time></trkpt><trkpt lat="44.3773811" lon="8.0998946"><ele>490.33333333333337</ele><time>2026-04-26T10:45:26.972Z</time></trkpt><trkpt lat="44.3775619" lon="8.1000608"><ele>490.66666666666663</ele><time>2026-04-26T10:45:27.972Z</time></trkpt><trkpt lat="44.3777351" lon="8.1002353"><ele>491.0</ele><time>2026-04-26T10:45:28.972Z</time></trkpt><trkpt lat="44.377901" lon="8.1004167"><ele>492.0</ele><time>2026-04-26T10:45:29.972Z</time></trkpt><trkpt lat="44.3780506" lon="8.1006136"><ele>493.0</ele><time>2026-04-26T10:45:30.972Z</time></trkpt><trkpt lat="44.378185" lon="8.1008256"><ele>494.0</ele><time>2026-04-26T10:45:31.972Z</time></trkpt><trkpt lat="44.37831" lon="8.1010635"><ele>494.0</ele><time>2026-04-26T10:45:32.972Z</time></trkpt><trkpt lat="44.3784495" lon="8.1012932"><ele>494.0</ele><time>2026-04-26T10:45:33.972Z</time></trkpt><trkpt lat="44.3786093" lon="8.1015034"><ele>494.0</ele><time>2026-04-26T10:45:34.972Z</time></trkpt><trkpt lat="44.3787813" lon="8.1016891"><ele>497.66666666666663</ele><time>2026-04-26T10:45:35.972Z</time></trkpt><trkpt lat="44.3789547" lon="8.1018667"><ele>501.33333333333337</ele><time>2026-04-26T10:45:36.972Z</time></trkpt><trkpt lat="44.3791385" lon="8.102049"><ele>505.0</ele><time>2026-04-26T10:45:37.972Z</time></trkpt><trkpt lat="44.3793207" lon="8.1022308"><ele>505.0</ele><time>2026-04-26T10:45:38.972Z</time></trkpt><trkpt lat="44.3794966" lon="8.102409"><ele>505.0</ele><time>2026-04-26T10:45:39.972Z</time></trkpt><trkpt lat="44.3796719" lon="8.1025818"><ele>505.0</ele><time>2026-04-26T10:45:40.972Z</time></trkpt><trkpt lat="44.3798457" lon="8.1027508"><ele>503.33333333333337</ele><time>2026-04-26T10:45:41.972Z</time></trkpt><trkpt lat="44.3800167" lon="8.1029343"><ele>501.66666666666663</ele><time>2026-04-26T10:45:42.972Z</time></trkpt><trkpt lat="44.3801762" lon="8.1031422"><ele>500.0</ele><time>2026-04-26T10:45:43.972Z</time></trkpt><trkpt lat="44.3803205" lon="8.1033715"><ele>500.0</ele><time>2026-04-26T10:45:44.972Z</time></trkpt><trkpt lat="44.3804423" lon="8.10362"><ele>500.0</ele><time>2026-04-26T10:45:45.972Z</time></trkpt><trkpt lat="44.3805389" lon="8.1038852"><ele>500.0</ele><time>2026-04-26T10:45:46.972Z</time></trkpt><trkpt lat="44.3806217" lon="8.1041558"><ele>504.3333333333333</ele><time>2026-04-26T10:45:47.972Z</time></trkpt><trkpt lat="44.380683" lon="8.1044158"><ele>508.66666666666663</ele><time>2026-04-26T10:45:48.973Z</time></trkpt><trkpt lat="44.380726" lon="8.1046761"><ele>513.0</ele><time>2026-04-26T10:45:49.972Z</time></trkpt><trkpt lat="44.3807487" lon="8.1049245"><ele>513.0</ele><time>2026-04-26T10:45:50.972Z</time></trkpt><trkpt lat="44.380769" lon="8.1051559"><ele>513.0</ele><time>2026-04-26T10:45:51.972Z</time></trkpt><trkpt lat="44.3808072" lon="8.1053736"><ele>513.0</ele><time>2026-04-26T10:45:52.972Z</time></trkpt><trkpt lat="44.380887" lon="8.1055752"><ele>510.66666666666663</ele><time>2026-04-26T10:45:53.972Z</time></trkpt><trkpt lat="44.3810031" lon="8.1057618"><ele>508.3333333333333</ele><time>2026-04-26T10:45:54.972Z</time></trkpt><trkpt lat="44.3811439" lon="8.1059624"><ele>506.0</ele><time>2026-04-26T10:45:55.973Z</time></trkpt><trkpt lat="44.3812935" lon="8.1061769"><ele>508.66666666666663</ele><time>2026-04-26T10:45:56.972Z</time></trkpt><trkpt lat="44.3814453" lon="8.1063951"><ele>511.33333333333337</ele><time>2026-04-26T10:45:57.972Z</time></trkpt><trkpt lat="44.3815941" lon="8.1066173"><ele>514.0</ele><time>2026-04-26T10:45:58.972Z</time></trkpt><trkpt lat="44.3817493" lon="8.1068386"><ele>514.0</ele><time>2026-04-26T10:45:59.972Z</time></trkpt><trkpt lat="44.3819184" lon="8.1070628"><ele>514.0</ele><time>2026-04-26T10:46:00.972Z</time></trkpt><trkpt lat="44.3820847" lon="8.1072864"><ele>517.3333333333334</ele><time>2026-04-26T10:46:01.972Z</time></trkpt><trkpt lat="44.3822471" lon="8.1075072"><ele>520.6666666666666</ele><time>2026-04-26T10:46:02.972Z</time></trkpt><trkpt lat="44.3824023" lon="8.1077177"><ele>524.0</ele><time>2026-04-26T10:46:03.972Z</time></trkpt><trkpt lat="44.3825481" lon="8.1079231"><ele>524.0</ele><time>2026-04-26T10:46:04.972Z</time></trkpt><trkpt lat="44.3826895" lon="8.1081426"><ele>524.0</ele><time>2026-04-26T10:46:05.972Z</time></trkpt><trkpt lat="44.3827913" lon="8.1083897"><ele>524.0</ele><time>2026-04-26T10:46:06.972Z</time></trkpt><trkpt lat="44.382877" lon="8.1086612"><ele>519.3333333333333</ele><time>2026-04-26T10:46:07.972Z</time></trkpt><trkpt lat="44.3829482" lon="8.1089424"><ele>514.6666666666666</ele><time>2026-04-26T10:46:08.972Z</time></trkpt><trkpt lat="44.3830199" lon="8.1092146"><ele>510.0</ele><time>2026-04-26T10:46:09.972Z</time></trkpt><trkpt lat="44.3830716" lon="8.1095051"><ele>516.6666666666666</ele><time>2026-04-26T10:46:10.972Z</time></trkpt><trkpt lat="44.3831018" lon="8.1097942"><ele>523.3333333333333</ele><time>2026-04-26T10:46:11.972Z</time></trkpt><trkpt lat="44.3831146" lon="8.1100678"><ele>530.0</ele><time>2026-04-26T10:46:12.973Z</time></trkpt><trkpt lat="44.3831244" lon="8.1103136"><ele>530.0</ele><time>2026-04-26T10:46:13.972Z</time></trkpt><trkpt lat="44.3831398" lon="8.1105388"><ele>530.0</ele><time>2026-04-26T10:46:14.972Z</time></trkpt><trkpt lat="44.3831966" lon="8.1107399"><ele>530.0</ele><time>2026-04-26T10:46:15.972Z</time></trkpt><trkpt lat="44.3832996" lon="8.1109169"><ele>527.6666666666666</ele><time>2026-04-26T10:46:16.972Z</time></trkpt><trkpt lat="44.3834344" lon="8.1110907"><ele>525.3333333333334</ele><time>2026-04-26T10:46:17.972Z</time></trkpt><trkpt lat="44.3835826" lon="8.111271"><ele>523.0</ele><time>2026-04-26T10:46:18.972Z</time></trkpt><trkpt lat="44.3837004" lon="8.1114836"><ele>522.3333333333334</ele><time>2026-04-26T10:46:19.972Z</time></trkpt><trkpt lat="44.3837861" lon="8.1117184"><ele>521.6666666666666</ele><time>2026-04-26T10:46:20.972Z</time></trkpt><trkpt lat="44.3838306" lon="8.111978"><ele>521.0</ele><time>2026-04-26T10:46:21.972Z</time></trkpt><trkpt lat="44.3838401" lon="8.1122553"><ele>521.6666666666666</ele><time>2026-04-26T10:46:22.972Z</time></trkpt><trkpt lat="44.3837853" lon="8.1125369"><ele>522.3333333333334</ele><time>2026-04-26T10:46:23.972Z</time></trkpt><trkpt lat="44.3837269" lon="8.112831"><ele>523.0</ele><time>2026-04-26T10:46:24.972Z</time></trkpt><trkpt lat="44.3836611" lon="8.1131256"><ele>523.6666666666667</ele><time>2026-04-26T10:46:25.972Z</time></trkpt><trkpt lat="44.3835907" lon="8.1134042"><ele>524.3333333333334</ele><time>2026-04-26T10:46:26.972Z</time></trkpt><trkpt lat="44.3834998" lon="8.1136542"><ele>525.0</ele><time>2026-04-26T10:46:27.972Z</time></trkpt><trkpt lat="44.3834136" lon="8.1138865"><ele>524.0</ele><time>2026-04-26T10:46:28.972Z</time></trkpt><trkpt lat="44.3833624" lon="8.1141081"><ele>523.0</ele><time>2026-04-26T10:46:29.972Z</time></trkpt><trkpt lat="44.3833537" lon="8.1143369"><ele>522.0</ele><time>2026-04-26T10:46:30.973Z</time></trkpt><trkpt lat="44.383372" lon="8.1145847"><ele>522.0</ele><time>2026-04-26T10:46:31.972Z</time></trkpt><trkpt lat="44.3834446" lon="8.1148162"><ele>522.0</ele><time>2026-04-26T10:46:32.972Z</time></trkpt><trkpt lat="44.3835737" lon="8.1150062"><ele>522.0</ele><time>2026-04-26T10:46:33.972Z</time></trkpt><trkpt lat="44.3837395" lon="8.1151432"><ele>526.6666666666666</ele><time>2026-04-26T10:46:34.972Z</time></trkpt><trkpt lat="44.3839295" lon="8.1152431"><ele>531.3333333333333</ele><time>2026-04-26T10:46:35.972Z</time></trkpt><trkpt lat="44.3841344" lon="8.11534"><ele>536.0</ele><time>2026-04-26T10:46:36.973Z</time></trkpt><trkpt lat="44.3843128" lon="8.1154764"><ele>536.0</ele><time>2026-04-26T10:46:37.972Z</time></trkpt><trkpt lat="44.3844541" lon="8.1156656"><ele>536.0</ele><time>2026-04-26T10:46:38.972Z</time></trkpt><trkpt lat="44.3845534" lon="8.11592"><ele>536.0</ele><time>2026-04-26T10:46:39.973Z</time></trkpt><trkpt lat="44.3846347" lon="8.116228"><ele>546.5</ele><time>2026-04-26T10:46:40.972Z</time></trkpt><trkpt lat="44.3847041" lon="8.1165595"><ele>557.0</ele><time>2026-04-26T10:46:41.972Z</time></trkpt><trkpt lat="44.3847818" lon="8.1168999"><ele>557.0</ele><time>2026-04-26T10:46:42.972Z</time></trkpt><trkpt lat="44.3848428" lon="8.11725"><ele>557.0</ele><time>2026-04-26T10:46:43.972Z</time></trkpt><trkpt lat="44.3848793" lon="8.1176066"><ele>554.5</ele><time>2026-04-26T10:46:44.972Z</time></trkpt><trkpt lat="44.3848962" lon="8.1179445"><ele>552.0</ele><time>2026-04-26T10:46:45.972Z</time></trkpt><trkpt lat="44.3849151" lon="8.1182596"><ele>550.6666666666666</ele><time>2026-04-26T10:46:46.973Z</time></trkpt><trkpt lat="44.3849299" lon="8.1185711"><ele>549.3333333333333</ele><time>2026-04-26T10:46:47.972Z</time></trkpt><trkpt lat="44.3849164" lon="8.118882"><ele>548.0</ele><time>2026-04-26T10:46:48.973Z</time></trkpt><trkpt lat="44.3848719" lon="8.1191872"><ele>547.0</ele><time>2026-04-26T10:46:49.972Z</time></trkpt><trkpt lat="44.3847932" lon="8.1195013"><ele>546.0</ele><time>2026-04-26T10:46:50.972Z</time></trkpt><trkpt lat="44.3846958" lon="8.1198244"><ele>546.5</ele><time>2026-04-26T10:46:51.973Z</time></trkpt><trkpt lat="44.384572" lon="8.1201463"><ele>547.0</ele><time>2026-04-26T10:46:52.972Z</time></trkpt><trkpt lat="44.3844223" lon="8.1204532"><ele>552.0</ele><time>2026-04-26T10:46:53.972Z</time></trkpt><trkpt lat="44.3842451" lon="8.1207338"><ele>557.0</ele><time>2026-04-26T10:46:54.972Z</time></trkpt><trkpt lat="44.3840628" lon="8.1209849"><ele>557.0</ele><time>2026-04-26T10:46:55.972Z</time></trkpt><trkpt lat="44.3838829" lon="8.1212132"><ele>557.0</ele><time>2026-04-26T10:46:56.972Z</time></trkpt><trkpt lat="44.3837098" lon="8.1214019"><ele>558.3333333333333</ele><time>2026-04-26T10:46:57.972Z</time></trkpt><trkpt lat="44.3835433" lon="8.1215788"><ele>559.6666666666666</ele><time>2026-04-26T10:46:58.972Z</time></trkpt><trkpt lat="44.3833935" lon="8.1217663"><ele>561.0</ele><time>2026-04-26T10:46:59.972Z</time></trkpt><trkpt lat="44.3832544" lon="8.1219782"><ele>561.0</ele><time>2026-04-26T10:47:00.972Z</time></trkpt><trkpt lat="44.3831369" lon="8.1222247"><ele>561.0</ele><time>2026-04-26T10:47:01.972Z</time></trkpt><trkpt lat="44.3830316" lon="8.122496"><ele>561.0</ele><time>2026-04-26T10:47:02.972Z</time></trkpt><trkpt lat="44.3829399" lon="8.1227985"><ele>564.0</ele><time>2026-04-26T10:47:03.972Z</time></trkpt><trkpt lat="44.3828518" lon="8.1231413"><ele>567.0</ele><time>2026-04-26T10:47:04.972Z</time></trkpt><trkpt lat="44.3827901" lon="8.1235099"><ele>568.5</ele><time>2026-04-26T10:47:05.973Z</time></trkpt><trkpt lat="44.3827369" lon="8.1238556"><ele>570.0</ele><time>2026-04-26T10:47:06.972Z</time></trkpt><trkpt lat="44.3826615" lon="8.1241762"><ele>572.0</ele><time>2026-04-26T10:47:07.972Z</time></trkpt><trkpt lat="44.3825658" lon="8.1244937"><ele>574.0</ele><time>2026-04-26T10:47:08.972Z</time></trkpt><trkpt lat="44.3824481" lon="8.1248057"><ele>581.0</ele><time>2026-04-26T10:47:09.972Z</time></trkpt><trkpt lat="44.3823381" lon="8.1251169"><ele>588.0</ele><time>2026-04-26T10:47:10.973Z</time></trkpt><trkpt lat="44.3822142" lon="8.1254254"><ele>585.0</ele><time>2026-04-26T10:47:11.972Z</time></trkpt><trkpt lat="44.3820662" lon="8.1257418"><ele>582.0</ele><time>2026-04-26T10:47:12.973Z</time></trkpt><trkpt lat="44.3819034" lon="8.1260858"><ele>582.0</ele><time>2026-04-26T10:47:13.972Z</time></trkpt><trkpt lat="44.381718" lon="8.1264393"><ele>582.0</ele><time>2026-04-26T10:47:14.972Z</time></trkpt><trkpt lat="44.3815377" lon="8.1267882"><ele>585.5</ele><time>2026-04-26T10:47:15.972Z</time></trkpt><trkpt lat="44.3813605" lon="8.1271108"><ele>589.0</ele><time>2026-04-26T10:47:16.972Z</time></trkpt><trkpt lat="44.3811928" lon="8.1274021"><ele>589.0</ele><time>2026-04-26T10:47:17.972Z</time></trkpt><trkpt lat="44.381035" lon="8.1276753"><ele>589.0</ele><time>2026-04-26T10:47:18.972Z</time></trkpt><trkpt lat="44.3808901" lon="8.1279444"><ele>589.0</ele><time>2026-04-26T10:47:19.972Z</time></trkpt><trkpt lat="44.3807461" lon="8.1282128"><ele>589.0</ele><time>2026-04-26T10:47:20.972Z</time></trkpt><trkpt lat="44.3806028" lon="8.1284835"><ele>590.5</ele><time>2026-04-26T10:47:21.972Z</time></trkpt><trkpt lat="44.3804724" lon="8.1287682"><ele>592.0</ele><time>2026-04-26T10:47:22.972Z</time></trkpt><trkpt lat="44.3803498" lon="8.1290843"><ele>597.0</ele><time>2026-04-26T10:47:23.972Z</time></trkpt><trkpt lat="44.3802348" lon="8.1294328"><ele>602.0</ele><time>2026-04-26T10:47:24.972Z</time></trkpt><trkpt lat="44.3801484" lon="8.1297894"><ele>606.3333333333333</ele><time>2026-04-26T10:47:25.972Z</time></trkpt><trkpt lat="44.380071" lon="8.1301083"><ele>610.6666666666666</ele><time>2026-04-26T10:47:26.972Z</time></trkpt><trkpt lat="44.3800069" lon="8.1303766"><ele>615.0</ele><time>2026-04-26T10:47:27.972Z</time></trkpt><trkpt lat="44.3799417" lon="8.1306234"><ele>616.3333333333334</ele><time>2026-04-26T10:47:28.972Z</time></trkpt><trkpt lat="44.3798722" lon="8.1308445"><ele>617.6666666666667</ele><time>2026-04-26T10:47:29.972Z</time></trkpt><trkpt lat="44.3797891" lon="8.1310307"><ele>619.0</ele><time>2026-04-26T10:47:30.972Z</time></trkpt><trkpt lat="44.379678" lon="8.131176"><ele>619.0</ele><time>2026-04-26T10:47:31.972Z</time></trkpt><trkpt lat="44.3795445" lon="8.1312729"><ele>619.0</ele><time>2026-04-26T10:47:32.972Z</time></trkpt><trkpt lat="44.3793698" lon="8.1313322"><ele>619.0</ele><time>2026-04-26T10:47:33.972Z</time></trkpt><trkpt lat="44.3791719" lon="8.1313734"><ele>619.0</ele><time>2026-04-26T10:47:34.972Z</time></trkpt><trkpt lat="44.3789574" lon="8.1314395"><ele>619.0</ele><time>2026-04-26T10:47:35.972Z</time></trkpt><trkpt lat="44.3787529" lon="8.1315748"><ele>619.0</ele><time>2026-04-26T10:47:36.972Z</time></trkpt><trkpt lat="44.3785577" lon="8.1317444"><ele>621.0</ele><time>2026-04-26T10:47:37.972Z</time></trkpt><trkpt lat="44.3783855" lon="8.131906"><ele>623.0</ele><time>2026-04-26T10:47:38.972Z</time></trkpt><trkpt lat="44.3782409" lon="8.1320668"><ele>625.0</ele><time>2026-04-26T10:47:39.972Z</time></trkpt><trkpt lat="44.3781164" lon="8.132249"><ele>622.6666666666667</ele><time>2026-04-26T10:47:40.972Z</time></trkpt><trkpt lat="44.3780235" lon="8.1324649"><ele>620.3333333333334</ele><time>2026-04-26T10:47:41.972Z</time></trkpt><trkpt lat="44.3779576" lon="8.1327343"><ele>618.0</ele><time>2026-04-26T10:47:42.972Z</time></trkpt><trkpt lat="44.3779226" lon="8.1330605"><ele>622.0</ele><time>2026-04-26T10:47:43.972Z</time></trkpt><trkpt lat="44.3778957" lon="8.1333866"><ele>626.0</ele><time>2026-04-26T10:47:44.972Z</time></trkpt><trkpt lat="44.3778631" lon="8.1336818"><ele>630.0</ele><time>2026-04-26T10:47:45.972Z</time></trkpt><trkpt lat="44.3778308" lon="8.1339519"><ele>633.5</ele><time>2026-04-26T10:47:46.972Z</time></trkpt><trkpt lat="44.3778026" lon="8.1341849"><ele>637.0</ele><time>2026-04-26T10:47:47.972Z</time></trkpt><trkpt lat="44.377793" lon="8.1343767"><ele>640.5</ele><time>2026-04-26T10:47:48.973Z</time></trkpt><trkpt lat="44.3778245" lon="8.1345575"><ele>644.0</ele><time>2026-04-26T10:47:49.972Z</time></trkpt><trkpt lat="44.3778929" lon="8.1347102"><ele>644.0</ele><time>2026-04-26T10:47:50.973Z</time></trkpt><trkpt lat="44.378007" lon="8.1348194"><ele>644.0</ele><time>2026-04-26T10:47:51.972Z</time></trkpt><trkpt lat="44.3781342" lon="8.1348661"><ele>644.0</ele><time>2026-04-26T10:47:52.973Z</time></trkpt><trkpt lat="44.3782631" lon="8.1348488"><ele>644.0</ele><time>2026-04-26T10:47:53.972Z</time></trkpt><trkpt lat="44.3783934" lon="8.1347704"><ele>646.3333333333333</ele><time>2026-04-26T10:47:54.972Z</time></trkpt><trkpt lat="44.3785165" lon="8.1346239"><ele>648.6666666666666</ele><time>2026-04-26T10:47:55.972Z</time></trkpt><trkpt lat="44.3786078" lon="8.1344287"><ele>651.0</ele><time>2026-04-26T10:47:56.972Z</time></trkpt><trkpt lat="44.3786749" lon="8.1341668"><ele>648.5</ele><time>2026-04-26T10:47:57.972Z</time></trkpt><trkpt lat="44.3787078" lon="8.1338427"><ele>646.0</ele><time>2026-04-26T10:47:58.973Z</time></trkpt><trkpt lat="44.3787289" lon="8.1335062"><ele>643.6666666666667</ele><time>2026-04-26T10:47:59.972Z</time></trkpt><trkpt lat="44.3787454" lon="8.1332062"><ele>641.3333333333334</ele><time>2026-04-26T10:48:00.972Z</time></trkpt><trkpt lat="44.3787553" lon="8.1329402"><ele>639.0</ele><time>2026-04-26T10:48:01.972Z</time></trkpt><trkpt lat="44.3787755" lon="8.1327048"><ele>639.0</ele><time>2026-04-26T10:48:02.972Z</time></trkpt><trkpt lat="44.3788047" lon="8.1325097"><ele>639.0</ele><time>2026-04-26T10:48:03.972Z</time></trkpt><trkpt lat="44.3788548" lon="8.1323427"><ele>639.0</ele><time>2026-04-26T10:48:04.972Z</time></trkpt><trkpt lat="44.3789263" lon="8.1322183"><ele>639.0</ele><time>2026-04-26T10:48:05.972Z</time></trkpt><trkpt lat="44.3790161" lon="8.1321348"><ele>638.6</ele><time>2026-04-26T10:48:06.972Z</time></trkpt><trkpt lat="44.3791269" lon="8.132105"><ele>638.2</ele><time>2026-04-26T10:48:07.972Z</time></trkpt><trkpt lat="44.3792349" lon="8.1321145"><ele>637.8000000000001</ele><time>2026-04-26T10:48:08.972Z</time></trkpt><trkpt lat="44.3793266" lon="8.132154"><ele>637.4</ele><time>2026-04-26T10:48:09.972Z</time></trkpt><trkpt lat="44.379411" lon="8.1322526"><ele>637.0</ele><time>2026-04-26T10:48:10.973Z</time></trkpt><trkpt lat="44.3794817" lon="8.1324033"><ele>643.0</ele><time>2026-04-26T10:48:11.972Z</time></trkpt><trkpt lat="44.3794952" lon="8.1326164"><ele>649.0</ele><time>2026-04-26T10:48:12.972Z</time></trkpt><trkpt lat="44.3794643" lon="8.1328814"><ele>655.0</ele><time>2026-04-26T10:48:13.972Z</time></trkpt><trkpt lat="44.3793877" lon="8.1331837"><ele>661.0</ele><time>2026-04-26T10:48:14.973Z</time></trkpt><trkpt lat="44.3792912" lon="8.1335035"><ele>667.0</ele><time>2026-04-26T10:48:15.973Z</time></trkpt><trkpt lat="44.3792085" lon="8.1338437"><ele>671.0</ele><time>2026-04-26T10:48:16.972Z</time></trkpt><trkpt lat="44.3791606" lon="8.1342077"><ele>675.0</ele><time>2026-04-26T10:48:17.972Z</time></trkpt><trkpt lat="44.3791749" lon="8.1345689"><ele>677.5</ele><time>2026-04-26T10:48:18.972Z</time></trkpt><trkpt lat="44.379225" lon="8.1349286"><ele>680.0</ele><time>2026-04-26T10:48:19.972Z</time></trkpt><trkpt lat="44.3792729" lon="8.1352721"><ele>680.0</ele><time>2026-04-26T10:48:20.972Z</time></trkpt><trkpt lat="44.379318" lon="8.1356188"><ele>680.0</ele><time>2026-04-26T10:48:21.972Z</time></trkpt><trkpt lat="44.3793272" lon="8.1359658"><ele>680.5</ele><time>2026-04-26T10:48:22.972Z</time></trkpt><trkpt lat="44.3792997" lon="8.1362996"><ele>681.0</ele><time>2026-04-26T10:48:23.972Z</time></trkpt><trkpt lat="44.3792229" lon="8.1366047"><ele>686.0</ele><time>2026-04-26T10:48:24.972Z</time></trkpt><trkpt lat="44.3791064" lon="8.1368883"><ele>691.0</ele><time>2026-04-26T10:48:25.972Z</time></trkpt><trkpt lat="44.3789457" lon="8.137163"><ele>693.0</ele><time>2026-04-26T10:48:26.972Z</time></trkpt><trkpt lat="44.3787303" lon="8.1374097"><ele>695.0</ele><time>2026-04-26T10:48:27.972Z</time></trkpt><trkpt lat="44.3784916" lon="8.1376189"><ele>695.0</ele><time>2026-04-26T10:48:28.972Z</time></trkpt><trkpt lat="44.378264" lon="8.1377684"><ele>695.0</ele><time>2026-04-26T10:48:29.972Z</time></trkpt><trkpt lat="44.3780534" lon="8.137897"><ele>694.6666666666666</ele><time>2026-04-26T10:48:30.972Z</time></trkpt><trkpt lat="44.3778669" lon="8.1380612"><ele>694.3333333333334</ele><time>2026-04-26T10:48:31.972Z</time></trkpt><trkpt lat="44.3777146" lon="8.138263"><ele>694.0</ele><time>2026-04-26T10:48:32.972Z</time></trkpt><trkpt lat="44.3776086" lon="8.1384961"><ele>697.0</ele><time>2026-04-26T10:48:33.972Z</time></trkpt><trkpt lat="44.377535" lon="8.1387791"><ele>700.0</ele><time>2026-04-26T10:48:34.972Z</time></trkpt><trkpt lat="44.3775099" lon="8.1390816"><ele>703.0</ele><time>2026-04-26T10:48:35.972Z</time></trkpt><trkpt lat="44.3774873" lon="8.1393499"><ele>706.0</ele><time>2026-04-26T10:48:36.972Z</time></trkpt><trkpt lat="44.3774364" lon="8.1395801"><ele>709.0</ele><time>2026-04-26T10:48:37.972Z</time></trkpt><trkpt lat="44.3773547" lon="8.1397695"><ele>712.0</ele><time>2026-04-26T10:48:38.972Z</time></trkpt><trkpt lat="44.3772353" lon="8.1399139"><ele>714.3333333333334</ele><time>2026-04-26T10:48:39.972Z</time></trkpt><trkpt lat="44.3770923" lon="8.1400081"><ele>716.6666666666666</ele><time>2026-04-26T10:48:40.972Z</time></trkpt><trkpt lat="44.3769225" lon="8.1400259"><ele>719.0</ele><time>2026-04-26T10:48:41.971Z</time></trkpt><trkpt lat="44.3767427" lon="8.1399774"><ele>720.0</ele><time>2026-04-26T10:48:42.972Z</time></trkpt><trkpt lat="44.3765516" lon="8.1398555"><ele>721.0</ele><time>2026-04-26T10:48:43.972Z</time></trkpt><trkpt lat="44.3763775" lon="8.1397124"><ele>722.0</ele><time>2026-04-26T10:48:44.972Z</time></trkpt><trkpt lat="44.3762006" lon="8.1395705"><ele>722.0</ele><time>2026-04-26T10:48:45.971Z</time></trkpt><trkpt lat="44.3760441" lon="8.1394411"><ele>722.0</ele><time>2026-04-26T10:48:46.971Z</time></trkpt><trkpt lat="44.3758961" lon="8.1393416"><ele>722.0</ele><time>2026-04-26T10:48:47.971Z</time></trkpt><trkpt lat="44.3757371" lon="8.1392807"><ele>722.0</ele><time>2026-04-26T10:48:48.971Z</time></trkpt><trkpt lat="44.3755709" lon="8.1392656"><ele>722.0</ele><time>2026-04-26T10:48:49.971Z</time></trkpt><trkpt lat="44.3754294" lon="8.1392782"><ele>722.0</ele><time>2026-04-26T10:48:50.971Z</time></trkpt><trkpt lat="44.3753115" lon="8.139291"><ele>722.0</ele><time>2026-04-26T10:48:51.971Z</time></trkpt><trkpt lat="44.3752156" lon="8.1393101"><ele>722.8333333333333</ele><time>2026-04-26T10:48:52.971Z</time></trkpt><trkpt lat="44.3751415" lon="8.1393424"><ele>723.6666666666666</ele><time>2026-04-26T10:48:53.971Z</time></trkpt><trkpt lat="44.3750826" lon="8.1393832"><ele>724.5</ele><time>2026-04-26T10:48:54.971Z</time></trkpt><trkpt lat="44.3749913" lon="8.1394829"><ele>725.3333333333334</ele><time>2026-04-26T10:48:56.971Z</time></trkpt><trkpt lat="44.3749159" lon="8.1395636"><ele>726.1666666666667</ele><time>2026-04-26T10:48:58.971Z</time></trkpt><trkpt lat="44.3748669" lon="8.1396342"><ele>727.0</ele><time>2026-04-26T10:49:00.971Z</time></trkpt><trkpt lat="44.3748226" lon="8.1397151"><ele>727.0</ele><time>2026-04-26T10:49:04.971Z</time></trkpt><trkpt lat="44.3748736" lon="8.139801"><ele>727.0</ele><time>2026-04-26T11:13:43.966Z</time></trkpt><trkpt lat="44.3749535" lon="8.1398436"><ele>727.0</ele><time>2026-04-26T11:13:46.966Z</time></trkpt><trkpt lat="44.3750315" lon="8.1398728"><ele>727.0</ele><time>2026-04-26T11:13:49.966Z</time></trkpt><trkpt lat="44.3751233" lon="8.1398735"><ele>727.0</ele><time>2026-04-26T11:13:52.966Z</time></trkpt><trkpt lat="44.3751951" lon="8.1399241"><ele>727.0</ele><time>2026-04-26T11:13:54.966Z</time></trkpt><trkpt lat="44.3752716" lon="8.1399994"><ele>727.8</ele><time>2026-04-26T11:13:56.966Z</time></trkpt><trkpt lat="44.375385" lon="8.1400941"><ele>728.6</ele><time>2026-04-26T11:13:58.966Z</time></trkpt><trkpt lat="44.375454" lon="8.140149"><ele>729.4</ele><time>2026-04-26T11:13:59.966Z</time></trkpt><trkpt lat="44.3755364" lon="8.1402131"><ele>730.1999999999999</ele><time>2026-04-26T11:14:00.966Z</time></trkpt><trkpt lat="44.3756188" lon="8.1402922"><ele>731.0</ele><time>2026-04-26T11:14:01.966Z</time></trkpt><trkpt lat="44.3757035" lon="8.1403836"><ele>731.5</ele><time>2026-04-26T11:14:02.966Z</time></trkpt><trkpt lat="44.3757894" lon="8.1404813"><ele>732.0</ele><time>2026-04-26T11:14:03.966Z</time></trkpt><trkpt lat="44.3758822" lon="8.1405756"><ele>732.5</ele><time>2026-04-26T11:14:04.966Z</time></trkpt><trkpt lat="44.3759762" lon="8.1406678"><ele>733.0</ele><time>2026-04-26T11:14:05.966Z</time></trkpt><trkpt lat="44.3760734" lon="8.1407657"><ele>733.25</ele><time>2026-04-26T11:14:06.966Z</time></trkpt><trkpt lat="44.376176" lon="8.1408637"><ele>733.5</ele><time>2026-04-26T11:14:07.966Z</time></trkpt><trkpt lat="44.3762785" lon="8.1409555"><ele>733.75</ele><time>2026-04-26T11:14:08.966Z</time></trkpt><trkpt lat="44.3763968" lon="8.1410415"><ele>734.0</ele><time>2026-04-26T11:14:09.966Z</time></trkpt><trkpt lat="44.3765302" lon="8.1411337"><ele>734.0</ele><time>2026-04-26T11:14:10.966Z</time></trkpt><trkpt lat="44.3766688" lon="8.1412056"><ele>734.0</ele><time>2026-04-26T11:14:11.966Z</time></trkpt><trkpt lat="44.3768118" lon="8.1412833"><ele>734.0</ele><time>2026-04-26T11:14:12.966Z</time></trkpt><trkpt lat="44.3769483" lon="8.1413547"><ele>734.0</ele><time>2026-04-26T11:14:13.966Z</time></trkpt><trkpt lat="44.3770802" lon="8.1414176"><ele>733.75</ele><time>2026-04-26T11:14:14.966Z</time></trkpt><trkpt lat="44.3772025" lon="8.1414831"><ele>733.5</ele><time>2026-04-26T11:14:15.966Z</time></trkpt><trkpt lat="44.3773129" lon="8.1415254"><ele>733.25</ele><time>2026-04-26T11:14:16.966Z</time></trkpt><trkpt lat="44.3774278" lon="8.1415391"><ele>733.0</ele><time>2026-04-26T11:14:17.966Z</time></trkpt><trkpt lat="44.3775606" lon="8.141539"><ele>733.0</ele><time>2026-04-26T11:14:18.966Z</time></trkpt><trkpt lat="44.3776887" lon="8.1415262"><ele>733.0</ele><time>2026-04-26T11:14:19.966Z</time></trkpt><trkpt lat="44.3778125" lon="8.1415068"><ele>733.0</ele><time>2026-04-26T11:14:20.966Z</time></trkpt><trkpt lat="44.3779229" lon="8.1414811"><ele>733.0</ele><time>2026-04-26T11:14:21.966Z</time></trkpt><trkpt lat="44.3780267" lon="8.1414608"><ele>734.2</ele><time>2026-04-26T11:14:22.966Z</time></trkpt><trkpt lat="44.3781221" lon="8.1414399"><ele>735.4</ele><time>2026-04-26T11:14:23.966Z</time></trkpt><trkpt lat="44.3782154" lon="8.1414141"><ele>736.6</ele><time>2026-04-26T11:14:24.966Z</time></trkpt><trkpt lat="44.3782951" lon="8.1413702"><ele>737.8000000000001</ele><time>2026-04-26T11:14:25.966Z</time></trkpt><trkpt lat="44.3783722" lon="8.1412763"><ele>739.0</ele><time>2026-04-26T11:14:26.966Z</time></trkpt><trkpt lat="44.3784413" lon="8.141138"><ele>739.0</ele><time>2026-04-26T11:14:27.967Z</time></trkpt><trkpt lat="44.3785023" lon="8.1409677"><ele>739.0</ele><time>2026-04-26T11:14:28.966Z</time></trkpt><trkpt lat="44.3785626" lon="8.1407891"><ele>739.0</ele><time>2026-04-26T11:14:29.966Z</time></trkpt><trkpt lat="44.3786209" lon="8.1406157"><ele>739.0</ele><time>2026-04-26T11:14:30.966Z</time></trkpt><trkpt lat="44.3786655" lon="8.1404492"><ele>736.75</ele><time>2026-04-26T11:14:31.966Z</time></trkpt><trkpt lat="44.3786957" lon="8.1402777"><ele>734.5</ele><time>2026-04-26T11:14:32.966Z</time></trkpt><trkpt lat="44.3787047" lon="8.1401032"><ele>732.25</ele><time>2026-04-26T11:14:33.966Z</time></trkpt><trkpt lat="44.3787189" lon="8.1399116"><ele>730.0</ele><time>2026-04-26T11:14:34.966Z</time></trkpt><trkpt lat="44.3787446" lon="8.1397258"><ele>730.0</ele><time>2026-04-26T11:14:35.966Z</time></trkpt><trkpt lat="44.3787751" lon="8.1395315"><ele>730.0</ele><time>2026-04-26T11:14:36.966Z</time></trkpt><trkpt lat="44.3788224" lon="8.1393295"><ele>730.0</ele><time>2026-04-26T11:14:37.966Z</time></trkpt><trkpt lat="44.3788908" lon="8.1391372"><ele>730.0</ele><time>2026-04-26T11:14:38.966Z</time></trkpt><trkpt lat="44.378983" lon="8.1389499"><ele>730.0</ele><time>2026-04-26T11:14:39.966Z</time></trkpt><trkpt lat="44.3790952" lon="8.1387851"><ele>730.0</ele><time>2026-04-26T11:14:40.966Z</time></trkpt><trkpt lat="44.3792262" lon="8.1386521"><ele>730.0</ele><time>2026-04-26T11:14:41.966Z</time></trkpt><trkpt lat="44.3793629" lon="8.1385522"><ele>730.0</ele><time>2026-04-26T11:14:42.967Z</time></trkpt><trkpt lat="44.3795338" lon="8.1384904"><ele>730.0</ele><time>2026-04-26T11:14:43.966Z</time></trkpt><trkpt lat="44.3797096" lon="8.1384291"><ele>730.0</ele><time>2026-04-26T11:14:44.966Z</time></trkpt><trkpt lat="44.3798647" lon="8.1383381"><ele>730.6666666666667</ele><time>2026-04-26T11:14:45.966Z</time></trkpt><trkpt lat="44.3799872" lon="8.1382074"><ele>731.3333333333334</ele><time>2026-04-26T11:14:46.966Z</time></trkpt><trkpt lat="44.3800766" lon="8.138036"><ele>732.0</ele><time>2026-04-26T11:14:47.966Z</time></trkpt><trkpt lat="44.3801559" lon="8.1378188"><ele>732.0</ele><time>2026-04-26T11:14:48.966Z</time></trkpt><trkpt lat="44.3802353" lon="8.1375952"><ele>732.0</ele><time>2026-04-26T11:14:49.966Z</time></trkpt><trkpt lat="44.3803042" lon="8.1373734"><ele>732.0</ele><time>2026-04-26T11:14:50.967Z</time></trkpt><trkpt lat="44.3803857" lon="8.1371602"><ele>735.0</ele><time>2026-04-26T11:14:51.966Z</time></trkpt><trkpt lat="44.3804757" lon="8.1369519"><ele>738.0</ele><time>2026-04-26T11:14:52.966Z</time></trkpt><trkpt lat="44.3805645" lon="8.1367585"><ele>741.0</ele><time>2026-04-26T11:14:53.966Z</time></trkpt><trkpt lat="44.3806261" lon="8.1365422"><ele>741.0</ele><time>2026-04-26T11:14:54.966Z</time></trkpt><trkpt lat="44.380652" lon="8.1363106"><ele>741.0</ele><time>2026-04-26T11:14:55.966Z</time></trkpt><trkpt lat="44.3806577" lon="8.1360855"><ele>741.0</ele><time>2026-04-26T11:14:56.966Z</time></trkpt><trkpt lat="44.3806606" lon="8.135883"><ele>739.0</ele><time>2026-04-26T11:14:57.966Z</time></trkpt><trkpt lat="44.3806705" lon="8.1356908"><ele>737.0</ele><time>2026-04-26T11:14:58.967Z</time></trkpt><trkpt lat="44.3806899" lon="8.135513"><ele>735.0</ele><time>2026-04-26T11:14:59.966Z</time></trkpt><trkpt lat="44.3807202" lon="8.1353461"><ele>733.0</ele><time>2026-04-26T11:15:00.966Z</time></trkpt><trkpt lat="44.3807336" lon="8.135171"><ele>733.0</ele><time>2026-04-26T11:15:01.966Z</time></trkpt><trkpt lat="44.3807694" lon="8.1350147"><ele>733.0</ele><time>2026-04-26T11:15:02.966Z</time></trkpt><trkpt lat="44.3808152" lon="8.1348673"><ele>733.0</ele><time>2026-04-26T11:15:03.966Z</time></trkpt><trkpt lat="44.3808725" lon="8.1347249"><ele>733.0</ele><time>2026-04-26T11:15:04.966Z</time></trkpt><trkpt lat="44.3809375" lon="8.1345909"><ele>730.5</ele><time>2026-04-26T11:15:05.966Z</time></trkpt><trkpt lat="44.3810095" lon="8.1344665"><ele>728.0</ele><time>2026-04-26T11:15:06.966Z</time></trkpt><trkpt lat="44.3810996" lon="8.13435"><ele>725.5</ele><time>2026-04-26T11:15:07.966Z</time></trkpt><trkpt lat="44.3812096" lon="8.1342382"><ele>723.0</ele><time>2026-04-26T11:15:08.966Z</time></trkpt><trkpt lat="44.3813272" lon="8.1341305"><ele>723.25</ele><time>2026-04-26T11:15:09.966Z</time></trkpt><trkpt lat="44.3814585" lon="8.1340241"><ele>723.5</ele><time>2026-04-26T11:15:10.966Z</time></trkpt><trkpt lat="44.381582" lon="8.1339176"><ele>723.75</ele><time>2026-04-26T11:15:11.966Z</time></trkpt><trkpt lat="44.3816936" lon="8.1338137"><ele>724.0</ele><time>2026-04-26T11:15:12.966Z</time></trkpt><trkpt lat="44.3818072" lon="8.1336889"><ele>724.0</ele><time>2026-04-26T11:15:13.966Z</time></trkpt><trkpt lat="44.3819074" lon="8.1335561"><ele>724.0</ele><time>2026-04-26T11:15:14.966Z</time></trkpt><trkpt lat="44.3820009" lon="8.1334065"><ele>724.0</ele><time>2026-04-26T11:15:15.966Z</time></trkpt><trkpt lat="44.3821005" lon="8.1332578"><ele>724.0</ele><time>2026-04-26T11:15:16.966Z</time></trkpt><trkpt lat="44.3822034" lon="8.1331061"><ele>725.6666666666667</ele><time>2026-04-26T11:15:17.966Z</time></trkpt><trkpt lat="44.382306" lon="8.1329496"><ele>727.3333333333334</ele><time>2026-04-26T11:15:18.966Z</time></trkpt><trkpt lat="44.382406" lon="8.1327947"><ele>729.0</ele><time>2026-04-26T11:15:19.966Z</time></trkpt><trkpt lat="44.3825006" lon="8.1326334"><ele>729.0</ele><time>2026-04-26T11:15:20.966Z</time></trkpt><trkpt lat="44.382592" lon="8.1324837"><ele>729.0</ele><time>2026-04-26T11:15:21.966Z</time></trkpt><trkpt lat="44.3826839" lon="8.1323656"><ele>729.0</ele><time>2026-04-26T11:15:22.966Z</time></trkpt><trkpt lat="44.3827792" lon="8.1322575"><ele>729.0</ele><time>2026-04-26T11:15:23.966Z</time></trkpt><trkpt lat="44.3828863" lon="8.1321495"><ele>729.0</ele><time>2026-04-26T11:15:24.966Z</time></trkpt><trkpt lat="44.3830071" lon="8.1320507"><ele>729.0</ele><time>2026-04-26T11:15:25.967Z</time></trkpt><trkpt lat="44.383141" lon="8.1319574"><ele>729.0</ele><time>2026-04-26T11:15:26.966Z</time></trkpt><trkpt lat="44.3832936" lon="8.1318856"><ele>729.0</ele><time>2026-04-26T11:15:27.966Z</time></trkpt><trkpt lat="44.3834497" lon="8.131845"><ele>729.0</ele><time>2026-04-26T11:15:28.966Z</time></trkpt><trkpt lat="44.3835964" lon="8.1317943"><ele>729.0</ele><time>2026-04-26T11:15:29.966Z</time></trkpt><trkpt lat="44.383743" lon="8.1317131"><ele>728.3333333333334</ele><time>2026-04-26T11:15:30.966Z</time></trkpt><trkpt lat="44.3838975" lon="8.1316319"><ele>727.6666666666667</ele><time>2026-04-26T11:15:31.966Z</time></trkpt><trkpt lat="44.3840621" lon="8.131558"><ele>727.0</ele><time>2026-04-26T11:15:32.967Z</time></trkpt><trkpt lat="44.384239" lon="8.1314997"><ele>728.3333333333334</ele><time>2026-04-26T11:15:33.966Z</time></trkpt><trkpt lat="44.3844324" lon="8.1314562"><ele>729.6666666666666</ele><time>2026-04-26T11:15:34.966Z</time></trkpt><trkpt lat="44.3846308" lon="8.1314249"><ele>731.0</ele><time>2026-04-26T11:15:35.966Z</time></trkpt><trkpt lat="44.3848393" lon="8.1313943"><ele>731.0</ele><time>2026-04-26T11:15:36.966Z</time></trkpt><trkpt lat="44.3850528" lon="8.1313598"><ele>731.0</ele><time>2026-04-26T11:15:37.967Z</time></trkpt><trkpt lat="44.3852672" lon="8.1313171"><ele>731.0</ele><time>2026-04-26T11:15:38.966Z</time></trkpt><trkpt lat="44.3854811" lon="8.1312936"><ele>727.6666666666666</ele><time>2026-04-26T11:15:39.966Z</time></trkpt><trkpt lat="44.3856854" lon="8.1312804"><ele>724.3333333333334</ele><time>2026-04-26T11:15:40.966Z</time></trkpt><trkpt lat="44.385879" lon="8.1312736"><ele>721.0</ele><time>2026-04-26T11:15:41.966Z</time></trkpt><trkpt lat="44.3860672" lon="8.1312768"><ele>721.0</ele><time>2026-04-26T11:15:42.967Z</time></trkpt><trkpt lat="44.3862504" lon="8.1313203"><ele>721.0</ele><time>2026-04-26T11:15:43.966Z</time></trkpt><trkpt lat="44.3864227" lon="8.1314297"><ele>721.0</ele><time>2026-04-26T11:15:44.966Z</time></trkpt><trkpt lat="44.3865797" lon="8.1315782"><ele>719.6666666666667</ele><time>2026-04-26T11:15:45.966Z</time></trkpt><trkpt lat="44.3867333" lon="8.1317094"><ele>718.3333333333334</ele><time>2026-04-26T11:15:46.966Z</time></trkpt><trkpt lat="44.3869058" lon="8.1317929"><ele>717.0</ele><time>2026-04-26T11:15:47.967Z</time></trkpt><trkpt lat="44.3870958" lon="8.1318371"><ele>718.0</ele><time>2026-04-26T11:15:48.966Z</time></trkpt><trkpt lat="44.3872939" lon="8.131873"><ele>719.0</ele><time>2026-04-26T11:15:49.966Z</time></trkpt><trkpt lat="44.3875033" lon="8.1319161"><ele>720.0</ele><time>2026-04-26T11:15:50.966Z</time></trkpt><trkpt lat="44.3877083" lon="8.1319757"><ele>720.0</ele><time>2026-04-26T11:15:51.966Z</time></trkpt><trkpt lat="44.3879023" lon="8.132061"><ele>720.0</ele><time>2026-04-26T11:15:52.966Z</time></trkpt><trkpt lat="44.3880818" lon="8.1321485"><ele>720.0</ele><time>2026-04-26T11:15:53.966Z</time></trkpt><trkpt lat="44.3882399" lon="8.1322255"><ele>719.0</ele><time>2026-04-26T11:15:54.966Z</time></trkpt><trkpt lat="44.388397" lon="8.1322595"><ele>718.0</ele><time>2026-04-26T11:15:55.967Z</time></trkpt><trkpt lat="44.3885537" lon="8.1322251"><ele>717.0</ele><time>2026-04-26T11:15:56.966Z</time></trkpt><trkpt lat="44.3887159" lon="8.1321475"><ele>714.0</ele><time>2026-04-26T11:15:57.966Z</time></trkpt><trkpt lat="44.3888942" lon="8.13205"><ele>711.0</ele><time>2026-04-26T11:15:58.966Z</time></trkpt><trkpt lat="44.3890838" lon="8.1319567"><ele>708.0</ele><time>2026-04-26T11:15:59.966Z</time></trkpt><trkpt lat="44.3892686" lon="8.1318496"><ele>708.0</ele><time>2026-04-26T11:16:00.966Z</time></trkpt><trkpt lat="44.3894583" lon="8.1317474"><ele>708.0</ele><time>2026-04-26T11:16:01.966Z</time></trkpt><trkpt lat="44.3896487" lon="8.131635"><ele>708.0</ele><time>2026-04-26T11:16:02.966Z</time></trkpt><trkpt lat="44.3898328" lon="8.131502"><ele>705.6666666666666</ele><time>2026-04-26T11:16:03.966Z</time></trkpt><trkpt lat="44.3900108" lon="8.1313508"><ele>703.3333333333333</ele><time>2026-04-26T11:16:04.966Z</time></trkpt><trkpt lat="44.3901798" lon="8.1311942"><ele>701.0</ele><time>2026-04-26T11:16:05.966Z</time></trkpt><trkpt lat="44.3903373" lon="8.131023"><ele>701.0</ele><time>2026-04-26T11:16:06.966Z</time></trkpt><trkpt lat="44.3904743" lon="8.1308419"><ele>701.0</ele><time>2026-04-26T11:16:07.966Z</time></trkpt><trkpt lat="44.3905871" lon="8.130678"><ele>701.0</ele><time>2026-04-26T11:16:08.966Z</time></trkpt><trkpt lat="44.3906733" lon="8.1304966"><ele>700.1999999999999</ele><time>2026-04-26T11:16:09.967Z</time></trkpt><trkpt lat="44.3907432" lon="8.1303355"><ele>699.4</ele><time>2026-04-26T11:16:10.967Z</time></trkpt><trkpt lat="44.3908077" lon="8.1302076"><ele>698.6</ele><time>2026-04-26T11:16:11.966Z</time></trkpt><trkpt lat="44.3908847" lon="8.1301077"><ele>697.8</ele><time>2026-04-26T11:16:12.966Z</time></trkpt><trkpt lat="44.3909674" lon="8.1300448"><ele>697.0</ele><time>2026-04-26T11:16:13.967Z</time></trkpt><trkpt lat="44.3910688" lon="8.1300124"><ele>697.0</ele><time>2026-04-26T11:16:14.966Z</time></trkpt><trkpt lat="44.39119" lon="8.1300187"><ele>697.0</ele><time>2026-04-26T11:16:15.966Z</time></trkpt><trkpt lat="44.3913261" lon="8.1300811"><ele>697.0</ele><time>2026-04-26T11:16:16.966Z</time></trkpt><trkpt lat="44.3914625" lon="8.1301808"><ele>697.0</ele><time>2026-04-26T11:16:17.966Z</time></trkpt><trkpt lat="44.3916111" lon="8.1302916"><ele>695.6666666666667</ele><time>2026-04-26T11:16:18.966Z</time></trkpt><trkpt lat="44.3917745" lon="8.1303823"><ele>694.3333333333334</ele><time>2026-04-26T11:16:19.966Z</time></trkpt><trkpt lat="44.3919421" lon="8.1304375"><ele>693.0</ele><time>2026-04-26T11:16:20.966Z</time></trkpt><trkpt lat="44.3921151" lon="8.1304404"><ele>690.6666666666666</ele><time>2026-04-26T11:16:21.966Z</time></trkpt><trkpt lat="44.3922994" lon="8.1303867"><ele>688.3333333333333</ele><time>2026-04-26T11:16:22.966Z</time></trkpt><trkpt lat="44.3924875" lon="8.1302616"><ele>686.0</ele><time>2026-04-26T11:16:23.966Z</time></trkpt><trkpt lat="44.3927087" lon="8.1300883"><ele>681.0</ele><time>2026-04-26T11:16:24.966Z</time></trkpt><trkpt lat="44.3929275" lon="8.1298689"><ele>676.0</ele><time>2026-04-26T11:16:25.967Z</time></trkpt><trkpt lat="44.3931244" lon="8.1296326"><ele>676.0</ele><time>2026-04-26T11:16:26.966Z</time></trkpt><trkpt lat="44.3933029" lon="8.1293966"><ele>676.0</ele><time>2026-04-26T11:16:27.966Z</time></trkpt><trkpt lat="44.3934686" lon="8.1291786"><ele>674.0</ele><time>2026-04-26T11:16:28.966Z</time></trkpt><trkpt lat="44.3936408" lon="8.1289828"><ele>672.0</ele><time>2026-04-26T11:16:29.966Z</time></trkpt><trkpt lat="44.3938073" lon="8.1288415"><ele>670.0</ele><time>2026-04-26T11:16:30.966Z</time></trkpt><trkpt lat="44.3939774" lon="8.1287354"><ele>670.0</ele><time>2026-04-26T11:16:31.966Z</time></trkpt><trkpt lat="44.3941551" lon="8.128673"><ele>670.0</ele><time>2026-04-26T11:16:32.966Z</time></trkpt><trkpt lat="44.3943375" lon="8.1286547"><ele>670.0</ele><time>2026-04-26T11:16:33.966Z</time></trkpt><trkpt lat="44.3945166" lon="8.128648"><ele>670.0</ele><time>2026-04-26T11:16:34.966Z</time></trkpt><trkpt lat="44.3946711" lon="8.1286235"><ele>670.0</ele><time>2026-04-26T11:16:35.967Z</time></trkpt><trkpt lat="44.3948246" lon="8.1285948"><ele>670.0</ele><time>2026-04-26T11:16:36.966Z</time></trkpt><trkpt lat="44.3949641" lon="8.1285357"><ele>669.0</ele><time>2026-04-26T11:16:37.966Z</time></trkpt><trkpt lat="44.3951138" lon="8.128459"><ele>668.0</ele><time>2026-04-26T11:16:38.966Z</time></trkpt><trkpt lat="44.3952664" lon="8.1283778"><ele>667.0</ele><time>2026-04-26T11:16:39.966Z</time></trkpt><trkpt lat="44.3954107" lon="8.1282896"><ele>669.75</ele><time>2026-04-26T11:16:40.966Z</time></trkpt><trkpt lat="44.3955485" lon="8.1281923"><ele>672.5</ele><time>2026-04-26T11:16:41.966Z</time></trkpt><trkpt lat="44.3956741" lon="8.1280833"><ele>675.25</ele><time>2026-04-26T11:16:42.966Z</time></trkpt><trkpt lat="44.3957921" lon="8.1279616"><ele>678.0</ele><time>2026-04-26T11:16:43.966Z</time></trkpt><trkpt lat="44.3958985" lon="8.1278299"><ele>678.0</ele><time>2026-04-26T11:16:44.966Z</time></trkpt><trkpt lat="44.3959895" lon="8.1276902"><ele>678.0</ele><time>2026-04-26T11:16:45.966Z</time></trkpt><trkpt lat="44.3960756" lon="8.1275389"><ele>678.0</ele><time>2026-04-26T11:16:46.966Z</time></trkpt><trkpt lat="44.396147" lon="8.1273636"><ele>678.0</ele><time>2026-04-26T11:16:47.966Z</time></trkpt><trkpt lat="44.3962085" lon="8.1271831"><ele>678.25</ele><time>2026-04-26T11:16:48.966Z</time></trkpt><trkpt lat="44.3962543" lon="8.1269991"><ele>678.5</ele><time>2026-04-26T11:16:49.966Z</time></trkpt><trkpt lat="44.3962856" lon="8.1268032"><ele>678.75</ele><time>2026-04-26T11:16:50.966Z</time></trkpt><trkpt lat="44.3963122" lon="8.1265945"><ele>679.0</ele><time>2026-04-26T11:16:51.966Z</time></trkpt><trkpt lat="44.3963336" lon="8.1263845"><ele>679.0</ele><time>2026-04-26T11:16:52.966Z</time></trkpt><trkpt lat="44.3963583" lon="8.1261853"><ele>679.0</ele><time>2026-04-26T11:16:53.966Z</time></trkpt><trkpt lat="44.396387" lon="8.1259967"><ele>679.0</ele><time>2026-04-26T11:16:54.966Z</time></trkpt><trkpt lat="44.3964318" lon="8.1258306"><ele>679.0</ele><time>2026-04-26T11:16:55.966Z</time></trkpt><trkpt lat="44.3964929" lon="8.1256751"><ele>682.0</ele><time>2026-04-26T11:16:56.966Z</time></trkpt><trkpt lat="44.3965715" lon="8.1255263"><ele>682.0</ele><time>2026-04-26T11:16:57.966Z</time></trkpt><trkpt lat="44.396672" lon="8.1254014"><ele>682.0</ele><time>2026-04-26T11:16:58.966Z</time></trkpt><trkpt lat="44.396782" lon="8.1252954"><ele>682.0</ele><time>2026-04-26T11:16:59.966Z</time></trkpt></trkseg><trkseg><trkpt lat="44.4180201" lon="8.1209829"><ele>626.0</ele><time>2026-04-26T14:01:37.997Z</time></trkpt><trkpt lat="44.4180625" lon="8.120901"><ele>626.0</ele><time>2026-04-26T14:01:51.997Z</time></trkpt><trkpt lat="44.4180386" lon="8.1207901"><ele>626.0</ele><time>2026-04-26T14:03:27.997Z</time></trkpt><trkpt lat="44.4179763" lon="8.1207692"><ele>626.0</ele><time>2026-04-26T14:03:32.997Z</time></trkpt><trkpt lat="44.4179212" lon="8.12083"><ele>626.0</ele><time>2026-04-26T14:03:47.997Z</time></trkpt><trkpt lat="44.4178495" lon="8.1208903"><ele>626.0</ele><time>2026-04-26T14:03:48.997Z</time></trkpt><trkpt lat="44.4177482" lon="8.1209477"><ele>625.6666666666666</ele><time>2026-04-26T14:03:49.997Z</time></trkpt><trkpt lat="44.4176165" lon="8.1210077"><ele>625.3333333333334</ele><time>2026-04-26T14:03:50.997Z</time></trkpt><trkpt lat="44.4174779" lon="8.1210673"><ele>625.0</ele><time>2026-04-26T14:03:51.997Z</time></trkpt><trkpt lat="44.4173053" lon="8.121104"><ele>625.0</ele><time>2026-04-26T14:03:52.997Z</time></trkpt><trkpt lat="44.4170725" lon="8.1211028"><ele>625.0</ele><time>2026-04-26T14:03:53.997Z</time></trkpt><trkpt lat="44.4168636" lon="8.1210645"><ele>625.0</ele><time>2026-04-26T14:03:54.997Z</time></trkpt><trkpt lat="44.416671" lon="8.1210124"><ele>625.0</ele><time>2026-04-26T14:03:55.997Z</time></trkpt><trkpt lat="44.4164875" lon="8.1209827"><ele>625.0</ele><time>2026-04-26T14:03:56.997Z</time></trkpt><trkpt lat="44.4162709" lon="8.1209903"><ele>625.0</ele><time>2026-04-26T14:03:57.997Z</time></trkpt><trkpt lat="44.4160262" lon="8.1210142"><ele>625.0</ele><time>2026-04-26T14:03:58.997Z</time></trkpt><trkpt lat="44.4157694" lon="8.1210215"><ele>625.0</ele><time>2026-04-26T14:03:59.997Z</time></trkpt><trkpt lat="44.4155071" lon="8.1210039"><ele>625.0</ele><time>2026-04-26T14:04:00.997Z</time></trkpt><trkpt lat="44.4152755" lon="8.1209624"><ele>625.0</ele><time>2026-04-26T14:04:01.997Z</time></trkpt><trkpt lat="44.4150472" lon="8.1209176"><ele>625.0</ele><time>2026-04-26T14:04:02.997Z</time></trkpt><trkpt lat="44.4148097" lon="8.1208692"><ele>625.0</ele><time>2026-04-26T14:04:03.998Z</time></trkpt><trkpt lat="44.41456" lon="8.1208335"><ele>624.5</ele><time>2026-04-26T14:04:04.998Z</time></trkpt><trkpt lat="44.4142943" lon="8.1208171"><ele>624.0</ele><time>2026-04-26T14:04:05.997Z</time></trkpt><trkpt lat="44.4140497" lon="8.1208203"><ele>624.0</ele><time>2026-04-26T14:04:06.997Z</time></trkpt><trkpt lat="44.4138399" lon="8.1208463"><ele>624.0</ele><time>2026-04-26T14:04:07.997Z</time></trkpt><trkpt lat="44.4136253" lon="8.1208912"><ele>624.0</ele><time>2026-04-26T14:04:08.998Z</time></trkpt><trkpt lat="44.4134112" lon="8.1209654"><ele>624.0</ele><time>2026-04-26T14:04:09.997Z</time></trkpt><trkpt lat="44.4132236" lon="8.1210725"><ele>624.0</ele><time>2026-04-26T14:04:10.997Z</time></trkpt><trkpt lat="44.4130374" lon="8.1212049"><ele>624.0</ele><time>2026-04-26T14:04:11.997Z</time></trkpt><trkpt lat="44.4128583" lon="8.1213621"><ele>624.3333333333334</ele><time>2026-04-26T14:04:12.997Z</time></trkpt><trkpt lat="44.4126978" lon="8.1215373"><ele>624.6666666666667</ele><time>2026-04-26T14:04:13.997Z</time></trkpt><trkpt lat="44.4125744" lon="8.1217177"><ele>625.0</ele><time>2026-04-26T14:04:14.997Z</time></trkpt><trkpt lat="44.4124669" lon="8.121885"><ele>625.0</ele><time>2026-04-26T14:04:15.997Z</time></trkpt><trkpt lat="44.41236" lon="8.1220202"><ele>625.0</ele><time>2026-04-26T14:04:16.998Z</time></trkpt><trkpt lat="44.412233" lon="8.1221157"><ele>625.0</ele><time>2026-04-26T14:04:17.997Z</time></trkpt><trkpt lat="44.4120735" lon="8.1221873"><ele>625.3333333333334</ele><time>2026-04-26T14:04:18.998Z</time></trkpt><trkpt lat="44.4118688" lon="8.1222442"><ele>625.6666666666666</ele><time>2026-04-26T14:04:19.997Z</time></trkpt><trkpt lat="44.4116636" lon="8.1222838"><ele>626.0</ele><time>2026-04-26T14:04:20.997Z</time></trkpt><trkpt lat="44.4114759" lon="8.1222999"><ele>626.0</ele><time>2026-04-26T14:04:21.997Z</time></trkpt><trkpt lat="44.4113118" lon="8.1223027"><ele>626.0</ele><time>2026-04-26T14:04:22.997Z</time></trkpt><trkpt lat="44.4111555" lon="8.1223104"><ele>626.0</ele><time>2026-04-26T14:04:23.997Z</time></trkpt><trkpt lat="44.4110127" lon="8.1223497"><ele>629.5</ele><time>2026-04-26T14:04:24.997Z</time></trkpt><trkpt lat="44.4108781" lon="8.1223998"><ele>633.0</ele><time>2026-04-26T14:04:25.997Z</time></trkpt><trkpt lat="44.410742" lon="8.1224438"><ele>636.5</ele><time>2026-04-26T14:04:26.997Z</time></trkpt><trkpt lat="44.4106177" lon="8.1224973"><ele>640.0</ele><time>2026-04-26T14:04:27.997Z</time></trkpt><trkpt lat="44.4105157" lon="8.1225709"><ele>637.0</ele><time>2026-04-26T14:04:28.997Z</time></trkpt><trkpt lat="44.4104312" lon="8.1226709"><ele>634.0</ele><time>2026-04-26T14:04:29.997Z</time></trkpt><trkpt lat="44.4103491" lon="8.1227983"><ele>631.0</ele><time>2026-04-26T14:04:30.997Z</time></trkpt><trkpt lat="44.4102798" lon="8.1229579"><ele>628.0</ele><time>2026-04-26T14:04:31.997Z</time></trkpt><trkpt lat="44.4102211" lon="8.1231512"><ele>629.6666666666667</ele><time>2026-04-26T14:04:32.997Z</time></trkpt><trkpt lat="44.4101789" lon="8.1233986"><ele>631.3333333333334</ele><time>2026-04-26T14:04:33.997Z</time></trkpt><trkpt lat="44.4101413" lon="8.1237016"><ele>633.0</ele><time>2026-04-26T14:04:34.997Z</time></trkpt><trkpt lat="44.4100795" lon="8.1239939"><ele>633.0</ele><time>2026-04-26T14:04:35.997Z</time></trkpt><trkpt lat="44.4100022" lon="8.1242295"><ele>633.0</ele><time>2026-04-26T14:04:36.997Z</time></trkpt><trkpt lat="44.4099179" lon="8.1244212"><ele>633.0</ele><time>2026-04-26T14:04:37.997Z</time></trkpt><trkpt lat="44.4098177" lon="8.124569"><ele>633.0</ele><time>2026-04-26T14:04:38.997Z</time></trkpt><trkpt lat="44.4097025" lon="8.1246795"><ele>633.0</ele><time>2026-04-26T14:04:39.997Z</time></trkpt><trkpt lat="44.4095806" lon="8.1247828"><ele>633.0</ele><time>2026-04-26T14:04:40.997Z</time></trkpt><trkpt lat="44.4094614" lon="8.1248877"><ele>633.0</ele><time>2026-04-26T14:04:41.997Z</time></trkpt><trkpt lat="44.4093507" lon="8.1250231"><ele>632.3333333333334</ele><time>2026-04-26T14:04:42.997Z</time></trkpt><trkpt lat="44.4092459" lon="8.1252051"><ele>631.6666666666667</ele><time>2026-04-26T14:04:43.997Z</time></trkpt><trkpt lat="44.4091333" lon="8.1254184"><ele>631.0</ele><time>2026-04-26T14:04:44.997Z</time></trkpt><trkpt lat="44.4090103" lon="8.1256562"><ele>631.5</ele><time>2026-04-26T14:04:45.997Z</time></trkpt><trkpt lat="44.4088702" lon="8.125918"><ele>632.0</ele><time>2026-04-26T14:04:46.998Z</time></trkpt><trkpt lat="44.4087355" lon="8.1261683"><ele>631.0</ele><time>2026-04-26T14:04:47.997Z</time></trkpt><trkpt lat="44.4086223" lon="8.1263746"><ele>630.0</ele><time>2026-04-26T14:04:48.997Z</time></trkpt><trkpt lat="44.4085246" lon="8.1265402"><ele>629.0</ele><time>2026-04-26T14:04:49.997Z</time></trkpt><trkpt lat="44.4084343" lon="8.1266743"><ele>629.0</ele><time>2026-04-26T14:04:50.997Z</time></trkpt><trkpt lat="44.4083571" lon="8.1267971"><ele>629.0</ele><time>2026-04-26T14:04:51.997Z</time></trkpt><trkpt lat="44.4082847" lon="8.1269143"><ele>629.0</ele><time>2026-04-26T14:04:52.997Z</time></trkpt><trkpt lat="44.4082265" lon="8.1270278"><ele>629.0</ele><time>2026-04-26T14:04:53.998Z</time></trkpt><trkpt lat="44.4081806" lon="8.1271379"><ele>629.0</ele><time>2026-04-26T14:04:54.997Z</time></trkpt><trkpt lat="44.4081402" lon="8.1272393"><ele>629.0</ele><time>2026-04-26T14:04:55.997Z</time></trkpt><trkpt lat="44.4081092" lon="8.1273354"><ele>629.0</ele><time>2026-04-26T14:04:56.997Z</time></trkpt><trkpt lat="44.4080873" lon="8.1274229"><ele>629.0</ele><time>2026-04-26T14:04:57.997Z</time></trkpt><trkpt lat="44.4080631" lon="8.1275367"><ele>629.0</ele><time>2026-04-26T14:04:59.997Z</time></trkpt><trkpt lat="44.4080361" lon="8.1276221"><ele>629.0</ele><time>2026-04-26T14:05:36.997Z</time></trkpt><trkpt lat="44.4079332" lon="8.1275218"><ele>629.0</ele><time>2026-04-26T14:05:39.998Z</time></trkpt><trkpt lat="44.4078891" lon="8.1273924"><ele>628.6666666666666</ele><time>2026-04-26T14:05:40.997Z</time></trkpt><trkpt lat="44.4078255" lon="8.1271812"><ele>628.3333333333334</ele><time>2026-04-26T14:05:41.997Z</time></trkpt><trkpt lat="44.4077512" lon="8.1268941"><ele>628.0</ele><time>2026-04-26T14:05:42.997Z</time></trkpt><trkpt lat="44.4076703" lon="8.1265412"><ele>627.5</ele><time>2026-04-26T14:05:43.997Z</time></trkpt><trkpt lat="44.4075679" lon="8.1261105"><ele>627.0</ele><time>2026-04-26T14:05:44.997Z</time></trkpt><trkpt lat="44.4074601" lon="8.125652"><ele>627.0</ele><time>2026-04-26T14:05:45.997Z</time></trkpt><trkpt lat="44.4073636" lon="8.1252449"><ele>627.0</ele><time>2026-04-26T14:05:46.997Z</time></trkpt><trkpt lat="44.4072816" lon="8.1249072"><ele>627.0</ele><time>2026-04-26T14:05:47.997Z</time></trkpt><trkpt lat="44.4072029" lon="8.1246264"><ele>627.0</ele><time>2026-04-26T14:05:48.997Z</time></trkpt><trkpt lat="44.4071196" lon="8.1243908"><ele>627.0</ele><time>2026-04-26T14:05:49.997Z</time></trkpt><trkpt lat="44.407021" lon="8.1241868"><ele>631.0</ele><time>2026-04-26T14:05:50.997Z</time></trkpt><trkpt lat="44.4069052" lon="8.1240187"><ele>635.0</ele><time>2026-04-26T14:05:51.997Z</time></trkpt><trkpt lat="44.4067706" lon="8.1239052"><ele>639.0</ele><time>2026-04-26T14:05:52.997Z</time></trkpt><trkpt lat="44.406628" lon="8.1238587"><ele>639.0</ele><time>2026-04-26T14:05:53.997Z</time></trkpt><trkpt lat="44.4064834" lon="8.1238703"><ele>639.0</ele><time>2026-04-26T14:05:54.997Z</time></trkpt><trkpt lat="44.4063333" lon="8.1239498"><ele>639.0</ele><time>2026-04-26T14:05:55.997Z</time></trkpt><trkpt lat="44.4061983" lon="8.1240215"><ele>640.75</ele><time>2026-04-26T14:05:56.998Z</time></trkpt><trkpt lat="44.4060734" lon="8.1240242"><ele>642.5</ele><time>2026-04-26T14:05:57.997Z</time></trkpt><trkpt lat="44.4059449" lon="8.1239597"><ele>644.25</ele><time>2026-04-26T14:05:58.998Z</time></trkpt><trkpt lat="44.4057988" lon="8.1238103"><ele>646.0</ele><time>2026-04-26T14:05:59.997Z</time></trkpt><trkpt lat="44.4056124" lon="8.1236146"><ele>647.0</ele><time>2026-04-26T14:06:00.997Z</time></trkpt><trkpt lat="44.4054105" lon="8.1234103"><ele>648.0</ele><time>2026-04-26T14:06:01.997Z</time></trkpt><trkpt lat="44.4052286" lon="8.1232131"><ele>650.3333333333334</ele><time>2026-04-26T14:06:02.997Z</time></trkpt><trkpt lat="44.4050864" lon="8.1230057"><ele>652.6666666666667</ele><time>2026-04-26T14:06:03.997Z</time></trkpt><trkpt lat="44.4049695" lon="8.1227499"><ele>655.0</ele><time>2026-04-26T14:06:04.997Z</time></trkpt><trkpt lat="44.4048656" lon="8.1224506"><ele>656.5</ele><time>2026-04-26T14:06:05.997Z</time></trkpt><trkpt lat="44.4047512" lon="8.1221218"><ele>658.0</ele><time>2026-04-26T14:06:06.997Z</time></trkpt><trkpt lat="44.4046127" lon="8.1217786"><ele>663.0</ele><time>2026-04-26T14:06:07.998Z</time></trkpt><trkpt lat="44.4044538" lon="8.1214234"><ele>668.0</ele><time>2026-04-26T14:06:08.997Z</time></trkpt><trkpt lat="44.4042778" lon="8.121065"><ele>668.0</ele><time>2026-04-26T14:06:09.997Z</time></trkpt><trkpt lat="44.4041067" lon="8.1207328"><ele>668.0</ele><time>2026-04-26T14:06:10.997Z</time></trkpt><trkpt lat="44.4039598" lon="8.120443"><ele>667.0</ele><time>2026-04-26T14:06:11.997Z</time></trkpt><trkpt lat="44.4038482" lon="8.1201989"><ele>666.0</ele><time>2026-04-26T14:06:12.997Z</time></trkpt><trkpt lat="44.4037745" lon="8.1199663"><ele>665.0</ele><time>2026-04-26T14:06:13.997Z</time></trkpt><trkpt lat="44.4037273" lon="8.1197609"><ele>667.0</ele><time>2026-04-26T14:06:14.997Z</time></trkpt><trkpt lat="44.4036932" lon="8.1195927"><ele>669.0</ele><time>2026-04-26T14:06:15.997Z</time></trkpt><trkpt lat="44.4036582" lon="8.1194668"><ele>671.0</ele><time>2026-04-26T14:06:16.997Z</time></trkpt><trkpt lat="44.403611" lon="8.1193983"><ele>673.0</ele><time>2026-04-26T14:06:17.997Z</time></trkpt><trkpt lat="44.403499" lon="8.1194044"><ele>675.0</ele><time>2026-04-26T14:06:19.997Z</time></trkpt><trkpt lat="44.4034474" lon="8.1194836"><ele>675.0</ele><time>2026-04-26T14:06:20.997Z</time></trkpt><trkpt lat="44.4034146" lon="8.1195996"><ele>675.0</ele><time>2026-04-26T14:06:21.997Z</time></trkpt><trkpt lat="44.4034115" lon="8.1197452"><ele>675.0</ele><time>2026-04-26T14:06:22.997Z</time></trkpt><trkpt lat="44.4034301" lon="8.119931"><ele>675.0</ele><time>2026-04-26T14:06:23.997Z</time></trkpt><trkpt lat="44.4034258" lon="8.1200979"><ele>675.0</ele><time>2026-04-26T14:06:24.998Z</time></trkpt><trkpt lat="44.4034017" lon="8.1202538"><ele>675.4</ele><time>2026-04-26T14:06:25.997Z</time></trkpt><trkpt lat="44.4033562" lon="8.1203718"><ele>675.8</ele><time>2026-04-26T14:06:26.997Z</time></trkpt><trkpt lat="44.4032797" lon="8.1204379"><ele>676.2</ele><time>2026-04-26T14:06:27.997Z</time></trkpt><trkpt lat="44.4031757" lon="8.1204426"><ele>676.6</ele><time>2026-04-26T14:06:28.997Z</time></trkpt><trkpt lat="44.4030695" lon="8.1203726"><ele>677.0</ele><time>2026-04-26T14:06:29.997Z</time></trkpt><trkpt lat="44.4029861" lon="8.1202484"><ele>677.0</ele><time>2026-04-26T14:06:30.997Z</time></trkpt><trkpt lat="44.4029267" lon="8.1200699"><ele>677.0</ele><time>2026-04-26T14:06:31.997Z</time></trkpt><trkpt lat="44.4028787" lon="8.1198558"><ele>677.0</ele><time>2026-04-26T14:06:32.997Z</time></trkpt><trkpt lat="44.4028348" lon="8.1196494"><ele>679.0</ele><time>2026-04-26T14:06:33.997Z</time></trkpt><trkpt lat="44.402787" lon="8.1194592"><ele>681.0</ele><time>2026-04-26T14:06:34.997Z</time></trkpt><trkpt lat="44.402728" lon="8.1192866"><ele>683.0</ele><time>2026-04-26T14:06:35.997Z</time></trkpt><trkpt lat="44.402669" lon="8.1191146"><ele>685.0</ele><time>2026-04-26T14:06:36.997Z</time></trkpt><trkpt lat="44.4026115" lon="8.1189499"><ele>686.5</ele><time>2026-04-26T14:06:37.997Z</time></trkpt><trkpt lat="44.4025493" lon="8.1187995"><ele>688.0</ele><time>2026-04-26T14:06:38.997Z</time></trkpt><trkpt lat="44.402482" lon="8.118666"><ele>689.5</ele><time>2026-04-26T14:06:39.997Z</time></trkpt><trkpt lat="44.4024016" lon="8.1185538"><ele>691.0</ele><time>2026-04-26T14:06:40.997Z</time></trkpt><trkpt lat="44.4023195" lon="8.1184435"><ele>691.0</ele><time>2026-04-26T14:06:41.997Z</time></trkpt><trkpt lat="44.4022418" lon="8.1183262"><ele>691.0</ele><time>2026-04-26T14:06:42.997Z</time></trkpt><trkpt lat="44.4021645" lon="8.1182244"><ele>691.0</ele><time>2026-04-26T14:06:43.997Z</time></trkpt><trkpt lat="44.4020885" lon="8.11813"><ele>691.0</ele><time>2026-04-26T14:06:44.997Z</time></trkpt><trkpt lat="44.4020177" lon="8.1180384"><ele>691.0</ele><time>2026-04-26T14:06:45.997Z</time></trkpt><trkpt lat="44.4019535" lon="8.1179532"><ele>691.6666666666667</ele><time>2026-04-26T14:06:46.997Z</time></trkpt><trkpt lat="44.4018938" lon="8.117884"><ele>692.3333333333334</ele><time>2026-04-26T14:06:47.997Z</time></trkpt><trkpt lat="44.4018411" lon="8.1178221"><ele>693.0</ele><time>2026-04-26T14:06:48.997Z</time></trkpt><trkpt lat="44.4017649" lon="8.1177051"><ele>693.6666666666666</ele><time>2026-04-26T14:06:50.997Z</time></trkpt><trkpt lat="44.4017136" lon="8.1176252"><ele>694.3333333333333</ele><time>2026-04-26T14:07:46.997Z</time></trkpt><trkpt lat="44.4016773" lon="8.1174942"><ele>695.0</ele><time>2026-04-26T14:07:48.996Z</time></trkpt><trkpt lat="44.401606" lon="8.1173713"><ele>695.0</ele><time>2026-04-26T14:07:50.996Z</time></trkpt><trkpt lat="44.4015027" lon="8.117345"><ele>695.0</ele><time>2026-04-26T14:07:52.996Z</time></trkpt><trkpt lat="44.4014242" lon="8.1174532"><ele>695.0</ele><time>2026-04-26T14:07:54.996Z</time></trkpt><trkpt lat="44.4014647" lon="8.1176037"><ele>695.0</ele><time>2026-04-26T14:07:56.996Z</time></trkpt><trkpt lat="44.4015345" lon="8.1176886"><ele>695.0</ele><time>2026-04-26T14:07:57.996Z</time></trkpt><trkpt lat="44.4016424" lon="8.1178092"><ele>698.5</ele><time>2026-04-26T14:07:58.996Z</time></trkpt><trkpt lat="44.4017913" lon="8.1179689"><ele>702.0</ele><time>2026-04-26T14:07:59.997Z</time></trkpt><trkpt lat="44.4020068" lon="8.1181969"><ele>696.5</ele><time>2026-04-26T14:08:00.996Z</time></trkpt><trkpt lat="44.4022244" lon="8.1184513"><ele>691.0</ele><time>2026-04-26T14:08:01.996Z</time></trkpt><trkpt lat="44.402406" lon="8.1186891"><ele>691.0</ele><time>2026-04-26T14:08:02.996Z</time></trkpt><trkpt lat="44.4025537" lon="8.11894"><ele>691.0</ele><time>2026-04-26T14:08:03.996Z</time></trkpt><trkpt lat="44.4026797" lon="8.1192098"><ele>689.0</ele><time>2026-04-26T14:08:04.996Z</time></trkpt><trkpt lat="44.4027865" lon="8.1194759"><ele>687.0</ele><time>2026-04-26T14:08:05.996Z</time></trkpt><trkpt lat="44.4028828" lon="8.119718"><ele>685.0</ele><time>2026-04-26T14:08:06.996Z</time></trkpt><trkpt lat="44.402966" lon="8.1199357"><ele>683.0</ele><time>2026-04-26T14:08:07.996Z</time></trkpt><trkpt lat="44.4030329" lon="8.1201164"><ele>681.0</ele><time>2026-04-26T14:08:08.996Z</time></trkpt><trkpt lat="44.4030919" lon="8.1202734"><ele>679.0</ele><time>2026-04-26T14:08:09.996Z</time></trkpt><trkpt lat="44.4031484" lon="8.1203865"><ele>677.0</ele><time>2026-04-26T14:08:10.996Z</time></trkpt><trkpt lat="44.4032163" lon="8.1204628"><ele>677.0</ele><time>2026-04-26T14:08:11.996Z</time></trkpt><trkpt lat="44.4032919" lon="8.1205036"><ele>677.0</ele><time>2026-04-26T14:08:12.996Z</time></trkpt><trkpt lat="44.4033739" lon="8.1205126"><ele>677.0</ele><time>2026-04-26T14:08:13.996Z</time></trkpt><trkpt lat="44.4034575" lon="8.1204795"><ele>677.0</ele><time>2026-04-26T14:08:14.996Z</time></trkpt><trkpt lat="44.4035299" lon="8.1204089"><ele>677.0</ele><time>2026-04-26T14:08:15.996Z</time></trkpt><trkpt lat="44.4035883" lon="8.12031"><ele>677.0</ele><time>2026-04-26T14:08:16.997Z</time></trkpt><trkpt lat="44.4036238" lon="8.1201949"><ele>677.0</ele><time>2026-04-26T14:08:17.996Z</time></trkpt><trkpt lat="44.4036051" lon="8.1200423"><ele>677.0</ele><time>2026-04-26T14:08:18.996Z</time></trkpt><trkpt lat="44.4035726" lon="8.1198945"><ele>677.0</ele><time>2026-04-26T14:08:19.996Z</time></trkpt><trkpt lat="44.4035591" lon="8.1197548"><ele>677.0</ele><time>2026-04-26T14:08:20.996Z</time></trkpt><trkpt lat="44.4035743" lon="8.1196509"><ele>677.0</ele><time>2026-04-26T14:08:21.996Z</time></trkpt><trkpt lat="44.403641" lon="8.1195818"><ele>677.0</ele><time>2026-04-26T14:08:23.996Z</time></trkpt><trkpt lat="44.4037428" lon="8.1197443"><ele>677.0</ele><time>2026-04-26T14:08:25.996Z</time></trkpt><trkpt lat="44.4038062" lon="8.1199231"><ele>677.0</ele><time>2026-04-26T14:08:26.996Z</time></trkpt><trkpt lat="44.4038827" lon="8.1201427"><ele>672.5</ele><time>2026-04-26T14:08:27.996Z</time></trkpt><trkpt lat="44.4039862" lon="8.1204148"><ele>668.0</ele><time>2026-04-26T14:08:28.996Z</time></trkpt><trkpt lat="44.4041328" lon="8.1207592"><ele>668.0</ele><time>2026-04-26T14:08:29.996Z</time></trkpt><trkpt lat="44.4043069" lon="8.1211423"><ele>668.0</ele><time>2026-04-26T14:08:30.996Z</time></trkpt><trkpt lat="44.4044964" lon="8.1215368"><ele>665.5</ele><time>2026-04-26T14:08:31.996Z</time></trkpt><trkpt lat="44.4046531" lon="8.1218886"><ele>663.0</ele><time>2026-04-26T14:08:32.996Z</time></trkpt><trkpt lat="44.404791" lon="8.1222153"><ele>660.3333333333334</ele><time>2026-04-26T14:08:33.996Z</time></trkpt><trkpt lat="44.4049013" lon="8.1224964"><ele>657.6666666666667</ele><time>2026-04-26T14:08:34.996Z</time></trkpt><trkpt lat="44.4049968" lon="8.1227451"><ele>655.0</ele><time>2026-04-26T14:08:35.996Z</time></trkpt><trkpt lat="44.4050749" lon="8.122949"><ele>655.0</ele><time>2026-04-26T14:08:36.996Z</time></trkpt><trkpt lat="44.4051517" lon="8.1231175"><ele>655.0</ele><time>2026-04-26T14:08:37.996Z</time></trkpt><trkpt lat="44.4052563" lon="8.1232717"><ele>655.0</ele><time>2026-04-26T14:08:38.996Z</time></trkpt><trkpt lat="44.4053976" lon="8.1234299"><ele>652.0</ele><time>2026-04-26T14:08:39.996Z</time></trkpt><trkpt lat="44.4055657" lon="8.1236004"><ele>649.0</ele><time>2026-04-26T14:08:40.996Z</time></trkpt><trkpt lat="44.4057349" lon="8.1237629"><ele>646.0</ele><time>2026-04-26T14:08:41.996Z</time></trkpt><trkpt lat="44.4058885" lon="8.1239162"><ele>646.0</ele><time>2026-04-26T14:08:42.996Z</time></trkpt><trkpt lat="44.4060114" lon="8.1240414"><ele>646.0</ele><time>2026-04-26T14:08:43.996Z</time></trkpt><trkpt lat="44.4061131" lon="8.1241302"><ele>646.0</ele><time>2026-04-26T14:08:44.996Z</time></trkpt><trkpt lat="44.4062036" lon="8.1241766"><ele>646.0</ele><time>2026-04-26T14:08:45.996Z</time></trkpt><trkpt lat="44.4063013" lon="8.1241786"><ele>644.25</ele><time>2026-04-26T14:08:46.996Z</time></trkpt><trkpt lat="44.4064134" lon="8.1241321"><ele>642.5</ele><time>2026-04-26T14:08:47.996Z</time></trkpt><trkpt lat="44.4065377" lon="8.1240756"><ele>640.75</ele><time>2026-04-26T14:08:48.997Z</time></trkpt><trkpt lat="44.4066599" lon="8.1240431"><ele>639.0</ele><time>2026-04-26T14:08:49.996Z</time></trkpt><trkpt lat="44.4067739" lon="8.1240579"><ele>638.25</ele><time>2026-04-26T14:08:50.996Z</time></trkpt><trkpt lat="44.406884" lon="8.1241161"><ele>637.5</ele><time>2026-04-26T14:08:51.996Z</time></trkpt><trkpt lat="44.4069892" lon="8.1242134"><ele>636.75</ele><time>2026-04-26T14:08:52.997Z</time></trkpt><trkpt lat="44.4070858" lon="8.1243602"><ele>636.0</ele><time>2026-04-26T14:08:53.996Z</time></trkpt><trkpt lat="44.4071697" lon="8.1245461"><ele>633.0</ele><time>2026-04-26T14:08:54.996Z</time></trkpt><trkpt lat="44.4072474" lon="8.1247495"><ele>630.0</ele><time>2026-04-26T14:08:55.997Z</time></trkpt><trkpt lat="44.4073065" lon="8.1249954"><ele>627.0</ele><time>2026-04-26T14:08:56.996Z</time></trkpt><trkpt lat="44.4073662" lon="8.1252599"><ele>627.0</ele><time>2026-04-26T14:08:57.996Z</time></trkpt><trkpt lat="44.4074348" lon="8.1255453"><ele>627.0</ele><time>2026-04-26T14:08:58.996Z</time></trkpt><trkpt lat="44.4075108" lon="8.1258363"><ele>627.0</ele><time>2026-04-26T14:08:59.996Z</time></trkpt><trkpt lat="44.4075735" lon="8.1261121"><ele>626.6666666666666</ele><time>2026-04-26T14:09:00.996Z</time></trkpt><trkpt lat="44.4076307" lon="8.1263682"><ele>626.3333333333333</ele><time>2026-04-26T14:09:01.996Z</time></trkpt><trkpt lat="44.407684" lon="8.1266037"><ele>626.0</ele><time>2026-04-26T14:09:02.996Z</time></trkpt><trkpt lat="44.4077377" lon="8.126823"><ele>626.5</ele><time>2026-04-26T14:09:03.997Z</time></trkpt><trkpt lat="44.4077812" lon="8.1270161"><ele>627.0</ele><time>2026-04-26T14:09:04.996Z</time></trkpt><trkpt lat="44.40782" lon="8.1271797"><ele>627.5</ele><time>2026-04-26T14:09:05.997Z</time></trkpt><trkpt lat="44.4078568" lon="8.1273164"><ele>628.0</ele><time>2026-04-26T14:09:06.996Z</time></trkpt><trkpt lat="44.4078886" lon="8.1274348"><ele>628.0</ele><time>2026-04-26T14:09:07.996Z</time></trkpt><trkpt lat="44.4079129" lon="8.1275403"><ele>628.0</ele><time>2026-04-26T14:09:08.996Z</time></trkpt><trkpt lat="44.4079339" lon="8.1276255"><ele>628.0</ele><time>2026-04-26T14:09:09.997Z</time></trkpt><trkpt lat="44.4079827" lon="8.1277248"><ele>628.0</ele><time>2026-04-26T14:09:11.996Z</time></trkpt><trkpt lat="44.4080493" lon="8.1277052"><ele>628.0</ele><time>2026-04-26T14:09:13.996Z</time></trkpt><trkpt lat="44.408106" lon="8.1275476"><ele>628.0</ele><time>2026-04-26T14:09:15.996Z</time></trkpt><trkpt lat="44.408131" lon="8.1274166"><ele>628.3333333333334</ele><time>2026-04-26T14:09:16.996Z</time></trkpt><trkpt lat="44.4081774" lon="8.127232"><ele>628.6666666666666</ele><time>2026-04-26T14:09:17.996Z</time></trkpt><trkpt lat="44.4082605" lon="8.1269991"><ele>629.0</ele><time>2026-04-26T14:09:18.996Z</time></trkpt><trkpt lat="44.4083811" lon="8.1267284"><ele>629.0</ele><time>2026-04-26T14:09:19.996Z</time></trkpt><trkpt lat="44.4085294" lon="8.1264324"><ele>629.0</ele><time>2026-04-26T14:09:20.996Z</time></trkpt><trkpt lat="44.4087205" lon="8.1260905"><ele>630.0</ele><time>2026-04-26T14:09:21.997Z</time></trkpt><trkpt lat="44.4089211" lon="8.1257295"><ele>631.0</ele><time>2026-04-26T14:09:22.997Z</time></trkpt><trkpt lat="44.4090952" lon="8.1254109"><ele>631.0</ele><time>2026-04-26T14:09:23.996Z</time></trkpt><trkpt lat="44.4092368" lon="8.1251481"><ele>631.0</ele><time>2026-04-26T14:09:24.996Z</time></trkpt><trkpt lat="44.4093677" lon="8.1249264"><ele>631.0</ele><time>2026-04-26T14:09:25.996Z</time></trkpt><trkpt lat="44.409505" lon="8.1247546"><ele>631.6666666666667</ele><time>2026-04-26T14:09:26.996Z</time></trkpt><trkpt lat="44.4096393" lon="8.1246236"><ele>632.3333333333334</ele><time>2026-04-26T14:09:27.996Z</time></trkpt><trkpt lat="44.4097727" lon="8.1245137"><ele>633.0</ele><time>2026-04-26T14:09:28.996Z</time></trkpt><trkpt lat="44.4099023" lon="8.1243955"><ele>633.0</ele><time>2026-04-26T14:09:29.996Z</time></trkpt><trkpt lat="44.4100099" lon="8.1242444"><ele>633.0</ele><time>2026-04-26T14:09:30.996Z</time></trkpt><trkpt lat="44.4100981" lon="8.1240365"><ele>633.0</ele><time>2026-04-26T14:09:31.996Z</time></trkpt><trkpt lat="44.4101614" lon="8.1237911"><ele>633.0</ele><time>2026-04-26T14:09:32.997Z</time></trkpt><trkpt lat="44.4102103" lon="8.1235502"><ele>633.0</ele><time>2026-04-26T14:09:33.996Z</time></trkpt><trkpt lat="44.4102529" lon="8.1233339"><ele>633.0</ele><time>2026-04-26T14:09:34.996Z</time></trkpt><trkpt lat="44.4102878" lon="8.1231303"><ele>631.75</ele><time>2026-04-26T14:09:35.996Z</time></trkpt><trkpt lat="44.4103286" lon="8.122948"><ele>630.5</ele><time>2026-04-26T14:09:36.996Z</time></trkpt><trkpt lat="44.4103838" lon="8.1227914"><ele>629.25</ele><time>2026-04-26T14:09:37.996Z</time></trkpt><trkpt lat="44.4104564" lon="8.1226517"><ele>628.0</ele><time>2026-04-26T14:09:38.996Z</time></trkpt><trkpt lat="44.4105383" lon="8.1225338"><ele>627.5</ele><time>2026-04-26T14:09:39.997Z</time></trkpt><trkpt lat="44.4106244" lon="8.1224456"><ele>627.0</ele><time>2026-04-26T14:09:40.996Z</time></trkpt><trkpt lat="44.4107266" lon="8.1223784"><ele>626.5</ele><time>2026-04-26T14:09:41.996Z</time></trkpt><trkpt lat="44.4108472" lon="8.1223311"><ele>626.0</ele><time>2026-04-26T14:09:42.996Z</time></trkpt><trkpt lat="44.4109774" lon="8.1222922"><ele>626.0</ele><time>2026-04-26T14:09:43.996Z</time></trkpt><trkpt lat="44.4111106" lon="8.1222589"><ele>626.0</ele><time>2026-04-26T14:09:44.996Z</time></trkpt><trkpt lat="44.4112449" lon="8.1222342"><ele>626.0</ele><time>2026-04-26T14:09:45.996Z</time></trkpt><trkpt lat="44.4113713" lon="8.1222155"><ele>626.0</ele><time>2026-04-26T14:09:46.996Z</time></trkpt><trkpt lat="44.4114877" lon="8.1222054"><ele>626.0</ele><time>2026-04-26T14:09:47.996Z</time></trkpt><trkpt lat="44.4115962" lon="8.1222008"><ele>626.0</ele><time>2026-04-26T14:09:48.996Z</time></trkpt><trkpt lat="44.4116973" lon="8.1221917"><ele>626.0</ele><time>2026-04-26T14:09:49.996Z</time></trkpt><trkpt lat="44.4117947" lon="8.122174"><ele>626.0</ele><time>2026-04-26T14:09:50.996Z</time></trkpt><trkpt lat="44.4118908" lon="8.1221587"><ele>626.0</ele><time>2026-04-26T14:09:51.996Z</time></trkpt><trkpt lat="44.4119691" lon="8.1221406"><ele>626.0</ele><time>2026-04-26T14:09:52.996Z</time></trkpt><trkpt lat="44.4120339" lon="8.1221172"><ele>626.0</ele><time>2026-04-26T14:09:53.996Z</time></trkpt><trkpt lat="44.412144" lon="8.1220912"><ele>626.0</ele><time>2026-04-26T14:09:55.997Z</time></trkpt><trkpt lat="44.4122395" lon="8.1221199"><ele>626.0</ele><time>2026-04-26T14:26:17.994Z</time></trkpt><trkpt lat="44.4123102" lon="8.122072"><ele>626.0</ele><time>2026-04-26T14:26:18.994Z</time></trkpt><trkpt lat="44.4123952" lon="8.1219901"><ele>625.75</ele><time>2026-04-26T14:26:19.994Z</time></trkpt><trkpt lat="44.4124931" lon="8.1218735"><ele>625.5</ele><time>2026-04-26T14:26:20.994Z</time></trkpt><trkpt lat="44.412592" lon="8.1217299"><ele>625.25</ele><time>2026-04-26T14:26:21.994Z</time></trkpt><trkpt lat="44.4126896" lon="8.1215712"><ele>625.0</ele><time>2026-04-26T14:26:22.994Z</time></trkpt><trkpt lat="44.4128049" lon="8.1214025"><ele>625.0</ele><time>2026-04-26T14:26:23.994Z</time></trkpt><trkpt lat="44.4129551" lon="8.1212495"><ele>625.0</ele><time>2026-04-26T14:26:24.994Z</time></trkpt><trkpt lat="44.4131301" lon="8.1211253"><ele>625.0</ele><time>2026-04-26T14:26:25.995Z</time></trkpt><trkpt lat="44.4133087" lon="8.1210252"><ele>624.6666666666667</ele><time>2026-04-26T14:26:26.994Z</time></trkpt><trkpt lat="44.4134795" lon="8.1209391"><ele>624.3333333333334</ele><time>2026-04-26T14:26:27.995Z</time></trkpt><trkpt lat="44.4136507" lon="8.1208718"><ele>624.0</ele><time>2026-04-26T14:26:28.994Z</time></trkpt><trkpt lat="44.4138311" lon="8.1208288"><ele>624.0</ele><time>2026-04-26T14:26:29.994Z</time></trkpt><trkpt lat="44.4140123" lon="8.1208005"><ele>624.0</ele><time>2026-04-26T14:26:30.994Z</time></trkpt><trkpt lat="44.4142069" lon="8.1207943"><ele>624.0</ele><time>2026-04-26T14:26:31.994Z</time></trkpt><trkpt lat="44.4144075" lon="8.120818"><ele>624.0</ele><time>2026-04-26T14:26:32.995Z</time></trkpt><trkpt lat="44.4146079" lon="8.120838"><ele>624.0</ele><time>2026-04-26T14:26:33.994Z</time></trkpt><trkpt lat="44.4148181" lon="8.1208524"><ele>624.0</ele><time>2026-04-26T14:26:34.994Z</time></trkpt><trkpt lat="44.4150474" lon="8.1208782"><ele>624.5</ele><time>2026-04-26T14:26:35.994Z</time></trkpt><trkpt lat="44.4152754" lon="8.1209318"><ele>625.0</ele><time>2026-04-26T14:26:36.994Z</time></trkpt><trkpt lat="44.4155168" lon="8.1209898"><ele>625.0</ele><time>2026-04-26T14:26:37.994Z</time></trkpt><trkpt lat="44.4157708" lon="8.1210217"><ele>625.0</ele><time>2026-04-26T14:26:38.994Z</time></trkpt><trkpt lat="44.4160256" lon="8.1210264"><ele>625.0</ele><time>2026-04-26T14:26:39.994Z</time></trkpt><trkpt lat="44.4162536" lon="8.1210159"><ele>625.0</ele><time>2026-04-26T14:26:40.994Z</time></trkpt><trkpt lat="44.4164485" lon="8.1209922"><ele>625.0</ele><time>2026-04-26T14:26:41.994Z</time></trkpt><trkpt lat="44.4166167" lon="8.1209819"><ele>625.0</ele><time>2026-04-26T14:26:42.994Z</time></trkpt><trkpt lat="44.4167669" lon="8.1210084"><ele>625.0</ele><time>2026-04-26T14:26:43.995Z</time></trkpt><trkpt lat="44.4169095" lon="8.1210483"><ele>625.0</ele><time>2026-04-26T14:26:44.994Z</time></trkpt><trkpt lat="44.4170453" lon="8.1210897"><ele>625.0</ele><time>2026-04-26T14:26:45.994Z</time></trkpt><trkpt lat="44.4171734" lon="8.1211167"><ele>625.0</ele><time>2026-04-26T14:26:46.994Z</time></trkpt><trkpt lat="44.4172881" lon="8.1211195"><ele>625.0</ele><time>2026-04-26T14:26:47.994Z</time></trkpt><trkpt lat="44.4173992" lon="8.1211114"><ele>625.0</ele><time>2026-04-26T14:26:48.994Z</time></trkpt><trkpt lat="44.417501" lon="8.1211021"><ele>625.0</ele><time>2026-04-26T14:26:49.994Z</time></trkpt><trkpt lat="44.4175899" lon="8.1210855"><ele>625.0</ele><time>2026-04-26T14:26:50.994Z</time></trkpt><trkpt lat="44.4176629" lon="8.1210594"><ele>625.0</ele><time>2026-04-26T14:26:51.994Z</time></trkpt><trkpt lat="44.4177254" lon="8.1210336"><ele>625.0</ele><time>2026-04-26T14:26:52.994Z</time></trkpt><trkpt lat="44.4178228" lon="8.1209898"><ele>625.0</ele><time>2026-04-26T14:26:54.994Z</time></trkpt><trkpt lat="44.4178938" lon="8.1209535"><ele>625.0</ele><time>2026-04-26T14:26:56.994Z</time></trkpt><trkpt lat="44.4179072" lon="8.1208409"><ele>625.0</ele><time>2026-04-26T14:52:30.989Z</time></trkpt><trkpt lat="44.4178428" lon="8.1208365"><ele>625.0</ele><time>2026-04-26T14:52:34.989Z</time></trkpt><trkpt lat="44.4177652" lon="8.120891"><ele>625.0</ele><time>2026-04-26T14:55:03.99Z</time></trkpt><trkpt lat="44.4176648" lon="8.1209637"><ele>625.0</ele><time>2026-04-26T14:55:05.989Z</time></trkpt><trkpt lat="44.4175993" lon="8.1210128"><ele>625.0</ele><time>2026-04-26T14:55:06.989Z</time></trkpt><trkpt lat="44.4175141" lon="8.1210525"><ele>625.0</ele><time>2026-04-26T14:55:07.989Z</time></trkpt><trkpt lat="44.4174137" lon="8.1210863"><ele>625.0</ele><time>2026-04-26T14:55:08.989Z</time></trkpt><trkpt lat="44.4172539" lon="8.1211017"><ele>625.0</ele><time>2026-04-26T14:55:09.989Z</time></trkpt><trkpt lat="44.417058" lon="8.1210724"><ele>625.0</ele><time>2026-04-26T14:55:10.989Z</time></trkpt><trkpt lat="44.4168574" lon="8.1210254"><ele>625.0</ele><time>2026-04-26T14:55:11.989Z</time></trkpt><trkpt lat="44.4166657" lon="8.1209798"><ele>625.0</ele><time>2026-04-26T14:55:12.989Z</time></trkpt><trkpt lat="44.4164748" lon="8.1209602"><ele>625.0</ele><time>2026-04-26T14:55:13.989Z</time></trkpt><trkpt lat="44.4162587" lon="8.1209593"><ele>625.0</ele><time>2026-04-26T14:55:14.989Z</time></trkpt><trkpt lat="44.416025" lon="8.120979"><ele>625.0</ele><time>2026-04-26T14:55:15.989Z</time></trkpt><trkpt lat="44.415783" lon="8.120986"><ele>625.0</ele><time>2026-04-26T14:55:16.989Z</time></trkpt><trkpt lat="44.4155563" lon="8.1209805"><ele>625.0</ele><time>2026-04-26T14:55:17.989Z</time></trkpt><trkpt lat="44.41536" lon="8.1209612"><ele>625.0</ele><time>2026-04-26T14:55:18.989Z</time></trkpt><trkpt lat="44.4151831" lon="8.1209325"><ele>625.0</ele><time>2026-04-26T14:55:19.99Z</time></trkpt><trkpt lat="44.4150376" lon="8.1209009"><ele>625.0</ele><time>2026-04-26T14:55:20.989Z</time></trkpt><trkpt lat="44.4149001" lon="8.1208636"><ele>625.0</ele><time>2026-04-26T14:55:21.989Z</time></trkpt><trkpt lat="44.4147666" lon="8.1208371"><ele>625.0</ele><time>2026-04-26T14:55:22.989Z</time></trkpt><trkpt lat="44.414632" lon="8.1208198"><ele>625.0</ele><time>2026-04-26T14:55:23.99Z</time></trkpt><trkpt lat="44.4144933" lon="8.1208024"><ele>624.75</ele><time>2026-04-26T14:55:24.989Z</time></trkpt><trkpt lat="44.4143615" lon="8.1207877"><ele>624.5</ele><time>2026-04-26T14:55:25.989Z</time></trkpt><trkpt lat="44.4142294" lon="8.1207793"><ele>624.25</ele><time>2026-04-26T14:55:26.989Z</time></trkpt><trkpt lat="44.4140996" lon="8.1207749"><ele>624.0</ele><time>2026-04-26T14:55:27.989Z</time></trkpt><trkpt lat="44.4139738" lon="8.1207752"><ele>624.0</ele><time>2026-04-26T14:55:28.989Z</time></trkpt><trkpt lat="44.4138502" lon="8.1207869"><ele>624.0</ele><time>2026-04-26T14:55:29.989Z</time></trkpt><trkpt lat="44.4137271" lon="8.1208079"><ele>624.0</ele><time>2026-04-26T14:55:30.989Z</time></trkpt><trkpt lat="44.413609" lon="8.1208427"><ele>624.0</ele><time>2026-04-26T14:55:31.989Z</time></trkpt><trkpt lat="44.4134877" lon="8.1208876"><ele>624.0</ele><time>2026-04-26T14:55:32.989Z</time></trkpt><trkpt lat="44.4133789" lon="8.1209378"><ele>624.0</ele><time>2026-04-26T14:55:33.989Z</time></trkpt><trkpt lat="44.4132707" lon="8.1210021"><ele>624.0</ele><time>2026-04-26T14:55:34.989Z</time></trkpt><trkpt lat="44.4131491" lon="8.1210838"><ele>624.0</ele><time>2026-04-26T14:55:35.989Z</time></trkpt><trkpt lat="44.4130227" lon="8.1211774"><ele>624.25</ele><time>2026-04-26T14:55:36.989Z</time></trkpt><trkpt lat="44.4129025" lon="8.1212856"><ele>624.5</ele><time>2026-04-26T14:55:37.989Z</time></trkpt><trkpt lat="44.4127891" lon="8.1213963"><ele>624.75</ele><time>2026-04-26T14:55:38.989Z</time></trkpt><trkpt lat="44.4126842" lon="8.1215165"><ele>625.0</ele><time>2026-04-26T14:55:39.989Z</time></trkpt><trkpt lat="44.4126056" lon="8.121669"><ele>625.0</ele><time>2026-04-26T14:55:40.989Z</time></trkpt><trkpt lat="44.4125427" lon="8.1218238"><ele>625.0</ele><time>2026-04-26T14:55:41.989Z</time></trkpt><trkpt lat="44.4124666" lon="8.1219516"><ele>625.0</ele><time>2026-04-26T14:55:42.989Z</time></trkpt><trkpt lat="44.4123715" lon="8.1220516"><ele>625.0</ele><time>2026-04-26T14:55:43.99Z</time></trkpt><trkpt lat="44.412253" lon="8.1221206"><ele>625.25</ele><time>2026-04-26T14:55:44.989Z</time></trkpt><trkpt lat="44.4121228" lon="8.1221769"><ele>625.5</ele><time>2026-04-26T14:55:45.989Z</time></trkpt><trkpt lat="44.4119783" lon="8.122226"><ele>625.75</ele><time>2026-04-26T14:55:46.989Z</time></trkpt><trkpt lat="44.4118276" lon="8.1222698"><ele>626.0</ele><time>2026-04-26T14:55:47.989Z</time></trkpt><trkpt lat="44.4116729" lon="8.1222984"><ele>626.0</ele><time>2026-04-26T14:55:48.989Z</time></trkpt><trkpt lat="44.4115196" lon="8.1223082"><ele>626.0</ele><time>2026-04-26T14:55:49.989Z</time></trkpt><trkpt lat="44.4113676" lon="8.1223126"><ele>626.0</ele><time>2026-04-26T14:55:50.989Z</time></trkpt><trkpt lat="44.4112176" lon="8.1223223"><ele>626.0</ele><time>2026-04-26T14:55:51.989Z</time></trkpt><trkpt lat="44.4110642" lon="8.1223458"><ele>626.0</ele><time>2026-04-26T14:55:52.989Z</time></trkpt><trkpt lat="44.410917" lon="8.1223832"><ele>626.0</ele><time>2026-04-26T14:55:53.989Z</time></trkpt><trkpt lat="44.4107808" lon="8.1224301"><ele>626.0</ele><time>2026-04-26T14:55:54.989Z</time></trkpt><trkpt lat="44.4106654" lon="8.1224687"><ele>626.4</ele><time>2026-04-26T14:55:55.989Z</time></trkpt><trkpt lat="44.4105866" lon="8.122546"><ele>626.8</ele><time>2026-04-26T14:55:56.989Z</time></trkpt><trkpt lat="44.4104979" lon="8.1226349"><ele>627.1999999999999</ele><time>2026-04-26T14:55:57.989Z</time></trkpt><trkpt lat="44.4104252" lon="8.1227672"><ele>627.6</ele><time>2026-04-26T14:55:58.989Z</time></trkpt><trkpt lat="44.4103553" lon="8.122911"><ele>628.0</ele><time>2026-04-26T14:55:59.989Z</time></trkpt><trkpt lat="44.4102955" lon="8.1230496"><ele>628.0</ele><time>2026-04-26T14:56:00.989Z</time></trkpt><trkpt lat="44.4102507" lon="8.1232085"><ele>628.0</ele><time>2026-04-26T14:56:01.989Z</time></trkpt><trkpt lat="44.4102174" lon="8.1234003"><ele>628.0</ele><time>2026-04-26T14:56:02.989Z</time></trkpt><trkpt lat="44.410192" lon="8.1236058"><ele>628.0</ele><time>2026-04-26T14:56:03.989Z</time></trkpt><trkpt lat="44.4101607" lon="8.1238057"><ele>629.25</ele><time>2026-04-26T14:56:04.989Z</time></trkpt><trkpt lat="44.4101225" lon="8.1239918"><ele>630.5</ele><time>2026-04-26T14:56:05.989Z</time></trkpt><trkpt lat="44.4100697" lon="8.1241605"><ele>631.75</ele><time>2026-04-26T14:56:06.989Z</time></trkpt><trkpt lat="44.4100058" lon="8.1243065"><ele>633.0</ele><time>2026-04-26T14:56:07.989Z</time></trkpt><trkpt lat="44.4099161" lon="8.1244495"><ele>633.0</ele><time>2026-04-26T14:56:08.989Z</time></trkpt><trkpt lat="44.409808" lon="8.1245745"><ele>633.0</ele><time>2026-04-26T14:56:09.989Z</time></trkpt><trkpt lat="44.4096972" lon="8.1246725"><ele>633.0</ele><time>2026-04-26T14:56:10.989Z</time></trkpt><trkpt lat="44.4095795" lon="8.1247589"><ele>633.0</ele><time>2026-04-26T14:56:11.989Z</time></trkpt><trkpt lat="44.4094618" lon="8.1248571"><ele>632.5</ele><time>2026-04-26T14:56:12.989Z</time></trkpt><trkpt lat="44.4093551" lon="8.1249793"><ele>632.0</ele><time>2026-04-26T14:56:13.989Z</time></trkpt><trkpt lat="44.4092655" lon="8.1251244"><ele>631.5</ele><time>2026-04-26T14:56:14.989Z</time></trkpt><trkpt lat="44.4091808" lon="8.1252863"><ele>631.0</ele><time>2026-04-26T14:56:15.989Z</time></trkpt><trkpt lat="44.4091011" lon="8.1254571"><ele>631.0</ele><time>2026-04-26T14:56:16.989Z</time></trkpt><trkpt lat="44.4090155" lon="8.125621"><ele>631.0</ele><time>2026-04-26T14:56:17.989Z</time></trkpt><trkpt lat="44.4089287" lon="8.1257724"><ele>631.0</ele><time>2026-04-26T14:56:18.989Z</time></trkpt><trkpt lat="44.4088413" lon="8.1259306"><ele>631.0</ele><time>2026-04-26T14:56:19.988Z</time></trkpt><trkpt lat="44.408755" lon="8.1260781"><ele>630.5</ele><time>2026-04-26T14:56:20.988Z</time></trkpt><trkpt lat="44.4086695" lon="8.126213"><ele>630.0</ele><time>2026-04-26T14:56:21.989Z</time></trkpt><trkpt lat="44.4085843" lon="8.1263465"><ele>629.5</ele><time>2026-04-26T14:56:22.988Z</time></trkpt><trkpt lat="44.4084955" lon="8.1264813"><ele>629.0</ele><time>2026-04-26T14:56:23.988Z</time></trkpt><trkpt lat="44.4084132" lon="8.1266196"><ele>629.0</ele><time>2026-04-26T14:56:24.989Z</time></trkpt><trkpt lat="44.4083379" lon="8.1267423"><ele>629.0</ele><time>2026-04-26T14:56:25.988Z</time></trkpt><trkpt lat="44.4082689" lon="8.126861"><ele>629.0</ele><time>2026-04-26T14:56:26.988Z</time></trkpt><trkpt lat="44.4082149" lon="8.1269792"><ele>629.0</ele><time>2026-04-26T14:56:27.988Z</time></trkpt><trkpt lat="44.4081731" lon="8.1270997"><ele>629.0</ele><time>2026-04-26T14:56:28.989Z</time></trkpt><trkpt lat="44.4081423" lon="8.1272167"><ele>629.0</ele><time>2026-04-26T14:56:29.989Z</time></trkpt><trkpt lat="44.4081151" lon="8.1273274"><ele>629.0</ele><time>2026-04-26T14:56:30.988Z</time></trkpt><trkpt lat="44.4080935" lon="8.1274294"><ele>629.0</ele><time>2026-04-26T14:56:31.988Z</time></trkpt><trkpt lat="44.4080706" lon="8.1275163"><ele>629.0</ele><time>2026-04-26T14:56:32.988Z</time></trkpt><trkpt lat="44.4080282" lon="8.1276497"><ele>629.0</ele><time>2026-04-26T14:56:34.988Z</time></trkpt><trkpt lat="44.4079539" lon="8.1275719"><ele>629.0</ele><time>2026-04-26T14:56:42.988Z</time></trkpt><trkpt lat="44.4079134" lon="8.1274583"><ele>628.6666666666666</ele><time>2026-04-26T14:56:43.988Z</time></trkpt><trkpt lat="44.4078619" lon="8.1272906"><ele>628.3333333333334</ele><time>2026-04-26T14:56:44.988Z</time></trkpt><trkpt lat="44.4077964" lon="8.1270484"><ele>628.0</ele><time>2026-04-26T14:56:45.988Z</time></trkpt><trkpt lat="44.4077209" lon="8.1267186"><ele>627.0</ele><time>2026-04-26T14:56:46.988Z</time></trkpt><trkpt lat="44.4076433" lon="8.1263701"><ele>626.0</ele><time>2026-04-26T14:56:47.988Z</time></trkpt><trkpt lat="44.407559" lon="8.1260453"><ele>626.0</ele><time>2026-04-26T14:56:48.988Z</time></trkpt><trkpt lat="44.4074823" lon="8.125761"><ele>626.0</ele><time>2026-04-26T14:56:49.989Z</time></trkpt><trkpt lat="44.4074137" lon="8.1255044"><ele>626.0</ele><time>2026-04-26T14:56:50.988Z</time></trkpt><trkpt lat="44.4073471" lon="8.1252642"><ele>626.3333333333333</ele><time>2026-04-26T14:56:51.988Z</time></trkpt><trkpt lat="44.4072891" lon="8.1250349"><ele>626.6666666666666</ele><time>2026-04-26T14:56:52.988Z</time></trkpt><trkpt lat="44.4072335" lon="8.1248173"><ele>627.0</ele><time>2026-04-26T14:56:53.988Z</time></trkpt><trkpt lat="44.4071736" lon="8.1246126"><ele>629.25</ele><time>2026-04-26T14:56:54.988Z</time></trkpt><trkpt lat="44.4071099" lon="8.124422"><ele>631.5</ele><time>2026-04-26T14:56:55.988Z</time></trkpt><trkpt lat="44.4070271" lon="8.1242524"><ele>633.75</ele><time>2026-04-26T14:56:56.988Z</time></trkpt><trkpt lat="44.4069233" lon="8.1240993"><ele>636.0</ele><time>2026-04-26T14:56:57.988Z</time></trkpt><trkpt lat="44.4068072" lon="8.1239796"><ele>636.75</ele><time>2026-04-26T14:56:58.988Z</time></trkpt><trkpt lat="44.4066742" lon="8.123904"><ele>637.5</ele><time>2026-04-26T14:56:59.988Z</time></trkpt><trkpt lat="44.4065297" lon="8.1238902"><ele>638.25</ele><time>2026-04-26T14:57:00.988Z</time></trkpt><trkpt lat="44.4063945" lon="8.1239221"><ele>639.0</ele><time>2026-04-26T14:57:01.988Z</time></trkpt><trkpt lat="44.4062626" lon="8.1239872"><ele>640.75</ele><time>2026-04-26T14:57:02.988Z</time></trkpt><trkpt lat="44.4061382" lon="8.1240353"><ele>642.5</ele><time>2026-04-26T14:57:03.988Z</time></trkpt><trkpt lat="44.4060228" lon="8.124034"><ele>644.25</ele><time>2026-04-26T14:57:04.988Z</time></trkpt><trkpt lat="44.4059237" lon="8.1239927"><ele>646.0</ele><time>2026-04-26T14:57:05.988Z</time></trkpt><trkpt lat="44.405833" lon="8.123914"><ele>646.0</ele><time>2026-04-26T14:57:06.988Z</time></trkpt><trkpt lat="44.4057449" lon="8.1238125"><ele>646.0</ele><time>2026-04-26T14:57:07.988Z</time></trkpt><trkpt lat="44.4056521" lon="8.123702"><ele>646.0</ele><time>2026-04-26T14:57:08.988Z</time></trkpt><trkpt lat="44.4055565" lon="8.1235925"><ele>646.0</ele><time>2026-04-26T14:57:09.988Z</time></trkpt><trkpt lat="44.405454" lon="8.1234884"><ele>646.5</ele><time>2026-04-26T14:57:10.988Z</time></trkpt><trkpt lat="44.4053567" lon="8.1233881"><ele>647.0</ele><time>2026-04-26T14:57:11.988Z</time></trkpt><trkpt lat="44.405263" lon="8.1232745"><ele>647.5</ele><time>2026-04-26T14:57:12.988Z</time></trkpt><trkpt lat="44.4051718" lon="8.1231355"><ele>648.0</ele><time>2026-04-26T14:57:13.988Z</time></trkpt><trkpt lat="44.4050938" lon="8.1229951"><ele>649.75</ele><time>2026-04-26T14:57:14.988Z</time></trkpt><trkpt lat="44.4050259" lon="8.1228433"><ele>651.5</ele><time>2026-04-26T14:57:15.988Z</time></trkpt><trkpt lat="44.4049636" lon="8.1226624"><ele>653.25</ele><time>2026-04-26T14:57:16.988Z</time></trkpt><trkpt lat="44.4049065" lon="8.1224762"><ele>655.0</ele><time>2026-04-26T14:57:17.989Z</time></trkpt><trkpt lat="44.4048383" lon="8.1222934"><ele>656.0</ele><time>2026-04-26T14:57:18.988Z</time></trkpt><trkpt lat="44.4047583" lon="8.1221039"><ele>657.0</ele><time>2026-04-26T14:57:19.989Z</time></trkpt><trkpt lat="44.40467" lon="8.1219057"><ele>658.0</ele><time>2026-04-26T14:57:20.988Z</time></trkpt><trkpt lat="44.4045745" lon="8.121716"><ele>661.3333333333334</ele><time>2026-04-26T14:57:21.988Z</time></trkpt><trkpt lat="44.4044745" lon="8.1215244"><ele>664.6666666666666</ele><time>2026-04-26T14:57:22.988Z</time></trkpt><trkpt lat="44.4043837" lon="8.1213341"><ele>668.0</ele><time>2026-04-26T14:57:23.988Z</time></trkpt><trkpt lat="44.404286" lon="8.1211432"><ele>668.0</ele><time>2026-04-26T14:57:24.988Z</time></trkpt><trkpt lat="44.4041861" lon="8.120955"><ele>668.0</ele><time>2026-04-26T14:57:25.988Z</time></trkpt><trkpt lat="44.4040857" lon="8.1207696"><ele>668.0</ele><time>2026-04-26T14:57:26.988Z</time></trkpt><trkpt lat="44.4039953" lon="8.1205862"><ele>667.25</ele><time>2026-04-26T14:57:27.988Z</time></trkpt><trkpt lat="44.403904" lon="8.1204121"><ele>666.5</ele><time>2026-04-26T14:57:28.989Z</time></trkpt><trkpt lat="44.4038114" lon="8.1202458"><ele>665.75</ele><time>2026-04-26T14:57:29.988Z</time></trkpt><trkpt lat="44.4037392" lon="8.1200851"><ele>665.0</ele><time>2026-04-26T14:57:30.988Z</time></trkpt><trkpt lat="44.4036833" lon="8.1199448"><ele>667.0</ele><time>2026-04-26T14:57:31.989Z</time></trkpt><trkpt lat="44.4036403" lon="8.1198073"><ele>669.0</ele><time>2026-04-26T14:57:32.988Z</time></trkpt><trkpt lat="44.4036073" lon="8.1196763"><ele>671.0</ele><time>2026-04-26T14:57:33.988Z</time></trkpt><trkpt lat="44.4035765" lon="8.1195603"><ele>673.0</ele><time>2026-04-26T14:57:34.988Z</time></trkpt><trkpt lat="44.4035383" lon="8.1194853"><ele>675.0</ele><time>2026-04-26T14:57:35.988Z</time></trkpt><trkpt lat="44.4034344" lon="8.1194392"><ele>675.0</ele><time>2026-04-26T14:57:37.988Z</time></trkpt><trkpt lat="44.4033625" lon="8.1195608"><ele>675.0</ele><time>2026-04-26T14:57:39.988Z</time></trkpt><trkpt lat="44.4033744" lon="8.1196918"><ele>675.0</ele><time>2026-04-26T14:57:40.988Z</time></trkpt><trkpt lat="44.4034016" lon="8.1198477"><ele>675.0</ele><time>2026-04-26T14:57:41.988Z</time></trkpt><trkpt lat="44.4034169" lon="8.1200175"><ele>675.0</ele><time>2026-04-26T14:57:42.988Z</time></trkpt><trkpt lat="44.4034062" lon="8.1201747"><ele>675.3333333333334</ele><time>2026-04-26T14:57:43.988Z</time></trkpt><trkpt lat="44.4033678" lon="8.1203094"><ele>675.6666666666666</ele><time>2026-04-26T14:57:44.988Z</time></trkpt><trkpt lat="44.4033163" lon="8.1204043"><ele>676.0</ele><time>2026-04-26T14:57:45.989Z</time></trkpt><trkpt lat="44.4032571" lon="8.1204507"><ele>676.3333333333333</ele><time>2026-04-26T14:57:46.989Z</time></trkpt><trkpt lat="44.4031714" lon="8.1204405"><ele>676.6666666666666</ele><time>2026-04-26T14:57:47.988Z</time></trkpt><trkpt lat="44.4030884" lon="8.1203972"><ele>677.0</ele><time>2026-04-26T14:57:48.988Z</time></trkpt><trkpt lat="44.4030144" lon="8.1202873"><ele>677.0</ele><time>2026-04-26T14:57:49.988Z</time></trkpt><trkpt lat="44.4029426" lon="8.1201073"><ele>677.0</ele><time>2026-04-26T14:57:50.988Z</time></trkpt><trkpt lat="44.4028749" lon="8.1198984"><ele>677.0</ele><time>2026-04-26T14:57:51.988Z</time></trkpt><trkpt lat="44.4028114" lon="8.1196903"><ele>679.0</ele><time>2026-04-26T14:57:52.988Z</time></trkpt><trkpt lat="44.4027477" lon="8.1194966"><ele>681.0</ele><time>2026-04-26T14:57:53.988Z</time></trkpt><trkpt lat="44.4026858" lon="8.1193222"><ele>683.0</ele><time>2026-04-26T14:57:54.988Z</time></trkpt><trkpt lat="44.402625" lon="8.1191584"><ele>685.0</ele><time>2026-04-26T14:57:55.988Z</time></trkpt><trkpt lat="44.4025682" lon="8.1190005"><ele>686.5</ele><time>2026-04-26T14:57:56.988Z</time></trkpt><trkpt lat="44.4025128" lon="8.1188444"><ele>688.0</ele><time>2026-04-26T14:57:57.988Z</time></trkpt><trkpt lat="44.4024493" lon="8.1186952"><ele>689.5</ele><time>2026-04-26T14:57:58.989Z</time></trkpt><trkpt lat="44.4023727" lon="8.1185589"><ele>691.0</ele><time>2026-04-26T14:57:59.988Z</time></trkpt><trkpt lat="44.4022784" lon="8.1184332"><ele>691.0</ele><time>2026-04-26T14:58:00.988Z</time></trkpt><trkpt lat="44.4021865" lon="8.118312"><ele>691.0</ele><time>2026-04-26T14:58:01.988Z</time></trkpt><trkpt lat="44.402099" lon="8.1182009"><ele>691.0</ele><time>2026-04-26T14:58:02.988Z</time></trkpt><trkpt lat="44.4020128" lon="8.1181005"><ele>691.0</ele><time>2026-04-26T14:58:03.988Z</time></trkpt><trkpt lat="44.4019341" lon="8.118009"><ele>693.1999999999999</ele><time>2026-04-26T14:58:04.988Z</time></trkpt><trkpt lat="44.4018664" lon="8.1179221"><ele>695.4</ele><time>2026-04-26T14:58:05.989Z</time></trkpt><trkpt lat="44.4018053" lon="8.1178363"><ele>697.6</ele><time>2026-04-26T14:58:06.988Z</time></trkpt><trkpt lat="44.4017559" lon="8.1177612"><ele>699.8</ele><time>2026-04-26T14:58:07.988Z</time></trkpt><trkpt lat="44.4016902" lon="8.1176207"><ele>702.0</ele><time>2026-04-26T14:58:09.988Z</time></trkpt><trkpt lat="44.4016503" lon="8.1174616"><ele>702.0</ele><time>2026-04-26T14:58:11.988Z</time></trkpt><trkpt lat="44.4015836" lon="8.1173219"><ele>702.0</ele><time>2026-04-26T14:58:13.988Z</time></trkpt><trkpt lat="44.4014766" lon="8.1173048"><ele>702.0</ele><time>2026-04-26T14:58:15.988Z</time></trkpt><trkpt lat="44.4014211" lon="8.1173546"><ele>702.0</ele><time>2026-04-26T14:58:16.988Z</time></trkpt><trkpt lat="44.4013653" lon="8.1174499"><ele>702.0</ele><time>2026-04-26T14:58:17.988Z</time></trkpt><trkpt lat="44.4012995" lon="8.1175615"><ele>703.25</ele><time>2026-04-26T14:58:18.988Z</time></trkpt><trkpt lat="44.4012199" lon="8.1176531"><ele>704.5</ele><time>2026-04-26T14:58:19.988Z</time></trkpt><trkpt lat="44.4011278" lon="8.1177612"><ele>705.75</ele><time>2026-04-26T14:58:20.988Z</time></trkpt><trkpt lat="44.4010287" lon="8.1178741"><ele>707.0</ele><time>2026-04-26T14:58:21.988Z</time></trkpt><trkpt lat="44.4009329" lon="8.1180054"><ele>707.0</ele><time>2026-04-26T14:58:22.988Z</time></trkpt><trkpt lat="44.4008274" lon="8.1181459"><ele>707.0</ele><time>2026-04-26T14:58:23.988Z</time></trkpt><trkpt lat="44.4007222" lon="8.1182997"><ele>707.0</ele><time>2026-04-26T14:58:24.989Z</time></trkpt><trkpt lat="44.4006097" lon="8.1184648"><ele>705.0</ele><time>2026-04-26T14:58:25.988Z</time></trkpt><trkpt lat="44.4005086" lon="8.1186371"><ele>703.0</ele><time>2026-04-26T14:58:26.988Z</time></trkpt><trkpt lat="44.4004181" lon="8.1188173"><ele>701.0</ele><time>2026-04-26T14:58:27.988Z</time></trkpt><trkpt lat="44.4003452" lon="8.1190057"><ele>704.75</ele><time>2026-04-26T14:58:28.988Z</time></trkpt><trkpt lat="44.4002953" lon="8.1192048"><ele>708.5</ele><time>2026-04-26T14:58:29.989Z</time></trkpt><trkpt lat="44.4002548" lon="8.1193913"><ele>712.25</ele><time>2026-04-26T14:58:30.989Z</time></trkpt><trkpt lat="44.4002332" lon="8.119567"><ele>716.0</ele><time>2026-04-26T14:58:31.988Z</time></trkpt><trkpt lat="44.400213" lon="8.1197601"><ele>715.0</ele><time>2026-04-26T14:58:32.988Z</time></trkpt><trkpt lat="44.4001802" lon="8.1199596"><ele>714.0</ele><time>2026-04-26T14:58:33.988Z</time></trkpt><trkpt lat="44.4001429" lon="8.1201588"><ele>713.0</ele><time>2026-04-26T14:58:34.988Z</time></trkpt><trkpt lat="44.4001007" lon="8.1203593"><ele>712.0</ele><time>2026-04-26T14:58:35.989Z</time></trkpt><trkpt lat="44.4000514" lon="8.1205574"><ele>710.0</ele><time>2026-04-26T14:58:36.988Z</time></trkpt><trkpt lat="44.3999967" lon="8.1207511"><ele>708.0</ele><time>2026-04-26T14:58:37.988Z</time></trkpt><trkpt lat="44.3999252" lon="8.1209379"><ele>706.0</ele><time>2026-04-26T14:58:38.988Z</time></trkpt><trkpt lat="44.3998329" lon="8.1211013"><ele>704.0</ele><time>2026-04-26T14:58:39.988Z</time></trkpt><trkpt lat="44.3997298" lon="8.1212466"><ele>705.0</ele><time>2026-04-26T14:58:40.988Z</time></trkpt><trkpt lat="44.3996141" lon="8.1213835"><ele>706.0</ele><time>2026-04-26T14:58:41.988Z</time></trkpt><trkpt lat="44.3994981" lon="8.1215168"><ele>707.0</ele><time>2026-04-26T14:58:42.988Z</time></trkpt><trkpt lat="44.3993875" lon="8.1216491"><ele>708.0</ele><time>2026-04-26T14:58:43.988Z</time></trkpt><trkpt lat="44.3992817" lon="8.1217879"><ele>708.0</ele><time>2026-04-26T14:58:44.988Z</time></trkpt><trkpt lat="44.3991682" lon="8.1219143"><ele>708.0</ele><time>2026-04-26T14:58:45.988Z</time></trkpt><trkpt lat="44.3990473" lon="8.1220344"><ele>708.0</ele><time>2026-04-26T14:58:46.988Z</time></trkpt><trkpt lat="44.398918" lon="8.1221436"><ele>708.0</ele><time>2026-04-26T14:58:47.988Z</time></trkpt><trkpt lat="44.3987846" lon="8.1222578"><ele>705.3333333333334</ele><time>2026-04-26T14:58:48.988Z</time></trkpt><trkpt lat="44.3986504" lon="8.122381"><ele>702.6666666666667</ele><time>2026-04-26T14:58:49.988Z</time></trkpt><trkpt lat="44.398515" lon="8.1225043"><ele>700.0</ele><time>2026-04-26T14:58:50.988Z</time></trkpt><trkpt lat="44.398377" lon="8.1226217"><ele>700.0</ele><time>2026-04-26T14:58:51.988Z</time></trkpt><trkpt lat="44.3982415" lon="8.1227338"><ele>700.0</ele><time>2026-04-26T14:58:52.988Z</time></trkpt><trkpt lat="44.3981266" lon="8.1228616"><ele>700.0</ele><time>2026-04-26T14:58:53.988Z</time></trkpt><trkpt lat="44.3980154" lon="8.1229648"><ele>700.0</ele><time>2026-04-26T14:58:54.988Z</time></trkpt><trkpt lat="44.3979016" lon="8.1230613"><ele>697.75</ele><time>2026-04-26T14:58:55.988Z</time></trkpt><trkpt lat="44.3978042" lon="8.1231857"><ele>695.5</ele><time>2026-04-26T14:58:56.988Z</time></trkpt><trkpt lat="44.3977282" lon="8.1233318"><ele>693.25</ele><time>2026-04-26T14:58:57.988Z</time></trkpt><trkpt lat="44.3976751" lon="8.1235061"><ele>691.0</ele><time>2026-04-26T14:58:58.988Z</time></trkpt><trkpt lat="44.3976519" lon="8.1236968"><ele>691.0</ele><time>2026-04-26T14:58:59.988Z</time></trkpt><trkpt lat="44.3976503" lon="8.1239097"><ele>691.0</ele><time>2026-04-26T14:59:00.988Z</time></trkpt><trkpt lat="44.3976387" lon="8.1241137"><ele>691.0</ele><time>2026-04-26T14:59:01.988Z</time></trkpt><trkpt lat="44.3976168" lon="8.1243077"><ele>691.0</ele><time>2026-04-26T14:59:02.988Z</time></trkpt><trkpt lat="44.3975803" lon="8.1244789"><ele>690.25</ele><time>2026-04-26T14:59:03.988Z</time></trkpt><trkpt lat="44.39751" lon="8.1246416"><ele>689.5</ele><time>2026-04-26T14:59:04.988Z</time></trkpt><trkpt lat="44.3974157" lon="8.1247826"><ele>688.75</ele><time>2026-04-26T14:59:05.988Z</time></trkpt><trkpt lat="44.3972998" lon="8.1249005"><ele>688.0</ele><time>2026-04-26T14:59:06.988Z</time></trkpt><trkpt lat="44.3971756" lon="8.1250146"><ele>686.0</ele><time>2026-04-26T14:59:07.988Z</time></trkpt><trkpt lat="44.3970384" lon="8.1251253"><ele>684.0</ele><time>2026-04-26T14:59:08.988Z</time></trkpt><trkpt lat="44.3968978" lon="8.1252327"><ele>682.0</ele><time>2026-04-26T14:59:09.988Z</time></trkpt><trkpt lat="44.3967598" lon="8.1253505"><ele>682.0</ele><time>2026-04-26T14:59:10.988Z</time></trkpt><trkpt lat="44.3966291" lon="8.1254759"><ele>682.0</ele><time>2026-04-26T14:59:11.988Z</time></trkpt><trkpt lat="44.3965161" lon="8.1256185"><ele>682.0</ele><time>2026-04-26T14:59:12.988Z</time></trkpt><trkpt lat="44.3964221" lon="8.1257757"><ele>681.0</ele><time>2026-04-26T14:59:13.989Z</time></trkpt><trkpt lat="44.396355" lon="8.1259623"><ele>680.0</ele><time>2026-04-26T14:59:14.988Z</time></trkpt><trkpt lat="44.3963155" lon="8.1261741"><ele>679.0</ele><time>2026-04-26T14:59:15.988Z</time></trkpt><trkpt lat="44.3963005" lon="8.1263869"><ele>679.6666666666667</ele><time>2026-04-26T14:59:16.988Z</time></trkpt><trkpt lat="44.3962918" lon="8.1265999"><ele>680.3333333333334</ele><time>2026-04-26T14:59:17.988Z</time></trkpt><trkpt lat="44.3962803" lon="8.126803"><ele>681.0</ele><time>2026-04-26T14:59:18.988Z</time></trkpt><trkpt lat="44.3962584" lon="8.1270137"><ele>681.0</ele><time>2026-04-26T14:59:19.988Z</time></trkpt><trkpt lat="44.3962199" lon="8.1272245"><ele>681.0</ele><time>2026-04-26T14:59:20.988Z</time></trkpt><trkpt lat="44.3961543" lon="8.127432"><ele>681.0</ele><time>2026-04-26T14:59:21.988Z</time></trkpt><trkpt lat="44.3960679" lon="8.1276255"><ele>680.0</ele><time>2026-04-26T14:59:22.988Z</time></trkpt><trkpt lat="44.395962" lon="8.1278006"><ele>679.0</ele><time>2026-04-26T14:59:23.988Z</time></trkpt><trkpt lat="44.3958388" lon="8.1279575"><ele>678.0</ele><time>2026-04-26T14:59:24.988Z</time></trkpt><trkpt lat="44.3956996" lon="8.1281055"><ele>676.3333333333334</ele><time>2026-04-26T14:59:25.988Z</time></trkpt><trkpt lat="44.3955343" lon="8.1282361"><ele>674.6666666666667</ele><time>2026-04-26T14:59:26.988Z</time></trkpt><trkpt lat="44.3953452" lon="8.1283434"><ele>673.0</ele><time>2026-04-26T14:59:27.988Z</time></trkpt><trkpt lat="44.3951557" lon="8.1284414"><ele>672.0</ele><time>2026-04-26T14:59:28.988Z</time></trkpt><trkpt lat="44.3949704" lon="8.1285183"><ele>671.0</ele><time>2026-04-26T14:59:29.988Z</time></trkpt><trkpt lat="44.3947989" lon="8.1285914"><ele>670.0</ele><time>2026-04-26T14:59:30.988Z</time></trkpt><trkpt lat="44.3946362" lon="8.1286486"><ele>670.0</ele><time>2026-04-26T14:59:31.988Z</time></trkpt><trkpt lat="44.3944781" lon="8.1286885"><ele>670.0</ele><time>2026-04-26T14:59:32.988Z</time></trkpt><trkpt lat="44.3943128" lon="8.1286945"><ele>670.0</ele><time>2026-04-26T14:59:33.988Z</time></trkpt><trkpt lat="44.3941567" lon="8.1287108"><ele>670.0</ele><time>2026-04-26T14:59:34.988Z</time></trkpt><trkpt lat="44.394005" lon="8.1287476"><ele>670.0</ele><time>2026-04-26T14:59:35.988Z</time></trkpt><trkpt lat="44.3938555" lon="8.1288069"><ele>670.0</ele><time>2026-04-26T14:59:36.988Z</time></trkpt><trkpt lat="44.3937102" lon="8.1288863"><ele>672.0</ele><time>2026-04-26T14:59:37.988Z</time></trkpt><trkpt lat="44.3935707" lon="8.1289954"><ele>674.0</ele><time>2026-04-26T14:59:38.988Z</time></trkpt><trkpt lat="44.3934403" lon="8.1291304"><ele>676.0</ele><time>2026-04-26T14:59:39.988Z</time></trkpt><trkpt lat="44.3933156" lon="8.1292805"><ele>676.0</ele><time>2026-04-26T14:59:40.988Z</time></trkpt><trkpt lat="44.3932016" lon="8.1294361"><ele>676.0</ele><time>2026-04-26T14:59:41.988Z</time></trkpt><trkpt lat="44.3931007" lon="8.1296089"><ele>676.0</ele><time>2026-04-26T14:59:42.988Z</time></trkpt><trkpt lat="44.3929938" lon="8.1297713"><ele>679.3333333333334</ele><time>2026-04-26T14:59:43.988Z</time></trkpt><trkpt lat="44.3928791" lon="8.1299205"><ele>682.6666666666666</ele><time>2026-04-26T14:59:44.989Z</time></trkpt><trkpt lat="44.3927594" lon="8.1300505"><ele>686.0</ele><time>2026-04-26T14:59:45.988Z</time></trkpt><trkpt lat="44.3926283" lon="8.1301673"><ele>686.0</ele><time>2026-04-26T14:59:46.988Z</time></trkpt><trkpt lat="44.3924808" lon="8.130272"><ele>686.0</ele><time>2026-04-26T14:59:47.989Z</time></trkpt><trkpt lat="44.3923206" lon="8.1303754"><ele>686.0</ele><time>2026-04-26T14:59:48.988Z</time></trkpt><trkpt lat="44.3921437" lon="8.1304526"><ele>688.3333333333333</ele><time>2026-04-26T14:59:49.988Z</time></trkpt><trkpt lat="44.3919564" lon="8.13048"><ele>690.6666666666666</ele><time>2026-04-26T14:59:50.988Z</time></trkpt><trkpt lat="44.3917679" lon="8.130441"><ele>693.0</ele><time>2026-04-26T14:59:51.988Z</time></trkpt><trkpt lat="44.3915927" lon="8.130328"><ele>693.0</ele><time>2026-04-26T14:59:52.988Z</time></trkpt><trkpt lat="44.3914395" lon="8.1302052"><ele>693.0</ele><time>2026-04-26T14:59:53.989Z</time></trkpt><trkpt lat="44.3913055" lon="8.130101"><ele>693.0</ele><time>2026-04-26T14:59:54.988Z</time></trkpt><trkpt lat="44.391184" lon="8.1300427"><ele>694.0</ele><time>2026-04-26T14:59:55.988Z</time></trkpt><trkpt lat="44.3910625" lon="8.1300391"><ele>695.0</ele><time>2026-04-26T14:59:56.988Z</time></trkpt><trkpt lat="44.3909441" lon="8.1300801"><ele>696.0</ele><time>2026-04-26T14:59:57.988Z</time></trkpt><trkpt lat="44.390828" lon="8.1301376"><ele>697.0</ele><time>2026-04-26T14:59:58.988Z</time></trkpt><trkpt lat="44.3907244" lon="8.130241"><ele>697.0</ele><time>2026-04-26T14:59:59.988Z</time></trkpt><trkpt lat="44.3906569" lon="8.1303923"><ele>697.0</ele><time>2026-04-26T15:00:00.988Z</time></trkpt><trkpt lat="44.3905986" lon="8.1305625"><ele>697.0</ele><time>2026-04-26T15:00:01.988Z</time></trkpt><trkpt lat="44.3905425" lon="8.1307259"><ele>697.0</ele><time>2026-04-26T15:00:02.988Z</time></trkpt><trkpt lat="44.3904673" lon="8.130876"><ele>698.0</ele><time>2026-04-26T15:00:03.988Z</time></trkpt><trkpt lat="44.3903655" lon="8.1310073"><ele>699.0</ele><time>2026-04-26T15:00:04.988Z</time></trkpt><trkpt lat="44.3902531" lon="8.1311224"><ele>700.0</ele><time>2026-04-26T15:00:05.989Z</time></trkpt><trkpt lat="44.390138" lon="8.1312356"><ele>701.0</ele><time>2026-04-26T15:00:06.988Z</time></trkpt><trkpt lat="44.3900259" lon="8.1313581"><ele>701.0</ele><time>2026-04-26T15:00:07.988Z</time></trkpt><trkpt lat="44.3899016" lon="8.1314749"><ele>701.0</ele><time>2026-04-26T15:00:08.988Z</time></trkpt><trkpt lat="44.3897685" lon="8.1315859"><ele>701.0</ele><time>2026-04-26T15:00:09.988Z</time></trkpt><trkpt lat="44.3896283" lon="8.1316841"><ele>703.3333333333333</ele><time>2026-04-26T15:00:10.988Z</time></trkpt><trkpt lat="44.3894752" lon="8.1317687"><ele>705.6666666666666</ele><time>2026-04-26T15:00:11.988Z</time></trkpt><trkpt lat="44.3893119" lon="8.1318363"><ele>708.0</ele><time>2026-04-26T15:00:12.988Z</time></trkpt><trkpt lat="44.3891543" lon="8.1318995"><ele>708.0</ele><time>2026-04-26T15:00:13.988Z</time></trkpt><trkpt lat="44.3889947" lon="8.1319709"><ele>708.0</ele><time>2026-04-26T15:00:14.988Z</time></trkpt><trkpt lat="44.3888384" lon="8.1320409"><ele>708.0</ele><time>2026-04-26T15:00:15.988Z</time></trkpt><trkpt lat="44.3886843" lon="8.1321074"><ele>711.0</ele><time>2026-04-26T15:00:16.988Z</time></trkpt><trkpt lat="44.3885259" lon="8.1321668"><ele>714.0</ele><time>2026-04-26T15:00:17.988Z</time></trkpt><trkpt lat="44.3883729" lon="8.1322021"><ele>717.0</ele><time>2026-04-26T15:00:18.988Z</time></trkpt><trkpt lat="44.3882222" lon="8.1322002"><ele>717.0</ele><time>2026-04-26T15:00:19.988Z</time></trkpt><trkpt lat="44.3880753" lon="8.132165"><ele>717.0</ele><time>2026-04-26T15:00:20.988Z</time></trkpt><trkpt lat="44.3879377" lon="8.1321006"><ele>717.0</ele><time>2026-04-26T15:00:21.988Z</time></trkpt><trkpt lat="44.387796" lon="8.1320332"><ele>717.0</ele><time>2026-04-26T15:00:22.988Z</time></trkpt><trkpt lat="44.387647" lon="8.1319713"><ele>717.0</ele><time>2026-04-26T15:00:23.988Z</time></trkpt><trkpt lat="44.3874945" lon="8.1319209"><ele>717.0</ele><time>2026-04-26T15:00:24.988Z</time></trkpt><trkpt lat="44.3873356" lon="8.1318752"><ele>717.0</ele><time>2026-04-26T15:00:25.988Z</time></trkpt><trkpt lat="44.3871744" lon="8.1318395"><ele>717.0</ele><time>2026-04-26T15:00:26.989Z</time></trkpt><trkpt lat="44.3870125" lon="8.1318071"><ele>717.0</ele><time>2026-04-26T15:00:27.988Z</time></trkpt><trkpt lat="44.3868519" lon="8.1317618"><ele>717.0</ele><time>2026-04-26T15:00:28.988Z</time></trkpt><trkpt lat="44.3867186" lon="8.1317036"><ele>717.0</ele><time>2026-04-26T15:00:29.988Z</time></trkpt><trkpt lat="44.3865872" lon="8.1316095"><ele>717.0</ele><time>2026-04-26T15:00:30.988Z</time></trkpt><trkpt lat="44.3864566" lon="8.1315092"><ele>717.0</ele><time>2026-04-26T15:00:31.988Z</time></trkpt><trkpt lat="44.3863354" lon="8.1314011"><ele>717.0</ele><time>2026-04-26T15:00:32.988Z</time></trkpt><trkpt lat="44.3862181" lon="8.1313079"><ele>718.0</ele><time>2026-04-26T15:00:33.988Z</time></trkpt><trkpt lat="44.3861007" lon="8.1312536"><ele>719.0</ele><time>2026-04-26T15:00:34.988Z</time></trkpt><trkpt lat="44.3859713" lon="8.1312198"><ele>720.0</ele><time>2026-04-26T15:00:35.988Z</time></trkpt><trkpt lat="44.3858266" lon="8.1312039"><ele>721.0</ele><time>2026-04-26T15:00:36.988Z</time></trkpt><trkpt lat="44.3856841" lon="8.1312037"><ele>721.0</ele><time>2026-04-26T15:00:37.988Z</time></trkpt><trkpt lat="44.3855329" lon="8.1312068"><ele>721.0</ele><time>2026-04-26T15:00:38.988Z</time></trkpt><trkpt lat="44.385378" lon="8.131226"><ele>721.0</ele><time>2026-04-26T15:00:39.988Z</time></trkpt><trkpt lat="44.3852137" lon="8.1312504"><ele>724.3333333333334</ele><time>2026-04-26T15:00:40.988Z</time></trkpt><trkpt lat="44.38505" lon="8.1312747"><ele>727.6666666666666</ele><time>2026-04-26T15:00:41.988Z</time></trkpt><trkpt lat="44.3848839" lon="8.1313005"><ele>731.0</ele><time>2026-04-26T15:00:42.988Z</time></trkpt><trkpt lat="44.3847221" lon="8.1313275"><ele>732.6666666666666</ele><time>2026-04-26T15:00:43.988Z</time></trkpt><trkpt lat="44.3845682" lon="8.1313587"><ele>734.3333333333334</ele><time>2026-04-26T15:00:44.988Z</time></trkpt><trkpt lat="44.3844048" lon="8.1314012"><ele>736.0</ele><time>2026-04-26T15:00:45.988Z</time></trkpt><trkpt lat="44.3842396" lon="8.1314542"><ele>736.0</ele><time>2026-04-26T15:00:46.988Z</time></trkpt><trkpt lat="44.3840813" lon="8.1315092"><ele>736.0</ele><time>2026-04-26T15:00:47.989Z</time></trkpt><trkpt lat="44.3839247" lon="8.1315717"><ele>736.0</ele><time>2026-04-26T15:00:48.988Z</time></trkpt><trkpt lat="44.3837749" lon="8.1316398"><ele>733.6666666666667</ele><time>2026-04-26T15:00:49.988Z</time></trkpt><trkpt lat="44.3836281" lon="8.1317385"><ele>731.3333333333334</ele><time>2026-04-26T15:00:50.989Z</time></trkpt><trkpt lat="44.3834811" lon="8.1318268"><ele>729.0</ele><time>2026-04-26T15:00:51.988Z</time></trkpt><trkpt lat="44.3833356" lon="8.1318898"><ele>729.0</ele><time>2026-04-26T15:00:52.988Z</time></trkpt><trkpt lat="44.3831939" lon="8.1319482"><ele>729.0</ele><time>2026-04-26T15:00:53.989Z</time></trkpt><trkpt lat="44.3830655" lon="8.1320196"><ele>729.0</ele><time>2026-04-26T15:00:54.988Z</time></trkpt><trkpt lat="44.3829456" lon="8.1321021"><ele>729.0</ele><time>2026-04-26T15:00:55.988Z</time></trkpt><trkpt lat="44.3828348" lon="8.1322043"><ele>729.0</ele><time>2026-04-26T15:00:56.988Z</time></trkpt><trkpt lat="44.3827251" lon="8.132306"><ele>729.0</ele><time>2026-04-26T15:00:57.989Z</time></trkpt><trkpt lat="44.3826156" lon="8.1324183"><ele>729.0</ele><time>2026-04-26T15:00:58.988Z</time></trkpt><trkpt lat="44.3824947" lon="8.1325487"><ele>729.0</ele><time>2026-04-26T15:00:59.988Z</time></trkpt><trkpt lat="44.3823801" lon="8.1326985"><ele>729.0</ele><time>2026-04-26T15:01:00.987Z</time></trkpt><trkpt lat="44.3822853" lon="8.1328632"><ele>729.0</ele><time>2026-04-26T15:01:01.987Z</time></trkpt><trkpt lat="44.3821991" lon="8.1330315"><ele>729.0</ele><time>2026-04-26T15:01:02.987Z</time></trkpt><trkpt lat="44.3821161" lon="8.1331922"><ele>729.0</ele><time>2026-04-26T15:01:03.987Z</time></trkpt><trkpt lat="44.3820224" lon="8.1333456"><ele>727.3333333333334</ele><time>2026-04-26T15:01:04.987Z</time></trkpt><trkpt lat="44.3819088" lon="8.1334911"><ele>725.6666666666667</ele><time>2026-04-26T15:01:05.987Z</time></trkpt><trkpt lat="44.3818055" lon="8.1336446"><ele>724.0</ele><time>2026-04-26T15:01:06.987Z</time></trkpt><trkpt lat="44.3817025" lon="8.1337957"><ele>724.0</ele><time>2026-04-26T15:01:07.987Z</time></trkpt><trkpt lat="44.3816005" lon="8.1339299"><ele>724.0</ele><time>2026-04-26T15:01:08.987Z</time></trkpt><trkpt lat="44.3814868" lon="8.1340522"><ele>724.0</ele><time>2026-04-26T15:01:09.987Z</time></trkpt><trkpt lat="44.3813633" lon="8.1341542"><ele>724.0</ele><time>2026-04-26T15:01:10.988Z</time></trkpt><trkpt lat="44.3812317" lon="8.1342638"><ele>723.75</ele><time>2026-04-26T15:01:11.987Z</time></trkpt><trkpt lat="44.381107" lon="8.1343816"><ele>723.5</ele><time>2026-04-26T15:01:12.987Z</time></trkpt><trkpt lat="44.3809928" lon="8.1344939"><ele>723.25</ele><time>2026-04-26T15:01:13.987Z</time></trkpt><trkpt lat="44.3809091" lon="8.1346235"><ele>723.0</ele><time>2026-04-26T15:01:14.987Z</time></trkpt><trkpt lat="44.3808368" lon="8.1347728"><ele>725.5</ele><time>2026-04-26T15:01:15.988Z</time></trkpt><trkpt lat="44.3807761" lon="8.1349297"><ele>728.0</ele><time>2026-04-26T15:01:16.987Z</time></trkpt><trkpt lat="44.380728" lon="8.1351043"><ele>730.5</ele><time>2026-04-26T15:01:17.987Z</time></trkpt><trkpt lat="44.3806768" lon="8.1352793"><ele>733.0</ele><time>2026-04-26T15:01:18.987Z</time></trkpt><trkpt lat="44.3806365" lon="8.1354524"><ele>733.0</ele><time>2026-04-26T15:01:19.987Z</time></trkpt><trkpt lat="44.3806008" lon="8.135623"><ele>733.0</ele><time>2026-04-26T15:01:20.987Z</time></trkpt><trkpt lat="44.3805799" lon="8.1358186"><ele>733.0</ele><time>2026-04-26T15:01:21.987Z</time></trkpt><trkpt lat="44.3805897" lon="8.1360095"><ele>733.0</ele><time>2026-04-26T15:01:22.987Z</time></trkpt><trkpt lat="44.3805851" lon="8.1361859"><ele>735.0</ele><time>2026-04-26T15:01:23.987Z</time></trkpt><trkpt lat="44.3805763" lon="8.1363689"><ele>737.0</ele><time>2026-04-26T15:01:24.987Z</time></trkpt><trkpt lat="44.3805539" lon="8.1365516"><ele>739.0</ele><time>2026-04-26T15:01:25.987Z</time></trkpt><trkpt lat="44.3805116" lon="8.1367453"><ele>741.0</ele><time>2026-04-26T15:01:26.987Z</time></trkpt><trkpt lat="44.3804473" lon="8.1369376"><ele>738.0</ele><time>2026-04-26T15:01:27.987Z</time></trkpt><trkpt lat="44.3803602" lon="8.137124"><ele>735.0</ele><time>2026-04-26T15:01:28.987Z</time></trkpt><trkpt lat="44.3802894" lon="8.137322"><ele>732.0</ele><time>2026-04-26T15:01:29.987Z</time></trkpt><trkpt lat="44.380231" lon="8.1375428"><ele>732.0</ele><time>2026-04-26T15:01:30.987Z</time></trkpt><trkpt lat="44.3801727" lon="8.1377711"><ele>732.0</ele><time>2026-04-26T15:01:31.987Z</time></trkpt><trkpt lat="44.3801083" lon="8.137991"><ele>732.0</ele><time>2026-04-26T15:01:32.987Z</time></trkpt><trkpt lat="44.3800185" lon="8.1382004"><ele>731.3333333333334</ele><time>2026-04-26T15:01:33.987Z</time></trkpt><trkpt lat="44.3799055" lon="8.1383736"><ele>730.6666666666667</ele><time>2026-04-26T15:01:34.987Z</time></trkpt><trkpt lat="44.3797498" lon="8.1384816"><ele>730.0</ele><time>2026-04-26T15:01:35.987Z</time></trkpt><trkpt lat="44.3795781" lon="8.1385557"><ele>730.0</ele><time>2026-04-26T15:01:36.987Z</time></trkpt><trkpt lat="44.3794149" lon="8.1386247"><ele>730.0</ele><time>2026-04-26T15:01:37.988Z</time></trkpt><trkpt lat="44.379255" lon="8.1386981"><ele>730.0</ele><time>2026-04-26T15:01:38.987Z</time></trkpt><trkpt lat="44.379112" lon="8.1388078"><ele>730.0</ele><time>2026-04-26T15:01:39.987Z</time></trkpt><trkpt lat="44.378991" lon="8.1389399"><ele>730.0</ele><time>2026-04-26T15:01:40.987Z</time></trkpt><trkpt lat="44.3789033" lon="8.1391094"><ele>730.0</ele><time>2026-04-26T15:01:41.987Z</time></trkpt><trkpt lat="44.3788342" lon="8.1392965"><ele>730.0</ele><time>2026-04-26T15:01:42.987Z</time></trkpt><trkpt lat="44.3787711" lon="8.1394758"><ele>730.0</ele><time>2026-04-26T15:01:43.987Z</time></trkpt><trkpt lat="44.37873" lon="8.1396628"><ele>730.0</ele><time>2026-04-26T15:01:44.987Z</time></trkpt><trkpt lat="44.3786878" lon="8.1398548"><ele>730.0</ele><time>2026-04-26T15:01:45.987Z</time></trkpt><trkpt lat="44.3786645" lon="8.1400488"><ele>730.0</ele><time>2026-04-26T15:01:46.987Z</time></trkpt><trkpt lat="44.3786443" lon="8.1402388"><ele>730.0</ele><time>2026-04-26T15:01:47.987Z</time></trkpt><trkpt lat="44.3786233" lon="8.1404253"><ele>730.0</ele><time>2026-04-26T15:01:48.988Z</time></trkpt><trkpt lat="44.3785938" lon="8.1406008"><ele>730.0</ele><time>2026-04-26T15:01:49.988Z</time></trkpt><trkpt lat="44.3785515" lon="8.1407657"><ele>731.8</ele><time>2026-04-26T15:01:50.987Z</time></trkpt><trkpt lat="44.3784916" lon="8.1409134"><ele>733.6</ele><time>2026-04-26T15:01:51.987Z</time></trkpt><trkpt lat="44.3784234" lon="8.1410547"><ele>735.4000000000001</ele><time>2026-04-26T15:01:52.987Z</time></trkpt><trkpt lat="44.3783544" lon="8.1411689"><ele>737.2</ele><time>2026-04-26T15:01:53.987Z</time></trkpt><trkpt lat="44.3782937" lon="8.1412747"><ele>739.0</ele><time>2026-04-26T15:01:54.987Z</time></trkpt><trkpt lat="44.3782403" lon="8.1413677"><ele>739.0</ele><time>2026-04-26T15:01:55.987Z</time></trkpt><trkpt lat="44.3781904" lon="8.1414393"><ele>739.0</ele><time>2026-04-26T15:01:56.987Z</time></trkpt><trkpt lat="44.3781351" lon="8.1414964"><ele>739.0</ele><time>2026-04-26T15:01:57.987Z</time></trkpt><trkpt lat="44.3780703" lon="8.1415506"><ele>739.0</ele><time>2026-04-26T15:01:58.987Z</time></trkpt><trkpt lat="44.3779979" lon="8.1415938"><ele>739.0</ele><time>2026-04-26T15:01:59.987Z</time></trkpt><trkpt lat="44.37791" lon="8.1416365"><ele>739.0</ele><time>2026-04-26T15:02:00.987Z</time></trkpt><trkpt lat="44.3778027" lon="8.1416589"><ele>738.5</ele><time>2026-04-26T15:02:01.987Z</time></trkpt><trkpt lat="44.3776844" lon="8.141656"><ele>738.0</ele><time>2026-04-26T15:02:02.987Z</time></trkpt><trkpt lat="44.3775657" lon="8.1416526"><ele>737.5</ele><time>2026-04-26T15:02:03.987Z</time></trkpt><trkpt lat="44.3774394" lon="8.1416404"><ele>737.0</ele><time>2026-04-26T15:02:04.987Z</time></trkpt><trkpt lat="44.3773123" lon="8.1415982"><ele>736.25</ele><time>2026-04-26T15:02:05.987Z</time></trkpt><trkpt lat="44.3771829" lon="8.1415393"><ele>735.5</ele><time>2026-04-26T15:02:06.987Z</time></trkpt><trkpt lat="44.3770483" lon="8.1414599"><ele>734.75</ele><time>2026-04-26T15:02:07.987Z</time></trkpt><trkpt lat="44.3769073" lon="8.1413728"><ele>734.0</ele><time>2026-04-26T15:02:08.987Z</time></trkpt><trkpt lat="44.3767705" lon="8.1412837"><ele>734.0</ele><time>2026-04-26T15:02:09.987Z</time></trkpt><trkpt lat="44.3766416" lon="8.1411956"><ele>734.0</ele><time>2026-04-26T15:02:10.987Z</time></trkpt><trkpt lat="44.3765112" lon="8.1411142"><ele>734.0</ele><time>2026-04-26T15:02:11.987Z</time></trkpt><trkpt lat="44.3763872" lon="8.1410313"><ele>734.0</ele><time>2026-04-26T15:02:12.987Z</time></trkpt><trkpt lat="44.3762684" lon="8.1409527"><ele>734.0</ele><time>2026-04-26T15:02:13.987Z</time></trkpt><trkpt lat="44.3761513" lon="8.1408651"><ele>734.0</ele><time>2026-04-26T15:02:14.987Z</time></trkpt><trkpt lat="44.3760439" lon="8.1407606"><ele>734.0</ele><time>2026-04-26T15:02:15.987Z</time></trkpt><trkpt lat="44.3759404" lon="8.1406621"><ele>734.0</ele><time>2026-04-26T15:02:16.987Z</time></trkpt><trkpt lat="44.3758462" lon="8.140562"><ele>733.8000000000001</ele><time>2026-04-26T15:02:17.987Z</time></trkpt><trkpt lat="44.3757544" lon="8.1404652"><ele>733.6</ele><time>2026-04-26T15:02:18.988Z</time></trkpt><trkpt lat="44.3756729" lon="8.1403762"><ele>733.4</ele><time>2026-04-26T15:02:19.987Z</time></trkpt><trkpt lat="44.3755995" lon="8.1403007"><ele>733.2</ele><time>2026-04-26T15:02:20.987Z</time></trkpt><trkpt lat="44.3755304" lon="8.1402269"><ele>733.0</ele><time>2026-04-26T15:02:21.987Z</time></trkpt><trkpt lat="44.3754584" lon="8.1401534"><ele>732.6666666666667</ele><time>2026-04-26T15:02:22.987Z</time></trkpt><trkpt lat="44.3753914" lon="8.1400829"><ele>732.3333333333334</ele><time>2026-04-26T15:02:23.988Z</time></trkpt><trkpt lat="44.3753278" lon="8.1400151"><ele>732.0</ele><time>2026-04-26T15:02:24.988Z</time></trkpt><trkpt lat="44.3752673" lon="8.1399511"><ele>731.6666666666666</ele><time>2026-04-26T15:02:25.987Z</time></trkpt><trkpt lat="44.3752182" lon="8.1398939"><ele>731.3333333333333</ele><time>2026-04-26T15:02:26.987Z</time></trkpt><trkpt lat="44.3751455" lon="8.1397771"><ele>731.0</ele><time>2026-04-26T15:02:28.987Z</time></trkpt><trkpt lat="44.3751042" lon="8.1396332"><ele>730.3333333333333</ele><time>2026-04-26T15:02:30.987Z</time></trkpt><trkpt lat="44.3750669" lon="8.1394884"><ele>729.6666666666666</ele><time>2026-04-26T15:02:32.987Z</time></trkpt><trkpt lat="44.3750001" lon="8.1394385"><ele>729.0</ele><time>2026-04-26T15:02:34.988Z</time></trkpt><trkpt lat="44.3749253" lon="8.1395019"><ele>728.3333333333334</ele><time>2026-04-26T15:02:36.987Z</time></trkpt><trkpt lat="44.3748704" lon="8.1395819"><ele>727.6666666666667</ele><time>2026-04-26T15:02:38.988Z</time></trkpt><trkpt lat="44.3748088" lon="8.1396525"><ele>727.0</ele><time>2026-04-26T15:38:00.989Z</time></trkpt><trkpt lat="44.3747984" lon="8.1397661"><ele>728.0</ele><time>2026-04-26T15:38:38.99Z</time></trkpt><trkpt lat="44.3748146" lon="8.1399527"><ele>729.0</ele><time>2026-04-26T15:38:40.99Z</time></trkpt><trkpt lat="44.374843" lon="8.1400923"><ele>730.0</ele><time>2026-04-26T15:38:41.989Z</time></trkpt><trkpt lat="44.3748771" lon="8.1402541"><ele>731.0</ele><time>2026-04-26T15:38:42.989Z</time></trkpt><trkpt lat="44.3749302" lon="8.1404506"><ele>731.0</ele><time>2026-04-26T15:38:43.99Z</time></trkpt><trkpt lat="44.3749949" lon="8.1406731"><ele>731.0</ele><time>2026-04-26T15:38:44.989Z</time></trkpt><trkpt lat="44.3750713" lon="8.1409155"><ele>731.0</ele><time>2026-04-26T15:38:45.989Z</time></trkpt><trkpt lat="44.3751671" lon="8.1411782"><ele>729.0</ele><time>2026-04-26T15:38:46.989Z</time></trkpt><trkpt lat="44.3752681" lon="8.1414504"><ele>727.0</ele><time>2026-04-26T15:38:47.989Z</time></trkpt><trkpt lat="44.3753693" lon="8.1417181"><ele>725.0</ele><time>2026-04-26T15:38:48.989Z</time></trkpt><trkpt lat="44.3754627" lon="8.141974"><ele>725.6666666666666</ele><time>2026-04-26T15:38:49.989Z</time></trkpt><trkpt lat="44.3755511" lon="8.1422218"><ele>726.3333333333334</ele><time>2026-04-26T15:38:50.989Z</time></trkpt><trkpt lat="44.3756246" lon="8.1424626"><ele>727.0</ele><time>2026-04-26T15:38:51.99Z</time></trkpt><trkpt lat="44.3756938" lon="8.1427078"><ele>722.3333333333334</ele><time>2026-04-26T15:38:52.989Z</time></trkpt><trkpt lat="44.3757521" lon="8.1429578"><ele>717.6666666666666</ele><time>2026-04-26T15:38:53.989Z</time></trkpt><trkpt lat="44.3758035" lon="8.1431932"><ele>713.0</ele><time>2026-04-26T15:38:54.989Z</time></trkpt><trkpt lat="44.375844" lon="8.1434284"><ele>709.6666666666666</ele><time>2026-04-26T15:38:55.99Z</time></trkpt><trkpt lat="44.3758672" lon="8.1436701"><ele>706.3333333333334</ele><time>2026-04-26T15:38:56.99Z</time></trkpt><trkpt lat="44.3758842" lon="8.1439159"><ele>703.0</ele><time>2026-04-26T15:38:57.989Z</time></trkpt><trkpt lat="44.3758928" lon="8.1441653"><ele>703.0</ele><time>2026-04-26T15:38:58.989Z</time></trkpt><trkpt lat="44.3758944" lon="8.144424"><ele>703.0</ele><time>2026-04-26T15:38:59.99Z</time></trkpt><trkpt lat="44.3758817" lon="8.1446901"><ele>703.0</ele><time>2026-04-26T15:39:00.99Z</time></trkpt><trkpt lat="44.375857" lon="8.1449741"><ele>701.3333333333334</ele><time>2026-04-26T15:39:01.989Z</time></trkpt><trkpt lat="44.375814" lon="8.1452631"><ele>699.6666666666666</ele><time>2026-04-26T15:39:02.989Z</time></trkpt><trkpt lat="44.3757632" lon="8.1455429"><ele>698.0</ele><time>2026-04-26T15:39:03.989Z</time></trkpt><trkpt lat="44.3757048" lon="8.1458123"><ele>697.6666666666666</ele><time>2026-04-26T15:39:04.989Z</time></trkpt><trkpt lat="44.3756351" lon="8.146076"><ele>697.3333333333334</ele><time>2026-04-26T15:39:05.989Z</time></trkpt><trkpt lat="44.3755487" lon="8.1463427"><ele>697.0</ele><time>2026-04-26T15:39:06.99Z</time></trkpt><trkpt lat="44.3754581" lon="8.1466072"><ele>690.3333333333334</ele><time>2026-04-26T15:39:07.989Z</time></trkpt><trkpt lat="44.375357" lon="8.1468562"><ele>683.6666666666666</ele><time>2026-04-26T15:39:08.989Z</time></trkpt><trkpt lat="44.3752473" lon="8.1470857"><ele>677.0</ele><time>2026-04-26T15:39:09.989Z</time></trkpt><trkpt lat="44.3751278" lon="8.1473025"><ele>677.0</ele><time>2026-04-26T15:39:10.989Z</time></trkpt><trkpt lat="44.3750044" lon="8.1475138"><ele>677.0</ele><time>2026-04-26T15:39:11.989Z</time></trkpt><trkpt lat="44.3748706" lon="8.1477146"><ele>677.0</ele><time>2026-04-26T15:39:12.989Z</time></trkpt><trkpt lat="44.3747341" lon="8.1478991"><ele>676.3333333333333</ele><time>2026-04-26T15:39:13.989Z</time></trkpt><trkpt lat="44.3745917" lon="8.1480798"><ele>675.6666666666666</ele><time>2026-04-26T15:39:14.989Z</time></trkpt><trkpt lat="44.3744425" lon="8.1482548"><ele>675.0</ele><time>2026-04-26T15:39:15.989Z</time></trkpt><trkpt lat="44.3742904" lon="8.1484143"><ele>675.0</ele><time>2026-04-26T15:39:16.989Z</time></trkpt><trkpt lat="44.3741332" lon="8.1485553"><ele>675.0</ele><time>2026-04-26T15:39:17.989Z</time></trkpt><trkpt lat="44.3739785" lon="8.1486901"><ele>675.0</ele><time>2026-04-26T15:39:18.989Z</time></trkpt><trkpt lat="44.3738157" lon="8.1488069"><ele>676.6666666666666</ele><time>2026-04-26T15:39:19.989Z</time></trkpt><trkpt lat="44.373655" lon="8.148916"><ele>678.3333333333333</ele><time>2026-04-26T15:39:20.99Z</time></trkpt><trkpt lat="44.3734959" lon="8.1490252"><ele>680.0</ele><time>2026-04-26T15:39:21.989Z</time></trkpt><trkpt lat="44.3733323" lon="8.1491301"><ele>677.0</ele><time>2026-04-26T15:39:22.989Z</time></trkpt><trkpt lat="44.3731593" lon="8.1492343"><ele>674.0</ele><time>2026-04-26T15:39:23.989Z</time></trkpt><trkpt lat="44.3729773" lon="8.1493422"><ele>671.0</ele><time>2026-04-26T15:39:24.989Z</time></trkpt><trkpt lat="44.3727998" lon="8.1494621"><ele>671.0</ele><time>2026-04-26T15:39:25.989Z</time></trkpt><trkpt lat="44.3726229" lon="8.1495817"><ele>671.0</ele><time>2026-04-26T15:39:26.989Z</time></trkpt><trkpt lat="44.3724487" lon="8.1497041"><ele>671.0</ele><time>2026-04-26T15:39:27.989Z</time></trkpt><trkpt lat="44.3722739" lon="8.1498278"><ele>670.0</ele><time>2026-04-26T15:39:28.989Z</time></trkpt><trkpt lat="44.3721074" lon="8.1499504"><ele>669.0</ele><time>2026-04-26T15:39:29.989Z</time></trkpt><trkpt lat="44.3719422" lon="8.1500752"><ele>668.0</ele><time>2026-04-26T15:39:30.989Z</time></trkpt><trkpt lat="44.3717696" lon="8.1501912"><ele>668.0</ele><time>2026-04-26T15:39:31.989Z</time></trkpt><trkpt lat="44.3715946" lon="8.1503018"><ele>668.0</ele><time>2026-04-26T15:39:32.989Z</time></trkpt><trkpt lat="44.3714205" lon="8.1504126"><ele>668.0</ele><time>2026-04-26T15:39:33.989Z</time></trkpt><trkpt lat="44.3712483" lon="8.1505305"><ele>669.3333333333333</ele><time>2026-04-26T15:39:34.989Z</time></trkpt><trkpt lat="44.371074" lon="8.1506488"><ele>670.6666666666666</ele><time>2026-04-26T15:39:35.989Z</time></trkpt><trkpt lat="44.3709001" lon="8.1507684"><ele>672.0</ele><time>2026-04-26T15:39:36.989Z</time></trkpt><trkpt lat="44.3707263" lon="8.1508856"><ele>667.0</ele><time>2026-04-26T15:39:37.989Z</time></trkpt><trkpt lat="44.3705411" lon="8.1509955"><ele>662.0</ele><time>2026-04-26T15:39:38.989Z</time></trkpt><trkpt lat="44.3703618" lon="8.1511126"><ele>657.0</ele><time>2026-04-26T15:39:39.989Z</time></trkpt><trkpt lat="44.3701821" lon="8.1512308"><ele>652.0</ele><time>2026-04-26T15:39:40.989Z</time></trkpt><trkpt lat="44.370001" lon="8.1513451"><ele>647.0</ele><time>2026-04-26T15:39:41.989Z</time></trkpt><trkpt lat="44.3698215" lon="8.1514529"><ele>642.0</ele><time>2026-04-26T15:39:42.989Z</time></trkpt><trkpt lat="44.3696435" lon="8.1515497"><ele>638.6666666666666</ele><time>2026-04-26T15:39:43.989Z</time></trkpt><trkpt lat="44.3694677" lon="8.1516447"><ele>635.3333333333333</ele><time>2026-04-26T15:39:44.989Z</time></trkpt><trkpt lat="44.3692904" lon="8.1517521"><ele>632.0</ele><time>2026-04-26T15:39:45.989Z</time></trkpt><trkpt lat="44.3691249" lon="8.1518743"><ele>632.0</ele><time>2026-04-26T15:39:46.99Z</time></trkpt><trkpt lat="44.3689693" lon="8.1520189"><ele>632.0</ele><time>2026-04-26T15:39:47.989Z</time></trkpt><trkpt lat="44.3688093" lon="8.1521614"><ele>632.0</ele><time>2026-04-26T15:39:48.989Z</time></trkpt><trkpt lat="44.3686423" lon="8.1522837"><ele>633.6666666666666</ele><time>2026-04-26T15:39:49.989Z</time></trkpt><trkpt lat="44.368472" lon="8.1524042"><ele>635.3333333333334</ele><time>2026-04-26T15:39:50.989Z</time></trkpt><trkpt lat="44.3682994" lon="8.1525232"><ele>637.0</ele><time>2026-04-26T15:39:51.989Z</time></trkpt><trkpt lat="44.3681228" lon="8.1526357"><ele>642.6666666666667</ele><time>2026-04-26T15:39:52.989Z</time></trkpt><trkpt lat="44.3679398" lon="8.1527357"><ele>648.3333333333334</ele><time>2026-04-26T15:39:53.989Z</time></trkpt><trkpt lat="44.3677584" lon="8.1528287"><ele>654.0</ele><time>2026-04-26T15:39:54.989Z</time></trkpt><trkpt lat="44.3675778" lon="8.1529181"><ele>654.0</ele><time>2026-04-26T15:39:55.989Z</time></trkpt><trkpt lat="44.3673913" lon="8.1530082"><ele>654.0</ele><time>2026-04-26T15:39:56.989Z</time></trkpt><trkpt lat="44.3672092" lon="8.1530989"><ele>654.0</ele><time>2026-04-26T15:39:57.989Z</time></trkpt><trkpt lat="44.3670274" lon="8.1531888"><ele>666.3333333333334</ele><time>2026-04-26T15:39:58.989Z</time></trkpt><trkpt lat="44.3668444" lon="8.1532787"><ele>678.6666666666667</ele><time>2026-04-26T15:39:59.989Z</time></trkpt><trkpt lat="44.3666589" lon="8.1533673"><ele>691.0</ele><time>2026-04-26T15:40:00.989Z</time></trkpt><trkpt lat="44.3664712" lon="8.1534545"><ele>688.3333333333334</ele><time>2026-04-26T15:40:01.989Z</time></trkpt><trkpt lat="44.3662796" lon="8.1535389"><ele>685.6666666666666</ele><time>2026-04-26T15:40:02.99Z</time></trkpt><trkpt lat="44.3660956" lon="8.153629"><ele>683.0</ele><time>2026-04-26T15:40:03.989Z</time></trkpt><trkpt lat="44.3659131" lon="8.1537198"><ele>622.0</ele><time>2026-04-26T15:40:04.989Z</time></trkpt><trkpt lat="44.3640317" lon="8.16465"><ele>622.0</ele><time>2026-04-26T15:40:55.998Z</time></trkpt><trkpt lat="44.3640023" lon="8.1648483"><ele>622.0</ele><time>2026-04-26T15:40:56.999Z</time></trkpt><trkpt lat="44.3640138" lon="8.1650659"><ele>622.0</ele><time>2026-04-26T15:40:57.999Z</time></trkpt><trkpt lat="44.3640238" lon="8.1653017"><ele>621.3333333333334</ele><time>2026-04-26T15:40:58.998Z</time></trkpt><trkpt lat="44.3640449" lon="8.1655652"><ele>620.6666666666666</ele><time>2026-04-26T15:40:59.998Z</time></trkpt><trkpt lat="44.3640679" lon="8.1658221"><ele>620.0</ele><time>2026-04-26T15:41:00.999Z</time></trkpt><trkpt lat="44.3640865" lon="8.1660685"><ele>617.6666666666666</ele><time>2026-04-26T15:41:01.998Z</time></trkpt><trkpt lat="44.3641098" lon="8.1663146"><ele>615.3333333333334</ele><time>2026-04-26T15:41:02.998Z</time></trkpt><trkpt lat="44.3641283" lon="8.1665633"><ele>613.0</ele><time>2026-04-26T15:41:03.998Z</time></trkpt><trkpt lat="44.3641471" lon="8.1668187"><ele>611.6666666666667</ele><time>2026-04-26T15:41:04.998Z</time></trkpt><trkpt lat="44.3641683" lon="8.1670731"><ele>610.3333333333334</ele><time>2026-04-26T15:41:05.998Z</time></trkpt><trkpt lat="44.3641911" lon="8.1673311"><ele>609.0</ele><time>2026-04-26T15:41:06.998Z</time></trkpt><trkpt lat="44.3642152" lon="8.1675791"><ele>606.6666666666666</ele><time>2026-04-26T15:41:07.998Z</time></trkpt><trkpt lat="44.3642399" lon="8.1678362"><ele>604.3333333333333</ele><time>2026-04-26T15:41:08.998Z</time></trkpt><trkpt lat="44.3642633" lon="8.1680988"><ele>602.0</ele><time>2026-04-26T15:41:09.998Z</time></trkpt><trkpt lat="44.3642825" lon="8.1683715"><ele>599.6666666666666</ele><time>2026-04-26T15:41:10.998Z</time></trkpt><trkpt lat="44.3642981" lon="8.1686428"><ele>597.3333333333334</ele><time>2026-04-26T15:41:11.998Z</time></trkpt><trkpt lat="44.3643163" lon="8.1689209"><ele>595.0</ele><time>2026-04-26T15:41:12.998Z</time></trkpt><trkpt lat="44.3643211" lon="8.169196"><ele>595.0</ele><time>2026-04-26T15:41:13.998Z</time></trkpt><trkpt lat="44.3643098" lon="8.1694671"><ele>595.0</ele><time>2026-04-26T15:41:14.998Z</time></trkpt><trkpt lat="44.3642921" lon="8.1697302"><ele>595.0</ele><time>2026-04-26T15:41:15.998Z</time></trkpt><trkpt lat="44.364264" lon="8.1699853"><ele>593.0</ele><time>2026-04-26T15:41:16.998Z</time></trkpt><trkpt lat="44.3642212" lon="8.1702272"><ele>591.0</ele><time>2026-04-26T15:41:17.998Z</time></trkpt><trkpt lat="44.3641783" lon="8.1704701"><ele>589.0</ele><time>2026-04-26T15:41:18.998Z</time></trkpt><trkpt lat="44.3641215" lon="8.1707087"><ele>585.0</ele><time>2026-04-26T15:41:19.998Z</time></trkpt><trkpt lat="44.3640459" lon="8.1709407"><ele>581.0</ele><time>2026-04-26T15:41:20.998Z</time></trkpt><trkpt lat="44.3639552" lon="8.171168"><ele>577.0</ele><time>2026-04-26T15:41:21.998Z</time></trkpt><trkpt lat="44.3638609" lon="8.1713808"><ele>574.3333333333334</ele><time>2026-04-26T15:41:22.998Z</time></trkpt><trkpt lat="44.3637603" lon="8.1715896"><ele>571.6666666666666</ele><time>2026-04-26T15:41:23.998Z</time></trkpt><trkpt lat="44.3636532" lon="8.1717853"><ele>569.0</ele><time>2026-04-26T15:41:24.998Z</time></trkpt><trkpt lat="44.3635419" lon="8.1719746"><ele>569.0</ele><time>2026-04-26T15:41:25.998Z</time></trkpt><trkpt lat="44.3634261" lon="8.1721562"><ele>569.0</ele><time>2026-04-26T15:41:26.998Z</time></trkpt><trkpt lat="44.3633019" lon="8.1723255"><ele>569.0</ele><time>2026-04-26T15:41:27.998Z</time></trkpt><trkpt lat="44.3631708" lon="8.172489"><ele>567.6666666666666</ele><time>2026-04-26T15:41:28.998Z</time></trkpt><trkpt lat="44.363033" lon="8.1726362"><ele>566.3333333333334</ele><time>2026-04-26T15:41:29.998Z</time></trkpt><trkpt lat="44.362896" lon="8.1727843"><ele>565.0</ele><time>2026-04-26T15:41:30.999Z</time></trkpt><trkpt lat="44.3627643" lon="8.1729131"><ele>562.0</ele><time>2026-04-26T15:41:31.998Z</time></trkpt><trkpt lat="44.3626382" lon="8.173028"><ele>559.0</ele><time>2026-04-26T15:41:32.998Z</time></trkpt><trkpt lat="44.3625116" lon="8.1731323"><ele>556.0</ele><time>2026-04-26T15:41:33.998Z</time></trkpt><trkpt lat="44.3623918" lon="8.1732294"><ele>553.0</ele><time>2026-04-26T15:41:34.998Z</time></trkpt><trkpt lat="44.3622768" lon="8.1733103"><ele>550.0</ele><time>2026-04-26T15:41:35.998Z</time></trkpt><trkpt lat="44.3621668" lon="8.1733837"><ele>547.0</ele><time>2026-04-26T15:41:36.998Z</time></trkpt><trkpt lat="44.3620657" lon="8.1734465"><ele>544.0</ele><time>2026-04-26T15:41:37.998Z</time></trkpt><trkpt lat="44.3619721" lon="8.1735174"><ele>541.0</ele><time>2026-04-26T15:41:38.998Z</time></trkpt><trkpt lat="44.3618826" lon="8.1735925"><ele>538.0</ele><time>2026-04-26T15:41:39.998Z</time></trkpt><trkpt lat="44.3617903" lon="8.1736622"><ele>538.0</ele><time>2026-04-26T15:41:40.998Z</time></trkpt><trkpt lat="44.3617018" lon="8.1737426"><ele>538.0</ele><time>2026-04-26T15:41:41.998Z</time></trkpt><trkpt lat="44.3616152" lon="8.1738277"><ele>538.0</ele><time>2026-04-26T15:41:42.998Z</time></trkpt><trkpt lat="44.3615323" lon="8.1739241"><ele>538.0</ele><time>2026-04-26T15:41:43.998Z</time></trkpt><trkpt lat="44.3614445" lon="8.174027"><ele>538.0</ele><time>2026-04-26T15:41:44.998Z</time></trkpt><trkpt lat="44.3613544" lon="8.1741372"><ele>534.75</ele><time>2026-04-26T15:41:45.998Z</time></trkpt><trkpt lat="44.3612689" lon="8.174259"><ele>531.5</ele><time>2026-04-26T15:41:46.998Z</time></trkpt><trkpt lat="44.3611839" lon="8.1744"><ele>528.25</ele><time>2026-04-26T15:41:47.998Z</time></trkpt><trkpt lat="44.3611033" lon="8.1745508"><ele>525.0</ele><time>2026-04-26T15:41:48.998Z</time></trkpt><trkpt lat="44.3610175" lon="8.1747171"><ele>528.6666666666666</ele><time>2026-04-26T15:41:49.998Z</time></trkpt><trkpt lat="44.3609305" lon="8.1749039"><ele>532.3333333333333</ele><time>2026-04-26T15:41:50.998Z</time></trkpt><trkpt lat="44.3608376" lon="8.1751092"><ele>536.0</ele><time>2026-04-26T15:41:51.998Z</time></trkpt><trkpt lat="44.3607429" lon="8.1753289"><ele>536.0</ele><time>2026-04-26T15:41:52.998Z</time></trkpt><trkpt lat="44.3606577" lon="8.1755756"><ele>536.0</ele><time>2026-04-26T15:41:53.998Z</time></trkpt><trkpt lat="44.3605976" lon="8.175862"><ele>536.0</ele><time>2026-04-26T15:41:54.998Z</time></trkpt><trkpt lat="44.3605692" lon="8.1761859"><ele>527.3333333333333</ele><time>2026-04-26T15:41:55.998Z</time></trkpt><trkpt lat="44.3605251" lon="8.1764989"><ele>518.6666666666666</ele><time>2026-04-26T15:41:56.998Z</time></trkpt><trkpt lat="44.360462" lon="8.1767797"><ele>510.0</ele><time>2026-04-26T15:41:57.998Z</time></trkpt><trkpt lat="44.3603978" lon="8.1770256"><ele>509.25</ele><time>2026-04-26T15:41:58.998Z</time></trkpt><trkpt lat="44.3603444" lon="8.1772491"><ele>508.5</ele><time>2026-04-26T15:41:59.998Z</time></trkpt><trkpt lat="44.3603209" lon="8.177448"><ele>507.75</ele><time>2026-04-26T15:42:00.998Z</time></trkpt><trkpt lat="44.3603226" lon="8.1776135"><ele>507.0</ele><time>2026-04-26T15:42:01.998Z</time></trkpt><trkpt lat="44.3603656" lon="8.1777748"><ele>506.25</ele><time>2026-04-26T15:42:02.998Z</time></trkpt><trkpt lat="44.3604336" lon="8.1779349"><ele>505.5</ele><time>2026-04-26T15:42:03.998Z</time></trkpt><trkpt lat="44.360486" lon="8.1781181"><ele>504.75</ele><time>2026-04-26T15:42:04.998Z</time></trkpt><trkpt lat="44.3605123" lon="8.1783184"><ele>504.0</ele><time>2026-04-26T15:42:05.998Z</time></trkpt><trkpt lat="44.3605225" lon="8.1785383"><ele>503.33333333333337</ele><time>2026-04-26T15:42:06.998Z</time></trkpt><trkpt lat="44.3605272" lon="8.1787658"><ele>502.6666666666667</ele><time>2026-04-26T15:42:07.998Z</time></trkpt><trkpt lat="44.3605274" lon="8.1789916"><ele>502.0</ele><time>2026-04-26T15:42:08.998Z</time></trkpt><trkpt lat="44.3605232" lon="8.1792091"><ele>500.33333333333337</ele><time>2026-04-26T15:42:09.998Z</time></trkpt><trkpt lat="44.3605114" lon="8.1794165"><ele>498.66666666666663</ele><time>2026-04-26T15:42:10.999Z</time></trkpt><trkpt lat="44.3604819" lon="8.1796375"><ele>497.0</ele><time>2026-04-26T15:42:11.998Z</time></trkpt><trkpt lat="44.3604752" lon="8.179844"><ele>495.5</ele><time>2026-04-26T15:42:12.998Z</time></trkpt><trkpt lat="44.3604839" lon="8.1800369"><ele>494.0</ele><time>2026-04-26T15:42:13.998Z</time></trkpt><trkpt lat="44.3605048" lon="8.1802279"><ele>492.5</ele><time>2026-04-26T15:42:14.998Z</time></trkpt><trkpt lat="44.3605586" lon="8.1804464"><ele>491.0</ele><time>2026-04-26T15:42:15.998Z</time></trkpt><trkpt lat="44.3606299" lon="8.1807134"><ele>502.0</ele><time>2026-04-26T15:42:16.998Z</time></trkpt><trkpt lat="44.360683" lon="8.180992"><ele>513.0</ele><time>2026-04-26T15:42:17.999Z</time></trkpt><trkpt lat="44.3607221" lon="8.1812585"><ele>524.0</ele><time>2026-04-26T15:42:18.998Z</time></trkpt><trkpt lat="44.3607483" lon="8.1815005"><ele>520.6666666666666</ele><time>2026-04-26T15:42:19.998Z</time></trkpt><trkpt lat="44.3607566" lon="8.1817632"><ele>517.3333333333334</ele><time>2026-04-26T15:42:20.998Z</time></trkpt><trkpt lat="44.3607507" lon="8.1820291"><ele>514.0</ele><time>2026-04-26T15:42:21.999Z</time></trkpt><trkpt lat="44.3607391" lon="8.1823048"><ele>513.0</ele><time>2026-04-26T15:42:22.998Z</time></trkpt><trkpt lat="44.3607201" lon="8.1826043"><ele>512.0</ele><time>2026-04-26T15:42:23.998Z</time></trkpt><trkpt lat="44.3606869" lon="8.1828944"><ele>511.0</ele><time>2026-04-26T15:42:24.998Z</time></trkpt><trkpt lat="44.3606393" lon="8.1831836"><ele>510.0</ele><time>2026-04-26T15:42:25.998Z</time></trkpt><trkpt lat="44.36058" lon="8.18346"><ele>509.0</ele><time>2026-04-26T15:42:26.998Z</time></trkpt><trkpt lat="44.3605173" lon="8.1837124"><ele>508.0</ele><time>2026-04-26T15:42:27.999Z</time></trkpt><trkpt lat="44.360442" lon="8.1839377"><ele>499.33333333333337</ele><time>2026-04-26T15:42:28.998Z</time></trkpt><trkpt lat="44.3603707" lon="8.1841475"><ele>490.66666666666663</ele><time>2026-04-26T15:42:29.998Z</time></trkpt><trkpt lat="44.3603136" lon="8.1843432"><ele>482.0</ele><time>2026-04-26T15:42:30.998Z</time></trkpt><trkpt lat="44.3602663" lon="8.184539"><ele>482.0</ele><time>2026-04-26T15:42:31.998Z</time></trkpt><trkpt lat="44.3602453" lon="8.184723"><ele>482.0</ele><time>2026-04-26T15:42:32.998Z</time></trkpt><trkpt lat="44.3602751" lon="8.1849146"><ele>482.0</ele><time>2026-04-26T15:42:33.998Z</time></trkpt><trkpt lat="44.3603524" lon="8.1851422"><ele>482.0</ele><time>2026-04-26T15:42:34.998Z</time></trkpt><trkpt lat="44.3604539" lon="8.1853958"><ele>482.0</ele><time>2026-04-26T15:42:35.998Z</time></trkpt><trkpt lat="44.3605622" lon="8.1856545"><ele>482.0</ele><time>2026-04-26T15:42:36.999Z</time></trkpt><trkpt lat="44.3606792" lon="8.1858784"><ele>483.3333333333333</ele><time>2026-04-26T15:42:37.998Z</time></trkpt><trkpt lat="44.3608022" lon="8.1860663"><ele>484.66666666666663</ele><time>2026-04-26T15:42:38.998Z</time></trkpt><trkpt lat="44.3609094" lon="8.186236"><ele>486.0</ele><time>2026-04-26T15:42:39.998Z</time></trkpt><trkpt lat="44.3609945" lon="8.1864141"><ele>482.33333333333337</ele><time>2026-04-26T15:42:40.998Z</time></trkpt><trkpt lat="44.3610469" lon="8.1866153"><ele>478.6666666666667</ele><time>2026-04-26T15:42:41.998Z</time></trkpt><trkpt lat="44.3610621" lon="8.1868407"><ele>475.0</ele><time>2026-04-26T15:42:42.998Z</time></trkpt><trkpt lat="44.3610434" lon="8.1870989"><ele>474.0</ele><time>2026-04-26T15:42:43.998Z</time></trkpt><trkpt lat="44.3610053" lon="8.1873593"><ele>473.0</ele><time>2026-04-26T15:42:44.998Z</time></trkpt><trkpt lat="44.3609469" lon="8.1875954"><ele>472.0</ele><time>2026-04-26T15:42:45.998Z</time></trkpt><trkpt lat="44.3608631" lon="8.1878096"><ele>472.0</ele><time>2026-04-26T15:42:46.998Z</time></trkpt><trkpt lat="44.3607584" lon="8.1879863"><ele>472.0</ele><time>2026-04-26T15:42:47.998Z</time></trkpt><trkpt lat="44.3606484" lon="8.1881421"><ele>472.0</ele><time>2026-04-26T15:42:48.998Z</time></trkpt><trkpt lat="44.3605564" lon="8.188303"><ele>468.0</ele><time>2026-04-26T15:42:49.998Z</time></trkpt><trkpt lat="44.360498" lon="8.1884821"><ele>464.0</ele><time>2026-04-26T15:42:50.998Z</time></trkpt><trkpt lat="44.3604789" lon="8.1886828"><ele>460.0</ele><time>2026-04-26T15:42:51.998Z</time></trkpt><trkpt lat="44.36049" lon="8.188931"><ele>458.33333333333337</ele><time>2026-04-26T15:42:52.999Z</time></trkpt><trkpt lat="44.3605196" lon="8.189203"><ele>456.66666666666663</ele><time>2026-04-26T15:42:53.998Z</time></trkpt><trkpt lat="44.3605756" lon="8.1894785"><ele>455.0</ele><time>2026-04-26T15:42:54.998Z</time></trkpt><trkpt lat="44.3606324" lon="8.189737"><ele>456.66666666666663</ele><time>2026-04-26T15:42:55.998Z</time></trkpt><trkpt lat="44.3606842" lon="8.1899746"><ele>458.33333333333337</ele><time>2026-04-26T15:42:56.998Z</time></trkpt><trkpt lat="44.3607039" lon="8.1901812"><ele>460.0</ele><time>2026-04-26T15:42:57.998Z</time></trkpt><trkpt lat="44.3606971" lon="8.1903653"><ele>460.0</ele><time>2026-04-26T15:42:58.998Z</time></trkpt><trkpt lat="44.3606985" lon="8.1905276"><ele>460.0</ele><time>2026-04-26T15:42:59.998Z</time></trkpt><trkpt lat="44.3607333" lon="8.1906636"><ele>460.0</ele><time>2026-04-26T15:43:00.998Z</time></trkpt><trkpt lat="44.3607973" lon="8.1907721"><ele>460.0</ele><time>2026-04-26T15:43:01.998Z</time></trkpt><trkpt lat="44.3608843" lon="8.1908476"><ele>460.0</ele><time>2026-04-26T15:43:02.998Z</time></trkpt><trkpt lat="44.3609992" lon="8.1908876"><ele>458.5</ele><time>2026-04-26T15:43:03.998Z</time></trkpt><trkpt lat="44.3611173" lon="8.1908812"><ele>457.0</ele><time>2026-04-26T15:43:04.998Z</time></trkpt><trkpt lat="44.3612266" lon="8.1908117"><ele>455.5</ele><time>2026-04-26T15:43:05.998Z</time></trkpt><trkpt lat="44.361327" lon="8.1907406"><ele>454.0</ele><time>2026-04-26T15:43:06.998Z</time></trkpt><trkpt lat="44.3614307" lon="8.1906994"><ele>454.0</ele><time>2026-04-26T15:43:07.999Z</time></trkpt><trkpt lat="44.3615269" lon="8.1906924"><ele>454.0</ele><time>2026-04-26T15:43:08.998Z</time></trkpt><trkpt lat="44.3616172" lon="8.1907289"><ele>454.0</ele><time>2026-04-26T15:43:09.999Z</time></trkpt><trkpt lat="44.3617053" lon="8.1908031"><ele>454.0</ele><time>2026-04-26T15:43:10.998Z</time></trkpt><trkpt lat="44.3617835" lon="8.1909062"><ele>454.0</ele><time>2026-04-26T15:43:11.998Z</time></trkpt><trkpt lat="44.3618445" lon="8.1910125"><ele>454.0</ele><time>2026-04-26T15:43:12.998Z</time></trkpt><trkpt lat="44.3618762" lon="8.1911467"><ele>454.0</ele><time>2026-04-26T15:43:13.998Z</time></trkpt><trkpt lat="44.3618869" lon="8.1912831"><ele>454.0</ele><time>2026-04-26T15:43:14.998Z</time></trkpt><trkpt lat="44.3618735" lon="8.1914282"><ele>454.0</ele><time>2026-04-26T15:43:15.998Z</time></trkpt><trkpt lat="44.3618266" lon="8.1915964"><ele>454.0</ele><time>2026-04-26T15:43:16.998Z</time></trkpt><trkpt lat="44.3617721" lon="8.1917855"><ele>451.0</ele><time>2026-04-26T15:43:17.998Z</time></trkpt><trkpt lat="44.3617173" lon="8.191974"><ele>448.0</ele><time>2026-04-26T15:43:18.999Z</time></trkpt><trkpt lat="44.3616516" lon="8.1921883"><ele>445.0</ele><time>2026-04-26T15:43:19.998Z</time></trkpt><trkpt lat="44.3616011" lon="8.1923993"><ele>443.75</ele><time>2026-04-26T15:43:20.998Z</time></trkpt><trkpt lat="44.3615868" lon="8.1925769"><ele>442.5</ele><time>2026-04-26T15:43:21.998Z</time></trkpt><trkpt lat="44.3616155" lon="8.1927456"><ele>441.25</ele><time>2026-04-26T15:43:22.998Z</time></trkpt><trkpt lat="44.3616855" lon="8.1929123"><ele>440.0</ele><time>2026-04-26T15:43:23.998Z</time></trkpt><trkpt lat="44.3617854" lon="8.1930524"><ele>440.0</ele><time>2026-04-26T15:43:24.998Z</time></trkpt><trkpt lat="44.3619085" lon="8.1931548"><ele>440.0</ele><time>2026-04-26T15:43:25.998Z</time></trkpt><trkpt lat="44.3620476" lon="8.1932125"><ele>440.0</ele><time>2026-04-26T15:43:26.998Z</time></trkpt><trkpt lat="44.3622082" lon="8.1932276"><ele>440.0</ele><time>2026-04-26T15:43:27.998Z</time></trkpt><trkpt lat="44.3624109" lon="8.1931879"><ele>440.3333333333333</ele><time>2026-04-26T15:43:28.998Z</time></trkpt><trkpt lat="44.3626188" lon="8.1931484"><ele>440.66666666666663</ele><time>2026-04-26T15:43:29.998Z</time></trkpt><trkpt lat="44.3628328" lon="8.1931065"><ele>441.0</ele><time>2026-04-26T15:43:30.998Z</time></trkpt><trkpt lat="44.3630369" lon="8.1930674"><ele>441.0</ele><time>2026-04-26T15:43:31.998Z</time></trkpt><trkpt lat="44.3632496" lon="8.1930816"><ele>441.0</ele><time>2026-04-26T15:43:32.998Z</time></trkpt><trkpt lat="44.3634631" lon="8.1931297"><ele>441.0</ele><time>2026-04-26T15:43:33.998Z</time></trkpt><trkpt lat="44.3636694" lon="8.1932104"><ele>440.33333333333337</ele><time>2026-04-26T15:43:34.998Z</time></trkpt><trkpt lat="44.3638599" lon="8.1932849"><ele>439.6666666666667</ele><time>2026-04-26T15:43:35.998Z</time></trkpt><trkpt lat="44.3640307" lon="8.1933521"><ele>439.0</ele><time>2026-04-26T15:43:36.998Z</time></trkpt><trkpt lat="44.3641738" lon="8.1934286"><ele>439.0</ele><time>2026-04-26T15:43:37.998Z</time></trkpt><trkpt lat="44.3643086" lon="8.193539"><ele>439.0</ele><time>2026-04-26T15:43:38.999Z</time></trkpt><trkpt lat="44.3644296" lon="8.1936924"><ele>439.0</ele><time>2026-04-26T15:43:39.998Z</time></trkpt><trkpt lat="44.3645403" lon="8.1938733"><ele>438.6666666666667</ele><time>2026-04-26T15:43:40.998Z</time></trkpt><trkpt lat="44.3646541" lon="8.1940806"><ele>438.33333333333337</ele><time>2026-04-26T15:43:41.998Z</time></trkpt><trkpt lat="44.3647769" lon="8.1942985"><ele>438.0</ele><time>2026-04-26T15:43:42.998Z</time></trkpt><trkpt lat="44.364913" lon="8.1945355"><ele>438.0</ele><time>2026-04-26T15:43:43.998Z</time></trkpt><trkpt lat="44.3650544" lon="8.1947829"><ele>438.0</ele><time>2026-04-26T15:43:44.999Z</time></trkpt><trkpt lat="44.365202" lon="8.1950463"><ele>440.5</ele><time>2026-04-26T15:43:45.998Z</time></trkpt><trkpt lat="44.3653423" lon="8.1953067"><ele>443.0</ele><time>2026-04-26T15:43:46.998Z</time></trkpt><trkpt lat="44.3654594" lon="8.1955676"><ele>439.0</ele><time>2026-04-26T15:43:47.998Z</time></trkpt><trkpt lat="44.3655543" lon="8.1958286"><ele>435.0</ele><time>2026-04-26T15:43:48.999Z</time></trkpt><trkpt lat="44.3656279" lon="8.1960929"><ele>431.0</ele><time>2026-04-26T15:43:49.998Z</time></trkpt><trkpt lat="44.3656928" lon="8.1963682"><ele>432.66666666666663</ele><time>2026-04-26T15:43:50.998Z</time></trkpt><trkpt lat="44.3657451" lon="8.196637"><ele>434.33333333333337</ele><time>2026-04-26T15:43:51.998Z</time></trkpt><trkpt lat="44.3657804" lon="8.1968966"><ele>436.0</ele><time>2026-04-26T15:43:52.998Z</time></trkpt><trkpt lat="44.3657752" lon="8.1971472"><ele>436.33333333333337</ele><time>2026-04-26T15:43:53.999Z</time></trkpt><trkpt lat="44.3657413" lon="8.1974141"><ele>436.66666666666663</ele><time>2026-04-26T15:43:54.998Z</time></trkpt><trkpt lat="44.3657055" lon="8.197686"><ele>437.0</ele><time>2026-04-26T15:43:55.998Z</time></trkpt><trkpt lat="44.3656782" lon="8.1979551"><ele>436.3333333333333</ele><time>2026-04-26T15:43:56.998Z</time></trkpt><trkpt lat="44.3656371" lon="8.198207"><ele>435.66666666666663</ele><time>2026-04-26T15:43:57.998Z</time></trkpt><trkpt lat="44.3655606" lon="8.1984316"><ele>435.0</ele><time>2026-04-26T15:43:58.998Z</time></trkpt><trkpt lat="44.3654614" lon="8.1986249"><ele>435.0</ele><time>2026-04-26T15:43:59.998Z</time></trkpt><trkpt lat="44.3653331" lon="8.1987843"><ele>435.0</ele><time>2026-04-26T15:44:00.998Z</time></trkpt><trkpt lat="44.3652027" lon="8.1989338"><ele>435.0</ele><time>2026-04-26T15:44:01.998Z</time></trkpt><trkpt lat="44.3650841" lon="8.1990732"><ele>435.0</ele><time>2026-04-26T15:44:02.998Z</time></trkpt><trkpt lat="44.3649887" lon="8.1992163"><ele>435.0</ele><time>2026-04-26T15:44:03.998Z</time></trkpt><trkpt lat="44.3648988" lon="8.1993498"><ele>435.0</ele><time>2026-04-26T15:44:04.998Z</time></trkpt><trkpt lat="44.3648277" lon="8.1994835"><ele>435.0</ele><time>2026-04-26T15:44:05.998Z</time></trkpt><trkpt lat="44.3647712" lon="8.1996191"><ele>435.0</ele><time>2026-04-26T15:44:06.998Z</time></trkpt><trkpt lat="44.3647172" lon="8.1997636"><ele>435.0</ele><time>2026-04-26T15:44:07.998Z</time></trkpt><trkpt lat="44.3646665" lon="8.1999206"><ele>435.0</ele><time>2026-04-26T15:44:08.998Z</time></trkpt><trkpt lat="44.3646177" lon="8.20009"><ele>435.0</ele><time>2026-04-26T15:44:09.998Z</time></trkpt><trkpt lat="44.3645642" lon="8.2002658"><ele>435.0</ele><time>2026-04-26T15:44:10.998Z</time></trkpt><trkpt lat="44.364513" lon="8.200458"><ele>435.0</ele><time>2026-04-26T15:44:11.998Z</time></trkpt><trkpt lat="44.3644515" lon="8.2006489"><ele>435.0</ele><time>2026-04-26T15:44:12.998Z</time></trkpt><trkpt lat="44.3643881" lon="8.2008351"><ele>435.0</ele><time>2026-04-26T15:44:13.998Z</time></trkpt><trkpt lat="44.3643215" lon="8.2010351"><ele>435.0</ele><time>2026-04-26T15:44:14.999Z</time></trkpt><trkpt lat="44.3642482" lon="8.2012285"><ele>435.0</ele><time>2026-04-26T15:44:15.999Z</time></trkpt><trkpt lat="44.3641839" lon="8.2014187"><ele>435.0</ele><time>2026-04-26T15:44:16.998Z</time></trkpt><trkpt lat="44.3641215" lon="8.2015965"><ele>435.0</ele><time>2026-04-26T15:44:17.998Z</time></trkpt><trkpt lat="44.3640502" lon="8.2017701"><ele>433.66666666666663</ele><time>2026-04-26T15:44:18.998Z</time></trkpt><trkpt lat="44.363972" lon="8.2019429"><ele>432.3333333333333</ele><time>2026-04-26T15:44:19.998Z</time></trkpt><trkpt lat="44.3638911" lon="8.2021272"><ele>431.0</ele><time>2026-04-26T15:44:20.998Z</time></trkpt><trkpt lat="44.3638099" lon="8.2023188"><ele>435.66666666666663</ele><time>2026-04-26T15:44:21.998Z</time></trkpt><trkpt lat="44.3637318" lon="8.2025087"><ele>440.33333333333337</ele><time>2026-04-26T15:44:22.998Z</time></trkpt><trkpt lat="44.363656" lon="8.2027003"><ele>445.0</ele><time>2026-04-26T15:44:23.998Z</time></trkpt><trkpt lat="44.3635823" lon="8.2028947"><ele>445.0</ele><time>2026-04-26T15:44:24.998Z</time></trkpt><trkpt lat="44.3634733" lon="8.2031306"><ele>445.0</ele><time>2026-04-26T15:44:25.998Z</time></trkpt><trkpt lat="44.3633656" lon="8.203294"><ele>445.0</ele><time>2026-04-26T15:44:26.999Z</time></trkpt><trkpt lat="44.3632422" lon="8.203433"><ele>448.0</ele><time>2026-04-26T15:44:27.998Z</time></trkpt><trkpt lat="44.3631058" lon="8.2035648"><ele>451.0</ele><time>2026-04-26T15:44:28.998Z</time></trkpt><trkpt lat="44.3629786" lon="8.2036923"><ele>454.0</ele><time>2026-04-26T15:44:29.998Z</time></trkpt><trkpt lat="44.3628538" lon="8.2038294"><ele>454.0</ele><time>2026-04-26T15:44:30.999Z</time></trkpt><trkpt lat="44.362731" lon="8.2039692"><ele>454.0</ele><time>2026-04-26T15:44:31.998Z</time></trkpt><trkpt lat="44.3626062" lon="8.2041057"><ele>454.0</ele><time>2026-04-26T15:44:32.998Z</time></trkpt><trkpt lat="44.3624832" lon="8.2042459"><ele>456.33333333333337</ele><time>2026-04-26T15:44:33.998Z</time></trkpt><trkpt lat="44.3623635" lon="8.2043871"><ele>458.66666666666663</ele><time>2026-04-26T15:44:34.998Z</time></trkpt><trkpt lat="44.3622436" lon="8.2045275"><ele>461.0</ele><time>2026-04-26T15:44:35.998Z</time></trkpt><trkpt lat="44.3621225" lon="8.2046676"><ele>461.0</ele><time>2026-04-26T15:44:36.998Z</time></trkpt><trkpt lat="44.3619964" lon="8.2048053"><ele>461.0</ele><time>2026-04-26T15:44:37.998Z</time></trkpt><trkpt lat="44.361875" lon="8.204946"><ele>461.0</ele><time>2026-04-26T15:44:38.998Z</time></trkpt><trkpt lat="44.3595317" lon="8.2078367"><ele>452.5</ele><time>2026-04-26T15:44:52.994Z</time></trkpt><trkpt lat="44.3594885" lon="8.2081526"><ele>444.0</ele><time>2026-04-26T15:44:53.994Z</time></trkpt><trkpt lat="44.3593909" lon="8.2084322"><ele>444.0</ele><time>2026-04-26T15:44:54.994Z</time></trkpt><trkpt lat="44.3593488" lon="8.2087211"><ele>444.0</ele><time>2026-04-26T15:44:55.994Z</time></trkpt><trkpt lat="44.3593443" lon="8.2090017"><ele>444.0</ele><time>2026-04-26T15:44:56.995Z</time></trkpt><trkpt lat="44.3593737" lon="8.2092779"><ele>448.33333333333337</ele><time>2026-04-26T15:44:57.994Z</time></trkpt><trkpt lat="44.3594446" lon="8.2095417"><ele>452.6666666666667</ele><time>2026-04-26T15:44:58.994Z</time></trkpt><trkpt lat="44.3595354" lon="8.2097736"><ele>457.0</ele><time>2026-04-26T15:44:59.994Z</time></trkpt><trkpt lat="44.3596599" lon="8.2099781"><ele>453.33333333333337</ele><time>2026-04-26T15:45:00.994Z</time></trkpt><trkpt lat="44.3597858" lon="8.2101679"><ele>449.66666666666663</ele><time>2026-04-26T15:45:01.994Z</time></trkpt><trkpt lat="44.3598946" lon="8.2103587"><ele>446.0</ele><time>2026-04-26T15:45:02.994Z</time></trkpt><trkpt lat="44.3599992" lon="8.2105465"><ele>451.3333333333333</ele><time>2026-04-26T15:45:03.994Z</time></trkpt><trkpt lat="44.3601037" lon="8.2107339"><ele>456.66666666666663</ele><time>2026-04-26T15:45:04.994Z</time></trkpt><trkpt lat="44.3602044" lon="8.2109163"><ele>462.0</ele><time>2026-04-26T15:45:05.994Z</time></trkpt><trkpt lat="44.3603076" lon="8.2110973"><ele>462.0</ele><time>2026-04-26T15:45:06.994Z</time></trkpt><trkpt lat="44.3604102" lon="8.2112756"><ele>462.0</ele><time>2026-04-26T15:45:07.994Z</time></trkpt><trkpt lat="44.3604812" lon="8.2114293"><ele>462.0</ele><time>2026-04-26T15:45:08.994Z</time></trkpt><trkpt lat="44.3605898" lon="8.2115493"><ele>462.0</ele><time>2026-04-26T15:45:09.994Z</time></trkpt><trkpt lat="44.3606897" lon="8.2116738"><ele>458.0</ele><time>2026-04-26T15:45:10.995Z</time></trkpt><trkpt lat="44.3607443" lon="8.2117782"><ele>454.0</ele><time>2026-04-26T15:45:11.995Z</time></trkpt><trkpt lat="44.3607824" lon="8.2119391"><ele>450.0</ele><time>2026-04-26T15:45:12.994Z</time></trkpt><trkpt lat="44.3607841" lon="8.2121483"><ele>446.0</ele><time>2026-04-26T15:45:13.994Z</time></trkpt><trkpt lat="44.3607796" lon="8.2123527"><ele>446.0</ele><time>2026-04-26T15:45:14.994Z</time></trkpt><trkpt lat="44.3607595" lon="8.2125987"><ele>446.0</ele><time>2026-04-26T15:45:15.994Z</time></trkpt><trkpt lat="44.3607213" lon="8.2128555"><ele>446.0</ele><time>2026-04-26T15:45:16.994Z</time></trkpt><trkpt lat="44.3606635" lon="8.2131206"><ele>447.0</ele><time>2026-04-26T15:45:17.994Z</time></trkpt><trkpt lat="44.3605973" lon="8.2133677"><ele>448.0</ele><time>2026-04-26T15:45:18.995Z</time></trkpt><trkpt lat="44.3604974" lon="8.2136145"><ele>449.0</ele><time>2026-04-26T15:45:19.994Z</time></trkpt><trkpt lat="44.3603743" lon="8.2138624"><ele>450.0</ele><time>2026-04-26T15:45:20.994Z</time></trkpt><trkpt lat="44.3602317" lon="8.2141093"><ele>451.0</ele><time>2026-04-26T15:45:21.994Z</time></trkpt><trkpt lat="44.360058" lon="8.2143526"><ele>451.0</ele><time>2026-04-26T15:45:22.994Z</time></trkpt><trkpt lat="44.3598467" lon="8.2145819"><ele>451.0</ele><time>2026-04-26T15:45:23.994Z</time></trkpt><trkpt lat="44.3596292" lon="8.2147852"><ele>455.0</ele><time>2026-04-26T15:45:24.994Z</time></trkpt><trkpt lat="44.3594183" lon="8.2149572"><ele>459.0</ele><time>2026-04-26T15:45:25.994Z</time></trkpt><trkpt lat="44.3592296" lon="8.215075"><ele>459.0</ele><time>2026-04-26T15:45:26.994Z</time></trkpt><trkpt lat="44.3590719" lon="8.2151951"><ele>459.0</ele><time>2026-04-26T15:45:27.994Z</time></trkpt><trkpt lat="44.3589448" lon="8.2153284"><ele>459.0</ele><time>2026-04-26T15:45:28.994Z</time></trkpt><trkpt lat="44.358853" lon="8.2155012"><ele>463.66666666666663</ele><time>2026-04-26T15:45:29.994Z</time></trkpt><trkpt lat="44.3588141" lon="8.2156984"><ele>468.3333333333333</ele><time>2026-04-26T15:45:30.994Z</time></trkpt><trkpt lat="44.3588044" lon="8.2159075"><ele>473.0</ele><time>2026-04-26T15:45:31.994Z</time></trkpt><trkpt lat="44.3588406" lon="8.216133"><ele>471.0</ele><time>2026-04-26T15:45:32.994Z</time></trkpt><trkpt lat="44.3589369" lon="8.2163871"><ele>469.0</ele><time>2026-04-26T15:45:33.994Z</time></trkpt><trkpt lat="44.3590605" lon="8.2166755"><ele>467.0</ele><time>2026-04-26T15:45:34.994Z</time></trkpt><trkpt lat="44.3591355" lon="8.2169453"><ele>467.0</ele><time>2026-04-26T15:45:35.994Z</time></trkpt><trkpt lat="44.3591608" lon="8.2172047"><ele>467.0</ele><time>2026-04-26T15:45:36.994Z</time></trkpt><trkpt lat="44.3591375" lon="8.2174508"><ele>467.0</ele><time>2026-04-26T15:45:37.994Z</time></trkpt><trkpt lat="44.3590562" lon="8.2177006"><ele>466.66666666666663</ele><time>2026-04-26T15:45:38.994Z</time></trkpt><trkpt lat="44.3589439" lon="8.2179573"><ele>466.33333333333337</ele><time>2026-04-26T15:45:39.994Z</time></trkpt><trkpt lat="44.3588473" lon="8.218237"><ele>466.0</ele><time>2026-04-26T15:45:40.994Z</time></trkpt><trkpt lat="44.358793" lon="8.2185771"><ele>468.0</ele><time>2026-04-26T15:45:41.994Z</time></trkpt><trkpt lat="44.3587556" lon="8.2189472"><ele>470.0</ele><time>2026-04-26T15:45:42.994Z</time></trkpt><trkpt lat="44.3587317" lon="8.2192958"><ele>472.0</ele><time>2026-04-26T15:45:43.994Z</time></trkpt><trkpt lat="44.3587301" lon="8.2195843"><ele>474.0</ele><time>2026-04-26T15:45:44.994Z</time></trkpt><trkpt lat="44.3587371" lon="8.2198222"><ele>476.0</ele><time>2026-04-26T15:45:45.995Z</time></trkpt><trkpt lat="44.3587352" lon="8.2200397"><ele>477.3333333333333</ele><time>2026-04-26T15:45:46.994Z</time></trkpt><trkpt lat="44.3587096" lon="8.2202357"><ele>478.66666666666663</ele><time>2026-04-26T15:45:47.995Z</time></trkpt><trkpt lat="44.3586364" lon="8.2204246"><ele>480.0</ele><time>2026-04-26T15:45:48.994Z</time></trkpt><trkpt lat="44.3585192" lon="8.2205632"><ele>482.66666666666663</ele><time>2026-04-26T15:45:49.994Z</time></trkpt><trkpt lat="44.3583683" lon="8.2206502"><ele>485.3333333333333</ele><time>2026-04-26T15:45:50.994Z</time></trkpt><trkpt lat="44.3581701" lon="8.2206799"><ele>488.0</ele><time>2026-04-26T15:45:51.994Z</time></trkpt><trkpt lat="44.3579587" lon="8.2206931"><ele>488.3333333333333</ele><time>2026-04-26T15:45:52.994Z</time></trkpt><trkpt lat="44.3577516" lon="8.2206996"><ele>488.66666666666663</ele><time>2026-04-26T15:45:53.994Z</time></trkpt><trkpt lat="44.3575691" lon="8.2207259"><ele>489.0</ele><time>2026-04-26T15:45:54.995Z</time></trkpt><trkpt lat="44.3574115" lon="8.2207758"><ele>489.0</ele><time>2026-04-26T15:45:55.994Z</time></trkpt><trkpt lat="44.3572865" lon="8.2208773"><ele>489.0</ele><time>2026-04-26T15:45:56.994Z</time></trkpt><trkpt lat="44.3571919" lon="8.221054"><ele>489.0</ele><time>2026-04-26T15:45:57.994Z</time></trkpt><trkpt lat="44.3571452" lon="8.2213275"><ele>499.0</ele><time>2026-04-26T15:45:58.994Z</time></trkpt><trkpt lat="44.3571482" lon="8.221677"><ele>509.0</ele><time>2026-04-26T15:45:59.994Z</time></trkpt><trkpt lat="44.3571789" lon="8.2220569"><ele>509.0</ele><time>2026-04-26T15:46:00.994Z</time></trkpt><trkpt lat="44.3572123" lon="8.2224174"><ele>509.0</ele><time>2026-04-26T15:46:01.994Z</time></trkpt><trkpt lat="44.3572493" lon="8.2227566"><ele>509.0</ele><time>2026-04-26T15:46:02.994Z</time></trkpt><trkpt lat="44.357335" lon="8.2231164"><ele>509.0</ele><time>2026-04-26T15:46:03.995Z</time></trkpt><trkpt lat="44.3574342" lon="8.2234818"><ele>511.0</ele><time>2026-04-26T15:46:04.994Z</time></trkpt><trkpt lat="44.3575322" lon="8.2238873"><ele>513.0</ele><time>2026-04-26T15:46:05.994Z</time></trkpt><trkpt lat="44.3576402" lon="8.2243071"><ele>514.5</ele><time>2026-04-26T15:46:06.994Z</time></trkpt><trkpt lat="44.3577284" lon="8.2247242"><ele>516.0</ele><time>2026-04-26T15:46:07.994Z</time></trkpt><trkpt lat="44.3578023" lon="8.225107"><ele>519.0</ele><time>2026-04-26T15:46:08.995Z</time></trkpt><trkpt lat="44.3578602" lon="8.2254559"><ele>522.0</ele><time>2026-04-26T15:46:09.994Z</time></trkpt><trkpt lat="44.3579093" lon="8.2257667"><ele>523.3333333333334</ele><time>2026-04-26T15:46:10.994Z</time></trkpt><trkpt lat="44.3579443" lon="8.2260553"><ele>524.6666666666667</ele><time>2026-04-26T15:46:11.994Z</time></trkpt><trkpt lat="44.3579693" lon="8.2263135"><ele>526.0</ele><time>2026-04-26T15:46:12.994Z</time></trkpt><trkpt lat="44.3580002" lon="8.2265586"><ele>527.5</ele><time>2026-04-26T15:46:13.995Z</time></trkpt><trkpt lat="44.3580461" lon="8.2267782"><ele>529.0</ele><time>2026-04-26T15:46:14.994Z</time></trkpt><trkpt lat="44.3581037" lon="8.2269625"><ele>530.5</ele><time>2026-04-26T15:46:15.994Z</time></trkpt><trkpt lat="44.3581668" lon="8.2271102"><ele>532.0</ele><time>2026-04-26T15:46:16.994Z</time></trkpt><trkpt lat="44.3582383" lon="8.2272252"><ele>531.0</ele><time>2026-04-26T15:46:17.994Z</time></trkpt><trkpt lat="44.3583137" lon="8.2273363"><ele>530.0</ele><time>2026-04-26T15:46:18.994Z</time></trkpt><trkpt lat="44.3583929" lon="8.2274426"><ele>529.0</ele><time>2026-04-26T15:46:19.994Z</time></trkpt><trkpt lat="44.3584787" lon="8.2275689"><ele>528.0</ele><time>2026-04-26T15:46:20.994Z</time></trkpt><trkpt lat="44.3585808" lon="8.2277146"><ele>528.0</ele><time>2026-04-26T15:46:21.994Z</time></trkpt><trkpt lat="44.3586997" lon="8.2278943"><ele>528.0</ele><time>2026-04-26T15:46:22.994Z</time></trkpt><trkpt lat="44.3588321" lon="8.2281112"><ele>528.0</ele><time>2026-04-26T15:46:23.994Z</time></trkpt><trkpt lat="44.3589854" lon="8.2283772"><ele>525.0</ele><time>2026-04-26T15:46:24.994Z</time></trkpt><trkpt lat="44.3591523" lon="8.2286869"><ele>522.0</ele><time>2026-04-26T15:46:25.994Z</time></trkpt><trkpt lat="44.3593264" lon="8.2290372"><ele>518.0</ele><time>2026-04-26T15:46:26.994Z</time></trkpt><trkpt lat="44.3594965" lon="8.2294081"><ele>514.0</ele><time>2026-04-26T15:46:27.994Z</time></trkpt><trkpt lat="44.3596643" lon="8.229802"><ele>513.5</ele><time>2026-04-26T15:46:28.995Z</time></trkpt><trkpt lat="44.359827" lon="8.2301903"><ele>513.0</ele><time>2026-04-26T15:46:29.994Z</time></trkpt><trkpt lat="44.359983" lon="8.2305488"><ele>509.5</ele><time>2026-04-26T15:46:30.994Z</time></trkpt><trkpt lat="44.3601366" lon="8.2308758"><ele>506.0</ele><time>2026-04-26T15:46:31.994Z</time></trkpt><trkpt lat="44.3602758" lon="8.2311797"><ele>502.0</ele><time>2026-04-26T15:46:32.994Z</time></trkpt><trkpt lat="44.3604016" lon="8.2314768"><ele>498.0</ele><time>2026-04-26T15:46:33.994Z</time></trkpt><trkpt lat="44.3605226" lon="8.23176"><ele>506.0</ele><time>2026-04-26T15:46:34.994Z</time></trkpt><trkpt lat="44.3606465" lon="8.2320377"><ele>514.0</ele><time>2026-04-26T15:46:35.994Z</time></trkpt><trkpt lat="44.3607727" lon="8.2323062"><ele>508.0</ele><time>2026-04-26T15:46:36.994Z</time></trkpt><trkpt lat="44.3609051" lon="8.2325494"><ele>502.0</ele><time>2026-04-26T15:46:37.994Z</time></trkpt><trkpt lat="44.3610523" lon="8.232778"><ele>496.0</ele><time>2026-04-26T15:46:38.994Z</time></trkpt><trkpt lat="44.3611978" lon="8.2330091"><ele>490.5</ele><time>2026-04-26T15:46:39.994Z</time></trkpt><trkpt lat="44.3613563" lon="8.2332369"><ele>485.0</ele><time>2026-04-26T15:46:40.994Z</time></trkpt><trkpt lat="44.3615098" lon="8.2334687"><ele>485.0</ele><time>2026-04-26T15:46:41.994Z</time></trkpt><trkpt lat="44.3616476" lon="8.233719"><ele>485.0</ele><time>2026-04-26T15:46:42.994Z</time></trkpt><trkpt lat="44.36177" lon="8.2339951"><ele>482.0</ele><time>2026-04-26T15:46:43.994Z</time></trkpt><trkpt lat="44.3618787" lon="8.2343065"><ele>479.0</ele><time>2026-04-26T15:46:44.994Z</time></trkpt><trkpt lat="44.3619701" lon="8.2346405"><ele>475.5</ele><time>2026-04-26T15:46:45.994Z</time></trkpt><trkpt lat="44.3620499" lon="8.2349872"><ele>472.0</ele><time>2026-04-26T15:46:46.994Z</time></trkpt><trkpt lat="44.3621261" lon="8.2353388"><ele>474.5</ele><time>2026-04-26T15:46:47.994Z</time></trkpt><trkpt lat="44.3622052" lon="8.2356919"><ele>477.0</ele><time>2026-04-26T15:46:48.994Z</time></trkpt><trkpt lat="44.3622853" lon="8.2360366"><ele>477.0</ele><time>2026-04-26T15:46:49.994Z</time></trkpt><trkpt lat="44.362359" lon="8.236367"><ele>477.0</ele><time>2026-04-26T15:46:50.994Z</time></trkpt><trkpt lat="44.3624286" lon="8.2366834"><ele>474.66666666666663</ele><time>2026-04-26T15:46:51.994Z</time></trkpt><trkpt lat="44.3624964" lon="8.2369867"><ele>472.3333333333333</ele><time>2026-04-26T15:46:52.994Z</time></trkpt><trkpt lat="44.3625585" lon="8.2372828"><ele>470.0</ele><time>2026-04-26T15:46:53.994Z</time></trkpt><trkpt lat="44.3626115" lon="8.2375618"><ele>468.3333333333333</ele><time>2026-04-26T15:46:54.994Z</time></trkpt><trkpt lat="44.3626546" lon="8.2378173"><ele>466.66666666666663</ele><time>2026-04-26T15:46:55.994Z</time></trkpt><trkpt lat="44.3626748" lon="8.2380572"><ele>465.0</ele><time>2026-04-26T15:46:56.994Z</time></trkpt><trkpt lat="44.3626693" lon="8.238289"><ele>464.66666666666663</ele><time>2026-04-26T15:46:57.994Z</time></trkpt><trkpt lat="44.3626446" lon="8.2385045"><ele>464.3333333333333</ele><time>2026-04-26T15:46:58.994Z</time></trkpt><trkpt lat="44.3626061" lon="8.2387176"><ele>464.0</ele><time>2026-04-26T15:46:59.994Z</time></trkpt><trkpt lat="44.3625669" lon="8.2389235"><ele>463.75</ele><time>2026-04-26T15:47:00.994Z</time></trkpt><trkpt lat="44.3625318" lon="8.239111"><ele>463.5</ele><time>2026-04-26T15:47:01.994Z</time></trkpt><trkpt lat="44.3624985" lon="8.2392791"><ele>463.25</ele><time>2026-04-26T15:47:02.994Z</time></trkpt><trkpt lat="44.3624569" lon="8.2394328"><ele>463.0</ele><time>2026-04-26T15:47:03.994Z</time></trkpt><trkpt lat="44.362416" lon="8.2395962"><ele>463.0</ele><time>2026-04-26T15:47:04.994Z</time></trkpt><trkpt lat="44.3623749" lon="8.2397852"><ele>463.0</ele><time>2026-04-26T15:47:05.994Z</time></trkpt><trkpt lat="44.3623478" lon="8.2399902"><ele>463.0</ele><time>2026-04-26T15:47:06.994Z</time></trkpt><trkpt lat="44.3623141" lon="8.240237"><ele>463.6666666666667</ele><time>2026-04-26T15:47:07.995Z</time></trkpt><trkpt lat="44.3622842" lon="8.2404984"><ele>464.33333333333337</ele><time>2026-04-26T15:47:08.994Z</time></trkpt><trkpt lat="44.3622467" lon="8.2407214"><ele>465.0</ele><time>2026-04-26T15:47:09.994Z</time></trkpt><trkpt lat="44.3622243" lon="8.2409202"><ele>465.66666666666663</ele><time>2026-04-26T15:47:10.994Z</time></trkpt><trkpt lat="44.362236" lon="8.2411034"><ele>466.3333333333333</ele><time>2026-04-26T15:47:11.994Z</time></trkpt><trkpt lat="44.3623001" lon="8.2412904"><ele>467.0</ele><time>2026-04-26T15:47:12.995Z</time></trkpt><trkpt lat="44.3624021" lon="8.2414875"><ele>464.5</ele><time>2026-04-26T15:47:13.994Z</time></trkpt><trkpt lat="44.3625544" lon="8.2417047"><ele>462.0</ele><time>2026-04-26T15:47:14.994Z</time></trkpt><trkpt lat="44.3627775" lon="8.2419661"><ele>462.0</ele><time>2026-04-26T15:47:15.994Z</time></trkpt><trkpt lat="44.3629889" lon="8.2422288"><ele>462.0</ele><time>2026-04-26T15:47:16.994Z</time></trkpt><trkpt lat="44.3631627" lon="8.2424949"><ele>461.0</ele><time>2026-04-26T15:47:17.994Z</time></trkpt><trkpt lat="44.3633268" lon="8.2427417"><ele>460.0</ele><time>2026-04-26T15:47:18.995Z</time></trkpt><trkpt lat="44.3634757" lon="8.2429966"><ele>456.0</ele><time>2026-04-26T15:47:19.994Z</time></trkpt><trkpt lat="44.3636224" lon="8.2432712"><ele>452.0</ele><time>2026-04-26T15:47:20.994Z</time></trkpt><trkpt lat="44.363766" lon="8.2435881"><ele>453.5</ele><time>2026-04-26T15:47:21.994Z</time></trkpt><trkpt lat="44.3638865" lon="8.2439044"><ele>455.0</ele><time>2026-04-26T15:47:22.994Z</time></trkpt><trkpt lat="44.3639809" lon="8.2442462"><ele>455.0</ele><time>2026-04-26T15:47:23.994Z</time></trkpt><trkpt lat="44.3640571" lon="8.2446111"><ele>455.0</ele><time>2026-04-26T15:47:24.994Z</time></trkpt><trkpt lat="44.3641043" lon="8.245006"><ele>453.0</ele><time>2026-04-26T15:47:25.994Z</time></trkpt><trkpt lat="44.3641559" lon="8.2454073"><ele>451.0</ele><time>2026-04-26T15:47:26.994Z</time></trkpt><trkpt lat="44.3642051" lon="8.2458033"><ele>448.5</ele><time>2026-04-26T15:47:27.994Z</time></trkpt><trkpt lat="44.3642526" lon="8.2461854"><ele>446.0</ele><time>2026-04-26T15:47:28.994Z</time></trkpt><trkpt lat="44.3643019" lon="8.2465705"><ele>444.5</ele><time>2026-04-26T15:47:29.994Z</time></trkpt><trkpt lat="44.3643552" lon="8.2469534"><ele>443.0</ele><time>2026-04-26T15:47:30.994Z</time></trkpt><trkpt lat="44.3644094" lon="8.2473105"><ele>442.0</ele><time>2026-04-26T15:47:31.994Z</time></trkpt><trkpt lat="44.364467" lon="8.2476634"><ele>441.0</ele><time>2026-04-26T15:47:32.994Z</time></trkpt><trkpt lat="44.364513" lon="8.248001"><ele>438.5</ele><time>2026-04-26T15:47:33.994Z</time></trkpt><trkpt lat="44.3645519" lon="8.2483254"><ele>436.0</ele><time>2026-04-26T15:47:34.994Z</time></trkpt><trkpt lat="44.3645861" lon="8.2486362"><ele>436.0</ele><time>2026-04-26T15:47:35.994Z</time></trkpt><trkpt lat="44.3646274" lon="8.2489318"><ele>436.0</ele><time>2026-04-26T15:47:36.994Z</time></trkpt><trkpt lat="44.3646655" lon="8.2492167"><ele>436.0</ele><time>2026-04-26T15:47:37.994Z</time></trkpt><trkpt lat="44.364704" lon="8.2495004"><ele>437.6666666666667</ele><time>2026-04-26T15:47:38.994Z</time></trkpt><trkpt lat="44.3647439" lon="8.2497848"><ele>439.33333333333337</ele><time>2026-04-26T15:47:39.994Z</time></trkpt><trkpt lat="44.3647856" lon="8.2500724"><ele>441.0</ele><time>2026-04-26T15:47:40.994Z</time></trkpt><trkpt lat="44.3648305" lon="8.2503563"><ele>439.66666666666663</ele><time>2026-04-26T15:47:41.994Z</time></trkpt><trkpt lat="44.3648678" lon="8.2506344"><ele>438.3333333333333</ele><time>2026-04-26T15:47:42.994Z</time></trkpt><trkpt lat="44.3649099" lon="8.2508957"><ele>437.0</ele><time>2026-04-26T15:47:43.994Z</time></trkpt><trkpt lat="44.3649484" lon="8.2511456"><ele>437.0</ele><time>2026-04-26T15:47:44.994Z</time></trkpt><trkpt lat="44.3649874" lon="8.2513979"><ele>437.0</ele><time>2026-04-26T15:47:45.994Z</time></trkpt><trkpt lat="44.3650239" lon="8.2516501"><ele>437.0</ele><time>2026-04-26T15:47:46.994Z</time></trkpt><trkpt lat="44.3650577" lon="8.2519102"><ele>435.66666666666663</ele><time>2026-04-26T15:47:47.994Z</time></trkpt><trkpt lat="44.3650877" lon="8.2521836"><ele>434.33333333333337</ele><time>2026-04-26T15:47:48.994Z</time></trkpt><trkpt lat="44.3651273" lon="8.2524484"><ele>433.0</ele><time>2026-04-26T15:47:49.994Z</time></trkpt><trkpt lat="44.3651701" lon="8.2526992"><ele>431.6666666666667</ele><time>2026-04-26T15:47:50.994Z</time></trkpt><trkpt lat="44.365212" lon="8.2529549"><ele>430.33333333333337</ele><time>2026-04-26T15:47:51.994Z</time></trkpt><trkpt lat="44.3652764" lon="8.2532077"><ele>429.0</ele><time>2026-04-26T15:47:52.994Z</time></trkpt><trkpt lat="44.3653543" lon="8.2534621"><ele>428.33333333333337</ele><time>2026-04-26T15:47:53.994Z</time></trkpt><trkpt lat="44.365441" lon="8.2537022"><ele>427.6666666666667</ele><time>2026-04-26T15:47:54.994Z</time></trkpt><trkpt lat="44.3655345" lon="8.2539281"><ele>427.0</ele><time>2026-04-26T15:47:55.994Z</time></trkpt><trkpt lat="44.3656369" lon="8.2541383"><ele>429.33333333333337</ele><time>2026-04-26T15:47:56.994Z</time></trkpt><trkpt lat="44.3657479" lon="8.2543358"><ele>431.66666666666663</ele><time>2026-04-26T15:47:57.994Z</time></trkpt><trkpt lat="44.3658631" lon="8.2545257"><ele>434.0</ele><time>2026-04-26T15:47:58.994Z</time></trkpt><trkpt lat="44.3659778" lon="8.2547226"><ele>431.3333333333333</ele><time>2026-04-26T15:47:59.994Z</time></trkpt><trkpt lat="44.3660784" lon="8.2549166"><ele>428.66666666666663</ele><time>2026-04-26T15:48:00.994Z</time></trkpt><trkpt lat="44.3661724" lon="8.2551134"><ele>426.0</ele><time>2026-04-26T15:48:01.994Z</time></trkpt><trkpt lat="44.3662418" lon="8.2553383"><ele>426.0</ele><time>2026-04-26T15:48:02.994Z</time></trkpt><trkpt lat="44.3662942" lon="8.2555689"><ele>426.0</ele><time>2026-04-26T15:48:03.994Z</time></trkpt><trkpt lat="44.3663208" lon="8.2558024"><ele>426.0</ele><time>2026-04-26T15:48:04.995Z</time></trkpt><trkpt lat="44.3663349" lon="8.2560193"><ele>426.5</ele><time>2026-04-26T15:48:05.994Z</time></trkpt><trkpt lat="44.3663589" lon="8.2562319"><ele>427.0</ele><time>2026-04-26T15:48:06.994Z</time></trkpt><trkpt lat="44.3663822" lon="8.2564352"><ele>427.5</ele><time>2026-04-26T15:48:07.994Z</time></trkpt><trkpt lat="44.3664005" lon="8.2566311"><ele>428.0</ele><time>2026-04-26T15:48:08.994Z</time></trkpt><trkpt lat="44.3664183" lon="8.2568"><ele>428.0</ele><time>2026-04-26T15:48:09.994Z</time></trkpt><trkpt lat="44.3664486" lon="8.256941"><ele>428.0</ele><time>2026-04-26T15:48:10.994Z</time></trkpt><trkpt lat="44.3665036" lon="8.2570655"><ele>428.0</ele><time>2026-04-26T15:48:11.995Z</time></trkpt><trkpt lat="44.3665842" lon="8.257189"><ele>428.0</ele><time>2026-04-26T15:48:12.994Z</time></trkpt><trkpt lat="44.3666805" lon="8.2573006"><ele>425.75</ele><time>2026-04-26T15:48:13.994Z</time></trkpt><trkpt lat="44.3667896" lon="8.2574"><ele>423.5</ele><time>2026-04-26T15:48:14.994Z</time></trkpt><trkpt lat="44.3668996" lon="8.2575086"><ele>421.25</ele><time>2026-04-26T15:48:15.994Z</time></trkpt><trkpt lat="44.3669912" lon="8.2576423"><ele>419.0</ele><time>2026-04-26T15:48:16.994Z</time></trkpt><trkpt lat="44.3670591" lon="8.2578047"><ele>419.0</ele><time>2026-04-26T15:48:17.994Z</time></trkpt><trkpt lat="44.3671268" lon="8.2579869"><ele>419.0</ele><time>2026-04-26T15:48:18.994Z</time></trkpt><trkpt lat="44.3671744" lon="8.2581786"><ele>419.0</ele><time>2026-04-26T15:48:19.994Z</time></trkpt><trkpt lat="44.3672063" lon="8.2583743"><ele>419.0</ele><time>2026-04-26T15:48:20.994Z</time></trkpt><trkpt lat="44.3672264" lon="8.2585601"><ele>421.25</ele><time>2026-04-26T15:48:21.994Z</time></trkpt><trkpt lat="44.367225" lon="8.2587391"><ele>423.5</ele><time>2026-04-26T15:48:22.994Z</time></trkpt><trkpt lat="44.3672019" lon="8.2589318"><ele>425.75</ele><time>2026-04-26T15:48:23.994Z</time></trkpt><trkpt lat="44.3671634" lon="8.2591377"><ele>428.0</ele><time>2026-04-26T15:48:24.994Z</time></trkpt><trkpt lat="44.3671253" lon="8.2593551"><ele>421.66666666666663</ele><time>2026-04-26T15:48:25.994Z</time></trkpt><trkpt lat="44.3670841" lon="8.2595718"><ele>415.33333333333337</ele><time>2026-04-26T15:48:26.994Z</time></trkpt><trkpt lat="44.367049" lon="8.2597933"><ele>409.0</ele><time>2026-04-26T15:48:27.994Z</time></trkpt><trkpt lat="44.3670002" lon="8.2600284"><ele>408.33333333333337</ele><time>2026-04-26T15:48:28.994Z</time></trkpt><trkpt lat="44.3669651" lon="8.26025"><ele>407.66666666666663</ele><time>2026-04-26T15:48:29.994Z</time></trkpt><trkpt lat="44.3669276" lon="8.2604754"><ele>407.0</ele><time>2026-04-26T15:48:30.994Z</time></trkpt><trkpt lat="44.366885" lon="8.2607095"><ele>406.3333333333333</ele><time>2026-04-26T15:48:31.994Z</time></trkpt><trkpt lat="44.366849" lon="8.2609397"><ele>405.66666666666663</ele><time>2026-04-26T15:48:32.994Z</time></trkpt><trkpt lat="44.3668083" lon="8.2611662"><ele>405.0</ele><time>2026-04-26T15:48:33.995Z</time></trkpt><trkpt lat="44.3667664" lon="8.2613767"><ele>405.75</ele><time>2026-04-26T15:48:34.994Z</time></trkpt><trkpt lat="44.3667293" lon="8.2615885"><ele>406.5</ele><time>2026-04-26T15:48:35.994Z</time></trkpt><trkpt lat="44.3666932" lon="8.2617893"><ele>407.25</ele><time>2026-04-26T15:48:36.994Z</time></trkpt><trkpt lat="44.3666615" lon="8.2619802"><ele>408.0</ele><time>2026-04-26T15:48:37.994Z</time></trkpt><trkpt lat="44.3666365" lon="8.262159"><ele>406.25</ele><time>2026-04-26T15:48:38.994Z</time></trkpt><trkpt lat="44.3666086" lon="8.2623292"><ele>404.5</ele><time>2026-04-26T15:48:39.994Z</time></trkpt><trkpt lat="44.3665794" lon="8.2624878"><ele>402.75</ele><time>2026-04-26T15:48:40.994Z</time></trkpt><trkpt lat="44.3665549" lon="8.2626415"><ele>401.0</ele><time>2026-04-26T15:48:41.994Z</time></trkpt><trkpt lat="44.3665266" lon="8.2627963"><ele>401.0</ele><time>2026-04-26T15:48:42.994Z</time></trkpt><trkpt lat="44.3664915" lon="8.2629537"><ele>401.0</ele><time>2026-04-26T15:48:43.994Z</time></trkpt><trkpt lat="44.3664511" lon="8.2631148"><ele>401.0</ele><time>2026-04-26T15:48:44.994Z</time></trkpt><trkpt lat="44.3664151" lon="8.2632752"><ele>401.0</ele><time>2026-04-26T15:48:45.994Z</time></trkpt><trkpt lat="44.3663802" lon="8.2634331"><ele>401.25</ele><time>2026-04-26T15:48:46.995Z</time></trkpt><trkpt lat="44.3663456" lon="8.2635939"><ele>401.5</ele><time>2026-04-26T15:48:47.994Z</time></trkpt><trkpt lat="44.3663125" lon="8.2637575"><ele>401.75</ele><time>2026-04-26T15:48:48.994Z</time></trkpt><trkpt lat="44.3662751" lon="8.2639197"><ele>402.0</ele><time>2026-04-26T15:48:49.994Z</time></trkpt><trkpt lat="44.3662421" lon="8.2640784"><ele>401.0</ele><time>2026-04-26T15:48:50.994Z</time></trkpt><trkpt lat="44.3662089" lon="8.2642298"><ele>400.0</ele><time>2026-04-26T15:48:51.994Z</time></trkpt><trkpt lat="44.3661758" lon="8.2643754"><ele>399.0</ele><time>2026-04-26T15:48:52.994Z</time></trkpt><trkpt lat="44.3661405" lon="8.2645294"><ele>398.0</ele><time>2026-04-26T15:48:53.994Z</time></trkpt><trkpt lat="44.3661047" lon="8.2646809"><ele>397.0</ele><time>2026-04-26T15:48:54.994Z</time></trkpt><trkpt lat="44.3660718" lon="8.2648373"><ele>396.0</ele><time>2026-04-26T15:48:55.994Z</time></trkpt><trkpt lat="44.3660392" lon="8.2649955"><ele>395.0</ele><time>2026-04-26T15:48:56.994Z</time></trkpt><trkpt lat="44.3660051" lon="8.2651536"><ele>394.0</ele><time>2026-04-26T15:48:57.994Z</time></trkpt><trkpt lat="44.3659699" lon="8.2653143"><ele>394.0</ele><time>2026-04-26T15:48:58.994Z</time></trkpt><trkpt lat="44.3659349" lon="8.2654676"><ele>394.0</ele><time>2026-04-26T15:48:59.994Z</time></trkpt><trkpt lat="44.3658995" lon="8.2656191"><ele>394.0</ele><time>2026-04-26T15:49:00.994Z</time></trkpt><trkpt lat="44.3658652" lon="8.2657671"><ele>394.0</ele><time>2026-04-26T15:49:01.994Z</time></trkpt><trkpt lat="44.365829" lon="8.2659159"><ele>394.0</ele><time>2026-04-26T15:49:02.994Z</time></trkpt><trkpt lat="44.3657934" lon="8.2660659"><ele>394.0</ele><time>2026-04-26T15:49:03.994Z</time></trkpt><trkpt lat="44.3657598" lon="8.2662152"><ele>394.0</ele><time>2026-04-26T15:49:04.994Z</time></trkpt><trkpt lat="44.3657283" lon="8.2663653"><ele>394.0</ele><time>2026-04-26T15:49:05.995Z</time></trkpt><trkpt lat="44.3656953" lon="8.2665134"><ele>394.0</ele><time>2026-04-26T15:49:06.994Z</time></trkpt><trkpt lat="44.3656623" lon="8.2666601"><ele>394.25</ele><time>2026-04-26T15:49:07.994Z</time></trkpt><trkpt lat="44.3656282" lon="8.2668146"><ele>394.5</ele><time>2026-04-26T15:49:08.994Z</time></trkpt><trkpt lat="44.3655939" lon="8.2669677"><ele>394.75</ele><time>2026-04-26T15:49:09.994Z</time></trkpt><trkpt lat="44.3655632" lon="8.2671191"><ele>395.0</ele><time>2026-04-26T15:49:10.995Z</time></trkpt><trkpt lat="44.3655323" lon="8.2672687"><ele>393.6</ele><time>2026-04-26T15:49:11.994Z</time></trkpt><trkpt lat="44.3655025" lon="8.2674173"><ele>392.2</ele><time>2026-04-26T15:49:12.994Z</time></trkpt><trkpt lat="44.365474" lon="8.2675669"><ele>390.79999999999995</ele><time>2026-04-26T15:49:13.994Z</time></trkpt><trkpt lat="44.3654429" lon="8.2677182"><ele>389.4</ele><time>2026-04-26T15:49:14.995Z</time></trkpt><trkpt lat="44.3654085" lon="8.2678659"><ele>388.0</ele><time>2026-04-26T15:49:15.994Z</time></trkpt><trkpt lat="44.365375" lon="8.2680109"><ele>387.4</ele><time>2026-04-26T15:49:16.994Z</time></trkpt><trkpt lat="44.365341" lon="8.2681466"><ele>386.79999999999995</ele><time>2026-04-26T15:49:17.994Z</time></trkpt><trkpt lat="44.365314" lon="8.2682861"><ele>386.2</ele><time>2026-04-26T15:49:18.994Z</time></trkpt><trkpt lat="44.3652825" lon="8.2684287"><ele>385.6</ele><time>2026-04-26T15:49:19.994Z</time></trkpt><trkpt lat="44.3652493" lon="8.2685821"><ele>385.0</ele><time>2026-04-26T15:49:20.994Z</time></trkpt><trkpt lat="44.3652156" lon="8.2687314"><ele>385.0</ele><time>2026-04-26T15:49:21.994Z</time></trkpt><trkpt lat="44.365177" lon="8.2688866"><ele>385.0</ele><time>2026-04-26T15:49:22.994Z</time></trkpt><trkpt lat="44.3651431" lon="8.2690346"><ele>385.0</ele><time>2026-04-26T15:49:23.994Z</time></trkpt><trkpt lat="44.365111" lon="8.2691751"><ele>385.0</ele><time>2026-04-26T15:49:24.994Z</time></trkpt><trkpt lat="44.3650816" lon="8.2693321"><ele>385.25</ele><time>2026-04-26T15:49:25.994Z</time></trkpt><trkpt lat="44.3650522" lon="8.2694944"><ele>385.5</ele><time>2026-04-26T15:49:26.994Z</time></trkpt><trkpt lat="44.3650215" lon="8.2696545"><ele>385.75</ele><time>2026-04-26T15:49:27.994Z</time></trkpt><trkpt lat="44.3649836" lon="8.2698189"><ele>386.0</ele><time>2026-04-26T15:49:28.995Z</time></trkpt><trkpt lat="44.3649462" lon="8.2699804"><ele>386.0</ele><time>2026-04-26T15:49:29.994Z</time></trkpt><trkpt lat="44.3649091" lon="8.2701426"><ele>386.0</ele><time>2026-04-26T15:49:30.994Z</time></trkpt><trkpt lat="44.3648724" lon="8.2703024"><ele>386.0</ele><time>2026-04-26T15:49:31.994Z</time></trkpt><trkpt lat="44.3648385" lon="8.2704611"><ele>386.0</ele><time>2026-04-26T15:49:32.994Z</time></trkpt><trkpt lat="44.3648039" lon="8.2706219"><ele>386.0</ele><time>2026-04-26T15:49:33.994Z</time></trkpt><trkpt lat="44.3647688" lon="8.2707809"><ele>386.0</ele><time>2026-04-26T15:49:34.994Z</time></trkpt><trkpt lat="44.3647328" lon="8.2709406"><ele>386.0</ele><time>2026-04-26T15:49:35.994Z</time></trkpt><trkpt lat="44.3646986" lon="8.2710992"><ele>386.0</ele><time>2026-04-26T15:49:36.994Z</time></trkpt><trkpt lat="44.3646585" lon="8.2712561"><ele>385.25</ele><time>2026-04-26T15:49:37.994Z</time></trkpt><trkpt lat="44.364617" lon="8.2714139"><ele>384.5</ele><time>2026-04-26T15:49:38.994Z</time></trkpt><trkpt lat="44.3645793" lon="8.2715722"><ele>383.75</ele><time>2026-04-26T15:49:39.994Z</time></trkpt><trkpt lat="44.3645453" lon="8.2717357"><ele>383.0</ele><time>2026-04-26T15:49:40.994Z</time></trkpt><trkpt lat="44.3645071" lon="8.2718994"><ele>383.0</ele><time>2026-04-26T15:49:41.994Z</time></trkpt><trkpt lat="44.3644719" lon="8.2720627"><ele>383.0</ele><time>2026-04-26T15:49:42.994Z</time></trkpt><trkpt lat="44.3644443" lon="8.2722237"><ele>383.0</ele><time>2026-04-26T15:49:43.994Z</time></trkpt><trkpt lat="44.3644105" lon="8.2723881"><ele>383.0</ele><time>2026-04-26T15:49:44.994Z</time></trkpt><trkpt lat="44.3643773" lon="8.2725473"><ele>383.0</ele><time>2026-04-26T15:49:45.994Z</time></trkpt><trkpt lat="44.3643452" lon="8.2727108"><ele>383.0</ele><time>2026-04-26T15:49:46.994Z</time></trkpt><trkpt lat="44.3643117" lon="8.2728814"><ele>383.0</ele><time>2026-04-26T15:49:47.995Z</time></trkpt><trkpt lat="44.3642731" lon="8.2730467"><ele>383.0</ele><time>2026-04-26T15:49:48.994Z</time></trkpt><trkpt lat="44.3642324" lon="8.273205"><ele>382.59999999999997</ele><time>2026-04-26T15:49:49.994Z</time></trkpt><trkpt lat="44.3641935" lon="8.2733579"><ele>382.2</ele><time>2026-04-26T15:49:50.995Z</time></trkpt><trkpt lat="44.3641588" lon="8.2735106"><ele>381.8</ele><time>2026-04-26T15:49:51.994Z</time></trkpt><trkpt lat="44.3641268" lon="8.2736607"><ele>381.4</ele><time>2026-04-26T15:49:52.994Z</time></trkpt><trkpt lat="44.3640928" lon="8.2737994"><ele>381.0</ele><time>2026-04-26T15:49:53.995Z</time></trkpt><trkpt lat="44.3640619" lon="8.2739337"><ele>381.20000000000005</ele><time>2026-04-26T15:49:54.994Z</time></trkpt><trkpt lat="44.3640284" lon="8.2740687"><ele>381.40000000000003</ele><time>2026-04-26T15:49:55.994Z</time></trkpt><trkpt lat="44.3640002" lon="8.2742092"><ele>381.6</ele><time>2026-04-26T15:49:56.994Z</time></trkpt><trkpt lat="44.3639756" lon="8.2743353"><ele>381.8</ele><time>2026-04-26T15:49:57.994Z</time></trkpt><trkpt lat="44.3639508" lon="8.2744585"><ele>382.0</ele><time>2026-04-26T15:49:58.994Z</time></trkpt><trkpt lat="44.3639232" lon="8.2745759"><ele>382.0</ele><time>2026-04-26T15:49:59.994Z</time></trkpt><trkpt lat="44.3638965" lon="8.2746938"><ele>382.0</ele><time>2026-04-26T15:50:00.995Z</time></trkpt><trkpt lat="44.3638701" lon="8.274815"><ele>382.0</ele><time>2026-04-26T15:50:01.994Z</time></trkpt><trkpt lat="44.3638426" lon="8.2749336"><ele>382.0</ele><time>2026-04-26T15:50:02.994Z</time></trkpt><trkpt lat="44.3638143" lon="8.2750503"><ele>382.0</ele><time>2026-04-26T15:50:03.994Z</time></trkpt><trkpt lat="44.3637844" lon="8.275168"><ele>382.0</ele><time>2026-04-26T15:50:04.995Z</time></trkpt><trkpt lat="44.3637555" lon="8.275289"><ele>380.8</ele><time>2026-04-26T15:50:05.994Z</time></trkpt><trkpt lat="44.3637297" lon="8.2754062"><ele>379.6</ele><time>2026-04-26T15:50:06.994Z</time></trkpt><trkpt lat="44.3637063" lon="8.2755261"><ele>378.40000000000003</ele><time>2026-04-26T15:50:07.994Z</time></trkpt><trkpt lat="44.3636914" lon="8.2756556"><ele>377.20000000000005</ele><time>2026-04-26T15:50:08.994Z</time></trkpt><trkpt lat="44.3636891" lon="8.2757964"><ele>376.0</ele><time>2026-04-26T15:50:09.995Z</time></trkpt><trkpt lat="44.3636918" lon="8.2759438"><ele>374.75</ele><time>2026-04-26T15:50:10.994Z</time></trkpt><trkpt lat="44.3637019" lon="8.2760891"><ele>373.5</ele><time>2026-04-26T15:50:11.994Z</time></trkpt><trkpt lat="44.3637132" lon="8.2762357"><ele>372.25</ele><time>2026-04-26T15:50:12.994Z</time></trkpt><trkpt lat="44.363724" lon="8.2763907"><ele>371.0</ele><time>2026-04-26T15:50:13.994Z</time></trkpt><trkpt lat="44.3637411" lon="8.2765734"><ele>370.33333333333337</ele><time>2026-04-26T15:50:14.994Z</time></trkpt><trkpt lat="44.3637603" lon="8.2767873"><ele>369.6666666666667</ele><time>2026-04-26T15:50:15.994Z</time></trkpt><trkpt lat="44.3637777" lon="8.277054"><ele>369.0</ele><time>2026-04-26T15:50:16.994Z</time></trkpt><trkpt lat="44.3637933" lon="8.2773655"><ele>369.0</ele><time>2026-04-26T15:50:17.994Z</time></trkpt><trkpt lat="44.3638118" lon="8.2777433"><ele>369.0</ele><time>2026-04-26T15:50:18.994Z</time></trkpt><trkpt lat="44.3638381" lon="8.2781715"><ele>368.5</ele><time>2026-04-26T15:50:19.994Z</time></trkpt><trkpt lat="44.3638585" lon="8.27864"><ele>368.0</ele><time>2026-04-26T15:50:20.994Z</time></trkpt><trkpt lat="44.3638684" lon="8.279117"><ele>367.5</ele><time>2026-04-26T15:50:21.994Z</time></trkpt><trkpt lat="44.3638624" lon="8.2795752"><ele>367.0</ele><time>2026-04-26T15:50:22.994Z</time></trkpt><trkpt lat="44.3638291" lon="8.2800425"><ele>366.0</ele><time>2026-04-26T15:50:23.994Z</time></trkpt><trkpt lat="44.3637602" lon="8.2805393"><ele>365.0</ele><time>2026-04-26T15:50:24.994Z</time></trkpt><trkpt lat="44.3636808" lon="8.2810266"><ele>363.0</ele><time>2026-04-26T15:50:25.994Z</time></trkpt><trkpt lat="44.3636083" lon="8.2814688"><ele>361.0</ele><time>2026-04-26T15:50:26.994Z</time></trkpt><trkpt lat="44.3635459" lon="8.2818649"><ele>361.0</ele><time>2026-04-26T15:50:27.994Z</time></trkpt><trkpt lat="44.3634921" lon="8.282219"><ele>361.0</ele><time>2026-04-26T15:50:28.994Z</time></trkpt><trkpt lat="44.3634402" lon="8.2825581"><ele>361.0</ele><time>2026-04-26T15:50:29.994Z</time></trkpt><trkpt lat="44.3633903" lon="8.282888"><ele>361.0</ele><time>2026-04-26T15:50:30.994Z</time></trkpt><trkpt lat="44.3633458" lon="8.2832012"><ele>360.0</ele><time>2026-04-26T15:50:31.994Z</time></trkpt><trkpt lat="44.3633077" lon="8.2834971"><ele>359.0</ele><time>2026-04-26T15:50:32.994Z</time></trkpt><trkpt lat="44.3632704" lon="8.2837765"><ele>358.0</ele><time>2026-04-26T15:50:33.994Z</time></trkpt><trkpt lat="44.3632353" lon="8.284032"><ele>358.0</ele><time>2026-04-26T15:50:34.994Z</time></trkpt><trkpt lat="44.3632052" lon="8.2842597"><ele>358.0</ele><time>2026-04-26T15:50:35.994Z</time></trkpt><trkpt lat="44.3631723" lon="8.284473"><ele>358.0</ele><time>2026-04-26T15:50:36.995Z</time></trkpt><trkpt lat="44.3631496" lon="8.284668"><ele>358.75</ele><time>2026-04-26T15:50:37.994Z</time></trkpt><trkpt lat="44.3631295" lon="8.2848509"><ele>359.5</ele><time>2026-04-26T15:50:38.994Z</time></trkpt><trkpt lat="44.3631038" lon="8.2850162"><ele>360.25</ele><time>2026-04-26T15:50:39.994Z</time></trkpt><trkpt lat="44.3630819" lon="8.2851584"><ele>361.0</ele><time>2026-04-26T15:50:40.994Z</time></trkpt><trkpt lat="44.3630514" lon="8.2852883"><ele>360.3333333333333</ele><time>2026-04-26T15:50:41.994Z</time></trkpt><trkpt lat="44.3630154" lon="8.2854052"><ele>359.66666666666663</ele><time>2026-04-26T15:50:42.994Z</time></trkpt><trkpt lat="44.3629659" lon="8.2855058"><ele>359.0</ele><time>2026-04-26T15:50:43.995Z</time></trkpt><trkpt lat="44.3629075" lon="8.2855807"><ele>358.3333333333333</ele><time>2026-04-26T15:50:44.993Z</time></trkpt><trkpt lat="44.3628495" lon="8.2856398"><ele>357.6666666666667</ele><time>2026-04-26T15:50:45.993Z</time></trkpt><trkpt lat="44.3627911" lon="8.2857736"><ele>357.0</ele><time>2026-04-26T15:50:47.993Z</time></trkpt><trkpt lat="44.3628081" lon="8.2859288"><ele>357.0</ele><time>2026-04-26T15:50:49.993Z</time></trkpt><trkpt lat="44.3628456" lon="8.2860416"><ele>357.0</ele><time>2026-04-26T15:50:50.993Z</time></trkpt><trkpt lat="44.3628811" lon="8.2861744"><ele>357.0</ele><time>2026-04-26T15:50:51.993Z</time></trkpt><trkpt lat="44.3628956" lon="8.2863433"><ele>357.0</ele><time>2026-04-26T15:50:52.993Z</time></trkpt><trkpt lat="44.36289" lon="8.2865416"><ele>356.6666666666667</ele><time>2026-04-26T15:50:53.993Z</time></trkpt><trkpt lat="44.3628745" lon="8.2867613"><ele>356.33333333333337</ele><time>2026-04-26T15:50:54.993Z</time></trkpt><trkpt lat="44.3628395" lon="8.2870035"><ele>356.0</ele><time>2026-04-26T15:50:55.993Z</time></trkpt><trkpt lat="44.3628031" lon="8.2872735"><ele>355.0</ele><time>2026-04-26T15:50:56.993Z</time></trkpt><trkpt lat="44.3627686" lon="8.2875395"><ele>354.0</ele><time>2026-04-26T15:50:57.993Z</time></trkpt><trkpt lat="44.3627382" lon="8.2877874"><ele>353.0</ele><time>2026-04-26T15:50:58.993Z</time></trkpt><trkpt lat="44.3627058" lon="8.2880218"><ele>352.0</ele><time>2026-04-26T15:50:59.993Z</time></trkpt><trkpt lat="44.3626714" lon="8.2882532"><ele>351.0</ele><time>2026-04-26T15:51:00.993Z</time></trkpt><trkpt lat="44.3626354" lon="8.2884741"><ele>350.0</ele><time>2026-04-26T15:51:01.993Z</time></trkpt><trkpt lat="44.3626106" lon="8.2886805"><ele>350.0</ele><time>2026-04-26T15:51:02.994Z</time></trkpt><trkpt lat="44.3625877" lon="8.288885"><ele>350.0</ele><time>2026-04-26T15:51:03.993Z</time></trkpt><trkpt lat="44.3625932" lon="8.289083"><ele>350.0</ele><time>2026-04-26T15:51:04.993Z</time></trkpt><trkpt lat="44.3626198" lon="8.2892703"><ele>350.0</ele><time>2026-04-26T15:51:05.994Z</time></trkpt><trkpt lat="44.3626618" lon="8.2894356"><ele>350.2</ele><time>2026-04-26T15:51:06.993Z</time></trkpt><trkpt lat="44.3627181" lon="8.289572"><ele>350.4</ele><time>2026-04-26T15:51:07.993Z</time></trkpt><trkpt lat="44.3627822" lon="8.2896775"><ele>350.6</ele><time>2026-04-26T15:51:08.993Z</time></trkpt><trkpt lat="44.3628419" lon="8.2897618"><ele>350.8</ele><time>2026-04-26T15:51:09.993Z</time></trkpt><trkpt lat="44.3628889" lon="8.2898344"><ele>351.0</ele><time>2026-04-26T15:51:10.993Z</time></trkpt><trkpt lat="44.3629549" lon="8.2899477"><ele>350.6</ele><time>2026-04-26T15:51:12.993Z</time></trkpt><trkpt lat="44.3629855" lon="8.2900335"><ele>350.20000000000005</ele><time>2026-04-26T15:51:14.993Z</time></trkpt><trkpt lat="44.3630236" lon="8.290126"><ele>349.79999999999995</ele><time>2026-04-26T15:51:16.993Z</time></trkpt><trkpt lat="44.3630574" lon="8.2902717"><ele>349.4</ele><time>2026-04-26T15:51:18.993Z</time></trkpt><trkpt lat="44.3630248" lon="8.2904338"><ele>349.0</ele><time>2026-04-26T15:51:20.993Z</time></trkpt><trkpt lat="44.3629262" lon="8.2905309"><ele>348.66666666666663</ele><time>2026-04-26T15:51:22.993Z</time></trkpt><trkpt lat="44.3628518" lon="8.2905549"><ele>348.3333333333333</ele><time>2026-04-26T15:51:23.993Z</time></trkpt><trkpt lat="44.3627593" lon="8.2905554"><ele>348.0</ele><time>2026-04-26T15:51:24.993Z</time></trkpt><trkpt lat="44.3626681" lon="8.2905531"><ele>347.6666666666667</ele><time>2026-04-26T15:51:25.994Z</time></trkpt><trkpt lat="44.3625839" lon="8.2905492"><ele>347.33333333333337</ele><time>2026-04-26T15:51:26.993Z</time></trkpt><trkpt lat="44.3625064" lon="8.2905467"><ele>347.0</ele><time>2026-04-26T15:51:27.993Z</time></trkpt><trkpt lat="44.3624325" lon="8.2905399"><ele>347.0</ele><time>2026-04-26T15:51:28.993Z</time></trkpt><trkpt lat="44.3623659" lon="8.2905321"><ele>347.0</ele><time>2026-04-26T15:51:29.993Z</time></trkpt><trkpt lat="44.3622512" lon="8.2905258"><ele>347.0</ele><time>2026-04-26T15:51:31.993Z</time></trkpt><trkpt lat="44.3621563" lon="8.2905442"><ele>347.0</ele><time>2026-04-26T15:51:33.994Z</time></trkpt><trkpt lat="44.3620687" lon="8.2905705"><ele>347.0</ele><time>2026-04-26T15:51:35.993Z</time></trkpt><trkpt lat="44.3619692" lon="8.2906084"><ele>347.25</ele><time>2026-04-26T15:51:37.993Z</time></trkpt><trkpt lat="44.3618555" lon="8.2906934"><ele>347.5</ele><time>2026-04-26T15:51:39.993Z</time></trkpt><trkpt lat="44.3617941" lon="8.2907789"><ele>347.75</ele><time>2026-04-26T15:51:40.993Z</time></trkpt><trkpt lat="44.3617216" lon="8.2909012"><ele>348.0</ele><time>2026-04-26T15:51:41.993Z</time></trkpt><trkpt lat="44.3616278" lon="8.2910507"><ele>348.0</ele><time>2026-04-26T15:51:42.993Z</time></trkpt><trkpt lat="44.361519" lon="8.2912218"><ele>348.0</ele><time>2026-04-26T15:51:43.993Z</time></trkpt><trkpt lat="44.3614032" lon="8.291403"><ele>348.0</ele><time>2026-04-26T15:51:44.993Z</time></trkpt><trkpt lat="44.3612774" lon="8.2916024"><ele>348.0</ele><time>2026-04-26T15:51:45.993Z</time></trkpt><trkpt lat="44.3611548" lon="8.2917774"><ele>348.0</ele><time>2026-04-26T15:51:46.993Z</time></trkpt><trkpt lat="44.3610417" lon="8.2919305"><ele>348.0</ele><time>2026-04-26T15:51:47.993Z</time></trkpt><trkpt lat="44.3609156" lon="8.2920577"><ele>348.0</ele><time>2026-04-26T15:51:48.993Z</time></trkpt><trkpt lat="44.3607604" lon="8.2921355"><ele>348.0</ele><time>2026-04-26T15:51:49.993Z</time></trkpt><trkpt lat="44.3605647" lon="8.2921798"><ele>348.0</ele><time>2026-04-26T15:51:50.993Z</time></trkpt><trkpt lat="44.360308" lon="8.2921717"><ele>348.5</ele><time>2026-04-26T15:51:51.993Z</time></trkpt><trkpt lat="44.3600245" lon="8.2921397"><ele>349.0</ele><time>2026-04-26T15:51:52.993Z</time></trkpt><trkpt lat="44.3597384" lon="8.2921208"><ele>350.5</ele><time>2026-04-26T15:51:53.993Z</time></trkpt><trkpt lat="44.3594795" lon="8.2921021"><ele>352.0</ele><time>2026-04-26T15:51:54.993Z</time></trkpt><trkpt lat="44.3592518" lon="8.292086"><ele>352.0</ele><time>2026-04-26T15:51:55.994Z</time></trkpt><trkpt lat="44.359053" lon="8.2920806"><ele>352.0</ele><time>2026-04-26T15:51:56.993Z</time></trkpt><trkpt lat="44.3588705" lon="8.292076"><ele>352.0</ele><time>2026-04-26T15:51:57.993Z</time></trkpt><trkpt lat="44.3587069" lon="8.2920813"><ele>352.0</ele><time>2026-04-26T15:51:58.993Z</time></trkpt><trkpt lat="44.3585458" lon="8.2920909"><ele>352.0</ele><time>2026-04-26T15:51:59.994Z</time></trkpt><trkpt lat="44.3583897" lon="8.2920881"><ele>352.0</ele><time>2026-04-26T15:52:00.994Z</time></trkpt><trkpt lat="44.3582385" lon="8.2920816"><ele>352.0</ele><time>2026-04-26T15:52:01.993Z</time></trkpt><trkpt lat="44.3580865" lon="8.2920773"><ele>352.0</ele><time>2026-04-26T15:52:02.993Z</time></trkpt><trkpt lat="44.3579382" lon="8.2920771"><ele>352.0</ele><time>2026-04-26T15:52:03.993Z</time></trkpt><trkpt lat="44.3577856" lon="8.292086"><ele>352.75</ele><time>2026-04-26T15:52:04.993Z</time></trkpt><trkpt lat="44.3576433" lon="8.2920853"><ele>353.5</ele><time>2026-04-26T15:52:05.993Z</time></trkpt><trkpt lat="44.3575152" lon="8.2920769"><ele>354.25</ele><time>2026-04-26T15:52:06.993Z</time></trkpt><trkpt lat="44.3574" lon="8.2920674"><ele>355.0</ele><time>2026-04-26T15:52:07.993Z</time></trkpt><trkpt lat="44.3573024" lon="8.2920441"><ele>355.0</ele><time>2026-04-26T15:52:08.994Z</time></trkpt><trkpt lat="44.3572076" lon="8.2920265"><ele>355.0</ele><time>2026-04-26T15:52:09.993Z</time></trkpt><trkpt lat="44.3571142" lon="8.2920096"><ele>355.0</ele><time>2026-04-26T15:52:10.993Z</time></trkpt><trkpt lat="44.3570147" lon="8.29199"><ele>355.0</ele><time>2026-04-26T15:52:11.993Z</time></trkpt><trkpt lat="44.3569149" lon="8.2919568"><ele>355.0</ele><time>2026-04-26T15:52:12.993Z</time></trkpt><trkpt lat="44.3568135" lon="8.2919247"><ele>356.0</ele><time>2026-04-26T15:52:13.993Z</time></trkpt><trkpt lat="44.3567093" lon="8.2918877"><ele>357.0</ele><time>2026-04-26T15:52:14.993Z</time></trkpt><trkpt lat="44.3566041" lon="8.2918596"><ele>358.0</ele><time>2026-04-26T15:52:15.993Z</time></trkpt><trkpt lat="44.3564953" lon="8.2918344"><ele>359.0</ele><time>2026-04-26T15:52:16.993Z</time></trkpt><trkpt lat="44.3563893" lon="8.2918147"><ele>360.0</ele><time>2026-04-26T15:52:17.993Z</time></trkpt><trkpt lat="44.3562869" lon="8.2917919"><ele>360.2</ele><time>2026-04-26T15:52:18.993Z</time></trkpt><trkpt lat="44.3561867" lon="8.2917775"><ele>360.4</ele><time>2026-04-26T15:52:19.993Z</time></trkpt><trkpt lat="44.3560918" lon="8.2917722"><ele>360.6</ele><time>2026-04-26T15:52:20.993Z</time></trkpt><trkpt lat="44.3559996" lon="8.291776"><ele>360.8</ele><time>2026-04-26T15:52:21.993Z</time></trkpt><trkpt lat="44.3559042" lon="8.2917956"><ele>361.0</ele><time>2026-04-26T15:52:22.994Z</time></trkpt><trkpt lat="44.3558061" lon="8.2918323"><ele>361.0</ele><time>2026-04-26T15:52:23.993Z</time></trkpt><trkpt lat="44.3557116" lon="8.291866"><ele>361.0</ele><time>2026-04-26T15:52:24.993Z</time></trkpt><trkpt lat="44.3556113" lon="8.2919009"><ele>361.0</ele><time>2026-04-26T15:52:25.993Z</time></trkpt><trkpt lat="44.3555086" lon="8.2919586"><ele>361.0</ele><time>2026-04-26T15:52:26.993Z</time></trkpt><trkpt lat="44.3553995" lon="8.29202"><ele>361.0</ele><time>2026-04-26T15:52:27.993Z</time></trkpt><trkpt lat="44.3552757" lon="8.2920881"><ele>361.3333333333333</ele><time>2026-04-26T15:52:28.993Z</time></trkpt><trkpt lat="44.3551429" lon="8.2921656"><ele>361.6666666666667</ele><time>2026-04-26T15:52:29.993Z</time></trkpt><trkpt lat="44.3550024" lon="8.2922401"><ele>362.0</ele><time>2026-04-26T15:52:30.993Z</time></trkpt><trkpt lat="44.3548508" lon="8.2923101"><ele>362.33333333333337</ele><time>2026-04-26T15:52:31.993Z</time></trkpt><trkpt lat="44.3546856" lon="8.2923888"><ele>362.6666666666667</ele><time>2026-04-26T15:52:32.993Z</time></trkpt><trkpt lat="44.3545029" lon="8.2924785"><ele>363.0</ele><time>2026-04-26T15:52:33.993Z</time></trkpt><trkpt lat="44.3542826" lon="8.2925918"><ele>363.0</ele><time>2026-04-26T15:52:34.993Z</time></trkpt><trkpt lat="44.3540323" lon="8.2927231"><ele>363.0</ele><time>2026-04-26T15:52:35.993Z</time></trkpt><trkpt lat="44.353756" lon="8.292878"><ele>363.0</ele><time>2026-04-26T15:52:36.993Z</time></trkpt><trkpt lat="44.3534772" lon="8.2930467"><ele>363.0</ele><time>2026-04-26T15:52:37.993Z</time></trkpt><trkpt lat="44.3531969" lon="8.2932559"><ele>362.0</ele><time>2026-04-26T15:52:38.993Z</time></trkpt><trkpt lat="44.3529363" lon="8.2935129"><ele>361.0</ele><time>2026-04-26T15:52:39.993Z</time></trkpt><trkpt lat="44.3526932" lon="8.2937878"><ele>362.5</ele><time>2026-04-26T15:52:40.993Z</time></trkpt><trkpt lat="44.3524805" lon="8.2940799"><ele>364.0</ele><time>2026-04-26T15:52:41.994Z</time></trkpt><trkpt lat="44.3522971" lon="8.2943523"><ele>364.0</ele><time>2026-04-26T15:52:42.993Z</time></trkpt><trkpt lat="44.3521337" lon="8.2945913"><ele>364.0</ele><time>2026-04-26T15:52:43.993Z</time></trkpt><trkpt lat="44.3519966" lon="8.2948143"><ele>364.0</ele><time>2026-04-26T15:52:44.993Z</time></trkpt><trkpt lat="44.3518656" lon="8.2950145"><ele>364.3333333333333</ele><time>2026-04-26T15:52:45.993Z</time></trkpt><trkpt lat="44.3517423" lon="8.295197"><ele>364.6666666666667</ele><time>2026-04-26T15:52:46.993Z</time></trkpt><trkpt lat="44.351625" lon="8.2953685"><ele>365.0</ele><time>2026-04-26T15:52:47.993Z</time></trkpt><trkpt lat="44.3515082" lon="8.2955329"><ele>365.25</ele><time>2026-04-26T15:52:48.993Z</time></trkpt><trkpt lat="44.3513966" lon="8.2956815"><ele>365.5</ele><time>2026-04-26T15:52:49.993Z</time></trkpt><trkpt lat="44.351297" lon="8.2958244"><ele>365.75</ele><time>2026-04-26T15:52:50.993Z</time></trkpt><trkpt lat="44.351202" lon="8.2959663"><ele>366.0</ele><time>2026-04-26T15:52:51.993Z</time></trkpt><trkpt lat="44.3511207" lon="8.2961258"><ele>366.0</ele><time>2026-04-26T15:52:52.993Z</time></trkpt><trkpt lat="44.3510576" lon="8.2963062"><ele>366.0</ele><time>2026-04-26T15:52:53.993Z</time></trkpt><trkpt lat="44.3509928" lon="8.2964852"><ele>366.0</ele><time>2026-04-26T15:52:54.993Z</time></trkpt><trkpt lat="44.3509307" lon="8.2966575"><ele>366.0</ele><time>2026-04-26T15:52:55.993Z</time></trkpt><trkpt lat="44.3508609" lon="8.2968265"><ele>367.0</ele><time>2026-04-26T15:52:56.993Z</time></trkpt><trkpt lat="44.3507814" lon="8.2969887"><ele>368.0</ele><time>2026-04-26T15:52:57.993Z</time></trkpt><trkpt lat="44.3506826" lon="8.297151"><ele>369.0</ele><time>2026-04-26T15:52:58.993Z</time></trkpt><trkpt lat="44.3505603" lon="8.2973372"><ele>370.0</ele><time>2026-04-26T15:52:59.994Z</time></trkpt><trkpt lat="44.3504112" lon="8.2975254"><ele>371.0</ele><time>2026-04-26T15:53:00.993Z</time></trkpt><trkpt lat="44.3502561" lon="8.297701"><ele>372.0</ele><time>2026-04-26T15:53:01.993Z</time></trkpt><trkpt lat="44.3501224" lon="8.2978516"><ele>372.0</ele><time>2026-04-26T15:53:02.993Z</time></trkpt><trkpt lat="44.3500057" lon="8.2979891"><ele>372.0</ele><time>2026-04-26T15:53:03.993Z</time></trkpt><trkpt lat="44.3498933" lon="8.2981181"><ele>372.0</ele><time>2026-04-26T15:53:04.994Z</time></trkpt><trkpt lat="44.3497907" lon="8.2982576"><ele>372.0</ele><time>2026-04-26T15:53:05.994Z</time></trkpt><trkpt lat="44.3496853" lon="8.2984055"><ele>372.75</ele><time>2026-04-26T15:53:06.993Z</time></trkpt><trkpt lat="44.3495802" lon="8.2985654"><ele>373.5</ele><time>2026-04-26T15:53:07.993Z</time></trkpt><trkpt lat="44.3494742" lon="8.2987234"><ele>374.25</ele><time>2026-04-26T15:53:08.993Z</time></trkpt><trkpt lat="44.3493855" lon="8.298865"><ele>375.0</ele><time>2026-04-26T15:53:09.993Z</time></trkpt><trkpt lat="44.3492919" lon="8.298983"><ele>375.75</ele><time>2026-04-26T15:53:10.993Z</time></trkpt><trkpt lat="44.3491925" lon="8.2990997"><ele>376.5</ele><time>2026-04-26T15:53:11.993Z</time></trkpt><trkpt lat="44.3490846" lon="8.2992294"><ele>377.25</ele><time>2026-04-26T15:53:12.994Z</time></trkpt><trkpt lat="44.348964" lon="8.2993867"><ele>378.0</ele><time>2026-04-26T15:53:13.993Z</time></trkpt><trkpt lat="44.348821" lon="8.2995261"><ele>378.0</ele><time>2026-04-26T15:53:14.993Z</time></trkpt><trkpt lat="44.3486641" lon="8.2996572"><ele>378.0</ele><time>2026-04-26T15:53:15.993Z</time></trkpt><trkpt lat="44.3485066" lon="8.299796"><ele>378.0</ele><time>2026-04-26T15:53:16.993Z</time></trkpt><trkpt lat="44.3483449" lon="8.2999402"><ele>380.66666666666663</ele><time>2026-04-26T15:53:17.993Z</time></trkpt><trkpt lat="44.3481974" lon="8.3001011"><ele>383.3333333333333</ele><time>2026-04-26T15:53:18.993Z</time></trkpt><trkpt lat="44.3480641" lon="8.3002683"><ele>386.0</ele><time>2026-04-26T15:53:19.993Z</time></trkpt><trkpt lat="44.3479412" lon="8.3004431"><ele>388.3333333333333</ele><time>2026-04-26T15:53:20.993Z</time></trkpt><trkpt lat="44.3478349" lon="8.3006311"><ele>390.66666666666663</ele><time>2026-04-26T15:53:21.993Z</time></trkpt><trkpt lat="44.347745" lon="8.3008363"><ele>393.0</ele><time>2026-04-26T15:53:22.994Z</time></trkpt><trkpt lat="44.347668" lon="8.3010501"><ele>393.0</ele><time>2026-04-26T15:53:23.993Z</time></trkpt><trkpt lat="44.3476002" lon="8.3012681"><ele>393.0</ele><time>2026-04-26T15:53:24.993Z</time></trkpt><trkpt lat="44.3475433" lon="8.3014869"><ele>393.0</ele><time>2026-04-26T15:53:25.994Z</time></trkpt><trkpt lat="44.3474951" lon="8.3016883"><ele>393.59999999999997</ele><time>2026-04-26T15:53:26.993Z</time></trkpt><trkpt lat="44.3474519" lon="8.3018631"><ele>394.2</ele><time>2026-04-26T15:53:27.993Z</time></trkpt><trkpt lat="44.3474113" lon="8.3020157"><ele>394.8</ele><time>2026-04-26T15:53:28.993Z</time></trkpt><trkpt lat="44.347362" lon="8.3021464"><ele>395.4</ele><time>2026-04-26T15:53:29.993Z</time></trkpt><trkpt lat="44.3473124" lon="8.3022505"><ele>396.0</ele><time>2026-04-26T15:53:30.993Z</time></trkpt><trkpt lat="44.3472479" lon="8.3023278"><ele>397.5</ele><time>2026-04-26T15:53:31.993Z</time></trkpt><trkpt lat="44.3471879" lon="8.3023859"><ele>399.0</ele><time>2026-04-26T15:53:32.993Z</time></trkpt><trkpt lat="44.3471458" lon="8.302457"><ele>400.5</ele><time>2026-04-26T15:53:33.993Z</time></trkpt><trkpt lat="44.3471262" lon="8.3025454"><ele>402.0</ele><time>2026-04-26T15:53:34.993Z</time></trkpt><trkpt lat="44.3471208" lon="8.3026743"><ele>403.5</ele><time>2026-04-26T15:53:35.993Z</time></trkpt><trkpt lat="44.3471167" lon="8.3028357"><ele>405.0</ele><time>2026-04-26T15:53:36.993Z</time></trkpt><trkpt lat="44.3471052" lon="8.3030342"><ele>405.33333333333337</ele><time>2026-04-26T15:53:37.994Z</time></trkpt><trkpt lat="44.3470743" lon="8.3032512"><ele>405.6666666666667</ele><time>2026-04-26T15:53:38.993Z</time></trkpt><trkpt lat="44.3470295" lon="8.3034646"><ele>406.0</ele><time>2026-04-26T15:53:39.993Z</time></trkpt><trkpt lat="44.3469723" lon="8.3036822"><ele>406.0</ele><time>2026-04-26T15:53:40.994Z</time></trkpt><trkpt lat="44.346913" lon="8.3038994"><ele>406.0</ele><time>2026-04-26T15:53:41.993Z</time></trkpt><trkpt lat="44.3468635" lon="8.3041029"><ele>406.0</ele><time>2026-04-26T15:53:42.993Z</time></trkpt><trkpt lat="44.3468208" lon="8.304301"><ele>405.6</ele><time>2026-04-26T15:53:43.993Z</time></trkpt><trkpt lat="44.3467888" lon="8.304464"><ele>405.20000000000005</ele><time>2026-04-26T15:53:44.993Z</time></trkpt><trkpt lat="44.3467697" lon="8.3046128"><ele>404.79999999999995</ele><time>2026-04-26T15:53:45.993Z</time></trkpt><trkpt lat="44.3467697" lon="8.3047648"><ele>404.4</ele><time>2026-04-26T15:53:46.993Z</time></trkpt><trkpt lat="44.346782" lon="8.3049171"><ele>404.0</ele><time>2026-04-26T15:53:47.994Z</time></trkpt><trkpt lat="44.3468068" lon="8.3050653"><ele>403.75</ele><time>2026-04-26T15:53:48.993Z</time></trkpt><trkpt lat="44.3468335" lon="8.305235"><ele>403.5</ele><time>2026-04-26T15:53:49.993Z</time></trkpt><trkpt lat="44.3468591" lon="8.3054357"><ele>403.25</ele><time>2026-04-26T15:53:50.993Z</time></trkpt><trkpt lat="44.3468864" lon="8.3056673"><ele>403.0</ele><time>2026-04-26T15:53:51.993Z</time></trkpt><trkpt lat="44.3469088" lon="8.3059298"><ele>401.6666666666667</ele><time>2026-04-26T15:53:52.993Z</time></trkpt><trkpt lat="44.3469414" lon="8.3062329"><ele>400.33333333333337</ele><time>2026-04-26T15:53:53.994Z</time></trkpt><trkpt lat="44.3469749" lon="8.3065401"><ele>399.0</ele><time>2026-04-26T15:53:54.994Z</time></trkpt><trkpt lat="44.3470192" lon="8.3068326"><ele>399.0</ele><time>2026-04-26T15:53:55.993Z</time></trkpt><trkpt lat="44.3470863" lon="8.3071258"><ele>399.0</ele><time>2026-04-26T15:53:56.993Z</time></trkpt><trkpt lat="44.347177" lon="8.3074046"><ele>399.0</ele><time>2026-04-26T15:53:57.993Z</time></trkpt><trkpt lat="44.3472763" lon="8.3076649"><ele>399.0</ele><time>2026-04-26T15:53:58.993Z</time></trkpt><trkpt lat="44.3473667" lon="8.3078996"><ele>399.0</ele><time>2026-04-26T15:53:59.993Z</time></trkpt><trkpt lat="44.3474189" lon="8.3081149"><ele>399.0</ele><time>2026-04-26T15:54:00.994Z</time></trkpt><trkpt lat="44.3474513" lon="8.3083375"><ele>398.66666666666663</ele><time>2026-04-26T15:54:01.993Z</time></trkpt><trkpt lat="44.3474536" lon="8.3085589"><ele>398.3333333333333</ele><time>2026-04-26T15:54:02.993Z</time></trkpt><trkpt lat="44.3474273" lon="8.3087645"><ele>398.0</ele><time>2026-04-26T15:54:03.993Z</time></trkpt><trkpt lat="44.3473719" lon="8.3089484"><ele>398.0</ele><time>2026-04-26T15:54:04.994Z</time></trkpt><trkpt lat="44.347289" lon="8.3090893"><ele>398.0</ele><time>2026-04-26T15:54:05.994Z</time></trkpt><trkpt lat="44.3471861" lon="8.3091972"><ele>398.0</ele><time>2026-04-26T15:54:06.993Z</time></trkpt><trkpt lat="44.3470865" lon="8.3093089"><ele>398.0</ele><time>2026-04-26T15:54:07.993Z</time></trkpt><trkpt lat="44.3470081" lon="8.3094409"><ele>396.25</ele><time>2026-04-26T15:54:08.993Z</time></trkpt><trkpt lat="44.3469551" lon="8.3095893"><ele>394.5</ele><time>2026-04-26T15:54:09.993Z</time></trkpt><trkpt lat="44.3469108" lon="8.3097459"><ele>392.75</ele><time>2026-04-26T15:54:10.993Z</time></trkpt><trkpt lat="44.3468766" lon="8.309909"><ele>391.0</ele><time>2026-04-26T15:54:11.993Z</time></trkpt><trkpt lat="44.3468529" lon="8.3100896"><ele>391.0</ele><time>2026-04-26T15:54:12.993Z</time></trkpt><trkpt lat="44.3468376" lon="8.3102741"><ele>391.0</ele><time>2026-04-26T15:54:13.993Z</time></trkpt><trkpt lat="44.3468352" lon="8.3104463"><ele>391.0</ele><time>2026-04-26T15:54:14.993Z</time></trkpt><trkpt lat="44.3468414" lon="8.3106241"><ele>391.0</ele><time>2026-04-26T15:54:15.993Z</time></trkpt><trkpt lat="44.3468506" lon="8.3108081"><ele>390.33333333333337</ele><time>2026-04-26T15:54:16.993Z</time></trkpt><trkpt lat="44.3468725" lon="8.311013"><ele>389.66666666666663</ele><time>2026-04-26T15:54:17.994Z</time></trkpt><trkpt lat="44.3468815" lon="8.3112286"><ele>389.0</ele><time>2026-04-26T15:54:18.993Z</time></trkpt><trkpt lat="44.3468892" lon="8.3114444"><ele>387.3333333333333</ele><time>2026-04-26T15:54:19.993Z</time></trkpt><trkpt lat="44.3468939" lon="8.3116681"><ele>385.66666666666663</ele><time>2026-04-26T15:54:20.994Z</time></trkpt><trkpt lat="44.3469072" lon="8.3118927"><ele>384.0</ele><time>2026-04-26T15:54:21.993Z</time></trkpt><trkpt lat="44.3469082" lon="8.3120964"><ele>384.75</ele><time>2026-04-26T15:54:22.993Z</time></trkpt><trkpt lat="44.3469051" lon="8.3122986"><ele>385.5</ele><time>2026-04-26T15:54:23.993Z</time></trkpt><trkpt lat="44.346887" lon="8.3124889"><ele>386.25</ele><time>2026-04-26T15:54:24.993Z</time></trkpt><trkpt lat="44.3468641" lon="8.3127124"><ele>387.0</ele><time>2026-04-26T15:54:25.993Z</time></trkpt><trkpt lat="44.3468242" lon="8.3129443"><ele>385.0</ele><time>2026-04-26T15:54:26.993Z</time></trkpt><trkpt lat="44.3467794" lon="8.3131751"><ele>383.0</ele><time>2026-04-26T15:54:27.993Z</time></trkpt><trkpt lat="44.3467136" lon="8.3134128"><ele>381.0</ele><time>2026-04-26T15:54:28.993Z</time></trkpt><trkpt lat="44.3466211" lon="8.3136729"><ele>385.0</ele><time>2026-04-26T15:54:29.993Z</time></trkpt><trkpt lat="44.3464993" lon="8.3139426"><ele>389.0</ele><time>2026-04-26T15:54:30.993Z</time></trkpt><trkpt lat="44.3463718" lon="8.3142085"><ele>389.0</ele><time>2026-04-26T15:54:31.993Z</time></trkpt><trkpt lat="44.3462534" lon="8.3144593"><ele>389.0</ele><time>2026-04-26T15:54:32.993Z</time></trkpt><trkpt lat="44.3461383" lon="8.3147128"><ele>389.0</ele><time>2026-04-26T15:54:33.993Z</time></trkpt><trkpt lat="44.3460341" lon="8.3149684"><ele>387.66666666666663</ele><time>2026-04-26T15:54:34.993Z</time></trkpt><trkpt lat="44.3459398" lon="8.3152258"><ele>386.33333333333337</ele><time>2026-04-26T15:54:35.993Z</time></trkpt><trkpt lat="44.3458724" lon="8.3155064"><ele>385.0</ele><time>2026-04-26T15:54:36.993Z</time></trkpt><trkpt lat="44.3458224" lon="8.3158069"><ele>384.0</ele><time>2026-04-26T15:54:37.993Z</time></trkpt><trkpt lat="44.3457758" lon="8.3161137"><ele>383.0</ele><time>2026-04-26T15:54:38.994Z</time></trkpt><trkpt lat="44.345742" lon="8.3164412"><ele>380.5</ele><time>2026-04-26T15:54:39.993Z</time></trkpt><trkpt lat="44.3456932" lon="8.3167736"><ele>378.0</ele><time>2026-04-26T15:54:40.993Z</time></trkpt><trkpt lat="44.3456324" lon="8.3170948"><ele>378.6666666666667</ele><time>2026-04-26T15:54:41.993Z</time></trkpt><trkpt lat="44.3455719" lon="8.3173903"><ele>379.33333333333337</ele><time>2026-04-26T15:54:42.993Z</time></trkpt><trkpt lat="44.3455188" lon="8.3176585"><ele>380.0</ele><time>2026-04-26T15:54:43.993Z</time></trkpt><trkpt lat="44.3454793" lon="8.3178921"><ele>388.0</ele><time>2026-04-26T15:54:44.993Z</time></trkpt><trkpt lat="44.3454613" lon="8.3181084"><ele>396.0</ele><time>2026-04-26T15:54:45.993Z</time></trkpt><trkpt lat="44.3454564" lon="8.3183236"><ele>404.0</ele><time>2026-04-26T15:54:46.994Z</time></trkpt><trkpt lat="44.345428" lon="8.3185312"><ele>404.0</ele><time>2026-04-26T15:54:47.993Z</time></trkpt><trkpt lat="44.3453917" lon="8.3187296"><ele>404.0</ele><time>2026-04-26T15:54:48.993Z</time></trkpt><trkpt lat="44.3453483" lon="8.3189234"><ele>404.0</ele><time>2026-04-26T15:54:49.993Z</time></trkpt><trkpt lat="44.3453124" lon="8.3191121"><ele>404.0</ele><time>2026-04-26T15:54:50.993Z</time></trkpt><trkpt lat="44.3452774" lon="8.3193042"><ele>404.0</ele><time>2026-04-26T15:54:51.994Z</time></trkpt><trkpt lat="44.3452652" lon="8.3194977"><ele>404.0</ele><time>2026-04-26T15:54:52.993Z</time></trkpt><trkpt lat="44.3452814" lon="8.3196743"><ele>404.0</ele><time>2026-04-26T15:54:53.993Z</time></trkpt><trkpt lat="44.3453265" lon="8.3198273"><ele>404.0</ele><time>2026-04-26T15:54:54.993Z</time></trkpt><trkpt lat="44.3453744" lon="8.3199579"><ele>403.6</ele><time>2026-04-26T15:54:55.993Z</time></trkpt><trkpt lat="44.3454076" lon="8.320085"><ele>403.2</ele><time>2026-04-26T15:54:56.993Z</time></trkpt><trkpt lat="44.3454442" lon="8.3201934"><ele>402.8</ele><time>2026-04-26T15:54:57.993Z</time></trkpt><trkpt lat="44.3454772" lon="8.3202861"><ele>402.40000000000003</ele><time>2026-04-26T15:54:58.993Z</time></trkpt><trkpt lat="44.3455286" lon="8.3204364"><ele>402.0</ele><time>2026-04-26T15:55:00.993Z</time></trkpt><trkpt lat="44.3455336" lon="8.3205933"><ele>402.0</ele><time>2026-04-26T15:55:02.994Z</time></trkpt><trkpt lat="44.3455201" lon="8.320694"><ele>402.0</ele><time>2026-04-26T15:55:03.993Z</time></trkpt><trkpt lat="44.3455006" lon="8.3208078"><ele>402.0</ele><time>2026-04-26T15:55:04.993Z</time></trkpt><trkpt lat="44.3454682" lon="8.320933"><ele>402.0</ele><time>2026-04-26T15:55:05.993Z</time></trkpt><trkpt lat="44.3454233" lon="8.3210676"><ele>402.0</ele><time>2026-04-26T15:55:06.993Z</time></trkpt><trkpt lat="44.3453567" lon="8.3212127"><ele>402.0</ele><time>2026-04-26T15:55:07.993Z</time></trkpt><trkpt lat="44.3452759" lon="8.3213718"><ele>402.0</ele><time>2026-04-26T15:55:08.994Z</time></trkpt><trkpt lat="44.3451887" lon="8.3215007"><ele>402.0</ele><time>2026-04-26T15:55:09.993Z</time></trkpt><trkpt lat="44.345104" lon="8.321614"><ele>402.0</ele><time>2026-04-26T15:55:10.993Z</time></trkpt><trkpt lat="44.3450184" lon="8.3217168"><ele>400.75</ele><time>2026-04-26T15:55:11.993Z</time></trkpt><trkpt lat="44.3449174" lon="8.3218077"><ele>399.5</ele><time>2026-04-26T15:55:12.993Z</time></trkpt><trkpt lat="44.3448165" lon="8.3218902"><ele>398.25</ele><time>2026-04-26T15:55:13.993Z</time></trkpt><trkpt lat="44.344711" lon="8.3219728"><ele>397.0</ele><time>2026-04-26T15:55:14.993Z</time></trkpt><trkpt lat="44.3446227" lon="8.3220612"><ele>397.0</ele><time>2026-04-26T15:55:15.993Z</time></trkpt><trkpt lat="44.3445424" lon="8.3221453"><ele>397.0</ele><time>2026-04-26T15:55:16.993Z</time></trkpt><trkpt lat="44.3444491" lon="8.3222263"><ele>397.0</ele><time>2026-04-26T15:55:17.993Z</time></trkpt><trkpt lat="44.3443554" lon="8.3223065"><ele>397.0</ele><time>2026-04-26T15:55:18.993Z</time></trkpt><trkpt lat="44.344263" lon="8.3223937"><ele>397.0</ele><time>2026-04-26T15:55:19.993Z</time></trkpt><trkpt lat="44.3441711" lon="8.3224783"><ele>396.0</ele><time>2026-04-26T15:55:20.993Z</time></trkpt><trkpt lat="44.3440767" lon="8.3225645"><ele>395.0</ele><time>2026-04-26T15:55:21.993Z</time></trkpt><trkpt lat="44.3439855" lon="8.32265"><ele>394.0</ele><time>2026-04-26T15:55:22.993Z</time></trkpt><trkpt lat="44.3438943" lon="8.3227347"><ele>393.0</ele><time>2026-04-26T15:55:23.993Z</time></trkpt><trkpt lat="44.3438054" lon="8.3228182"><ele>392.0</ele><time>2026-04-26T15:55:24.993Z</time></trkpt><trkpt lat="44.3437174" lon="8.322904"><ele>392.0</ele><time>2026-04-26T15:55:25.993Z</time></trkpt><trkpt lat="44.3436365" lon="8.3229859"><ele>392.0</ele><time>2026-04-26T15:55:26.993Z</time></trkpt><trkpt lat="44.3435637" lon="8.3230641"><ele>392.0</ele><time>2026-04-26T15:55:27.993Z</time></trkpt><trkpt lat="44.3434938" lon="8.3231455"><ele>392.0</ele><time>2026-04-26T15:55:28.993Z</time></trkpt><trkpt lat="44.3434268" lon="8.3232206"><ele>392.0</ele><time>2026-04-26T15:55:29.993Z</time></trkpt><trkpt lat="44.3433633" lon="8.3232915"><ele>392.16666666666663</ele><time>2026-04-26T15:55:30.993Z</time></trkpt><trkpt lat="44.3433018" lon="8.323359"><ele>392.3333333333333</ele><time>2026-04-26T15:55:31.993Z</time></trkpt><trkpt lat="44.3432422" lon="8.3234241"><ele>392.5</ele><time>2026-04-26T15:55:32.993Z</time></trkpt><trkpt lat="44.3431878" lon="8.3234856"><ele>392.66666666666663</ele><time>2026-04-26T15:55:33.993Z</time></trkpt><trkpt lat="44.3431291" lon="8.323545"><ele>392.8333333333333</ele><time>2026-04-26T15:55:34.993Z</time></trkpt><trkpt lat="44.343058" lon="8.3236041"><ele>393.0</ele><time>2026-04-26T15:55:35.993Z</time></trkpt><trkpt lat="44.3429901" lon="8.3236603"><ele>393.0</ele><time>2026-04-26T15:55:36.993Z</time></trkpt><trkpt lat="44.3429245" lon="8.3237205"><ele>393.0</ele><time>2026-04-26T15:55:37.993Z</time></trkpt><trkpt lat="44.3428609" lon="8.3237855"><ele>393.0</ele><time>2026-04-26T15:55:38.993Z</time></trkpt><trkpt lat="44.3427942" lon="8.3238483"><ele>393.0</ele><time>2026-04-26T15:55:39.993Z</time></trkpt><trkpt lat="44.3427323" lon="8.3239114"><ele>393.0</ele><time>2026-04-26T15:55:40.993Z</time></trkpt><trkpt lat="44.342669" lon="8.323973"><ele>393.0</ele><time>2026-04-26T15:55:41.993Z</time></trkpt><trkpt lat="44.3426032" lon="8.3240345"><ele>391.7142857142857</ele><time>2026-04-26T15:55:42.993Z</time></trkpt><trkpt lat="44.3425403" lon="8.3240886"><ele>390.42857142857144</ele><time>2026-04-26T15:55:43.993Z</time></trkpt><trkpt lat="44.3424773" lon="8.3241491"><ele>389.1428571428571</ele><time>2026-04-26T15:55:44.993Z</time></trkpt><trkpt lat="44.3424154" lon="8.3242021"><ele>387.8571428571429</ele><time>2026-04-26T15:55:45.993Z</time></trkpt><trkpt lat="44.3423564" lon="8.3242566"><ele>386.57142857142856</ele><time>2026-04-26T15:55:46.993Z</time></trkpt><trkpt lat="44.3422971" lon="8.3243201"><ele>385.2857142857143</ele><time>2026-04-26T15:55:47.993Z</time></trkpt><trkpt lat="44.3422415" lon="8.3243865"><ele>384.0</ele><time>2026-04-26T15:55:48.993Z</time></trkpt><trkpt lat="44.3421904" lon="8.3244564"><ele>384.0</ele><time>2026-04-26T15:55:49.993Z</time></trkpt><trkpt lat="44.3421353" lon="8.3245249"><ele>384.0</ele><time>2026-04-26T15:55:50.993Z</time></trkpt><trkpt lat="44.3420759" lon="8.3246056"><ele>384.0</ele><time>2026-04-26T15:55:51.993Z</time></trkpt><trkpt lat="44.3420127" lon="8.3246976"><ele>384.0</ele><time>2026-04-26T15:55:52.993Z</time></trkpt><trkpt lat="44.3419493" lon="8.3247938"><ele>384.0</ele><time>2026-04-26T15:55:53.993Z</time></trkpt><trkpt lat="44.3418865" lon="8.3248869"><ele>384.0</ele><time>2026-04-26T15:55:54.993Z</time></trkpt><trkpt lat="44.3418303" lon="8.3249889"><ele>383.5</ele><time>2026-04-26T15:55:55.993Z</time></trkpt><trkpt lat="44.3417782" lon="8.3250962"><ele>383.0</ele><time>2026-04-26T15:55:56.994Z</time></trkpt><trkpt lat="44.3417281" lon="8.3252039"><ele>382.5</ele><time>2026-04-26T15:55:57.993Z</time></trkpt><trkpt lat="44.3416867" lon="8.3253145"><ele>382.0</ele><time>2026-04-26T15:55:58.993Z</time></trkpt><trkpt lat="44.341658" lon="8.3254218"><ele>381.5</ele><time>2026-04-26T15:55:59.993Z</time></trkpt><trkpt lat="44.3416323" lon="8.3255295"><ele>381.0</ele><time>2026-04-26T15:56:00.993Z</time></trkpt><trkpt lat="44.3416092" lon="8.3256329"><ele>381.0</ele><time>2026-04-26T15:56:01.994Z</time></trkpt><trkpt lat="44.341583" lon="8.3257457"><ele>381.0</ele><time>2026-04-26T15:56:02.994Z</time></trkpt><trkpt lat="44.3415568" lon="8.3258793"><ele>381.0</ele><time>2026-04-26T15:56:03.993Z</time></trkpt><trkpt lat="44.3415263" lon="8.3260398"><ele>381.0</ele><time>2026-04-26T15:56:04.993Z</time></trkpt><trkpt lat="44.3414959" lon="8.3262537"><ele>382.66666666666663</ele><time>2026-04-26T15:56:05.993Z</time></trkpt><trkpt lat="44.3414706" lon="8.3265052"><ele>384.3333333333333</ele><time>2026-04-26T15:56:06.993Z</time></trkpt><trkpt lat="44.341448" lon="8.3267847"><ele>386.0</ele><time>2026-04-26T15:56:07.994Z</time></trkpt><trkpt lat="44.3414401" lon="8.3270718"><ele>393.0</ele><time>2026-04-26T15:56:08.993Z</time></trkpt><trkpt lat="44.3414525" lon="8.3273805"><ele>400.0</ele><time>2026-04-26T15:56:09.994Z</time></trkpt><trkpt lat="44.3414444" lon="8.3276808"><ele>407.0</ele><time>2026-04-26T15:56:10.993Z</time></trkpt><trkpt lat="44.341429" lon="8.3279922"><ele>410.66666666666663</ele><time>2026-04-26T15:56:11.993Z</time></trkpt><trkpt lat="44.3414279" lon="8.3282862"><ele>414.33333333333337</ele><time>2026-04-26T15:56:12.993Z</time></trkpt><trkpt lat="44.3414473" lon="8.3285991"><ele>418.0</ele><time>2026-04-26T15:56:13.994Z</time></trkpt><trkpt lat="44.3414546" lon="8.3289259"><ele>422.33333333333337</ele><time>2026-04-26T15:56:14.993Z</time></trkpt><trkpt lat="44.3414598" lon="8.329216"><ele>426.66666666666663</ele><time>2026-04-26T15:56:15.993Z</time></trkpt><trkpt lat="44.3414776" lon="8.3294527"><ele>431.0</ele><time>2026-04-26T15:56:16.993Z</time></trkpt><trkpt lat="44.3414762" lon="8.3297152"><ele>429.3333333333333</ele><time>2026-04-26T15:56:17.994Z</time></trkpt><trkpt lat="44.3414769" lon="8.3299795"><ele>427.66666666666663</ele><time>2026-04-26T15:56:18.993Z</time></trkpt><trkpt lat="44.3414843" lon="8.3302389"><ele>426.0</ele><time>2026-04-26T15:56:19.993Z</time></trkpt><trkpt lat="44.337985" lon="8.3513767"><ele>426.0</ele><time>2026-04-26T15:57:59.999Z</time></trkpt><trkpt lat="44.3379843" lon="8.3515723"><ele>426.0</ele><time>2026-04-26T15:58:01Z</time></trkpt><trkpt lat="44.3379131" lon="8.3517136"><ele>426.0</ele><time>2026-04-26T15:58:01.999Z</time></trkpt><trkpt lat="44.3377928" lon="8.3518557"><ele>426.0</ele><time>2026-04-26T15:58:02.999Z</time></trkpt><trkpt lat="44.3376811" lon="8.3520062"><ele>426.0</ele><time>2026-04-26T15:58:03.999Z</time></trkpt><trkpt lat="44.3375704" lon="8.352158"><ele>426.0</ele><time>2026-04-26T15:58:04.999Z</time></trkpt><trkpt lat="44.3374621" lon="8.3523118"><ele>426.0</ele><time>2026-04-26T15:58:06Z</time></trkpt><trkpt lat="44.337355" lon="8.3524712"><ele>423.0</ele><time>2026-04-26T15:58:06.999Z</time></trkpt><trkpt lat="44.3372443" lon="8.35263"><ele>420.0</ele><time>2026-04-26T15:58:07.999Z</time></trkpt><trkpt lat="44.3371321" lon="8.3528024"><ele>417.0</ele><time>2026-04-26T15:58:08.999Z</time></trkpt><trkpt lat="44.3370291" lon="8.3529604"><ele>412.0</ele><time>2026-04-26T15:58:09.999Z</time></trkpt><trkpt lat="44.33693" lon="8.3531286"><ele>407.0</ele><time>2026-04-26T15:58:10.999Z</time></trkpt><trkpt lat="44.3368263" lon="8.3533045"><ele>402.0</ele><time>2026-04-26T15:58:11.999Z</time></trkpt><trkpt lat="44.3367174" lon="8.3535049"><ele>402.0</ele><time>2026-04-26T15:58:12.999Z</time></trkpt><trkpt lat="44.3366071" lon="8.353719"><ele>402.0</ele><time>2026-04-26T15:58:13.999Z</time></trkpt><trkpt lat="44.3365047" lon="8.3539398"><ele>402.0</ele><time>2026-04-26T15:58:14.999Z</time></trkpt><trkpt lat="44.3364029" lon="8.3541531"><ele>394.3333333333333</ele><time>2026-04-26T15:58:15.999Z</time></trkpt><trkpt lat="44.33631" lon="8.354356"><ele>386.66666666666663</ele><time>2026-04-26T15:58:16.999Z</time></trkpt><trkpt lat="44.3362244" lon="8.3545631"><ele>379.0</ele><time>2026-04-26T15:58:17.999Z</time></trkpt><trkpt lat="44.3361424" lon="8.3547678"><ele>376.66666666666663</ele><time>2026-04-26T15:58:18.999Z</time></trkpt><trkpt lat="44.3360622" lon="8.3549623"><ele>374.3333333333333</ele><time>2026-04-26T15:58:19.999Z</time></trkpt><trkpt lat="44.3359909" lon="8.355154"><ele>372.0</ele><time>2026-04-26T15:58:20.999Z</time></trkpt><trkpt lat="44.3359232" lon="8.3553443"><ele>372.0</ele><time>2026-04-26T15:58:21.999Z</time></trkpt><trkpt lat="44.3358594" lon="8.3555226"><ele>372.0</ele><time>2026-04-26T15:58:22.999Z</time></trkpt><trkpt lat="44.3358028" lon="8.355681"><ele>372.0</ele><time>2026-04-26T15:58:23.999Z</time></trkpt><trkpt lat="44.3357517" lon="8.3558306"><ele>372.0</ele><time>2026-04-26T15:58:24.999Z</time></trkpt><trkpt lat="44.3357024" lon="8.3559794"><ele>373.20000000000005</ele><time>2026-04-26T15:58:25.999Z</time></trkpt><trkpt lat="44.3356538" lon="8.3561273"><ele>374.4</ele><time>2026-04-26T15:58:27Z</time></trkpt><trkpt lat="44.3356093" lon="8.3562719"><ele>375.6</ele><time>2026-04-26T15:58:27.999Z</time></trkpt><trkpt lat="44.335564" lon="8.3564129"><ele>376.79999999999995</ele><time>2026-04-26T15:58:29Z</time></trkpt><trkpt lat="44.335524" lon="8.3565449"><ele>378.0</ele><time>2026-04-26T15:58:29.999Z</time></trkpt><trkpt lat="44.3354852" lon="8.3566748"><ele>383.0</ele><time>2026-04-26T15:58:30.999Z</time></trkpt><trkpt lat="44.3354488" lon="8.3568012"><ele>388.0</ele><time>2026-04-26T15:58:31.999Z</time></trkpt><trkpt lat="44.3354171" lon="8.3569323"><ele>393.0</ele><time>2026-04-26T15:58:32.999Z</time></trkpt><trkpt lat="44.3353844" lon="8.3570737"><ele>398.0</ele><time>2026-04-26T15:58:34Z</time></trkpt><trkpt lat="44.3353476" lon="8.3572313"><ele>403.0</ele><time>2026-04-26T15:58:34.999Z</time></trkpt><trkpt lat="44.3353088" lon="8.3574145"><ele>403.0</ele><time>2026-04-26T15:58:35.999Z</time></trkpt><trkpt lat="44.3352628" lon="8.3576148"><ele>403.0</ele><time>2026-04-26T15:58:36.999Z</time></trkpt><trkpt lat="44.335203" lon="8.3578238"><ele>403.0</ele><time>2026-04-26T15:58:37.999Z</time></trkpt><trkpt lat="44.3351379" lon="8.3580513"><ele>402.6666666666667</ele><time>2026-04-26T15:58:38.999Z</time></trkpt><trkpt lat="44.3350656" lon="8.3583085"><ele>402.33333333333337</ele><time>2026-04-26T15:58:39.999Z</time></trkpt><trkpt lat="44.3349787" lon="8.3586034"><ele>402.0</ele><time>2026-04-26T15:58:40.999Z</time></trkpt><trkpt lat="44.3348892" lon="8.3589287"><ele>402.0</ele><time>2026-04-26T15:58:41.999Z</time></trkpt><trkpt lat="44.3348039" lon="8.3592451"><ele>402.0</ele><time>2026-04-26T15:58:42.999Z</time></trkpt><trkpt lat="44.3347377" lon="8.3595181"><ele>402.0</ele><time>2026-04-26T15:58:43.999Z</time></trkpt><trkpt lat="44.3346818" lon="8.3597443"><ele>394.25</ele><time>2026-04-26T15:58:44.999Z</time></trkpt><trkpt lat="44.3346397" lon="8.359939"><ele>386.5</ele><time>2026-04-26T15:58:45.999Z</time></trkpt><trkpt lat="44.334605" lon="8.3601239"><ele>378.75</ele><time>2026-04-26T15:58:46.999Z</time></trkpt><trkpt lat="44.3345762" lon="8.3603091"><ele>371.0</ele><time>2026-04-26T15:58:47.999Z</time></trkpt><trkpt lat="44.3345592" lon="8.3605064"><ele>375.33333333333337</ele><time>2026-04-26T15:58:48.999Z</time></trkpt><trkpt lat="44.3345614" lon="8.3607099"><ele>379.6666666666667</ele><time>2026-04-26T15:58:49.999Z</time></trkpt><trkpt lat="44.3345863" lon="8.3609218"><ele>384.0</ele><time>2026-04-26T15:58:50.999Z</time></trkpt><trkpt lat="44.334642" lon="8.3611781"><ele>392.5</ele><time>2026-04-26T15:58:51.999Z</time></trkpt><trkpt lat="44.3347228" lon="8.3614806"><ele>401.0</ele><time>2026-04-26T15:58:52.999Z</time></trkpt><trkpt lat="44.3348102" lon="8.3617994"><ele>401.0</ele><time>2026-04-26T15:58:53.999Z</time></trkpt><trkpt lat="44.3348866" lon="8.3621084"><ele>401.0</ele><time>2026-04-26T15:58:54.999Z</time></trkpt><trkpt lat="44.3349598" lon="8.3623798"><ele>401.0</ele><time>2026-04-26T15:58:55.999Z</time></trkpt><trkpt lat="44.335018" lon="8.3626445"><ele>395.0</ele><time>2026-04-26T15:58:56.999Z</time></trkpt><trkpt lat="44.3350754" lon="8.3629041"><ele>389.0</ele><time>2026-04-26T15:58:57.999Z</time></trkpt><trkpt lat="44.3351262" lon="8.3631488"><ele>383.0</ele><time>2026-04-26T15:58:58.999Z</time></trkpt><trkpt lat="44.3351778" lon="8.3633731"><ele>380.25</ele><time>2026-04-26T15:59:00Z</time></trkpt><trkpt lat="44.3352229" lon="8.3635726"><ele>377.5</ele><time>2026-04-26T15:59:00.999Z</time></trkpt><trkpt lat="44.3352563" lon="8.363766"><ele>374.75</ele><time>2026-04-26T15:59:01.999Z</time></trkpt><trkpt lat="44.3352688" lon="8.3639531"><ele>372.0</ele><time>2026-04-26T15:59:03Z</time></trkpt><trkpt lat="44.335253" lon="8.3641335"><ele>371.75</ele><time>2026-04-26T15:59:03.999Z</time></trkpt><trkpt lat="44.3352048" lon="8.3643106"><ele>371.5</ele><time>2026-04-26T15:59:04.999Z</time></trkpt><trkpt lat="44.3351433" lon="8.3644777"><ele>371.25</ele><time>2026-04-26T15:59:05.999Z</time></trkpt><trkpt lat="44.3350827" lon="8.3646416"><ele>371.0</ele><time>2026-04-26T15:59:06.999Z</time></trkpt><trkpt lat="44.3350305" lon="8.3647949"><ele>371.0</ele><time>2026-04-26T15:59:07.999Z</time></trkpt><trkpt lat="44.3349941" lon="8.3649647"><ele>371.0</ele><time>2026-04-26T15:59:08.999Z</time></trkpt><trkpt lat="44.3349732" lon="8.3651453"><ele>371.0</ele><time>2026-04-26T15:59:09.999Z</time></trkpt><trkpt lat="44.3349728" lon="8.3653295"><ele>371.0</ele><time>2026-04-26T15:59:10.999Z</time></trkpt><trkpt lat="44.3350212" lon="8.3655157"><ele>370.25</ele><time>2026-04-26T15:59:11.999Z</time></trkpt><trkpt lat="44.3350941" lon="8.3656939"><ele>369.5</ele><time>2026-04-26T15:59:12.999Z</time></trkpt><trkpt lat="44.3351749" lon="8.3658487"><ele>368.75</ele><time>2026-04-26T15:59:14Z</time></trkpt><trkpt lat="44.3352623" lon="8.3660052"><ele>368.0</ele><time>2026-04-26T15:59:14.999Z</time></trkpt><trkpt lat="44.3353378" lon="8.3661843"><ele>362.33333333333337</ele><time>2026-04-26T15:59:15.999Z</time></trkpt><trkpt lat="44.3353859" lon="8.3664059"><ele>356.6666666666667</ele><time>2026-04-26T15:59:16.999Z</time></trkpt><trkpt lat="44.3354069" lon="8.3666584"><ele>351.0</ele><time>2026-04-26T15:59:17.999Z</time></trkpt><trkpt lat="44.3353915" lon="8.3669545"><ele>349.3333333333333</ele><time>2026-04-26T15:59:18.999Z</time></trkpt><trkpt lat="44.3353657" lon="8.3672317"><ele>347.66666666666663</ele><time>2026-04-26T15:59:19.999Z</time></trkpt><trkpt lat="44.3353654" lon="8.367498"><ele>346.0</ele><time>2026-04-26T15:59:20.999Z</time></trkpt><trkpt lat="44.335405" lon="8.3677702"><ele>345.0</ele><time>2026-04-26T15:59:21.999Z</time></trkpt><trkpt lat="44.3354851" lon="8.3680378"><ele>344.0</ele><time>2026-04-26T15:59:22.999Z</time></trkpt><trkpt lat="44.3355947" lon="8.3683007"><ele>343.0</ele><time>2026-04-26T15:59:23.999Z</time></trkpt><trkpt lat="44.3357337" lon="8.3685442"><ele>342.0</ele><time>2026-04-26T15:59:24.999Z</time></trkpt><trkpt lat="44.3359189" lon="8.368745"><ele>341.0</ele><time>2026-04-26T15:59:25.999Z</time></trkpt><trkpt lat="44.3361337" lon="8.368883"><ele>341.0</ele><time>2026-04-26T15:59:26.999Z</time></trkpt><trkpt lat="44.3363419" lon="8.3690101"><ele>341.0</ele><time>2026-04-26T15:59:27.999Z</time></trkpt><trkpt lat="44.3365246" lon="8.3691626"><ele>341.0</ele><time>2026-04-26T15:59:28.999Z</time></trkpt><trkpt lat="44.3366661" lon="8.3693593"><ele>342.6666666666667</ele><time>2026-04-26T15:59:29.999Z</time></trkpt><trkpt lat="44.3367692" lon="8.3695831"><ele>344.3333333333333</ele><time>2026-04-26T15:59:30.999Z</time></trkpt><trkpt lat="44.3368256" lon="8.3698314"><ele>346.0</ele><time>2026-04-26T15:59:31.999Z</time></trkpt><trkpt lat="44.3368291" lon="8.370096"><ele>346.0</ele><time>2026-04-26T15:59:33Z</time></trkpt><trkpt lat="44.3367674" lon="8.3703554"><ele>346.0</ele><time>2026-04-26T15:59:33.999Z</time></trkpt><trkpt lat="44.3366391" lon="8.3705761"><ele>346.0</ele><time>2026-04-26T15:59:34.999Z</time></trkpt><trkpt lat="44.336493" lon="8.3707447"><ele>342.0</ele><time>2026-04-26T15:59:35.999Z</time></trkpt><trkpt lat="44.3363791" lon="8.3708912"><ele>338.0</ele><time>2026-04-26T15:59:36.999Z</time></trkpt><trkpt lat="44.3362904" lon="8.3710338"><ele>334.0</ele><time>2026-04-26T15:59:37.999Z</time></trkpt><trkpt lat="44.33622" lon="8.3711723"><ele>330.0</ele><time>2026-04-26T15:59:38.999Z</time></trkpt><trkpt lat="44.3361575" lon="8.371311"><ele>331.5</ele><time>2026-04-26T15:59:40Z</time></trkpt><trkpt lat="44.3361083" lon="8.3714506"><ele>333.0</ele><time>2026-04-26T15:59:40.999Z</time></trkpt><trkpt lat="44.3360653" lon="8.3715957"><ele>334.5</ele><time>2026-04-26T15:59:42Z</time></trkpt><trkpt lat="44.3360228" lon="8.371752"><ele>336.0</ele><time>2026-04-26T15:59:42.999Z</time></trkpt><trkpt lat="44.335985" lon="8.3719169"><ele>336.0</ele><time>2026-04-26T15:59:43.999Z</time></trkpt><trkpt lat="44.3359542" lon="8.3720876"><ele>336.0</ele><time>2026-04-26T15:59:44.999Z</time></trkpt><trkpt lat="44.3359213" lon="8.3722676"><ele>336.0</ele><time>2026-04-26T15:59:45.999Z</time></trkpt><trkpt lat="44.3358905" lon="8.3724572"><ele>336.0</ele><time>2026-04-26T15:59:47Z</time></trkpt><trkpt lat="44.3358639" lon="8.372655"><ele>337.0</ele><time>2026-04-26T15:59:47.999Z</time></trkpt><trkpt lat="44.3358522" lon="8.3728635"><ele>338.0</ele><time>2026-04-26T15:59:48.999Z</time></trkpt><trkpt lat="44.3358519" lon="8.3730585"><ele>339.0</ele><time>2026-04-26T15:59:49.999Z</time></trkpt><trkpt lat="44.3358428" lon="8.3732336"><ele>340.0</ele><time>2026-04-26T15:59:50.999Z</time></trkpt><trkpt lat="44.3358331" lon="8.3733946"><ele>341.0</ele><time>2026-04-26T15:59:51.999Z</time></trkpt><trkpt lat="44.3358249" lon="8.3735547"><ele>342.0</ele><time>2026-04-26T15:59:52.999Z</time></trkpt><trkpt lat="44.33581" lon="8.3737141"><ele>343.0</ele><time>2026-04-26T15:59:53.999Z</time></trkpt><trkpt lat="44.3357801" lon="8.3738626"><ele>344.0</ele><time>2026-04-26T15:59:54.999Z</time></trkpt><trkpt lat="44.3357269" lon="8.3739906"><ele>345.0</ele><time>2026-04-26T15:59:55.999Z</time></trkpt><trkpt lat="44.3356556" lon="8.3740987"><ele>346.2</ele><time>2026-04-26T15:59:56.999Z</time></trkpt><trkpt lat="44.3355772" lon="8.3741807"><ele>347.4</ele><time>2026-04-26T15:59:57.999Z</time></trkpt><trkpt lat="44.3354932" lon="8.3742331"><ele>348.6</ele><time>2026-04-26T15:59:58.999Z</time></trkpt><trkpt lat="44.3354015" lon="8.3742581"><ele>349.8</ele><time>2026-04-26T15:59:59.999Z</time></trkpt><trkpt lat="44.335307" lon="8.374255"><ele>351.0</ele><time>2026-04-26T16:00:00.999Z</time></trkpt><trkpt lat="44.3352047" lon="8.374245"><ele>351.0</ele><time>2026-04-26T16:00:01.999Z</time></trkpt><trkpt lat="44.3351069" lon="8.3742629"><ele>351.0</ele><time>2026-04-26T16:00:03Z</time></trkpt><trkpt lat="44.3350174" lon="8.3743228"><ele>351.0</ele><time>2026-04-26T16:00:03.999Z</time></trkpt><trkpt lat="44.3349425" lon="8.3744177"><ele>351.0</ele><time>2026-04-26T16:00:04.999Z</time></trkpt><trkpt lat="44.3348882" lon="8.3745399"><ele>351.0</ele><time>2026-04-26T16:00:05.999Z</time></trkpt><trkpt lat="44.3348671" lon="8.3746904"><ele>350.75</ele><time>2026-04-26T16:00:06.999Z</time></trkpt><trkpt lat="44.3348699" lon="8.3748479"><ele>350.5</ele><time>2026-04-26T16:00:07.999Z</time></trkpt><trkpt lat="44.334878" lon="8.375013"><ele>350.25</ele><time>2026-04-26T16:00:08.999Z</time></trkpt><trkpt lat="44.3348864" lon="8.3752048"><ele>350.0</ele><time>2026-04-26T16:00:09.999Z</time></trkpt><trkpt lat="44.3348688" lon="8.3754327"><ele>350.0</ele><time>2026-04-26T16:00:10.999Z</time></trkpt><trkpt lat="44.3348261" lon="8.3756598"><ele>350.0</ele><time>2026-04-26T16:00:11.999Z</time></trkpt><trkpt lat="44.3347656" lon="8.3758641"><ele>350.0</ele><time>2026-04-26T16:00:12.999Z</time></trkpt><trkpt lat="44.3347133" lon="8.3760482"><ele>347.25</ele><time>2026-04-26T16:00:13.999Z</time></trkpt><trkpt lat="44.334665" lon="8.3762183"><ele>344.5</ele><time>2026-04-26T16:00:14.999Z</time></trkpt><trkpt lat="44.3346154" lon="8.3763803"><ele>341.75</ele><time>2026-04-26T16:00:15.999Z</time></trkpt><trkpt lat="44.334579" lon="8.3765437"><ele>339.0</ele><time>2026-04-26T16:00:16.999Z</time></trkpt><trkpt lat="44.3345406" lon="8.3767131"><ele>339.0</ele><time>2026-04-26T16:00:17.999Z</time></trkpt><trkpt lat="44.3345173" lon="8.376878"><ele>339.0</ele><time>2026-04-26T16:00:19Z</time></trkpt><trkpt lat="44.3344988" lon="8.377045"><ele>339.0</ele><time>2026-04-26T16:00:19.999Z</time></trkpt><trkpt lat="44.3344965" lon="8.3772146"><ele>339.0</ele><time>2026-04-26T16:00:20.999Z</time></trkpt><trkpt lat="44.334507" lon="8.3773899"><ele>337.0</ele><time>2026-04-26T16:00:21.999Z</time></trkpt><trkpt lat="44.3344991" lon="8.3775992"><ele>335.0</ele><time>2026-04-26T16:00:22.999Z</time></trkpt><trkpt lat="44.3345302" lon="8.3778711"><ele>333.0</ele><time>2026-04-26T16:00:23.999Z</time></trkpt><trkpt lat="44.3345749" lon="8.3781535"><ele>334.3333333333333</ele><time>2026-04-26T16:00:24.999Z</time></trkpt><trkpt lat="44.3346022" lon="8.3784042"><ele>335.66666666666663</ele><time>2026-04-26T16:00:25.999Z</time></trkpt><trkpt lat="44.3346026" lon="8.3786324"><ele>337.0</ele><time>2026-04-26T16:00:26.999Z</time></trkpt><trkpt lat="44.3345708" lon="8.3788573"><ele>337.0</ele><time>2026-04-26T16:00:27.999Z</time></trkpt><trkpt lat="44.3345014" lon="8.3790844"><ele>337.0</ele><time>2026-04-26T16:00:28.999Z</time></trkpt><trkpt lat="44.3344081" lon="8.3792865"><ele>337.0</ele><time>2026-04-26T16:00:29.999Z</time></trkpt><trkpt lat="44.3342948" lon="8.3794672"><ele>337.0</ele><time>2026-04-26T16:00:30.999Z</time></trkpt><trkpt lat="44.3341719" lon="8.3796109"><ele>337.0</ele><time>2026-04-26T16:00:31.999Z</time></trkpt><trkpt lat="44.3340351" lon="8.3797151"><ele>337.0</ele><time>2026-04-26T16:00:32.999Z</time></trkpt><trkpt lat="44.3338889" lon="8.3797849"><ele>334.75</ele><time>2026-04-26T16:00:33.999Z</time></trkpt><trkpt lat="44.3337554" lon="8.3798467"><ele>332.5</ele><time>2026-04-26T16:00:34.999Z</time></trkpt><trkpt lat="44.3336662" lon="8.3799366"><ele>330.25</ele><time>2026-04-26T16:00:35.999Z</time></trkpt><trkpt lat="44.3336013" lon="8.3800604"><ele>328.0</ele><time>2026-04-26T16:00:36.999Z</time></trkpt><trkpt lat="44.3335517" lon="8.3802058"><ele>328.0</ele><time>2026-04-26T16:00:37.999Z</time></trkpt><trkpt lat="44.3335044" lon="8.3803579"><ele>328.0</ele><time>2026-04-26T16:00:38.999Z</time></trkpt><trkpt lat="44.333461" lon="8.3805035"><ele>328.0</ele><time>2026-04-26T16:00:39.999Z</time></trkpt><trkpt lat="44.3334208" lon="8.3806365"><ele>328.0</ele><time>2026-04-26T16:00:40.999Z</time></trkpt><trkpt lat="44.333386" lon="8.3807668"><ele>328.0</ele><time>2026-04-26T16:00:41.999Z</time></trkpt><trkpt lat="44.3333467" lon="8.3808942"><ele>331.25</ele><time>2026-04-26T16:00:42.999Z</time></trkpt><trkpt lat="44.3333015" lon="8.3810298"><ele>334.5</ele><time>2026-04-26T16:00:43.999Z</time></trkpt><trkpt lat="44.3332491" lon="8.3811765"><ele>337.75</ele><time>2026-04-26T16:00:44.999Z</time></trkpt><trkpt lat="44.3331903" lon="8.3813331"><ele>341.0</ele><time>2026-04-26T16:00:45.999Z</time></trkpt><trkpt lat="44.3331093" lon="8.3814749"><ele>341.25</ele><time>2026-04-26T16:00:46.999Z</time></trkpt><trkpt lat="44.3330136" lon="8.381591"><ele>341.5</ele><time>2026-04-26T16:00:47.999Z</time></trkpt><trkpt lat="44.3328967" lon="8.3816591"><ele>341.75</ele><time>2026-04-26T16:00:48.999Z</time></trkpt><trkpt lat="44.3327632" lon="8.3816794"><ele>342.0</ele><time>2026-04-26T16:00:49.999Z</time></trkpt><trkpt lat="44.3326277" lon="8.3816741"><ele>342.0</ele><time>2026-04-26T16:00:50.999Z</time></trkpt><trkpt lat="44.3324974" lon="8.3816865"><ele>342.0</ele><time>2026-04-26T16:00:51.999Z</time></trkpt><trkpt lat="44.3323816" lon="8.3817135"><ele>342.0</ele><time>2026-04-26T16:00:52.999Z</time></trkpt><trkpt lat="44.3322733" lon="8.3817666"><ele>342.0</ele><time>2026-04-26T16:00:53.999Z</time></trkpt><trkpt lat="44.3321869" lon="8.3818579"><ele>339.75</ele><time>2026-04-26T16:00:54.999Z</time></trkpt><trkpt lat="44.3321284" lon="8.3819859"><ele>337.5</ele><time>2026-04-26T16:00:55.999Z</time></trkpt><trkpt lat="44.3321176" lon="8.3821813"><ele>335.25</ele><time>2026-04-26T16:00:56.999Z</time></trkpt><trkpt lat="44.3321364" lon="8.3824163"><ele>333.0</ele><time>2026-04-26T16:00:57.999Z</time></trkpt><trkpt lat="44.3321404" lon="8.3826515"><ele>329.0</ele><time>2026-04-26T16:00:59Z</time></trkpt><trkpt lat="44.332118" lon="8.3828722"><ele>325.0</ele><time>2026-04-26T16:00:59.999Z</time></trkpt><trkpt lat="44.3320666" lon="8.3830765"><ele>321.0</ele><time>2026-04-26T16:01:00.999Z</time></trkpt><trkpt lat="44.3320158" lon="8.3832852"><ele>321.0</ele><time>2026-04-26T16:01:01.999Z</time></trkpt><trkpt lat="44.3319783" lon="8.383504"><ele>321.0</ele><time>2026-04-26T16:01:02.999Z</time></trkpt><trkpt lat="44.3319521" lon="8.3837164"><ele>321.0</ele><time>2026-04-26T16:01:03.999Z</time></trkpt><trkpt lat="44.3319586" lon="8.3839384"><ele>321.0</ele><time>2026-04-26T16:01:05Z</time></trkpt><trkpt lat="44.3319731" lon="8.3841669"><ele>321.0</ele><time>2026-04-26T16:01:05.999Z</time></trkpt><trkpt lat="44.3320091" lon="8.3843998"><ele>321.0</ele><time>2026-04-26T16:01:06.999Z</time></trkpt><trkpt lat="44.3320712" lon="8.3846354"><ele>320.3333333333333</ele><time>2026-04-26T16:01:08Z</time></trkpt><trkpt lat="44.3321586" lon="8.3848708"><ele>319.66666666666663</ele><time>2026-04-26T16:01:08.999Z</time></trkpt><trkpt lat="44.3322587" lon="8.3851038"><ele>319.0</ele><time>2026-04-26T16:01:09.999Z</time></trkpt><trkpt lat="44.3323462" lon="8.3853349"><ele>319.66666666666663</ele><time>2026-04-26T16:01:10.999Z</time></trkpt><trkpt lat="44.3324096" lon="8.3855703"><ele>320.3333333333333</ele><time>2026-04-26T16:01:11.999Z</time></trkpt><trkpt lat="44.3324537" lon="8.3857912"><ele>321.0</ele><time>2026-04-26T16:01:12.999Z</time></trkpt><trkpt lat="44.3324762" lon="8.3860033"><ele>321.0</ele><time>2026-04-26T16:01:13.999Z</time></trkpt><trkpt lat="44.332484" lon="8.3862079"><ele>321.0</ele><time>2026-04-26T16:01:14.999Z</time></trkpt><trkpt lat="44.3324839" lon="8.3864085"><ele>321.0</ele><time>2026-04-26T16:01:15.999Z</time></trkpt><trkpt lat="44.3324798" lon="8.3866041"><ele>321.0</ele><time>2026-04-26T16:01:16.999Z</time></trkpt><trkpt lat="44.3324638" lon="8.3868097"><ele>320.0</ele><time>2026-04-26T16:01:17.999Z</time></trkpt><trkpt lat="44.3324462" lon="8.3870194"><ele>319.0</ele><time>2026-04-26T16:01:18.999Z</time></trkpt><trkpt lat="44.332424" lon="8.3872341"><ele>318.0</ele><time>2026-04-26T16:01:19.999Z</time></trkpt><trkpt lat="44.3323927" lon="8.3874541"><ele>317.3333333333333</ele><time>2026-04-26T16:01:20.999Z</time></trkpt><trkpt lat="44.3323656" lon="8.3876648"><ele>316.66666666666663</ele><time>2026-04-26T16:01:21.999Z</time></trkpt><trkpt lat="44.3323461" lon="8.3878719"><ele>316.0</ele><time>2026-04-26T16:01:23Z</time></trkpt><trkpt lat="44.332329" lon="8.3880821"><ele>314.66666666666663</ele><time>2026-04-26T16:01:24Z</time></trkpt><trkpt lat="44.3323062" lon="8.3883045"><ele>313.3333333333333</ele><time>2026-04-26T16:01:25Z</time></trkpt><trkpt lat="44.3322837" lon="8.3885381"><ele>312.0</ele><time>2026-04-26T16:01:25.999Z</time></trkpt><trkpt lat="44.3322588" lon="8.3887741"><ele>309.6666666666667</ele><time>2026-04-26T16:01:26.999Z</time></trkpt><trkpt lat="44.3322258" lon="8.3890123"><ele>307.33333333333337</ele><time>2026-04-26T16:01:27.999Z</time></trkpt><trkpt lat="44.3321935" lon="8.389261"><ele>305.0</ele><time>2026-04-26T16:01:28.999Z</time></trkpt><trkpt lat="44.3321621" lon="8.3895132"><ele>300.33333333333337</ele><time>2026-04-26T16:01:29.999Z</time></trkpt><trkpt lat="44.3321276" lon="8.3897981"><ele>295.6666666666667</ele><time>2026-04-26T16:01:30.999Z</time></trkpt><trkpt lat="44.3320884" lon="8.3901231"><ele>291.0</ele><time>2026-04-26T16:01:31.999Z</time></trkpt><trkpt lat="44.332023" lon="8.3905118"><ele>289.0</ele><time>2026-04-26T16:01:32.999Z</time></trkpt><trkpt lat="44.3319422" lon="8.3909396"><ele>287.0</ele><time>2026-04-26T16:01:33.999Z</time></trkpt><trkpt lat="44.3318491" lon="8.3914082"><ele>286.5</ele><time>2026-04-26T16:01:34.999Z</time></trkpt><trkpt lat="44.3317613" lon="8.3918801"><ele>286.0</ele><time>2026-04-26T16:01:35.999Z</time></trkpt><trkpt lat="44.3316762" lon="8.3923174"><ele>284.0</ele><time>2026-04-26T16:01:36.999Z</time></trkpt><trkpt lat="44.3315941" lon="8.3927329"><ele>282.0</ele><time>2026-04-26T16:01:37.999Z</time></trkpt><trkpt lat="44.3315142" lon="8.3931192"><ele>282.0</ele><time>2026-04-26T16:01:38.999Z</time></trkpt><trkpt lat="44.3314422" lon="8.3934718"><ele>282.0</ele><time>2026-04-26T16:01:40Z</time></trkpt><trkpt lat="44.3313719" lon="8.3937961"><ele>282.0</ele><time>2026-04-26T16:01:40.999Z</time></trkpt><trkpt lat="44.3312938" lon="8.3941139"><ele>282.0</ele><time>2026-04-26T16:01:41.999Z</time></trkpt><trkpt lat="44.3311966" lon="8.3944306"><ele>280.0</ele><time>2026-04-26T16:01:42.999Z</time></trkpt><trkpt lat="44.3310765" lon="8.3947199"><ele>278.0</ele><time>2026-04-26T16:01:43.999Z</time></trkpt><trkpt lat="44.330955" lon="8.3949813"><ele>278.0</ele><time>2026-04-26T16:01:44.999Z</time></trkpt><trkpt lat="44.3308555" lon="8.395199"><ele>278.0</ele><time>2026-04-26T16:01:45.999Z</time></trkpt><trkpt lat="44.3307754" lon="8.3954037"><ele>278.0</ele><time>2026-04-26T16:01:46.999Z</time></trkpt><trkpt lat="44.3307326" lon="8.3956069"><ele>276.75</ele><time>2026-04-26T16:01:47.999Z</time></trkpt><trkpt lat="44.33073" lon="8.3958138"><ele>275.5</ele><time>2026-04-26T16:01:48.999Z</time></trkpt><trkpt lat="44.3307611" lon="8.3960193"><ele>274.25</ele><time>2026-04-26T16:01:49.999Z</time></trkpt><trkpt lat="44.3308177" lon="8.3961981"><ele>273.0</ele><time>2026-04-26T16:01:50.999Z</time></trkpt><trkpt lat="44.3309082" lon="8.3963557"><ele>271.3333333333333</ele><time>2026-04-26T16:01:52Z</time></trkpt><trkpt lat="44.3310412" lon="8.3964822"><ele>269.66666666666663</ele><time>2026-04-26T16:01:52.999Z</time></trkpt><trkpt lat="44.331184" lon="8.396583"><ele>268.0</ele><time>2026-04-26T16:01:53.999Z</time></trkpt><trkpt lat="44.331311" lon="8.3966938"><ele>268.3333333333333</ele><time>2026-04-26T16:01:54.999Z</time></trkpt><trkpt lat="44.3314067" lon="8.3968447"><ele>268.6666666666667</ele><time>2026-04-26T16:01:55.999Z</time></trkpt><trkpt lat="44.3314634" lon="8.3970393"><ele>269.0</ele><time>2026-04-26T16:01:56.999Z</time></trkpt><trkpt lat="44.3314446" lon="8.3973017"><ele>268.0</ele><time>2026-04-26T16:01:57.999Z</time></trkpt><trkpt lat="44.3313824" lon="8.3975617"><ele>267.0</ele><time>2026-04-26T16:01:59Z</time></trkpt><trkpt lat="44.3312711" lon="8.3978036"><ele>266.0</ele><time>2026-04-26T16:01:59.999Z</time></trkpt><trkpt lat="44.3311333" lon="8.397982"><ele>264.0</ele><time>2026-04-26T16:02:00.999Z</time></trkpt><trkpt lat="44.3309926" lon="8.3981245"><ele>262.0</ele><time>2026-04-26T16:02:01.999Z</time></trkpt><trkpt lat="44.3308757" lon="8.3982488"><ele>260.0</ele><time>2026-04-26T16:02:02.999Z</time></trkpt><trkpt lat="44.3307721" lon="8.3984039"><ele>260.0</ele><time>2026-04-26T16:02:03.999Z</time></trkpt><trkpt lat="44.330696" lon="8.3986149"><ele>260.0</ele><time>2026-04-26T16:02:04.999Z</time></trkpt><trkpt lat="44.3306656" lon="8.3989016"><ele>260.0</ele><time>2026-04-26T16:02:05.999Z</time></trkpt><trkpt lat="44.3306421" lon="8.3992474"><ele>258.0</ele><time>2026-04-26T16:02:06.999Z</time></trkpt><trkpt lat="44.3306691" lon="8.3995976"><ele>256.0</ele><time>2026-04-26T16:02:07.999Z</time></trkpt><trkpt lat="44.3307099" lon="8.3999169"><ele>256.3333333333333</ele><time>2026-04-26T16:02:08.999Z</time></trkpt><trkpt lat="44.3307853" lon="8.4002112"><ele>256.6666666666667</ele><time>2026-04-26T16:02:09.999Z</time></trkpt><trkpt lat="44.3308945" lon="8.400484"><ele>257.0</ele><time>2026-04-26T16:02:10.999Z</time></trkpt><trkpt lat="44.3310188" lon="8.4007474"><ele>257.0</ele><time>2026-04-26T16:02:12Z</time></trkpt><trkpt lat="44.3311867" lon="8.4010142"><ele>257.0</ele><time>2026-04-26T16:02:12.999Z</time></trkpt><trkpt lat="44.3313995" lon="8.4013017"><ele>249.5</ele><time>2026-04-26T16:02:13.999Z</time></trkpt><trkpt lat="44.3315972" lon="8.4015632"><ele>242.0</ele><time>2026-04-26T16:02:14.999Z</time></trkpt><trkpt lat="44.3317715" lon="8.401834"><ele>242.0</ele><time>2026-04-26T16:02:15.999Z</time></trkpt><trkpt lat="44.3318964" lon="8.4020978"><ele>242.0</ele><time>2026-04-26T16:02:16.999Z</time></trkpt><trkpt lat="44.331954" lon="8.4023629"><ele>242.0</ele><time>2026-04-26T16:02:17.999Z</time></trkpt><trkpt lat="44.3319599" lon="8.4026517"><ele>241.0</ele><time>2026-04-26T16:02:18.999Z</time></trkpt><trkpt lat="44.3319365" lon="8.4029445"><ele>240.0</ele><time>2026-04-26T16:02:19.999Z</time></trkpt><trkpt lat="44.3318035" lon="8.4032661"><ele>238.5</ele><time>2026-04-26T16:02:20.999Z</time></trkpt><trkpt lat="44.3316649" lon="8.4035811"><ele>237.0</ele><time>2026-04-26T16:02:21.999Z</time></trkpt><trkpt lat="44.3315006" lon="8.4039311"><ele>238.0</ele><time>2026-04-26T16:02:22.999Z</time></trkpt><trkpt lat="44.3313169" lon="8.4043156"><ele>239.0</ele><time>2026-04-26T16:02:23.999Z</time></trkpt><trkpt lat="44.3311202" lon="8.4047135"><ele>237.5</ele><time>2026-04-26T16:02:24.999Z</time></trkpt><trkpt lat="44.3308989" lon="8.4051388"><ele>236.0</ele><time>2026-04-26T16:02:25.999Z</time></trkpt><trkpt lat="44.3307197" lon="8.4054992"><ele>236.0</ele><time>2026-04-26T16:02:26.999Z</time></trkpt><trkpt lat="44.3305701" lon="8.4057978"><ele>236.0</ele><time>2026-04-26T16:02:27.999Z</time></trkpt><trkpt lat="44.330451" lon="8.4060518"><ele>236.66666666666669</ele><time>2026-04-26T16:02:28.999Z</time></trkpt><trkpt lat="44.3303393" lon="8.4062927"><ele>237.33333333333331</ele><time>2026-04-26T16:02:29.999Z</time></trkpt><trkpt lat="44.3302406" lon="8.4065024"><ele>238.0</ele><time>2026-04-26T16:02:30.999Z</time></trkpt><trkpt lat="44.3301528" lon="8.4066542"><ele>237.0</ele><time>2026-04-26T16:02:32Z</time></trkpt><trkpt lat="44.3300575" lon="8.4067485"><ele>236.0</ele><time>2026-04-26T16:02:32.999Z</time></trkpt><trkpt lat="44.3299292" lon="8.4067603"><ele>235.0</ele><time>2026-04-26T16:02:33.999Z</time></trkpt><trkpt lat="44.3297749" lon="8.4067156"><ele>234.0</ele><time>2026-04-26T16:02:34.999Z</time></trkpt><trkpt lat="44.329629" lon="8.4066536"><ele>234.0</ele><time>2026-04-26T16:02:35.999Z</time></trkpt><trkpt lat="44.3294913" lon="8.406629"><ele>234.0</ele><time>2026-04-26T16:02:36.999Z</time></trkpt><trkpt lat="44.3293725" lon="8.4066673"><ele>234.0</ele><time>2026-04-26T16:02:37.999Z</time></trkpt><trkpt lat="44.3292842" lon="8.40677"><ele>234.0</ele><time>2026-04-26T16:02:38.999Z</time></trkpt><trkpt lat="44.3292345" lon="8.4069356"><ele>231.66666666666669</ele><time>2026-04-26T16:02:39.999Z</time></trkpt><trkpt lat="44.3292039" lon="8.4071658"><ele>229.33333333333334</ele><time>2026-04-26T16:02:40.999Z</time></trkpt><trkpt lat="44.3291545" lon="8.4074123"><ele>227.0</ele><time>2026-04-26T16:02:41.999Z</time></trkpt><trkpt lat="44.3290612" lon="8.4076493"><ele>227.0</ele><time>2026-04-26T16:02:42.999Z</time></trkpt><trkpt lat="44.3289462" lon="8.4078483"><ele>227.0</ele><time>2026-04-26T16:02:44Z</time></trkpt><trkpt lat="44.3288053" lon="8.4079716"><ele>227.0</ele><time>2026-04-26T16:02:44.999Z</time></trkpt><trkpt lat="44.3286851" lon="8.4081101"><ele>224.5</ele><time>2026-04-26T16:02:45.999Z</time></trkpt><trkpt lat="44.3285894" lon="8.4082645"><ele>222.0</ele><time>2026-04-26T16:02:46.999Z</time></trkpt><trkpt lat="44.3285246" lon="8.4084416"><ele>219.5</ele><time>2026-04-26T16:02:47.999Z</time></trkpt><trkpt lat="44.3284962" lon="8.408657"><ele>217.0</ele><time>2026-04-26T16:02:48.999Z</time></trkpt><trkpt lat="44.3285013" lon="8.4089158"><ele>216.33333333333331</ele><time>2026-04-26T16:02:49.999Z</time></trkpt><trkpt lat="44.3285175" lon="8.4092249"><ele>215.66666666666669</ele><time>2026-04-26T16:02:50.999Z</time></trkpt><trkpt lat="44.3285004" lon="8.4095007"><ele>215.0</ele><time>2026-04-26T16:02:51.999Z</time></trkpt><trkpt lat="44.3284591" lon="8.4097267"><ele>214.0</ele><time>2026-04-26T16:02:52.999Z</time></trkpt><trkpt lat="44.3284322" lon="8.4099273"><ele>213.0</ele><time>2026-04-26T16:02:53.999Z</time></trkpt><trkpt lat="44.3284431" lon="8.410117"><ele>212.0</ele><time>2026-04-26T16:02:54.999Z</time></trkpt><trkpt lat="44.3284985" lon="8.4103094"><ele>211.0</ele><time>2026-04-26T16:02:56Z</time></trkpt><trkpt lat="44.3286218" lon="8.4104986"><ele>208.75</ele><time>2026-04-26T16:02:57Z</time></trkpt><trkpt lat="44.3287409" lon="8.4106709"><ele>206.5</ele><time>2026-04-26T16:02:57.999Z</time></trkpt><trkpt lat="44.3288468" lon="8.4108162"><ele>204.25</ele><time>2026-04-26T16:02:58.999Z</time></trkpt><trkpt lat="44.3289077" lon="8.4109643"><ele>202.0</ele><time>2026-04-26T16:02:59.999Z</time></trkpt><trkpt lat="44.3289386" lon="8.4111169"><ele>202.0</ele><time>2026-04-26T16:03:00.999Z</time></trkpt><trkpt lat="44.3289328" lon="8.4112739"><ele>202.0</ele><time>2026-04-26T16:03:01.999Z</time></trkpt><trkpt lat="44.3288743" lon="8.4114119"><ele>202.0</ele><time>2026-04-26T16:03:02.999Z</time></trkpt><trkpt lat="44.3287962" lon="8.411512"><ele>202.0</ele><time>2026-04-26T16:03:03.999Z</time></trkpt><trkpt lat="44.3287046" lon="8.4115682"><ele>202.0</ele><time>2026-04-26T16:03:04.999Z</time></trkpt><trkpt lat="44.3286106" lon="8.4116133"><ele>201.25</ele><time>2026-04-26T16:03:05.999Z</time></trkpt><trkpt lat="44.3285027" lon="8.4116625"><ele>200.5</ele><time>2026-04-26T16:03:06.999Z</time></trkpt><trkpt lat="44.328385" lon="8.4117205"><ele>199.75</ele><time>2026-04-26T16:03:07.999Z</time></trkpt><trkpt lat="44.3282514" lon="8.4118086"><ele>199.0</ele><time>2026-04-26T16:03:08.999Z</time></trkpt><trkpt lat="44.3281031" lon="8.41193"><ele>197.0</ele><time>2026-04-26T16:03:10Z</time></trkpt><trkpt lat="44.327947" lon="8.4120789"><ele>195.0</ele><time>2026-04-26T16:03:10.999Z</time></trkpt><trkpt lat="44.3277291" lon="8.4122899"><ele>195.0</ele><time>2026-04-26T16:03:11.999Z</time></trkpt><trkpt lat="44.3275166" lon="8.4124788"><ele>195.0</ele><time>2026-04-26T16:03:12.999Z</time></trkpt><trkpt lat="44.3273245" lon="8.412614"><ele>192.66666666666666</ele><time>2026-04-26T16:03:13.999Z</time></trkpt><trkpt lat="44.3271599" lon="8.4127134"><ele>190.33333333333331</ele><time>2026-04-26T16:03:14.999Z</time></trkpt><trkpt lat="44.3270255" lon="8.4128272"><ele>188.0</ele><time>2026-04-26T16:03:16Z</time></trkpt><trkpt lat="44.3269136" lon="8.4129846"><ele>188.33333333333331</ele><time>2026-04-26T16:03:16.999Z</time></trkpt><trkpt lat="44.3268166" lon="8.4131974"><ele>188.66666666666666</ele><time>2026-04-26T16:03:17.999Z</time></trkpt><trkpt lat="44.3266993" lon="8.4134168"><ele>189.0</ele><time>2026-04-26T16:03:18.999Z</time></trkpt><trkpt lat="44.3265704" lon="8.4136025"><ele>189.0</ele><time>2026-04-26T16:03:19.999Z</time></trkpt><trkpt lat="44.3264406" lon="8.41377"><ele>189.0</ele><time>2026-04-26T16:03:20.999Z</time></trkpt><trkpt lat="44.3263179" lon="8.413946"><ele>189.0</ele><time>2026-04-26T16:03:22Z</time></trkpt><trkpt lat="44.3262008" lon="8.414149"><ele>188.0</ele><time>2026-04-26T16:03:22.999Z</time></trkpt><trkpt lat="44.3261044" lon="8.4144083"><ele>187.0</ele><time>2026-04-26T16:03:23.999Z</time></trkpt><trkpt lat="44.3260322" lon="8.4147518"><ele>184.0</ele><time>2026-04-26T16:03:24.999Z</time></trkpt><trkpt lat="44.3259895" lon="8.4151367"><ele>181.0</ele><time>2026-04-26T16:03:25.999Z</time></trkpt><trkpt lat="44.3259662" lon="8.4155218"><ele>181.0</ele><time>2026-04-26T16:03:26.999Z</time></trkpt><trkpt lat="44.3259366" lon="8.4158728"><ele>181.0</ele><time>2026-04-26T16:03:28Z</time></trkpt><trkpt lat="44.3258944" lon="8.4161876"><ele>182.66666666666669</ele><time>2026-04-26T16:03:28.999Z</time></trkpt><trkpt lat="44.3258536" lon="8.4164639"><ele>184.33333333333334</ele><time>2026-04-26T16:03:29.999Z</time></trkpt><trkpt lat="44.3258197" lon="8.4167068"><ele>186.0</ele><time>2026-04-26T16:03:30.999Z</time></trkpt><trkpt lat="44.3257901" lon="8.4169211"><ele>186.0</ele><time>2026-04-26T16:03:31.999Z</time></trkpt><trkpt lat="44.3257515" lon="8.4171094"><ele>186.0</ele><time>2026-04-26T16:03:32.999Z</time></trkpt><trkpt lat="44.325681" lon="8.417277"><ele>186.0</ele><time>2026-04-26T16:03:33.999Z</time></trkpt><trkpt lat="44.3255875" lon="8.4174016"><ele>186.0</ele><time>2026-04-26T16:03:35Z</time></trkpt><trkpt lat="44.3254775" lon="8.4174753"><ele>184.0</ele><time>2026-04-26T16:03:35.999Z</time></trkpt><trkpt lat="44.3253664" lon="8.4175337"><ele>182.0</ele><time>2026-04-26T16:03:36.999Z</time></trkpt><trkpt lat="44.3252531" lon="8.417588"><ele>180.0</ele><time>2026-04-26T16:03:37.999Z</time></trkpt><trkpt lat="44.3251661" lon="8.4176666"><ele>178.0</ele><time>2026-04-26T16:03:38.999Z</time></trkpt><trkpt lat="44.3251158" lon="8.4177818"><ele>176.0</ele><time>2026-04-26T16:03:39.999Z</time></trkpt><trkpt lat="44.3250972" lon="8.4179246"><ele>175.25</ele><time>2026-04-26T16:03:40.999Z</time></trkpt><trkpt lat="44.3251049" lon="8.4180862"><ele>174.5</ele><time>2026-04-26T16:03:41.999Z</time></trkpt><trkpt lat="44.3251311" lon="8.4182834"><ele>173.75</ele><time>2026-04-26T16:03:42.999Z</time></trkpt><trkpt lat="44.325172" lon="8.4184691"><ele>173.0</ele><time>2026-04-26T16:03:43.999Z</time></trkpt><trkpt lat="44.3252248" lon="8.4186512"><ele>171.25</ele><time>2026-04-26T16:03:44.999Z</time></trkpt><trkpt lat="44.3252942" lon="8.4188331"><ele>169.5</ele><time>2026-04-26T16:03:45.999Z</time></trkpt><trkpt lat="44.3253726" lon="8.4189985"><ele>167.75</ele><time>2026-04-26T16:03:46.999Z</time></trkpt><trkpt lat="44.3254573" lon="8.4191592"><ele>166.0</ele><time>2026-04-26T16:03:47.999Z</time></trkpt><trkpt lat="44.3255384" lon="8.4193388"><ele>173.0</ele><time>2026-04-26T16:03:48.999Z</time></trkpt><trkpt lat="44.3255979" lon="8.4195396"><ele>180.0</ele><time>2026-04-26T16:03:49.999Z</time></trkpt><trkpt lat="44.3256277" lon="8.419758"><ele>187.0</ele><time>2026-04-26T16:03:51Z</time></trkpt><trkpt lat="44.3256236" lon="8.4199868"><ele>187.0</ele><time>2026-04-26T16:03:51.999Z</time></trkpt><trkpt lat="44.3256185" lon="8.4202158"><ele>187.0</ele><time>2026-04-26T16:03:52.999Z</time></trkpt><trkpt lat="44.3256112" lon="8.4204383"><ele>187.0</ele><time>2026-04-26T16:03:53.999Z</time></trkpt><trkpt lat="44.3255864" lon="8.4206544"><ele>181.33333333333334</ele><time>2026-04-26T16:03:54.999Z</time></trkpt><trkpt lat="44.3255362" lon="8.4208715"><ele>175.66666666666666</ele><time>2026-04-26T16:03:55.999Z</time></trkpt><trkpt lat="44.3254784" lon="8.4210821"><ele>170.0</ele><time>2026-04-26T16:03:56.999Z</time></trkpt><trkpt lat="44.3254209" lon="8.4212896"><ele>168.33333333333331</ele><time>2026-04-26T16:03:58Z</time></trkpt><trkpt lat="44.3253645" lon="8.4215047"><ele>166.66666666666666</ele><time>2026-04-26T16:03:58.999Z</time></trkpt><trkpt lat="44.3253091" lon="8.4217201"><ele>165.0</ele><time>2026-04-26T16:03:59.999Z</time></trkpt><trkpt lat="44.3252499" lon="8.4219381"><ele>164.0</ele><time>2026-04-26T16:04:00.999Z</time></trkpt><trkpt lat="44.3251817" lon="8.4221787"><ele>163.0</ele><time>2026-04-26T16:04:01.999Z</time></trkpt><trkpt lat="44.325081" lon="8.4224534"><ele>162.0</ele><time>2026-04-26T16:04:02.999Z</time></trkpt><trkpt lat="44.3249506" lon="8.4227351"><ele>164.0</ele><time>2026-04-26T16:04:03.999Z</time></trkpt><trkpt lat="44.3248168" lon="8.4230166"><ele>166.0</ele><time>2026-04-26T16:04:04.999Z</time></trkpt><trkpt lat="44.3246894" lon="8.4232807"><ele>166.0</ele><time>2026-04-26T16:04:05.999Z</time></trkpt><trkpt lat="44.3245816" lon="8.4235343"><ele>166.0</ele><time>2026-04-26T16:04:06.999Z</time></trkpt><trkpt lat="44.3244849" lon="8.4238049"><ele>166.0</ele><time>2026-04-26T16:04:07.999Z</time></trkpt><trkpt lat="44.3244058" lon="8.4241178"><ele>162.5</ele><time>2026-04-26T16:04:08.999Z</time></trkpt><trkpt lat="44.3243627" lon="8.4244624"><ele>159.0</ele><time>2026-04-26T16:04:09.999Z</time></trkpt><trkpt lat="44.324348" lon="8.4248117"><ele>159.0</ele><time>2026-04-26T16:04:10.999Z</time></trkpt><trkpt lat="44.3243383" lon="8.4251383"><ele>159.0</ele><time>2026-04-26T16:04:11.999Z</time></trkpt><trkpt lat="44.324323" lon="8.4254266"><ele>159.0</ele><time>2026-04-26T16:04:12.999Z</time></trkpt><trkpt lat="44.3242733" lon="8.4256982"><ele>158.66666666666666</ele><time>2026-04-26T16:04:13.999Z</time></trkpt><trkpt lat="44.3241859" lon="8.4259519"><ele>158.33333333333331</ele><time>2026-04-26T16:04:14.999Z</time></trkpt><trkpt lat="44.3240686" lon="8.4261843"><ele>158.0</ele><time>2026-04-26T16:04:15.999Z</time></trkpt><trkpt lat="44.3239238" lon="8.4263798"><ele>158.0</ele><time>2026-04-26T16:04:17Z</time></trkpt><trkpt lat="44.323781" lon="8.4265636"><ele>158.0</ele><time>2026-04-26T16:04:17.999Z</time></trkpt><trkpt lat="44.323653" lon="8.4267416"><ele>158.0</ele><time>2026-04-26T16:04:18.999Z</time></trkpt><trkpt lat="44.3235437" lon="8.4269063"><ele>158.0</ele><time>2026-04-26T16:04:19.999Z</time></trkpt><trkpt lat="44.3234536" lon="8.4270572"><ele>158.0</ele><time>2026-04-26T16:04:20.999Z</time></trkpt><trkpt lat="44.323385" lon="8.4271984"><ele>158.0</ele><time>2026-04-26T16:04:21.999Z</time></trkpt><trkpt lat="44.3233332" lon="8.427345"><ele>158.0</ele><time>2026-04-26T16:04:22.999Z</time></trkpt><trkpt lat="44.3233089" lon="8.4274971"><ele>157.0</ele><time>2026-04-26T16:04:23.999Z</time></trkpt><trkpt lat="44.3233218" lon="8.4276596"><ele>156.0</ele><time>2026-04-26T16:04:24.999Z</time></trkpt><trkpt lat="44.3233609" lon="8.4278291"><ele>155.0</ele><time>2026-04-26T16:04:25.999Z</time></trkpt><trkpt lat="44.3234122" lon="8.4280074"><ele>154.0</ele><time>2026-04-26T16:04:26.999Z</time></trkpt><trkpt lat="44.3234712" lon="8.428194"><ele>153.66666666666669</ele><time>2026-04-26T16:04:27.999Z</time></trkpt><trkpt lat="44.3235384" lon="8.4283797"><ele>153.33333333333334</ele><time>2026-04-26T16:04:28.999Z</time></trkpt><trkpt lat="44.3236371" lon="8.428571"><ele>153.0</ele><time>2026-04-26T16:04:29.999Z</time></trkpt><trkpt lat="44.3237627" lon="8.428793"><ele>155.0</ele><time>2026-04-26T16:04:30.999Z</time></trkpt><trkpt lat="44.3238858" lon="8.429"><ele>157.0</ele><time>2026-04-26T16:04:31.999Z</time></trkpt><trkpt lat="44.3239912" lon="8.4291687"><ele>159.0</ele><time>2026-04-26T16:04:32.999Z</time></trkpt><trkpt lat="44.3240902" lon="8.4292956"><ele>154.33333333333334</ele><time>2026-04-26T16:04:33.999Z</time></trkpt><trkpt lat="44.3241944" lon="8.4294004"><ele>149.66666666666669</ele><time>2026-04-26T16:04:34.999Z</time></trkpt><trkpt lat="44.3243244" lon="8.42949"><ele>145.0</ele><time>2026-04-26T16:04:36Z</time></trkpt><trkpt lat="44.3245055" lon="8.4295771"><ele>144.0</ele><time>2026-04-26T16:04:36.999Z</time></trkpt><trkpt lat="44.3247308" lon="8.4296863"><ele>143.0</ele><time>2026-04-26T16:04:37.999Z</time></trkpt><trkpt lat="44.324964" lon="8.4298365"><ele>143.0</ele><time>2026-04-26T16:04:38.999Z</time></trkpt><trkpt lat="44.3251716" lon="8.4300074"><ele>143.0</ele><time>2026-04-26T16:04:39.999Z</time></trkpt><trkpt lat="44.3253147" lon="8.4301962"><ele>143.0</ele><time>2026-04-26T16:04:40.999Z</time></trkpt><trkpt lat="44.3254229" lon="8.4303955"><ele>143.0</ele><time>2026-04-26T16:04:41.999Z</time></trkpt><trkpt lat="44.3254833" lon="8.4306069"><ele>143.0</ele><time>2026-04-26T16:04:42.999Z</time></trkpt><trkpt lat="44.3254914" lon="8.4308538"><ele>143.0</ele><time>2026-04-26T16:04:43.999Z</time></trkpt><trkpt lat="44.3254549" lon="8.4311493"><ele>143.5</ele><time>2026-04-26T16:04:44.999Z</time></trkpt><trkpt lat="44.3253742" lon="8.4314967"><ele>144.0</ele><time>2026-04-26T16:04:45.999Z</time></trkpt><trkpt lat="44.3252828" lon="8.4318678"><ele>142.5</ele><time>2026-04-26T16:04:46.999Z</time></trkpt><trkpt lat="44.3251949" lon="8.432219"><ele>141.0</ele><time>2026-04-26T16:04:47.999Z</time></trkpt><trkpt lat="44.3250719" lon="8.4325317"><ele>141.0</ele><time>2026-04-26T16:04:48.999Z</time></trkpt><trkpt lat="44.3249185" lon="8.4327934"><ele>141.0</ele><time>2026-04-26T16:04:49.999Z</time></trkpt><trkpt lat="44.3247506" lon="8.4329934"><ele>142.66666666666666</ele><time>2026-04-26T16:04:50.999Z</time></trkpt><trkpt lat="44.3246072" lon="8.4331866"><ele>144.33333333333331</ele><time>2026-04-26T16:04:51.999Z</time></trkpt><trkpt lat="44.3244836" lon="8.4333654"><ele>146.0</ele><time>2026-04-26T16:04:52.999Z</time></trkpt><trkpt lat="44.3244036" lon="8.433576"><ele>146.0</ele><time>2026-04-26T16:04:53.999Z</time></trkpt><trkpt lat="44.3243707" lon="8.4337629"><ele>146.0</ele><time>2026-04-26T16:04:54.999Z</time></trkpt><trkpt lat="44.3243959" lon="8.4339562"><ele>146.0</ele><time>2026-04-26T16:04:55.999Z</time></trkpt><trkpt lat="44.3244646" lon="8.4341414"><ele>146.0</ele><time>2026-04-26T16:04:56.999Z</time></trkpt><trkpt lat="44.3245848" lon="8.434335"><ele>146.5</ele><time>2026-04-26T16:04:57.999Z</time></trkpt><trkpt lat="44.3247681" lon="8.4345525"><ele>147.0</ele><time>2026-04-26T16:04:58.999Z</time></trkpt><trkpt lat="44.3249388" lon="8.4347623"><ele>144.0</ele><time>2026-04-26T16:05:00Z</time></trkpt><trkpt lat="44.3250875" lon="8.4349795"><ele>141.0</ele><time>2026-04-26T16:05:00.999Z</time></trkpt><trkpt lat="44.3251807" lon="8.4352097"><ele>138.0</ele><time>2026-04-26T16:05:01.999Z</time></trkpt><trkpt lat="44.3252149" lon="8.435441"><ele>136.66666666666666</ele><time>2026-04-26T16:05:02.999Z</time></trkpt><trkpt lat="44.3251802" lon="8.4356961"><ele>135.33333333333331</ele><time>2026-04-26T16:05:03.999Z</time></trkpt><trkpt lat="44.325081" lon="8.4359643"><ele>134.0</ele><time>2026-04-26T16:05:04.999Z</time></trkpt><trkpt lat="44.3249797" lon="8.4361984"><ele>134.0</ele><time>2026-04-26T16:05:05.999Z</time></trkpt><trkpt lat="44.3249117" lon="8.4363892"><ele>134.0</ele><time>2026-04-26T16:05:06.999Z</time></trkpt><trkpt lat="44.3248864" lon="8.4365613"><ele>134.0</ele><time>2026-04-26T16:05:07.999Z</time></trkpt><trkpt lat="44.3249161" lon="8.4367217"><ele>134.0</ele><time>2026-04-26T16:05:08.999Z</time></trkpt><trkpt lat="44.3249933" lon="8.4368736"><ele>134.0</ele><time>2026-04-26T16:05:09.999Z</time></trkpt><trkpt lat="44.3251055" lon="8.4370334"><ele>134.0</ele><time>2026-04-26T16:05:10.999Z</time></trkpt><trkpt lat="44.3252658" lon="8.4372194"><ele>134.0</ele><time>2026-04-26T16:05:11.999Z</time></trkpt><trkpt lat="44.3254131" lon="8.4374297"><ele>136.0</ele><time>2026-04-26T16:05:12.999Z</time></trkpt><trkpt lat="44.3255132" lon="8.437641"><ele>138.0</ele><time>2026-04-26T16:05:13.999Z</time></trkpt><trkpt lat="44.325585" lon="8.4378261"><ele>140.0</ele><time>2026-04-26T16:05:14.999Z</time></trkpt><trkpt lat="44.3256324" lon="8.4380003"><ele>140.0</ele><time>2026-04-26T16:05:15.999Z</time></trkpt><trkpt lat="44.3256625" lon="8.4381469"><ele>140.0</ele><time>2026-04-26T16:05:16.999Z</time></trkpt><trkpt lat="44.325688" lon="8.4382691"><ele>140.0</ele><time>2026-04-26T16:05:17.999Z</time></trkpt><trkpt lat="44.3257157" lon="8.4383864"><ele>140.0</ele><time>2026-04-26T16:05:18.999Z</time></trkpt><trkpt lat="44.3257555" lon="8.4385363"><ele>140.0</ele><time>2026-04-26T16:05:19.999Z</time></trkpt><trkpt lat="44.3258022" lon="8.4387098"><ele>139.33333333333331</ele><time>2026-04-26T16:05:20.999Z</time></trkpt><trkpt lat="44.3258525" lon="8.4389042"><ele>138.66666666666666</ele><time>2026-04-26T16:05:21.999Z</time></trkpt><trkpt lat="44.3259033" lon="8.4391154"><ele>138.0</ele><time>2026-04-26T16:05:22.999Z</time></trkpt><trkpt lat="44.3259489" lon="8.4393285"><ele>138.0</ele><time>2026-04-26T16:05:23.999Z</time></trkpt><trkpt lat="44.3259941" lon="8.439535"><ele>138.0</ele><time>2026-04-26T16:05:24.999Z</time></trkpt><trkpt lat="44.3260387" lon="8.4397378"><ele>138.0</ele><time>2026-04-26T16:05:25.999Z</time></trkpt><trkpt lat="44.3260824" lon="8.4399345"><ele>137.5</ele><time>2026-04-26T16:05:26.999Z</time></trkpt><trkpt lat="44.3261295" lon="8.4401224"><ele>137.0</ele><time>2026-04-26T16:05:27.999Z</time></trkpt><trkpt lat="44.3261749" lon="8.4402898"><ele>136.5</ele><time>2026-04-26T16:05:28.999Z</time></trkpt><trkpt lat="44.3262184" lon="8.4404503"><ele>136.0</ele><time>2026-04-26T16:05:29.999Z</time></trkpt><trkpt lat="44.3262599" lon="8.4406063"><ele>137.25</ele><time>2026-04-26T16:05:30.999Z</time></trkpt><trkpt lat="44.3263089" lon="8.44076"><ele>138.5</ele><time>2026-04-26T16:05:31.999Z</time></trkpt><trkpt lat="44.3263587" lon="8.4409072"><ele>139.75</ele><time>2026-04-26T16:05:32.999Z</time></trkpt><trkpt lat="44.3264082" lon="8.441039"><ele>141.0</ele><time>2026-04-26T16:05:33.999Z</time></trkpt><trkpt lat="44.3264594" lon="8.441172"><ele>137.0</ele><time>2026-04-26T16:05:34.999Z</time></trkpt><trkpt lat="44.3265199" lon="8.4413184"><ele>133.0</ele><time>2026-04-26T16:05:35.999Z</time></trkpt><trkpt lat="44.3265806" lon="8.4414705"><ele>129.0</ele><time>2026-04-26T16:05:36.999Z</time></trkpt><trkpt lat="44.3266343" lon="8.4416341"><ele>125.0</ele><time>2026-04-26T16:05:37.999Z</time></trkpt><trkpt lat="44.3266793" lon="8.4417945"><ele>125.0</ele><time>2026-04-26T16:05:38.999Z</time></trkpt><trkpt lat="44.3267134" lon="8.4419507"><ele>125.0</ele><time>2026-04-26T16:05:39.999Z</time></trkpt><trkpt lat="44.3267196" lon="8.4421104"><ele>125.0</ele><time>2026-04-26T16:05:40.999Z</time></trkpt><trkpt lat="44.326707" lon="8.4422577"><ele>125.0</ele><time>2026-04-26T16:05:41.999Z</time></trkpt><trkpt lat="44.3266795" lon="8.4423948"><ele>125.0</ele><time>2026-04-26T16:05:42.999Z</time></trkpt><trkpt lat="44.3266453" lon="8.4425188"><ele>125.0</ele><time>2026-04-26T16:05:43.999Z</time></trkpt><trkpt lat="44.3266059" lon="8.4426382"><ele>125.0</ele><time>2026-04-26T16:05:44.999Z</time></trkpt><trkpt lat="44.326565" lon="8.4427616"><ele>125.0</ele><time>2026-04-26T16:05:45.999Z</time></trkpt><trkpt lat="44.3265363" lon="8.4428844"><ele>125.0</ele><time>2026-04-26T16:05:46.999Z</time></trkpt><trkpt lat="44.3265279" lon="8.4430055"><ele>125.0</ele><time>2026-04-26T16:05:47.999Z</time></trkpt><trkpt lat="44.3265362" lon="8.4431267"><ele>124.0</ele><time>2026-04-26T16:05:48.999Z</time></trkpt><trkpt lat="44.3265652" lon="8.4432392"><ele>123.0</ele><time>2026-04-26T16:05:49.999Z</time></trkpt><trkpt lat="44.3266212" lon="8.4433312"><ele>122.0</ele><time>2026-04-26T16:05:50.999Z</time></trkpt><trkpt lat="44.3267156" lon="8.4433841"><ele>121.0</ele><time>2026-04-26T16:05:51.999Z</time></trkpt><trkpt lat="44.3268357" lon="8.4434124"><ele>120.0</ele><time>2026-04-26T16:05:52.999Z</time></trkpt><trkpt lat="44.3269594" lon="8.443435"><ele>120.0</ele><time>2026-04-26T16:05:53.999Z</time></trkpt><trkpt lat="44.3270617" lon="8.4434658"><ele>120.0</ele><time>2026-04-26T16:05:54.999Z</time></trkpt><trkpt lat="44.3271363" lon="8.4435248"><ele>120.0</ele><time>2026-04-26T16:05:55.999Z</time></trkpt><trkpt lat="44.3271875" lon="8.4436185"><ele>120.0</ele><time>2026-04-26T16:05:56.999Z</time></trkpt><trkpt lat="44.3272236" lon="8.4437241"><ele>120.0</ele><time>2026-04-26T16:05:57.999Z</time></trkpt><trkpt lat="44.3272483" lon="8.4438357"><ele>120.0</ele><time>2026-04-26T16:05:58.999Z</time></trkpt><trkpt lat="44.3272736" lon="8.4439651"><ele>121.33333333333334</ele><time>2026-04-26T16:05:59.999Z</time></trkpt><trkpt lat="44.3273006" lon="8.4441404"><ele>122.66666666666667</ele><time>2026-04-26T16:06:00.999Z</time></trkpt><trkpt lat="44.3273398" lon="8.444363"><ele>124.0</ele><time>2026-04-26T16:06:01.999Z</time></trkpt><trkpt lat="44.3273726" lon="8.4446024"><ele>121.66666666666667</ele><time>2026-04-26T16:06:02.999Z</time></trkpt><trkpt lat="44.3273824" lon="8.4448319"><ele>119.33333333333334</ele><time>2026-04-26T16:06:03.999Z</time></trkpt><trkpt lat="44.3273563" lon="8.4450501"><ele>117.0</ele><time>2026-04-26T16:06:04.999Z</time></trkpt><trkpt lat="44.3272961" lon="8.4452491"><ele>117.5</ele><time>2026-04-26T16:06:05.999Z</time></trkpt><trkpt lat="44.327226" lon="8.4454288"><ele>118.0</ele><time>2026-04-26T16:06:06.999Z</time></trkpt><trkpt lat="44.3271687" lon="8.4455808"><ele>118.5</ele><time>2026-04-26T16:06:07.999Z</time></trkpt><trkpt lat="44.3271177" lon="8.4457072"><ele>119.0</ele><time>2026-04-26T16:06:08.999Z</time></trkpt><trkpt lat="44.3270782" lon="8.4458162"><ele>119.0</ele><time>2026-04-26T16:06:09.999Z</time></trkpt><trkpt lat="44.3270526" lon="8.4459151"><ele>119.0</ele><time>2026-04-26T16:06:10.999Z</time></trkpt><trkpt lat="44.3270274" lon="8.4460209"><ele>119.0</ele><time>2026-04-26T16:06:11.999Z</time></trkpt><trkpt lat="44.3269971" lon="8.4461526"><ele>119.0</ele><time>2026-04-26T16:06:12.999Z</time></trkpt><trkpt lat="44.326967" lon="8.4463174"><ele>119.0</ele><time>2026-04-26T16:06:13.999Z</time></trkpt><trkpt lat="44.3269478" lon="8.4465243"><ele>116.0</ele><time>2026-04-26T16:06:14.999Z</time></trkpt><trkpt lat="44.3269458" lon="8.4467747"><ele>113.0</ele><time>2026-04-26T16:06:15.999Z</time></trkpt><trkpt lat="44.3269597" lon="8.4470148"><ele>110.0</ele><time>2026-04-26T16:06:16.999Z</time></trkpt><trkpt lat="44.3269776" lon="8.4472357"><ele>108.5</ele><time>2026-04-26T16:06:17.999Z</time></trkpt><trkpt lat="44.326996" lon="8.4474229"><ele>107.0</ele><time>2026-04-26T16:06:18.999Z</time></trkpt><trkpt lat="44.3270048" lon="8.4475749"><ele>105.5</ele><time>2026-04-26T16:06:20Z</time></trkpt><trkpt lat="44.3270085" lon="8.4477131"><ele>104.0</ele><time>2026-04-26T16:06:21Z</time></trkpt><trkpt lat="44.3269951" lon="8.4478609"><ele>102.5</ele><time>2026-04-26T16:06:21.999Z</time></trkpt><trkpt lat="44.3269631" lon="8.4480116"><ele>101.0</ele><time>2026-04-26T16:06:22.999Z</time></trkpt><trkpt lat="44.3269209" lon="8.4481768"><ele>99.5</ele><time>2026-04-26T16:06:24Z</time></trkpt><trkpt lat="44.3268599" lon="8.4483818"><ele>98.0</ele><time>2026-04-26T16:06:24.999Z</time></trkpt><trkpt lat="44.326771" lon="8.4486271"><ele>98.0</ele><time>2026-04-26T16:06:25.999Z</time></trkpt><trkpt lat="44.3266664" lon="8.4488629"><ele>98.0</ele><time>2026-04-26T16:06:26.999Z</time></trkpt><trkpt lat="44.3265684" lon="8.4490626"><ele>98.0</ele><time>2026-04-26T16:06:27.999Z</time></trkpt><trkpt lat="44.3264818" lon="8.4492386"><ele>98.0</ele><time>2026-04-26T16:06:28.999Z</time></trkpt><trkpt lat="44.3264141" lon="8.4493895"><ele>98.0</ele><time>2026-04-26T16:06:29.999Z</time></trkpt><trkpt lat="44.3263545" lon="8.4495287"><ele>98.0</ele><time>2026-04-26T16:06:30.999Z</time></trkpt><trkpt lat="44.3263118" lon="8.4496636"><ele>98.0</ele><time>2026-04-26T16:06:31.999Z</time></trkpt><trkpt lat="44.3262923" lon="8.4498088"><ele>97.5</ele><time>2026-04-26T16:06:32.999Z</time></trkpt><trkpt lat="44.3263082" lon="8.449973"><ele>97.0</ele><time>2026-04-26T16:06:34Z</time></trkpt><trkpt lat="44.326359" lon="8.4501527"><ele>96.5</ele><time>2026-04-26T16:06:34.999Z</time></trkpt><trkpt lat="44.3264241" lon="8.4503333"><ele>96.0</ele><time>2026-04-26T16:06:35.999Z</time></trkpt><trkpt lat="44.3264929" lon="8.4504945"><ele>94.66666666666667</ele><time>2026-04-26T16:06:36.999Z</time></trkpt><trkpt lat="44.3265479" lon="8.4506674"><ele>93.33333333333334</ele><time>2026-04-26T16:06:37.999Z</time></trkpt><trkpt lat="44.3265771" lon="8.4508965"><ele>92.0</ele><time>2026-04-26T16:06:38.999Z</time></trkpt><trkpt lat="44.3265791" lon="8.4511688"><ele>91.0</ele><time>2026-04-26T16:06:39.999Z</time></trkpt><trkpt lat="44.3265493" lon="8.451478"><ele>90.0</ele><time>2026-04-26T16:06:40.999Z</time></trkpt><trkpt lat="44.3265006" lon="8.451805"><ele>91.5</ele><time>2026-04-26T16:06:41.999Z</time></trkpt><trkpt lat="44.3264344" lon="8.452149"><ele>93.0</ele><time>2026-04-26T16:06:42.999Z</time></trkpt><trkpt lat="44.3263667" lon="8.4525004"><ele>94.0</ele><time>2026-04-26T16:06:43.999Z</time></trkpt><trkpt lat="44.3263081" lon="8.4528678"><ele>95.0</ele><time>2026-04-26T16:06:45Z</time></trkpt><trkpt lat="44.3262596" lon="8.4532341"><ele>95.0</ele><time>2026-04-26T16:06:45.999Z</time></trkpt><trkpt lat="44.3262131" lon="8.4535911"><ele>95.0</ele><time>2026-04-26T16:06:46.999Z</time></trkpt><trkpt lat="44.3261756" lon="8.4539071"><ele>90.5</ele><time>2026-04-26T16:06:47.999Z</time></trkpt><trkpt lat="44.3261292" lon="8.4542005"><ele>86.0</ele><time>2026-04-26T16:06:48.999Z</time></trkpt><trkpt lat="44.3260334" lon="8.4545061"><ele>85.0</ele><time>2026-04-26T16:06:49.999Z</time></trkpt><trkpt lat="44.3259251" lon="8.4547781"><ele>84.0</ele><time>2026-04-26T16:06:50.999Z</time></trkpt><trkpt lat="44.3258148" lon="8.4550336"><ele>83.0</ele><time>2026-04-26T16:06:51.999Z</time></trkpt><trkpt lat="44.325707" lon="8.455258"><ele>84.33333333333334</ele><time>2026-04-26T16:06:52.999Z</time></trkpt><trkpt lat="44.3256136" lon="8.45546"><ele>85.66666666666667</ele><time>2026-04-26T16:06:53.999Z</time></trkpt><trkpt lat="44.325518" lon="8.4556311"><ele>87.0</ele><time>2026-04-26T16:06:54.999Z</time></trkpt><trkpt lat="44.3254421" lon="8.4557944"><ele>87.8</ele><time>2026-04-26T16:06:55.999Z</time></trkpt><trkpt lat="44.3253881" lon="8.455955"><ele>88.6</ele><time>2026-04-26T16:06:56.999Z</time></trkpt><trkpt lat="44.3253463" lon="8.4560969"><ele>89.39999999999999</ele><time>2026-04-26T16:06:57.999Z</time></trkpt><trkpt lat="44.3253069" lon="8.4562192"><ele>90.19999999999999</ele><time>2026-04-26T16:06:58.999Z</time></trkpt><trkpt lat="44.3252752" lon="8.4563371"><ele>91.0</ele><time>2026-04-26T16:06:59.999Z</time></trkpt><trkpt lat="44.3252617" lon="8.4564711"><ele>88.8</ele><time>2026-04-26T16:07:00.999Z</time></trkpt><trkpt lat="44.325258" lon="8.4566211"><ele>86.6</ele><time>2026-04-26T16:07:01.999Z</time></trkpt><trkpt lat="44.325257" lon="8.4567773"><ele>84.4</ele><time>2026-04-26T16:07:02.999Z</time></trkpt><trkpt lat="44.3252434" lon="8.4569242"><ele>82.2</ele><time>2026-04-26T16:07:03.999Z</time></trkpt><trkpt lat="44.3252145" lon="8.4570769"><ele>80.0</ele><time>2026-04-26T16:07:04.999Z</time></trkpt><trkpt lat="44.3251678" lon="8.4572221"><ele>77.0</ele><time>2026-04-26T16:07:06Z</time></trkpt><trkpt lat="44.3250937" lon="8.4573697"><ele>74.0</ele><time>2026-04-26T16:07:06.999Z</time></trkpt><trkpt lat="44.3249988" lon="8.4575418"><ele>71.0</ele><time>2026-04-26T16:07:07.999Z</time></trkpt><trkpt lat="44.324902" lon="8.4577544"><ele>72.0</ele><time>2026-04-26T16:07:08.999Z</time></trkpt><trkpt lat="44.3248234" lon="8.4579968"><ele>73.0</ele><time>2026-04-26T16:07:09.999Z</time></trkpt><trkpt lat="44.3247604" lon="8.4582238"><ele>74.0</ele><time>2026-04-26T16:07:10.999Z</time></trkpt><trkpt lat="44.324703" lon="8.4584107"><ele>72.33333333333334</ele><time>2026-04-26T16:07:11.999Z</time></trkpt><trkpt lat="44.3246533" lon="8.458539"><ele>70.66666666666667</ele><time>2026-04-26T16:07:12.999Z</time></trkpt><trkpt lat="44.3246173" lon="8.4586426"><ele>69.0</ele><time>2026-04-26T16:07:13.999Z</time></trkpt><trkpt lat="44.3245816" lon="8.4587345"><ele>67.33333333333333</ele><time>2026-04-26T16:07:14.999Z</time></trkpt><trkpt lat="44.3245383" lon="8.458818"><ele>65.66666666666666</ele><time>2026-04-26T16:07:15.999Z</time></trkpt><trkpt lat="44.3244807" lon="8.4588952"><ele>64.0</ele><time>2026-04-26T16:07:16.999Z</time></trkpt><trkpt lat="44.3244116" lon="8.4589553"><ele>63.2</ele><time>2026-04-26T16:07:17.999Z</time></trkpt><trkpt lat="44.3243281" lon="8.4589854"><ele>62.400000000000006</ele><time>2026-04-26T16:07:18.999Z</time></trkpt><trkpt lat="44.3242356" lon="8.4590003"><ele>61.6</ele><time>2026-04-26T16:07:19.999Z</time></trkpt><trkpt lat="44.3241347" lon="8.4590199"><ele>60.8</ele><time>2026-04-26T16:07:20.999Z</time></trkpt><trkpt lat="44.3240135" lon="8.4590451"><ele>60.0</ele><time>2026-04-26T16:07:21.999Z</time></trkpt><trkpt lat="44.3238502" lon="8.4590714"><ele>57.0</ele><time>2026-04-26T16:07:22.999Z</time></trkpt><trkpt lat="44.3236636" lon="8.4591059"><ele>54.0</ele><time>2026-04-26T16:07:23.999Z</time></trkpt><trkpt lat="44.323489" lon="8.4591137"><ele>51.0</ele><time>2026-04-26T16:07:24.999Z</time></trkpt><trkpt lat="44.3233419" lon="8.4591138"><ele>51.0</ele><time>2026-04-26T16:07:26Z</time></trkpt><trkpt lat="44.3232159" lon="8.4591117"><ele>51.0</ele><time>2026-04-26T16:07:26.999Z</time></trkpt><trkpt lat="44.3231081" lon="8.4591129"><ele>51.0</ele><time>2026-04-26T16:07:27.999Z</time></trkpt><trkpt lat="44.3230258" lon="8.4591206"><ele>51.0</ele><time>2026-04-26T16:07:28.999Z</time></trkpt><trkpt lat="44.3229563" lon="8.4591389"><ele>51.0</ele><time>2026-04-26T16:07:29.999Z</time></trkpt><trkpt lat="44.3228484" lon="8.459213"><ele>51.333333333333336</ele><time>2026-04-26T16:07:31.999Z</time></trkpt><trkpt lat="44.3228001" lon="8.4592721"><ele>51.66666666666667</ele><time>2026-04-26T16:07:32.999Z</time></trkpt><trkpt lat="44.3227534" lon="8.4593515"><ele>52.0</ele><time>2026-04-26T16:07:33.999Z</time></trkpt><trkpt lat="44.3227084" lon="8.459451"><ele>52.333333333333336</ele><time>2026-04-26T16:07:34.999Z</time></trkpt><trkpt lat="44.3226551" lon="8.4595685"><ele>52.66666666666667</ele><time>2026-04-26T16:07:35.999Z</time></trkpt><trkpt lat="44.3225895" lon="8.45971"><ele>53.0</ele><time>2026-04-26T16:07:36.999Z</time></trkpt><trkpt lat="44.3225422" lon="8.4598553"><ele>51.16666666666667</ele><time>2026-04-26T16:07:37.999Z</time></trkpt><trkpt lat="44.3225183" lon="8.4599944"><ele>49.333333333333336</ele><time>2026-04-26T16:07:38.999Z</time></trkpt><trkpt lat="44.3225192" lon="8.4601246"><ele>47.5</ele><time>2026-04-26T16:07:39.999Z</time></trkpt><trkpt lat="44.3225398" lon="8.4602387"><ele>45.66666666666667</ele><time>2026-04-26T16:07:40.999Z</time></trkpt><trkpt lat="44.322568" lon="8.4603449"><ele>43.833333333333336</ele><time>2026-04-26T16:07:41.999Z</time></trkpt><trkpt lat="44.3226094" lon="8.4604296"><ele>42.0</ele><time>2026-04-26T16:07:43Z</time></trkpt><trkpt lat="44.3226492" lon="8.4605104"><ele>41.5</ele><time>2026-04-26T16:07:43.999Z</time></trkpt><trkpt lat="44.3226787" lon="8.4605924"><ele>41.0</ele><time>2026-04-26T16:07:44.999Z</time></trkpt><trkpt lat="44.3227038" lon="8.4607538"><ele>40.5</ele><time>2026-04-26T16:07:46.999Z</time></trkpt><trkpt lat="44.3226923" lon="8.4608404"><ele>40.0</ele><time>2026-04-26T16:07:47.999Z</time></trkpt><trkpt lat="44.3226581" lon="8.4609293"><ele>39.5</ele><time>2026-04-26T16:07:48.999Z</time></trkpt><trkpt lat="44.322604" lon="8.4610125"><ele>39.0</ele><time>2026-04-26T16:07:49.999Z</time></trkpt><trkpt lat="44.3225285" lon="8.4610892"><ele>39.0</ele><time>2026-04-26T16:07:50.999Z</time></trkpt><trkpt lat="44.3224336" lon="8.4611595"><ele>39.0</ele><time>2026-04-26T16:07:51.999Z</time></trkpt><trkpt lat="44.3223226" lon="8.461238"><ele>39.0</ele><time>2026-04-26T16:07:52.999Z</time></trkpt><trkpt lat="44.3222099" lon="8.4613184"><ele>39.0</ele><time>2026-04-26T16:07:53.999Z</time></trkpt><trkpt lat="44.3221003" lon="8.4613947"><ele>40.0</ele><time>2026-04-26T16:07:54.999Z</time></trkpt><trkpt lat="44.3219972" lon="8.4614698"><ele>41.0</ele><time>2026-04-26T16:07:55.999Z</time></trkpt><trkpt lat="44.3218916" lon="8.4615475"><ele>42.0</ele><time>2026-04-26T16:07:56.999Z</time></trkpt><trkpt lat="44.3217813" lon="8.4616231"><ele>43.0</ele><time>2026-04-26T16:07:58Z</time></trkpt><trkpt lat="44.3216704" lon="8.4617041"><ele>43.0</ele><time>2026-04-26T16:07:58.999Z</time></trkpt><trkpt lat="44.3215651" lon="8.4617852"><ele>43.0</ele><time>2026-04-26T16:07:59.999Z</time></trkpt><trkpt lat="44.3214636" lon="8.4618627"><ele>43.0</ele><time>2026-04-26T16:08:00.999Z</time></trkpt><trkpt lat="44.3213724" lon="8.4619379"><ele>43.0</ele><time>2026-04-26T16:08:01.998Z</time></trkpt><trkpt lat="44.3212865" lon="8.4620149"><ele>43.0</ele><time>2026-04-26T16:08:02.998Z</time></trkpt><trkpt lat="44.3212219" lon="8.462101"><ele>42.0</ele><time>2026-04-26T16:08:03.998Z</time></trkpt><trkpt lat="44.3211748" lon="8.4621829"><ele>41.0</ele><time>2026-04-26T16:08:04.998Z</time></trkpt><trkpt lat="44.3211403" lon="8.4622826"><ele>40.0</ele><time>2026-04-26T16:08:05.998Z</time></trkpt><trkpt lat="44.3211131" lon="8.4623909"><ele>39.0</ele><time>2026-04-26T16:08:06.998Z</time></trkpt><trkpt lat="44.3210945" lon="8.4625088"><ele>38.0</ele><time>2026-04-26T16:08:07.998Z</time></trkpt><trkpt lat="44.3210792" lon="8.4626403"><ele>37.0</ele><time>2026-04-26T16:08:08.998Z</time></trkpt><trkpt lat="44.3210679" lon="8.4627797"><ele>37.0</ele><time>2026-04-26T16:08:09.999Z</time></trkpt><trkpt lat="44.3210637" lon="8.4629268"><ele>37.0</ele><time>2026-04-26T16:08:10.998Z</time></trkpt><trkpt lat="44.3210642" lon="8.4630655"><ele>37.0</ele><time>2026-04-26T16:08:11.998Z</time></trkpt><trkpt lat="44.3210666" lon="8.4632057"><ele>37.0</ele><time>2026-04-26T16:08:12.998Z</time></trkpt><trkpt lat="44.3210628" lon="8.4633492"><ele>37.0</ele><time>2026-04-26T16:08:13.998Z</time></trkpt><trkpt lat="44.3210536" lon="8.4634944"><ele>36.6</ele><time>2026-04-26T16:08:14.998Z</time></trkpt><trkpt lat="44.3210421" lon="8.4636392"><ele>36.2</ele><time>2026-04-26T16:08:15.998Z</time></trkpt><trkpt lat="44.3210291" lon="8.4637818"><ele>35.8</ele><time>2026-04-26T16:08:16.998Z</time></trkpt><trkpt lat="44.3210112" lon="8.4639286"><ele>35.4</ele><time>2026-04-26T16:08:17.998Z</time></trkpt><trkpt lat="44.3209892" lon="8.4640815"><ele>35.0</ele><time>2026-04-26T16:08:18.998Z</time></trkpt><trkpt lat="44.3209678" lon="8.4642345"><ele>33.4</ele><time>2026-04-26T16:08:19.999Z</time></trkpt><trkpt lat="44.3209475" lon="8.4643838"><ele>31.8</ele><time>2026-04-26T16:08:20.998Z</time></trkpt><trkpt lat="44.320929" lon="8.4645305"><ele>30.200000000000003</ele><time>2026-04-26T16:08:21.998Z</time></trkpt><trkpt lat="44.3209086" lon="8.4646704"><ele>28.6</ele><time>2026-04-26T16:08:22.998Z</time></trkpt><trkpt lat="44.3208892" lon="8.4648014"><ele>27.0</ele><time>2026-04-26T16:08:23.998Z</time></trkpt><trkpt lat="44.3208743" lon="8.4649206"><ele>26.666666666666668</ele><time>2026-04-26T16:08:24.998Z</time></trkpt><trkpt lat="44.320857" lon="8.4650293"><ele>26.333333333333336</ele><time>2026-04-26T16:08:25.999Z</time></trkpt><trkpt lat="44.3208391" lon="8.4651274"><ele>26.0</ele><time>2026-04-26T16:08:26.999Z</time></trkpt><trkpt lat="44.3208125" lon="8.4653072"><ele>25.666666666666668</ele><time>2026-04-26T16:08:28.998Z</time></trkpt><trkpt lat="44.3207999" lon="8.465413"><ele>25.333333333333336</ele><time>2026-04-26T16:08:29.998Z</time></trkpt><trkpt lat="44.3207889" lon="8.465521"><ele>25.0</ele><time>2026-04-26T16:08:30.998Z</time></trkpt><trkpt lat="44.3207758" lon="8.465635"><ele>25.000000000000004</ele><time>2026-04-26T16:08:31.998Z</time></trkpt><trkpt lat="44.3207511" lon="8.4657478"><ele>25.0</ele><time>2026-04-26T16:08:32.998Z</time></trkpt><trkpt lat="44.3206991" lon="8.4658529"><ele>25.0</ele><time>2026-04-26T16:08:33.998Z</time></trkpt><trkpt lat="44.3206607" lon="8.465958"><ele>25.0</ele><time>2026-04-26T16:08:34.998Z</time></trkpt><trkpt lat="44.3206417" lon="8.4660482"><ele>25.000000000000004</ele><time>2026-04-26T16:08:35.998Z</time></trkpt><trkpt lat="44.3206197" lon="8.4662058"><ele>25.0</ele><time>2026-04-26T16:08:37.998Z</time></trkpt><trkpt lat="44.3205997" lon="8.4663602"><ele>25.000000000000004</ele><time>2026-04-26T16:08:39.998Z</time></trkpt><trkpt lat="44.3206203" lon="8.4662278"><ele>25.0</ele><time>2026-04-26T16:08:56.998Z</time></trkpt><trkpt lat="44.3206384" lon="8.4661304"><ele>25.0</ele><time>2026-04-26T16:08:57.998Z</time></trkpt><trkpt lat="44.320663" lon="8.4660314"><ele>25.0</ele><time>2026-04-26T16:08:58.998Z</time></trkpt><trkpt lat="44.3206909" lon="8.4658931"><ele>25.000000000000004</ele><time>2026-04-26T16:09:00.998Z</time></trkpt><trkpt lat="44.3206617" lon="8.4660267"><ele>25.0</ele><time>2026-04-26T16:20:01.997Z</time></trkpt><trkpt lat="44.3206565" lon="8.4661573"><ele>25.0</ele><time>2026-04-26T16:20:03.997Z</time></trkpt><trkpt lat="44.3206623" lon="8.4662915"><ele>25.0</ele><time>2026-04-26T16:20:05.997Z</time></trkpt><trkpt lat="44.3206644" lon="8.4664445"><ele>25.0</ele><time>2026-04-26T16:20:07.997Z</time></trkpt><trkpt lat="44.320662" lon="8.4665508"><ele>25.0</ele><time>2026-04-26T16:20:08.997Z</time></trkpt><trkpt lat="44.3206581" lon="8.4666808"><ele>25.0</ele><time>2026-04-26T16:20:09.997Z</time></trkpt><trkpt lat="44.3206411" lon="8.4668328"><ele>25.0</ele><time>2026-04-26T16:20:10.997Z</time></trkpt><trkpt lat="44.3206262" lon="8.4669978"><ele>25.0</ele><time>2026-04-26T16:20:11.997Z</time></trkpt><trkpt lat="44.3205972" lon="8.4671447"><ele>25.0</ele><time>2026-04-26T16:20:12.997Z</time></trkpt><trkpt lat="44.3205498" lon="8.4672726"><ele>25.0</ele><time>2026-04-26T16:20:13.997Z</time></trkpt><trkpt lat="44.3204964" lon="8.4673884"><ele>25.0</ele><time>2026-04-26T16:20:14.997Z</time></trkpt><trkpt lat="44.3204315" lon="8.467497"><ele>24.0</ele><time>2026-04-26T16:20:15.997Z</time></trkpt><trkpt lat="44.3203532" lon="8.4675931"><ele>23.0</ele><time>2026-04-26T16:20:16.997Z</time></trkpt><trkpt lat="44.3202572" lon="8.4676726"><ele>22.0</ele><time>2026-04-26T16:20:17.997Z</time></trkpt><trkpt lat="44.3201517" lon="8.4677507"><ele>21.0</ele><time>2026-04-26T16:20:18.997Z</time></trkpt><trkpt lat="44.3200493" lon="8.4678381"><ele>21.0</ele><time>2026-04-26T16:20:19.997Z</time></trkpt><trkpt lat="44.3199386" lon="8.4679309"><ele>21.0</ele><time>2026-04-26T16:20:20.997Z</time></trkpt><trkpt lat="44.3198116" lon="8.4680265"><ele>21.0</ele><time>2026-04-26T16:20:21.997Z</time></trkpt><trkpt lat="44.3196855" lon="8.4681193"><ele>21.0</ele><time>2026-04-26T16:20:22.997Z</time></trkpt><trkpt lat="44.319555" lon="8.4682088"><ele>20.25</ele><time>2026-04-26T16:20:23.997Z</time></trkpt><trkpt lat="44.3194401" lon="8.4682875"><ele>19.5</ele><time>2026-04-26T16:20:24.997Z</time></trkpt><trkpt lat="44.3193223" lon="8.4683771"><ele>18.75</ele><time>2026-04-26T16:20:25.997Z</time></trkpt><trkpt lat="44.3192063" lon="8.4684676"><ele>18.0</ele><time>2026-04-26T16:20:26.997Z</time></trkpt><trkpt lat="44.3190924" lon="8.4685648"><ele>18.0</ele><time>2026-04-26T16:20:27.997Z</time></trkpt><trkpt lat="44.3189709" lon="8.4686779"><ele>18.0</ele><time>2026-04-26T16:20:28.997Z</time></trkpt><trkpt lat="44.3188452" lon="8.4687831"><ele>18.0</ele><time>2026-04-26T16:20:29.997Z</time></trkpt><trkpt lat="44.3187237" lon="8.4688932"><ele>18.0</ele><time>2026-04-26T16:20:30.997Z</time></trkpt><trkpt lat="44.3186115" lon="8.4689994"><ele>17.75</ele><time>2026-04-26T16:20:31.997Z</time></trkpt><trkpt lat="44.3185027" lon="8.4691041"><ele>17.5</ele><time>2026-04-26T16:20:32.997Z</time></trkpt><trkpt lat="44.3183926" lon="8.4692091"><ele>17.25</ele><time>2026-04-26T16:20:33.997Z</time></trkpt><trkpt lat="44.3182742" lon="8.4693102"><ele>17.0</ele><time>2026-04-26T16:20:34.997Z</time></trkpt><trkpt lat="44.3181498" lon="8.469413"><ele>17.333333333333336</ele><time>2026-04-26T16:20:35.997Z</time></trkpt><trkpt lat="44.3180032" lon="8.4695311"><ele>17.666666666666668</ele><time>2026-04-26T16:20:36.997Z</time></trkpt><trkpt lat="44.3178553" lon="8.4696413"><ele>18.0</ele><time>2026-04-26T16:20:37.997Z</time></trkpt><trkpt lat="44.3177397" lon="8.4697278"><ele>18.0</ele><time>2026-04-26T16:20:38.997Z</time></trkpt><trkpt lat="44.3176228" lon="8.4698221"><ele>18.0</ele><time>2026-04-26T16:20:39.997Z</time></trkpt><trkpt lat="44.3175035" lon="8.4699091"><ele>18.0</ele><time>2026-04-26T16:20:40.998Z</time></trkpt><trkpt lat="44.317382" lon="8.4699983"><ele>18.0</ele><time>2026-04-26T16:20:41.997Z</time></trkpt><trkpt lat="44.3172916" lon="8.4700969"><ele>18.5</ele><time>2026-04-26T16:20:42.997Z</time></trkpt><trkpt lat="44.3171765" lon="8.4701978"><ele>19.0</ele><time>2026-04-26T16:20:43.997Z</time></trkpt><trkpt lat="44.3170626" lon="8.4702978"><ele>19.5</ele><time>2026-04-26T16:20:44.997Z</time></trkpt><trkpt lat="44.3169566" lon="8.470399"><ele>20.0</ele><time>2026-04-26T16:20:45.997Z</time></trkpt><trkpt lat="44.3168459" lon="8.4705038"><ele>20.0</ele><time>2026-04-26T16:20:46.997Z</time></trkpt><trkpt lat="44.3167425" lon="8.4706007"><ele>20.0</ele><time>2026-04-26T16:20:47.997Z</time></trkpt><trkpt lat="44.3166412" lon="8.4706917"><ele>20.0</ele><time>2026-04-26T16:20:48.997Z</time></trkpt><trkpt lat="44.3165265" lon="8.4707631"><ele>20.0</ele><time>2026-04-26T16:20:49.997Z</time></trkpt><trkpt lat="44.3164376" lon="8.4708381"><ele>21.0</ele><time>2026-04-26T16:20:50.997Z</time></trkpt><trkpt lat="44.3163475" lon="8.4709176"><ele>22.0</ele><time>2026-04-26T16:20:51.997Z</time></trkpt><trkpt lat="44.3162636" lon="8.4710002"><ele>23.0</ele><time>2026-04-26T16:20:52.997Z</time></trkpt><trkpt lat="44.3161779" lon="8.4710585"><ele>24.0</ele><time>2026-04-26T16:20:53.997Z</time></trkpt><trkpt lat="44.3160814" lon="8.4711152"><ele>25.0</ele><time>2026-04-26T16:20:54.997Z</time></trkpt><trkpt lat="44.3159796" lon="8.4711827"><ele>25.0</ele><time>2026-04-26T16:20:55.997Z</time></trkpt><trkpt lat="44.3158699" lon="8.4712444"><ele>25.0</ele><time>2026-04-26T16:20:56.997Z</time></trkpt><trkpt lat="44.3157452" lon="8.4713278"><ele>25.0</ele><time>2026-04-26T16:20:57.997Z</time></trkpt><trkpt lat="44.3156101" lon="8.4714244"><ele>25.0</ele><time>2026-04-26T16:20:58.997Z</time></trkpt><trkpt lat="44.3154826" lon="8.4715309"><ele>23.0</ele><time>2026-04-26T16:20:59.997Z</time></trkpt><trkpt lat="44.315365" lon="8.4716106"><ele>21.0</ele><time>2026-04-26T16:21:00.997Z</time></trkpt><trkpt lat="44.3152682" lon="8.4716887"><ele>19.0</ele><time>2026-04-26T16:21:01.997Z</time></trkpt><trkpt lat="44.3151618" lon="8.4717607"><ele>17.0</ele><time>2026-04-26T16:21:02.997Z</time></trkpt><trkpt lat="44.3150623" lon="8.4718293"><ele>17.0</ele><time>2026-04-26T16:21:03.997Z</time></trkpt><trkpt lat="44.3149621" lon="8.4718954"><ele>17.0</ele><time>2026-04-26T16:21:04.997Z</time></trkpt><trkpt lat="44.314854" lon="8.4719536"><ele>17.0</ele><time>2026-04-26T16:21:05.997Z</time></trkpt><trkpt lat="44.3147566" lon="8.4720095"><ele>17.0</ele><time>2026-04-26T16:21:06.997Z</time></trkpt><trkpt lat="44.3146678" lon="8.4720592"><ele>17.0</ele><time>2026-04-26T16:21:07.997Z</time></trkpt><trkpt lat="44.3145871" lon="8.4720942"><ele>16.5</ele><time>2026-04-26T16:21:08.997Z</time></trkpt><trkpt lat="44.3145069" lon="8.4721339"><ele>16.0</ele><time>2026-04-26T16:21:09.997Z</time></trkpt><trkpt lat="44.314429" lon="8.4721704"><ele>15.5</ele><time>2026-04-26T16:21:10.997Z</time></trkpt><trkpt lat="44.3143584" lon="8.4722028"><ele>15.0</ele><time>2026-04-26T16:21:11.997Z</time></trkpt><trkpt lat="44.3142627" lon="8.4722641"><ele>14.500000000000002</ele><time>2026-04-26T16:21:13.998Z</time></trkpt><trkpt lat="44.31419" lon="8.4722783"><ele>14.0</ele><time>2026-04-26T16:21:51.997Z</time></trkpt><trkpt lat="44.314085" lon="8.4722333"><ele>14.0</ele><time>2026-04-26T16:21:53.997Z</time></trkpt><trkpt lat="44.31404" lon="8.472145"><ele>14.0</ele><time>2026-04-26T16:21:54.998Z</time></trkpt><trkpt lat="44.31398" lon="8.4720267"><ele>14.0</ele><time>2026-04-26T16:21:55.997Z</time></trkpt><trkpt lat="44.3139133" lon="8.4718467"><ele>14.0</ele><time>2026-04-26T16:21:56.998Z</time></trkpt><trkpt lat="44.3138467" lon="8.4716"><ele>14.75</ele><time>2026-04-26T16:21:57.997Z</time></trkpt><trkpt lat="44.3137833" lon="8.4713667"><ele>15.5</ele><time>2026-04-26T16:21:58.997Z</time></trkpt><trkpt lat="44.3137467" lon="8.4711917"><ele>16.25</ele><time>2026-04-26T16:21:59.997Z</time></trkpt><trkpt lat="44.313705" lon="8.4710667"><ele>17.0</ele><time>2026-04-26T16:22:00.997Z</time></trkpt><trkpt lat="44.313665" lon="8.4709717"><ele>17.0</ele><time>2026-04-26T16:22:01.997Z</time></trkpt><trkpt lat="44.3136217" lon="8.4708783"><ele>17.0</ele><time>2026-04-26T16:22:02.997Z</time></trkpt><trkpt lat="44.3135617" lon="8.4708117"><ele>17.0</ele><time>2026-04-26T16:22:03.997Z</time></trkpt><trkpt lat="44.3134733" lon="8.4707833"><ele>17.0</ele><time>2026-04-26T16:22:04.997Z</time></trkpt><trkpt lat="44.313365" lon="8.4707683"><ele>17.0</ele><time>2026-04-26T16:22:05.997Z</time></trkpt><trkpt lat="44.3132217" lon="8.470785"><ele>17.0</ele><time>2026-04-26T16:22:06.997Z</time></trkpt><trkpt lat="44.3130733" lon="8.47078"><ele>17.0</ele><time>2026-04-26T16:22:07.997Z</time></trkpt><trkpt lat="44.3129283" lon="8.47078"><ele>17.0</ele><time>2026-04-26T16:22:08.997Z</time></trkpt><trkpt lat="44.3127917" lon="8.4707767"><ele>17.0</ele><time>2026-04-26T16:22:09.997Z</time></trkpt><trkpt lat="44.3126667" lon="8.4707633"><ele>16.6</ele><time>2026-04-26T16:22:10.997Z</time></trkpt><trkpt lat="44.3125733" lon="8.4707017"><ele>16.2</ele><time>2026-04-26T16:22:11.997Z</time></trkpt><trkpt lat="44.3124633" lon="8.4707117"><ele>15.8</ele><time>2026-04-26T16:22:12.997Z</time></trkpt><trkpt lat="44.3123717" lon="8.4707183"><ele>15.4</ele><time>2026-04-26T16:22:13.997Z</time></trkpt><trkpt lat="44.31229" lon="8.47073"><ele>15.0</ele><time>2026-04-26T16:22:14.997Z</time></trkpt><trkpt lat="44.3121817" lon="8.47072"><ele>14.8</ele><time>2026-04-26T16:22:16.997Z</time></trkpt><trkpt lat="44.3121183" lon="8.4707"><ele>14.6</ele><time>2026-04-26T16:22:19.997Z</time></trkpt><trkpt lat="44.312065" lon="8.4706167"><ele>14.399999999999999</ele><time>2026-04-26T16:22:21.997Z</time></trkpt><trkpt lat="44.311985" lon="8.470465"><ele>14.2</ele><time>2026-04-26T16:22:23.997Z</time></trkpt><trkpt lat="44.3119483" lon="8.4703517"><ele>14.0</ele><time>2026-04-26T16:22:24.997Z</time></trkpt><trkpt lat="44.3119033" lon="8.4702383"><ele>14.75</ele><time>2026-04-26T16:22:25.997Z</time></trkpt><trkpt lat="44.3118617" lon="8.4701267"><ele>15.5</ele><time>2026-04-26T16:22:26.997Z</time></trkpt><trkpt lat="44.3118183" lon="8.47002"><ele>16.25</ele><time>2026-04-26T16:22:27.998Z</time></trkpt><trkpt lat="44.311665" lon="8.4697167"><ele>17.0</ele><time>2026-04-26T16:22:30.999Z</time></trkpt><trkpt lat="44.31143" lon="8.469525"><ele>17.75</ele><time>2026-04-26T16:22:31.999Z</time></trkpt><trkpt lat="44.3112933" lon="8.4694067"><ele>18.5</ele><time>2026-04-26T16:22:33Z</time></trkpt><trkpt lat="44.3111867" lon="8.4693283"><ele>19.25</ele><time>2026-04-26T16:22:33.999Z</time></trkpt><trkpt lat="44.3110717" lon="8.4692883"><ele>20.0</ele><time>2026-04-26T16:22:34.999Z</time></trkpt><trkpt lat="44.31092" lon="8.46927"><ele>20.0</ele><time>2026-04-26T16:22:35.999Z</time></trkpt><trkpt lat="44.3107717" lon="8.4692717"><ele>20.0</ele><time>2026-04-26T16:22:36.999Z</time></trkpt><trkpt lat="44.310635" lon="8.469265"><ele>20.0</ele><time>2026-04-26T16:22:37.999Z</time></trkpt><trkpt lat="44.3104917" lon="8.469255"><ele>20.0</ele><time>2026-04-26T16:22:39Z</time></trkpt><trkpt lat="44.3103617" lon="8.4692833"><ele>19.5</ele><time>2026-04-26T16:22:39.999Z</time></trkpt><trkpt lat="44.3102417" lon="8.4692733"><ele>19.0</ele><time>2026-04-26T16:22:40.999Z</time></trkpt><trkpt lat="44.3101083" lon="8.4692967"><ele>18.5</ele><time>2026-04-26T16:22:41.999Z</time></trkpt><trkpt lat="44.30998" lon="8.4693083"><ele>18.0</ele><time>2026-04-26T16:22:42.999Z</time></trkpt><trkpt lat="44.3098417" lon="8.4692983"><ele>17.75</ele><time>2026-04-26T16:22:43.999Z</time></trkpt><trkpt lat="44.3097053" lon="8.4693005"><ele>17.5</ele><time>2026-04-26T16:22:44.999Z</time></trkpt><trkpt lat="44.3095723" lon="8.469293"><ele>17.25</ele><time>2026-04-26T16:22:45.999Z</time></trkpt><trkpt lat="44.3094332" lon="8.4692771"><ele>17.0</ele><time>2026-04-26T16:22:46.999Z</time></trkpt><trkpt lat="44.3092991" lon="8.4692703"><ele>17.0</ele><time>2026-04-26T16:22:47.999Z</time></trkpt><trkpt lat="44.3091636" lon="8.4692686"><ele>17.0</ele><time>2026-04-26T16:22:48.999Z</time></trkpt><trkpt lat="44.3090346" lon="8.4692628"><ele>17.0</ele><time>2026-04-26T16:22:49.999Z</time></trkpt><trkpt lat="44.3089183" lon="8.4692483"><ele>17.0</ele><time>2026-04-26T16:22:50.999Z</time></trkpt><trkpt lat="44.3088" lon="8.4692462"><ele>17.8</ele><time>2026-04-26T16:22:51.999Z</time></trkpt><trkpt lat="44.3086818" lon="8.4692482"><ele>18.6</ele><time>2026-04-26T16:22:52.999Z</time></trkpt><trkpt lat="44.3085731" lon="8.4692519"><ele>19.400000000000002</ele><time>2026-04-26T16:22:53.999Z</time></trkpt><trkpt lat="44.3084631" lon="8.4692551"><ele>20.2</ele><time>2026-04-26T16:22:54.999Z</time></trkpt><trkpt lat="44.3083598" lon="8.469245"><ele>21.0</ele><time>2026-04-26T16:22:55.999Z</time></trkpt><trkpt lat="44.3082504" lon="8.4692402"><ele>21.0</ele><time>2026-04-26T16:22:56.999Z</time></trkpt><trkpt lat="44.3081426" lon="8.4692421"><ele>21.0</ele><time>2026-04-26T16:22:57.999Z</time></trkpt><trkpt lat="44.3080364" lon="8.4692337"><ele>21.0</ele><time>2026-04-26T16:22:58.999Z</time></trkpt><trkpt lat="44.3079467" lon="8.4692199"><ele>21.0</ele><time>2026-04-26T16:22:59.999Z</time></trkpt><trkpt lat="44.3078696" lon="8.469194"><ele>21.0</ele><time>2026-04-26T16:23:00.999Z</time></trkpt><trkpt lat="44.3077726" lon="8.469112"><ele>21.6</ele><time>2026-04-26T16:23:02.999Z</time></trkpt><trkpt lat="44.307712" lon="8.4689599"><ele>22.200000000000003</ele><time>2026-04-26T16:23:04.999Z</time></trkpt><trkpt lat="44.3076706" lon="8.4688666"><ele>22.799999999999997</ele><time>2026-04-26T16:23:05.999Z</time></trkpt><trkpt lat="44.3076248" lon="8.4687625"><ele>23.4</ele><time>2026-04-26T16:23:06.999Z</time></trkpt><trkpt lat="44.3075791" lon="8.4686534"><ele>24.0</ele><time>2026-04-26T16:23:07.999Z</time></trkpt><trkpt lat="44.3075331" lon="8.4685555"><ele>26.0</ele><time>2026-04-26T16:23:08.999Z</time></trkpt><trkpt lat="44.3074854" lon="8.4684905"><ele>28.0</ele><time>2026-04-26T16:23:09.999Z</time></trkpt><trkpt lat="44.3074408" lon="8.4684277"><ele>30.0</ele><time>2026-04-26T16:23:10.999Z</time></trkpt><trkpt lat="44.3073401" lon="8.4683427"><ele>32.0</ele><time>2026-04-26T16:23:12.999Z</time></trkpt><trkpt lat="44.3072622" lon="8.4683508"><ele>34.0</ele><time>2026-04-26T16:23:13.999Z</time></trkpt><trkpt lat="44.3071682" lon="8.4683931"><ele>36.0</ele><time>2026-04-26T16:23:14.999Z</time></trkpt><trkpt lat="44.3070607" lon="8.4684564"><ele>38.25</ele><time>2026-04-26T16:23:15.999Z</time></trkpt><trkpt lat="44.3069484" lon="8.4685234"><ele>40.5</ele><time>2026-04-26T16:23:16.999Z</time></trkpt><trkpt lat="44.3068224" lon="8.4685742"><ele>42.75</ele><time>2026-04-26T16:23:17.999Z</time></trkpt><trkpt lat="44.3067177" lon="8.4686038"><ele>45.0</ele><time>2026-04-26T16:23:18.999Z</time></trkpt><trkpt lat="44.3066114" lon="8.4686085"><ele>45.0</ele><time>2026-04-26T16:23:19.999Z</time></trkpt><trkpt lat="44.3065124" lon="8.4685923"><ele>45.0</ele><time>2026-04-26T16:23:20.999Z</time></trkpt><trkpt lat="44.3064193" lon="8.4685653"><ele>45.0</ele><time>2026-04-26T16:23:21.999Z</time></trkpt><trkpt lat="44.3063417" lon="8.4685206"><ele>45.0</ele><time>2026-04-26T16:23:22.999Z</time></trkpt><trkpt lat="44.3062756" lon="8.4684902"><ele>45.0</ele><time>2026-04-26T16:23:23.999Z</time></trkpt><trkpt lat="44.3062167" lon="8.4683855"><ele>45.0</ele><time>2026-04-26T16:23:25.999Z</time></trkpt><trkpt lat="44.3062516" lon="8.4682525"><ele>45.0</ele><time>2026-04-26T16:23:27.999Z</time></trkpt><trkpt lat="44.3063057" lon="8.4681744"><ele>45.0</ele><time>2026-04-26T16:23:28.999Z</time></trkpt><trkpt lat="44.3063713" lon="8.4680914"><ele>45.0</ele><time>2026-04-26T16:23:29.999Z</time></trkpt><trkpt lat="44.3064434" lon="8.4679953"><ele>45.0</ele><time>2026-04-26T16:23:30.999Z</time></trkpt><trkpt lat="44.3064978" lon="8.467891"><ele>45.0</ele><time>2026-04-26T16:23:31.999Z</time></trkpt><trkpt lat="44.3065509" lon="8.4678016"><ele>45.0</ele><time>2026-04-26T16:23:32.999Z</time></trkpt><trkpt lat="44.3066017" lon="8.4677304"><ele>46.6</ele><time>2026-04-26T16:23:33.999Z</time></trkpt><trkpt lat="44.3066762" lon="8.4676291"><ele>48.2</ele><time>2026-04-26T16:23:35.999Z</time></trkpt><trkpt lat="44.3067471" lon="8.4675445"><ele>49.8</ele><time>2026-04-26T16:23:37.999Z</time></trkpt><trkpt lat="44.3068116" lon="8.4674365"><ele>51.4</ele><time>2026-04-26T16:23:39.999Z</time></trkpt><trkpt lat="44.3068205" lon="8.4673062"><ele>53.0</ele><time>2026-04-26T16:23:41.999Z</time></trkpt><trkpt lat="44.3067364" lon="8.4671609"><ele>53.16666666666667</ele><time>2026-04-26T16:23:43.999Z</time></trkpt><trkpt lat="44.3066672" lon="8.4670776"><ele>53.333333333333336</ele><time>2026-04-26T16:23:44.999Z</time></trkpt><trkpt lat="44.3066014" lon="8.4670011"><ele>53.5</ele><time>2026-04-26T16:23:45.999Z</time></trkpt><trkpt lat="44.3065351" lon="8.466927"><ele>53.66666666666667</ele><time>2026-04-26T16:23:46.999Z</time></trkpt><trkpt lat="44.3064747" lon="8.4668544"><ele>53.833333333333336</ele><time>2026-04-26T16:23:47.999Z</time></trkpt><trkpt lat="44.3064288" lon="8.4667518"><ele>54.0</ele><time>2026-04-26T16:23:49Z</time></trkpt><trkpt lat="44.3063994" lon="8.4666478"><ele>54.0</ele><time>2026-04-26T16:23:49.999Z</time></trkpt><trkpt lat="44.3063951" lon="8.4665368"><ele>54.00000000000001</ele><time>2026-04-26T16:23:50.999Z</time></trkpt><trkpt lat="44.3064118" lon="8.4664127"><ele>54.00000000000001</ele><time>2026-04-26T16:23:51.999Z</time></trkpt><trkpt lat="44.3064531" lon="8.4662757"><ele>54.0</ele><time>2026-04-26T16:23:52.999Z</time></trkpt><trkpt lat="44.3065098" lon="8.4661383"><ele>54.0</ele><time>2026-04-26T16:23:53.999Z</time></trkpt><trkpt lat="44.3065711" lon="8.4660102"><ele>54.0</ele><time>2026-04-26T16:23:54.999Z</time></trkpt><trkpt lat="44.3066257" lon="8.465883"><ele>54.00000000000001</ele><time>2026-04-26T16:23:55.999Z</time></trkpt><trkpt lat="44.3066738" lon="8.4657609"><ele>54.00000000000001</ele><time>2026-04-26T16:23:56.998Z</time></trkpt><trkpt lat="44.306713" lon="8.4656569"><ele>54.0</ele><time>2026-04-26T16:23:57.998Z</time></trkpt><trkpt lat="44.3067336" lon="8.4655601"><ele>54.0</ele><time>2026-04-26T16:23:58.998Z</time></trkpt><trkpt lat="44.3067436" lon="8.465423"><ele>54.0</ele><time>2026-04-26T16:24:00.998Z</time></trkpt><trkpt lat="44.3067148" lon="8.4653362"><ele>54.0</ele><time>2026-04-26T16:24:07.998Z</time></trkpt><trkpt lat="44.306695" lon="8.4652011"><ele>54.0</ele><time>2026-04-26T16:24:10.998Z</time></trkpt><trkpt lat="44.3067259" lon="8.4651239"><ele>54.0</ele><time>2026-04-26T16:24:11.998Z</time></trkpt><trkpt lat="44.3067781" lon="8.4650236"><ele>54.0</ele><time>2026-04-26T16:24:12.998Z</time></trkpt><trkpt lat="44.3068323" lon="8.4649036"><ele>54.0</ele><time>2026-04-26T16:24:13.998Z</time></trkpt><trkpt lat="44.3068779" lon="8.4647745"><ele>54.0</ele><time>2026-04-26T16:24:14.998Z</time></trkpt><trkpt lat="44.3069102" lon="8.4646385"><ele>54.00000000000001</ele><time>2026-04-26T16:24:15.998Z</time></trkpt><trkpt lat="44.3069303" lon="8.4645106"><ele>54.00000000000001</ele><time>2026-04-26T16:24:16.998Z</time></trkpt><trkpt lat="44.3069334" lon="8.4643897"><ele>54.0</ele><time>2026-04-26T16:24:17.998Z</time></trkpt><trkpt lat="44.3069168" lon="8.4642653"><ele>54.0</ele><time>2026-04-26T16:24:18.999Z</time></trkpt><trkpt lat="44.3068924" lon="8.4641335"><ele>54.2</ele><time>2026-04-26T16:24:19.998Z</time></trkpt><trkpt lat="44.3068616" lon="8.4639978"><ele>54.400000000000006</ele><time>2026-04-26T16:24:20.998Z</time></trkpt><trkpt lat="44.3068261" lon="8.4638529"><ele>54.6</ele><time>2026-04-26T16:24:21.998Z</time></trkpt><trkpt lat="44.3067908" lon="8.463707"><ele>54.8</ele><time>2026-04-26T16:24:22.998Z</time></trkpt><trkpt lat="44.3067573" lon="8.4635587"><ele>55.0</ele><time>2026-04-26T16:24:23.998Z</time></trkpt><trkpt lat="44.306728" lon="8.463413"><ele>55.0</ele><time>2026-04-26T16:24:24.998Z</time></trkpt><trkpt lat="44.3067011" lon="8.4632532"><ele>55.0</ele><time>2026-04-26T16:24:25.998Z</time></trkpt><trkpt lat="44.306679" lon="8.4630695"><ele>55.0</ele><time>2026-04-26T16:24:26.998Z</time></trkpt><trkpt lat="44.3052533" lon="8.461665"><ele>55.0</ele><time>2026-04-26T16:24:42.996Z</time></trkpt><trkpt lat="44.3051593" lon="8.4615615"><ele>55.0</ele><time>2026-04-26T16:24:43.996Z</time></trkpt><trkpt lat="44.3050667" lon="8.4614625"><ele>55.0</ele><time>2026-04-26T16:24:44.997Z</time></trkpt><trkpt lat="44.3049777" lon="8.4613519"><ele>55.0</ele><time>2026-04-26T16:24:45.996Z</time></trkpt><trkpt lat="44.3048954" lon="8.4612379"><ele>54.8</ele><time>2026-04-26T16:24:46.996Z</time></trkpt><trkpt lat="44.3048277" lon="8.4611237"><ele>54.6</ele><time>2026-04-26T16:24:47.996Z</time></trkpt><trkpt lat="44.3047683" lon="8.4610122"><ele>54.400000000000006</ele><time>2026-04-26T16:24:48.996Z</time></trkpt><trkpt lat="44.3047078" lon="8.4609182"><ele>54.2</ele><time>2026-04-26T16:24:49.996Z</time></trkpt><trkpt lat="44.3046463" lon="8.460826"><ele>54.0</ele><time>2026-04-26T16:24:50.996Z</time></trkpt><trkpt lat="44.3045822" lon="8.4607426"><ele>53.5</ele><time>2026-04-26T16:24:51.996Z</time></trkpt><trkpt lat="44.3045213" lon="8.460656"><ele>53.0</ele><time>2026-04-26T16:24:52.996Z</time></trkpt><trkpt lat="44.3044636" lon="8.4605756"><ele>52.5</ele><time>2026-04-26T16:24:53.996Z</time></trkpt><trkpt lat="44.304408" lon="8.4605105"><ele>52.0</ele><time>2026-04-26T16:24:54.996Z</time></trkpt><trkpt lat="44.3043519" lon="8.4604453"><ele>51.5</ele><time>2026-04-26T16:24:55.996Z</time></trkpt><trkpt lat="44.3042966" lon="8.4603735"><ele>51.0</ele><time>2026-04-26T16:24:56.996Z</time></trkpt><trkpt lat="44.3042342" lon="8.4603122"><ele>50.833333333333336</ele><time>2026-04-26T16:24:57.996Z</time></trkpt><trkpt lat="44.3041699" lon="8.4602496"><ele>50.66666666666667</ele><time>2026-04-26T16:24:58.996Z</time></trkpt><trkpt lat="44.3041046" lon="8.4601914"><ele>50.5</ele><time>2026-04-26T16:24:59.996Z</time></trkpt><trkpt lat="44.3040361" lon="8.4601409"><ele>50.333333333333336</ele><time>2026-04-26T16:25:00.996Z</time></trkpt><trkpt lat="44.3039681" lon="8.4600964"><ele>50.16666666666667</ele><time>2026-04-26T16:25:01.996Z</time></trkpt><trkpt lat="44.303904" lon="8.4600527"><ele>50.0</ele><time>2026-04-26T16:25:02.996Z</time></trkpt><trkpt lat="44.3038369" lon="8.4600031"><ele>50.0</ele><time>2026-04-26T16:25:03.996Z</time></trkpt><trkpt lat="44.303761" lon="8.4599474"><ele>50.0</ele><time>2026-04-26T16:25:04.996Z</time></trkpt><trkpt lat="44.3036608" lon="8.4598716"><ele>50.0</ele><time>2026-04-26T16:25:05.996Z</time></trkpt><trkpt lat="44.3035399" lon="8.4597666"><ele>50.0</ele><time>2026-04-26T16:25:06.996Z</time></trkpt><trkpt lat="44.3034015" lon="8.4596466"><ele>50.66666666666667</ele><time>2026-04-26T16:25:07.996Z</time></trkpt><trkpt lat="44.3032424" lon="8.4595245"><ele>51.33333333333333</ele><time>2026-04-26T16:25:08.996Z</time></trkpt><trkpt lat="44.3030746" lon="8.459406"><ele>52.0</ele><time>2026-04-26T16:25:09.997Z</time></trkpt><trkpt lat="44.3028934" lon="8.4593178"><ele>49.666666666666664</ele><time>2026-04-26T16:25:10.996Z</time></trkpt><trkpt lat="44.3027013" lon="8.4592507"><ele>47.33333333333333</ele><time>2026-04-26T16:25:11.996Z</time></trkpt><trkpt lat="44.3025186" lon="8.4591808"><ele>45.0</ele><time>2026-04-26T16:25:12.996Z</time></trkpt><trkpt lat="44.3023484" lon="8.4591395"><ele>43.666666666666664</ele><time>2026-04-26T16:25:13.996Z</time></trkpt><trkpt lat="44.3021807" lon="8.4591179"><ele>42.33333333333333</ele><time>2026-04-26T16:25:14.996Z</time></trkpt><trkpt lat="44.3020293" lon="8.4590881"><ele>41.0</ele><time>2026-04-26T16:25:15.996Z</time></trkpt><trkpt lat="44.3018997" lon="8.4590404"><ele>41.0</ele><time>2026-04-26T16:25:16.996Z</time></trkpt><trkpt lat="44.3017965" lon="8.4589569"><ele>41.0</ele><time>2026-04-26T16:25:17.996Z</time></trkpt><trkpt lat="44.3017088" lon="8.4588347"><ele>41.0</ele><time>2026-04-26T16:25:18.996Z</time></trkpt><trkpt lat="44.3016575" lon="8.4586622"><ele>41.0</ele><time>2026-04-26T16:25:19.996Z</time></trkpt><trkpt lat="44.3016162" lon="8.4584737"><ele>41.0</ele><time>2026-04-26T16:25:20.996Z</time></trkpt><trkpt lat="44.301584" lon="8.4582683"><ele>41.0</ele><time>2026-04-26T16:25:21.996Z</time></trkpt><trkpt lat="44.3015336" lon="8.4580856"><ele>41.0</ele><time>2026-04-26T16:25:22.996Z</time></trkpt><trkpt lat="44.3014457" lon="8.4579588"><ele>41.0</ele><time>2026-04-26T16:25:23.996Z</time></trkpt><trkpt lat="44.3013277" lon="8.4578735"><ele>37.0</ele><time>2026-04-26T16:25:24.996Z</time></trkpt><trkpt lat="44.3012039" lon="8.4577965"><ele>33.0</ele><time>2026-04-26T16:25:25.996Z</time></trkpt><trkpt lat="44.3010879" lon="8.4577273"><ele>29.0</ele><time>2026-04-26T16:25:26.997Z</time></trkpt><trkpt lat="44.3009779" lon="8.4576648"><ele>25.0</ele><time>2026-04-26T16:25:27.996Z</time></trkpt><trkpt lat="44.3008651" lon="8.4576164"><ele>25.0</ele><time>2026-04-26T16:25:28.996Z</time></trkpt><trkpt lat="44.3007565" lon="8.4575667"><ele>25.0</ele><time>2026-04-26T16:25:29.996Z</time></trkpt><trkpt lat="44.3006477" lon="8.4575101"><ele>25.0</ele><time>2026-04-26T16:25:30.996Z</time></trkpt><trkpt lat="44.3005357" lon="8.4574456"><ele>25.0</ele><time>2026-04-26T16:25:31.996Z</time></trkpt><trkpt lat="44.3004072" lon="8.4573647"><ele>23.666666666666668</ele><time>2026-04-26T16:25:32.996Z</time></trkpt><trkpt lat="44.3002643" lon="8.4572796"><ele>22.333333333333336</ele><time>2026-04-26T16:25:33.996Z</time></trkpt><trkpt lat="44.3001207" lon="8.4571756"><ele>21.0</ele><time>2026-04-26T16:25:34.996Z</time></trkpt><trkpt lat="44.2999764" lon="8.4570496"><ele>20.0</ele><time>2026-04-26T16:25:35.997Z</time></trkpt><trkpt lat="44.2998247" lon="8.4569058"><ele>19.0</ele><time>2026-04-26T16:25:36.996Z</time></trkpt><trkpt lat="44.2996797" lon="8.4567456"><ele>18.0</ele><time>2026-04-26T16:25:37.996Z</time></trkpt><trkpt lat="44.2995497" lon="8.4565728"><ele>17.666666666666668</ele><time>2026-04-26T16:25:38.996Z</time></trkpt><trkpt lat="44.2994487" lon="8.4563566"><ele>17.333333333333336</ele><time>2026-04-26T16:25:39.996Z</time></trkpt><trkpt lat="44.2993669" lon="8.4561312"><ele>17.0</ele><time>2026-04-26T16:25:40.996Z</time></trkpt><trkpt lat="44.2992963" lon="8.4559183"><ele>16.5</ele><time>2026-04-26T16:25:41.996Z</time></trkpt><trkpt lat="44.2992286" lon="8.4557228"><ele>16.0</ele><time>2026-04-26T16:25:42.996Z</time></trkpt><trkpt lat="44.2991623" lon="8.4555413"><ele>15.5</ele><time>2026-04-26T16:25:43.996Z</time></trkpt><trkpt lat="44.2990969" lon="8.4553649"><ele>15.0</ele><time>2026-04-26T16:25:44.996Z</time></trkpt><trkpt lat="44.2990375" lon="8.4552004"><ele>14.75</ele><time>2026-04-26T16:25:45.996Z</time></trkpt><trkpt lat="44.2989854" lon="8.4550412"><ele>14.5</ele><time>2026-04-26T16:25:46.996Z</time></trkpt><trkpt lat="44.2989451" lon="8.4548708"><ele>14.25</ele><time>2026-04-26T16:25:47.997Z</time></trkpt><trkpt lat="44.2989145" lon="8.4547072"><ele>14.0</ele><time>2026-04-26T16:25:48.996Z</time></trkpt><trkpt lat="44.2988852" lon="8.4545608"><ele>14.399999999999999</ele><time>2026-04-26T16:25:49.997Z</time></trkpt><trkpt lat="44.2988647" lon="8.4544235"><ele>14.799999999999999</ele><time>2026-04-26T16:25:50.996Z</time></trkpt><trkpt lat="44.298847" lon="8.4542934"><ele>15.200000000000001</ele><time>2026-04-26T16:25:51.996Z</time></trkpt><trkpt lat="44.2988363" lon="8.4541641"><ele>15.600000000000001</ele><time>2026-04-26T16:25:52.996Z</time></trkpt><trkpt lat="44.2988271" lon="8.4540393"><ele>16.0</ele><time>2026-04-26T16:25:53.996Z</time></trkpt><trkpt lat="44.2988188" lon="8.4539214"><ele>15.999999999999998</ele><time>2026-04-26T16:25:54.996Z</time></trkpt><trkpt lat="44.2988151" lon="8.4538121"><ele>16.0</ele><time>2026-04-26T16:25:55.996Z</time></trkpt><trkpt lat="44.2988174" lon="8.4537102"><ele>16.0</ele><time>2026-04-26T16:25:56.996Z</time></trkpt><trkpt lat="44.2988232" lon="8.4536067"><ele>16.0</ele><time>2026-04-26T16:25:57.996Z</time></trkpt><trkpt lat="44.2988242" lon="8.4535007"><ele>15.999999999999998</ele><time>2026-04-26T16:25:58.997Z</time></trkpt><trkpt lat="44.2988159" lon="8.4533928"><ele>16.0</ele><time>2026-04-26T16:25:59.996Z</time></trkpt><trkpt lat="44.298798" lon="8.4532843"><ele>15.4</ele><time>2026-04-26T16:26:00.996Z</time></trkpt><trkpt lat="44.2987751" lon="8.4531719"><ele>14.8</ele><time>2026-04-26T16:26:01.996Z</time></trkpt><trkpt lat="44.2987534" lon="8.4530544"><ele>14.200000000000001</ele><time>2026-04-26T16:26:02.996Z</time></trkpt><trkpt lat="44.2987312" lon="8.452924"><ele>13.600000000000001</ele><time>2026-04-26T16:26:03.996Z</time></trkpt><trkpt lat="44.298709" lon="8.4527745"><ele>13.0</ele><time>2026-04-26T16:26:04.996Z</time></trkpt><trkpt lat="44.2986899" lon="8.4526134"><ele>12.75</ele><time>2026-04-26T16:26:05.996Z</time></trkpt><trkpt lat="44.298673" lon="8.4524446"><ele>12.5</ele><time>2026-04-26T16:26:06.997Z</time></trkpt><trkpt lat="44.2986555" lon="8.4522791"><ele>12.25</ele><time>2026-04-26T16:26:07.996Z</time></trkpt><trkpt lat="44.2986386" lon="8.4521108"><ele>12.0</ele><time>2026-04-26T16:26:08.996Z</time></trkpt><trkpt lat="44.2986243" lon="8.4519446"><ele>12.0</ele><time>2026-04-26T16:26:09.996Z</time></trkpt><trkpt lat="44.298612" lon="8.4517857"><ele>12.0</ele><time>2026-04-26T16:26:10.996Z</time></trkpt><trkpt lat="44.2985976" lon="8.4516334"><ele>12.0</ele><time>2026-04-26T16:26:11.996Z</time></trkpt><trkpt lat="44.2985775" lon="8.4514699"><ele>12.0</ele><time>2026-04-26T16:26:12.996Z</time></trkpt><trkpt lat="44.2985531" lon="8.4512876"><ele>13.0</ele><time>2026-04-26T16:26:13.996Z</time></trkpt><trkpt lat="44.2985252" lon="8.4510714"><ele>14.0</ele><time>2026-04-26T16:26:14.996Z</time></trkpt><trkpt lat="44.2985017" lon="8.4507842"><ele>15.0</ele><time>2026-04-26T16:26:15.996Z</time></trkpt><trkpt lat="44.2984827" lon="8.4504912"><ele>16.0</ele><time>2026-04-26T16:26:16.996Z</time></trkpt><trkpt lat="44.298467" lon="8.4502249"><ele>17.0</ele><time>2026-04-26T16:26:17.996Z</time></trkpt><trkpt lat="44.2984316" lon="8.4499921"><ele>18.0</ele><time>2026-04-26T16:26:18.996Z</time></trkpt><trkpt lat="44.2983642" lon="8.4497795"><ele>20.666666666666664</ele><time>2026-04-26T16:26:19.996Z</time></trkpt><trkpt lat="44.2982736" lon="8.4496008"><ele>23.333333333333332</ele><time>2026-04-26T16:26:20.996Z</time></trkpt><trkpt lat="44.2981556" lon="8.4494688"><ele>26.0</ele><time>2026-04-26T16:26:21.996Z</time></trkpt><trkpt lat="44.2980264" lon="8.4493839"><ele>26.333333333333332</ele><time>2026-04-26T16:26:22.996Z</time></trkpt><trkpt lat="44.2978816" lon="8.4493345"><ele>26.666666666666664</ele><time>2026-04-26T16:26:23.996Z</time></trkpt><trkpt lat="44.2977298" lon="8.4493103"><ele>27.0</ele><time>2026-04-26T16:26:24.996Z</time></trkpt><trkpt lat="44.2975679" lon="8.4493078"><ele>27.0</ele><time>2026-04-26T16:26:25.997Z</time></trkpt><trkpt lat="44.2974037" lon="8.449299"><ele>27.0</ele><time>2026-04-26T16:26:26.996Z</time></trkpt><trkpt lat="44.2972325" lon="8.4492732"><ele>27.0</ele><time>2026-04-26T16:26:27.996Z</time></trkpt><trkpt lat="44.2970554" lon="8.4492412"><ele>25.666666666666668</ele><time>2026-04-26T16:26:28.997Z</time></trkpt><trkpt lat="44.2968817" lon="8.4491854"><ele>24.333333333333336</ele><time>2026-04-26T16:26:29.996Z</time></trkpt><trkpt lat="44.2967105" lon="8.4491036"><ele>23.0</ele><time>2026-04-26T16:26:30.996Z</time></trkpt><trkpt lat="44.2965515" lon="8.4489928"><ele>22.333333333333336</ele><time>2026-04-26T16:26:31.996Z</time></trkpt><trkpt lat="44.2963984" lon="8.4488367"><ele>21.666666666666668</ele><time>2026-04-26T16:26:32.996Z</time></trkpt><trkpt lat="44.2962647" lon="8.4486479"><ele>21.0</ele><time>2026-04-26T16:26:33.996Z</time></trkpt><trkpt lat="44.2961349" lon="8.448416"><ele>21.0</ele><time>2026-04-26T16:26:34.996Z</time></trkpt><trkpt lat="44.2960293" lon="8.4481536"><ele>21.0</ele><time>2026-04-26T16:26:35.996Z</time></trkpt><trkpt lat="44.295936" lon="8.4478843"><ele>21.0</ele><time>2026-04-26T16:26:36.996Z</time></trkpt><trkpt lat="44.295841" lon="8.4476377"><ele>21.666666666666668</ele><time>2026-04-26T16:26:37.996Z</time></trkpt><trkpt lat="44.2957531" lon="8.4474288"><ele>22.333333333333336</ele><time>2026-04-26T16:26:38.996Z</time></trkpt><trkpt lat="44.2956562" lon="8.4472602"><ele>23.0</ele><time>2026-04-26T16:26:39.996Z</time></trkpt><trkpt lat="44.2955404" lon="8.4471174"><ele>26.333333333333336</ele><time>2026-04-26T16:26:40.996Z</time></trkpt><trkpt lat="44.2953994" lon="8.4470099"><ele>29.666666666666668</ele><time>2026-04-26T16:26:41.996Z</time></trkpt><trkpt lat="44.295227" lon="8.4469508"><ele>33.0</ele><time>2026-04-26T16:26:42.996Z</time></trkpt><trkpt lat="44.2950434" lon="8.4469257"><ele>33.0</ele><time>2026-04-26T16:26:43.996Z</time></trkpt><trkpt lat="44.2948385" lon="8.4469496"><ele>33.0</ele><time>2026-04-26T16:26:44.996Z</time></trkpt><trkpt lat="44.2946232" lon="8.4469889"><ele>33.0</ele><time>2026-04-26T16:26:45.996Z</time></trkpt><trkpt lat="44.2943864" lon="8.4470242"><ele>36.0</ele><time>2026-04-26T16:26:46.996Z</time></trkpt><trkpt lat="44.2941513" lon="8.447024"><ele>39.0</ele><time>2026-04-26T16:26:47.996Z</time></trkpt><trkpt lat="44.2939225" lon="8.4469662"><ele>40.0</ele><time>2026-04-26T16:26:48.996Z</time></trkpt><trkpt lat="44.2937092" lon="8.4468905"><ele>41.0</ele><time>2026-04-26T16:26:49.996Z</time></trkpt><trkpt lat="44.2934932" lon="8.4468137"><ele>42.0</ele><time>2026-04-26T16:26:50.996Z</time></trkpt><trkpt lat="44.2932606" lon="8.4467556"><ele>40.0</ele><time>2026-04-26T16:26:51.996Z</time></trkpt><trkpt lat="44.2930088" lon="8.446736"><ele>38.0</ele><time>2026-04-26T16:26:52.996Z</time></trkpt><trkpt lat="44.2927532" lon="8.4467426"><ele>38.0</ele><time>2026-04-26T16:26:53.996Z</time></trkpt><trkpt lat="44.2925069" lon="8.4467652"><ele>38.0</ele><time>2026-04-26T16:26:54.996Z</time></trkpt><trkpt lat="44.2922884" lon="8.4467729"><ele>39.666666666666664</ele><time>2026-04-26T16:26:55.996Z</time></trkpt><trkpt lat="44.2920722" lon="8.4467656"><ele>41.333333333333336</ele><time>2026-04-26T16:26:56.996Z</time></trkpt><trkpt lat="44.2918707" lon="8.4467411"><ele>43.0</ele><time>2026-04-26T16:26:57.996Z</time></trkpt><trkpt lat="44.2916854" lon="8.4466689"><ele>43.0</ele><time>2026-04-26T16:26:58.996Z</time></trkpt><trkpt lat="44.2915162" lon="8.4465616"><ele>43.0</ele><time>2026-04-26T16:26:59.996Z</time></trkpt><trkpt lat="44.291357" lon="8.4464269"><ele>43.0</ele><time>2026-04-26T16:27:00.996Z</time></trkpt><trkpt lat="44.2911871" lon="8.4462794"><ele>41.66666666666667</ele><time>2026-04-26T16:27:01.996Z</time></trkpt><trkpt lat="44.2910081" lon="8.4461351"><ele>40.333333333333336</ele><time>2026-04-26T16:27:02.996Z</time></trkpt><trkpt lat="44.2908311" lon="8.4459848"><ele>39.0</ele><time>2026-04-26T16:27:03.996Z</time></trkpt><trkpt lat="44.2906711" lon="8.4458363"><ele>39.666666666666664</ele><time>2026-04-26T16:27:04.996Z</time></trkpt><trkpt lat="44.2905198" lon="8.445692"><ele>40.33333333333333</ele><time>2026-04-26T16:27:05.996Z</time></trkpt><trkpt lat="44.2903826" lon="8.4455469"><ele>41.0</ele><time>2026-04-26T16:27:06.996Z</time></trkpt><trkpt lat="44.2902507" lon="8.4454065"><ele>41.33333333333333</ele><time>2026-04-26T16:27:07.996Z</time></trkpt><trkpt lat="44.2901238" lon="8.4452662"><ele>41.666666666666664</ele><time>2026-04-26T16:27:08.996Z</time></trkpt><trkpt lat="44.2899971" lon="8.4451421"><ele>42.0</ele><time>2026-04-26T16:27:09.996Z</time></trkpt><trkpt lat="44.2898773" lon="8.4450215"><ele>42.0</ele><time>2026-04-26T16:27:10.996Z</time></trkpt><trkpt lat="44.2897723" lon="8.4449027"><ele>42.0</ele><time>2026-04-26T16:27:11.996Z</time></trkpt><trkpt lat="44.2896856" lon="8.4448011"><ele>42.0</ele><time>2026-04-26T16:27:12.996Z</time></trkpt><trkpt lat="44.2896055" lon="8.4447075"><ele>42.0</ele><time>2026-04-26T16:27:13.996Z</time></trkpt><trkpt lat="44.2895253" lon="8.4446438"><ele>42.0</ele><time>2026-04-26T16:27:14.996Z</time></trkpt><trkpt lat="44.2894422" lon="8.4446266"><ele>42.0</ele><time>2026-04-26T16:27:15.996Z</time></trkpt><trkpt lat="44.2893589" lon="8.4446475"><ele>42.0</ele><time>2026-04-26T16:27:16.996Z</time></trkpt><trkpt lat="44.2892746" lon="8.4446975"><ele>42.0</ele><time>2026-04-26T16:27:17.996Z</time></trkpt><trkpt lat="44.2891967" lon="8.4447838"><ele>42.0</ele><time>2026-04-26T16:27:18.996Z</time></trkpt><trkpt lat="44.2891237" lon="8.4449267"><ele>42.0</ele><time>2026-04-26T16:27:19.996Z</time></trkpt><trkpt lat="44.2890548" lon="8.4450781"><ele>42.0</ele><time>2026-04-26T16:27:20.996Z</time></trkpt><trkpt lat="44.2889831" lon="8.4452168"><ele>42.0</ele><time>2026-04-26T16:27:21.996Z</time></trkpt><trkpt lat="44.2889121" lon="8.4453482"><ele>42.0</ele><time>2026-04-26T16:27:22.996Z</time></trkpt><trkpt lat="44.2888344" lon="8.4454569"><ele>42.0</ele><time>2026-04-26T16:27:23.996Z</time></trkpt><trkpt lat="44.2887535" lon="8.4455586"><ele>40.2</ele><time>2026-04-26T16:27:24.996Z</time></trkpt><trkpt lat="44.2886719" lon="8.4456472"><ele>38.400000000000006</ele><time>2026-04-26T16:27:25.996Z</time></trkpt><trkpt lat="44.2885902" lon="8.4457221"><ele>36.599999999999994</ele><time>2026-04-26T16:27:26.996Z</time></trkpt><trkpt lat="44.2885066" lon="8.4457781"><ele>34.8</ele><time>2026-04-26T16:27:27.996Z</time></trkpt><trkpt lat="44.2884233" lon="8.4458182"><ele>33.0</ele><time>2026-04-26T16:27:28.996Z</time></trkpt><trkpt lat="44.2883334" lon="8.445836"><ele>33.0</ele><time>2026-04-26T16:27:29.996Z</time></trkpt><trkpt lat="44.2882434" lon="8.4458364"><ele>33.0</ele><time>2026-04-26T16:27:30.996Z</time></trkpt><trkpt lat="44.288161" lon="8.4458286"><ele>33.0</ele><time>2026-04-26T16:27:31.996Z</time></trkpt><trkpt lat="44.2880868" lon="8.4458236"><ele>33.0</ele><time>2026-04-26T16:27:32.996Z</time></trkpt><trkpt lat="44.2880196" lon="8.4458301"><ele>33.0</ele><time>2026-04-26T16:27:33.996Z</time></trkpt><trkpt lat="44.2879542" lon="8.4458669"><ele>33.0</ele><time>2026-04-26T16:27:34.996Z</time></trkpt><trkpt lat="44.2878987" lon="8.4459214"><ele>31.166666666666668</ele><time>2026-04-26T16:27:35.996Z</time></trkpt><trkpt lat="44.2878477" lon="8.4459749"><ele>29.333333333333332</ele><time>2026-04-26T16:27:36.996Z</time></trkpt><trkpt lat="44.2877539" lon="8.446049"><ele>27.5</ele><time>2026-04-26T16:27:38.996Z</time></trkpt><trkpt lat="44.2876641" lon="8.4460337"><ele>25.666666666666664</ele><time>2026-04-26T16:27:40.996Z</time></trkpt><trkpt lat="44.2876448" lon="8.4459044"><ele>23.833333333333332</ele><time>2026-04-26T16:27:42.996Z</time></trkpt><trkpt lat="44.2876515" lon="8.4457991"><ele>22.0</ele><time>2026-04-26T16:27:43.996Z</time></trkpt><trkpt lat="44.2876632" lon="8.4456842"><ele>22.0</ele><time>2026-04-26T16:27:44.996Z</time></trkpt><trkpt lat="44.2876741" lon="8.4455766"><ele>22.0</ele><time>2026-04-26T16:27:45.996Z</time></trkpt><trkpt lat="44.2876826" lon="8.4454766"><ele>22.0</ele><time>2026-04-26T16:27:46.996Z</time></trkpt><trkpt lat="44.2876898" lon="8.4453872"><ele>22.0</ele><time>2026-04-26T16:27:47.997Z</time></trkpt><trkpt lat="44.2877096" lon="8.4452457"><ele>22.0</ele><time>2026-04-26T16:27:49.996Z</time></trkpt><trkpt lat="44.287711" lon="8.4451189"><ele>22.0</ele><time>2026-04-26T16:27:51.996Z</time></trkpt><trkpt lat="44.2877115" lon="8.4449913"><ele>22.5</ele><time>2026-04-26T16:27:53.997Z</time></trkpt><trkpt lat="44.2877301" lon="8.4448106"><ele>23.0</ele><time>2026-04-26T16:27:55.996Z</time></trkpt><trkpt lat="44.2877662" lon="8.4447011"><ele>23.5</ele><time>2026-04-26T16:27:56.996Z</time></trkpt><trkpt lat="44.2878192" lon="8.4445771"><ele>24.0</ele><time>2026-04-26T16:27:57.996Z</time></trkpt><trkpt lat="44.2878853" lon="8.4444216"><ele>24.666666666666664</ele><time>2026-04-26T16:27:58.996Z</time></trkpt><trkpt lat="44.2879723" lon="8.4442128"><ele>25.333333333333332</ele><time>2026-04-26T16:27:59.996Z</time></trkpt><trkpt lat="44.288088" lon="8.4439573"><ele>26.0</ele><time>2026-04-26T16:28:00.996Z</time></trkpt><trkpt lat="44.2882126" lon="8.443666"><ele>27.0</ele><time>2026-04-26T16:28:01.996Z</time></trkpt><trkpt lat="44.2883253" lon="8.443357"><ele>28.0</ele><time>2026-04-26T16:28:02.996Z</time></trkpt><trkpt lat="44.2884061" lon="8.4430749"><ele>26.666666666666668</ele><time>2026-04-26T16:28:03.996Z</time></trkpt><trkpt lat="44.2884747" lon="8.4428216"><ele>25.333333333333336</ele><time>2026-04-26T16:28:04.996Z</time></trkpt><trkpt lat="44.2885157" lon="8.4426073"><ele>24.0</ele><time>2026-04-26T16:28:05.996Z</time></trkpt><trkpt lat="44.2885288" lon="8.4424214"><ele>24.0</ele><time>2026-04-26T16:28:06.996Z</time></trkpt><trkpt lat="44.2885081" lon="8.4422403"><ele>24.0</ele><time>2026-04-26T16:28:07.996Z</time></trkpt><trkpt lat="44.2884511" lon="8.4420445"><ele>24.0</ele><time>2026-04-26T16:28:08.997Z</time></trkpt><trkpt lat="44.2883753" lon="8.4418296"><ele>24.0</ele><time>2026-04-26T16:28:09.996Z</time></trkpt><trkpt lat="44.2882816" lon="8.4415902"><ele>24.0</ele><time>2026-04-26T16:28:10.996Z</time></trkpt><trkpt lat="44.2881896" lon="8.4413378"><ele>24.0</ele><time>2026-04-26T16:28:11.997Z</time></trkpt><trkpt lat="44.2881032" lon="8.4410853"><ele>23.666666666666668</ele><time>2026-04-26T16:28:12.996Z</time></trkpt><trkpt lat="44.2880299" lon="8.4408504"><ele>23.333333333333336</ele><time>2026-04-26T16:28:13.996Z</time></trkpt><trkpt lat="44.2879624" lon="8.4406313"><ele>23.0</ele><time>2026-04-26T16:28:14.996Z</time></trkpt><trkpt lat="44.2878964" lon="8.4404315"><ele>22.666666666666668</ele><time>2026-04-26T16:28:15.996Z</time></trkpt><trkpt lat="44.2878207" lon="8.4402345"><ele>22.333333333333332</ele><time>2026-04-26T16:28:16.996Z</time></trkpt><trkpt lat="44.2877454" lon="8.4400272"><ele>22.0</ele><time>2026-04-26T16:28:17.996Z</time></trkpt><trkpt lat="44.2876665" lon="8.4398346"><ele>22.0</ele><time>2026-04-26T16:28:18.996Z</time></trkpt><trkpt lat="44.2875839" lon="8.4396523"><ele>22.0</ele><time>2026-04-26T16:28:19.996Z</time></trkpt><trkpt lat="44.2875138" lon="8.4394763"><ele>22.0</ele><time>2026-04-26T16:28:20.996Z</time></trkpt><trkpt lat="44.2874596" lon="8.4393191"><ele>22.0</ele><time>2026-04-26T16:28:21.996Z</time></trkpt><trkpt lat="44.2874142" lon="8.439187"><ele>22.200000000000003</ele><time>2026-04-26T16:28:22.996Z</time></trkpt><trkpt lat="44.28737" lon="8.4390623"><ele>22.4</ele><time>2026-04-26T16:28:23.996Z</time></trkpt><trkpt lat="44.2873241" lon="8.4389322"><ele>22.6</ele><time>2026-04-26T16:28:24.996Z</time></trkpt><trkpt lat="44.2872666" lon="8.4387907"><ele>22.799999999999997</ele><time>2026-04-26T16:28:25.996Z</time></trkpt><trkpt lat="44.2872135" lon="8.4386523"><ele>23.0</ele><time>2026-04-26T16:28:26.996Z</time></trkpt><trkpt lat="44.2871582" lon="8.4385147"><ele>21.0</ele><time>2026-04-26T16:28:27.996Z</time></trkpt><trkpt lat="44.2870995" lon="8.4383787"><ele>19.0</ele><time>2026-04-26T16:28:28.996Z</time></trkpt><trkpt lat="44.2870433" lon="8.438237"><ele>17.0</ele><time>2026-04-26T16:28:29.997Z</time></trkpt><trkpt lat="44.2869516" lon="8.4381238"><ele>15.0</ele><time>2026-04-26T16:28:30.996Z</time></trkpt><trkpt lat="44.2868618" lon="8.4379896"><ele>15.25</ele><time>2026-04-26T16:28:31.996Z</time></trkpt><trkpt lat="44.2867792" lon="8.4378576"><ele>15.5</ele><time>2026-04-26T16:28:32.996Z</time></trkpt><trkpt lat="44.2866964" lon="8.4376992"><ele>15.75</ele><time>2026-04-26T16:28:33.996Z</time></trkpt><trkpt lat="44.2866117" lon="8.4375069"><ele>16.0</ele><time>2026-04-26T16:28:34.996Z</time></trkpt><trkpt lat="44.2865141" lon="8.4373056"><ele>14.333333333333332</ele><time>2026-04-26T16:28:35.996Z</time></trkpt><trkpt lat="44.2863982" lon="8.4370879"><ele>12.666666666666666</ele><time>2026-04-26T16:28:36.996Z</time></trkpt><trkpt lat="44.2862461" lon="8.4368499"><ele>11.0</ele><time>2026-04-26T16:28:37.996Z</time></trkpt><trkpt lat="44.2860524" lon="8.4365814"><ele>11.5</ele><time>2026-04-26T16:28:38.996Z</time></trkpt><trkpt lat="44.2858127" lon="8.4363006"><ele>12.0</ele><time>2026-04-26T16:28:39.996Z</time></trkpt><trkpt lat="44.2855747" lon="8.4360528"><ele>11.0</ele><time>2026-04-26T16:28:40.996Z</time></trkpt><trkpt lat="44.2853712" lon="8.4358473"><ele>10.0</ele><time>2026-04-26T16:28:41.996Z</time></trkpt><trkpt lat="44.2852063" lon="8.4357049"><ele>9.0</ele><time>2026-04-26T16:28:42.996Z</time></trkpt><trkpt lat="44.2850764" lon="8.435602"><ele>9.0</ele><time>2026-04-26T16:28:43.996Z</time></trkpt><trkpt lat="44.284966" lon="8.4355144"><ele>9.0</ele><time>2026-04-26T16:28:44.996Z</time></trkpt><trkpt lat="44.2848628" lon="8.4354455"><ele>9.0</ele><time>2026-04-26T16:28:45.996Z</time></trkpt><trkpt lat="44.2847792" lon="8.435379"><ele>9.0</ele><time>2026-04-26T16:28:46.996Z</time></trkpt><trkpt lat="44.2847155" lon="8.4353053"><ele>9.0</ele><time>2026-04-26T16:28:47.996Z</time></trkpt><trkpt lat="44.2846676" lon="8.4352204"><ele>9.0</ele><time>2026-04-26T16:28:48.996Z</time></trkpt><trkpt lat="44.2846359" lon="8.4351186"><ele>9.0</ele><time>2026-04-26T16:28:49.996Z</time></trkpt><trkpt lat="44.284619" lon="8.4350161"><ele>9.0</ele><time>2026-04-26T16:28:50.996Z</time></trkpt><trkpt lat="44.284633" lon="8.4348835"><ele>9.0</ele><time>2026-04-26T16:28:51.996Z</time></trkpt><trkpt lat="44.2846943" lon="8.4347087"><ele>9.0</ele><time>2026-04-26T16:28:52.996Z</time></trkpt><trkpt lat="44.2847851" lon="8.4345195"><ele>9.0</ele><time>2026-04-26T16:28:53.996Z</time></trkpt><trkpt lat="44.2849085" lon="8.4343132"><ele>9.0</ele><time>2026-04-26T16:28:54.996Z</time></trkpt><trkpt lat="44.2850924" lon="8.434084"><ele>9.0</ele><time>2026-04-26T16:28:55.996Z</time></trkpt><trkpt lat="44.2853064" lon="8.433864"><ele>8.5</ele><time>2026-04-26T16:28:56.996Z</time></trkpt><trkpt lat="44.2855312" lon="8.4336607"><ele>8.0</ele><time>2026-04-26T16:28:57.996Z</time></trkpt><trkpt lat="44.2856979" lon="8.4335151"><ele>8.0</ele><time>2026-04-26T16:28:58.996Z</time></trkpt><trkpt lat="44.2858251" lon="8.4334088"><ele>8.0</ele><time>2026-04-26T16:28:59.996Z</time></trkpt><trkpt lat="44.2859227" lon="8.4333253"><ele>8.0</ele><time>2026-04-26T16:29:00.997Z</time></trkpt><trkpt lat="44.2860024" lon="8.4332645"><ele>8.0</ele><time>2026-04-26T16:29:01.996Z</time></trkpt><trkpt lat="44.2860698" lon="8.4332157"><ele>8.0</ele><time>2026-04-26T16:29:02.997Z</time></trkpt><trkpt lat="44.2861303" lon="8.4330809"><ele>8.0</ele><time>2026-04-26T16:29:04.996Z</time></trkpt><trkpt lat="44.2860821" lon="8.4329405"><ele>8.0</ele><time>2026-04-26T16:29:06.996Z</time></trkpt><trkpt lat="44.2860158" lon="8.4328748"><ele>8.0</ele><time>2026-04-26T16:29:07.997Z</time></trkpt><trkpt lat="44.2859352" lon="8.4327955"><ele>8.0</ele><time>2026-04-26T16:29:08.996Z</time></trkpt><trkpt lat="44.2858581" lon="8.4327044"><ele>8.0</ele><time>2026-04-26T16:29:09.996Z</time></trkpt><trkpt lat="44.2857945" lon="8.4326229"><ele>8.0</ele><time>2026-04-26T16:29:10.996Z</time></trkpt><trkpt lat="44.2857462" lon="8.4325533"><ele>8.0</ele><time>2026-04-26T16:29:11.996Z</time></trkpt><trkpt lat="44.2856644" lon="8.4324611"><ele>8.0</ele><time>2026-04-26T16:29:13.997Z</time></trkpt><trkpt lat="44.2855747" lon="8.432487"><ele>8.0</ele><time>2026-04-26T16:29:15.996Z</time></trkpt><trkpt lat="44.2854668" lon="8.4326153"><ele>8.0</ele><time>2026-04-26T16:29:17.997Z</time></trkpt><trkpt lat="44.2853806" lon="8.4327386"><ele>8.0</ele><time>2026-04-26T16:29:18.996Z</time></trkpt><trkpt lat="44.2852591" lon="8.432906"><ele>8.0</ele><time>2026-04-26T16:29:19.996Z</time></trkpt><trkpt lat="44.2851064" lon="8.4331207"><ele>8.0</ele><time>2026-04-26T16:29:20.996Z</time></trkpt><trkpt lat="44.2849264" lon="8.4333627"><ele>8.0</ele><time>2026-04-26T16:29:21.996Z</time></trkpt><trkpt lat="44.2847032" lon="8.4336704"><ele>8.0</ele><time>2026-04-26T16:29:22.996Z</time></trkpt><trkpt lat="44.2845093" lon="8.4339385"><ele>7.0</ele><time>2026-04-26T16:29:23.996Z</time></trkpt><trkpt lat="44.2843447" lon="8.4341625"><ele>6.0</ele><time>2026-04-26T16:29:24.996Z</time></trkpt><trkpt lat="44.2841839" lon="8.4343825"><ele>6.0</ele><time>2026-04-26T16:29:25.996Z</time></trkpt><trkpt lat="44.2840477" lon="8.4345644"><ele>6.0</ele><time>2026-04-26T16:29:26.996Z</time></trkpt><trkpt lat="44.2839435" lon="8.434708"><ele>6.0</ele><time>2026-04-26T16:29:27.996Z</time></trkpt><trkpt lat="44.2838696" lon="8.434821"><ele>6.0</ele><time>2026-04-26T16:29:28.996Z</time></trkpt><trkpt lat="44.2838138" lon="8.4349146"><ele>6.0</ele><time>2026-04-26T16:29:29.996Z</time></trkpt><trkpt lat="44.2837704" lon="8.4349787"><ele>6.0</ele><time>2026-04-26T16:29:30.996Z</time></trkpt><trkpt lat="44.283688" lon="8.4350206"><ele>6.0</ele><time>2026-04-26T16:29:32.996Z</time></trkpt><trkpt lat="44.2836063" lon="8.434931"><ele>6.0</ele><time>2026-04-26T16:29:34.996Z</time></trkpt><trkpt lat="44.2835542" lon="8.4348361"><ele>6.0</ele><time>2026-04-26T16:29:35.996Z</time></trkpt><trkpt lat="44.2834868" lon="8.4347193"><ele>6.0</ele><time>2026-04-26T16:29:36.996Z</time></trkpt><trkpt lat="44.2834261" lon="8.4345991"><ele>6.0</ele><time>2026-04-26T16:29:37.996Z</time></trkpt><trkpt lat="44.283379" lon="8.4344861"><ele>6.0</ele><time>2026-04-26T16:29:38.996Z</time></trkpt><trkpt lat="44.2833476" lon="8.4343729"><ele>6.0</ele><time>2026-04-26T16:29:39.996Z</time></trkpt><trkpt lat="44.283322" lon="8.4342559"><ele>6.0</ele><time>2026-04-26T16:29:40.996Z</time></trkpt><trkpt lat="44.2832917" lon="8.4341497"><ele>6.0</ele><time>2026-04-26T16:29:41.996Z</time></trkpt><trkpt lat="44.2832574" lon="8.4340569"><ele>6.0</ele><time>2026-04-26T16:29:42.996Z</time></trkpt><trkpt lat="44.2832226" lon="8.4339648"><ele>6.0</ele><time>2026-04-26T16:29:43.996Z</time></trkpt><trkpt lat="44.2831746" lon="8.4338818"><ele>6.0</ele><time>2026-04-26T16:29:44.996Z</time></trkpt><trkpt lat="44.2831159" lon="8.4338049"><ele>6.0</ele><time>2026-04-26T16:29:45.996Z</time></trkpt><trkpt lat="44.2830507" lon="8.4337286"><ele>6.0</ele><time>2026-04-26T16:29:46.996Z</time></trkpt><trkpt lat="44.2829843" lon="8.4336515"><ele>6.0</ele><time>2026-04-26T16:29:47.996Z</time></trkpt><trkpt lat="44.2829144" lon="8.4335886"><ele>6.0</ele><time>2026-04-26T16:29:48.996Z</time></trkpt><trkpt lat="44.2828509" lon="8.4335255"><ele>6.333333333333333</ele><time>2026-04-26T16:29:49.996Z</time></trkpt><trkpt lat="44.2827917" lon="8.4334651"><ele>6.666666666666666</ele><time>2026-04-26T16:29:50.996Z</time></trkpt><trkpt lat="44.2827362" lon="8.4334117"><ele>7.0</ele><time>2026-04-26T16:29:51.996Z</time></trkpt><trkpt lat="44.2826489" lon="8.4333398"><ele>7.333333333333333</ele><time>2026-04-26T16:29:53.996Z</time></trkpt><trkpt lat="44.2825727" lon="8.4333395"><ele>7.666666666666666</ele><time>2026-04-26T16:29:55.996Z</time></trkpt><trkpt lat="44.2824993" lon="8.4333982"><ele>8.0</ele><time>2026-04-26T16:29:57.996Z</time></trkpt><trkpt lat="44.2824208" lon="8.4334552"><ele>8.0</ele><time>2026-04-26T16:29:59.996Z</time></trkpt><trkpt lat="44.2823609" lon="8.4335042"><ele>8.0</ele><time>2026-04-26T16:30:01.996Z</time></trkpt><trkpt lat="44.2823923" lon="8.4335888"><ele>8.0</ele><time>2026-04-26T16:31:04.996Z</time></trkpt></trkseg></trk></gpx>